<?xml version="1.0" encoding="UTF-8" standalone="no" ?>
<gpx xmlns="http://www.topografix.com/GPX/1/1" xmlns:xsi="http://www.w3.org/2001/XMLSchema-instance" xsi:schemaLocation="http://www.topografix.com/GPX/1/1 http://www.topografix.com/GPX/1/1/gpx.xsd" version="1.1" creator="VisuGPX - https://www.visugpx.com">
  <metadata>
    <name>Tour de Dormillouse</name>
    <desc><![CDATA[Randonnée effectué le 01/09/2021 avec le Haibike FullSeven ]]></desc>
  </metadata>
  <trk>
    <name><![CDATA[Dormillouse_2021-09-01_10-51-19]]></name>
    <extensions>
      <line xmlns="http://www.topografix.com/GPX/gpx_style/0/2">
        <color>0000FF</color>
        <width>4</width>
      </line>
    </extensions>
    <trkseg>
      <trkpt lat="44.44233" lon="6.37276">
        <ele>1264</ele>
        <time>2021-09-01T08:51:20.000Z</time>
      </trkpt>
      <trkpt lat="44.44232" lon="6.37277">
        <ele>1265</ele>
        <time>2021-09-01T08:51:21.000Z</time>
      </trkpt>
      <trkpt lat="44.4423" lon="6.37278">
        <ele>1265</ele>
        <time>2021-09-01T08:51:22.000Z</time>
      </trkpt>
      <trkpt lat="44.44229" lon="6.37279">
        <ele>1265</ele>
        <time>2021-09-01T08:51:23.000Z</time>
      </trkpt>
      <trkpt lat="44.44228" lon="6.37281">
        <ele>1264</ele>
        <time>2021-09-01T08:51:24.000Z</time>
      </trkpt>
      <trkpt lat="44.44226" lon="6.37283">
        <ele>1264</ele>
        <time>2021-09-01T08:51:25.000Z</time>
      </trkpt>
      <trkpt lat="44.44225" lon="6.37285">
        <ele>1264</ele>
        <time>2021-09-01T08:51:26.000Z</time>
      </trkpt>
      <trkpt lat="44.44223" lon="6.37287">
        <ele>1265</ele>
        <time>2021-09-01T08:51:27.000Z</time>
      </trkpt>
      <trkpt lat="44.44221" lon="6.37289">
        <ele>1264</ele>
        <time>2021-09-01T08:51:28.000Z</time>
      </trkpt>
      <trkpt lat="44.4422" lon="6.37291">
        <ele>1265</ele>
        <time>2021-09-01T08:51:29.000Z</time>
      </trkpt>
      <trkpt lat="44.44218" lon="6.37294">
        <ele>1265</ele>
        <time>2021-09-01T08:51:30.000Z</time>
      </trkpt>
      <trkpt lat="44.44217" lon="6.37296">
        <ele>1264</ele>
        <time>2021-09-01T08:51:31.000Z</time>
      </trkpt>
      <trkpt lat="44.44215" lon="6.37299">
        <ele>1265</ele>
        <time>2021-09-01T08:51:32.000Z</time>
      </trkpt>
      <trkpt lat="44.44214" lon="6.37302">
        <ele>1266</ele>
        <time>2021-09-01T08:51:33.000Z</time>
      </trkpt>
      <trkpt lat="44.44212" lon="6.37304">
        <ele>1266</ele>
        <time>2021-09-01T08:51:34.000Z</time>
      </trkpt>
      <trkpt lat="44.4421" lon="6.37307">
        <ele>1265</ele>
        <time>2021-09-01T08:51:35.000Z</time>
      </trkpt>
      <trkpt lat="44.44208" lon="6.3731">
        <ele>1265</ele>
        <time>2021-09-01T08:51:36.000Z</time>
      </trkpt>
      <trkpt lat="44.44206" lon="6.37313">
        <ele>1265</ele>
        <time>2021-09-01T08:51:37.000Z</time>
      </trkpt>
      <trkpt lat="44.44204" lon="6.37315">
        <ele>1265</ele>
        <time>2021-09-01T08:51:38.000Z</time>
      </trkpt>
      <trkpt lat="44.44202" lon="6.37318">
        <ele>1265</ele>
        <time>2021-09-01T08:51:39.000Z</time>
      </trkpt>
      <trkpt lat="44.442" lon="6.37322">
        <ele>1264</ele>
        <time>2021-09-01T08:51:40.000Z</time>
      </trkpt>
      <trkpt lat="44.44198" lon="6.37325">
        <ele>1264</ele>
        <time>2021-09-01T08:51:41.000Z</time>
      </trkpt>
      <trkpt lat="44.44195" lon="6.37328">
        <ele>1265</ele>
        <time>2021-09-01T08:51:42.000Z</time>
      </trkpt>
      <trkpt lat="44.44193" lon="6.37331">
        <ele>1265</ele>
        <time>2021-09-01T08:51:43.000Z</time>
      </trkpt>
      <trkpt lat="44.44191" lon="6.37334">
        <ele>1265</ele>
        <time>2021-09-01T08:51:44.000Z</time>
      </trkpt>
      <trkpt lat="44.44188" lon="6.37337">
        <ele>1266</ele>
        <time>2021-09-01T08:51:45.000Z</time>
      </trkpt>
      <trkpt lat="44.44186" lon="6.3734">
        <ele>1266</ele>
        <time>2021-09-01T08:51:46.000Z</time>
      </trkpt>
      <trkpt lat="44.44184" lon="6.37343">
        <ele>1266</ele>
        <time>2021-09-01T08:51:47.000Z</time>
      </trkpt>
      <trkpt lat="44.44182" lon="6.37346">
        <ele>1266</ele>
        <time>2021-09-01T08:51:48.000Z</time>
      </trkpt>
      <trkpt lat="44.44179" lon="6.37348">
        <ele>1266</ele>
        <time>2021-09-01T08:51:49.000Z</time>
      </trkpt>
      <trkpt lat="44.44176" lon="6.37351">
        <ele>1267</ele>
        <time>2021-09-01T08:51:50.000Z</time>
      </trkpt>
      <trkpt lat="44.44174" lon="6.37353">
        <ele>1267</ele>
        <time>2021-09-01T08:51:51.000Z</time>
      </trkpt>
      <trkpt lat="44.44172" lon="6.37355">
        <ele>1267</ele>
        <time>2021-09-01T08:51:52.000Z</time>
      </trkpt>
      <trkpt lat="44.4417" lon="6.37358">
        <ele>1267</ele>
        <time>2021-09-01T08:51:53.000Z</time>
      </trkpt>
      <trkpt lat="44.44168" lon="6.37362">
        <ele>1266</ele>
        <time>2021-09-01T08:51:54.000Z</time>
      </trkpt>
      <trkpt lat="44.44165" lon="6.37364">
        <ele>1267</ele>
        <time>2021-09-01T08:51:55.000Z</time>
      </trkpt>
      <trkpt lat="44.44163" lon="6.37367">
        <ele>1267</ele>
        <time>2021-09-01T08:51:56.000Z</time>
      </trkpt>
      <trkpt lat="44.44161" lon="6.3737">
        <ele>1266</ele>
        <time>2021-09-01T08:51:57.000Z</time>
      </trkpt>
      <trkpt lat="44.44158" lon="6.37372">
        <ele>1266</ele>
        <time>2021-09-01T08:51:58.000Z</time>
      </trkpt>
      <trkpt lat="44.44155" lon="6.37374">
        <ele>1266</ele>
        <time>2021-09-01T08:51:59.000Z</time>
      </trkpt>
      <trkpt lat="44.44152" lon="6.37377">
        <ele>1266</ele>
        <time>2021-09-01T08:52:00.000Z</time>
      </trkpt>
      <trkpt lat="44.44149" lon="6.37379">
        <ele>1266</ele>
        <time>2021-09-01T08:52:01.000Z</time>
      </trkpt>
      <trkpt lat="44.44146" lon="6.37382">
        <ele>1267</ele>
        <time>2021-09-01T08:52:02.000Z</time>
      </trkpt>
      <trkpt lat="44.44143" lon="6.37384">
        <ele>1267</ele>
        <time>2021-09-01T08:52:03.000Z</time>
      </trkpt>
      <trkpt lat="44.4414" lon="6.37386">
        <ele>1268</ele>
        <time>2021-09-01T08:52:04.000Z</time>
      </trkpt>
      <trkpt lat="44.44137" lon="6.37389">
        <ele>1268</ele>
        <time>2021-09-01T08:52:05.000Z</time>
      </trkpt>
      <trkpt lat="44.44135" lon="6.37391">
        <ele>1268</ele>
        <time>2021-09-01T08:52:06.000Z</time>
      </trkpt>
      <trkpt lat="44.44132" lon="6.37393">
        <ele>1268</ele>
        <time>2021-09-01T08:52:07.000Z</time>
      </trkpt>
      <trkpt lat="44.44129" lon="6.37396">
        <ele>1268</ele>
        <time>2021-09-01T08:52:08.000Z</time>
      </trkpt>
      <trkpt lat="44.44126" lon="6.37398">
        <ele>1268</ele>
        <time>2021-09-01T08:52:09.000Z</time>
      </trkpt>
      <trkpt lat="44.44122" lon="6.37399">
        <ele>1268</ele>
        <time>2021-09-01T08:52:10.000Z</time>
      </trkpt>
      <trkpt lat="44.4412" lon="6.37401">
        <ele>1268</ele>
        <time>2021-09-01T08:52:11.000Z</time>
      </trkpt>
      <trkpt lat="44.44117" lon="6.37403">
        <ele>1268</ele>
        <time>2021-09-01T08:52:12.000Z</time>
      </trkpt>
      <trkpt lat="44.44114" lon="6.37404">
        <ele>1268</ele>
        <time>2021-09-01T08:52:13.000Z</time>
      </trkpt>
      <trkpt lat="44.44111" lon="6.37405">
        <ele>1267</ele>
        <time>2021-09-01T08:52:14.000Z</time>
      </trkpt>
      <trkpt lat="44.44108" lon="6.37406">
        <ele>1267</ele>
        <time>2021-09-01T08:52:15.000Z</time>
      </trkpt>
      <trkpt lat="44.44106" lon="6.37407">
        <ele>1267</ele>
        <time>2021-09-01T08:52:16.000Z</time>
      </trkpt>
      <trkpt lat="44.44103" lon="6.37408">
        <ele>1266</ele>
        <time>2021-09-01T08:52:17.000Z</time>
      </trkpt>
      <trkpt lat="44.44101" lon="6.37408">
        <ele>1266</ele>
        <time>2021-09-01T08:52:18.000Z</time>
      </trkpt>
      <trkpt lat="44.44099" lon="6.37408">
        <ele>1266</ele>
        <time>2021-09-01T08:52:19.000Z</time>
      </trkpt>
      <trkpt lat="44.44097" lon="6.37408">
        <ele>1265</ele>
        <time>2021-09-01T08:52:20.000Z</time>
      </trkpt>
      <trkpt lat="44.44095" lon="6.37408">
        <ele>1265</ele>
        <time>2021-09-01T08:52:21.000Z</time>
      </trkpt>
      <trkpt lat="44.44094" lon="6.37408">
        <ele>1265</ele>
        <time>2021-09-01T08:52:22.000Z</time>
      </trkpt>
      <trkpt lat="44.44094" lon="6.37408">
        <ele>1264</ele>
        <time>2021-09-01T08:52:23.000Z</time>
      </trkpt>
      <trkpt lat="44.44094" lon="6.37408">
        <ele>1264</ele>
        <time>2021-09-01T08:52:24.000Z</time>
      </trkpt>
      <trkpt lat="44.44095" lon="6.37409">
        <ele>1263</ele>
        <time>2021-09-01T08:52:25.000Z</time>
      </trkpt>
      <trkpt lat="44.44095" lon="6.37408">
        <ele>1263</ele>
        <time>2021-09-01T08:52:26.000Z</time>
      </trkpt>
      <trkpt lat="44.44095" lon="6.37408">
        <ele>1263</ele>
        <time>2021-09-01T08:52:27.000Z</time>
      </trkpt>
      <trkpt lat="44.44095" lon="6.37408">
        <ele>1262</ele>
        <time>2021-09-01T08:52:28.000Z</time>
      </trkpt>
      <trkpt lat="44.44095" lon="6.37408">
        <ele>1262</ele>
        <time>2021-09-01T08:52:29.000Z</time>
      </trkpt>
      <trkpt lat="44.44095" lon="6.37409">
        <ele>1262</ele>
        <time>2021-09-01T08:52:30.000Z</time>
      </trkpt>
      <trkpt lat="44.44095" lon="6.37409">
        <ele>1262</ele>
        <time>2021-09-01T08:52:31.000Z</time>
      </trkpt>
      <trkpt lat="44.44095" lon="6.37409">
        <ele>1262</ele>
        <time>2021-09-01T08:52:32.000Z</time>
      </trkpt>
      <trkpt lat="44.44096" lon="6.37409">
        <ele>1262</ele>
        <time>2021-09-01T08:52:33.000Z</time>
      </trkpt>
      <trkpt lat="44.44096" lon="6.37408">
        <ele>1262</ele>
        <time>2021-09-01T08:52:34.000Z</time>
      </trkpt>
      <trkpt lat="44.44096" lon="6.37408">
        <ele>1262</ele>
        <time>2021-09-01T08:52:35.000Z</time>
      </trkpt>
      <trkpt lat="44.44096" lon="6.37408">
        <ele>1261</ele>
        <time>2021-09-01T08:52:36.000Z</time>
      </trkpt>
      <trkpt lat="44.44096" lon="6.37408">
        <ele>1261</ele>
        <time>2021-09-01T08:52:37.000Z</time>
      </trkpt>
      <trkpt lat="44.44095" lon="6.37408">
        <ele>1261</ele>
        <time>2021-09-01T08:52:38.000Z</time>
      </trkpt>
      <trkpt lat="44.44095" lon="6.37408">
        <ele>1261</ele>
        <time>2021-09-01T08:52:39.000Z</time>
      </trkpt>
      <trkpt lat="44.44095" lon="6.37408">
        <ele>1261</ele>
        <time>2021-09-01T08:52:40.000Z</time>
      </trkpt>
      <trkpt lat="44.44095" lon="6.37407">
        <ele>1261</ele>
        <time>2021-09-01T08:52:41.000Z</time>
      </trkpt>
      <trkpt lat="44.44095" lon="6.37407">
        <ele>1261</ele>
        <time>2021-09-01T08:52:42.000Z</time>
      </trkpt>
      <trkpt lat="44.44095" lon="6.37407">
        <ele>1261</ele>
        <time>2021-09-01T08:52:43.000Z</time>
      </trkpt>
      <trkpt lat="44.44095" lon="6.37407">
        <ele>1261</ele>
        <time>2021-09-01T08:52:44.000Z</time>
      </trkpt>
      <trkpt lat="44.44094" lon="6.37407">
        <ele>1261</ele>
        <time>2021-09-01T08:52:45.000Z</time>
      </trkpt>
      <trkpt lat="44.44094" lon="6.37406">
        <ele>1261</ele>
        <time>2021-09-01T08:52:46.000Z</time>
      </trkpt>
      <trkpt lat="44.44094" lon="6.37406">
        <ele>1261</ele>
        <time>2021-09-01T08:52:47.000Z</time>
      </trkpt>
      <trkpt lat="44.44094" lon="6.37406">
        <ele>1261</ele>
        <time>2021-09-01T08:52:48.000Z</time>
      </trkpt>
      <trkpt lat="44.44094" lon="6.37406">
        <ele>1262</ele>
        <time>2021-09-01T08:52:49.000Z</time>
      </trkpt>
      <trkpt lat="44.44094" lon="6.37406">
        <ele>1262</ele>
        <time>2021-09-01T08:52:50.000Z</time>
      </trkpt>
      <trkpt lat="44.44093" lon="6.37406">
        <ele>1262</ele>
        <time>2021-09-01T08:52:51.000Z</time>
      </trkpt>
      <trkpt lat="44.44093" lon="6.37406">
        <ele>1262</ele>
        <time>2021-09-01T08:52:52.000Z</time>
      </trkpt>
      <trkpt lat="44.44093" lon="6.37406">
        <ele>1263</ele>
        <time>2021-09-01T08:52:53.000Z</time>
      </trkpt>
      <trkpt lat="44.44093" lon="6.37406">
        <ele>1262</ele>
        <time>2021-09-01T08:52:54.000Z</time>
      </trkpt>
      <trkpt lat="44.44092" lon="6.37406">
        <ele>1263</ele>
        <time>2021-09-01T08:52:55.000Z</time>
      </trkpt>
      <trkpt lat="44.44092" lon="6.37405">
        <ele>1263</ele>
        <time>2021-09-01T08:52:56.000Z</time>
      </trkpt>
      <trkpt lat="44.44092" lon="6.37405">
        <ele>1264</ele>
        <time>2021-09-01T08:52:57.000Z</time>
      </trkpt>
      <trkpt lat="44.44091" lon="6.37405">
        <ele>1265</ele>
        <time>2021-09-01T08:52:58.000Z</time>
      </trkpt>
      <trkpt lat="44.44091" lon="6.37405">
        <ele>1265</ele>
        <time>2021-09-01T08:52:59.000Z</time>
      </trkpt>
      <trkpt lat="44.44091" lon="6.37405">
        <ele>1266</ele>
        <time>2021-09-01T08:53:00.000Z</time>
      </trkpt>
      <trkpt lat="44.44091" lon="6.37405">
        <ele>1266</ele>
        <time>2021-09-01T08:53:01.000Z</time>
      </trkpt>
      <trkpt lat="44.44091" lon="6.37405">
        <ele>1266</ele>
        <time>2021-09-01T08:53:02.000Z</time>
      </trkpt>
      <trkpt lat="44.4409" lon="6.37405">
        <ele>1267</ele>
        <time>2021-09-01T08:53:03.000Z</time>
      </trkpt>
      <trkpt lat="44.4409" lon="6.37405">
        <ele>1267</ele>
        <time>2021-09-01T08:53:04.000Z</time>
      </trkpt>
      <trkpt lat="44.4409" lon="6.37405">
        <ele>1267</ele>
        <time>2021-09-01T08:53:05.000Z</time>
      </trkpt>
      <trkpt lat="44.4409" lon="6.37405">
        <ele>1268</ele>
        <time>2021-09-01T08:53:06.000Z</time>
      </trkpt>
      <trkpt lat="44.4409" lon="6.37405">
        <ele>1268</ele>
        <time>2021-09-01T08:53:07.000Z</time>
      </trkpt>
      <trkpt lat="44.4409" lon="6.37405">
        <ele>1268</ele>
        <time>2021-09-01T08:53:08.000Z</time>
      </trkpt>
      <trkpt lat="44.4409" lon="6.37405">
        <ele>1268</ele>
        <time>2021-09-01T08:53:09.000Z</time>
      </trkpt>
      <trkpt lat="44.4409" lon="6.37405">
        <ele>1268</ele>
        <time>2021-09-01T08:53:10.000Z</time>
      </trkpt>
      <trkpt lat="44.4409" lon="6.37405">
        <ele>1268</ele>
        <time>2021-09-01T08:53:11.000Z</time>
      </trkpt>
      <trkpt lat="44.4409" lon="6.37405">
        <ele>1268</ele>
        <time>2021-09-01T08:53:12.000Z</time>
      </trkpt>
      <trkpt lat="44.4409" lon="6.37405">
        <ele>1268</ele>
        <time>2021-09-01T08:53:13.000Z</time>
      </trkpt>
      <trkpt lat="44.4409" lon="6.37405">
        <ele>1267</ele>
        <time>2021-09-01T08:53:14.000Z</time>
      </trkpt>
      <trkpt lat="44.4409" lon="6.37405">
        <ele>1267</ele>
        <time>2021-09-01T08:53:15.000Z</time>
      </trkpt>
      <trkpt lat="44.4409" lon="6.37405">
        <ele>1268</ele>
        <time>2021-09-01T08:53:16.000Z</time>
      </trkpt>
      <trkpt lat="44.4409" lon="6.37405">
        <ele>1268</ele>
        <time>2021-09-01T08:53:17.000Z</time>
      </trkpt>
      <trkpt lat="44.4409" lon="6.37405">
        <ele>1268</ele>
        <time>2021-09-01T08:53:18.000Z</time>
      </trkpt>
      <trkpt lat="44.4409" lon="6.37405">
        <ele>1268</ele>
        <time>2021-09-01T08:53:19.000Z</time>
      </trkpt>
      <trkpt lat="44.4409" lon="6.37405">
        <ele>1268</ele>
        <time>2021-09-01T08:53:20.000Z</time>
      </trkpt>
      <trkpt lat="44.4409" lon="6.37405">
        <ele>1268</ele>
        <time>2021-09-01T08:53:21.000Z</time>
      </trkpt>
      <trkpt lat="44.4409" lon="6.37405">
        <ele>1268</ele>
        <time>2021-09-01T08:53:22.000Z</time>
      </trkpt>
      <trkpt lat="44.4409" lon="6.37405">
        <ele>1268</ele>
        <time>2021-09-01T08:53:23.000Z</time>
      </trkpt>
      <trkpt lat="44.4409" lon="6.37405">
        <ele>1268</ele>
        <time>2021-09-01T08:53:24.000Z</time>
      </trkpt>
      <trkpt lat="44.4409" lon="6.37405">
        <ele>1268</ele>
        <time>2021-09-01T08:53:25.000Z</time>
      </trkpt>
      <trkpt lat="44.4409" lon="6.37405">
        <ele>1268</ele>
        <time>2021-09-01T08:53:26.000Z</time>
      </trkpt>
      <trkpt lat="44.4409" lon="6.37405">
        <ele>1268</ele>
        <time>2021-09-01T08:53:27.000Z</time>
      </trkpt>
      <trkpt lat="44.44089" lon="6.37405">
        <ele>1268</ele>
        <time>2021-09-01T08:53:28.000Z</time>
      </trkpt>
      <trkpt lat="44.44089" lon="6.37405">
        <ele>1269</ele>
        <time>2021-09-01T08:53:29.000Z</time>
      </trkpt>
      <trkpt lat="44.44089" lon="6.37405">
        <ele>1269</ele>
        <time>2021-09-01T08:53:30.000Z</time>
      </trkpt>
      <trkpt lat="44.44089" lon="6.37405">
        <ele>1269</ele>
        <time>2021-09-01T08:53:31.000Z</time>
      </trkpt>
      <trkpt lat="44.44089" lon="6.37405">
        <ele>1269</ele>
        <time>2021-09-01T08:53:32.000Z</time>
      </trkpt>
      <trkpt lat="44.44089" lon="6.37405">
        <ele>1269</ele>
        <time>2021-09-01T08:53:33.000Z</time>
      </trkpt>
      <trkpt lat="44.44089" lon="6.37405">
        <ele>1270</ele>
        <time>2021-09-01T08:53:34.000Z</time>
      </trkpt>
      <trkpt lat="44.44089" lon="6.37405">
        <ele>1270</ele>
        <time>2021-09-01T08:53:35.000Z</time>
      </trkpt>
      <trkpt lat="44.44089" lon="6.37405">
        <ele>1270</ele>
        <time>2021-09-01T08:53:36.000Z</time>
      </trkpt>
      <trkpt lat="44.44089" lon="6.37405">
        <ele>1270</ele>
        <time>2021-09-01T08:53:37.000Z</time>
      </trkpt>
      <trkpt lat="44.44089" lon="6.37405">
        <ele>1271</ele>
        <time>2021-09-01T08:53:38.000Z</time>
      </trkpt>
      <trkpt lat="44.44089" lon="6.37405">
        <ele>1271</ele>
        <time>2021-09-01T08:53:39.000Z</time>
      </trkpt>
      <trkpt lat="44.44089" lon="6.37405">
        <ele>1271</ele>
        <time>2021-09-01T08:53:40.000Z</time>
      </trkpt>
      <trkpt lat="44.44089" lon="6.37405">
        <ele>1271</ele>
        <time>2021-09-01T08:53:41.000Z</time>
      </trkpt>
      <trkpt lat="44.44089" lon="6.37405">
        <ele>1271</ele>
        <time>2021-09-01T08:53:42.000Z</time>
      </trkpt>
      <trkpt lat="44.44089" lon="6.37405">
        <ele>1271</ele>
        <time>2021-09-01T08:53:43.000Z</time>
      </trkpt>
      <trkpt lat="44.44088" lon="6.37405">
        <ele>1271</ele>
        <time>2021-09-01T08:53:44.000Z</time>
      </trkpt>
      <trkpt lat="44.44089" lon="6.37405">
        <ele>1271</ele>
        <time>2021-09-01T08:53:45.000Z</time>
      </trkpt>
      <trkpt lat="44.44089" lon="6.37405">
        <ele>1271</ele>
        <time>2021-09-01T08:53:46.000Z</time>
      </trkpt>
      <trkpt lat="44.44089" lon="6.37405">
        <ele>1271</ele>
        <time>2021-09-01T08:53:47.000Z</time>
      </trkpt>
      <trkpt lat="44.44089" lon="6.37405">
        <ele>1271</ele>
        <time>2021-09-01T08:53:48.000Z</time>
      </trkpt>
      <trkpt lat="44.44089" lon="6.37405">
        <ele>1271</ele>
        <time>2021-09-01T08:53:49.000Z</time>
      </trkpt>
      <trkpt lat="44.44089" lon="6.37405">
        <ele>1271</ele>
        <time>2021-09-01T08:53:50.000Z</time>
      </trkpt>
      <trkpt lat="44.44089" lon="6.37405">
        <ele>1271</ele>
        <time>2021-09-01T08:53:51.000Z</time>
      </trkpt>
      <trkpt lat="44.44089" lon="6.37405">
        <ele>1271</ele>
        <time>2021-09-01T08:53:52.000Z</time>
      </trkpt>
      <trkpt lat="44.44089" lon="6.37405">
        <ele>1271</ele>
        <time>2021-09-01T08:53:53.000Z</time>
      </trkpt>
      <trkpt lat="44.44089" lon="6.37405">
        <ele>1271</ele>
        <time>2021-09-01T08:53:54.000Z</time>
      </trkpt>
      <trkpt lat="44.44089" lon="6.37405">
        <ele>1271</ele>
        <time>2021-09-01T08:53:55.000Z</time>
      </trkpt>
      <trkpt lat="44.44089" lon="6.37405">
        <ele>1272</ele>
        <time>2021-09-01T08:53:56.000Z</time>
      </trkpt>
      <trkpt lat="44.44089" lon="6.37404">
        <ele>1272</ele>
        <time>2021-09-01T08:53:57.000Z</time>
      </trkpt>
      <trkpt lat="44.44089" lon="6.37404">
        <ele>1272</ele>
        <time>2021-09-01T08:53:58.000Z</time>
      </trkpt>
      <trkpt lat="44.44089" lon="6.37404">
        <ele>1272</ele>
        <time>2021-09-01T08:53:59.000Z</time>
      </trkpt>
      <trkpt lat="44.44089" lon="6.37404">
        <ele>1272</ele>
        <time>2021-09-01T08:54:00.000Z</time>
      </trkpt>
      <trkpt lat="44.44089" lon="6.37404">
        <ele>1273</ele>
        <time>2021-09-01T08:54:01.000Z</time>
      </trkpt>
      <trkpt lat="44.44089" lon="6.37404">
        <ele>1273</ele>
        <time>2021-09-01T08:54:02.000Z</time>
      </trkpt>
      <trkpt lat="44.44089" lon="6.37404">
        <ele>1273</ele>
        <time>2021-09-01T08:54:03.000Z</time>
      </trkpt>
      <trkpt lat="44.44089" lon="6.37404">
        <ele>1273</ele>
        <time>2021-09-01T08:54:04.000Z</time>
      </trkpt>
      <trkpt lat="44.44089" lon="6.37404">
        <ele>1274</ele>
        <time>2021-09-01T08:54:05.000Z</time>
      </trkpt>
      <trkpt lat="44.44089" lon="6.37404">
        <ele>1274</ele>
        <time>2021-09-01T08:54:06.000Z</time>
      </trkpt>
      <trkpt lat="44.44089" lon="6.37404">
        <ele>1274</ele>
        <time>2021-09-01T08:54:07.000Z</time>
      </trkpt>
      <trkpt lat="44.44089" lon="6.37404">
        <ele>1274</ele>
        <time>2021-09-01T08:54:08.000Z</time>
      </trkpt>
      <trkpt lat="44.44089" lon="6.37404">
        <ele>1274</ele>
        <time>2021-09-01T08:54:09.000Z</time>
      </trkpt>
      <trkpt lat="44.44089" lon="6.37404">
        <ele>1274</ele>
        <time>2021-09-01T08:54:10.000Z</time>
      </trkpt>
      <trkpt lat="44.44089" lon="6.37404">
        <ele>1275</ele>
        <time>2021-09-01T08:54:11.000Z</time>
      </trkpt>
      <trkpt lat="44.44089" lon="6.37404">
        <ele>1275</ele>
        <time>2021-09-01T08:54:12.000Z</time>
      </trkpt>
      <trkpt lat="44.44089" lon="6.37404">
        <ele>1275</ele>
        <time>2021-09-01T08:54:13.000Z</time>
      </trkpt>
      <trkpt lat="44.44089" lon="6.37404">
        <ele>1275</ele>
        <time>2021-09-01T08:54:14.000Z</time>
      </trkpt>
      <trkpt lat="44.44088" lon="6.37404">
        <ele>1276</ele>
        <time>2021-09-01T08:54:15.000Z</time>
      </trkpt>
      <trkpt lat="44.44088" lon="6.37404">
        <ele>1276</ele>
        <time>2021-09-01T08:54:16.000Z</time>
      </trkpt>
      <trkpt lat="44.44088" lon="6.37404">
        <ele>1276</ele>
        <time>2021-09-01T08:54:17.000Z</time>
      </trkpt>
      <trkpt lat="44.44088" lon="6.37404">
        <ele>1276</ele>
        <time>2021-09-01T08:54:18.000Z</time>
      </trkpt>
      <trkpt lat="44.44088" lon="6.37404">
        <ele>1277</ele>
        <time>2021-09-01T08:54:19.000Z</time>
      </trkpt>
      <trkpt lat="44.44088" lon="6.37404">
        <ele>1277</ele>
        <time>2021-09-01T08:54:20.000Z</time>
      </trkpt>
      <trkpt lat="44.44088" lon="6.37404">
        <ele>1277</ele>
        <time>2021-09-01T08:54:21.000Z</time>
      </trkpt>
      <trkpt lat="44.44088" lon="6.37404">
        <ele>1277</ele>
        <time>2021-09-01T08:54:22.000Z</time>
      </trkpt>
      <trkpt lat="44.44088" lon="6.37404">
        <ele>1277</ele>
        <time>2021-09-01T08:54:23.000Z</time>
      </trkpt>
      <trkpt lat="44.44088" lon="6.37404">
        <ele>1277</ele>
        <time>2021-09-01T08:54:24.000Z</time>
      </trkpt>
      <trkpt lat="44.44088" lon="6.37404">
        <ele>1277</ele>
        <time>2021-09-01T08:54:25.000Z</time>
      </trkpt>
      <trkpt lat="44.44088" lon="6.37404">
        <ele>1277</ele>
        <time>2021-09-01T08:54:26.000Z</time>
      </trkpt>
      <trkpt lat="44.44088" lon="6.37404">
        <ele>1277</ele>
        <time>2021-09-01T08:54:27.000Z</time>
      </trkpt>
      <trkpt lat="44.44088" lon="6.37404">
        <ele>1277</ele>
        <time>2021-09-01T08:54:28.000Z</time>
      </trkpt>
      <trkpt lat="44.44088" lon="6.37404">
        <ele>1277</ele>
        <time>2021-09-01T08:54:29.000Z</time>
      </trkpt>
      <trkpt lat="44.44088" lon="6.37403">
        <ele>1277</ele>
        <time>2021-09-01T08:54:30.000Z</time>
      </trkpt>
      <trkpt lat="44.44088" lon="6.37403">
        <ele>1277</ele>
        <time>2021-09-01T08:54:31.000Z</time>
      </trkpt>
      <trkpt lat="44.44088" lon="6.37403">
        <ele>1277</ele>
        <time>2021-09-01T08:54:32.000Z</time>
      </trkpt>
      <trkpt lat="44.44088" lon="6.37403">
        <ele>1278</ele>
        <time>2021-09-01T08:54:33.000Z</time>
      </trkpt>
      <trkpt lat="44.44087" lon="6.37403">
        <ele>1278</ele>
        <time>2021-09-01T08:54:34.000Z</time>
      </trkpt>
      <trkpt lat="44.44087" lon="6.37403">
        <ele>1278</ele>
        <time>2021-09-01T08:54:35.000Z</time>
      </trkpt>
      <trkpt lat="44.44087" lon="6.37403">
        <ele>1278</ele>
        <time>2021-09-01T08:54:36.000Z</time>
      </trkpt>
      <trkpt lat="44.44087" lon="6.37403">
        <ele>1278</ele>
        <time>2021-09-01T08:54:37.000Z</time>
      </trkpt>
      <trkpt lat="44.44087" lon="6.37403">
        <ele>1278</ele>
        <time>2021-09-01T08:54:38.000Z</time>
      </trkpt>
      <trkpt lat="44.44087" lon="6.37404">
        <ele>1278</ele>
        <time>2021-09-01T08:54:39.000Z</time>
      </trkpt>
      <trkpt lat="44.44088" lon="6.37404">
        <ele>1278</ele>
        <time>2021-09-01T08:54:40.000Z</time>
      </trkpt>
      <trkpt lat="44.44088" lon="6.37404">
        <ele>1278</ele>
        <time>2021-09-01T08:54:41.000Z</time>
      </trkpt>
      <trkpt lat="44.44088" lon="6.37404">
        <ele>1278</ele>
        <time>2021-09-01T08:54:42.000Z</time>
      </trkpt>
      <trkpt lat="44.44088" lon="6.37404">
        <ele>1278</ele>
        <time>2021-09-01T08:54:43.000Z</time>
      </trkpt>
      <trkpt lat="44.44088" lon="6.37403">
        <ele>1278</ele>
        <time>2021-09-01T08:54:44.000Z</time>
      </trkpt>
      <trkpt lat="44.44088" lon="6.37404">
        <ele>1278</ele>
        <time>2021-09-01T08:54:45.000Z</time>
      </trkpt>
      <trkpt lat="44.44087" lon="6.37404">
        <ele>1278</ele>
        <time>2021-09-01T08:54:46.000Z</time>
      </trkpt>
      <trkpt lat="44.44086" lon="6.37405">
        <ele>1278</ele>
        <time>2021-09-01T08:54:47.000Z</time>
      </trkpt>
      <trkpt lat="44.44085" lon="6.37406">
        <ele>1278</ele>
        <time>2021-09-01T08:54:48.000Z</time>
      </trkpt>
      <trkpt lat="44.44084" lon="6.37406">
        <ele>1277</ele>
        <time>2021-09-01T08:54:49.000Z</time>
      </trkpt>
      <trkpt lat="44.44081" lon="6.37406">
        <ele>1277</ele>
        <time>2021-09-01T08:54:50.000Z</time>
      </trkpt>
      <trkpt lat="44.44079" lon="6.37406">
        <ele>1277</ele>
        <time>2021-09-01T08:54:51.000Z</time>
      </trkpt>
      <trkpt lat="44.44075" lon="6.37407">
        <ele>1278</ele>
        <time>2021-09-01T08:54:52.000Z</time>
      </trkpt>
      <trkpt lat="44.44072" lon="6.37407">
        <ele>1278</ele>
        <time>2021-09-01T08:54:53.000Z</time>
      </trkpt>
      <trkpt lat="44.4407" lon="6.37407">
        <ele>1278</ele>
        <time>2021-09-01T08:54:54.000Z</time>
      </trkpt>
      <trkpt lat="44.44067" lon="6.37407">
        <ele>1278</ele>
        <time>2021-09-01T08:54:55.000Z</time>
      </trkpt>
      <trkpt lat="44.44064" lon="6.37407">
        <ele>1278</ele>
        <time>2021-09-01T08:54:56.000Z</time>
      </trkpt>
      <trkpt lat="44.44062" lon="6.37407">
        <ele>1278</ele>
        <time>2021-09-01T08:54:57.000Z</time>
      </trkpt>
      <trkpt lat="44.44059" lon="6.37408">
        <ele>1278</ele>
        <time>2021-09-01T08:54:58.000Z</time>
      </trkpt>
      <trkpt lat="44.44056" lon="6.37408">
        <ele>1278</ele>
        <time>2021-09-01T08:54:59.000Z</time>
      </trkpt>
      <trkpt lat="44.44053" lon="6.37408">
        <ele>1278</ele>
        <time>2021-09-01T08:55:00.000Z</time>
      </trkpt>
      <trkpt lat="44.44049" lon="6.37407">
        <ele>1278</ele>
        <time>2021-09-01T08:55:01.000Z</time>
      </trkpt>
      <trkpt lat="44.44046" lon="6.37406">
        <ele>1278</ele>
        <time>2021-09-01T08:55:02.000Z</time>
      </trkpt>
      <trkpt lat="44.44043" lon="6.37406">
        <ele>1278</ele>
        <time>2021-09-01T08:55:03.000Z</time>
      </trkpt>
      <trkpt lat="44.44041" lon="6.37406">
        <ele>1278</ele>
        <time>2021-09-01T08:55:04.000Z</time>
      </trkpt>
      <trkpt lat="44.44038" lon="6.37405">
        <ele>1277</ele>
        <time>2021-09-01T08:55:05.000Z</time>
      </trkpt>
      <trkpt lat="44.44036" lon="6.37404">
        <ele>1277</ele>
        <time>2021-09-01T08:55:06.000Z</time>
      </trkpt>
      <trkpt lat="44.44033" lon="6.37402">
        <ele>1276</ele>
        <time>2021-09-01T08:55:07.000Z</time>
      </trkpt>
      <trkpt lat="44.4403" lon="6.37401">
        <ele>1276</ele>
        <time>2021-09-01T08:55:08.000Z</time>
      </trkpt>
      <trkpt lat="44.44027" lon="6.374">
        <ele>1276</ele>
        <time>2021-09-01T08:55:09.000Z</time>
      </trkpt>
      <trkpt lat="44.44024" lon="6.37397">
        <ele>1276</ele>
        <time>2021-09-01T08:55:10.000Z</time>
      </trkpt>
      <trkpt lat="44.44023" lon="6.37395">
        <ele>1275</ele>
        <time>2021-09-01T08:55:11.000Z</time>
      </trkpt>
      <trkpt lat="44.44022" lon="6.37392">
        <ele>1274</ele>
        <time>2021-09-01T08:55:12.000Z</time>
      </trkpt>
      <trkpt lat="44.4402" lon="6.3739">
        <ele>1273</ele>
        <time>2021-09-01T08:55:13.000Z</time>
      </trkpt>
      <trkpt lat="44.44017" lon="6.37387">
        <ele>1273</ele>
        <time>2021-09-01T08:55:14.000Z</time>
      </trkpt>
      <trkpt lat="44.44015" lon="6.37384">
        <ele>1274</ele>
        <time>2021-09-01T08:55:15.000Z</time>
      </trkpt>
      <trkpt lat="44.44012" lon="6.37381">
        <ele>1272</ele>
        <time>2021-09-01T08:55:16.000Z</time>
      </trkpt>
      <trkpt lat="44.44009" lon="6.37377">
        <ele>1273</ele>
        <time>2021-09-01T08:55:17.000Z</time>
      </trkpt>
      <trkpt lat="44.44007" lon="6.37374">
        <ele>1274</ele>
        <time>2021-09-01T08:55:18.000Z</time>
      </trkpt>
      <trkpt lat="44.44004" lon="6.37371">
        <ele>1275</ele>
        <time>2021-09-01T08:55:19.000Z</time>
      </trkpt>
      <trkpt lat="44.44002" lon="6.37369">
        <ele>1276</ele>
        <time>2021-09-01T08:55:20.000Z</time>
      </trkpt>
      <trkpt lat="44.43999" lon="6.37365">
        <ele>1276</ele>
        <time>2021-09-01T08:55:21.000Z</time>
      </trkpt>
      <trkpt lat="44.43997" lon="6.37363">
        <ele>1278</ele>
        <time>2021-09-01T08:55:22.000Z</time>
      </trkpt>
      <trkpt lat="44.43994" lon="6.37361">
        <ele>1278</ele>
        <time>2021-09-01T08:55:23.000Z</time>
      </trkpt>
      <trkpt lat="44.43992" lon="6.37359">
        <ele>1279</ele>
        <time>2021-09-01T08:55:24.000Z</time>
      </trkpt>
      <trkpt lat="44.43989" lon="6.37358">
        <ele>1280</ele>
        <time>2021-09-01T08:55:25.000Z</time>
      </trkpt>
      <trkpt lat="44.43987" lon="6.37357">
        <ele>1281</ele>
        <time>2021-09-01T08:55:26.000Z</time>
      </trkpt>
      <trkpt lat="44.43984" lon="6.37357">
        <ele>1281</ele>
        <time>2021-09-01T08:55:27.000Z</time>
      </trkpt>
      <trkpt lat="44.43982" lon="6.37356">
        <ele>1281</ele>
        <time>2021-09-01T08:55:28.000Z</time>
      </trkpt>
      <trkpt lat="44.4398" lon="6.37355">
        <ele>1280</ele>
        <time>2021-09-01T08:55:29.000Z</time>
      </trkpt>
      <trkpt lat="44.43978" lon="6.37355">
        <ele>1280</ele>
        <time>2021-09-01T08:55:30.000Z</time>
      </trkpt>
      <trkpt lat="44.43975" lon="6.37357">
        <ele>1279</ele>
        <time>2021-09-01T08:55:31.000Z</time>
      </trkpt>
      <trkpt lat="44.43973" lon="6.37358">
        <ele>1280</ele>
        <time>2021-09-01T08:55:32.000Z</time>
      </trkpt>
      <trkpt lat="44.4397" lon="6.37358">
        <ele>1280</ele>
        <time>2021-09-01T08:55:33.000Z</time>
      </trkpt>
      <trkpt lat="44.43967" lon="6.37359">
        <ele>1281</ele>
        <time>2021-09-01T08:55:34.000Z</time>
      </trkpt>
      <trkpt lat="44.43965" lon="6.3736">
        <ele>1280</ele>
        <time>2021-09-01T08:55:35.000Z</time>
      </trkpt>
      <trkpt lat="44.43963" lon="6.37361">
        <ele>1280</ele>
        <time>2021-09-01T08:55:36.000Z</time>
      </trkpt>
      <trkpt lat="44.43961" lon="6.37363">
        <ele>1280</ele>
        <time>2021-09-01T08:55:37.000Z</time>
      </trkpt>
      <trkpt lat="44.43958" lon="6.37364">
        <ele>1280</ele>
        <time>2021-09-01T08:55:38.000Z</time>
      </trkpt>
      <trkpt lat="44.43956" lon="6.37365">
        <ele>1279</ele>
        <time>2021-09-01T08:55:39.000Z</time>
      </trkpt>
      <trkpt lat="44.43953" lon="6.37366">
        <ele>1280</ele>
        <time>2021-09-01T08:55:40.000Z</time>
      </trkpt>
      <trkpt lat="44.4395" lon="6.37367">
        <ele>1280</ele>
        <time>2021-09-01T08:55:41.000Z</time>
      </trkpt>
      <trkpt lat="44.43948" lon="6.37368">
        <ele>1280</ele>
        <time>2021-09-01T08:55:42.000Z</time>
      </trkpt>
      <trkpt lat="44.43946" lon="6.37369">
        <ele>1280</ele>
        <time>2021-09-01T08:55:43.000Z</time>
      </trkpt>
      <trkpt lat="44.43943" lon="6.3737">
        <ele>1280</ele>
        <time>2021-09-01T08:55:44.000Z</time>
      </trkpt>
      <trkpt lat="44.4394" lon="6.37371">
        <ele>1280</ele>
        <time>2021-09-01T08:55:45.000Z</time>
      </trkpt>
      <trkpt lat="44.43937" lon="6.37372">
        <ele>1280</ele>
        <time>2021-09-01T08:55:46.000Z</time>
      </trkpt>
      <trkpt lat="44.43934" lon="6.37373">
        <ele>1280</ele>
        <time>2021-09-01T08:55:47.000Z</time>
      </trkpt>
      <trkpt lat="44.43932" lon="6.37375">
        <ele>1280</ele>
        <time>2021-09-01T08:55:48.000Z</time>
      </trkpt>
      <trkpt lat="44.43929" lon="6.37376">
        <ele>1280</ele>
        <time>2021-09-01T08:55:49.000Z</time>
      </trkpt>
      <trkpt lat="44.43926" lon="6.37378">
        <ele>1281</ele>
        <time>2021-09-01T08:55:50.000Z</time>
      </trkpt>
      <trkpt lat="44.43923" lon="6.37379">
        <ele>1281</ele>
        <time>2021-09-01T08:55:51.000Z</time>
      </trkpt>
      <trkpt lat="44.43922" lon="6.37381">
        <ele>1280</ele>
        <time>2021-09-01T08:55:52.000Z</time>
      </trkpt>
      <trkpt lat="44.43919" lon="6.37383">
        <ele>1280</ele>
        <time>2021-09-01T08:55:53.000Z</time>
      </trkpt>
      <trkpt lat="44.43916" lon="6.37384">
        <ele>1281</ele>
        <time>2021-09-01T08:55:54.000Z</time>
      </trkpt>
      <trkpt lat="44.43914" lon="6.37385">
        <ele>1281</ele>
        <time>2021-09-01T08:55:55.000Z</time>
      </trkpt>
      <trkpt lat="44.43911" lon="6.37386">
        <ele>1281</ele>
        <time>2021-09-01T08:55:56.000Z</time>
      </trkpt>
      <trkpt lat="44.43908" lon="6.37387">
        <ele>1281</ele>
        <time>2021-09-01T08:55:57.000Z</time>
      </trkpt>
      <trkpt lat="44.43905" lon="6.37388">
        <ele>1281</ele>
        <time>2021-09-01T08:55:58.000Z</time>
      </trkpt>
      <trkpt lat="44.43903" lon="6.37389">
        <ele>1281</ele>
        <time>2021-09-01T08:55:59.000Z</time>
      </trkpt>
      <trkpt lat="44.439" lon="6.3739">
        <ele>1281</ele>
        <time>2021-09-01T08:56:00.000Z</time>
      </trkpt>
      <trkpt lat="44.43898" lon="6.3739">
        <ele>1281</ele>
        <time>2021-09-01T08:56:01.000Z</time>
      </trkpt>
      <trkpt lat="44.43895" lon="6.3739">
        <ele>1281</ele>
        <time>2021-09-01T08:56:02.000Z</time>
      </trkpt>
      <trkpt lat="44.43893" lon="6.37391">
        <ele>1281</ele>
        <time>2021-09-01T08:56:03.000Z</time>
      </trkpt>
      <trkpt lat="44.4389" lon="6.37392">
        <ele>1281</ele>
        <time>2021-09-01T08:56:04.000Z</time>
      </trkpt>
      <trkpt lat="44.43888" lon="6.37392">
        <ele>1281</ele>
        <time>2021-09-01T08:56:05.000Z</time>
      </trkpt>
      <trkpt lat="44.43886" lon="6.37393">
        <ele>1281</ele>
        <time>2021-09-01T08:56:06.000Z</time>
      </trkpt>
      <trkpt lat="44.43883" lon="6.37394">
        <ele>1281</ele>
        <time>2021-09-01T08:56:07.000Z</time>
      </trkpt>
      <trkpt lat="44.43881" lon="6.37396">
        <ele>1282</ele>
        <time>2021-09-01T08:56:08.000Z</time>
      </trkpt>
      <trkpt lat="44.43879" lon="6.37397">
        <ele>1282</ele>
        <time>2021-09-01T08:56:09.000Z</time>
      </trkpt>
      <trkpt lat="44.43877" lon="6.37397">
        <ele>1283</ele>
        <time>2021-09-01T08:56:10.000Z</time>
      </trkpt>
      <trkpt lat="44.43875" lon="6.37399">
        <ele>1283</ele>
        <time>2021-09-01T08:56:11.000Z</time>
      </trkpt>
      <trkpt lat="44.43873" lon="6.37399">
        <ele>1284</ele>
        <time>2021-09-01T08:56:12.000Z</time>
      </trkpt>
      <trkpt lat="44.43871" lon="6.37399">
        <ele>1285</ele>
        <time>2021-09-01T08:56:13.000Z</time>
      </trkpt>
      <trkpt lat="44.43869" lon="6.374">
        <ele>1286</ele>
        <time>2021-09-01T08:56:14.000Z</time>
      </trkpt>
      <trkpt lat="44.43867" lon="6.37401">
        <ele>1286</ele>
        <time>2021-09-01T08:56:15.000Z</time>
      </trkpt>
      <trkpt lat="44.43865" lon="6.37402">
        <ele>1286</ele>
        <time>2021-09-01T08:56:16.000Z</time>
      </trkpt>
      <trkpt lat="44.43863" lon="6.37402">
        <ele>1288</ele>
        <time>2021-09-01T08:56:17.000Z</time>
      </trkpt>
      <trkpt lat="44.43861" lon="6.37403">
        <ele>1289</ele>
        <time>2021-09-01T08:56:18.000Z</time>
      </trkpt>
      <trkpt lat="44.4386" lon="6.37403">
        <ele>1291</ele>
        <time>2021-09-01T08:56:19.000Z</time>
      </trkpt>
      <trkpt lat="44.43859" lon="6.37402">
        <ele>1291</ele>
        <time>2021-09-01T08:56:20.000Z</time>
      </trkpt>
      <trkpt lat="44.43859" lon="6.37402">
        <ele>1291</ele>
        <time>2021-09-01T08:56:21.000Z</time>
      </trkpt>
      <trkpt lat="44.43859" lon="6.37402">
        <ele>1291</ele>
        <time>2021-09-01T08:56:22.000Z</time>
      </trkpt>
      <trkpt lat="44.43858" lon="6.37401">
        <ele>1291</ele>
        <time>2021-09-01T08:56:23.000Z</time>
      </trkpt>
      <trkpt lat="44.43858" lon="6.37401">
        <ele>1291</ele>
        <time>2021-09-01T08:56:24.000Z</time>
      </trkpt>
      <trkpt lat="44.43857" lon="6.37401">
        <ele>1291</ele>
        <time>2021-09-01T08:56:25.000Z</time>
      </trkpt>
      <trkpt lat="44.43857" lon="6.37401">
        <ele>1292</ele>
        <time>2021-09-01T08:56:26.000Z</time>
      </trkpt>
      <trkpt lat="44.43857" lon="6.374">
        <ele>1292</ele>
        <time>2021-09-01T08:56:27.000Z</time>
      </trkpt>
      <trkpt lat="44.43856" lon="6.374">
        <ele>1292</ele>
        <time>2021-09-01T08:56:28.000Z</time>
      </trkpt>
      <trkpt lat="44.43856" lon="6.37401">
        <ele>1291</ele>
        <time>2021-09-01T08:56:29.000Z</time>
      </trkpt>
      <trkpt lat="44.43856" lon="6.374">
        <ele>1292</ele>
        <time>2021-09-01T08:56:30.000Z</time>
      </trkpt>
      <trkpt lat="44.43856" lon="6.374">
        <ele>1292</ele>
        <time>2021-09-01T08:56:31.000Z</time>
      </trkpt>
      <trkpt lat="44.43844" lon="6.37398">
        <ele>1286</ele>
        <time>2021-09-01T09:01:25.000Z</time>
      </trkpt>
      <trkpt lat="44.43841" lon="6.37399">
        <ele>1285</ele>
        <time>2021-09-01T09:01:26.000Z</time>
      </trkpt>
      <trkpt lat="44.43841" lon="6.37399">
        <ele>1285</ele>
        <time>2021-09-01T09:01:27.000Z</time>
      </trkpt>
      <trkpt lat="44.43839" lon="6.374">
        <ele>1285</ele>
        <time>2021-09-01T09:01:28.000Z</time>
      </trkpt>
      <trkpt lat="44.43838" lon="6.374">
        <ele>1284</ele>
        <time>2021-09-01T09:01:29.000Z</time>
      </trkpt>
      <trkpt lat="44.43835" lon="6.37401">
        <ele>1285</ele>
        <time>2021-09-01T09:01:30.000Z</time>
      </trkpt>
      <trkpt lat="44.43833" lon="6.37401">
        <ele>1286</ele>
        <time>2021-09-01T09:01:31.000Z</time>
      </trkpt>
      <trkpt lat="44.43831" lon="6.37402">
        <ele>1287</ele>
        <time>2021-09-01T09:01:32.000Z</time>
      </trkpt>
      <trkpt lat="44.43828" lon="6.37402">
        <ele>1288</ele>
        <time>2021-09-01T09:01:33.000Z</time>
      </trkpt>
      <trkpt lat="44.43826" lon="6.37402">
        <ele>1289</ele>
        <time>2021-09-01T09:01:34.000Z</time>
      </trkpt>
      <trkpt lat="44.43824" lon="6.37403">
        <ele>1290</ele>
        <time>2021-09-01T09:01:35.000Z</time>
      </trkpt>
      <trkpt lat="44.43821" lon="6.37403">
        <ele>1292</ele>
        <time>2021-09-01T09:01:36.000Z</time>
      </trkpt>
      <trkpt lat="44.43819" lon="6.37403">
        <ele>1293</ele>
        <time>2021-09-01T09:01:37.000Z</time>
      </trkpt>
      <trkpt lat="44.43816" lon="6.37403">
        <ele>1295</ele>
        <time>2021-09-01T09:01:38.000Z</time>
      </trkpt>
      <trkpt lat="44.43813" lon="6.37403">
        <ele>1297</ele>
        <time>2021-09-01T09:01:39.000Z</time>
      </trkpt>
      <trkpt lat="44.43811" lon="6.37403">
        <ele>1299</ele>
        <time>2021-09-01T09:01:40.000Z</time>
      </trkpt>
      <trkpt lat="44.43808" lon="6.37403">
        <ele>1300</ele>
        <time>2021-09-01T09:01:41.000Z</time>
      </trkpt>
      <trkpt lat="44.43806" lon="6.37404">
        <ele>1301</ele>
        <time>2021-09-01T09:01:42.000Z</time>
      </trkpt>
      <trkpt lat="44.43804" lon="6.37403">
        <ele>1304</ele>
        <time>2021-09-01T09:01:43.000Z</time>
      </trkpt>
      <trkpt lat="44.43801" lon="6.37404">
        <ele>1305</ele>
        <time>2021-09-01T09:01:44.000Z</time>
      </trkpt>
      <trkpt lat="44.43798" lon="6.37404">
        <ele>1306</ele>
        <time>2021-09-01T09:01:45.000Z</time>
      </trkpt>
      <trkpt lat="44.43796" lon="6.37405">
        <ele>1306</ele>
        <time>2021-09-01T09:01:46.000Z</time>
      </trkpt>
      <trkpt lat="44.43793" lon="6.37406">
        <ele>1307</ele>
        <time>2021-09-01T09:01:47.000Z</time>
      </trkpt>
      <trkpt lat="44.43792" lon="6.37408">
        <ele>1307</ele>
        <time>2021-09-01T09:01:48.000Z</time>
      </trkpt>
      <trkpt lat="44.4379" lon="6.37409">
        <ele>1308</ele>
        <time>2021-09-01T09:01:49.000Z</time>
      </trkpt>
      <trkpt lat="44.43788" lon="6.37409">
        <ele>1309</ele>
        <time>2021-09-01T09:01:50.000Z</time>
      </trkpt>
      <trkpt lat="44.43786" lon="6.3741">
        <ele>1309</ele>
        <time>2021-09-01T09:01:51.000Z</time>
      </trkpt>
      <trkpt lat="44.43784" lon="6.37412">
        <ele>1310</ele>
        <time>2021-09-01T09:01:52.000Z</time>
      </trkpt>
      <trkpt lat="44.43782" lon="6.37413">
        <ele>1312</ele>
        <time>2021-09-01T09:01:53.000Z</time>
      </trkpt>
      <trkpt lat="44.4378" lon="6.37414">
        <ele>1313</ele>
        <time>2021-09-01T09:01:54.000Z</time>
      </trkpt>
      <trkpt lat="44.43779" lon="6.37414">
        <ele>1313</ele>
        <time>2021-09-01T09:01:55.000Z</time>
      </trkpt>
      <trkpt lat="44.43777" lon="6.37415">
        <ele>1313</ele>
        <time>2021-09-01T09:01:56.000Z</time>
      </trkpt>
      <trkpt lat="44.43775" lon="6.37416">
        <ele>1313</ele>
        <time>2021-09-01T09:01:57.000Z</time>
      </trkpt>
      <trkpt lat="44.43773" lon="6.37418">
        <ele>1314</ele>
        <time>2021-09-01T09:01:58.000Z</time>
      </trkpt>
      <trkpt lat="44.43771" lon="6.37419">
        <ele>1314</ele>
        <time>2021-09-01T09:01:59.000Z</time>
      </trkpt>
      <trkpt lat="44.43769" lon="6.37419">
        <ele>1315</ele>
        <time>2021-09-01T09:02:00.000Z</time>
      </trkpt>
      <trkpt lat="44.43767" lon="6.37421">
        <ele>1315</ele>
        <time>2021-09-01T09:02:01.000Z</time>
      </trkpt>
      <trkpt lat="44.43765" lon="6.37422">
        <ele>1315</ele>
        <time>2021-09-01T09:02:02.000Z</time>
      </trkpt>
      <trkpt lat="44.43763" lon="6.37422">
        <ele>1316</ele>
        <time>2021-09-01T09:02:03.000Z</time>
      </trkpt>
      <trkpt lat="44.43761" lon="6.37423">
        <ele>1316</ele>
        <time>2021-09-01T09:02:04.000Z</time>
      </trkpt>
      <trkpt lat="44.43758" lon="6.37424">
        <ele>1316</ele>
        <time>2021-09-01T09:02:05.000Z</time>
      </trkpt>
      <trkpt lat="44.43757" lon="6.37425">
        <ele>1317</ele>
        <time>2021-09-01T09:02:06.000Z</time>
      </trkpt>
      <trkpt lat="44.43755" lon="6.37426">
        <ele>1317</ele>
        <time>2021-09-01T09:02:07.000Z</time>
      </trkpt>
      <trkpt lat="44.43753" lon="6.37426">
        <ele>1317</ele>
        <time>2021-09-01T09:02:08.000Z</time>
      </trkpt>
      <trkpt lat="44.43752" lon="6.37427">
        <ele>1317</ele>
        <time>2021-09-01T09:02:09.000Z</time>
      </trkpt>
      <trkpt lat="44.4375" lon="6.37427">
        <ele>1317</ele>
        <time>2021-09-01T09:02:10.000Z</time>
      </trkpt>
      <trkpt lat="44.43748" lon="6.37427">
        <ele>1317</ele>
        <time>2021-09-01T09:02:11.000Z</time>
      </trkpt>
      <trkpt lat="44.43747" lon="6.37427">
        <ele>1318</ele>
        <time>2021-09-01T09:02:12.000Z</time>
      </trkpt>
      <trkpt lat="44.43745" lon="6.37427">
        <ele>1317</ele>
        <time>2021-09-01T09:02:13.000Z</time>
      </trkpt>
      <trkpt lat="44.43743" lon="6.37427">
        <ele>1317</ele>
        <time>2021-09-01T09:02:14.000Z</time>
      </trkpt>
      <trkpt lat="44.43742" lon="6.37428">
        <ele>1317</ele>
        <time>2021-09-01T09:02:15.000Z</time>
      </trkpt>
      <trkpt lat="44.4374" lon="6.37427">
        <ele>1318</ele>
        <time>2021-09-01T09:02:16.000Z</time>
      </trkpt>
      <trkpt lat="44.43738" lon="6.37427">
        <ele>1319</ele>
        <time>2021-09-01T09:02:17.000Z</time>
      </trkpt>
      <trkpt lat="44.43736" lon="6.37427">
        <ele>1319</ele>
        <time>2021-09-01T09:02:18.000Z</time>
      </trkpt>
      <trkpt lat="44.43734" lon="6.37427">
        <ele>1319</ele>
        <time>2021-09-01T09:02:19.000Z</time>
      </trkpt>
      <trkpt lat="44.43732" lon="6.37428">
        <ele>1320</ele>
        <time>2021-09-01T09:02:20.000Z</time>
      </trkpt>
      <trkpt lat="44.43731" lon="6.37428">
        <ele>1321</ele>
        <time>2021-09-01T09:02:21.000Z</time>
      </trkpt>
      <trkpt lat="44.43729" lon="6.37429">
        <ele>1321</ele>
        <time>2021-09-01T09:02:22.000Z</time>
      </trkpt>
      <trkpt lat="44.43726" lon="6.37429">
        <ele>1321</ele>
        <time>2021-09-01T09:02:23.000Z</time>
      </trkpt>
      <trkpt lat="44.43725" lon="6.37429">
        <ele>1322</ele>
        <time>2021-09-01T09:02:24.000Z</time>
      </trkpt>
      <trkpt lat="44.43722" lon="6.37429">
        <ele>1323</ele>
        <time>2021-09-01T09:02:25.000Z</time>
      </trkpt>
      <trkpt lat="44.4372" lon="6.3743">
        <ele>1323</ele>
        <time>2021-09-01T09:02:26.000Z</time>
      </trkpt>
      <trkpt lat="44.43718" lon="6.3743">
        <ele>1323</ele>
        <time>2021-09-01T09:02:27.000Z</time>
      </trkpt>
      <trkpt lat="44.43716" lon="6.3743">
        <ele>1324</ele>
        <time>2021-09-01T09:02:28.000Z</time>
      </trkpt>
      <trkpt lat="44.43715" lon="6.37431">
        <ele>1324</ele>
        <time>2021-09-01T09:02:29.000Z</time>
      </trkpt>
      <trkpt lat="44.43713" lon="6.37431">
        <ele>1324</ele>
        <time>2021-09-01T09:02:30.000Z</time>
      </trkpt>
      <trkpt lat="44.43711" lon="6.37431">
        <ele>1325</ele>
        <time>2021-09-01T09:02:31.000Z</time>
      </trkpt>
      <trkpt lat="44.43709" lon="6.37432">
        <ele>1325</ele>
        <time>2021-09-01T09:02:32.000Z</time>
      </trkpt>
      <trkpt lat="44.43707" lon="6.37432">
        <ele>1325</ele>
        <time>2021-09-01T09:02:33.000Z</time>
      </trkpt>
      <trkpt lat="44.43704" lon="6.37432">
        <ele>1325</ele>
        <time>2021-09-01T09:02:34.000Z</time>
      </trkpt>
      <trkpt lat="44.43702" lon="6.37432">
        <ele>1325</ele>
        <time>2021-09-01T09:02:35.000Z</time>
      </trkpt>
      <trkpt lat="44.43701" lon="6.37433">
        <ele>1326</ele>
        <time>2021-09-01T09:02:36.000Z</time>
      </trkpt>
      <trkpt lat="44.43698" lon="6.37433">
        <ele>1325</ele>
        <time>2021-09-01T09:02:37.000Z</time>
      </trkpt>
      <trkpt lat="44.43696" lon="6.37434">
        <ele>1325</ele>
        <time>2021-09-01T09:02:38.000Z</time>
      </trkpt>
      <trkpt lat="44.43694" lon="6.37435">
        <ele>1324</ele>
        <time>2021-09-01T09:02:39.000Z</time>
      </trkpt>
      <trkpt lat="44.43692" lon="6.37435">
        <ele>1324</ele>
        <time>2021-09-01T09:02:40.000Z</time>
      </trkpt>
      <trkpt lat="44.4369" lon="6.37437">
        <ele>1323</ele>
        <time>2021-09-01T09:02:41.000Z</time>
      </trkpt>
      <trkpt lat="44.43688" lon="6.37438">
        <ele>1323</ele>
        <time>2021-09-01T09:02:42.000Z</time>
      </trkpt>
      <trkpt lat="44.43686" lon="6.37438">
        <ele>1323</ele>
        <time>2021-09-01T09:02:43.000Z</time>
      </trkpt>
      <trkpt lat="44.43684" lon="6.37439">
        <ele>1323</ele>
        <time>2021-09-01T09:02:44.000Z</time>
      </trkpt>
      <trkpt lat="44.43682" lon="6.3744">
        <ele>1325</ele>
        <time>2021-09-01T09:02:45.000Z</time>
      </trkpt>
      <trkpt lat="44.43681" lon="6.37442">
        <ele>1325</ele>
        <time>2021-09-01T09:02:46.000Z</time>
      </trkpt>
      <trkpt lat="44.43679" lon="6.37443">
        <ele>1326</ele>
        <time>2021-09-01T09:02:47.000Z</time>
      </trkpt>
      <trkpt lat="44.43677" lon="6.37444">
        <ele>1326</ele>
        <time>2021-09-01T09:02:48.000Z</time>
      </trkpt>
      <trkpt lat="44.43675" lon="6.37445">
        <ele>1326</ele>
        <time>2021-09-01T09:02:49.000Z</time>
      </trkpt>
      <trkpt lat="44.43673" lon="6.37446">
        <ele>1327</ele>
        <time>2021-09-01T09:02:50.000Z</time>
      </trkpt>
      <trkpt lat="44.43672" lon="6.37447">
        <ele>1328</ele>
        <time>2021-09-01T09:02:51.000Z</time>
      </trkpt>
      <trkpt lat="44.4367" lon="6.37448">
        <ele>1328</ele>
        <time>2021-09-01T09:02:52.000Z</time>
      </trkpt>
      <trkpt lat="44.43668" lon="6.37449">
        <ele>1328</ele>
        <time>2021-09-01T09:02:53.000Z</time>
      </trkpt>
      <trkpt lat="44.43667" lon="6.3745">
        <ele>1329</ele>
        <time>2021-09-01T09:02:54.000Z</time>
      </trkpt>
      <trkpt lat="44.43665" lon="6.37451">
        <ele>1330</ele>
        <time>2021-09-01T09:02:55.000Z</time>
      </trkpt>
      <trkpt lat="44.43663" lon="6.37453">
        <ele>1331</ele>
        <time>2021-09-01T09:02:56.000Z</time>
      </trkpt>
      <trkpt lat="44.43662" lon="6.37454">
        <ele>1331</ele>
        <time>2021-09-01T09:02:57.000Z</time>
      </trkpt>
      <trkpt lat="44.43659" lon="6.37455">
        <ele>1332</ele>
        <time>2021-09-01T09:02:58.000Z</time>
      </trkpt>
      <trkpt lat="44.43658" lon="6.37456">
        <ele>1331</ele>
        <time>2021-09-01T09:02:59.000Z</time>
      </trkpt>
      <trkpt lat="44.43656" lon="6.37457">
        <ele>1332</ele>
        <time>2021-09-01T09:03:00.000Z</time>
      </trkpt>
      <trkpt lat="44.43654" lon="6.37457">
        <ele>1332</ele>
        <time>2021-09-01T09:03:01.000Z</time>
      </trkpt>
      <trkpt lat="44.43652" lon="6.37458">
        <ele>1332</ele>
        <time>2021-09-01T09:03:02.000Z</time>
      </trkpt>
      <trkpt lat="44.43651" lon="6.37459">
        <ele>1333</ele>
        <time>2021-09-01T09:03:03.000Z</time>
      </trkpt>
      <trkpt lat="44.43649" lon="6.3746">
        <ele>1333</ele>
        <time>2021-09-01T09:03:04.000Z</time>
      </trkpt>
      <trkpt lat="44.43648" lon="6.3746">
        <ele>1334</ele>
        <time>2021-09-01T09:03:05.000Z</time>
      </trkpt>
      <trkpt lat="44.43646" lon="6.37461">
        <ele>1335</ele>
        <time>2021-09-01T09:03:06.000Z</time>
      </trkpt>
      <trkpt lat="44.43644" lon="6.37461">
        <ele>1335</ele>
        <time>2021-09-01T09:03:07.000Z</time>
      </trkpt>
      <trkpt lat="44.43642" lon="6.37461">
        <ele>1336</ele>
        <time>2021-09-01T09:03:08.000Z</time>
      </trkpt>
      <trkpt lat="44.4364" lon="6.37462">
        <ele>1335</ele>
        <time>2021-09-01T09:03:09.000Z</time>
      </trkpt>
      <trkpt lat="44.43638" lon="6.37462">
        <ele>1335</ele>
        <time>2021-09-01T09:03:10.000Z</time>
      </trkpt>
      <trkpt lat="44.43637" lon="6.37462">
        <ele>1335</ele>
        <time>2021-09-01T09:03:11.000Z</time>
      </trkpt>
      <trkpt lat="44.43635" lon="6.37462">
        <ele>1335</ele>
        <time>2021-09-01T09:03:12.000Z</time>
      </trkpt>
      <trkpt lat="44.43634" lon="6.37463">
        <ele>1336</ele>
        <time>2021-09-01T09:03:13.000Z</time>
      </trkpt>
      <trkpt lat="44.43632" lon="6.37463">
        <ele>1336</ele>
        <time>2021-09-01T09:03:14.000Z</time>
      </trkpt>
      <trkpt lat="44.43631" lon="6.37463">
        <ele>1335</ele>
        <time>2021-09-01T09:03:15.000Z</time>
      </trkpt>
      <trkpt lat="44.43629" lon="6.37464">
        <ele>1336</ele>
        <time>2021-09-01T09:03:16.000Z</time>
      </trkpt>
      <trkpt lat="44.43628" lon="6.37464">
        <ele>1336</ele>
        <time>2021-09-01T09:03:17.000Z</time>
      </trkpt>
      <trkpt lat="44.43627" lon="6.37464">
        <ele>1337</ele>
        <time>2021-09-01T09:03:18.000Z</time>
      </trkpt>
      <trkpt lat="44.43625" lon="6.37464">
        <ele>1337</ele>
        <time>2021-09-01T09:03:19.000Z</time>
      </trkpt>
      <trkpt lat="44.43623" lon="6.37464">
        <ele>1337</ele>
        <time>2021-09-01T09:03:20.000Z</time>
      </trkpt>
      <trkpt lat="44.43622" lon="6.37464">
        <ele>1337</ele>
        <time>2021-09-01T09:03:21.000Z</time>
      </trkpt>
      <trkpt lat="44.4362" lon="6.37464">
        <ele>1337</ele>
        <time>2021-09-01T09:03:22.000Z</time>
      </trkpt>
      <trkpt lat="44.43619" lon="6.37463">
        <ele>1338</ele>
        <time>2021-09-01T09:03:23.000Z</time>
      </trkpt>
      <trkpt lat="44.43617" lon="6.37463">
        <ele>1339</ele>
        <time>2021-09-01T09:03:24.000Z</time>
      </trkpt>
      <trkpt lat="44.43616" lon="6.37462">
        <ele>1340</ele>
        <time>2021-09-01T09:03:25.000Z</time>
      </trkpt>
      <trkpt lat="44.43615" lon="6.37462">
        <ele>1339</ele>
        <time>2021-09-01T09:03:26.000Z</time>
      </trkpt>
      <trkpt lat="44.43614" lon="6.37462">
        <ele>1338</ele>
        <time>2021-09-01T09:03:27.000Z</time>
      </trkpt>
      <trkpt lat="44.43613" lon="6.37462">
        <ele>1339</ele>
        <time>2021-09-01T09:03:28.000Z</time>
      </trkpt>
      <trkpt lat="44.43611" lon="6.37461">
        <ele>1339</ele>
        <time>2021-09-01T09:03:29.000Z</time>
      </trkpt>
      <trkpt lat="44.4361" lon="6.37461">
        <ele>1339</ele>
        <time>2021-09-01T09:03:30.000Z</time>
      </trkpt>
      <trkpt lat="44.43609" lon="6.37461">
        <ele>1339</ele>
        <time>2021-09-01T09:03:31.000Z</time>
      </trkpt>
      <trkpt lat="44.43607" lon="6.37461">
        <ele>1339</ele>
        <time>2021-09-01T09:03:32.000Z</time>
      </trkpt>
      <trkpt lat="44.43607" lon="6.3746">
        <ele>1339</ele>
        <time>2021-09-01T09:03:33.000Z</time>
      </trkpt>
      <trkpt lat="44.43606" lon="6.37461">
        <ele>1339</ele>
        <time>2021-09-01T09:03:34.000Z</time>
      </trkpt>
      <trkpt lat="44.43604" lon="6.37461">
        <ele>1340</ele>
        <time>2021-09-01T09:03:35.000Z</time>
      </trkpt>
      <trkpt lat="44.43603" lon="6.37461">
        <ele>1340</ele>
        <time>2021-09-01T09:03:36.000Z</time>
      </trkpt>
      <trkpt lat="44.43601" lon="6.37461">
        <ele>1340</ele>
        <time>2021-09-01T09:03:37.000Z</time>
      </trkpt>
      <trkpt lat="44.436" lon="6.37461">
        <ele>1340</ele>
        <time>2021-09-01T09:03:38.000Z</time>
      </trkpt>
      <trkpt lat="44.43598" lon="6.37461">
        <ele>1341</ele>
        <time>2021-09-01T09:03:39.000Z</time>
      </trkpt>
      <trkpt lat="44.43596" lon="6.37462">
        <ele>1342</ele>
        <time>2021-09-01T09:03:40.000Z</time>
      </trkpt>
      <trkpt lat="44.43594" lon="6.37461">
        <ele>1343</ele>
        <time>2021-09-01T09:03:41.000Z</time>
      </trkpt>
      <trkpt lat="44.43591" lon="6.37462">
        <ele>1344</ele>
        <time>2021-09-01T09:03:42.000Z</time>
      </trkpt>
      <trkpt lat="44.43589" lon="6.37461">
        <ele>1344</ele>
        <time>2021-09-01T09:03:43.000Z</time>
      </trkpt>
      <trkpt lat="44.43588" lon="6.37461">
        <ele>1344</ele>
        <time>2021-09-01T09:03:44.000Z</time>
      </trkpt>
      <trkpt lat="44.43586" lon="6.37461">
        <ele>1344</ele>
        <time>2021-09-01T09:03:45.000Z</time>
      </trkpt>
      <trkpt lat="44.43585" lon="6.37461">
        <ele>1345</ele>
        <time>2021-09-01T09:03:46.000Z</time>
      </trkpt>
      <trkpt lat="44.43583" lon="6.37463">
        <ele>1345</ele>
        <time>2021-09-01T09:03:47.000Z</time>
      </trkpt>
      <trkpt lat="44.43581" lon="6.37463">
        <ele>1345</ele>
        <time>2021-09-01T09:03:48.000Z</time>
      </trkpt>
      <trkpt lat="44.43579" lon="6.37464">
        <ele>1346</ele>
        <time>2021-09-01T09:03:49.000Z</time>
      </trkpt>
      <trkpt lat="44.43577" lon="6.37464">
        <ele>1347</ele>
        <time>2021-09-01T09:03:50.000Z</time>
      </trkpt>
      <trkpt lat="44.43575" lon="6.37465">
        <ele>1347</ele>
        <time>2021-09-01T09:03:51.000Z</time>
      </trkpt>
      <trkpt lat="44.43573" lon="6.37465">
        <ele>1347</ele>
        <time>2021-09-01T09:03:52.000Z</time>
      </trkpt>
      <trkpt lat="44.43572" lon="6.37465">
        <ele>1347</ele>
        <time>2021-09-01T09:03:53.000Z</time>
      </trkpt>
      <trkpt lat="44.4357" lon="6.37466">
        <ele>1346</ele>
        <time>2021-09-01T09:03:54.000Z</time>
      </trkpt>
      <trkpt lat="44.43568" lon="6.37466">
        <ele>1346</ele>
        <time>2021-09-01T09:03:55.000Z</time>
      </trkpt>
      <trkpt lat="44.43566" lon="6.37467">
        <ele>1347</ele>
        <time>2021-09-01T09:03:56.000Z</time>
      </trkpt>
      <trkpt lat="44.43565" lon="6.37468">
        <ele>1347</ele>
        <time>2021-09-01T09:03:57.000Z</time>
      </trkpt>
      <trkpt lat="44.43564" lon="6.37469">
        <ele>1348</ele>
        <time>2021-09-01T09:03:58.000Z</time>
      </trkpt>
      <trkpt lat="44.43562" lon="6.3747">
        <ele>1349</ele>
        <time>2021-09-01T09:03:59.000Z</time>
      </trkpt>
      <trkpt lat="44.4356" lon="6.37471">
        <ele>1349</ele>
        <time>2021-09-01T09:04:00.000Z</time>
      </trkpt>
      <trkpt lat="44.43558" lon="6.37472">
        <ele>1349</ele>
        <time>2021-09-01T09:04:01.000Z</time>
      </trkpt>
      <trkpt lat="44.43555" lon="6.37472">
        <ele>1350</ele>
        <time>2021-09-01T09:04:02.000Z</time>
      </trkpt>
      <trkpt lat="44.43554" lon="6.37473">
        <ele>1351</ele>
        <time>2021-09-01T09:04:03.000Z</time>
      </trkpt>
      <trkpt lat="44.43552" lon="6.37474">
        <ele>1354</ele>
        <time>2021-09-01T09:04:04.000Z</time>
      </trkpt>
      <trkpt lat="44.4355" lon="6.37474">
        <ele>1355</ele>
        <time>2021-09-01T09:04:05.000Z</time>
      </trkpt>
      <trkpt lat="44.43548" lon="6.37475">
        <ele>1356</ele>
        <time>2021-09-01T09:04:06.000Z</time>
      </trkpt>
      <trkpt lat="44.43547" lon="6.37476">
        <ele>1357</ele>
        <time>2021-09-01T09:04:07.000Z</time>
      </trkpt>
      <trkpt lat="44.43545" lon="6.37477">
        <ele>1358</ele>
        <time>2021-09-01T09:04:08.000Z</time>
      </trkpt>
      <trkpt lat="44.43543" lon="6.37478">
        <ele>1358</ele>
        <time>2021-09-01T09:04:09.000Z</time>
      </trkpt>
      <trkpt lat="44.43542" lon="6.37479">
        <ele>1358</ele>
        <time>2021-09-01T09:04:10.000Z</time>
      </trkpt>
      <trkpt lat="44.4354" lon="6.3748">
        <ele>1358</ele>
        <time>2021-09-01T09:04:11.000Z</time>
      </trkpt>
      <trkpt lat="44.43539" lon="6.3748">
        <ele>1359</ele>
        <time>2021-09-01T09:04:12.000Z</time>
      </trkpt>
      <trkpt lat="44.43538" lon="6.3748">
        <ele>1359</ele>
        <time>2021-09-01T09:04:13.000Z</time>
      </trkpt>
      <trkpt lat="44.43537" lon="6.37481">
        <ele>1360</ele>
        <time>2021-09-01T09:04:14.000Z</time>
      </trkpt>
      <trkpt lat="44.43535" lon="6.37481">
        <ele>1360</ele>
        <time>2021-09-01T09:04:15.000Z</time>
      </trkpt>
      <trkpt lat="44.43534" lon="6.37481">
        <ele>1360</ele>
        <time>2021-09-01T09:04:16.000Z</time>
      </trkpt>
      <trkpt lat="44.43531" lon="6.37481">
        <ele>1360</ele>
        <time>2021-09-01T09:04:17.000Z</time>
      </trkpt>
      <trkpt lat="44.43529" lon="6.37481">
        <ele>1360</ele>
        <time>2021-09-01T09:04:18.000Z</time>
      </trkpt>
      <trkpt lat="44.43527" lon="6.37481">
        <ele>1362</ele>
        <time>2021-09-01T09:04:19.000Z</time>
      </trkpt>
      <trkpt lat="44.43526" lon="6.3748">
        <ele>1363</ele>
        <time>2021-09-01T09:04:20.000Z</time>
      </trkpt>
      <trkpt lat="44.43523" lon="6.37479">
        <ele>1364</ele>
        <time>2021-09-01T09:04:21.000Z</time>
      </trkpt>
      <trkpt lat="44.43522" lon="6.37479">
        <ele>1365</ele>
        <time>2021-09-01T09:04:22.000Z</time>
      </trkpt>
      <trkpt lat="44.43521" lon="6.37479">
        <ele>1368</ele>
        <time>2021-09-01T09:04:23.000Z</time>
      </trkpt>
      <trkpt lat="44.43519" lon="6.37479">
        <ele>1368</ele>
        <time>2021-09-01T09:04:24.000Z</time>
      </trkpt>
      <trkpt lat="44.43518" lon="6.37479">
        <ele>1368</ele>
        <time>2021-09-01T09:04:25.000Z</time>
      </trkpt>
      <trkpt lat="44.43516" lon="6.37479">
        <ele>1368</ele>
        <time>2021-09-01T09:04:26.000Z</time>
      </trkpt>
      <trkpt lat="44.43515" lon="6.37479">
        <ele>1368</ele>
        <time>2021-09-01T09:04:27.000Z</time>
      </trkpt>
      <trkpt lat="44.43513" lon="6.37479">
        <ele>1369</ele>
        <time>2021-09-01T09:04:28.000Z</time>
      </trkpt>
      <trkpt lat="44.43512" lon="6.37478">
        <ele>1370</ele>
        <time>2021-09-01T09:04:29.000Z</time>
      </trkpt>
      <trkpt lat="44.4351" lon="6.37478">
        <ele>1370</ele>
        <time>2021-09-01T09:04:30.000Z</time>
      </trkpt>
      <trkpt lat="44.43508" lon="6.37478">
        <ele>1370</ele>
        <time>2021-09-01T09:04:31.000Z</time>
      </trkpt>
      <trkpt lat="44.43507" lon="6.37478">
        <ele>1370</ele>
        <time>2021-09-01T09:04:32.000Z</time>
      </trkpt>
      <trkpt lat="44.43504" lon="6.37479">
        <ele>1369</ele>
        <time>2021-09-01T09:04:33.000Z</time>
      </trkpt>
      <trkpt lat="44.43502" lon="6.3748">
        <ele>1369</ele>
        <time>2021-09-01T09:04:34.000Z</time>
      </trkpt>
      <trkpt lat="44.435" lon="6.37481">
        <ele>1368</ele>
        <time>2021-09-01T09:04:35.000Z</time>
      </trkpt>
      <trkpt lat="44.43498" lon="6.37482">
        <ele>1368</ele>
        <time>2021-09-01T09:04:36.000Z</time>
      </trkpt>
      <trkpt lat="44.43496" lon="6.37482">
        <ele>1368</ele>
        <time>2021-09-01T09:04:37.000Z</time>
      </trkpt>
      <trkpt lat="44.43495" lon="6.37484">
        <ele>1368</ele>
        <time>2021-09-01T09:04:38.000Z</time>
      </trkpt>
      <trkpt lat="44.43493" lon="6.37485">
        <ele>1367</ele>
        <time>2021-09-01T09:04:39.000Z</time>
      </trkpt>
      <trkpt lat="44.43491" lon="6.37486">
        <ele>1367</ele>
        <time>2021-09-01T09:04:40.000Z</time>
      </trkpt>
      <trkpt lat="44.43488" lon="6.37487">
        <ele>1366</ele>
        <time>2021-09-01T09:04:41.000Z</time>
      </trkpt>
      <trkpt lat="44.43487" lon="6.37489">
        <ele>1367</ele>
        <time>2021-09-01T09:04:42.000Z</time>
      </trkpt>
      <trkpt lat="44.43486" lon="6.3749">
        <ele>1367</ele>
        <time>2021-09-01T09:04:43.000Z</time>
      </trkpt>
      <trkpt lat="44.43483" lon="6.37492">
        <ele>1367</ele>
        <time>2021-09-01T09:04:44.000Z</time>
      </trkpt>
      <trkpt lat="44.43482" lon="6.37493">
        <ele>1367</ele>
        <time>2021-09-01T09:04:45.000Z</time>
      </trkpt>
      <trkpt lat="44.43481" lon="6.37494">
        <ele>1368</ele>
        <time>2021-09-01T09:04:46.000Z</time>
      </trkpt>
      <trkpt lat="44.4348" lon="6.37496">
        <ele>1366</ele>
        <time>2021-09-01T09:04:47.000Z</time>
      </trkpt>
      <trkpt lat="44.43478" lon="6.37497">
        <ele>1366</ele>
        <time>2021-09-01T09:04:48.000Z</time>
      </trkpt>
      <trkpt lat="44.43477" lon="6.37499">
        <ele>1366</ele>
        <time>2021-09-01T09:04:49.000Z</time>
      </trkpt>
      <trkpt lat="44.43475" lon="6.37502">
        <ele>1366</ele>
        <time>2021-09-01T09:04:50.000Z</time>
      </trkpt>
      <trkpt lat="44.43475" lon="6.37504">
        <ele>1366</ele>
        <time>2021-09-01T09:04:51.000Z</time>
      </trkpt>
      <trkpt lat="44.43474" lon="6.37506">
        <ele>1366</ele>
        <time>2021-09-01T09:04:52.000Z</time>
      </trkpt>
      <trkpt lat="44.43473" lon="6.37509">
        <ele>1367</ele>
        <time>2021-09-01T09:04:53.000Z</time>
      </trkpt>
      <trkpt lat="44.43473" lon="6.37511">
        <ele>1367</ele>
        <time>2021-09-01T09:04:54.000Z</time>
      </trkpt>
      <trkpt lat="44.43472" lon="6.37513">
        <ele>1367</ele>
        <time>2021-09-01T09:04:55.000Z</time>
      </trkpt>
      <trkpt lat="44.43471" lon="6.37515">
        <ele>1367</ele>
        <time>2021-09-01T09:04:56.000Z</time>
      </trkpt>
      <trkpt lat="44.4347" lon="6.37518">
        <ele>1367</ele>
        <time>2021-09-01T09:04:57.000Z</time>
      </trkpt>
      <trkpt lat="44.43469" lon="6.37521">
        <ele>1367</ele>
        <time>2021-09-01T09:04:58.000Z</time>
      </trkpt>
      <trkpt lat="44.43468" lon="6.37523">
        <ele>1368</ele>
        <time>2021-09-01T09:04:59.000Z</time>
      </trkpt>
      <trkpt lat="44.43467" lon="6.37525">
        <ele>1368</ele>
        <time>2021-09-01T09:05:00.000Z</time>
      </trkpt>
      <trkpt lat="44.43464" lon="6.37528">
        <ele>1369</ele>
        <time>2021-09-01T09:05:01.000Z</time>
      </trkpt>
      <trkpt lat="44.43463" lon="6.37531">
        <ele>1370</ele>
        <time>2021-09-01T09:05:02.000Z</time>
      </trkpt>
      <trkpt lat="44.43462" lon="6.37534">
        <ele>1371</ele>
        <time>2021-09-01T09:05:03.000Z</time>
      </trkpt>
      <trkpt lat="44.43461" lon="6.37536">
        <ele>1371</ele>
        <time>2021-09-01T09:05:04.000Z</time>
      </trkpt>
      <trkpt lat="44.4346" lon="6.37538">
        <ele>1371</ele>
        <time>2021-09-01T09:05:05.000Z</time>
      </trkpt>
      <trkpt lat="44.43458" lon="6.3754">
        <ele>1372</ele>
        <time>2021-09-01T09:05:06.000Z</time>
      </trkpt>
      <trkpt lat="44.43458" lon="6.37542">
        <ele>1372</ele>
        <time>2021-09-01T09:05:07.000Z</time>
      </trkpt>
      <trkpt lat="44.43456" lon="6.37545">
        <ele>1373</ele>
        <time>2021-09-01T09:05:08.000Z</time>
      </trkpt>
      <trkpt lat="44.43455" lon="6.37547">
        <ele>1373</ele>
        <time>2021-09-01T09:05:09.000Z</time>
      </trkpt>
      <trkpt lat="44.43453" lon="6.3755">
        <ele>1373</ele>
        <time>2021-09-01T09:05:10.000Z</time>
      </trkpt>
      <trkpt lat="44.43452" lon="6.37553">
        <ele>1372</ele>
        <time>2021-09-01T09:05:11.000Z</time>
      </trkpt>
      <trkpt lat="44.4345" lon="6.37555">
        <ele>1373</ele>
        <time>2021-09-01T09:05:12.000Z</time>
      </trkpt>
      <trkpt lat="44.43449" lon="6.37557">
        <ele>1372</ele>
        <time>2021-09-01T09:05:13.000Z</time>
      </trkpt>
      <trkpt lat="44.43447" lon="6.37559">
        <ele>1372</ele>
        <time>2021-09-01T09:05:14.000Z</time>
      </trkpt>
      <trkpt lat="44.43444" lon="6.37561">
        <ele>1373</ele>
        <time>2021-09-01T09:05:15.000Z</time>
      </trkpt>
      <trkpt lat="44.43443" lon="6.37563">
        <ele>1374</ele>
        <time>2021-09-01T09:05:16.000Z</time>
      </trkpt>
      <trkpt lat="44.4344" lon="6.37565">
        <ele>1375</ele>
        <time>2021-09-01T09:05:17.000Z</time>
      </trkpt>
      <trkpt lat="44.43438" lon="6.37567">
        <ele>1375</ele>
        <time>2021-09-01T09:05:18.000Z</time>
      </trkpt>
      <trkpt lat="44.43436" lon="6.37569">
        <ele>1375</ele>
        <time>2021-09-01T09:05:19.000Z</time>
      </trkpt>
      <trkpt lat="44.43434" lon="6.37569">
        <ele>1376</ele>
        <time>2021-09-01T09:05:20.000Z</time>
      </trkpt>
      <trkpt lat="44.43432" lon="6.3757">
        <ele>1376</ele>
        <time>2021-09-01T09:05:21.000Z</time>
      </trkpt>
      <trkpt lat="44.4343" lon="6.3757">
        <ele>1377</ele>
        <time>2021-09-01T09:05:22.000Z</time>
      </trkpt>
      <trkpt lat="44.43428" lon="6.37571">
        <ele>1376</ele>
        <time>2021-09-01T09:05:23.000Z</time>
      </trkpt>
      <trkpt lat="44.43426" lon="6.37571">
        <ele>1376</ele>
        <time>2021-09-01T09:05:24.000Z</time>
      </trkpt>
      <trkpt lat="44.43424" lon="6.37572">
        <ele>1376</ele>
        <time>2021-09-01T09:05:25.000Z</time>
      </trkpt>
      <trkpt lat="44.43422" lon="6.37572">
        <ele>1376</ele>
        <time>2021-09-01T09:05:26.000Z</time>
      </trkpt>
      <trkpt lat="44.4342" lon="6.37572">
        <ele>1376</ele>
        <time>2021-09-01T09:05:27.000Z</time>
      </trkpt>
      <trkpt lat="44.43418" lon="6.37572">
        <ele>1376</ele>
        <time>2021-09-01T09:05:28.000Z</time>
      </trkpt>
      <trkpt lat="44.43415" lon="6.37571">
        <ele>1377</ele>
        <time>2021-09-01T09:05:29.000Z</time>
      </trkpt>
      <trkpt lat="44.43412" lon="6.3757">
        <ele>1378</ele>
        <time>2021-09-01T09:05:30.000Z</time>
      </trkpt>
      <trkpt lat="44.4341" lon="6.37569">
        <ele>1378</ele>
        <time>2021-09-01T09:05:31.000Z</time>
      </trkpt>
      <trkpt lat="44.43408" lon="6.37568">
        <ele>1378</ele>
        <time>2021-09-01T09:05:32.000Z</time>
      </trkpt>
      <trkpt lat="44.43406" lon="6.37569">
        <ele>1379</ele>
        <time>2021-09-01T09:05:33.000Z</time>
      </trkpt>
      <trkpt lat="44.43404" lon="6.37568">
        <ele>1379</ele>
        <time>2021-09-01T09:05:34.000Z</time>
      </trkpt>
      <trkpt lat="44.43402" lon="6.37569">
        <ele>1379</ele>
        <time>2021-09-01T09:05:35.000Z</time>
      </trkpt>
      <trkpt lat="44.434" lon="6.37569">
        <ele>1380</ele>
        <time>2021-09-01T09:05:36.000Z</time>
      </trkpt>
      <trkpt lat="44.43398" lon="6.37568">
        <ele>1381</ele>
        <time>2021-09-01T09:05:37.000Z</time>
      </trkpt>
      <trkpt lat="44.43396" lon="6.37568">
        <ele>1382</ele>
        <time>2021-09-01T09:05:38.000Z</time>
      </trkpt>
      <trkpt lat="44.43394" lon="6.37567">
        <ele>1382</ele>
        <time>2021-09-01T09:05:39.000Z</time>
      </trkpt>
      <trkpt lat="44.43392" lon="6.37567">
        <ele>1381</ele>
        <time>2021-09-01T09:05:40.000Z</time>
      </trkpt>
      <trkpt lat="44.43391" lon="6.37566">
        <ele>1382</ele>
        <time>2021-09-01T09:05:41.000Z</time>
      </trkpt>
      <trkpt lat="44.43389" lon="6.37564">
        <ele>1382</ele>
        <time>2021-09-01T09:05:42.000Z</time>
      </trkpt>
      <trkpt lat="44.43388" lon="6.37563">
        <ele>1383</ele>
        <time>2021-09-01T09:05:43.000Z</time>
      </trkpt>
      <trkpt lat="44.43388" lon="6.37562">
        <ele>1384</ele>
        <time>2021-09-01T09:05:44.000Z</time>
      </trkpt>
      <trkpt lat="44.43388" lon="6.37561">
        <ele>1383</ele>
        <time>2021-09-01T09:05:45.000Z</time>
      </trkpt>
      <trkpt lat="44.43388" lon="6.37561">
        <ele>1383</ele>
        <time>2021-09-01T09:05:46.000Z</time>
      </trkpt>
      <trkpt lat="44.43388" lon="6.37561">
        <ele>1382</ele>
        <time>2021-09-01T09:05:47.000Z</time>
      </trkpt>
      <trkpt lat="44.43388" lon="6.37562">
        <ele>1382</ele>
        <time>2021-09-01T09:05:48.000Z</time>
      </trkpt>
      <trkpt lat="44.43388" lon="6.37563">
        <ele>1382</ele>
        <time>2021-09-01T09:05:49.000Z</time>
      </trkpt>
      <trkpt lat="44.43388" lon="6.37562">
        <ele>1382</ele>
        <time>2021-09-01T09:05:50.000Z</time>
      </trkpt>
      <trkpt lat="44.43388" lon="6.37563">
        <ele>1382</ele>
        <time>2021-09-01T09:05:51.000Z</time>
      </trkpt>
      <trkpt lat="44.43388" lon="6.37563">
        <ele>1383</ele>
        <time>2021-09-01T09:05:52.000Z</time>
      </trkpt>
      <trkpt lat="44.43387" lon="6.37563">
        <ele>1382</ele>
        <time>2021-09-01T09:05:53.000Z</time>
      </trkpt>
      <trkpt lat="44.43387" lon="6.37563">
        <ele>1382</ele>
        <time>2021-09-01T09:05:54.000Z</time>
      </trkpt>
      <trkpt lat="44.43386" lon="6.37563">
        <ele>1383</ele>
        <time>2021-09-01T09:05:55.000Z</time>
      </trkpt>
      <trkpt lat="44.43386" lon="6.37564">
        <ele>1384</ele>
        <time>2021-09-01T09:05:56.000Z</time>
      </trkpt>
      <trkpt lat="44.43385" lon="6.37565">
        <ele>1384</ele>
        <time>2021-09-01T09:05:57.000Z</time>
      </trkpt>
      <trkpt lat="44.43384" lon="6.37565">
        <ele>1384</ele>
        <time>2021-09-01T09:05:58.000Z</time>
      </trkpt>
      <trkpt lat="44.43384" lon="6.37565">
        <ele>1383</ele>
        <time>2021-09-01T09:05:59.000Z</time>
      </trkpt>
      <trkpt lat="44.43383" lon="6.37564">
        <ele>1384</ele>
        <time>2021-09-01T09:06:00.000Z</time>
      </trkpt>
      <trkpt lat="44.43382" lon="6.37563">
        <ele>1383</ele>
        <time>2021-09-01T09:06:01.000Z</time>
      </trkpt>
      <trkpt lat="44.43381" lon="6.37563">
        <ele>1383</ele>
        <time>2021-09-01T09:06:02.000Z</time>
      </trkpt>
      <trkpt lat="44.4338" lon="6.37562">
        <ele>1383</ele>
        <time>2021-09-01T09:06:03.000Z</time>
      </trkpt>
      <trkpt lat="44.43379" lon="6.37562">
        <ele>1383</ele>
        <time>2021-09-01T09:06:04.000Z</time>
      </trkpt>
      <trkpt lat="44.43378" lon="6.37561">
        <ele>1384</ele>
        <time>2021-09-01T09:06:05.000Z</time>
      </trkpt>
      <trkpt lat="44.43376" lon="6.3756">
        <ele>1387</ele>
        <time>2021-09-01T09:06:06.000Z</time>
      </trkpt>
      <trkpt lat="44.43375" lon="6.37559">
        <ele>1388</ele>
        <time>2021-09-01T09:06:07.000Z</time>
      </trkpt>
      <trkpt lat="44.43373" lon="6.37558">
        <ele>1390</ele>
        <time>2021-09-01T09:06:08.000Z</time>
      </trkpt>
      <trkpt lat="44.43372" lon="6.37557">
        <ele>1390</ele>
        <time>2021-09-01T09:06:09.000Z</time>
      </trkpt>
      <trkpt lat="44.4337" lon="6.37557">
        <ele>1390</ele>
        <time>2021-09-01T09:06:10.000Z</time>
      </trkpt>
      <trkpt lat="44.43369" lon="6.37556">
        <ele>1390</ele>
        <time>2021-09-01T09:06:11.000Z</time>
      </trkpt>
      <trkpt lat="44.43368" lon="6.37555">
        <ele>1391</ele>
        <time>2021-09-01T09:06:12.000Z</time>
      </trkpt>
      <trkpt lat="44.43367" lon="6.37555">
        <ele>1391</ele>
        <time>2021-09-01T09:06:13.000Z</time>
      </trkpt>
      <trkpt lat="44.43365" lon="6.37554">
        <ele>1393</ele>
        <time>2021-09-01T09:06:14.000Z</time>
      </trkpt>
      <trkpt lat="44.43364" lon="6.37552">
        <ele>1394</ele>
        <time>2021-09-01T09:06:15.000Z</time>
      </trkpt>
      <trkpt lat="44.43363" lon="6.37551">
        <ele>1394</ele>
        <time>2021-09-01T09:06:16.000Z</time>
      </trkpt>
      <trkpt lat="44.43361" lon="6.3755">
        <ele>1394</ele>
        <time>2021-09-01T09:06:17.000Z</time>
      </trkpt>
      <trkpt lat="44.4336" lon="6.3755">
        <ele>1394</ele>
        <time>2021-09-01T09:06:18.000Z</time>
      </trkpt>
      <trkpt lat="44.43358" lon="6.37549">
        <ele>1394</ele>
        <time>2021-09-01T09:06:19.000Z</time>
      </trkpt>
      <trkpt lat="44.43357" lon="6.3755">
        <ele>1394</ele>
        <time>2021-09-01T09:06:20.000Z</time>
      </trkpt>
      <trkpt lat="44.43356" lon="6.37549">
        <ele>1393</ele>
        <time>2021-09-01T09:06:21.000Z</time>
      </trkpt>
      <trkpt lat="44.43355" lon="6.37548">
        <ele>1394</ele>
        <time>2021-09-01T09:06:22.000Z</time>
      </trkpt>
      <trkpt lat="44.43354" lon="6.37547">
        <ele>1394</ele>
        <time>2021-09-01T09:06:23.000Z</time>
      </trkpt>
      <trkpt lat="44.43352" lon="6.37546">
        <ele>1394</ele>
        <time>2021-09-01T09:06:24.000Z</time>
      </trkpt>
      <trkpt lat="44.4335" lon="6.37545">
        <ele>1394</ele>
        <time>2021-09-01T09:06:25.000Z</time>
      </trkpt>
      <trkpt lat="44.43348" lon="6.37544">
        <ele>1395</ele>
        <time>2021-09-01T09:06:26.000Z</time>
      </trkpt>
      <trkpt lat="44.43347" lon="6.37543">
        <ele>1396</ele>
        <time>2021-09-01T09:06:27.000Z</time>
      </trkpt>
      <trkpt lat="44.43346" lon="6.37542">
        <ele>1396</ele>
        <time>2021-09-01T09:06:28.000Z</time>
      </trkpt>
      <trkpt lat="44.43343" lon="6.37541">
        <ele>1396</ele>
        <time>2021-09-01T09:06:29.000Z</time>
      </trkpt>
      <trkpt lat="44.43341" lon="6.3754">
        <ele>1396</ele>
        <time>2021-09-01T09:06:30.000Z</time>
      </trkpt>
      <trkpt lat="44.43339" lon="6.37539">
        <ele>1397</ele>
        <time>2021-09-01T09:06:31.000Z</time>
      </trkpt>
      <trkpt lat="44.43337" lon="6.37538">
        <ele>1397</ele>
        <time>2021-09-01T09:06:32.000Z</time>
      </trkpt>
      <trkpt lat="44.43335" lon="6.37537">
        <ele>1396</ele>
        <time>2021-09-01T09:06:33.000Z</time>
      </trkpt>
      <trkpt lat="44.43333" lon="6.37536">
        <ele>1396</ele>
        <time>2021-09-01T09:06:34.000Z</time>
      </trkpt>
      <trkpt lat="44.43331" lon="6.37535">
        <ele>1397</ele>
        <time>2021-09-01T09:06:35.000Z</time>
      </trkpt>
      <trkpt lat="44.43328" lon="6.37533">
        <ele>1396</ele>
        <time>2021-09-01T09:06:36.000Z</time>
      </trkpt>
      <trkpt lat="44.43326" lon="6.37531">
        <ele>1397</ele>
        <time>2021-09-01T09:06:37.000Z</time>
      </trkpt>
      <trkpt lat="44.43324" lon="6.3753">
        <ele>1397</ele>
        <time>2021-09-01T09:06:38.000Z</time>
      </trkpt>
      <trkpt lat="44.43321" lon="6.37529">
        <ele>1397</ele>
        <time>2021-09-01T09:06:39.000Z</time>
      </trkpt>
      <trkpt lat="44.43319" lon="6.37527">
        <ele>1397</ele>
        <time>2021-09-01T09:06:40.000Z</time>
      </trkpt>
      <trkpt lat="44.43317" lon="6.37525">
        <ele>1398</ele>
        <time>2021-09-01T09:06:41.000Z</time>
      </trkpt>
      <trkpt lat="44.43315" lon="6.37524">
        <ele>1398</ele>
        <time>2021-09-01T09:06:42.000Z</time>
      </trkpt>
      <trkpt lat="44.43314" lon="6.37522">
        <ele>1398</ele>
        <time>2021-09-01T09:06:43.000Z</time>
      </trkpt>
      <trkpt lat="44.4331" lon="6.37521">
        <ele>1396</ele>
        <time>2021-09-01T09:06:44.000Z</time>
      </trkpt>
      <trkpt lat="44.43308" lon="6.37519">
        <ele>1397</ele>
        <time>2021-09-01T09:06:45.000Z</time>
      </trkpt>
      <trkpt lat="44.43305" lon="6.37517">
        <ele>1395</ele>
        <time>2021-09-01T09:06:46.000Z</time>
      </trkpt>
      <trkpt lat="44.43303" lon="6.37516">
        <ele>1394</ele>
        <time>2021-09-01T09:06:47.000Z</time>
      </trkpt>
      <trkpt lat="44.43302" lon="6.37513">
        <ele>1394</ele>
        <time>2021-09-01T09:06:48.000Z</time>
      </trkpt>
      <trkpt lat="44.43301" lon="6.37511">
        <ele>1395</ele>
        <time>2021-09-01T09:06:49.000Z</time>
      </trkpt>
      <trkpt lat="44.43299" lon="6.37509">
        <ele>1395</ele>
        <time>2021-09-01T09:06:50.000Z</time>
      </trkpt>
      <trkpt lat="44.43298" lon="6.37507">
        <ele>1395</ele>
        <time>2021-09-01T09:06:51.000Z</time>
      </trkpt>
      <trkpt lat="44.43297" lon="6.37505">
        <ele>1396</ele>
        <time>2021-09-01T09:06:52.000Z</time>
      </trkpt>
      <trkpt lat="44.43295" lon="6.37503">
        <ele>1396</ele>
        <time>2021-09-01T09:06:53.000Z</time>
      </trkpt>
      <trkpt lat="44.43294" lon="6.375">
        <ele>1397</ele>
        <time>2021-09-01T09:06:54.000Z</time>
      </trkpt>
      <trkpt lat="44.43292" lon="6.37498">
        <ele>1397</ele>
        <time>2021-09-01T09:06:55.000Z</time>
      </trkpt>
      <trkpt lat="44.4329" lon="6.37497">
        <ele>1397</ele>
        <time>2021-09-01T09:06:56.000Z</time>
      </trkpt>
      <trkpt lat="44.43288" lon="6.37494">
        <ele>1396</ele>
        <time>2021-09-01T09:06:57.000Z</time>
      </trkpt>
      <trkpt lat="44.43286" lon="6.37492">
        <ele>1396</ele>
        <time>2021-09-01T09:06:58.000Z</time>
      </trkpt>
      <trkpt lat="44.43285" lon="6.3749">
        <ele>1396</ele>
        <time>2021-09-01T09:06:59.000Z</time>
      </trkpt>
      <trkpt lat="44.43283" lon="6.37488">
        <ele>1396</ele>
        <time>2021-09-01T09:07:00.000Z</time>
      </trkpt>
      <trkpt lat="44.43281" lon="6.37487">
        <ele>1395</ele>
        <time>2021-09-01T09:07:01.000Z</time>
      </trkpt>
      <trkpt lat="44.43279" lon="6.37485">
        <ele>1395</ele>
        <time>2021-09-01T09:07:02.000Z</time>
      </trkpt>
      <trkpt lat="44.43278" lon="6.37484">
        <ele>1395</ele>
        <time>2021-09-01T09:07:03.000Z</time>
      </trkpt>
      <trkpt lat="44.43276" lon="6.37482">
        <ele>1395</ele>
        <time>2021-09-01T09:07:04.000Z</time>
      </trkpt>
      <trkpt lat="44.43275" lon="6.3748">
        <ele>1395</ele>
        <time>2021-09-01T09:07:05.000Z</time>
      </trkpt>
      <trkpt lat="44.43273" lon="6.37478">
        <ele>1396</ele>
        <time>2021-09-01T09:07:06.000Z</time>
      </trkpt>
      <trkpt lat="44.43272" lon="6.37477">
        <ele>1396</ele>
        <time>2021-09-01T09:07:07.000Z</time>
      </trkpt>
      <trkpt lat="44.4327" lon="6.37476">
        <ele>1396</ele>
        <time>2021-09-01T09:07:08.000Z</time>
      </trkpt>
      <trkpt lat="44.43269" lon="6.37475">
        <ele>1396</ele>
        <time>2021-09-01T09:07:09.000Z</time>
      </trkpt>
      <trkpt lat="44.43268" lon="6.37473">
        <ele>1395</ele>
        <time>2021-09-01T09:07:10.000Z</time>
      </trkpt>
      <trkpt lat="44.43266" lon="6.37472">
        <ele>1396</ele>
        <time>2021-09-01T09:07:11.000Z</time>
      </trkpt>
      <trkpt lat="44.43264" lon="6.37471">
        <ele>1396</ele>
        <time>2021-09-01T09:07:12.000Z</time>
      </trkpt>
      <trkpt lat="44.43262" lon="6.37472">
        <ele>1396</ele>
        <time>2021-09-01T09:07:13.000Z</time>
      </trkpt>
      <trkpt lat="44.43259" lon="6.37473">
        <ele>1397</ele>
        <time>2021-09-01T09:07:14.000Z</time>
      </trkpt>
      <trkpt lat="44.43258" lon="6.37474">
        <ele>1399</ele>
        <time>2021-09-01T09:07:15.000Z</time>
      </trkpt>
      <trkpt lat="44.43256" lon="6.37475">
        <ele>1400</ele>
        <time>2021-09-01T09:07:16.000Z</time>
      </trkpt>
      <trkpt lat="44.43254" lon="6.37475">
        <ele>1401</ele>
        <time>2021-09-01T09:07:17.000Z</time>
      </trkpt>
      <trkpt lat="44.43252" lon="6.37476">
        <ele>1401</ele>
        <time>2021-09-01T09:07:18.000Z</time>
      </trkpt>
      <trkpt lat="44.4325" lon="6.37477">
        <ele>1402</ele>
        <time>2021-09-01T09:07:19.000Z</time>
      </trkpt>
      <trkpt lat="44.43248" lon="6.37478">
        <ele>1402</ele>
        <time>2021-09-01T09:07:20.000Z</time>
      </trkpt>
      <trkpt lat="44.43246" lon="6.37479">
        <ele>1402</ele>
        <time>2021-09-01T09:07:21.000Z</time>
      </trkpt>
      <trkpt lat="44.43245" lon="6.37481">
        <ele>1402</ele>
        <time>2021-09-01T09:07:22.000Z</time>
      </trkpt>
      <trkpt lat="44.43243" lon="6.37481">
        <ele>1402</ele>
        <time>2021-09-01T09:07:23.000Z</time>
      </trkpt>
      <trkpt lat="44.43241" lon="6.37482">
        <ele>1404</ele>
        <time>2021-09-01T09:07:24.000Z</time>
      </trkpt>
      <trkpt lat="44.4324" lon="6.37483">
        <ele>1405</ele>
        <time>2021-09-01T09:07:25.000Z</time>
      </trkpt>
      <trkpt lat="44.43238" lon="6.37484">
        <ele>1406</ele>
        <time>2021-09-01T09:07:26.000Z</time>
      </trkpt>
      <trkpt lat="44.43236" lon="6.37486">
        <ele>1406</ele>
        <time>2021-09-01T09:07:27.000Z</time>
      </trkpt>
      <trkpt lat="44.43234" lon="6.37487">
        <ele>1406</ele>
        <time>2021-09-01T09:07:28.000Z</time>
      </trkpt>
      <trkpt lat="44.43233" lon="6.37488">
        <ele>1406</ele>
        <time>2021-09-01T09:07:29.000Z</time>
      </trkpt>
      <trkpt lat="44.43231" lon="6.37489">
        <ele>1406</ele>
        <time>2021-09-01T09:07:30.000Z</time>
      </trkpt>
      <trkpt lat="44.4323" lon="6.3749">
        <ele>1407</ele>
        <time>2021-09-01T09:07:31.000Z</time>
      </trkpt>
      <trkpt lat="44.43228" lon="6.37491">
        <ele>1408</ele>
        <time>2021-09-01T09:07:32.000Z</time>
      </trkpt>
      <trkpt lat="44.43226" lon="6.37493">
        <ele>1408</ele>
        <time>2021-09-01T09:07:33.000Z</time>
      </trkpt>
      <trkpt lat="44.43224" lon="6.37493">
        <ele>1409</ele>
        <time>2021-09-01T09:07:34.000Z</time>
      </trkpt>
      <trkpt lat="44.43222" lon="6.37494">
        <ele>1409</ele>
        <time>2021-09-01T09:07:35.000Z</time>
      </trkpt>
      <trkpt lat="44.4322" lon="6.37495">
        <ele>1410</ele>
        <time>2021-09-01T09:07:36.000Z</time>
      </trkpt>
      <trkpt lat="44.43218" lon="6.37495">
        <ele>1410</ele>
        <time>2021-09-01T09:07:37.000Z</time>
      </trkpt>
      <trkpt lat="44.43215" lon="6.37495">
        <ele>1410</ele>
        <time>2021-09-01T09:07:38.000Z</time>
      </trkpt>
      <trkpt lat="44.43213" lon="6.37495">
        <ele>1410</ele>
        <time>2021-09-01T09:07:39.000Z</time>
      </trkpt>
      <trkpt lat="44.43212" lon="6.37495">
        <ele>1411</ele>
        <time>2021-09-01T09:07:40.000Z</time>
      </trkpt>
      <trkpt lat="44.43211" lon="6.37495">
        <ele>1411</ele>
        <time>2021-09-01T09:07:41.000Z</time>
      </trkpt>
      <trkpt lat="44.43209" lon="6.37494">
        <ele>1411</ele>
        <time>2021-09-01T09:07:42.000Z</time>
      </trkpt>
      <trkpt lat="44.43207" lon="6.37494">
        <ele>1410</ele>
        <time>2021-09-01T09:07:43.000Z</time>
      </trkpt>
      <trkpt lat="44.43205" lon="6.37493">
        <ele>1410</ele>
        <time>2021-09-01T09:07:44.000Z</time>
      </trkpt>
      <trkpt lat="44.43204" lon="6.37492">
        <ele>1410</ele>
        <time>2021-09-01T09:07:45.000Z</time>
      </trkpt>
      <trkpt lat="44.43202" lon="6.37491">
        <ele>1410</ele>
        <time>2021-09-01T09:07:46.000Z</time>
      </trkpt>
      <trkpt lat="44.43199" lon="6.37488">
        <ele>1409</ele>
        <time>2021-09-01T09:07:47.000Z</time>
      </trkpt>
      <trkpt lat="44.43198" lon="6.37487">
        <ele>1409</ele>
        <time>2021-09-01T09:07:48.000Z</time>
      </trkpt>
      <trkpt lat="44.43196" lon="6.37486">
        <ele>1408</ele>
        <time>2021-09-01T09:07:49.000Z</time>
      </trkpt>
      <trkpt lat="44.43194" lon="6.37485">
        <ele>1408</ele>
        <time>2021-09-01T09:07:50.000Z</time>
      </trkpt>
      <trkpt lat="44.43192" lon="6.37484">
        <ele>1407</ele>
        <time>2021-09-01T09:07:51.000Z</time>
      </trkpt>
      <trkpt lat="44.4319" lon="6.37483">
        <ele>1407</ele>
        <time>2021-09-01T09:07:52.000Z</time>
      </trkpt>
      <trkpt lat="44.43188" lon="6.37482">
        <ele>1407</ele>
        <time>2021-09-01T09:07:53.000Z</time>
      </trkpt>
      <trkpt lat="44.43186" lon="6.37481">
        <ele>1407</ele>
        <time>2021-09-01T09:07:54.000Z</time>
      </trkpt>
      <trkpt lat="44.43184" lon="6.3748">
        <ele>1408</ele>
        <time>2021-09-01T09:07:55.000Z</time>
      </trkpt>
      <trkpt lat="44.43182" lon="6.37479">
        <ele>1408</ele>
        <time>2021-09-01T09:07:56.000Z</time>
      </trkpt>
      <trkpt lat="44.43181" lon="6.37478">
        <ele>1408</ele>
        <time>2021-09-01T09:07:57.000Z</time>
      </trkpt>
      <trkpt lat="44.4318" lon="6.37476">
        <ele>1408</ele>
        <time>2021-09-01T09:07:58.000Z</time>
      </trkpt>
      <trkpt lat="44.43178" lon="6.37475">
        <ele>1409</ele>
        <time>2021-09-01T09:07:59.000Z</time>
      </trkpt>
      <trkpt lat="44.43176" lon="6.37473">
        <ele>1410</ele>
        <time>2021-09-01T09:08:00.000Z</time>
      </trkpt>
      <trkpt lat="44.43175" lon="6.37471">
        <ele>1410</ele>
        <time>2021-09-01T09:08:01.000Z</time>
      </trkpt>
      <trkpt lat="44.43174" lon="6.37468">
        <ele>1411</ele>
        <time>2021-09-01T09:08:02.000Z</time>
      </trkpt>
      <trkpt lat="44.43172" lon="6.37465">
        <ele>1413</ele>
        <time>2021-09-01T09:08:03.000Z</time>
      </trkpt>
      <trkpt lat="44.43171" lon="6.37463">
        <ele>1413</ele>
        <time>2021-09-01T09:08:04.000Z</time>
      </trkpt>
      <trkpt lat="44.43169" lon="6.3746">
        <ele>1414</ele>
        <time>2021-09-01T09:08:05.000Z</time>
      </trkpt>
      <trkpt lat="44.43167" lon="6.37458">
        <ele>1415</ele>
        <time>2021-09-01T09:08:06.000Z</time>
      </trkpt>
      <trkpt lat="44.43166" lon="6.37456">
        <ele>1415</ele>
        <time>2021-09-01T09:08:07.000Z</time>
      </trkpt>
      <trkpt lat="44.43164" lon="6.37454">
        <ele>1415</ele>
        <time>2021-09-01T09:08:08.000Z</time>
      </trkpt>
      <trkpt lat="44.43162" lon="6.37452">
        <ele>1416</ele>
        <time>2021-09-01T09:08:09.000Z</time>
      </trkpt>
      <trkpt lat="44.4316" lon="6.37451">
        <ele>1417</ele>
        <time>2021-09-01T09:08:10.000Z</time>
      </trkpt>
      <trkpt lat="44.43159" lon="6.37449">
        <ele>1417</ele>
        <time>2021-09-01T09:08:11.000Z</time>
      </trkpt>
      <trkpt lat="44.43158" lon="6.37447">
        <ele>1418</ele>
        <time>2021-09-01T09:08:12.000Z</time>
      </trkpt>
      <trkpt lat="44.43157" lon="6.37445">
        <ele>1418</ele>
        <time>2021-09-01T09:08:13.000Z</time>
      </trkpt>
      <trkpt lat="44.43155" lon="6.37444">
        <ele>1418</ele>
        <time>2021-09-01T09:08:14.000Z</time>
      </trkpt>
      <trkpt lat="44.43154" lon="6.37441">
        <ele>1419</ele>
        <time>2021-09-01T09:08:15.000Z</time>
      </trkpt>
      <trkpt lat="44.43153" lon="6.3744">
        <ele>1421</ele>
        <time>2021-09-01T09:08:16.000Z</time>
      </trkpt>
      <trkpt lat="44.43151" lon="6.37438">
        <ele>1422</ele>
        <time>2021-09-01T09:08:17.000Z</time>
      </trkpt>
      <trkpt lat="44.4315" lon="6.37437">
        <ele>1422</ele>
        <time>2021-09-01T09:08:18.000Z</time>
      </trkpt>
      <trkpt lat="44.43149" lon="6.37435">
        <ele>1422</ele>
        <time>2021-09-01T09:08:19.000Z</time>
      </trkpt>
      <trkpt lat="44.43149" lon="6.37433">
        <ele>1422</ele>
        <time>2021-09-01T09:08:20.000Z</time>
      </trkpt>
      <trkpt lat="44.43148" lon="6.37432">
        <ele>1422</ele>
        <time>2021-09-01T09:08:21.000Z</time>
      </trkpt>
      <trkpt lat="44.43146" lon="6.37429">
        <ele>1422</ele>
        <time>2021-09-01T09:08:22.000Z</time>
      </trkpt>
      <trkpt lat="44.43145" lon="6.37427">
        <ele>1422</ele>
        <time>2021-09-01T09:08:23.000Z</time>
      </trkpt>
      <trkpt lat="44.43143" lon="6.37424">
        <ele>1422</ele>
        <time>2021-09-01T09:08:24.000Z</time>
      </trkpt>
      <trkpt lat="44.43142" lon="6.37422">
        <ele>1423</ele>
        <time>2021-09-01T09:08:25.000Z</time>
      </trkpt>
      <trkpt lat="44.43141" lon="6.3742">
        <ele>1423</ele>
        <time>2021-09-01T09:08:26.000Z</time>
      </trkpt>
      <trkpt lat="44.4314" lon="6.37417">
        <ele>1424</ele>
        <time>2021-09-01T09:08:27.000Z</time>
      </trkpt>
      <trkpt lat="44.43138" lon="6.37413">
        <ele>1425</ele>
        <time>2021-09-01T09:08:28.000Z</time>
      </trkpt>
      <trkpt lat="44.43137" lon="6.37411">
        <ele>1425</ele>
        <time>2021-09-01T09:08:29.000Z</time>
      </trkpt>
      <trkpt lat="44.43136" lon="6.37409">
        <ele>1424</ele>
        <time>2021-09-01T09:08:30.000Z</time>
      </trkpt>
      <trkpt lat="44.43135" lon="6.37406">
        <ele>1425</ele>
        <time>2021-09-01T09:08:31.000Z</time>
      </trkpt>
      <trkpt lat="44.43134" lon="6.37404">
        <ele>1424</ele>
        <time>2021-09-01T09:08:32.000Z</time>
      </trkpt>
      <trkpt lat="44.43133" lon="6.37401">
        <ele>1425</ele>
        <time>2021-09-01T09:08:33.000Z</time>
      </trkpt>
      <trkpt lat="44.43132" lon="6.37399">
        <ele>1425</ele>
        <time>2021-09-01T09:08:34.000Z</time>
      </trkpt>
      <trkpt lat="44.43132" lon="6.37396">
        <ele>1426</ele>
        <time>2021-09-01T09:08:35.000Z</time>
      </trkpt>
      <trkpt lat="44.43131" lon="6.37393">
        <ele>1428</ele>
        <time>2021-09-01T09:08:36.000Z</time>
      </trkpt>
      <trkpt lat="44.4313" lon="6.3739">
        <ele>1428</ele>
        <time>2021-09-01T09:08:37.000Z</time>
      </trkpt>
      <trkpt lat="44.43128" lon="6.37388">
        <ele>1428</ele>
        <time>2021-09-01T09:08:38.000Z</time>
      </trkpt>
      <trkpt lat="44.43127" lon="6.37385">
        <ele>1428</ele>
        <time>2021-09-01T09:08:39.000Z</time>
      </trkpt>
      <trkpt lat="44.43125" lon="6.37384">
        <ele>1427</ele>
        <time>2021-09-01T09:08:40.000Z</time>
      </trkpt>
      <trkpt lat="44.43123" lon="6.37382">
        <ele>1426</ele>
        <time>2021-09-01T09:08:41.000Z</time>
      </trkpt>
      <trkpt lat="44.43122" lon="6.3738">
        <ele>1425</ele>
        <time>2021-09-01T09:08:42.000Z</time>
      </trkpt>
      <trkpt lat="44.4312" lon="6.37378">
        <ele>1424</ele>
        <time>2021-09-01T09:08:43.000Z</time>
      </trkpt>
      <trkpt lat="44.43119" lon="6.37375">
        <ele>1424</ele>
        <time>2021-09-01T09:08:44.000Z</time>
      </trkpt>
      <trkpt lat="44.43117" lon="6.37373">
        <ele>1423</ele>
        <time>2021-09-01T09:08:45.000Z</time>
      </trkpt>
      <trkpt lat="44.43116" lon="6.37372">
        <ele>1423</ele>
        <time>2021-09-01T09:08:46.000Z</time>
      </trkpt>
      <trkpt lat="44.43114" lon="6.37371">
        <ele>1423</ele>
        <time>2021-09-01T09:08:47.000Z</time>
      </trkpt>
      <trkpt lat="44.43113" lon="6.3737">
        <ele>1424</ele>
        <time>2021-09-01T09:08:48.000Z</time>
      </trkpt>
      <trkpt lat="44.43112" lon="6.37368">
        <ele>1423</ele>
        <time>2021-09-01T09:08:49.000Z</time>
      </trkpt>
      <trkpt lat="44.4311" lon="6.37367">
        <ele>1423</ele>
        <time>2021-09-01T09:08:50.000Z</time>
      </trkpt>
      <trkpt lat="44.43109" lon="6.37364">
        <ele>1423</ele>
        <time>2021-09-01T09:08:51.000Z</time>
      </trkpt>
      <trkpt lat="44.43108" lon="6.37362">
        <ele>1424</ele>
        <time>2021-09-01T09:08:52.000Z</time>
      </trkpt>
      <trkpt lat="44.43105" lon="6.3736">
        <ele>1427</ele>
        <time>2021-09-01T09:08:53.000Z</time>
      </trkpt>
      <trkpt lat="44.43104" lon="6.37358">
        <ele>1427</ele>
        <time>2021-09-01T09:08:54.000Z</time>
      </trkpt>
      <trkpt lat="44.43102" lon="6.37357">
        <ele>1428</ele>
        <time>2021-09-01T09:08:55.000Z</time>
      </trkpt>
      <trkpt lat="44.43101" lon="6.37355">
        <ele>1428</ele>
        <time>2021-09-01T09:08:56.000Z</time>
      </trkpt>
      <trkpt lat="44.43099" lon="6.37353">
        <ele>1428</ele>
        <time>2021-09-01T09:08:57.000Z</time>
      </trkpt>
      <trkpt lat="44.43098" lon="6.37352">
        <ele>1429</ele>
        <time>2021-09-01T09:08:58.000Z</time>
      </trkpt>
      <trkpt lat="44.43096" lon="6.3735">
        <ele>1430</ele>
        <time>2021-09-01T09:08:59.000Z</time>
      </trkpt>
      <trkpt lat="44.43095" lon="6.37348">
        <ele>1430</ele>
        <time>2021-09-01T09:09:00.000Z</time>
      </trkpt>
      <trkpt lat="44.43093" lon="6.37346">
        <ele>1431</ele>
        <time>2021-09-01T09:09:01.000Z</time>
      </trkpt>
      <trkpt lat="44.43092" lon="6.37345">
        <ele>1432</ele>
        <time>2021-09-01T09:09:02.000Z</time>
      </trkpt>
      <trkpt lat="44.4309" lon="6.37343">
        <ele>1433</ele>
        <time>2021-09-01T09:09:03.000Z</time>
      </trkpt>
      <trkpt lat="44.43089" lon="6.37342">
        <ele>1434</ele>
        <time>2021-09-01T09:09:04.000Z</time>
      </trkpt>
      <trkpt lat="44.43088" lon="6.3734">
        <ele>1434</ele>
        <time>2021-09-01T09:09:05.000Z</time>
      </trkpt>
      <trkpt lat="44.43086" lon="6.37338">
        <ele>1434</ele>
        <time>2021-09-01T09:09:06.000Z</time>
      </trkpt>
      <trkpt lat="44.43085" lon="6.37336">
        <ele>1434</ele>
        <time>2021-09-01T09:09:07.000Z</time>
      </trkpt>
      <trkpt lat="44.43084" lon="6.37334">
        <ele>1435</ele>
        <time>2021-09-01T09:09:08.000Z</time>
      </trkpt>
      <trkpt lat="44.43083" lon="6.37332">
        <ele>1435</ele>
        <time>2021-09-01T09:09:09.000Z</time>
      </trkpt>
      <trkpt lat="44.43082" lon="6.37329">
        <ele>1436</ele>
        <time>2021-09-01T09:09:10.000Z</time>
      </trkpt>
      <trkpt lat="44.43081" lon="6.37328">
        <ele>1437</ele>
        <time>2021-09-01T09:09:11.000Z</time>
      </trkpt>
      <trkpt lat="44.43079" lon="6.37325">
        <ele>1437</ele>
        <time>2021-09-01T09:09:12.000Z</time>
      </trkpt>
      <trkpt lat="44.43078" lon="6.37323">
        <ele>1437</ele>
        <time>2021-09-01T09:09:13.000Z</time>
      </trkpt>
      <trkpt lat="44.43076" lon="6.3732">
        <ele>1437</ele>
        <time>2021-09-01T09:09:14.000Z</time>
      </trkpt>
      <trkpt lat="44.43075" lon="6.37317">
        <ele>1438</ele>
        <time>2021-09-01T09:09:15.000Z</time>
      </trkpt>
      <trkpt lat="44.43074" lon="6.37315">
        <ele>1438</ele>
        <time>2021-09-01T09:09:16.000Z</time>
      </trkpt>
      <trkpt lat="44.43073" lon="6.37312">
        <ele>1437</ele>
        <time>2021-09-01T09:09:17.000Z</time>
      </trkpt>
      <trkpt lat="44.43071" lon="6.3731">
        <ele>1437</ele>
        <time>2021-09-01T09:09:18.000Z</time>
      </trkpt>
      <trkpt lat="44.4307" lon="6.37308">
        <ele>1437</ele>
        <time>2021-09-01T09:09:19.000Z</time>
      </trkpt>
      <trkpt lat="44.43069" lon="6.37306">
        <ele>1437</ele>
        <time>2021-09-01T09:09:20.000Z</time>
      </trkpt>
      <trkpt lat="44.43068" lon="6.37305">
        <ele>1437</ele>
        <time>2021-09-01T09:09:21.000Z</time>
      </trkpt>
      <trkpt lat="44.43067" lon="6.37304">
        <ele>1437</ele>
        <time>2021-09-01T09:09:22.000Z</time>
      </trkpt>
      <trkpt lat="44.43067" lon="6.37302">
        <ele>1439</ele>
        <time>2021-09-01T09:09:23.000Z</time>
      </trkpt>
      <trkpt lat="44.43066" lon="6.37301">
        <ele>1439</ele>
        <time>2021-09-01T09:09:24.000Z</time>
      </trkpt>
      <trkpt lat="44.43066" lon="6.373">
        <ele>1439</ele>
        <time>2021-09-01T09:09:25.000Z</time>
      </trkpt>
      <trkpt lat="44.43066" lon="6.373">
        <ele>1438</ele>
        <time>2021-09-01T09:09:26.000Z</time>
      </trkpt>
      <trkpt lat="44.43065" lon="6.373">
        <ele>1437</ele>
        <time>2021-09-01T09:09:27.000Z</time>
      </trkpt>
      <trkpt lat="44.43065" lon="6.373">
        <ele>1437</ele>
        <time>2021-09-01T09:09:28.000Z</time>
      </trkpt>
      <trkpt lat="44.43065" lon="6.373">
        <ele>1437</ele>
        <time>2021-09-01T09:09:29.000Z</time>
      </trkpt>
      <trkpt lat="44.43065" lon="6.373">
        <ele>1436</ele>
        <time>2021-09-01T09:09:30.000Z</time>
      </trkpt>
      <trkpt lat="44.43065" lon="6.373">
        <ele>1436</ele>
        <time>2021-09-01T09:09:31.000Z</time>
      </trkpt>
      <trkpt lat="44.43065" lon="6.373">
        <ele>1436</ele>
        <time>2021-09-01T09:09:32.000Z</time>
      </trkpt>
      <trkpt lat="44.43065" lon="6.373">
        <ele>1436</ele>
        <time>2021-09-01T09:09:33.000Z</time>
      </trkpt>
      <trkpt lat="44.43065" lon="6.373">
        <ele>1436</ele>
        <time>2021-09-01T09:09:34.000Z</time>
      </trkpt>
      <trkpt lat="44.43065" lon="6.373">
        <ele>1436</ele>
        <time>2021-09-01T09:09:35.000Z</time>
      </trkpt>
      <trkpt lat="44.43065" lon="6.373">
        <ele>1435</ele>
        <time>2021-09-01T09:09:36.000Z</time>
      </trkpt>
      <trkpt lat="44.43065" lon="6.373">
        <ele>1435</ele>
        <time>2021-09-01T09:09:37.000Z</time>
      </trkpt>
      <trkpt lat="44.43065" lon="6.37299">
        <ele>1435</ele>
        <time>2021-09-01T09:09:38.000Z</time>
      </trkpt>
      <trkpt lat="44.43065" lon="6.37299">
        <ele>1435</ele>
        <time>2021-09-01T09:09:39.000Z</time>
      </trkpt>
      <trkpt lat="44.43065" lon="6.37299">
        <ele>1436</ele>
        <time>2021-09-01T09:09:40.000Z</time>
      </trkpt>
      <trkpt lat="44.43065" lon="6.37299">
        <ele>1436</ele>
        <time>2021-09-01T09:09:41.000Z</time>
      </trkpt>
      <trkpt lat="44.43065" lon="6.37299">
        <ele>1436</ele>
        <time>2021-09-01T09:09:42.000Z</time>
      </trkpt>
      <trkpt lat="44.43065" lon="6.37299">
        <ele>1436</ele>
        <time>2021-09-01T09:09:43.000Z</time>
      </trkpt>
      <trkpt lat="44.43065" lon="6.37299">
        <ele>1436</ele>
        <time>2021-09-01T09:09:44.000Z</time>
      </trkpt>
      <trkpt lat="44.43065" lon="6.37299">
        <ele>1436</ele>
        <time>2021-09-01T09:09:45.000Z</time>
      </trkpt>
      <trkpt lat="44.43065" lon="6.37298">
        <ele>1435</ele>
        <time>2021-09-01T09:09:46.000Z</time>
      </trkpt>
      <trkpt lat="44.43065" lon="6.37298">
        <ele>1435</ele>
        <time>2021-09-01T09:09:47.000Z</time>
      </trkpt>
      <trkpt lat="44.43066" lon="6.37298">
        <ele>1435</ele>
        <time>2021-09-01T09:09:48.000Z</time>
      </trkpt>
      <trkpt lat="44.43066" lon="6.37298">
        <ele>1435</ele>
        <time>2021-09-01T09:09:49.000Z</time>
      </trkpt>
      <trkpt lat="44.43065" lon="6.37298">
        <ele>1434</ele>
        <time>2021-09-01T09:09:50.000Z</time>
      </trkpt>
      <trkpt lat="44.43065" lon="6.37298">
        <ele>1433</ele>
        <time>2021-09-01T09:09:51.000Z</time>
      </trkpt>
      <trkpt lat="44.43065" lon="6.37298">
        <ele>1433</ele>
        <time>2021-09-01T09:09:52.000Z</time>
      </trkpt>
      <trkpt lat="44.43065" lon="6.37298">
        <ele>1432</ele>
        <time>2021-09-01T09:09:53.000Z</time>
      </trkpt>
      <trkpt lat="44.43066" lon="6.37298">
        <ele>1432</ele>
        <time>2021-09-01T09:09:54.000Z</time>
      </trkpt>
      <trkpt lat="44.43066" lon="6.37298">
        <ele>1431</ele>
        <time>2021-09-01T09:09:55.000Z</time>
      </trkpt>
      <trkpt lat="44.43066" lon="6.37298">
        <ele>1431</ele>
        <time>2021-09-01T09:09:56.000Z</time>
      </trkpt>
      <trkpt lat="44.43066" lon="6.37298">
        <ele>1430</ele>
        <time>2021-09-01T09:09:57.000Z</time>
      </trkpt>
      <trkpt lat="44.43066" lon="6.37298">
        <ele>1430</ele>
        <time>2021-09-01T09:09:58.000Z</time>
      </trkpt>
      <trkpt lat="44.43066" lon="6.37298">
        <ele>1429</ele>
        <time>2021-09-01T09:09:59.000Z</time>
      </trkpt>
      <trkpt lat="44.43066" lon="6.37298">
        <ele>1429</ele>
        <time>2021-09-01T09:10:00.000Z</time>
      </trkpt>
      <trkpt lat="44.43067" lon="6.37298">
        <ele>1429</ele>
        <time>2021-09-01T09:10:01.000Z</time>
      </trkpt>
      <trkpt lat="44.43067" lon="6.37298">
        <ele>1429</ele>
        <time>2021-09-01T09:10:02.000Z</time>
      </trkpt>
      <trkpt lat="44.43067" lon="6.37298">
        <ele>1429</ele>
        <time>2021-09-01T09:10:03.000Z</time>
      </trkpt>
      <trkpt lat="44.43067" lon="6.37298">
        <ele>1429</ele>
        <time>2021-09-01T09:10:04.000Z</time>
      </trkpt>
      <trkpt lat="44.43067" lon="6.37298">
        <ele>1429</ele>
        <time>2021-09-01T09:10:05.000Z</time>
      </trkpt>
      <trkpt lat="44.43068" lon="6.37298">
        <ele>1429</ele>
        <time>2021-09-01T09:10:06.000Z</time>
      </trkpt>
      <trkpt lat="44.43068" lon="6.37298">
        <ele>1430</ele>
        <time>2021-09-01T09:10:07.000Z</time>
      </trkpt>
      <trkpt lat="44.43068" lon="6.37298">
        <ele>1430</ele>
        <time>2021-09-01T09:10:08.000Z</time>
      </trkpt>
      <trkpt lat="44.43068" lon="6.37298">
        <ele>1430</ele>
        <time>2021-09-01T09:10:09.000Z</time>
      </trkpt>
      <trkpt lat="44.43068" lon="6.37299">
        <ele>1430</ele>
        <time>2021-09-01T09:10:10.000Z</time>
      </trkpt>
      <trkpt lat="44.43068" lon="6.37299">
        <ele>1430</ele>
        <time>2021-09-01T09:10:11.000Z</time>
      </trkpt>
      <trkpt lat="44.43068" lon="6.37299">
        <ele>1430</ele>
        <time>2021-09-01T09:10:12.000Z</time>
      </trkpt>
      <trkpt lat="44.43068" lon="6.37299">
        <ele>1430</ele>
        <time>2021-09-01T09:10:13.000Z</time>
      </trkpt>
      <trkpt lat="44.43068" lon="6.37299">
        <ele>1430</ele>
        <time>2021-09-01T09:10:14.000Z</time>
      </trkpt>
      <trkpt lat="44.43068" lon="6.37299">
        <ele>1431</ele>
        <time>2021-09-01T09:10:15.000Z</time>
      </trkpt>
      <trkpt lat="44.43068" lon="6.37299">
        <ele>1430</ele>
        <time>2021-09-01T09:10:16.000Z</time>
      </trkpt>
      <trkpt lat="44.43068" lon="6.37299">
        <ele>1430</ele>
        <time>2021-09-01T09:10:17.000Z</time>
      </trkpt>
      <trkpt lat="44.43067" lon="6.37299">
        <ele>1430</ele>
        <time>2021-09-01T09:10:18.000Z</time>
      </trkpt>
      <trkpt lat="44.43067" lon="6.37299">
        <ele>1430</ele>
        <time>2021-09-01T09:10:19.000Z</time>
      </trkpt>
      <trkpt lat="44.43067" lon="6.37299">
        <ele>1430</ele>
        <time>2021-09-01T09:10:20.000Z</time>
      </trkpt>
      <trkpt lat="44.43067" lon="6.37299">
        <ele>1430</ele>
        <time>2021-09-01T09:10:21.000Z</time>
      </trkpt>
      <trkpt lat="44.43067" lon="6.37299">
        <ele>1430</ele>
        <time>2021-09-01T09:10:22.000Z</time>
      </trkpt>
      <trkpt lat="44.43067" lon="6.37299">
        <ele>1430</ele>
        <time>2021-09-01T09:10:23.000Z</time>
      </trkpt>
      <trkpt lat="44.43067" lon="6.37299">
        <ele>1430</ele>
        <time>2021-09-01T09:10:24.000Z</time>
      </trkpt>
      <trkpt lat="44.43067" lon="6.37299">
        <ele>1430</ele>
        <time>2021-09-01T09:10:25.000Z</time>
      </trkpt>
      <trkpt lat="44.43067" lon="6.373">
        <ele>1431</ele>
        <time>2021-09-01T09:10:26.000Z</time>
      </trkpt>
      <trkpt lat="44.43067" lon="6.373">
        <ele>1431</ele>
        <time>2021-09-01T09:10:27.000Z</time>
      </trkpt>
      <trkpt lat="44.43067" lon="6.37299">
        <ele>1431</ele>
        <time>2021-09-01T09:10:28.000Z</time>
      </trkpt>
      <trkpt lat="44.43067" lon="6.37299">
        <ele>1432</ele>
        <time>2021-09-01T09:10:29.000Z</time>
      </trkpt>
      <trkpt lat="44.43066" lon="6.37299">
        <ele>1432</ele>
        <time>2021-09-01T09:10:30.000Z</time>
      </trkpt>
      <trkpt lat="44.43066" lon="6.37299">
        <ele>1432</ele>
        <time>2021-09-01T09:10:31.000Z</time>
      </trkpt>
      <trkpt lat="44.43066" lon="6.37299">
        <ele>1433</ele>
        <time>2021-09-01T09:10:32.000Z</time>
      </trkpt>
      <trkpt lat="44.43066" lon="6.37299">
        <ele>1433</ele>
        <time>2021-09-01T09:10:33.000Z</time>
      </trkpt>
      <trkpt lat="44.43066" lon="6.37299">
        <ele>1433</ele>
        <time>2021-09-01T09:10:34.000Z</time>
      </trkpt>
      <trkpt lat="44.43066" lon="6.37299">
        <ele>1433</ele>
        <time>2021-09-01T09:10:35.000Z</time>
      </trkpt>
      <trkpt lat="44.43066" lon="6.37299">
        <ele>1433</ele>
        <time>2021-09-01T09:10:36.000Z</time>
      </trkpt>
      <trkpt lat="44.43066" lon="6.37299">
        <ele>1433</ele>
        <time>2021-09-01T09:10:37.000Z</time>
      </trkpt>
      <trkpt lat="44.43066" lon="6.37299">
        <ele>1433</ele>
        <time>2021-09-01T09:10:38.000Z</time>
      </trkpt>
      <trkpt lat="44.43066" lon="6.37299">
        <ele>1432</ele>
        <time>2021-09-01T09:10:39.000Z</time>
      </trkpt>
      <trkpt lat="44.43066" lon="6.37299">
        <ele>1432</ele>
        <time>2021-09-01T09:10:40.000Z</time>
      </trkpt>
      <trkpt lat="44.43066" lon="6.37299">
        <ele>1432</ele>
        <time>2021-09-01T09:10:41.000Z</time>
      </trkpt>
      <trkpt lat="44.43065" lon="6.37299">
        <ele>1432</ele>
        <time>2021-09-01T09:10:42.000Z</time>
      </trkpt>
      <trkpt lat="44.43065" lon="6.37298">
        <ele>1432</ele>
        <time>2021-09-01T09:10:43.000Z</time>
      </trkpt>
      <trkpt lat="44.43065" lon="6.37298">
        <ele>1432</ele>
        <time>2021-09-01T09:10:44.000Z</time>
      </trkpt>
      <trkpt lat="44.43065" lon="6.37299">
        <ele>1432</ele>
        <time>2021-09-01T09:10:45.000Z</time>
      </trkpt>
      <trkpt lat="44.43065" lon="6.37298">
        <ele>1432</ele>
        <time>2021-09-01T09:10:46.000Z</time>
      </trkpt>
      <trkpt lat="44.43065" lon="6.37298">
        <ele>1432</ele>
        <time>2021-09-01T09:10:47.000Z</time>
      </trkpt>
      <trkpt lat="44.43065" lon="6.37299">
        <ele>1432</ele>
        <time>2021-09-01T09:10:48.000Z</time>
      </trkpt>
      <trkpt lat="44.43065" lon="6.37299">
        <ele>1433</ele>
        <time>2021-09-01T09:10:49.000Z</time>
      </trkpt>
      <trkpt lat="44.43065" lon="6.37299">
        <ele>1433</ele>
        <time>2021-09-01T09:10:50.000Z</time>
      </trkpt>
      <trkpt lat="44.43065" lon="6.37298">
        <ele>1433</ele>
        <time>2021-09-01T09:10:51.000Z</time>
      </trkpt>
      <trkpt lat="44.43065" lon="6.37298">
        <ele>1434</ele>
        <time>2021-09-01T09:10:52.000Z</time>
      </trkpt>
      <trkpt lat="44.43065" lon="6.37298">
        <ele>1434</ele>
        <time>2021-09-01T09:10:53.000Z</time>
      </trkpt>
      <trkpt lat="44.43065" lon="6.37298">
        <ele>1434</ele>
        <time>2021-09-01T09:10:54.000Z</time>
      </trkpt>
      <trkpt lat="44.43065" lon="6.37298">
        <ele>1434</ele>
        <time>2021-09-01T09:10:55.000Z</time>
      </trkpt>
      <trkpt lat="44.43065" lon="6.37298">
        <ele>1434</ele>
        <time>2021-09-01T09:10:56.000Z</time>
      </trkpt>
      <trkpt lat="44.43065" lon="6.37298">
        <ele>1434</ele>
        <time>2021-09-01T09:10:57.000Z</time>
      </trkpt>
      <trkpt lat="44.43065" lon="6.37298">
        <ele>1434</ele>
        <time>2021-09-01T09:10:58.000Z</time>
      </trkpt>
      <trkpt lat="44.43065" lon="6.37298">
        <ele>1433</ele>
        <time>2021-09-01T09:10:59.000Z</time>
      </trkpt>
      <trkpt lat="44.43065" lon="6.37298">
        <ele>1433</ele>
        <time>2021-09-01T09:11:00.000Z</time>
      </trkpt>
      <trkpt lat="44.43065" lon="6.37298">
        <ele>1433</ele>
        <time>2021-09-01T09:11:01.000Z</time>
      </trkpt>
      <trkpt lat="44.43065" lon="6.37298">
        <ele>1432</ele>
        <time>2021-09-01T09:11:02.000Z</time>
      </trkpt>
      <trkpt lat="44.43065" lon="6.37298">
        <ele>1432</ele>
        <time>2021-09-01T09:11:03.000Z</time>
      </trkpt>
      <trkpt lat="44.43065" lon="6.37298">
        <ele>1432</ele>
        <time>2021-09-01T09:11:04.000Z</time>
      </trkpt>
      <trkpt lat="44.43064" lon="6.37298">
        <ele>1432</ele>
        <time>2021-09-01T09:11:05.000Z</time>
      </trkpt>
      <trkpt lat="44.43064" lon="6.37298">
        <ele>1432</ele>
        <time>2021-09-01T09:11:06.000Z</time>
      </trkpt>
      <trkpt lat="44.43064" lon="6.37298">
        <ele>1432</ele>
        <time>2021-09-01T09:11:07.000Z</time>
      </trkpt>
      <trkpt lat="44.43064" lon="6.37298">
        <ele>1432</ele>
        <time>2021-09-01T09:11:08.000Z</time>
      </trkpt>
      <trkpt lat="44.43064" lon="6.37298">
        <ele>1432</ele>
        <time>2021-09-01T09:11:09.000Z</time>
      </trkpt>
      <trkpt lat="44.43064" lon="6.37298">
        <ele>1432</ele>
        <time>2021-09-01T09:11:10.000Z</time>
      </trkpt>
      <trkpt lat="44.43064" lon="6.37298">
        <ele>1432</ele>
        <time>2021-09-01T09:11:11.000Z</time>
      </trkpt>
      <trkpt lat="44.43064" lon="6.37298">
        <ele>1432</ele>
        <time>2021-09-01T09:11:12.000Z</time>
      </trkpt>
      <trkpt lat="44.43064" lon="6.37297">
        <ele>1433</ele>
        <time>2021-09-01T09:11:13.000Z</time>
      </trkpt>
      <trkpt lat="44.43064" lon="6.37297">
        <ele>1433</ele>
        <time>2021-09-01T09:11:14.000Z</time>
      </trkpt>
      <trkpt lat="44.43064" lon="6.37297">
        <ele>1433</ele>
        <time>2021-09-01T09:11:15.000Z</time>
      </trkpt>
      <trkpt lat="44.43064" lon="6.37297">
        <ele>1433</ele>
        <time>2021-09-01T09:11:16.000Z</time>
      </trkpt>
      <trkpt lat="44.43064" lon="6.37297">
        <ele>1433</ele>
        <time>2021-09-01T09:11:17.000Z</time>
      </trkpt>
      <trkpt lat="44.43064" lon="6.37297">
        <ele>1433</ele>
        <time>2021-09-01T09:11:18.000Z</time>
      </trkpt>
      <trkpt lat="44.43064" lon="6.37297">
        <ele>1434</ele>
        <time>2021-09-01T09:11:19.000Z</time>
      </trkpt>
      <trkpt lat="44.43064" lon="6.37297">
        <ele>1434</ele>
        <time>2021-09-01T09:11:20.000Z</time>
      </trkpt>
      <trkpt lat="44.43064" lon="6.37297">
        <ele>1434</ele>
        <time>2021-09-01T09:11:21.000Z</time>
      </trkpt>
      <trkpt lat="44.43064" lon="6.37297">
        <ele>1435</ele>
        <time>2021-09-01T09:11:22.000Z</time>
      </trkpt>
      <trkpt lat="44.43064" lon="6.37297">
        <ele>1435</ele>
        <time>2021-09-01T09:11:23.000Z</time>
      </trkpt>
      <trkpt lat="44.43064" lon="6.37297">
        <ele>1436</ele>
        <time>2021-09-01T09:11:24.000Z</time>
      </trkpt>
      <trkpt lat="44.43064" lon="6.37297">
        <ele>1436</ele>
        <time>2021-09-01T09:11:25.000Z</time>
      </trkpt>
      <trkpt lat="44.43064" lon="6.37297">
        <ele>1436</ele>
        <time>2021-09-01T09:11:26.000Z</time>
      </trkpt>
      <trkpt lat="44.43064" lon="6.37296">
        <ele>1436</ele>
        <time>2021-09-01T09:11:27.000Z</time>
      </trkpt>
      <trkpt lat="44.43064" lon="6.37296">
        <ele>1436</ele>
        <time>2021-09-01T09:11:28.000Z</time>
      </trkpt>
      <trkpt lat="44.43064" lon="6.37296">
        <ele>1436</ele>
        <time>2021-09-01T09:11:29.000Z</time>
      </trkpt>
      <trkpt lat="44.43064" lon="6.37296">
        <ele>1436</ele>
        <time>2021-09-01T09:11:30.000Z</time>
      </trkpt>
      <trkpt lat="44.43064" lon="6.37296">
        <ele>1436</ele>
        <time>2021-09-01T09:11:31.000Z</time>
      </trkpt>
      <trkpt lat="44.43064" lon="6.37296">
        <ele>1436</ele>
        <time>2021-09-01T09:11:32.000Z</time>
      </trkpt>
      <trkpt lat="44.43064" lon="6.37296">
        <ele>1436</ele>
        <time>2021-09-01T09:11:33.000Z</time>
      </trkpt>
      <trkpt lat="44.43064" lon="6.37296">
        <ele>1436</ele>
        <time>2021-09-01T09:11:34.000Z</time>
      </trkpt>
      <trkpt lat="44.43064" lon="6.37296">
        <ele>1436</ele>
        <time>2021-09-01T09:11:35.000Z</time>
      </trkpt>
      <trkpt lat="44.43064" lon="6.37296">
        <ele>1436</ele>
        <time>2021-09-01T09:11:36.000Z</time>
      </trkpt>
      <trkpt lat="44.43064" lon="6.37296">
        <ele>1436</ele>
        <time>2021-09-01T09:11:37.000Z</time>
      </trkpt>
      <trkpt lat="44.43064" lon="6.37296">
        <ele>1436</ele>
        <time>2021-09-01T09:11:38.000Z</time>
      </trkpt>
      <trkpt lat="44.43064" lon="6.37296">
        <ele>1436</ele>
        <time>2021-09-01T09:11:39.000Z</time>
      </trkpt>
      <trkpt lat="44.43064" lon="6.37296">
        <ele>1435</ele>
        <time>2021-09-01T09:11:40.000Z</time>
      </trkpt>
      <trkpt lat="44.43064" lon="6.37296">
        <ele>1435</ele>
        <time>2021-09-01T09:11:41.000Z</time>
      </trkpt>
      <trkpt lat="44.43064" lon="6.37296">
        <ele>1435</ele>
        <time>2021-09-01T09:11:42.000Z</time>
      </trkpt>
      <trkpt lat="44.43064" lon="6.37296">
        <ele>1435</ele>
        <time>2021-09-01T09:11:43.000Z</time>
      </trkpt>
      <trkpt lat="44.43064" lon="6.37296">
        <ele>1435</ele>
        <time>2021-09-01T09:11:44.000Z</time>
      </trkpt>
      <trkpt lat="44.43064" lon="6.37296">
        <ele>1435</ele>
        <time>2021-09-01T09:11:45.000Z</time>
      </trkpt>
      <trkpt lat="44.43064" lon="6.37296">
        <ele>1435</ele>
        <time>2021-09-01T09:11:46.000Z</time>
      </trkpt>
      <trkpt lat="44.43064" lon="6.37296">
        <ele>1435</ele>
        <time>2021-09-01T09:11:47.000Z</time>
      </trkpt>
      <trkpt lat="44.43064" lon="6.37296">
        <ele>1435</ele>
        <time>2021-09-01T09:11:48.000Z</time>
      </trkpt>
      <trkpt lat="44.43064" lon="6.37296">
        <ele>1434</ele>
        <time>2021-09-01T09:11:49.000Z</time>
      </trkpt>
      <trkpt lat="44.43064" lon="6.37296">
        <ele>1434</ele>
        <time>2021-09-01T09:11:50.000Z</time>
      </trkpt>
      <trkpt lat="44.43064" lon="6.37296">
        <ele>1434</ele>
        <time>2021-09-01T09:11:51.000Z</time>
      </trkpt>
      <trkpt lat="44.43064" lon="6.37296">
        <ele>1434</ele>
        <time>2021-09-01T09:11:52.000Z</time>
      </trkpt>
      <trkpt lat="44.43064" lon="6.37296">
        <ele>1434</ele>
        <time>2021-09-01T09:11:53.000Z</time>
      </trkpt>
      <trkpt lat="44.43064" lon="6.37296">
        <ele>1434</ele>
        <time>2021-09-01T09:11:54.000Z</time>
      </trkpt>
      <trkpt lat="44.43064" lon="6.37296">
        <ele>1434</ele>
        <time>2021-09-01T09:11:55.000Z</time>
      </trkpt>
      <trkpt lat="44.43064" lon="6.37296">
        <ele>1434</ele>
        <time>2021-09-01T09:11:56.000Z</time>
      </trkpt>
      <trkpt lat="44.43064" lon="6.37296">
        <ele>1434</ele>
        <time>2021-09-01T09:11:57.000Z</time>
      </trkpt>
      <trkpt lat="44.43064" lon="6.37296">
        <ele>1433</ele>
        <time>2021-09-01T09:11:58.000Z</time>
      </trkpt>
      <trkpt lat="44.43064" lon="6.37296">
        <ele>1433</ele>
        <time>2021-09-01T09:11:59.000Z</time>
      </trkpt>
      <trkpt lat="44.43064" lon="6.37296">
        <ele>1433</ele>
        <time>2021-09-01T09:12:00.000Z</time>
      </trkpt>
      <trkpt lat="44.43064" lon="6.37296">
        <ele>1433</ele>
        <time>2021-09-01T09:12:01.000Z</time>
      </trkpt>
      <trkpt lat="44.43064" lon="6.37295">
        <ele>1433</ele>
        <time>2021-09-01T09:12:02.000Z</time>
      </trkpt>
      <trkpt lat="44.43064" lon="6.37295">
        <ele>1433</ele>
        <time>2021-09-01T09:12:03.000Z</time>
      </trkpt>
      <trkpt lat="44.43064" lon="6.37295">
        <ele>1433</ele>
        <time>2021-09-01T09:12:04.000Z</time>
      </trkpt>
      <trkpt lat="44.43064" lon="6.37295">
        <ele>1433</ele>
        <time>2021-09-01T09:12:05.000Z</time>
      </trkpt>
      <trkpt lat="44.43064" lon="6.37295">
        <ele>1433</ele>
        <time>2021-09-01T09:12:06.000Z</time>
      </trkpt>
      <trkpt lat="44.43064" lon="6.37295">
        <ele>1432</ele>
        <time>2021-09-01T09:12:07.000Z</time>
      </trkpt>
      <trkpt lat="44.43064" lon="6.37295">
        <ele>1432</ele>
        <time>2021-09-01T09:12:08.000Z</time>
      </trkpt>
      <trkpt lat="44.43063" lon="6.37295">
        <ele>1432</ele>
        <time>2021-09-01T09:12:09.000Z</time>
      </trkpt>
      <trkpt lat="44.43063" lon="6.37295">
        <ele>1432</ele>
        <time>2021-09-01T09:12:10.000Z</time>
      </trkpt>
      <trkpt lat="44.43063" lon="6.37295">
        <ele>1432</ele>
        <time>2021-09-01T09:12:11.000Z</time>
      </trkpt>
      <trkpt lat="44.43063" lon="6.37295">
        <ele>1432</ele>
        <time>2021-09-01T09:12:12.000Z</time>
      </trkpt>
      <trkpt lat="44.43063" lon="6.37295">
        <ele>1432</ele>
        <time>2021-09-01T09:12:13.000Z</time>
      </trkpt>
      <trkpt lat="44.43063" lon="6.37295">
        <ele>1432</ele>
        <time>2021-09-01T09:12:14.000Z</time>
      </trkpt>
      <trkpt lat="44.43063" lon="6.37295">
        <ele>1432</ele>
        <time>2021-09-01T09:12:15.000Z</time>
      </trkpt>
      <trkpt lat="44.43063" lon="6.37295">
        <ele>1432</ele>
        <time>2021-09-01T09:12:16.000Z</time>
      </trkpt>
      <trkpt lat="44.43063" lon="6.37295">
        <ele>1432</ele>
        <time>2021-09-01T09:12:17.000Z</time>
      </trkpt>
      <trkpt lat="44.43063" lon="6.37295">
        <ele>1432</ele>
        <time>2021-09-01T09:12:18.000Z</time>
      </trkpt>
      <trkpt lat="44.43063" lon="6.37295">
        <ele>1432</ele>
        <time>2021-09-01T09:12:19.000Z</time>
      </trkpt>
      <trkpt lat="44.43063" lon="6.37295">
        <ele>1432</ele>
        <time>2021-09-01T09:12:20.000Z</time>
      </trkpt>
      <trkpt lat="44.43063" lon="6.37295">
        <ele>1433</ele>
        <time>2021-09-01T09:12:21.000Z</time>
      </trkpt>
      <trkpt lat="44.43063" lon="6.37295">
        <ele>1433</ele>
        <time>2021-09-01T09:12:22.000Z</time>
      </trkpt>
      <trkpt lat="44.43063" lon="6.37295">
        <ele>1433</ele>
        <time>2021-09-01T09:12:23.000Z</time>
      </trkpt>
      <trkpt lat="44.43063" lon="6.37295">
        <ele>1433</ele>
        <time>2021-09-01T09:12:24.000Z</time>
      </trkpt>
      <trkpt lat="44.43063" lon="6.37295">
        <ele>1433</ele>
        <time>2021-09-01T09:12:25.000Z</time>
      </trkpt>
      <trkpt lat="44.43063" lon="6.37295">
        <ele>1434</ele>
        <time>2021-09-01T09:12:26.000Z</time>
      </trkpt>
      <trkpt lat="44.43063" lon="6.37295">
        <ele>1434</ele>
        <time>2021-09-01T09:12:27.000Z</time>
      </trkpt>
      <trkpt lat="44.43063" lon="6.37295">
        <ele>1434</ele>
        <time>2021-09-01T09:12:28.000Z</time>
      </trkpt>
      <trkpt lat="44.43063" lon="6.37295">
        <ele>1434</ele>
        <time>2021-09-01T09:12:29.000Z</time>
      </trkpt>
      <trkpt lat="44.43063" lon="6.37295">
        <ele>1434</ele>
        <time>2021-09-01T09:12:30.000Z</time>
      </trkpt>
      <trkpt lat="44.43063" lon="6.37295">
        <ele>1434</ele>
        <time>2021-09-01T09:12:31.000Z</time>
      </trkpt>
      <trkpt lat="44.43063" lon="6.37295">
        <ele>1434</ele>
        <time>2021-09-01T09:12:32.000Z</time>
      </trkpt>
      <trkpt lat="44.43063" lon="6.37295">
        <ele>1435</ele>
        <time>2021-09-01T09:12:33.000Z</time>
      </trkpt>
      <trkpt lat="44.43063" lon="6.37295">
        <ele>1434</ele>
        <time>2021-09-01T09:12:34.000Z</time>
      </trkpt>
      <trkpt lat="44.43063" lon="6.37295">
        <ele>1435</ele>
        <time>2021-09-01T09:12:35.000Z</time>
      </trkpt>
      <trkpt lat="44.43063" lon="6.37294">
        <ele>1435</ele>
        <time>2021-09-01T09:12:36.000Z</time>
      </trkpt>
      <trkpt lat="44.43063" lon="6.37294">
        <ele>1435</ele>
        <time>2021-09-01T09:12:37.000Z</time>
      </trkpt>
      <trkpt lat="44.43063" lon="6.37294">
        <ele>1435</ele>
        <time>2021-09-01T09:12:38.000Z</time>
      </trkpt>
      <trkpt lat="44.43063" lon="6.37294">
        <ele>1435</ele>
        <time>2021-09-01T09:12:39.000Z</time>
      </trkpt>
      <trkpt lat="44.43063" lon="6.37294">
        <ele>1435</ele>
        <time>2021-09-01T09:12:40.000Z</time>
      </trkpt>
      <trkpt lat="44.43063" lon="6.37294">
        <ele>1435</ele>
        <time>2021-09-01T09:12:41.000Z</time>
      </trkpt>
      <trkpt lat="44.43063" lon="6.37294">
        <ele>1435</ele>
        <time>2021-09-01T09:12:42.000Z</time>
      </trkpt>
      <trkpt lat="44.43063" lon="6.37294">
        <ele>1435</ele>
        <time>2021-09-01T09:12:43.000Z</time>
      </trkpt>
      <trkpt lat="44.43063" lon="6.37294">
        <ele>1436</ele>
        <time>2021-09-01T09:12:44.000Z</time>
      </trkpt>
      <trkpt lat="44.43063" lon="6.37294">
        <ele>1436</ele>
        <time>2021-09-01T09:12:45.000Z</time>
      </trkpt>
      <trkpt lat="44.43063" lon="6.37294">
        <ele>1436</ele>
        <time>2021-09-01T09:12:46.000Z</time>
      </trkpt>
      <trkpt lat="44.43063" lon="6.37294">
        <ele>1436</ele>
        <time>2021-09-01T09:12:47.000Z</time>
      </trkpt>
      <trkpt lat="44.43063" lon="6.37294">
        <ele>1437</ele>
        <time>2021-09-01T09:12:48.000Z</time>
      </trkpt>
      <trkpt lat="44.43063" lon="6.37294">
        <ele>1436</ele>
        <time>2021-09-01T09:12:49.000Z</time>
      </trkpt>
      <trkpt lat="44.43063" lon="6.37294">
        <ele>1436</ele>
        <time>2021-09-01T09:12:50.000Z</time>
      </trkpt>
      <trkpt lat="44.43063" lon="6.37295">
        <ele>1437</ele>
        <time>2021-09-01T09:12:51.000Z</time>
      </trkpt>
      <trkpt lat="44.43063" lon="6.37295">
        <ele>1436</ele>
        <time>2021-09-01T09:12:52.000Z</time>
      </trkpt>
      <trkpt lat="44.43063" lon="6.37295">
        <ele>1436</ele>
        <time>2021-09-01T09:12:53.000Z</time>
      </trkpt>
      <trkpt lat="44.43063" lon="6.37295">
        <ele>1436</ele>
        <time>2021-09-01T09:12:54.000Z</time>
      </trkpt>
      <trkpt lat="44.43063" lon="6.37295">
        <ele>1436</ele>
        <time>2021-09-01T09:12:55.000Z</time>
      </trkpt>
      <trkpt lat="44.43063" lon="6.37295">
        <ele>1436</ele>
        <time>2021-09-01T09:12:56.000Z</time>
      </trkpt>
      <trkpt lat="44.43064" lon="6.37295">
        <ele>1436</ele>
        <time>2021-09-01T09:12:57.000Z</time>
      </trkpt>
      <trkpt lat="44.43064" lon="6.37295">
        <ele>1436</ele>
        <time>2021-09-01T09:12:58.000Z</time>
      </trkpt>
      <trkpt lat="44.43064" lon="6.37295">
        <ele>1436</ele>
        <time>2021-09-01T09:12:59.000Z</time>
      </trkpt>
      <trkpt lat="44.43064" lon="6.37295">
        <ele>1436</ele>
        <time>2021-09-01T09:13:00.000Z</time>
      </trkpt>
      <trkpt lat="44.43064" lon="6.37295">
        <ele>1437</ele>
        <time>2021-09-01T09:13:01.000Z</time>
      </trkpt>
      <trkpt lat="44.43064" lon="6.37295">
        <ele>1437</ele>
        <time>2021-09-01T09:13:02.000Z</time>
      </trkpt>
      <trkpt lat="44.43064" lon="6.37295">
        <ele>1437</ele>
        <time>2021-09-01T09:13:03.000Z</time>
      </trkpt>
      <trkpt lat="44.43064" lon="6.37295">
        <ele>1437</ele>
        <time>2021-09-01T09:13:04.000Z</time>
      </trkpt>
      <trkpt lat="44.43064" lon="6.37295">
        <ele>1437</ele>
        <time>2021-09-01T09:13:05.000Z</time>
      </trkpt>
      <trkpt lat="44.43064" lon="6.37296">
        <ele>1437</ele>
        <time>2021-09-01T09:13:06.000Z</time>
      </trkpt>
      <trkpt lat="44.43064" lon="6.37296">
        <ele>1437</ele>
        <time>2021-09-01T09:13:07.000Z</time>
      </trkpt>
      <trkpt lat="44.43065" lon="6.37296">
        <ele>1437</ele>
        <time>2021-09-01T09:13:08.000Z</time>
      </trkpt>
      <trkpt lat="44.43065" lon="6.37296">
        <ele>1437</ele>
        <time>2021-09-01T09:13:09.000Z</time>
      </trkpt>
      <trkpt lat="44.43065" lon="6.37296">
        <ele>1437</ele>
        <time>2021-09-01T09:13:10.000Z</time>
      </trkpt>
      <trkpt lat="44.43065" lon="6.37296">
        <ele>1437</ele>
        <time>2021-09-01T09:13:11.000Z</time>
      </trkpt>
      <trkpt lat="44.43065" lon="6.37296">
        <ele>1437</ele>
        <time>2021-09-01T09:13:12.000Z</time>
      </trkpt>
      <trkpt lat="44.43065" lon="6.37297">
        <ele>1437</ele>
        <time>2021-09-01T09:13:13.000Z</time>
      </trkpt>
      <trkpt lat="44.43065" lon="6.37296">
        <ele>1437</ele>
        <time>2021-09-01T09:13:14.000Z</time>
      </trkpt>
      <trkpt lat="44.43065" lon="6.37297">
        <ele>1437</ele>
        <time>2021-09-01T09:13:15.000Z</time>
      </trkpt>
      <trkpt lat="44.43065" lon="6.37297">
        <ele>1437</ele>
        <time>2021-09-01T09:13:16.000Z</time>
      </trkpt>
      <trkpt lat="44.43064" lon="6.37297">
        <ele>1437</ele>
        <time>2021-09-01T09:13:17.000Z</time>
      </trkpt>
      <trkpt lat="44.43064" lon="6.37297">
        <ele>1436</ele>
        <time>2021-09-01T09:13:18.000Z</time>
      </trkpt>
      <trkpt lat="44.43064" lon="6.37297">
        <ele>1436</ele>
        <time>2021-09-01T09:13:19.000Z</time>
      </trkpt>
      <trkpt lat="44.43064" lon="6.37297">
        <ele>1436</ele>
        <time>2021-09-01T09:13:20.000Z</time>
      </trkpt>
      <trkpt lat="44.43064" lon="6.37297">
        <ele>1435</ele>
        <time>2021-09-01T09:13:21.000Z</time>
      </trkpt>
      <trkpt lat="44.43064" lon="6.37297">
        <ele>1435</ele>
        <time>2021-09-01T09:13:22.000Z</time>
      </trkpt>
      <trkpt lat="44.43064" lon="6.37297">
        <ele>1435</ele>
        <time>2021-09-01T09:13:23.000Z</time>
      </trkpt>
      <trkpt lat="44.43064" lon="6.37297">
        <ele>1435</ele>
        <time>2021-09-01T09:13:24.000Z</time>
      </trkpt>
      <trkpt lat="44.43064" lon="6.37297">
        <ele>1435</ele>
        <time>2021-09-01T09:13:25.000Z</time>
      </trkpt>
      <trkpt lat="44.43063" lon="6.37297">
        <ele>1435</ele>
        <time>2021-09-01T09:13:26.000Z</time>
      </trkpt>
      <trkpt lat="44.43063" lon="6.37297">
        <ele>1435</ele>
        <time>2021-09-01T09:13:27.000Z</time>
      </trkpt>
      <trkpt lat="44.43063" lon="6.37296">
        <ele>1435</ele>
        <time>2021-09-01T09:13:28.000Z</time>
      </trkpt>
      <trkpt lat="44.43063" lon="6.37296">
        <ele>1435</ele>
        <time>2021-09-01T09:13:29.000Z</time>
      </trkpt>
      <trkpt lat="44.43063" lon="6.37296">
        <ele>1435</ele>
        <time>2021-09-01T09:13:30.000Z</time>
      </trkpt>
      <trkpt lat="44.43063" lon="6.37296">
        <ele>1435</ele>
        <time>2021-09-01T09:13:31.000Z</time>
      </trkpt>
      <trkpt lat="44.43063" lon="6.37296">
        <ele>1435</ele>
        <time>2021-09-01T09:13:32.000Z</time>
      </trkpt>
      <trkpt lat="44.43063" lon="6.37296">
        <ele>1435</ele>
        <time>2021-09-01T09:13:33.000Z</time>
      </trkpt>
      <trkpt lat="44.43063" lon="6.37296">
        <ele>1435</ele>
        <time>2021-09-01T09:13:34.000Z</time>
      </trkpt>
      <trkpt lat="44.43063" lon="6.37296">
        <ele>1435</ele>
        <time>2021-09-01T09:13:35.000Z</time>
      </trkpt>
      <trkpt lat="44.43062" lon="6.37296">
        <ele>1435</ele>
        <time>2021-09-01T09:13:36.000Z</time>
      </trkpt>
      <trkpt lat="44.43062" lon="6.37296">
        <ele>1435</ele>
        <time>2021-09-01T09:13:37.000Z</time>
      </trkpt>
      <trkpt lat="44.43062" lon="6.37296">
        <ele>1435</ele>
        <time>2021-09-01T09:13:38.000Z</time>
      </trkpt>
      <trkpt lat="44.43062" lon="6.37296">
        <ele>1434</ele>
        <time>2021-09-01T09:13:39.000Z</time>
      </trkpt>
      <trkpt lat="44.43062" lon="6.37296">
        <ele>1434</ele>
        <time>2021-09-01T09:13:40.000Z</time>
      </trkpt>
      <trkpt lat="44.43062" lon="6.37296">
        <ele>1434</ele>
        <time>2021-09-01T09:13:41.000Z</time>
      </trkpt>
      <trkpt lat="44.43062" lon="6.37297">
        <ele>1435</ele>
        <time>2021-09-01T09:13:42.000Z</time>
      </trkpt>
      <trkpt lat="44.43062" lon="6.37297">
        <ele>1435</ele>
        <time>2021-09-01T09:13:43.000Z</time>
      </trkpt>
      <trkpt lat="44.43062" lon="6.37297">
        <ele>1435</ele>
        <time>2021-09-01T09:13:44.000Z</time>
      </trkpt>
      <trkpt lat="44.43062" lon="6.37297">
        <ele>1435</ele>
        <time>2021-09-01T09:13:45.000Z</time>
      </trkpt>
      <trkpt lat="44.43062" lon="6.37297">
        <ele>1435</ele>
        <time>2021-09-01T09:13:46.000Z</time>
      </trkpt>
      <trkpt lat="44.43061" lon="6.37297">
        <ele>1435</ele>
        <time>2021-09-01T09:13:47.000Z</time>
      </trkpt>
      <trkpt lat="44.43061" lon="6.37298">
        <ele>1435</ele>
        <time>2021-09-01T09:13:48.000Z</time>
      </trkpt>
      <trkpt lat="44.43061" lon="6.37298">
        <ele>1435</ele>
        <time>2021-09-01T09:13:49.000Z</time>
      </trkpt>
      <trkpt lat="44.43061" lon="6.373">
        <ele>1434</ele>
        <time>2021-09-01T09:13:50.000Z</time>
      </trkpt>
      <trkpt lat="44.4306" lon="6.37302">
        <ele>1433</ele>
        <time>2021-09-01T09:13:51.000Z</time>
      </trkpt>
      <trkpt lat="44.43059" lon="6.37304">
        <ele>1433</ele>
        <time>2021-09-01T09:13:52.000Z</time>
      </trkpt>
      <trkpt lat="44.43059" lon="6.37305">
        <ele>1433</ele>
        <time>2021-09-01T09:13:53.000Z</time>
      </trkpt>
      <trkpt lat="44.43058" lon="6.37307">
        <ele>1433</ele>
        <time>2021-09-01T09:13:54.000Z</time>
      </trkpt>
      <trkpt lat="44.43057" lon="6.37309">
        <ele>1433</ele>
        <time>2021-09-01T09:13:55.000Z</time>
      </trkpt>
      <trkpt lat="44.43057" lon="6.37311">
        <ele>1432</ele>
        <time>2021-09-01T09:13:56.000Z</time>
      </trkpt>
      <trkpt lat="44.43056" lon="6.37313">
        <ele>1431</ele>
        <time>2021-09-01T09:13:57.000Z</time>
      </trkpt>
      <trkpt lat="44.43056" lon="6.37315">
        <ele>1431</ele>
        <time>2021-09-01T09:13:58.000Z</time>
      </trkpt>
      <trkpt lat="44.43054" lon="6.37316">
        <ele>1431</ele>
        <time>2021-09-01T09:13:59.000Z</time>
      </trkpt>
      <trkpt lat="44.43053" lon="6.37318">
        <ele>1431</ele>
        <time>2021-09-01T09:14:00.000Z</time>
      </trkpt>
      <trkpt lat="44.43053" lon="6.3732">
        <ele>1431</ele>
        <time>2021-09-01T09:14:01.000Z</time>
      </trkpt>
      <trkpt lat="44.43053" lon="6.37323">
        <ele>1431</ele>
        <time>2021-09-01T09:14:02.000Z</time>
      </trkpt>
      <trkpt lat="44.43053" lon="6.37325">
        <ele>1430</ele>
        <time>2021-09-01T09:14:03.000Z</time>
      </trkpt>
      <trkpt lat="44.43053" lon="6.37327">
        <ele>1430</ele>
        <time>2021-09-01T09:14:04.000Z</time>
      </trkpt>
      <trkpt lat="44.43052" lon="6.37329">
        <ele>1431</ele>
        <time>2021-09-01T09:14:05.000Z</time>
      </trkpt>
      <trkpt lat="44.43052" lon="6.37331">
        <ele>1431</ele>
        <time>2021-09-01T09:14:06.000Z</time>
      </trkpt>
      <trkpt lat="44.43052" lon="6.37334">
        <ele>1431</ele>
        <time>2021-09-01T09:14:07.000Z</time>
      </trkpt>
      <trkpt lat="44.43052" lon="6.37337">
        <ele>1432</ele>
        <time>2021-09-01T09:14:08.000Z</time>
      </trkpt>
      <trkpt lat="44.43053" lon="6.3734">
        <ele>1432</ele>
        <time>2021-09-01T09:14:09.000Z</time>
      </trkpt>
      <trkpt lat="44.43054" lon="6.37343">
        <ele>1433</ele>
        <time>2021-09-01T09:14:10.000Z</time>
      </trkpt>
      <trkpt lat="44.43055" lon="6.37345">
        <ele>1432</ele>
        <time>2021-09-01T09:14:11.000Z</time>
      </trkpt>
      <trkpt lat="44.43055" lon="6.37347">
        <ele>1432</ele>
        <time>2021-09-01T09:14:12.000Z</time>
      </trkpt>
      <trkpt lat="44.43055" lon="6.3735">
        <ele>1432</ele>
        <time>2021-09-01T09:14:13.000Z</time>
      </trkpt>
      <trkpt lat="44.43056" lon="6.37352">
        <ele>1432</ele>
        <time>2021-09-01T09:14:14.000Z</time>
      </trkpt>
      <trkpt lat="44.43057" lon="6.37354">
        <ele>1433</ele>
        <time>2021-09-01T09:14:15.000Z</time>
      </trkpt>
      <trkpt lat="44.43058" lon="6.37357">
        <ele>1433</ele>
        <time>2021-09-01T09:14:16.000Z</time>
      </trkpt>
      <trkpt lat="44.43059" lon="6.37359">
        <ele>1433</ele>
        <time>2021-09-01T09:14:17.000Z</time>
      </trkpt>
      <trkpt lat="44.4306" lon="6.37361">
        <ele>1434</ele>
        <time>2021-09-01T09:14:18.000Z</time>
      </trkpt>
      <trkpt lat="44.43062" lon="6.37362">
        <ele>1435</ele>
        <time>2021-09-01T09:14:19.000Z</time>
      </trkpt>
      <trkpt lat="44.43063" lon="6.37364">
        <ele>1435</ele>
        <time>2021-09-01T09:14:20.000Z</time>
      </trkpt>
      <trkpt lat="44.43064" lon="6.37365">
        <ele>1435</ele>
        <time>2021-09-01T09:14:21.000Z</time>
      </trkpt>
      <trkpt lat="44.43065" lon="6.37366">
        <ele>1436</ele>
        <time>2021-09-01T09:14:22.000Z</time>
      </trkpt>
      <trkpt lat="44.43067" lon="6.37368">
        <ele>1437</ele>
        <time>2021-09-01T09:14:23.000Z</time>
      </trkpt>
      <trkpt lat="44.43069" lon="6.3737">
        <ele>1437</ele>
        <time>2021-09-01T09:14:24.000Z</time>
      </trkpt>
      <trkpt lat="44.4307" lon="6.37371">
        <ele>1436</ele>
        <time>2021-09-01T09:14:25.000Z</time>
      </trkpt>
      <trkpt lat="44.43071" lon="6.37373">
        <ele>1437</ele>
        <time>2021-09-01T09:14:26.000Z</time>
      </trkpt>
      <trkpt lat="44.43073" lon="6.37375">
        <ele>1437</ele>
        <time>2021-09-01T09:14:27.000Z</time>
      </trkpt>
      <trkpt lat="44.43074" lon="6.37377">
        <ele>1438</ele>
        <time>2021-09-01T09:14:28.000Z</time>
      </trkpt>
      <trkpt lat="44.43075" lon="6.37379">
        <ele>1440</ele>
        <time>2021-09-01T09:14:29.000Z</time>
      </trkpt>
      <trkpt lat="44.43077" lon="6.37381">
        <ele>1442</ele>
        <time>2021-09-01T09:14:30.000Z</time>
      </trkpt>
      <trkpt lat="44.43078" lon="6.37384">
        <ele>1442</ele>
        <time>2021-09-01T09:14:31.000Z</time>
      </trkpt>
      <trkpt lat="44.4308" lon="6.37386">
        <ele>1443</ele>
        <time>2021-09-01T09:14:32.000Z</time>
      </trkpt>
      <trkpt lat="44.4308" lon="6.37388">
        <ele>1443</ele>
        <time>2021-09-01T09:14:33.000Z</time>
      </trkpt>
      <trkpt lat="44.43081" lon="6.37391">
        <ele>1444</ele>
        <time>2021-09-01T09:14:34.000Z</time>
      </trkpt>
      <trkpt lat="44.43081" lon="6.37394">
        <ele>1445</ele>
        <time>2021-09-01T09:14:35.000Z</time>
      </trkpt>
      <trkpt lat="44.43082" lon="6.37396">
        <ele>1445</ele>
        <time>2021-09-01T09:14:36.000Z</time>
      </trkpt>
      <trkpt lat="44.43083" lon="6.37399">
        <ele>1445</ele>
        <time>2021-09-01T09:14:37.000Z</time>
      </trkpt>
      <trkpt lat="44.43083" lon="6.37402">
        <ele>1444</ele>
        <time>2021-09-01T09:14:38.000Z</time>
      </trkpt>
      <trkpt lat="44.43083" lon="6.37403">
        <ele>1445</ele>
        <time>2021-09-01T09:14:39.000Z</time>
      </trkpt>
      <trkpt lat="44.43083" lon="6.37405">
        <ele>1445</ele>
        <time>2021-09-01T09:14:40.000Z</time>
      </trkpt>
      <trkpt lat="44.43083" lon="6.37408">
        <ele>1445</ele>
        <time>2021-09-01T09:14:41.000Z</time>
      </trkpt>
      <trkpt lat="44.43083" lon="6.37411">
        <ele>1444</ele>
        <time>2021-09-01T09:14:42.000Z</time>
      </trkpt>
      <trkpt lat="44.43083" lon="6.37414">
        <ele>1444</ele>
        <time>2021-09-01T09:14:43.000Z</time>
      </trkpt>
      <trkpt lat="44.43082" lon="6.37416">
        <ele>1444</ele>
        <time>2021-09-01T09:14:44.000Z</time>
      </trkpt>
      <trkpt lat="44.43082" lon="6.37419">
        <ele>1443</ele>
        <time>2021-09-01T09:14:45.000Z</time>
      </trkpt>
      <trkpt lat="44.43082" lon="6.37422">
        <ele>1444</ele>
        <time>2021-09-01T09:14:46.000Z</time>
      </trkpt>
      <trkpt lat="44.43082" lon="6.37424">
        <ele>1444</ele>
        <time>2021-09-01T09:14:47.000Z</time>
      </trkpt>
      <trkpt lat="44.43082" lon="6.37426">
        <ele>1445</ele>
        <time>2021-09-01T09:14:48.000Z</time>
      </trkpt>
      <trkpt lat="44.43083" lon="6.37428">
        <ele>1445</ele>
        <time>2021-09-01T09:14:49.000Z</time>
      </trkpt>
      <trkpt lat="44.43082" lon="6.37431">
        <ele>1445</ele>
        <time>2021-09-01T09:14:50.000Z</time>
      </trkpt>
      <trkpt lat="44.43082" lon="6.37433">
        <ele>1446</ele>
        <time>2021-09-01T09:14:51.000Z</time>
      </trkpt>
      <trkpt lat="44.43082" lon="6.37435">
        <ele>1446</ele>
        <time>2021-09-01T09:14:52.000Z</time>
      </trkpt>
      <trkpt lat="44.43082" lon="6.37437">
        <ele>1445</ele>
        <time>2021-09-01T09:14:53.000Z</time>
      </trkpt>
      <trkpt lat="44.43082" lon="6.37439">
        <ele>1446</ele>
        <time>2021-09-01T09:14:54.000Z</time>
      </trkpt>
      <trkpt lat="44.43081" lon="6.37442">
        <ele>1446</ele>
        <time>2021-09-01T09:14:55.000Z</time>
      </trkpt>
      <trkpt lat="44.43082" lon="6.37445">
        <ele>1448</ele>
        <time>2021-09-01T09:14:56.000Z</time>
      </trkpt>
      <trkpt lat="44.43082" lon="6.37447">
        <ele>1448</ele>
        <time>2021-09-01T09:14:57.000Z</time>
      </trkpt>
      <trkpt lat="44.43082" lon="6.3745">
        <ele>1448</ele>
        <time>2021-09-01T09:14:58.000Z</time>
      </trkpt>
      <trkpt lat="44.43083" lon="6.37452">
        <ele>1449</ele>
        <time>2021-09-01T09:14:59.000Z</time>
      </trkpt>
      <trkpt lat="44.43084" lon="6.37455">
        <ele>1449</ele>
        <time>2021-09-01T09:15:00.000Z</time>
      </trkpt>
      <trkpt lat="44.43084" lon="6.37457">
        <ele>1451</ele>
        <time>2021-09-01T09:15:01.000Z</time>
      </trkpt>
      <trkpt lat="44.43084" lon="6.37459">
        <ele>1450</ele>
        <time>2021-09-01T09:15:02.000Z</time>
      </trkpt>
      <trkpt lat="44.43084" lon="6.37462">
        <ele>1451</ele>
        <time>2021-09-01T09:15:03.000Z</time>
      </trkpt>
      <trkpt lat="44.43084" lon="6.37464">
        <ele>1451</ele>
        <time>2021-09-01T09:15:04.000Z</time>
      </trkpt>
      <trkpt lat="44.43084" lon="6.37466">
        <ele>1451</ele>
        <time>2021-09-01T09:15:05.000Z</time>
      </trkpt>
      <trkpt lat="44.43084" lon="6.37468">
        <ele>1450</ele>
        <time>2021-09-01T09:15:06.000Z</time>
      </trkpt>
      <trkpt lat="44.43084" lon="6.3747">
        <ele>1450</ele>
        <time>2021-09-01T09:15:07.000Z</time>
      </trkpt>
      <trkpt lat="44.43084" lon="6.37472">
        <ele>1451</ele>
        <time>2021-09-01T09:15:08.000Z</time>
      </trkpt>
      <trkpt lat="44.43084" lon="6.37472">
        <ele>1451</ele>
        <time>2021-09-01T09:15:09.000Z</time>
      </trkpt>
      <trkpt lat="44.43085" lon="6.37472">
        <ele>1453</ele>
        <time>2021-09-01T09:15:10.000Z</time>
      </trkpt>
      <trkpt lat="44.43085" lon="6.37473">
        <ele>1453</ele>
        <time>2021-09-01T09:15:11.000Z</time>
      </trkpt>
      <trkpt lat="44.43084" lon="6.37472">
        <ele>1454</ele>
        <time>2021-09-01T09:15:12.000Z</time>
      </trkpt>
      <trkpt lat="44.43084" lon="6.37473">
        <ele>1454</ele>
        <time>2021-09-01T09:15:13.000Z</time>
      </trkpt>
      <trkpt lat="44.43084" lon="6.37473">
        <ele>1456</ele>
        <time>2021-09-01T09:15:14.000Z</time>
      </trkpt>
      <trkpt lat="44.43084" lon="6.37474">
        <ele>1457</ele>
        <time>2021-09-01T09:15:15.000Z</time>
      </trkpt>
      <trkpt lat="44.43084" lon="6.37474">
        <ele>1457</ele>
        <time>2021-09-01T09:15:16.000Z</time>
      </trkpt>
      <trkpt lat="44.43084" lon="6.37475">
        <ele>1457</ele>
        <time>2021-09-01T09:15:17.000Z</time>
      </trkpt>
      <trkpt lat="44.43084" lon="6.37475">
        <ele>1457</ele>
        <time>2021-09-01T09:15:18.000Z</time>
      </trkpt>
      <trkpt lat="44.43084" lon="6.37476">
        <ele>1458</ele>
        <time>2021-09-01T09:15:19.000Z</time>
      </trkpt>
      <trkpt lat="44.43084" lon="6.37476">
        <ele>1458</ele>
        <time>2021-09-01T09:15:20.000Z</time>
      </trkpt>
      <trkpt lat="44.43084" lon="6.37477">
        <ele>1458</ele>
        <time>2021-09-01T09:15:21.000Z</time>
      </trkpt>
      <trkpt lat="44.43084" lon="6.37477">
        <ele>1459</ele>
        <time>2021-09-01T09:15:22.000Z</time>
      </trkpt>
      <trkpt lat="44.43083" lon="6.37478">
        <ele>1458</ele>
        <time>2021-09-01T09:15:23.000Z</time>
      </trkpt>
      <trkpt lat="44.43083" lon="6.37478">
        <ele>1458</ele>
        <time>2021-09-01T09:15:24.000Z</time>
      </trkpt>
      <trkpt lat="44.43083" lon="6.37479">
        <ele>1459</ele>
        <time>2021-09-01T09:15:25.000Z</time>
      </trkpt>
      <trkpt lat="44.43083" lon="6.3748">
        <ele>1459</ele>
        <time>2021-09-01T09:15:26.000Z</time>
      </trkpt>
      <trkpt lat="44.43084" lon="6.37481">
        <ele>1460</ele>
        <time>2021-09-01T09:15:27.000Z</time>
      </trkpt>
      <trkpt lat="44.43084" lon="6.37481">
        <ele>1461</ele>
        <time>2021-09-01T09:15:28.000Z</time>
      </trkpt>
      <trkpt lat="44.43084" lon="6.37482">
        <ele>1461</ele>
        <time>2021-09-01T09:15:29.000Z</time>
      </trkpt>
      <trkpt lat="44.43084" lon="6.37482">
        <ele>1462</ele>
        <time>2021-09-01T09:15:30.000Z</time>
      </trkpt>
      <trkpt lat="44.43084" lon="6.37483">
        <ele>1462</ele>
        <time>2021-09-01T09:15:31.000Z</time>
      </trkpt>
      <trkpt lat="44.43084" lon="6.37483">
        <ele>1462</ele>
        <time>2021-09-01T09:15:32.000Z</time>
      </trkpt>
      <trkpt lat="44.43084" lon="6.37484">
        <ele>1462</ele>
        <time>2021-09-01T09:15:33.000Z</time>
      </trkpt>
      <trkpt lat="44.43084" lon="6.37484">
        <ele>1463</ele>
        <time>2021-09-01T09:15:34.000Z</time>
      </trkpt>
      <trkpt lat="44.43084" lon="6.37485">
        <ele>1463</ele>
        <time>2021-09-01T09:15:35.000Z</time>
      </trkpt>
      <trkpt lat="44.43084" lon="6.37485">
        <ele>1463</ele>
        <time>2021-09-01T09:15:36.000Z</time>
      </trkpt>
      <trkpt lat="44.43084" lon="6.37485">
        <ele>1463</ele>
        <time>2021-09-01T09:15:37.000Z</time>
      </trkpt>
      <trkpt lat="44.43084" lon="6.37485">
        <ele>1464</ele>
        <time>2021-09-01T09:15:38.000Z</time>
      </trkpt>
      <trkpt lat="44.43084" lon="6.37486">
        <ele>1464</ele>
        <time>2021-09-01T09:15:39.000Z</time>
      </trkpt>
      <trkpt lat="44.43085" lon="6.37486">
        <ele>1464</ele>
        <time>2021-09-01T09:15:40.000Z</time>
      </trkpt>
      <trkpt lat="44.43085" lon="6.37486">
        <ele>1464</ele>
        <time>2021-09-01T09:15:41.000Z</time>
      </trkpt>
      <trkpt lat="44.43085" lon="6.37486">
        <ele>1464</ele>
        <time>2021-09-01T09:15:42.000Z</time>
      </trkpt>
      <trkpt lat="44.43084" lon="6.37486">
        <ele>1464</ele>
        <time>2021-09-01T09:15:43.000Z</time>
      </trkpt>
      <trkpt lat="44.43084" lon="6.37486">
        <ele>1464</ele>
        <time>2021-09-01T09:15:44.000Z</time>
      </trkpt>
      <trkpt lat="44.43084" lon="6.37486">
        <ele>1463</ele>
        <time>2021-09-01T09:15:45.000Z</time>
      </trkpt>
      <trkpt lat="44.43084" lon="6.37487">
        <ele>1463</ele>
        <time>2021-09-01T09:15:46.000Z</time>
      </trkpt>
      <trkpt lat="44.43084" lon="6.37487">
        <ele>1462</ele>
        <time>2021-09-01T09:15:47.000Z</time>
      </trkpt>
      <trkpt lat="44.43084" lon="6.37487">
        <ele>1462</ele>
        <time>2021-09-01T09:15:48.000Z</time>
      </trkpt>
      <trkpt lat="44.43083" lon="6.37487">
        <ele>1462</ele>
        <time>2021-09-01T09:15:49.000Z</time>
      </trkpt>
      <trkpt lat="44.43083" lon="6.37487">
        <ele>1461</ele>
        <time>2021-09-01T09:15:50.000Z</time>
      </trkpt>
      <trkpt lat="44.43083" lon="6.37488">
        <ele>1461</ele>
        <time>2021-09-01T09:15:51.000Z</time>
      </trkpt>
      <trkpt lat="44.43083" lon="6.37488">
        <ele>1460</ele>
        <time>2021-09-01T09:15:52.000Z</time>
      </trkpt>
      <trkpt lat="44.43083" lon="6.37488">
        <ele>1460</ele>
        <time>2021-09-01T09:15:53.000Z</time>
      </trkpt>
      <trkpt lat="44.43083" lon="6.37489">
        <ele>1459</ele>
        <time>2021-09-01T09:15:54.000Z</time>
      </trkpt>
      <trkpt lat="44.43083" lon="6.37489">
        <ele>1458</ele>
        <time>2021-09-01T09:15:55.000Z</time>
      </trkpt>
      <trkpt lat="44.43083" lon="6.37489">
        <ele>1458</ele>
        <time>2021-09-01T09:15:56.000Z</time>
      </trkpt>
      <trkpt lat="44.43083" lon="6.3749">
        <ele>1458</ele>
        <time>2021-09-01T09:15:57.000Z</time>
      </trkpt>
      <trkpt lat="44.43083" lon="6.3749">
        <ele>1457</ele>
        <time>2021-09-01T09:15:58.000Z</time>
      </trkpt>
      <trkpt lat="44.43083" lon="6.37491">
        <ele>1456</ele>
        <time>2021-09-01T09:15:59.000Z</time>
      </trkpt>
      <trkpt lat="44.43083" lon="6.37491">
        <ele>1456</ele>
        <time>2021-09-01T09:16:00.000Z</time>
      </trkpt>
      <trkpt lat="44.43083" lon="6.37491">
        <ele>1455</ele>
        <time>2021-09-01T09:16:01.000Z</time>
      </trkpt>
      <trkpt lat="44.43083" lon="6.37491">
        <ele>1454</ele>
        <time>2021-09-01T09:16:02.000Z</time>
      </trkpt>
      <trkpt lat="44.43083" lon="6.37491">
        <ele>1454</ele>
        <time>2021-09-01T09:16:03.000Z</time>
      </trkpt>
      <trkpt lat="44.43083" lon="6.37491">
        <ele>1453</ele>
        <time>2021-09-01T09:16:04.000Z</time>
      </trkpt>
      <trkpt lat="44.43082" lon="6.37491">
        <ele>1453</ele>
        <time>2021-09-01T09:16:05.000Z</time>
      </trkpt>
      <trkpt lat="44.43082" lon="6.37491">
        <ele>1453</ele>
        <time>2021-09-01T09:16:06.000Z</time>
      </trkpt>
      <trkpt lat="44.43082" lon="6.37491">
        <ele>1454</ele>
        <time>2021-09-01T09:16:07.000Z</time>
      </trkpt>
      <trkpt lat="44.43082" lon="6.37492">
        <ele>1454</ele>
        <time>2021-09-01T09:16:08.000Z</time>
      </trkpt>
      <trkpt lat="44.43082" lon="6.37492">
        <ele>1454</ele>
        <time>2021-09-01T09:16:09.000Z</time>
      </trkpt>
      <trkpt lat="44.43083" lon="6.37494">
        <ele>1454</ele>
        <time>2021-09-01T09:16:10.000Z</time>
      </trkpt>
      <trkpt lat="44.43083" lon="6.37495">
        <ele>1454</ele>
        <time>2021-09-01T09:16:11.000Z</time>
      </trkpt>
      <trkpt lat="44.43084" lon="6.37497">
        <ele>1454</ele>
        <time>2021-09-01T09:16:12.000Z</time>
      </trkpt>
      <trkpt lat="44.43085" lon="6.37498">
        <ele>1455</ele>
        <time>2021-09-01T09:16:13.000Z</time>
      </trkpt>
      <trkpt lat="44.43085" lon="6.375">
        <ele>1454</ele>
        <time>2021-09-01T09:16:14.000Z</time>
      </trkpt>
      <trkpt lat="44.43085" lon="6.37501">
        <ele>1454</ele>
        <time>2021-09-01T09:16:15.000Z</time>
      </trkpt>
      <trkpt lat="44.43086" lon="6.37503">
        <ele>1454</ele>
        <time>2021-09-01T09:16:16.000Z</time>
      </trkpt>
      <trkpt lat="44.43087" lon="6.37504">
        <ele>1455</ele>
        <time>2021-09-01T09:16:17.000Z</time>
      </trkpt>
      <trkpt lat="44.43088" lon="6.37506">
        <ele>1456</ele>
        <time>2021-09-01T09:16:18.000Z</time>
      </trkpt>
      <trkpt lat="44.43088" lon="6.37509">
        <ele>1456</ele>
        <time>2021-09-01T09:16:19.000Z</time>
      </trkpt>
      <trkpt lat="44.43088" lon="6.37511">
        <ele>1457</ele>
        <time>2021-09-01T09:16:20.000Z</time>
      </trkpt>
      <trkpt lat="44.43088" lon="6.37513">
        <ele>1457</ele>
        <time>2021-09-01T09:16:21.000Z</time>
      </trkpt>
      <trkpt lat="44.43089" lon="6.37515">
        <ele>1458</ele>
        <time>2021-09-01T09:16:22.000Z</time>
      </trkpt>
      <trkpt lat="44.43089" lon="6.37517">
        <ele>1458</ele>
        <time>2021-09-01T09:16:23.000Z</time>
      </trkpt>
      <trkpt lat="44.4309" lon="6.37519">
        <ele>1458</ele>
        <time>2021-09-01T09:16:24.000Z</time>
      </trkpt>
      <trkpt lat="44.4309" lon="6.37522">
        <ele>1458</ele>
        <time>2021-09-01T09:16:25.000Z</time>
      </trkpt>
      <trkpt lat="44.4309" lon="6.37524">
        <ele>1458</ele>
        <time>2021-09-01T09:16:26.000Z</time>
      </trkpt>
      <trkpt lat="44.43092" lon="6.37527">
        <ele>1458</ele>
        <time>2021-09-01T09:16:27.000Z</time>
      </trkpt>
      <trkpt lat="44.43093" lon="6.37531">
        <ele>1457</ele>
        <time>2021-09-01T09:16:28.000Z</time>
      </trkpt>
      <trkpt lat="44.43094" lon="6.37533">
        <ele>1457</ele>
        <time>2021-09-01T09:16:29.000Z</time>
      </trkpt>
      <trkpt lat="44.43094" lon="6.37535">
        <ele>1457</ele>
        <time>2021-09-01T09:16:30.000Z</time>
      </trkpt>
      <trkpt lat="44.43095" lon="6.37538">
        <ele>1457</ele>
        <time>2021-09-01T09:16:31.000Z</time>
      </trkpt>
      <trkpt lat="44.43096" lon="6.3754">
        <ele>1457</ele>
        <time>2021-09-01T09:16:32.000Z</time>
      </trkpt>
      <trkpt lat="44.43097" lon="6.37542">
        <ele>1456</ele>
        <time>2021-09-01T09:16:33.000Z</time>
      </trkpt>
      <trkpt lat="44.43098" lon="6.37545">
        <ele>1457</ele>
        <time>2021-09-01T09:16:34.000Z</time>
      </trkpt>
      <trkpt lat="44.43098" lon="6.37549">
        <ele>1456</ele>
        <time>2021-09-01T09:16:35.000Z</time>
      </trkpt>
      <trkpt lat="44.43098" lon="6.37553">
        <ele>1457</ele>
        <time>2021-09-01T09:16:36.000Z</time>
      </trkpt>
      <trkpt lat="44.43098" lon="6.37556">
        <ele>1456</ele>
        <time>2021-09-01T09:16:37.000Z</time>
      </trkpt>
      <trkpt lat="44.43098" lon="6.37558">
        <ele>1456</ele>
        <time>2021-09-01T09:16:38.000Z</time>
      </trkpt>
      <trkpt lat="44.43099" lon="6.3756">
        <ele>1455</ele>
        <time>2021-09-01T09:16:39.000Z</time>
      </trkpt>
      <trkpt lat="44.43099" lon="6.37562">
        <ele>1454</ele>
        <time>2021-09-01T09:16:40.000Z</time>
      </trkpt>
      <trkpt lat="44.43101" lon="6.37564">
        <ele>1453</ele>
        <time>2021-09-01T09:16:41.000Z</time>
      </trkpt>
      <trkpt lat="44.43102" lon="6.37566">
        <ele>1453</ele>
        <time>2021-09-01T09:16:42.000Z</time>
      </trkpt>
      <trkpt lat="44.43103" lon="6.37569">
        <ele>1454</ele>
        <time>2021-09-01T09:16:43.000Z</time>
      </trkpt>
      <trkpt lat="44.43105" lon="6.37571">
        <ele>1454</ele>
        <time>2021-09-01T09:16:44.000Z</time>
      </trkpt>
      <trkpt lat="44.43106" lon="6.37574">
        <ele>1454</ele>
        <time>2021-09-01T09:16:45.000Z</time>
      </trkpt>
      <trkpt lat="44.43107" lon="6.37577">
        <ele>1454</ele>
        <time>2021-09-01T09:16:46.000Z</time>
      </trkpt>
      <trkpt lat="44.43109" lon="6.37579">
        <ele>1453</ele>
        <time>2021-09-01T09:16:47.000Z</time>
      </trkpt>
      <trkpt lat="44.4311" lon="6.37582">
        <ele>1453</ele>
        <time>2021-09-01T09:16:48.000Z</time>
      </trkpt>
      <trkpt lat="44.43111" lon="6.37584">
        <ele>1454</ele>
        <time>2021-09-01T09:16:49.000Z</time>
      </trkpt>
      <trkpt lat="44.43113" lon="6.37586">
        <ele>1455</ele>
        <time>2021-09-01T09:16:50.000Z</time>
      </trkpt>
      <trkpt lat="44.43115" lon="6.37589">
        <ele>1456</ele>
        <time>2021-09-01T09:16:51.000Z</time>
      </trkpt>
      <trkpt lat="44.43116" lon="6.37592">
        <ele>1456</ele>
        <time>2021-09-01T09:16:52.000Z</time>
      </trkpt>
      <trkpt lat="44.43118" lon="6.37594">
        <ele>1457</ele>
        <time>2021-09-01T09:16:53.000Z</time>
      </trkpt>
      <trkpt lat="44.43119" lon="6.37597">
        <ele>1457</ele>
        <time>2021-09-01T09:16:54.000Z</time>
      </trkpt>
      <trkpt lat="44.4312" lon="6.376">
        <ele>1458</ele>
        <time>2021-09-01T09:16:55.000Z</time>
      </trkpt>
      <trkpt lat="44.43121" lon="6.37604">
        <ele>1460</ele>
        <time>2021-09-01T09:16:56.000Z</time>
      </trkpt>
      <trkpt lat="44.43122" lon="6.37606">
        <ele>1460</ele>
        <time>2021-09-01T09:16:57.000Z</time>
      </trkpt>
      <trkpt lat="44.43123" lon="6.37609">
        <ele>1459</ele>
        <time>2021-09-01T09:16:58.000Z</time>
      </trkpt>
      <trkpt lat="44.43124" lon="6.37612">
        <ele>1460</ele>
        <time>2021-09-01T09:16:59.000Z</time>
      </trkpt>
      <trkpt lat="44.43125" lon="6.37614">
        <ele>1459</ele>
        <time>2021-09-01T09:17:00.000Z</time>
      </trkpt>
      <trkpt lat="44.43125" lon="6.37616">
        <ele>1460</ele>
        <time>2021-09-01T09:17:01.000Z</time>
      </trkpt>
      <trkpt lat="44.43126" lon="6.3762">
        <ele>1460</ele>
        <time>2021-09-01T09:17:02.000Z</time>
      </trkpt>
      <trkpt lat="44.43127" lon="6.37622">
        <ele>1460</ele>
        <time>2021-09-01T09:17:03.000Z</time>
      </trkpt>
      <trkpt lat="44.43128" lon="6.37625">
        <ele>1459</ele>
        <time>2021-09-01T09:17:04.000Z</time>
      </trkpt>
      <trkpt lat="44.4313" lon="6.37628">
        <ele>1459</ele>
        <time>2021-09-01T09:17:05.000Z</time>
      </trkpt>
      <trkpt lat="44.43131" lon="6.3763">
        <ele>1461</ele>
        <time>2021-09-01T09:17:06.000Z</time>
      </trkpt>
      <trkpt lat="44.43133" lon="6.37632">
        <ele>1461</ele>
        <time>2021-09-01T09:17:07.000Z</time>
      </trkpt>
      <trkpt lat="44.43135" lon="6.37634">
        <ele>1463</ele>
        <time>2021-09-01T09:17:08.000Z</time>
      </trkpt>
      <trkpt lat="44.43136" lon="6.37638">
        <ele>1464</ele>
        <time>2021-09-01T09:17:09.000Z</time>
      </trkpt>
      <trkpt lat="44.43137" lon="6.37642">
        <ele>1464</ele>
        <time>2021-09-01T09:17:10.000Z</time>
      </trkpt>
      <trkpt lat="44.43138" lon="6.37646">
        <ele>1464</ele>
        <time>2021-09-01T09:17:11.000Z</time>
      </trkpt>
      <trkpt lat="44.43139" lon="6.37649">
        <ele>1464</ele>
        <time>2021-09-01T09:17:12.000Z</time>
      </trkpt>
      <trkpt lat="44.4314" lon="6.37652">
        <ele>1465</ele>
        <time>2021-09-01T09:17:13.000Z</time>
      </trkpt>
      <trkpt lat="44.43141" lon="6.37655">
        <ele>1465</ele>
        <time>2021-09-01T09:17:14.000Z</time>
      </trkpt>
      <trkpt lat="44.43142" lon="6.37657">
        <ele>1464</ele>
        <time>2021-09-01T09:17:15.000Z</time>
      </trkpt>
      <trkpt lat="44.43143" lon="6.3766">
        <ele>1464</ele>
        <time>2021-09-01T09:17:16.000Z</time>
      </trkpt>
      <trkpt lat="44.43145" lon="6.37662">
        <ele>1464</ele>
        <time>2021-09-01T09:17:17.000Z</time>
      </trkpt>
      <trkpt lat="44.43147" lon="6.37664">
        <ele>1466</ele>
        <time>2021-09-01T09:17:18.000Z</time>
      </trkpt>
      <trkpt lat="44.43148" lon="6.37666">
        <ele>1466</ele>
        <time>2021-09-01T09:17:19.000Z</time>
      </trkpt>
      <trkpt lat="44.4315" lon="6.37668">
        <ele>1467</ele>
        <time>2021-09-01T09:17:20.000Z</time>
      </trkpt>
      <trkpt lat="44.43152" lon="6.37669">
        <ele>1468</ele>
        <time>2021-09-01T09:17:21.000Z</time>
      </trkpt>
      <trkpt lat="44.43153" lon="6.3767">
        <ele>1468</ele>
        <time>2021-09-01T09:17:22.000Z</time>
      </trkpt>
      <trkpt lat="44.43155" lon="6.37672">
        <ele>1469</ele>
        <time>2021-09-01T09:17:23.000Z</time>
      </trkpt>
      <trkpt lat="44.43157" lon="6.37674">
        <ele>1471</ele>
        <time>2021-09-01T09:17:24.000Z</time>
      </trkpt>
      <trkpt lat="44.43159" lon="6.37675">
        <ele>1472</ele>
        <time>2021-09-01T09:17:25.000Z</time>
      </trkpt>
      <trkpt lat="44.4316" lon="6.37677">
        <ele>1472</ele>
        <time>2021-09-01T09:17:26.000Z</time>
      </trkpt>
      <trkpt lat="44.43163" lon="6.37679">
        <ele>1473</ele>
        <time>2021-09-01T09:17:27.000Z</time>
      </trkpt>
      <trkpt lat="44.43165" lon="6.37681">
        <ele>1474</ele>
        <time>2021-09-01T09:17:28.000Z</time>
      </trkpt>
      <trkpt lat="44.43167" lon="6.37683">
        <ele>1474</ele>
        <time>2021-09-01T09:17:29.000Z</time>
      </trkpt>
      <trkpt lat="44.43169" lon="6.37686">
        <ele>1473</ele>
        <time>2021-09-01T09:17:30.000Z</time>
      </trkpt>
      <trkpt lat="44.43171" lon="6.37687">
        <ele>1474</ele>
        <time>2021-09-01T09:17:31.000Z</time>
      </trkpt>
      <trkpt lat="44.43172" lon="6.37689">
        <ele>1474</ele>
        <time>2021-09-01T09:17:32.000Z</time>
      </trkpt>
      <trkpt lat="44.43174" lon="6.37692">
        <ele>1475</ele>
        <time>2021-09-01T09:17:33.000Z</time>
      </trkpt>
      <trkpt lat="44.43176" lon="6.37693">
        <ele>1475</ele>
        <time>2021-09-01T09:17:34.000Z</time>
      </trkpt>
      <trkpt lat="44.43178" lon="6.37696">
        <ele>1474</ele>
        <time>2021-09-01T09:17:35.000Z</time>
      </trkpt>
      <trkpt lat="44.4318" lon="6.37698">
        <ele>1475</ele>
        <time>2021-09-01T09:17:36.000Z</time>
      </trkpt>
      <trkpt lat="44.43183" lon="6.377">
        <ele>1476</ele>
        <time>2021-09-01T09:17:37.000Z</time>
      </trkpt>
      <trkpt lat="44.43185" lon="6.37703">
        <ele>1476</ele>
        <time>2021-09-01T09:17:38.000Z</time>
      </trkpt>
      <trkpt lat="44.43187" lon="6.37704">
        <ele>1477</ele>
        <time>2021-09-01T09:17:39.000Z</time>
      </trkpt>
      <trkpt lat="44.43189" lon="6.37706">
        <ele>1477</ele>
        <time>2021-09-01T09:17:40.000Z</time>
      </trkpt>
      <trkpt lat="44.43191" lon="6.37709">
        <ele>1477</ele>
        <time>2021-09-01T09:17:41.000Z</time>
      </trkpt>
      <trkpt lat="44.43193" lon="6.37711">
        <ele>1477</ele>
        <time>2021-09-01T09:17:42.000Z</time>
      </trkpt>
      <trkpt lat="44.43195" lon="6.37713">
        <ele>1477</ele>
        <time>2021-09-01T09:17:43.000Z</time>
      </trkpt>
      <trkpt lat="44.43197" lon="6.37715">
        <ele>1477</ele>
        <time>2021-09-01T09:17:44.000Z</time>
      </trkpt>
      <trkpt lat="44.432" lon="6.37717">
        <ele>1479</ele>
        <time>2021-09-01T09:17:45.000Z</time>
      </trkpt>
      <trkpt lat="44.43202" lon="6.37719">
        <ele>1480</ele>
        <time>2021-09-01T09:17:46.000Z</time>
      </trkpt>
      <trkpt lat="44.43203" lon="6.37721">
        <ele>1480</ele>
        <time>2021-09-01T09:17:47.000Z</time>
      </trkpt>
      <trkpt lat="44.43205" lon="6.37723">
        <ele>1480</ele>
        <time>2021-09-01T09:17:48.000Z</time>
      </trkpt>
      <trkpt lat="44.43208" lon="6.37725">
        <ele>1481</ele>
        <time>2021-09-01T09:17:49.000Z</time>
      </trkpt>
      <trkpt lat="44.4321" lon="6.37727">
        <ele>1481</ele>
        <time>2021-09-01T09:17:50.000Z</time>
      </trkpt>
      <trkpt lat="44.43212" lon="6.3773">
        <ele>1481</ele>
        <time>2021-09-01T09:17:51.000Z</time>
      </trkpt>
      <trkpt lat="44.43214" lon="6.37732">
        <ele>1482</ele>
        <time>2021-09-01T09:17:52.000Z</time>
      </trkpt>
      <trkpt lat="44.43216" lon="6.37734">
        <ele>1482</ele>
        <time>2021-09-01T09:17:53.000Z</time>
      </trkpt>
      <trkpt lat="44.43218" lon="6.37736">
        <ele>1482</ele>
        <time>2021-09-01T09:17:54.000Z</time>
      </trkpt>
      <trkpt lat="44.4322" lon="6.37739">
        <ele>1482</ele>
        <time>2021-09-01T09:17:55.000Z</time>
      </trkpt>
      <trkpt lat="44.43221" lon="6.37741">
        <ele>1482</ele>
        <time>2021-09-01T09:17:56.000Z</time>
      </trkpt>
      <trkpt lat="44.43223" lon="6.37743">
        <ele>1482</ele>
        <time>2021-09-01T09:17:57.000Z</time>
      </trkpt>
      <trkpt lat="44.43225" lon="6.37745">
        <ele>1482</ele>
        <time>2021-09-01T09:17:58.000Z</time>
      </trkpt>
      <trkpt lat="44.43227" lon="6.37747">
        <ele>1483</ele>
        <time>2021-09-01T09:17:59.000Z</time>
      </trkpt>
      <trkpt lat="44.43229" lon="6.3775">
        <ele>1484</ele>
        <time>2021-09-01T09:18:00.000Z</time>
      </trkpt>
      <trkpt lat="44.43231" lon="6.37752">
        <ele>1485</ele>
        <time>2021-09-01T09:18:01.000Z</time>
      </trkpt>
      <trkpt lat="44.43232" lon="6.37755">
        <ele>1485</ele>
        <time>2021-09-01T09:18:02.000Z</time>
      </trkpt>
      <trkpt lat="44.43233" lon="6.37758">
        <ele>1484</ele>
        <time>2021-09-01T09:18:03.000Z</time>
      </trkpt>
      <trkpt lat="44.43235" lon="6.3776">
        <ele>1484</ele>
        <time>2021-09-01T09:18:04.000Z</time>
      </trkpt>
      <trkpt lat="44.43236" lon="6.37763">
        <ele>1483</ele>
        <time>2021-09-01T09:18:05.000Z</time>
      </trkpt>
      <trkpt lat="44.43237" lon="6.37766">
        <ele>1482</ele>
        <time>2021-09-01T09:18:06.000Z</time>
      </trkpt>
      <trkpt lat="44.43238" lon="6.37769">
        <ele>1483</ele>
        <time>2021-09-01T09:18:07.000Z</time>
      </trkpt>
      <trkpt lat="44.43239" lon="6.37773">
        <ele>1483</ele>
        <time>2021-09-01T09:18:08.000Z</time>
      </trkpt>
      <trkpt lat="44.43239" lon="6.37776">
        <ele>1483</ele>
        <time>2021-09-01T09:18:09.000Z</time>
      </trkpt>
      <trkpt lat="44.43239" lon="6.3778">
        <ele>1481</ele>
        <time>2021-09-01T09:18:10.000Z</time>
      </trkpt>
      <trkpt lat="44.43237" lon="6.37787">
        <ele>1479</ele>
        <time>2021-09-01T09:18:11.000Z</time>
      </trkpt>
      <trkpt lat="44.43237" lon="6.3779">
        <ele>1478</ele>
        <time>2021-09-01T09:18:12.000Z</time>
      </trkpt>
      <trkpt lat="44.43237" lon="6.37794">
        <ele>1477</ele>
        <time>2021-09-01T09:18:13.000Z</time>
      </trkpt>
      <trkpt lat="44.43237" lon="6.37797">
        <ele>1476</ele>
        <time>2021-09-01T09:18:14.000Z</time>
      </trkpt>
      <trkpt lat="44.43237" lon="6.37801">
        <ele>1476</ele>
        <time>2021-09-01T09:18:15.000Z</time>
      </trkpt>
      <trkpt lat="44.43236" lon="6.37805">
        <ele>1476</ele>
        <time>2021-09-01T09:18:16.000Z</time>
      </trkpt>
      <trkpt lat="44.43236" lon="6.37809">
        <ele>1475</ele>
        <time>2021-09-01T09:18:17.000Z</time>
      </trkpt>
      <trkpt lat="44.43234" lon="6.37812">
        <ele>1474</ele>
        <time>2021-09-01T09:18:18.000Z</time>
      </trkpt>
      <trkpt lat="44.43234" lon="6.37815">
        <ele>1473</ele>
        <time>2021-09-01T09:18:19.000Z</time>
      </trkpt>
      <trkpt lat="44.43232" lon="6.37818">
        <ele>1473</ele>
        <time>2021-09-01T09:18:20.000Z</time>
      </trkpt>
      <trkpt lat="44.43231" lon="6.37821">
        <ele>1472</ele>
        <time>2021-09-01T09:18:21.000Z</time>
      </trkpt>
      <trkpt lat="44.4323" lon="6.37824">
        <ele>1471</ele>
        <time>2021-09-01T09:18:22.000Z</time>
      </trkpt>
      <trkpt lat="44.4323" lon="6.37827">
        <ele>1470</ele>
        <time>2021-09-01T09:18:23.000Z</time>
      </trkpt>
      <trkpt lat="44.43229" lon="6.3783">
        <ele>1471</ele>
        <time>2021-09-01T09:18:24.000Z</time>
      </trkpt>
      <trkpt lat="44.43229" lon="6.37833">
        <ele>1471</ele>
        <time>2021-09-01T09:18:25.000Z</time>
      </trkpt>
      <trkpt lat="44.43228" lon="6.37837">
        <ele>1471</ele>
        <time>2021-09-01T09:18:26.000Z</time>
      </trkpt>
      <trkpt lat="44.43227" lon="6.37839">
        <ele>1470</ele>
        <time>2021-09-01T09:18:27.000Z</time>
      </trkpt>
      <trkpt lat="44.43226" lon="6.37842">
        <ele>1471</ele>
        <time>2021-09-01T09:18:28.000Z</time>
      </trkpt>
      <trkpt lat="44.43225" lon="6.37845">
        <ele>1471</ele>
        <time>2021-09-01T09:18:29.000Z</time>
      </trkpt>
      <trkpt lat="44.43224" lon="6.37847">
        <ele>1471</ele>
        <time>2021-09-01T09:18:30.000Z</time>
      </trkpt>
      <trkpt lat="44.43223" lon="6.3785">
        <ele>1471</ele>
        <time>2021-09-01T09:18:31.000Z</time>
      </trkpt>
      <trkpt lat="44.43222" lon="6.37852">
        <ele>1472</ele>
        <time>2021-09-01T09:18:32.000Z</time>
      </trkpt>
      <trkpt lat="44.43221" lon="6.37855">
        <ele>1470</ele>
        <time>2021-09-01T09:18:33.000Z</time>
      </trkpt>
      <trkpt lat="44.4322" lon="6.37857">
        <ele>1469</ele>
        <time>2021-09-01T09:18:34.000Z</time>
      </trkpt>
      <trkpt lat="44.43219" lon="6.37859">
        <ele>1469</ele>
        <time>2021-09-01T09:18:35.000Z</time>
      </trkpt>
      <trkpt lat="44.43218" lon="6.37862">
        <ele>1469</ele>
        <time>2021-09-01T09:18:36.000Z</time>
      </trkpt>
      <trkpt lat="44.43216" lon="6.37864">
        <ele>1468</ele>
        <time>2021-09-01T09:18:37.000Z</time>
      </trkpt>
      <trkpt lat="44.43214" lon="6.37866">
        <ele>1469</ele>
        <time>2021-09-01T09:18:38.000Z</time>
      </trkpt>
      <trkpt lat="44.43213" lon="6.37869">
        <ele>1468</ele>
        <time>2021-09-01T09:18:39.000Z</time>
      </trkpt>
      <trkpt lat="44.43212" lon="6.37872">
        <ele>1469</ele>
        <time>2021-09-01T09:18:40.000Z</time>
      </trkpt>
      <trkpt lat="44.43211" lon="6.37874">
        <ele>1471</ele>
        <time>2021-09-01T09:18:41.000Z</time>
      </trkpt>
      <trkpt lat="44.4321" lon="6.37875">
        <ele>1472</ele>
        <time>2021-09-01T09:18:42.000Z</time>
      </trkpt>
      <trkpt lat="44.43208" lon="6.37877">
        <ele>1474</ele>
        <time>2021-09-01T09:18:43.000Z</time>
      </trkpt>
      <trkpt lat="44.43207" lon="6.37879">
        <ele>1474</ele>
        <time>2021-09-01T09:18:44.000Z</time>
      </trkpt>
      <trkpt lat="44.43206" lon="6.37881">
        <ele>1475</ele>
        <time>2021-09-01T09:18:45.000Z</time>
      </trkpt>
      <trkpt lat="44.43205" lon="6.37883">
        <ele>1475</ele>
        <time>2021-09-01T09:18:46.000Z</time>
      </trkpt>
      <trkpt lat="44.43204" lon="6.37885">
        <ele>1474</ele>
        <time>2021-09-01T09:18:47.000Z</time>
      </trkpt>
      <trkpt lat="44.43202" lon="6.37887">
        <ele>1474</ele>
        <time>2021-09-01T09:18:48.000Z</time>
      </trkpt>
      <trkpt lat="44.43201" lon="6.3789">
        <ele>1475</ele>
        <time>2021-09-01T09:18:49.000Z</time>
      </trkpt>
      <trkpt lat="44.43199" lon="6.37893">
        <ele>1475</ele>
        <time>2021-09-01T09:18:50.000Z</time>
      </trkpt>
      <trkpt lat="44.43198" lon="6.37895">
        <ele>1476</ele>
        <time>2021-09-01T09:18:51.000Z</time>
      </trkpt>
      <trkpt lat="44.43196" lon="6.37896">
        <ele>1476</ele>
        <time>2021-09-01T09:18:52.000Z</time>
      </trkpt>
      <trkpt lat="44.43194" lon="6.37898">
        <ele>1475</ele>
        <time>2021-09-01T09:18:53.000Z</time>
      </trkpt>
      <trkpt lat="44.43193" lon="6.379">
        <ele>1475</ele>
        <time>2021-09-01T09:18:54.000Z</time>
      </trkpt>
      <trkpt lat="44.43191" lon="6.37901">
        <ele>1476</ele>
        <time>2021-09-01T09:18:55.000Z</time>
      </trkpt>
      <trkpt lat="44.4319" lon="6.37902">
        <ele>1476</ele>
        <time>2021-09-01T09:18:56.000Z</time>
      </trkpt>
      <trkpt lat="44.43188" lon="6.37904">
        <ele>1477</ele>
        <time>2021-09-01T09:18:57.000Z</time>
      </trkpt>
      <trkpt lat="44.43185" lon="6.37907">
        <ele>1478</ele>
        <time>2021-09-01T09:18:58.000Z</time>
      </trkpt>
      <trkpt lat="44.43181" lon="6.37909">
        <ele>1479</ele>
        <time>2021-09-01T09:18:59.000Z</time>
      </trkpt>
      <trkpt lat="44.43179" lon="6.37912">
        <ele>1481</ele>
        <time>2021-09-01T09:19:00.000Z</time>
      </trkpt>
      <trkpt lat="44.43177" lon="6.37913">
        <ele>1483</ele>
        <time>2021-09-01T09:19:01.000Z</time>
      </trkpt>
      <trkpt lat="44.43175" lon="6.37915">
        <ele>1485</ele>
        <time>2021-09-01T09:19:02.000Z</time>
      </trkpt>
      <trkpt lat="44.43174" lon="6.37918">
        <ele>1487</ele>
        <time>2021-09-01T09:19:03.000Z</time>
      </trkpt>
      <trkpt lat="44.43173" lon="6.37921">
        <ele>1488</ele>
        <time>2021-09-01T09:19:04.000Z</time>
      </trkpt>
      <trkpt lat="44.43172" lon="6.37924">
        <ele>1490</ele>
        <time>2021-09-01T09:19:05.000Z</time>
      </trkpt>
      <trkpt lat="44.43171" lon="6.37927">
        <ele>1490</ele>
        <time>2021-09-01T09:19:06.000Z</time>
      </trkpt>
      <trkpt lat="44.4317" lon="6.3793">
        <ele>1489</ele>
        <time>2021-09-01T09:19:07.000Z</time>
      </trkpt>
      <trkpt lat="44.43168" lon="6.37933">
        <ele>1489</ele>
        <time>2021-09-01T09:19:08.000Z</time>
      </trkpt>
      <trkpt lat="44.43166" lon="6.37938">
        <ele>1486</ele>
        <time>2021-09-01T09:19:09.000Z</time>
      </trkpt>
      <trkpt lat="44.43165" lon="6.3794">
        <ele>1485</ele>
        <time>2021-09-01T09:19:10.000Z</time>
      </trkpt>
      <trkpt lat="44.43163" lon="6.37943">
        <ele>1486</ele>
        <time>2021-09-01T09:19:11.000Z</time>
      </trkpt>
      <trkpt lat="44.43163" lon="6.37946">
        <ele>1487</ele>
        <time>2021-09-01T09:19:12.000Z</time>
      </trkpt>
      <trkpt lat="44.43162" lon="6.37949">
        <ele>1488</ele>
        <time>2021-09-01T09:19:13.000Z</time>
      </trkpt>
      <trkpt lat="44.43162" lon="6.37951">
        <ele>1488</ele>
        <time>2021-09-01T09:19:14.000Z</time>
      </trkpt>
      <trkpt lat="44.43161" lon="6.37954">
        <ele>1488</ele>
        <time>2021-09-01T09:19:15.000Z</time>
      </trkpt>
      <trkpt lat="44.43161" lon="6.37956">
        <ele>1488</ele>
        <time>2021-09-01T09:19:16.000Z</time>
      </trkpt>
      <trkpt lat="44.4316" lon="6.37959">
        <ele>1489</ele>
        <time>2021-09-01T09:19:17.000Z</time>
      </trkpt>
      <trkpt lat="44.43159" lon="6.37962">
        <ele>1491</ele>
        <time>2021-09-01T09:19:18.000Z</time>
      </trkpt>
      <trkpt lat="44.43159" lon="6.37965">
        <ele>1492</ele>
        <time>2021-09-01T09:19:19.000Z</time>
      </trkpt>
      <trkpt lat="44.43158" lon="6.37968">
        <ele>1493</ele>
        <time>2021-09-01T09:19:20.000Z</time>
      </trkpt>
      <trkpt lat="44.43159" lon="6.37971">
        <ele>1493</ele>
        <time>2021-09-01T09:19:21.000Z</time>
      </trkpt>
      <trkpt lat="44.43159" lon="6.37974">
        <ele>1494</ele>
        <time>2021-09-01T09:19:22.000Z</time>
      </trkpt>
      <trkpt lat="44.43159" lon="6.37976">
        <ele>1495</ele>
        <time>2021-09-01T09:19:23.000Z</time>
      </trkpt>
      <trkpt lat="44.4316" lon="6.37979">
        <ele>1496</ele>
        <time>2021-09-01T09:19:24.000Z</time>
      </trkpt>
      <trkpt lat="44.4316" lon="6.37982">
        <ele>1496</ele>
        <time>2021-09-01T09:19:25.000Z</time>
      </trkpt>
      <trkpt lat="44.43162" lon="6.37985">
        <ele>1496</ele>
        <time>2021-09-01T09:19:26.000Z</time>
      </trkpt>
      <trkpt lat="44.43163" lon="6.37988">
        <ele>1497</ele>
        <time>2021-09-01T09:19:27.000Z</time>
      </trkpt>
      <trkpt lat="44.43164" lon="6.37991">
        <ele>1497</ele>
        <time>2021-09-01T09:19:28.000Z</time>
      </trkpt>
      <trkpt lat="44.43163" lon="6.37995">
        <ele>1496</ele>
        <time>2021-09-01T09:19:29.000Z</time>
      </trkpt>
      <trkpt lat="44.43163" lon="6.37998">
        <ele>1496</ele>
        <time>2021-09-01T09:19:30.000Z</time>
      </trkpt>
      <trkpt lat="44.43163" lon="6.38001">
        <ele>1497</ele>
        <time>2021-09-01T09:19:31.000Z</time>
      </trkpt>
      <trkpt lat="44.43162" lon="6.38003">
        <ele>1496</ele>
        <time>2021-09-01T09:19:32.000Z</time>
      </trkpt>
      <trkpt lat="44.43161" lon="6.38006">
        <ele>1495</ele>
        <time>2021-09-01T09:19:33.000Z</time>
      </trkpt>
      <trkpt lat="44.4316" lon="6.38009">
        <ele>1493</ele>
        <time>2021-09-01T09:19:34.000Z</time>
      </trkpt>
      <trkpt lat="44.43159" lon="6.38015">
        <ele>1495</ele>
        <time>2021-09-01T09:19:35.000Z</time>
      </trkpt>
      <trkpt lat="44.43159" lon="6.3802">
        <ele>1496</ele>
        <time>2021-09-01T09:19:36.000Z</time>
      </trkpt>
      <trkpt lat="44.43159" lon="6.38024">
        <ele>1497</ele>
        <time>2021-09-01T09:19:37.000Z</time>
      </trkpt>
      <trkpt lat="44.43159" lon="6.38027">
        <ele>1497</ele>
        <time>2021-09-01T09:19:38.000Z</time>
      </trkpt>
      <trkpt lat="44.43158" lon="6.3803">
        <ele>1496</ele>
        <time>2021-09-01T09:19:39.000Z</time>
      </trkpt>
      <trkpt lat="44.43157" lon="6.38033">
        <ele>1497</ele>
        <time>2021-09-01T09:19:40.000Z</time>
      </trkpt>
      <trkpt lat="44.43156" lon="6.38036">
        <ele>1497</ele>
        <time>2021-09-01T09:19:41.000Z</time>
      </trkpt>
      <trkpt lat="44.43155" lon="6.38039">
        <ele>1497</ele>
        <time>2021-09-01T09:19:42.000Z</time>
      </trkpt>
      <trkpt lat="44.43156" lon="6.38043">
        <ele>1497</ele>
        <time>2021-09-01T09:19:43.000Z</time>
      </trkpt>
      <trkpt lat="44.43157" lon="6.38046">
        <ele>1498</ele>
        <time>2021-09-01T09:19:44.000Z</time>
      </trkpt>
      <trkpt lat="44.43157" lon="6.3805">
        <ele>1499</ele>
        <time>2021-09-01T09:19:45.000Z</time>
      </trkpt>
      <trkpt lat="44.43156" lon="6.38054">
        <ele>1499</ele>
        <time>2021-09-01T09:19:46.000Z</time>
      </trkpt>
      <trkpt lat="44.43155" lon="6.38057">
        <ele>1500</ele>
        <time>2021-09-01T09:19:47.000Z</time>
      </trkpt>
      <trkpt lat="44.43155" lon="6.38061">
        <ele>1500</ele>
        <time>2021-09-01T09:19:48.000Z</time>
      </trkpt>
      <trkpt lat="44.43155" lon="6.38065">
        <ele>1500</ele>
        <time>2021-09-01T09:19:49.000Z</time>
      </trkpt>
      <trkpt lat="44.43154" lon="6.38068">
        <ele>1500</ele>
        <time>2021-09-01T09:19:50.000Z</time>
      </trkpt>
      <trkpt lat="44.43154" lon="6.38071">
        <ele>1500</ele>
        <time>2021-09-01T09:19:51.000Z</time>
      </trkpt>
      <trkpt lat="44.43153" lon="6.38074">
        <ele>1500</ele>
        <time>2021-09-01T09:19:52.000Z</time>
      </trkpt>
      <trkpt lat="44.43153" lon="6.38076">
        <ele>1499</ele>
        <time>2021-09-01T09:19:53.000Z</time>
      </trkpt>
      <trkpt lat="44.43152" lon="6.38079">
        <ele>1499</ele>
        <time>2021-09-01T09:19:54.000Z</time>
      </trkpt>
      <trkpt lat="44.4315" lon="6.38082">
        <ele>1499</ele>
        <time>2021-09-01T09:19:55.000Z</time>
      </trkpt>
      <trkpt lat="44.43149" lon="6.38084">
        <ele>1499</ele>
        <time>2021-09-01T09:19:56.000Z</time>
      </trkpt>
      <trkpt lat="44.43147" lon="6.38087">
        <ele>1499</ele>
        <time>2021-09-01T09:19:57.000Z</time>
      </trkpt>
      <trkpt lat="44.43146" lon="6.3809">
        <ele>1499</ele>
        <time>2021-09-01T09:19:58.000Z</time>
      </trkpt>
      <trkpt lat="44.43145" lon="6.38093">
        <ele>1499</ele>
        <time>2021-09-01T09:19:59.000Z</time>
      </trkpt>
      <trkpt lat="44.43145" lon="6.38096">
        <ele>1500</ele>
        <time>2021-09-01T09:20:00.000Z</time>
      </trkpt>
      <trkpt lat="44.43144" lon="6.38098">
        <ele>1501</ele>
        <time>2021-09-01T09:20:01.000Z</time>
      </trkpt>
      <trkpt lat="44.43142" lon="6.381">
        <ele>1501</ele>
        <time>2021-09-01T09:20:02.000Z</time>
      </trkpt>
      <trkpt lat="44.4314" lon="6.38102">
        <ele>1502</ele>
        <time>2021-09-01T09:20:03.000Z</time>
      </trkpt>
      <trkpt lat="44.43139" lon="6.38104">
        <ele>1503</ele>
        <time>2021-09-01T09:20:04.000Z</time>
      </trkpt>
      <trkpt lat="44.43137" lon="6.38107">
        <ele>1504</ele>
        <time>2021-09-01T09:20:05.000Z</time>
      </trkpt>
      <trkpt lat="44.43135" lon="6.38108">
        <ele>1505</ele>
        <time>2021-09-01T09:20:06.000Z</time>
      </trkpt>
      <trkpt lat="44.43133" lon="6.3811">
        <ele>1506</ele>
        <time>2021-09-01T09:20:07.000Z</time>
      </trkpt>
      <trkpt lat="44.43131" lon="6.38111">
        <ele>1508</ele>
        <time>2021-09-01T09:20:08.000Z</time>
      </trkpt>
      <trkpt lat="44.43129" lon="6.38112">
        <ele>1508</ele>
        <time>2021-09-01T09:20:09.000Z</time>
      </trkpt>
      <trkpt lat="44.43127" lon="6.38113">
        <ele>1509</ele>
        <time>2021-09-01T09:20:10.000Z</time>
      </trkpt>
      <trkpt lat="44.43125" lon="6.38114">
        <ele>1509</ele>
        <time>2021-09-01T09:20:11.000Z</time>
      </trkpt>
      <trkpt lat="44.43123" lon="6.38115">
        <ele>1509</ele>
        <time>2021-09-01T09:20:12.000Z</time>
      </trkpt>
      <trkpt lat="44.43121" lon="6.38116">
        <ele>1509</ele>
        <time>2021-09-01T09:20:13.000Z</time>
      </trkpt>
      <trkpt lat="44.43119" lon="6.38117">
        <ele>1510</ele>
        <time>2021-09-01T09:20:14.000Z</time>
      </trkpt>
      <trkpt lat="44.43117" lon="6.38118">
        <ele>1511</ele>
        <time>2021-09-01T09:20:15.000Z</time>
      </trkpt>
      <trkpt lat="44.43115" lon="6.38119">
        <ele>1511</ele>
        <time>2021-09-01T09:20:16.000Z</time>
      </trkpt>
      <trkpt lat="44.43112" lon="6.3812">
        <ele>1511</ele>
        <time>2021-09-01T09:20:17.000Z</time>
      </trkpt>
      <trkpt lat="44.4311" lon="6.38121">
        <ele>1511</ele>
        <time>2021-09-01T09:20:18.000Z</time>
      </trkpt>
      <trkpt lat="44.43108" lon="6.38121">
        <ele>1511</ele>
        <time>2021-09-01T09:20:19.000Z</time>
      </trkpt>
      <trkpt lat="44.43105" lon="6.38122">
        <ele>1512</ele>
        <time>2021-09-01T09:20:20.000Z</time>
      </trkpt>
      <trkpt lat="44.43103" lon="6.38123">
        <ele>1512</ele>
        <time>2021-09-01T09:20:21.000Z</time>
      </trkpt>
      <trkpt lat="44.43101" lon="6.38125">
        <ele>1511</ele>
        <time>2021-09-01T09:20:22.000Z</time>
      </trkpt>
      <trkpt lat="44.43098" lon="6.38126">
        <ele>1511</ele>
        <time>2021-09-01T09:20:23.000Z</time>
      </trkpt>
      <trkpt lat="44.43096" lon="6.38127">
        <ele>1511</ele>
        <time>2021-09-01T09:20:24.000Z</time>
      </trkpt>
      <trkpt lat="44.43094" lon="6.38127">
        <ele>1512</ele>
        <time>2021-09-01T09:20:25.000Z</time>
      </trkpt>
      <trkpt lat="44.43091" lon="6.38128">
        <ele>1512</ele>
        <time>2021-09-01T09:20:26.000Z</time>
      </trkpt>
      <trkpt lat="44.43089" lon="6.3813">
        <ele>1511</ele>
        <time>2021-09-01T09:20:27.000Z</time>
      </trkpt>
      <trkpt lat="44.43086" lon="6.38131">
        <ele>1511</ele>
        <time>2021-09-01T09:20:28.000Z</time>
      </trkpt>
      <trkpt lat="44.43084" lon="6.38132">
        <ele>1511</ele>
        <time>2021-09-01T09:20:29.000Z</time>
      </trkpt>
      <trkpt lat="44.43082" lon="6.38133">
        <ele>1511</ele>
        <time>2021-09-01T09:20:30.000Z</time>
      </trkpt>
      <trkpt lat="44.4308" lon="6.38135">
        <ele>1511</ele>
        <time>2021-09-01T09:20:31.000Z</time>
      </trkpt>
      <trkpt lat="44.43078" lon="6.38136">
        <ele>1511</ele>
        <time>2021-09-01T09:20:32.000Z</time>
      </trkpt>
      <trkpt lat="44.43076" lon="6.38137">
        <ele>1512</ele>
        <time>2021-09-01T09:20:33.000Z</time>
      </trkpt>
      <trkpt lat="44.43073" lon="6.38138">
        <ele>1511</ele>
        <time>2021-09-01T09:20:34.000Z</time>
      </trkpt>
      <trkpt lat="44.43071" lon="6.3814">
        <ele>1512</ele>
        <time>2021-09-01T09:20:35.000Z</time>
      </trkpt>
      <trkpt lat="44.43069" lon="6.3814">
        <ele>1511</ele>
        <time>2021-09-01T09:20:36.000Z</time>
      </trkpt>
      <trkpt lat="44.43067" lon="6.38142">
        <ele>1511</ele>
        <time>2021-09-01T09:20:37.000Z</time>
      </trkpt>
      <trkpt lat="44.43064" lon="6.38143">
        <ele>1511</ele>
        <time>2021-09-01T09:20:38.000Z</time>
      </trkpt>
      <trkpt lat="44.43062" lon="6.38143">
        <ele>1511</ele>
        <time>2021-09-01T09:20:39.000Z</time>
      </trkpt>
      <trkpt lat="44.4306" lon="6.38144">
        <ele>1512</ele>
        <time>2021-09-01T09:20:40.000Z</time>
      </trkpt>
      <trkpt lat="44.43058" lon="6.38145">
        <ele>1512</ele>
        <time>2021-09-01T09:20:41.000Z</time>
      </trkpt>
      <trkpt lat="44.43056" lon="6.38146">
        <ele>1514</ele>
        <time>2021-09-01T09:20:42.000Z</time>
      </trkpt>
      <trkpt lat="44.43053" lon="6.38146">
        <ele>1515</ele>
        <time>2021-09-01T09:20:43.000Z</time>
      </trkpt>
      <trkpt lat="44.4305" lon="6.38145">
        <ele>1515</ele>
        <time>2021-09-01T09:20:44.000Z</time>
      </trkpt>
      <trkpt lat="44.43048" lon="6.38146">
        <ele>1517</ele>
        <time>2021-09-01T09:20:45.000Z</time>
      </trkpt>
      <trkpt lat="44.43046" lon="6.38146">
        <ele>1517</ele>
        <time>2021-09-01T09:20:46.000Z</time>
      </trkpt>
      <trkpt lat="44.43045" lon="6.38146">
        <ele>1518</ele>
        <time>2021-09-01T09:20:47.000Z</time>
      </trkpt>
      <trkpt lat="44.43042" lon="6.38146">
        <ele>1518</ele>
        <time>2021-09-01T09:20:48.000Z</time>
      </trkpt>
      <trkpt lat="44.43041" lon="6.38146">
        <ele>1519</ele>
        <time>2021-09-01T09:20:49.000Z</time>
      </trkpt>
      <trkpt lat="44.43038" lon="6.38146">
        <ele>1519</ele>
        <time>2021-09-01T09:20:50.000Z</time>
      </trkpt>
      <trkpt lat="44.43037" lon="6.38145">
        <ele>1519</ele>
        <time>2021-09-01T09:20:51.000Z</time>
      </trkpt>
      <trkpt lat="44.43035" lon="6.38145">
        <ele>1519</ele>
        <time>2021-09-01T09:20:52.000Z</time>
      </trkpt>
      <trkpt lat="44.43033" lon="6.38145">
        <ele>1520</ele>
        <time>2021-09-01T09:20:53.000Z</time>
      </trkpt>
      <trkpt lat="44.43031" lon="6.38145">
        <ele>1520</ele>
        <time>2021-09-01T09:20:54.000Z</time>
      </trkpt>
      <trkpt lat="44.4303" lon="6.38144">
        <ele>1521</ele>
        <time>2021-09-01T09:20:55.000Z</time>
      </trkpt>
      <trkpt lat="44.43028" lon="6.38143">
        <ele>1521</ele>
        <time>2021-09-01T09:20:56.000Z</time>
      </trkpt>
      <trkpt lat="44.43027" lon="6.38143">
        <ele>1522</ele>
        <time>2021-09-01T09:20:57.000Z</time>
      </trkpt>
      <trkpt lat="44.43025" lon="6.38142">
        <ele>1521</ele>
        <time>2021-09-01T09:20:58.000Z</time>
      </trkpt>
      <trkpt lat="44.43023" lon="6.38141">
        <ele>1523</ele>
        <time>2021-09-01T09:20:59.000Z</time>
      </trkpt>
      <trkpt lat="44.43021" lon="6.38142">
        <ele>1522</ele>
        <time>2021-09-01T09:21:00.000Z</time>
      </trkpt>
      <trkpt lat="44.43019" lon="6.38141">
        <ele>1522</ele>
        <time>2021-09-01T09:21:01.000Z</time>
      </trkpt>
      <trkpt lat="44.43016" lon="6.38141">
        <ele>1521</ele>
        <time>2021-09-01T09:21:02.000Z</time>
      </trkpt>
      <trkpt lat="44.43014" lon="6.38141">
        <ele>1521</ele>
        <time>2021-09-01T09:21:03.000Z</time>
      </trkpt>
      <trkpt lat="44.43011" lon="6.38142">
        <ele>1522</ele>
        <time>2021-09-01T09:21:04.000Z</time>
      </trkpt>
      <trkpt lat="44.43009" lon="6.38142">
        <ele>1523</ele>
        <time>2021-09-01T09:21:05.000Z</time>
      </trkpt>
      <trkpt lat="44.43007" lon="6.38143">
        <ele>1523</ele>
        <time>2021-09-01T09:21:06.000Z</time>
      </trkpt>
      <trkpt lat="44.43005" lon="6.38143">
        <ele>1523</ele>
        <time>2021-09-01T09:21:07.000Z</time>
      </trkpt>
      <trkpt lat="44.43003" lon="6.38144">
        <ele>1522</ele>
        <time>2021-09-01T09:21:08.000Z</time>
      </trkpt>
      <trkpt lat="44.43002" lon="6.38145">
        <ele>1522</ele>
        <time>2021-09-01T09:21:09.000Z</time>
      </trkpt>
      <trkpt lat="44.43" lon="6.38145">
        <ele>1523</ele>
        <time>2021-09-01T09:21:10.000Z</time>
      </trkpt>
      <trkpt lat="44.42998" lon="6.38146">
        <ele>1523</ele>
        <time>2021-09-01T09:21:11.000Z</time>
      </trkpt>
      <trkpt lat="44.42996" lon="6.38148">
        <ele>1523</ele>
        <time>2021-09-01T09:21:12.000Z</time>
      </trkpt>
      <trkpt lat="44.42994" lon="6.38149">
        <ele>1523</ele>
        <time>2021-09-01T09:21:13.000Z</time>
      </trkpt>
      <trkpt lat="44.42992" lon="6.3815">
        <ele>1524</ele>
        <time>2021-09-01T09:21:14.000Z</time>
      </trkpt>
      <trkpt lat="44.4299" lon="6.3815">
        <ele>1525</ele>
        <time>2021-09-01T09:21:15.000Z</time>
      </trkpt>
      <trkpt lat="44.42987" lon="6.38151">
        <ele>1524</ele>
        <time>2021-09-01T09:21:16.000Z</time>
      </trkpt>
      <trkpt lat="44.42985" lon="6.38152">
        <ele>1525</ele>
        <time>2021-09-01T09:21:17.000Z</time>
      </trkpt>
      <trkpt lat="44.42983" lon="6.38153">
        <ele>1524</ele>
        <time>2021-09-01T09:21:18.000Z</time>
      </trkpt>
      <trkpt lat="44.42981" lon="6.38154">
        <ele>1525</ele>
        <time>2021-09-01T09:21:19.000Z</time>
      </trkpt>
      <trkpt lat="44.42978" lon="6.38155">
        <ele>1524</ele>
        <time>2021-09-01T09:21:20.000Z</time>
      </trkpt>
      <trkpt lat="44.42977" lon="6.38156">
        <ele>1525</ele>
        <time>2021-09-01T09:21:21.000Z</time>
      </trkpt>
      <trkpt lat="44.42974" lon="6.38156">
        <ele>1525</ele>
        <time>2021-09-01T09:21:22.000Z</time>
      </trkpt>
      <trkpt lat="44.42972" lon="6.38158">
        <ele>1525</ele>
        <time>2021-09-01T09:21:23.000Z</time>
      </trkpt>
      <trkpt lat="44.42971" lon="6.38158">
        <ele>1525</ele>
        <time>2021-09-01T09:21:24.000Z</time>
      </trkpt>
      <trkpt lat="44.4297" lon="6.38158">
        <ele>1525</ele>
        <time>2021-09-01T09:21:25.000Z</time>
      </trkpt>
      <trkpt lat="44.42968" lon="6.38159">
        <ele>1524</ele>
        <time>2021-09-01T09:21:26.000Z</time>
      </trkpt>
      <trkpt lat="44.42966" lon="6.3816">
        <ele>1523</ele>
        <time>2021-09-01T09:21:27.000Z</time>
      </trkpt>
      <trkpt lat="44.42964" lon="6.38162">
        <ele>1524</ele>
        <time>2021-09-01T09:21:28.000Z</time>
      </trkpt>
      <trkpt lat="44.42962" lon="6.38164">
        <ele>1525</ele>
        <time>2021-09-01T09:21:29.000Z</time>
      </trkpt>
      <trkpt lat="44.42959" lon="6.38169">
        <ele>1529</ele>
        <time>2021-09-01T09:21:30.000Z</time>
      </trkpt>
      <trkpt lat="44.42957" lon="6.38171">
        <ele>1530</ele>
        <time>2021-09-01T09:21:31.000Z</time>
      </trkpt>
      <trkpt lat="44.42954" lon="6.38173">
        <ele>1532</ele>
        <time>2021-09-01T09:21:32.000Z</time>
      </trkpt>
      <trkpt lat="44.42952" lon="6.38174">
        <ele>1531</ele>
        <time>2021-09-01T09:21:33.000Z</time>
      </trkpt>
      <trkpt lat="44.4295" lon="6.38176">
        <ele>1529</ele>
        <time>2021-09-01T09:21:34.000Z</time>
      </trkpt>
      <trkpt lat="44.42948" lon="6.38178">
        <ele>1528</ele>
        <time>2021-09-01T09:21:35.000Z</time>
      </trkpt>
      <trkpt lat="44.42946" lon="6.3818">
        <ele>1527</ele>
        <time>2021-09-01T09:21:36.000Z</time>
      </trkpt>
      <trkpt lat="44.42944" lon="6.38182">
        <ele>1526</ele>
        <time>2021-09-01T09:21:37.000Z</time>
      </trkpt>
      <trkpt lat="44.42943" lon="6.38185">
        <ele>1527</ele>
        <time>2021-09-01T09:21:38.000Z</time>
      </trkpt>
      <trkpt lat="44.42941" lon="6.38188">
        <ele>1527</ele>
        <time>2021-09-01T09:21:39.000Z</time>
      </trkpt>
      <trkpt lat="44.4294" lon="6.3819">
        <ele>1527</ele>
        <time>2021-09-01T09:21:40.000Z</time>
      </trkpt>
      <trkpt lat="44.42938" lon="6.38193">
        <ele>1527</ele>
        <time>2021-09-01T09:21:41.000Z</time>
      </trkpt>
      <trkpt lat="44.42937" lon="6.38196">
        <ele>1528</ele>
        <time>2021-09-01T09:21:42.000Z</time>
      </trkpt>
      <trkpt lat="44.42936" lon="6.38199">
        <ele>1528</ele>
        <time>2021-09-01T09:21:43.000Z</time>
      </trkpt>
      <trkpt lat="44.42935" lon="6.38202">
        <ele>1529</ele>
        <time>2021-09-01T09:21:44.000Z</time>
      </trkpt>
      <trkpt lat="44.42935" lon="6.38205">
        <ele>1529</ele>
        <time>2021-09-01T09:21:45.000Z</time>
      </trkpt>
      <trkpt lat="44.42936" lon="6.38209">
        <ele>1530</ele>
        <time>2021-09-01T09:21:46.000Z</time>
      </trkpt>
      <trkpt lat="44.42937" lon="6.38213">
        <ele>1530</ele>
        <time>2021-09-01T09:21:47.000Z</time>
      </trkpt>
      <trkpt lat="44.42937" lon="6.38215">
        <ele>1529</ele>
        <time>2021-09-01T09:21:48.000Z</time>
      </trkpt>
      <trkpt lat="44.42937" lon="6.38219">
        <ele>1529</ele>
        <time>2021-09-01T09:21:49.000Z</time>
      </trkpt>
      <trkpt lat="44.42938" lon="6.38221">
        <ele>1528</ele>
        <time>2021-09-01T09:21:50.000Z</time>
      </trkpt>
      <trkpt lat="44.42938" lon="6.38224">
        <ele>1528</ele>
        <time>2021-09-01T09:21:51.000Z</time>
      </trkpt>
      <trkpt lat="44.42939" lon="6.38226">
        <ele>1529</ele>
        <time>2021-09-01T09:21:52.000Z</time>
      </trkpt>
      <trkpt lat="44.4294" lon="6.38229">
        <ele>1529</ele>
        <time>2021-09-01T09:21:53.000Z</time>
      </trkpt>
      <trkpt lat="44.42941" lon="6.38231">
        <ele>1530</ele>
        <time>2021-09-01T09:21:54.000Z</time>
      </trkpt>
      <trkpt lat="44.42943" lon="6.38233">
        <ele>1531</ele>
        <time>2021-09-01T09:21:55.000Z</time>
      </trkpt>
      <trkpt lat="44.42944" lon="6.38235">
        <ele>1531</ele>
        <time>2021-09-01T09:21:56.000Z</time>
      </trkpt>
      <trkpt lat="44.42946" lon="6.38238">
        <ele>1532</ele>
        <time>2021-09-01T09:21:57.000Z</time>
      </trkpt>
      <trkpt lat="44.42948" lon="6.3824">
        <ele>1534</ele>
        <time>2021-09-01T09:21:58.000Z</time>
      </trkpt>
      <trkpt lat="44.42949" lon="6.38243">
        <ele>1535</ele>
        <time>2021-09-01T09:21:59.000Z</time>
      </trkpt>
      <trkpt lat="44.42952" lon="6.38246">
        <ele>1536</ele>
        <time>2021-09-01T09:22:00.000Z</time>
      </trkpt>
      <trkpt lat="44.42953" lon="6.38248">
        <ele>1537</ele>
        <time>2021-09-01T09:22:01.000Z</time>
      </trkpt>
      <trkpt lat="44.42954" lon="6.3825">
        <ele>1537</ele>
        <time>2021-09-01T09:22:02.000Z</time>
      </trkpt>
      <trkpt lat="44.42955" lon="6.38253">
        <ele>1538</ele>
        <time>2021-09-01T09:22:03.000Z</time>
      </trkpt>
      <trkpt lat="44.42956" lon="6.38255">
        <ele>1538</ele>
        <time>2021-09-01T09:22:04.000Z</time>
      </trkpt>
      <trkpt lat="44.42957" lon="6.38258">
        <ele>1537</ele>
        <time>2021-09-01T09:22:05.000Z</time>
      </trkpt>
      <trkpt lat="44.42957" lon="6.38261">
        <ele>1537</ele>
        <time>2021-09-01T09:22:06.000Z</time>
      </trkpt>
      <trkpt lat="44.42956" lon="6.38266">
        <ele>1537</ele>
        <time>2021-09-01T09:22:07.000Z</time>
      </trkpt>
      <trkpt lat="44.42956" lon="6.38269">
        <ele>1536</ele>
        <time>2021-09-01T09:22:08.000Z</time>
      </trkpt>
      <trkpt lat="44.42955" lon="6.38273">
        <ele>1535</ele>
        <time>2021-09-01T09:22:09.000Z</time>
      </trkpt>
      <trkpt lat="44.42954" lon="6.38277">
        <ele>1535</ele>
        <time>2021-09-01T09:22:10.000Z</time>
      </trkpt>
      <trkpt lat="44.42954" lon="6.3828">
        <ele>1535</ele>
        <time>2021-09-01T09:22:11.000Z</time>
      </trkpt>
      <trkpt lat="44.42954" lon="6.38283">
        <ele>1535</ele>
        <time>2021-09-01T09:22:12.000Z</time>
      </trkpt>
      <trkpt lat="44.42953" lon="6.38286">
        <ele>1535</ele>
        <time>2021-09-01T09:22:13.000Z</time>
      </trkpt>
      <trkpt lat="44.42952" lon="6.3829">
        <ele>1535</ele>
        <time>2021-09-01T09:22:14.000Z</time>
      </trkpt>
      <trkpt lat="44.42953" lon="6.38293">
        <ele>1535</ele>
        <time>2021-09-01T09:22:15.000Z</time>
      </trkpt>
      <trkpt lat="44.42952" lon="6.38295">
        <ele>1534</ele>
        <time>2021-09-01T09:22:16.000Z</time>
      </trkpt>
      <trkpt lat="44.42951" lon="6.38298">
        <ele>1534</ele>
        <time>2021-09-01T09:22:17.000Z</time>
      </trkpt>
      <trkpt lat="44.42951" lon="6.38302">
        <ele>1535</ele>
        <time>2021-09-01T09:22:18.000Z</time>
      </trkpt>
      <trkpt lat="44.4295" lon="6.38305">
        <ele>1535</ele>
        <time>2021-09-01T09:22:19.000Z</time>
      </trkpt>
      <trkpt lat="44.4295" lon="6.38309">
        <ele>1536</ele>
        <time>2021-09-01T09:22:20.000Z</time>
      </trkpt>
      <trkpt lat="44.42949" lon="6.38313">
        <ele>1536</ele>
        <time>2021-09-01T09:22:21.000Z</time>
      </trkpt>
      <trkpt lat="44.42949" lon="6.38316">
        <ele>1536</ele>
        <time>2021-09-01T09:22:22.000Z</time>
      </trkpt>
      <trkpt lat="44.42948" lon="6.38319">
        <ele>1536</ele>
        <time>2021-09-01T09:22:23.000Z</time>
      </trkpt>
      <trkpt lat="44.42948" lon="6.38322">
        <ele>1537</ele>
        <time>2021-09-01T09:22:24.000Z</time>
      </trkpt>
      <trkpt lat="44.42948" lon="6.38325">
        <ele>1538</ele>
        <time>2021-09-01T09:22:25.000Z</time>
      </trkpt>
      <trkpt lat="44.42947" lon="6.38328">
        <ele>1538</ele>
        <time>2021-09-01T09:22:26.000Z</time>
      </trkpt>
      <trkpt lat="44.42947" lon="6.38332">
        <ele>1538</ele>
        <time>2021-09-01T09:22:27.000Z</time>
      </trkpt>
      <trkpt lat="44.42946" lon="6.38334">
        <ele>1539</ele>
        <time>2021-09-01T09:22:28.000Z</time>
      </trkpt>
      <trkpt lat="44.42944" lon="6.38337">
        <ele>1538</ele>
        <time>2021-09-01T09:22:29.000Z</time>
      </trkpt>
      <trkpt lat="44.42943" lon="6.38339">
        <ele>1538</ele>
        <time>2021-09-01T09:22:30.000Z</time>
      </trkpt>
      <trkpt lat="44.42943" lon="6.38343">
        <ele>1539</ele>
        <time>2021-09-01T09:22:31.000Z</time>
      </trkpt>
      <trkpt lat="44.42943" lon="6.38346">
        <ele>1540</ele>
        <time>2021-09-01T09:22:32.000Z</time>
      </trkpt>
      <trkpt lat="44.42942" lon="6.38349">
        <ele>1541</ele>
        <time>2021-09-01T09:22:33.000Z</time>
      </trkpt>
      <trkpt lat="44.42942" lon="6.38352">
        <ele>1542</ele>
        <time>2021-09-01T09:22:34.000Z</time>
      </trkpt>
      <trkpt lat="44.42942" lon="6.38355">
        <ele>1542</ele>
        <time>2021-09-01T09:22:35.000Z</time>
      </trkpt>
      <trkpt lat="44.42941" lon="6.38358">
        <ele>1542</ele>
        <time>2021-09-01T09:22:36.000Z</time>
      </trkpt>
      <trkpt lat="44.4294" lon="6.38361">
        <ele>1542</ele>
        <time>2021-09-01T09:22:37.000Z</time>
      </trkpt>
      <trkpt lat="44.42939" lon="6.38364">
        <ele>1543</ele>
        <time>2021-09-01T09:22:38.000Z</time>
      </trkpt>
      <trkpt lat="44.42938" lon="6.38367">
        <ele>1543</ele>
        <time>2021-09-01T09:22:39.000Z</time>
      </trkpt>
      <trkpt lat="44.42938" lon="6.3837">
        <ele>1544</ele>
        <time>2021-09-01T09:22:40.000Z</time>
      </trkpt>
      <trkpt lat="44.42937" lon="6.38372">
        <ele>1544</ele>
        <time>2021-09-01T09:22:41.000Z</time>
      </trkpt>
      <trkpt lat="44.42936" lon="6.38375">
        <ele>1545</ele>
        <time>2021-09-01T09:22:42.000Z</time>
      </trkpt>
      <trkpt lat="44.42936" lon="6.38378">
        <ele>1545</ele>
        <time>2021-09-01T09:22:43.000Z</time>
      </trkpt>
      <trkpt lat="44.42935" lon="6.38381">
        <ele>1545</ele>
        <time>2021-09-01T09:22:44.000Z</time>
      </trkpt>
      <trkpt lat="44.42935" lon="6.38383">
        <ele>1546</ele>
        <time>2021-09-01T09:22:45.000Z</time>
      </trkpt>
      <trkpt lat="44.42933" lon="6.38386">
        <ele>1546</ele>
        <time>2021-09-01T09:22:46.000Z</time>
      </trkpt>
      <trkpt lat="44.42932" lon="6.3839">
        <ele>1546</ele>
        <time>2021-09-01T09:22:47.000Z</time>
      </trkpt>
      <trkpt lat="44.42932" lon="6.38393">
        <ele>1549</ele>
        <time>2021-09-01T09:22:48.000Z</time>
      </trkpt>
      <trkpt lat="44.42931" lon="6.38396">
        <ele>1551</ele>
        <time>2021-09-01T09:22:49.000Z</time>
      </trkpt>
      <trkpt lat="44.42929" lon="6.38397">
        <ele>1552</ele>
        <time>2021-09-01T09:22:50.000Z</time>
      </trkpt>
      <trkpt lat="44.42928" lon="6.38399">
        <ele>1553</ele>
        <time>2021-09-01T09:22:51.000Z</time>
      </trkpt>
      <trkpt lat="44.42926" lon="6.38401">
        <ele>1553</ele>
        <time>2021-09-01T09:22:52.000Z</time>
      </trkpt>
      <trkpt lat="44.42925" lon="6.384">
        <ele>1554</ele>
        <time>2021-09-01T09:22:53.000Z</time>
      </trkpt>
      <trkpt lat="44.42924" lon="6.38401">
        <ele>1554</ele>
        <time>2021-09-01T09:22:54.000Z</time>
      </trkpt>
      <trkpt lat="44.42922" lon="6.38401">
        <ele>1554</ele>
        <time>2021-09-01T09:22:55.000Z</time>
      </trkpt>
      <trkpt lat="44.42921" lon="6.38401">
        <ele>1555</ele>
        <time>2021-09-01T09:22:56.000Z</time>
      </trkpt>
      <trkpt lat="44.42919" lon="6.384">
        <ele>1555</ele>
        <time>2021-09-01T09:22:57.000Z</time>
      </trkpt>
      <trkpt lat="44.42916" lon="6.38399">
        <ele>1555</ele>
        <time>2021-09-01T09:22:58.000Z</time>
      </trkpt>
      <trkpt lat="44.42914" lon="6.38398">
        <ele>1555</ele>
        <time>2021-09-01T09:22:59.000Z</time>
      </trkpt>
      <trkpt lat="44.42913" lon="6.38396">
        <ele>1556</ele>
        <time>2021-09-01T09:23:00.000Z</time>
      </trkpt>
      <trkpt lat="44.42911" lon="6.38394">
        <ele>1558</ele>
        <time>2021-09-01T09:23:01.000Z</time>
      </trkpt>
      <trkpt lat="44.4291" lon="6.38391">
        <ele>1558</ele>
        <time>2021-09-01T09:23:02.000Z</time>
      </trkpt>
      <trkpt lat="44.42909" lon="6.38388">
        <ele>1558</ele>
        <time>2021-09-01T09:23:03.000Z</time>
      </trkpt>
      <trkpt lat="44.42908" lon="6.38385">
        <ele>1558</ele>
        <time>2021-09-01T09:23:04.000Z</time>
      </trkpt>
      <trkpt lat="44.42907" lon="6.38382">
        <ele>1558</ele>
        <time>2021-09-01T09:23:05.000Z</time>
      </trkpt>
      <trkpt lat="44.42907" lon="6.38379">
        <ele>1559</ele>
        <time>2021-09-01T09:23:06.000Z</time>
      </trkpt>
      <trkpt lat="44.42907" lon="6.38376">
        <ele>1559</ele>
        <time>2021-09-01T09:23:07.000Z</time>
      </trkpt>
      <trkpt lat="44.42906" lon="6.38373">
        <ele>1559</ele>
        <time>2021-09-01T09:23:08.000Z</time>
      </trkpt>
      <trkpt lat="44.42905" lon="6.3837">
        <ele>1560</ele>
        <time>2021-09-01T09:23:09.000Z</time>
      </trkpt>
      <trkpt lat="44.42905" lon="6.38368">
        <ele>1560</ele>
        <time>2021-09-01T09:23:10.000Z</time>
      </trkpt>
      <trkpt lat="44.42904" lon="6.38365">
        <ele>1561</ele>
        <time>2021-09-01T09:23:11.000Z</time>
      </trkpt>
      <trkpt lat="44.42904" lon="6.38362">
        <ele>1561</ele>
        <time>2021-09-01T09:23:12.000Z</time>
      </trkpt>
      <trkpt lat="44.42903" lon="6.3836">
        <ele>1561</ele>
        <time>2021-09-01T09:23:13.000Z</time>
      </trkpt>
      <trkpt lat="44.42902" lon="6.38357">
        <ele>1562</ele>
        <time>2021-09-01T09:23:14.000Z</time>
      </trkpt>
      <trkpt lat="44.429" lon="6.38354">
        <ele>1563</ele>
        <time>2021-09-01T09:23:15.000Z</time>
      </trkpt>
      <trkpt lat="44.42899" lon="6.38352">
        <ele>1563</ele>
        <time>2021-09-01T09:23:16.000Z</time>
      </trkpt>
      <trkpt lat="44.42897" lon="6.38349">
        <ele>1563</ele>
        <time>2021-09-01T09:23:17.000Z</time>
      </trkpt>
      <trkpt lat="44.42896" lon="6.38347">
        <ele>1563</ele>
        <time>2021-09-01T09:23:18.000Z</time>
      </trkpt>
      <trkpt lat="44.42894" lon="6.38345">
        <ele>1563</ele>
        <time>2021-09-01T09:23:19.000Z</time>
      </trkpt>
      <trkpt lat="44.42892" lon="6.38342">
        <ele>1562</ele>
        <time>2021-09-01T09:23:20.000Z</time>
      </trkpt>
      <trkpt lat="44.4289" lon="6.3834">
        <ele>1562</ele>
        <time>2021-09-01T09:23:21.000Z</time>
      </trkpt>
      <trkpt lat="44.42888" lon="6.38338">
        <ele>1563</ele>
        <time>2021-09-01T09:23:22.000Z</time>
      </trkpt>
      <trkpt lat="44.42887" lon="6.38336">
        <ele>1563</ele>
        <time>2021-09-01T09:23:23.000Z</time>
      </trkpt>
      <trkpt lat="44.42885" lon="6.38334">
        <ele>1563</ele>
        <time>2021-09-01T09:23:24.000Z</time>
      </trkpt>
      <trkpt lat="44.42884" lon="6.3833">
        <ele>1564</ele>
        <time>2021-09-01T09:23:25.000Z</time>
      </trkpt>
      <trkpt lat="44.42882" lon="6.38327">
        <ele>1563</ele>
        <time>2021-09-01T09:23:26.000Z</time>
      </trkpt>
      <trkpt lat="44.4288" lon="6.38322">
        <ele>1563</ele>
        <time>2021-09-01T09:23:27.000Z</time>
      </trkpt>
      <trkpt lat="44.42879" lon="6.38319">
        <ele>1563</ele>
        <time>2021-09-01T09:23:28.000Z</time>
      </trkpt>
      <trkpt lat="44.42878" lon="6.38316">
        <ele>1563</ele>
        <time>2021-09-01T09:23:29.000Z</time>
      </trkpt>
      <trkpt lat="44.42876" lon="6.38312">
        <ele>1563</ele>
        <time>2021-09-01T09:23:30.000Z</time>
      </trkpt>
      <trkpt lat="44.42875" lon="6.38309">
        <ele>1563</ele>
        <time>2021-09-01T09:23:31.000Z</time>
      </trkpt>
      <trkpt lat="44.42874" lon="6.38306">
        <ele>1563</ele>
        <time>2021-09-01T09:23:32.000Z</time>
      </trkpt>
      <trkpt lat="44.42873" lon="6.38303">
        <ele>1563</ele>
        <time>2021-09-01T09:23:33.000Z</time>
      </trkpt>
      <trkpt lat="44.42872" lon="6.383">
        <ele>1563</ele>
        <time>2021-09-01T09:23:34.000Z</time>
      </trkpt>
      <trkpt lat="44.42871" lon="6.38296">
        <ele>1564</ele>
        <time>2021-09-01T09:23:35.000Z</time>
      </trkpt>
      <trkpt lat="44.4287" lon="6.38292">
        <ele>1564</ele>
        <time>2021-09-01T09:23:36.000Z</time>
      </trkpt>
      <trkpt lat="44.42869" lon="6.38288">
        <ele>1564</ele>
        <time>2021-09-01T09:23:37.000Z</time>
      </trkpt>
      <trkpt lat="44.42868" lon="6.38285">
        <ele>1564</ele>
        <time>2021-09-01T09:23:38.000Z</time>
      </trkpt>
      <trkpt lat="44.42868" lon="6.38282">
        <ele>1564</ele>
        <time>2021-09-01T09:23:39.000Z</time>
      </trkpt>
      <trkpt lat="44.42867" lon="6.38278">
        <ele>1564</ele>
        <time>2021-09-01T09:23:40.000Z</time>
      </trkpt>
      <trkpt lat="44.42866" lon="6.38275">
        <ele>1565</ele>
        <time>2021-09-01T09:23:41.000Z</time>
      </trkpt>
      <trkpt lat="44.42865" lon="6.38271">
        <ele>1565</ele>
        <time>2021-09-01T09:23:42.000Z</time>
      </trkpt>
      <trkpt lat="44.42865" lon="6.38266">
        <ele>1566</ele>
        <time>2021-09-01T09:23:43.000Z</time>
      </trkpt>
      <trkpt lat="44.42865" lon="6.38262">
        <ele>1565</ele>
        <time>2021-09-01T09:23:44.000Z</time>
      </trkpt>
      <trkpt lat="44.42865" lon="6.38258">
        <ele>1565</ele>
        <time>2021-09-01T09:23:45.000Z</time>
      </trkpt>
      <trkpt lat="44.42865" lon="6.38255">
        <ele>1565</ele>
        <time>2021-09-01T09:23:46.000Z</time>
      </trkpt>
      <trkpt lat="44.42865" lon="6.38252">
        <ele>1565</ele>
        <time>2021-09-01T09:23:47.000Z</time>
      </trkpt>
      <trkpt lat="44.42865" lon="6.38249">
        <ele>1565</ele>
        <time>2021-09-01T09:23:48.000Z</time>
      </trkpt>
      <trkpt lat="44.42866" lon="6.38245">
        <ele>1566</ele>
        <time>2021-09-01T09:23:49.000Z</time>
      </trkpt>
      <trkpt lat="44.42866" lon="6.38242">
        <ele>1566</ele>
        <time>2021-09-01T09:23:50.000Z</time>
      </trkpt>
      <trkpt lat="44.42867" lon="6.38239">
        <ele>1566</ele>
        <time>2021-09-01T09:23:51.000Z</time>
      </trkpt>
      <trkpt lat="44.42867" lon="6.38235">
        <ele>1566</ele>
        <time>2021-09-01T09:23:52.000Z</time>
      </trkpt>
      <trkpt lat="44.42867" lon="6.38232">
        <ele>1567</ele>
        <time>2021-09-01T09:23:53.000Z</time>
      </trkpt>
      <trkpt lat="44.42868" lon="6.38228">
        <ele>1568</ele>
        <time>2021-09-01T09:23:54.000Z</time>
      </trkpt>
      <trkpt lat="44.42868" lon="6.38225">
        <ele>1569</ele>
        <time>2021-09-01T09:23:55.000Z</time>
      </trkpt>
      <trkpt lat="44.42868" lon="6.38221">
        <ele>1570</ele>
        <time>2021-09-01T09:23:56.000Z</time>
      </trkpt>
      <trkpt lat="44.42869" lon="6.38218">
        <ele>1571</ele>
        <time>2021-09-01T09:23:57.000Z</time>
      </trkpt>
      <trkpt lat="44.42869" lon="6.38216">
        <ele>1572</ele>
        <time>2021-09-01T09:23:58.000Z</time>
      </trkpt>
      <trkpt lat="44.42869" lon="6.38213">
        <ele>1573</ele>
        <time>2021-09-01T09:23:59.000Z</time>
      </trkpt>
      <trkpt lat="44.4287" lon="6.3821">
        <ele>1575</ele>
        <time>2021-09-01T09:24:00.000Z</time>
      </trkpt>
      <trkpt lat="44.42869" lon="6.38207">
        <ele>1574</ele>
        <time>2021-09-01T09:24:01.000Z</time>
      </trkpt>
      <trkpt lat="44.42869" lon="6.38204">
        <ele>1575</ele>
        <time>2021-09-01T09:24:02.000Z</time>
      </trkpt>
      <trkpt lat="44.4287" lon="6.38201">
        <ele>1575</ele>
        <time>2021-09-01T09:24:03.000Z</time>
      </trkpt>
      <trkpt lat="44.4287" lon="6.38198">
        <ele>1574</ele>
        <time>2021-09-01T09:24:04.000Z</time>
      </trkpt>
      <trkpt lat="44.4287" lon="6.38194">
        <ele>1574</ele>
        <time>2021-09-01T09:24:05.000Z</time>
      </trkpt>
      <trkpt lat="44.42871" lon="6.38191">
        <ele>1574</ele>
        <time>2021-09-01T09:24:06.000Z</time>
      </trkpt>
      <trkpt lat="44.42871" lon="6.38187">
        <ele>1573</ele>
        <time>2021-09-01T09:24:07.000Z</time>
      </trkpt>
      <trkpt lat="44.42872" lon="6.38185">
        <ele>1573</ele>
        <time>2021-09-01T09:24:08.000Z</time>
      </trkpt>
      <trkpt lat="44.42872" lon="6.38182">
        <ele>1574</ele>
        <time>2021-09-01T09:24:09.000Z</time>
      </trkpt>
      <trkpt lat="44.42873" lon="6.3818">
        <ele>1575</ele>
        <time>2021-09-01T09:24:10.000Z</time>
      </trkpt>
      <trkpt lat="44.42874" lon="6.38177">
        <ele>1575</ele>
        <time>2021-09-01T09:24:11.000Z</time>
      </trkpt>
      <trkpt lat="44.42874" lon="6.38175">
        <ele>1576</ele>
        <time>2021-09-01T09:24:12.000Z</time>
      </trkpt>
      <trkpt lat="44.42875" lon="6.38172">
        <ele>1576</ele>
        <time>2021-09-01T09:24:13.000Z</time>
      </trkpt>
      <trkpt lat="44.42876" lon="6.38169">
        <ele>1578</ele>
        <time>2021-09-01T09:24:14.000Z</time>
      </trkpt>
      <trkpt lat="44.42877" lon="6.38166">
        <ele>1579</ele>
        <time>2021-09-01T09:24:15.000Z</time>
      </trkpt>
      <trkpt lat="44.42877" lon="6.38163">
        <ele>1580</ele>
        <time>2021-09-01T09:24:16.000Z</time>
      </trkpt>
      <trkpt lat="44.42879" lon="6.3816">
        <ele>1582</ele>
        <time>2021-09-01T09:24:17.000Z</time>
      </trkpt>
      <trkpt lat="44.4288" lon="6.38158">
        <ele>1582</ele>
        <time>2021-09-01T09:24:18.000Z</time>
      </trkpt>
      <trkpt lat="44.42881" lon="6.38156">
        <ele>1583</ele>
        <time>2021-09-01T09:24:19.000Z</time>
      </trkpt>
      <trkpt lat="44.42882" lon="6.38153">
        <ele>1583</ele>
        <time>2021-09-01T09:24:20.000Z</time>
      </trkpt>
      <trkpt lat="44.42883" lon="6.38151">
        <ele>1584</ele>
        <time>2021-09-01T09:24:21.000Z</time>
      </trkpt>
      <trkpt lat="44.42885" lon="6.38148">
        <ele>1586</ele>
        <time>2021-09-01T09:24:22.000Z</time>
      </trkpt>
      <trkpt lat="44.42886" lon="6.38146">
        <ele>1587</ele>
        <time>2021-09-01T09:24:23.000Z</time>
      </trkpt>
      <trkpt lat="44.42888" lon="6.38144">
        <ele>1588</ele>
        <time>2021-09-01T09:24:24.000Z</time>
      </trkpt>
      <trkpt lat="44.4289" lon="6.38142">
        <ele>1589</ele>
        <time>2021-09-01T09:24:25.000Z</time>
      </trkpt>
      <trkpt lat="44.42891" lon="6.38141">
        <ele>1590</ele>
        <time>2021-09-01T09:24:26.000Z</time>
      </trkpt>
      <trkpt lat="44.42893" lon="6.38138">
        <ele>1590</ele>
        <time>2021-09-01T09:24:27.000Z</time>
      </trkpt>
      <trkpt lat="44.42894" lon="6.38136">
        <ele>1589</ele>
        <time>2021-09-01T09:24:28.000Z</time>
      </trkpt>
      <trkpt lat="44.42895" lon="6.38134">
        <ele>1591</ele>
        <time>2021-09-01T09:24:29.000Z</time>
      </trkpt>
      <trkpt lat="44.42896" lon="6.38132">
        <ele>1590</ele>
        <time>2021-09-01T09:24:30.000Z</time>
      </trkpt>
      <trkpt lat="44.42897" lon="6.38128">
        <ele>1588</ele>
        <time>2021-09-01T09:24:31.000Z</time>
      </trkpt>
      <trkpt lat="44.42898" lon="6.38125">
        <ele>1585</ele>
        <time>2021-09-01T09:24:32.000Z</time>
      </trkpt>
      <trkpt lat="44.42899" lon="6.38122">
        <ele>1583</ele>
        <time>2021-09-01T09:24:33.000Z</time>
      </trkpt>
      <trkpt lat="44.429" lon="6.3812">
        <ele>1584</ele>
        <time>2021-09-01T09:24:34.000Z</time>
      </trkpt>
      <trkpt lat="44.42901" lon="6.38118">
        <ele>1584</ele>
        <time>2021-09-01T09:24:35.000Z</time>
      </trkpt>
      <trkpt lat="44.42902" lon="6.38115">
        <ele>1583</ele>
        <time>2021-09-01T09:24:36.000Z</time>
      </trkpt>
      <trkpt lat="44.42904" lon="6.38113">
        <ele>1583</ele>
        <time>2021-09-01T09:24:37.000Z</time>
      </trkpt>
      <trkpt lat="44.42905" lon="6.3811">
        <ele>1583</ele>
        <time>2021-09-01T09:24:38.000Z</time>
      </trkpt>
      <trkpt lat="44.42906" lon="6.38107">
        <ele>1583</ele>
        <time>2021-09-01T09:24:39.000Z</time>
      </trkpt>
      <trkpt lat="44.42907" lon="6.38105">
        <ele>1583</ele>
        <time>2021-09-01T09:24:40.000Z</time>
      </trkpt>
      <trkpt lat="44.42908" lon="6.38102">
        <ele>1584</ele>
        <time>2021-09-01T09:24:41.000Z</time>
      </trkpt>
      <trkpt lat="44.42908" lon="6.381">
        <ele>1584</ele>
        <time>2021-09-01T09:24:42.000Z</time>
      </trkpt>
      <trkpt lat="44.42909" lon="6.38097">
        <ele>1584</ele>
        <time>2021-09-01T09:24:43.000Z</time>
      </trkpt>
      <trkpt lat="44.4291" lon="6.38095">
        <ele>1583</ele>
        <time>2021-09-01T09:24:44.000Z</time>
      </trkpt>
      <trkpt lat="44.42911" lon="6.38092">
        <ele>1584</ele>
        <time>2021-09-01T09:24:45.000Z</time>
      </trkpt>
      <trkpt lat="44.42912" lon="6.38089">
        <ele>1584</ele>
        <time>2021-09-01T09:24:46.000Z</time>
      </trkpt>
      <trkpt lat="44.42914" lon="6.38087">
        <ele>1584</ele>
        <time>2021-09-01T09:24:47.000Z</time>
      </trkpt>
      <trkpt lat="44.42914" lon="6.38084">
        <ele>1584</ele>
        <time>2021-09-01T09:24:48.000Z</time>
      </trkpt>
      <trkpt lat="44.42915" lon="6.38081">
        <ele>1584</ele>
        <time>2021-09-01T09:24:49.000Z</time>
      </trkpt>
      <trkpt lat="44.42916" lon="6.38078">
        <ele>1585</ele>
        <time>2021-09-01T09:24:50.000Z</time>
      </trkpt>
      <trkpt lat="44.42917" lon="6.38075">
        <ele>1585</ele>
        <time>2021-09-01T09:24:51.000Z</time>
      </trkpt>
      <trkpt lat="44.42917" lon="6.38073">
        <ele>1586</ele>
        <time>2021-09-01T09:24:52.000Z</time>
      </trkpt>
      <trkpt lat="44.42918" lon="6.3807">
        <ele>1586</ele>
        <time>2021-09-01T09:24:53.000Z</time>
      </trkpt>
      <trkpt lat="44.42919" lon="6.38067">
        <ele>1586</ele>
        <time>2021-09-01T09:24:54.000Z</time>
      </trkpt>
      <trkpt lat="44.4292" lon="6.38065">
        <ele>1587</ele>
        <time>2021-09-01T09:24:55.000Z</time>
      </trkpt>
      <trkpt lat="44.4292" lon="6.38062">
        <ele>1588</ele>
        <time>2021-09-01T09:24:56.000Z</time>
      </trkpt>
      <trkpt lat="44.4292" lon="6.38059">
        <ele>1588</ele>
        <time>2021-09-01T09:24:57.000Z</time>
      </trkpt>
      <trkpt lat="44.42921" lon="6.38056">
        <ele>1589</ele>
        <time>2021-09-01T09:24:58.000Z</time>
      </trkpt>
      <trkpt lat="44.42921" lon="6.38053">
        <ele>1590</ele>
        <time>2021-09-01T09:24:59.000Z</time>
      </trkpt>
      <trkpt lat="44.42921" lon="6.3805">
        <ele>1591</ele>
        <time>2021-09-01T09:25:00.000Z</time>
      </trkpt>
      <trkpt lat="44.42922" lon="6.38047">
        <ele>1591</ele>
        <time>2021-09-01T09:25:01.000Z</time>
      </trkpt>
      <trkpt lat="44.42922" lon="6.38044">
        <ele>1592</ele>
        <time>2021-09-01T09:25:02.000Z</time>
      </trkpt>
      <trkpt lat="44.42922" lon="6.38041">
        <ele>1592</ele>
        <time>2021-09-01T09:25:03.000Z</time>
      </trkpt>
      <trkpt lat="44.42922" lon="6.38038">
        <ele>1592</ele>
        <time>2021-09-01T09:25:04.000Z</time>
      </trkpt>
      <trkpt lat="44.42922" lon="6.38035">
        <ele>1592</ele>
        <time>2021-09-01T09:25:05.000Z</time>
      </trkpt>
      <trkpt lat="44.42922" lon="6.38032">
        <ele>1592</ele>
        <time>2021-09-01T09:25:06.000Z</time>
      </trkpt>
      <trkpt lat="44.42922" lon="6.38029">
        <ele>1593</ele>
        <time>2021-09-01T09:25:07.000Z</time>
      </trkpt>
      <trkpt lat="44.42922" lon="6.38027">
        <ele>1592</ele>
        <time>2021-09-01T09:25:08.000Z</time>
      </trkpt>
      <trkpt lat="44.42922" lon="6.38024">
        <ele>1593</ele>
        <time>2021-09-01T09:25:09.000Z</time>
      </trkpt>
      <trkpt lat="44.42922" lon="6.38022">
        <ele>1593</ele>
        <time>2021-09-01T09:25:10.000Z</time>
      </trkpt>
      <trkpt lat="44.42922" lon="6.38019">
        <ele>1594</ele>
        <time>2021-09-01T09:25:11.000Z</time>
      </trkpt>
      <trkpt lat="44.42922" lon="6.38016">
        <ele>1594</ele>
        <time>2021-09-01T09:25:12.000Z</time>
      </trkpt>
      <trkpt lat="44.42922" lon="6.38014">
        <ele>1595</ele>
        <time>2021-09-01T09:25:13.000Z</time>
      </trkpt>
      <trkpt lat="44.42922" lon="6.38011">
        <ele>1595</ele>
        <time>2021-09-01T09:25:14.000Z</time>
      </trkpt>
      <trkpt lat="44.42921" lon="6.38009">
        <ele>1596</ele>
        <time>2021-09-01T09:25:15.000Z</time>
      </trkpt>
      <trkpt lat="44.42921" lon="6.38007">
        <ele>1597</ele>
        <time>2021-09-01T09:25:16.000Z</time>
      </trkpt>
      <trkpt lat="44.4292" lon="6.38004">
        <ele>1596</ele>
        <time>2021-09-01T09:25:17.000Z</time>
      </trkpt>
      <trkpt lat="44.42919" lon="6.38001">
        <ele>1597</ele>
        <time>2021-09-01T09:25:18.000Z</time>
      </trkpt>
      <trkpt lat="44.42919" lon="6.37999">
        <ele>1597</ele>
        <time>2021-09-01T09:25:19.000Z</time>
      </trkpt>
      <trkpt lat="44.42918" lon="6.37996">
        <ele>1598</ele>
        <time>2021-09-01T09:25:20.000Z</time>
      </trkpt>
      <trkpt lat="44.42918" lon="6.37993">
        <ele>1598</ele>
        <time>2021-09-01T09:25:21.000Z</time>
      </trkpt>
      <trkpt lat="44.42917" lon="6.3799">
        <ele>1597</ele>
        <time>2021-09-01T09:25:22.000Z</time>
      </trkpt>
      <trkpt lat="44.42917" lon="6.37987">
        <ele>1598</ele>
        <time>2021-09-01T09:25:23.000Z</time>
      </trkpt>
      <trkpt lat="44.42916" lon="6.37984">
        <ele>1599</ele>
        <time>2021-09-01T09:25:24.000Z</time>
      </trkpt>
      <trkpt lat="44.42916" lon="6.37982">
        <ele>1599</ele>
        <time>2021-09-01T09:25:25.000Z</time>
      </trkpt>
      <trkpt lat="44.42917" lon="6.3798">
        <ele>1599</ele>
        <time>2021-09-01T09:25:26.000Z</time>
      </trkpt>
      <trkpt lat="44.42916" lon="6.37976">
        <ele>1601</ele>
        <time>2021-09-01T09:25:27.000Z</time>
      </trkpt>
      <trkpt lat="44.42916" lon="6.37974">
        <ele>1602</ele>
        <time>2021-09-01T09:25:28.000Z</time>
      </trkpt>
      <trkpt lat="44.42917" lon="6.37972">
        <ele>1604</ele>
        <time>2021-09-01T09:25:29.000Z</time>
      </trkpt>
      <trkpt lat="44.42916" lon="6.37968">
        <ele>1605</ele>
        <time>2021-09-01T09:25:30.000Z</time>
      </trkpt>
      <trkpt lat="44.42916" lon="6.37965">
        <ele>1605</ele>
        <time>2021-09-01T09:25:31.000Z</time>
      </trkpt>
      <trkpt lat="44.42915" lon="6.37962">
        <ele>1605</ele>
        <time>2021-09-01T09:25:32.000Z</time>
      </trkpt>
      <trkpt lat="44.42915" lon="6.37959">
        <ele>1607</ele>
        <time>2021-09-01T09:25:33.000Z</time>
      </trkpt>
      <trkpt lat="44.42915" lon="6.37957">
        <ele>1608</ele>
        <time>2021-09-01T09:25:34.000Z</time>
      </trkpt>
      <trkpt lat="44.42915" lon="6.37954">
        <ele>1609</ele>
        <time>2021-09-01T09:25:35.000Z</time>
      </trkpt>
      <trkpt lat="44.42914" lon="6.3795">
        <ele>1610</ele>
        <time>2021-09-01T09:25:36.000Z</time>
      </trkpt>
      <trkpt lat="44.42914" lon="6.37948">
        <ele>1610</ele>
        <time>2021-09-01T09:25:37.000Z</time>
      </trkpt>
      <trkpt lat="44.42914" lon="6.37945">
        <ele>1611</ele>
        <time>2021-09-01T09:25:38.000Z</time>
      </trkpt>
      <trkpt lat="44.42914" lon="6.37942">
        <ele>1612</ele>
        <time>2021-09-01T09:25:39.000Z</time>
      </trkpt>
      <trkpt lat="44.42913" lon="6.37939">
        <ele>1613</ele>
        <time>2021-09-01T09:25:40.000Z</time>
      </trkpt>
      <trkpt lat="44.42912" lon="6.37937">
        <ele>1613</ele>
        <time>2021-09-01T09:25:41.000Z</time>
      </trkpt>
      <trkpt lat="44.42912" lon="6.37934">
        <ele>1613</ele>
        <time>2021-09-01T09:25:42.000Z</time>
      </trkpt>
      <trkpt lat="44.42911" lon="6.3793">
        <ele>1612</ele>
        <time>2021-09-01T09:25:43.000Z</time>
      </trkpt>
      <trkpt lat="44.42911" lon="6.37927">
        <ele>1612</ele>
        <time>2021-09-01T09:25:44.000Z</time>
      </trkpt>
      <trkpt lat="44.4291" lon="6.37924">
        <ele>1612</ele>
        <time>2021-09-01T09:25:45.000Z</time>
      </trkpt>
      <trkpt lat="44.4291" lon="6.37921">
        <ele>1613</ele>
        <time>2021-09-01T09:25:46.000Z</time>
      </trkpt>
      <trkpt lat="44.42909" lon="6.37917">
        <ele>1613</ele>
        <time>2021-09-01T09:25:47.000Z</time>
      </trkpt>
      <trkpt lat="44.42908" lon="6.37914">
        <ele>1614</ele>
        <time>2021-09-01T09:25:48.000Z</time>
      </trkpt>
      <trkpt lat="44.42908" lon="6.37911">
        <ele>1613</ele>
        <time>2021-09-01T09:25:49.000Z</time>
      </trkpt>
      <trkpt lat="44.42908" lon="6.37908">
        <ele>1614</ele>
        <time>2021-09-01T09:25:50.000Z</time>
      </trkpt>
      <trkpt lat="44.42908" lon="6.37905">
        <ele>1614</ele>
        <time>2021-09-01T09:25:51.000Z</time>
      </trkpt>
      <trkpt lat="44.42907" lon="6.37903">
        <ele>1614</ele>
        <time>2021-09-01T09:25:52.000Z</time>
      </trkpt>
      <trkpt lat="44.42907" lon="6.37901">
        <ele>1614</ele>
        <time>2021-09-01T09:25:53.000Z</time>
      </trkpt>
      <trkpt lat="44.42907" lon="6.37898">
        <ele>1615</ele>
        <time>2021-09-01T09:25:54.000Z</time>
      </trkpt>
      <trkpt lat="44.42907" lon="6.37896">
        <ele>1615</ele>
        <time>2021-09-01T09:25:55.000Z</time>
      </trkpt>
      <trkpt lat="44.42907" lon="6.37894">
        <ele>1616</ele>
        <time>2021-09-01T09:25:56.000Z</time>
      </trkpt>
      <trkpt lat="44.42907" lon="6.37891">
        <ele>1615</ele>
        <time>2021-09-01T09:25:57.000Z</time>
      </trkpt>
      <trkpt lat="44.42906" lon="6.37889">
        <ele>1615</ele>
        <time>2021-09-01T09:25:58.000Z</time>
      </trkpt>
      <trkpt lat="44.42905" lon="6.37885">
        <ele>1616</ele>
        <time>2021-09-01T09:25:59.000Z</time>
      </trkpt>
      <trkpt lat="44.42904" lon="6.37882">
        <ele>1616</ele>
        <time>2021-09-01T09:26:00.000Z</time>
      </trkpt>
      <trkpt lat="44.42904" lon="6.37879">
        <ele>1617</ele>
        <time>2021-09-01T09:26:01.000Z</time>
      </trkpt>
      <trkpt lat="44.42904" lon="6.37876">
        <ele>1618</ele>
        <time>2021-09-01T09:26:02.000Z</time>
      </trkpt>
      <trkpt lat="44.42904" lon="6.37873">
        <ele>1618</ele>
        <time>2021-09-01T09:26:03.000Z</time>
      </trkpt>
      <trkpt lat="44.42904" lon="6.37871">
        <ele>1619</ele>
        <time>2021-09-01T09:26:04.000Z</time>
      </trkpt>
      <trkpt lat="44.42904" lon="6.37868">
        <ele>1619</ele>
        <time>2021-09-01T09:26:05.000Z</time>
      </trkpt>
      <trkpt lat="44.42903" lon="6.37866">
        <ele>1620</ele>
        <time>2021-09-01T09:26:06.000Z</time>
      </trkpt>
      <trkpt lat="44.42903" lon="6.37862">
        <ele>1619</ele>
        <time>2021-09-01T09:26:07.000Z</time>
      </trkpt>
      <trkpt lat="44.42903" lon="6.37859">
        <ele>1620</ele>
        <time>2021-09-01T09:26:08.000Z</time>
      </trkpt>
      <trkpt lat="44.42903" lon="6.37857">
        <ele>1620</ele>
        <time>2021-09-01T09:26:09.000Z</time>
      </trkpt>
      <trkpt lat="44.42902" lon="6.37854">
        <ele>1621</ele>
        <time>2021-09-01T09:26:10.000Z</time>
      </trkpt>
      <trkpt lat="44.42902" lon="6.37851">
        <ele>1621</ele>
        <time>2021-09-01T09:26:11.000Z</time>
      </trkpt>
      <trkpt lat="44.42901" lon="6.37847">
        <ele>1621</ele>
        <time>2021-09-01T09:26:12.000Z</time>
      </trkpt>
      <trkpt lat="44.429" lon="6.37843">
        <ele>1622</ele>
        <time>2021-09-01T09:26:13.000Z</time>
      </trkpt>
      <trkpt lat="44.42899" lon="6.3784">
        <ele>1621</ele>
        <time>2021-09-01T09:26:14.000Z</time>
      </trkpt>
      <trkpt lat="44.42898" lon="6.37837">
        <ele>1622</ele>
        <time>2021-09-01T09:26:15.000Z</time>
      </trkpt>
      <trkpt lat="44.42898" lon="6.37835">
        <ele>1622</ele>
        <time>2021-09-01T09:26:16.000Z</time>
      </trkpt>
      <trkpt lat="44.42897" lon="6.37831">
        <ele>1622</ele>
        <time>2021-09-01T09:26:17.000Z</time>
      </trkpt>
      <trkpt lat="44.42897" lon="6.37829">
        <ele>1622</ele>
        <time>2021-09-01T09:26:18.000Z</time>
      </trkpt>
      <trkpt lat="44.42896" lon="6.37827">
        <ele>1622</ele>
        <time>2021-09-01T09:26:19.000Z</time>
      </trkpt>
      <trkpt lat="44.42895" lon="6.37823">
        <ele>1623</ele>
        <time>2021-09-01T09:26:20.000Z</time>
      </trkpt>
      <trkpt lat="44.42895" lon="6.3782">
        <ele>1624</ele>
        <time>2021-09-01T09:26:21.000Z</time>
      </trkpt>
      <trkpt lat="44.42893" lon="6.37817">
        <ele>1624</ele>
        <time>2021-09-01T09:26:22.000Z</time>
      </trkpt>
      <trkpt lat="44.42892" lon="6.37814">
        <ele>1623</ele>
        <time>2021-09-01T09:26:23.000Z</time>
      </trkpt>
      <trkpt lat="44.42892" lon="6.37811">
        <ele>1623</ele>
        <time>2021-09-01T09:26:24.000Z</time>
      </trkpt>
      <trkpt lat="44.42891" lon="6.37808">
        <ele>1622</ele>
        <time>2021-09-01T09:26:25.000Z</time>
      </trkpt>
      <trkpt lat="44.4289" lon="6.37805">
        <ele>1622</ele>
        <time>2021-09-01T09:26:26.000Z</time>
      </trkpt>
      <trkpt lat="44.42889" lon="6.37802">
        <ele>1622</ele>
        <time>2021-09-01T09:26:27.000Z</time>
      </trkpt>
      <trkpt lat="44.42888" lon="6.37799">
        <ele>1622</ele>
        <time>2021-09-01T09:26:28.000Z</time>
      </trkpt>
      <trkpt lat="44.42885" lon="6.37796">
        <ele>1621</ele>
        <time>2021-09-01T09:26:29.000Z</time>
      </trkpt>
      <trkpt lat="44.42882" lon="6.37793">
        <ele>1617</ele>
        <time>2021-09-01T09:26:30.000Z</time>
      </trkpt>
      <trkpt lat="44.42881" lon="6.37791">
        <ele>1617</ele>
        <time>2021-09-01T09:26:31.000Z</time>
      </trkpt>
      <trkpt lat="44.4288" lon="6.37787">
        <ele>1617</ele>
        <time>2021-09-01T09:26:32.000Z</time>
      </trkpt>
      <trkpt lat="44.42878" lon="6.37785">
        <ele>1616</ele>
        <time>2021-09-01T09:26:33.000Z</time>
      </trkpt>
      <trkpt lat="44.42876" lon="6.37783">
        <ele>1615</ele>
        <time>2021-09-01T09:26:34.000Z</time>
      </trkpt>
      <trkpt lat="44.42874" lon="6.37779">
        <ele>1614</ele>
        <time>2021-09-01T09:26:35.000Z</time>
      </trkpt>
      <trkpt lat="44.42873" lon="6.37776">
        <ele>1614</ele>
        <time>2021-09-01T09:26:36.000Z</time>
      </trkpt>
      <trkpt lat="44.42872" lon="6.37774">
        <ele>1613</ele>
        <time>2021-09-01T09:26:37.000Z</time>
      </trkpt>
      <trkpt lat="44.4287" lon="6.37771">
        <ele>1612</ele>
        <time>2021-09-01T09:26:38.000Z</time>
      </trkpt>
      <trkpt lat="44.4287" lon="6.37768">
        <ele>1613</ele>
        <time>2021-09-01T09:26:39.000Z</time>
      </trkpt>
      <trkpt lat="44.42868" lon="6.37765">
        <ele>1613</ele>
        <time>2021-09-01T09:26:40.000Z</time>
      </trkpt>
      <trkpt lat="44.42867" lon="6.37762">
        <ele>1613</ele>
        <time>2021-09-01T09:26:41.000Z</time>
      </trkpt>
      <trkpt lat="44.42866" lon="6.37759">
        <ele>1613</ele>
        <time>2021-09-01T09:26:42.000Z</time>
      </trkpt>
      <trkpt lat="44.42864" lon="6.37757">
        <ele>1614</ele>
        <time>2021-09-01T09:26:43.000Z</time>
      </trkpt>
      <trkpt lat="44.42863" lon="6.37754">
        <ele>1614</ele>
        <time>2021-09-01T09:26:44.000Z</time>
      </trkpt>
      <trkpt lat="44.42862" lon="6.37752">
        <ele>1614</ele>
        <time>2021-09-01T09:26:45.000Z</time>
      </trkpt>
      <trkpt lat="44.4286" lon="6.37749">
        <ele>1614</ele>
        <time>2021-09-01T09:26:46.000Z</time>
      </trkpt>
      <trkpt lat="44.42859" lon="6.37747">
        <ele>1614</ele>
        <time>2021-09-01T09:26:47.000Z</time>
      </trkpt>
      <trkpt lat="44.42858" lon="6.37744">
        <ele>1615</ele>
        <time>2021-09-01T09:26:48.000Z</time>
      </trkpt>
      <trkpt lat="44.42857" lon="6.37742">
        <ele>1615</ele>
        <time>2021-09-01T09:26:49.000Z</time>
      </trkpt>
      <trkpt lat="44.42855" lon="6.37739">
        <ele>1617</ele>
        <time>2021-09-01T09:26:50.000Z</time>
      </trkpt>
      <trkpt lat="44.42853" lon="6.37737">
        <ele>1617</ele>
        <time>2021-09-01T09:26:51.000Z</time>
      </trkpt>
      <trkpt lat="44.42852" lon="6.37734">
        <ele>1617</ele>
        <time>2021-09-01T09:26:52.000Z</time>
      </trkpt>
      <trkpt lat="44.4285" lon="6.37732">
        <ele>1617</ele>
        <time>2021-09-01T09:26:53.000Z</time>
      </trkpt>
      <trkpt lat="44.42849" lon="6.3773">
        <ele>1618</ele>
        <time>2021-09-01T09:26:54.000Z</time>
      </trkpt>
      <trkpt lat="44.42847" lon="6.37728">
        <ele>1618</ele>
        <time>2021-09-01T09:26:55.000Z</time>
      </trkpt>
      <trkpt lat="44.42846" lon="6.37726">
        <ele>1618</ele>
        <time>2021-09-01T09:26:56.000Z</time>
      </trkpt>
      <trkpt lat="44.42844" lon="6.37723">
        <ele>1618</ele>
        <time>2021-09-01T09:26:57.000Z</time>
      </trkpt>
      <trkpt lat="44.42843" lon="6.37721">
        <ele>1619</ele>
        <time>2021-09-01T09:26:58.000Z</time>
      </trkpt>
      <trkpt lat="44.42841" lon="6.37719">
        <ele>1619</ele>
        <time>2021-09-01T09:26:59.000Z</time>
      </trkpt>
      <trkpt lat="44.4284" lon="6.37717">
        <ele>1619</ele>
        <time>2021-09-01T09:27:00.000Z</time>
      </trkpt>
      <trkpt lat="44.42838" lon="6.37715">
        <ele>1618</ele>
        <time>2021-09-01T09:27:01.000Z</time>
      </trkpt>
      <trkpt lat="44.42836" lon="6.37713">
        <ele>1619</ele>
        <time>2021-09-01T09:27:02.000Z</time>
      </trkpt>
      <trkpt lat="44.42834" lon="6.37711">
        <ele>1619</ele>
        <time>2021-09-01T09:27:03.000Z</time>
      </trkpt>
      <trkpt lat="44.42832" lon="6.3771">
        <ele>1619</ele>
        <time>2021-09-01T09:27:04.000Z</time>
      </trkpt>
      <trkpt lat="44.4283" lon="6.37708">
        <ele>1620</ele>
        <time>2021-09-01T09:27:05.000Z</time>
      </trkpt>
      <trkpt lat="44.42828" lon="6.37706">
        <ele>1620</ele>
        <time>2021-09-01T09:27:06.000Z</time>
      </trkpt>
      <trkpt lat="44.42827" lon="6.37704">
        <ele>1621</ele>
        <time>2021-09-01T09:27:07.000Z</time>
      </trkpt>
      <trkpt lat="44.42825" lon="6.37702">
        <ele>1621</ele>
        <time>2021-09-01T09:27:08.000Z</time>
      </trkpt>
      <trkpt lat="44.42823" lon="6.377">
        <ele>1622</ele>
        <time>2021-09-01T09:27:09.000Z</time>
      </trkpt>
      <trkpt lat="44.42821" lon="6.37698">
        <ele>1622</ele>
        <time>2021-09-01T09:27:10.000Z</time>
      </trkpt>
      <trkpt lat="44.42819" lon="6.37696">
        <ele>1622</ele>
        <time>2021-09-01T09:27:11.000Z</time>
      </trkpt>
      <trkpt lat="44.42817" lon="6.37695">
        <ele>1622</ele>
        <time>2021-09-01T09:27:12.000Z</time>
      </trkpt>
      <trkpt lat="44.42815" lon="6.37693">
        <ele>1622</ele>
        <time>2021-09-01T09:27:13.000Z</time>
      </trkpt>
      <trkpt lat="44.42814" lon="6.37691">
        <ele>1623</ele>
        <time>2021-09-01T09:27:14.000Z</time>
      </trkpt>
      <trkpt lat="44.42812" lon="6.3769">
        <ele>1623</ele>
        <time>2021-09-01T09:27:15.000Z</time>
      </trkpt>
      <trkpt lat="44.42811" lon="6.37687">
        <ele>1623</ele>
        <time>2021-09-01T09:27:16.000Z</time>
      </trkpt>
      <trkpt lat="44.42809" lon="6.37684">
        <ele>1623</ele>
        <time>2021-09-01T09:27:17.000Z</time>
      </trkpt>
      <trkpt lat="44.42807" lon="6.37682">
        <ele>1623</ele>
        <time>2021-09-01T09:27:18.000Z</time>
      </trkpt>
      <trkpt lat="44.42806" lon="6.3768">
        <ele>1623</ele>
        <time>2021-09-01T09:27:19.000Z</time>
      </trkpt>
      <trkpt lat="44.42804" lon="6.37677">
        <ele>1624</ele>
        <time>2021-09-01T09:27:20.000Z</time>
      </trkpt>
      <trkpt lat="44.42803" lon="6.37675">
        <ele>1624</ele>
        <time>2021-09-01T09:27:21.000Z</time>
      </trkpt>
      <trkpt lat="44.42801" lon="6.37673">
        <ele>1624</ele>
        <time>2021-09-01T09:27:22.000Z</time>
      </trkpt>
      <trkpt lat="44.42799" lon="6.37671">
        <ele>1625</ele>
        <time>2021-09-01T09:27:23.000Z</time>
      </trkpt>
      <trkpt lat="44.42798" lon="6.37669">
        <ele>1625</ele>
        <time>2021-09-01T09:27:24.000Z</time>
      </trkpt>
      <trkpt lat="44.42796" lon="6.37667">
        <ele>1625</ele>
        <time>2021-09-01T09:27:25.000Z</time>
      </trkpt>
      <trkpt lat="44.42795" lon="6.37665">
        <ele>1625</ele>
        <time>2021-09-01T09:27:26.000Z</time>
      </trkpt>
      <trkpt lat="44.42793" lon="6.37662">
        <ele>1625</ele>
        <time>2021-09-01T09:27:27.000Z</time>
      </trkpt>
      <trkpt lat="44.42791" lon="6.3766">
        <ele>1626</ele>
        <time>2021-09-01T09:27:28.000Z</time>
      </trkpt>
      <trkpt lat="44.42789" lon="6.37659">
        <ele>1627</ele>
        <time>2021-09-01T09:27:29.000Z</time>
      </trkpt>
      <trkpt lat="44.42788" lon="6.37655">
        <ele>1628</ele>
        <time>2021-09-01T09:27:30.000Z</time>
      </trkpt>
      <trkpt lat="44.42786" lon="6.37653">
        <ele>1629</ele>
        <time>2021-09-01T09:27:31.000Z</time>
      </trkpt>
      <trkpt lat="44.42784" lon="6.37651">
        <ele>1629</ele>
        <time>2021-09-01T09:27:32.000Z</time>
      </trkpt>
      <trkpt lat="44.42783" lon="6.37649">
        <ele>1630</ele>
        <time>2021-09-01T09:27:33.000Z</time>
      </trkpt>
      <trkpt lat="44.42781" lon="6.37646">
        <ele>1631</ele>
        <time>2021-09-01T09:27:34.000Z</time>
      </trkpt>
      <trkpt lat="44.42779" lon="6.37644">
        <ele>1631</ele>
        <time>2021-09-01T09:27:35.000Z</time>
      </trkpt>
      <trkpt lat="44.42778" lon="6.37642">
        <ele>1631</ele>
        <time>2021-09-01T09:27:36.000Z</time>
      </trkpt>
      <trkpt lat="44.42776" lon="6.3764">
        <ele>1631</ele>
        <time>2021-09-01T09:27:37.000Z</time>
      </trkpt>
      <trkpt lat="44.42774" lon="6.37638">
        <ele>1631</ele>
        <time>2021-09-01T09:27:38.000Z</time>
      </trkpt>
      <trkpt lat="44.42773" lon="6.37635">
        <ele>1631</ele>
        <time>2021-09-01T09:27:39.000Z</time>
      </trkpt>
      <trkpt lat="44.42772" lon="6.37633">
        <ele>1632</ele>
        <time>2021-09-01T09:27:40.000Z</time>
      </trkpt>
      <trkpt lat="44.4277" lon="6.37631">
        <ele>1632</ele>
        <time>2021-09-01T09:27:41.000Z</time>
      </trkpt>
      <trkpt lat="44.42768" lon="6.37629">
        <ele>1633</ele>
        <time>2021-09-01T09:27:42.000Z</time>
      </trkpt>
      <trkpt lat="44.42767" lon="6.37627">
        <ele>1632</ele>
        <time>2021-09-01T09:27:43.000Z</time>
      </trkpt>
      <trkpt lat="44.42765" lon="6.37625">
        <ele>1632</ele>
        <time>2021-09-01T09:27:44.000Z</time>
      </trkpt>
      <trkpt lat="44.42764" lon="6.37623">
        <ele>1632</ele>
        <time>2021-09-01T09:27:45.000Z</time>
      </trkpt>
      <trkpt lat="44.42762" lon="6.3762">
        <ele>1633</ele>
        <time>2021-09-01T09:27:46.000Z</time>
      </trkpt>
      <trkpt lat="44.42761" lon="6.37618">
        <ele>1633</ele>
        <time>2021-09-01T09:27:47.000Z</time>
      </trkpt>
      <trkpt lat="44.42759" lon="6.37615">
        <ele>1634</ele>
        <time>2021-09-01T09:27:48.000Z</time>
      </trkpt>
      <trkpt lat="44.42758" lon="6.37613">
        <ele>1633</ele>
        <time>2021-09-01T09:27:49.000Z</time>
      </trkpt>
      <trkpt lat="44.42756" lon="6.37611">
        <ele>1634</ele>
        <time>2021-09-01T09:27:50.000Z</time>
      </trkpt>
      <trkpt lat="44.42755" lon="6.37609">
        <ele>1634</ele>
        <time>2021-09-01T09:27:51.000Z</time>
      </trkpt>
      <trkpt lat="44.42753" lon="6.37607">
        <ele>1634</ele>
        <time>2021-09-01T09:27:52.000Z</time>
      </trkpt>
      <trkpt lat="44.42752" lon="6.37605">
        <ele>1633</ele>
        <time>2021-09-01T09:27:53.000Z</time>
      </trkpt>
      <trkpt lat="44.4275" lon="6.37603">
        <ele>1634</ele>
        <time>2021-09-01T09:27:54.000Z</time>
      </trkpt>
      <trkpt lat="44.42749" lon="6.37601">
        <ele>1634</ele>
        <time>2021-09-01T09:27:55.000Z</time>
      </trkpt>
      <trkpt lat="44.42748" lon="6.37599">
        <ele>1634</ele>
        <time>2021-09-01T09:27:56.000Z</time>
      </trkpt>
      <trkpt lat="44.42746" lon="6.37597">
        <ele>1634</ele>
        <time>2021-09-01T09:27:57.000Z</time>
      </trkpt>
      <trkpt lat="44.42744" lon="6.37595">
        <ele>1635</ele>
        <time>2021-09-01T09:27:58.000Z</time>
      </trkpt>
      <trkpt lat="44.42743" lon="6.37593">
        <ele>1635</ele>
        <time>2021-09-01T09:27:59.000Z</time>
      </trkpt>
      <trkpt lat="44.42741" lon="6.37593">
        <ele>1634</ele>
        <time>2021-09-01T09:28:00.000Z</time>
      </trkpt>
      <trkpt lat="44.4274" lon="6.37591">
        <ele>1635</ele>
        <time>2021-09-01T09:28:01.000Z</time>
      </trkpt>
      <trkpt lat="44.42738" lon="6.3759">
        <ele>1636</ele>
        <time>2021-09-01T09:28:02.000Z</time>
      </trkpt>
      <trkpt lat="44.42736" lon="6.37589">
        <ele>1636</ele>
        <time>2021-09-01T09:28:03.000Z</time>
      </trkpt>
      <trkpt lat="44.42734" lon="6.37586">
        <ele>1637</ele>
        <time>2021-09-01T09:28:04.000Z</time>
      </trkpt>
      <trkpt lat="44.42732" lon="6.37585">
        <ele>1638</ele>
        <time>2021-09-01T09:28:05.000Z</time>
      </trkpt>
      <trkpt lat="44.4273" lon="6.37584">
        <ele>1639</ele>
        <time>2021-09-01T09:28:06.000Z</time>
      </trkpt>
      <trkpt lat="44.42728" lon="6.37583">
        <ele>1639</ele>
        <time>2021-09-01T09:28:07.000Z</time>
      </trkpt>
      <trkpt lat="44.42727" lon="6.37582">
        <ele>1639</ele>
        <time>2021-09-01T09:28:08.000Z</time>
      </trkpt>
      <trkpt lat="44.42725" lon="6.37581">
        <ele>1640</ele>
        <time>2021-09-01T09:28:09.000Z</time>
      </trkpt>
      <trkpt lat="44.42723" lon="6.3758">
        <ele>1640</ele>
        <time>2021-09-01T09:28:10.000Z</time>
      </trkpt>
      <trkpt lat="44.42721" lon="6.37579">
        <ele>1640</ele>
        <time>2021-09-01T09:28:11.000Z</time>
      </trkpt>
      <trkpt lat="44.42719" lon="6.37577">
        <ele>1640</ele>
        <time>2021-09-01T09:28:12.000Z</time>
      </trkpt>
      <trkpt lat="44.42717" lon="6.37576">
        <ele>1641</ele>
        <time>2021-09-01T09:28:13.000Z</time>
      </trkpt>
      <trkpt lat="44.42715" lon="6.37575">
        <ele>1641</ele>
        <time>2021-09-01T09:28:14.000Z</time>
      </trkpt>
      <trkpt lat="44.42713" lon="6.37574">
        <ele>1641</ele>
        <time>2021-09-01T09:28:15.000Z</time>
      </trkpt>
      <trkpt lat="44.42711" lon="6.37573">
        <ele>1641</ele>
        <time>2021-09-01T09:28:16.000Z</time>
      </trkpt>
      <trkpt lat="44.42709" lon="6.37572">
        <ele>1641</ele>
        <time>2021-09-01T09:28:17.000Z</time>
      </trkpt>
      <trkpt lat="44.42707" lon="6.3757">
        <ele>1641</ele>
        <time>2021-09-01T09:28:18.000Z</time>
      </trkpt>
      <trkpt lat="44.42705" lon="6.37569">
        <ele>1641</ele>
        <time>2021-09-01T09:28:19.000Z</time>
      </trkpt>
      <trkpt lat="44.42702" lon="6.37567">
        <ele>1642</ele>
        <time>2021-09-01T09:28:20.000Z</time>
      </trkpt>
      <trkpt lat="44.42701" lon="6.37566">
        <ele>1642</ele>
        <time>2021-09-01T09:28:21.000Z</time>
      </trkpt>
      <trkpt lat="44.42699" lon="6.37564">
        <ele>1642</ele>
        <time>2021-09-01T09:28:22.000Z</time>
      </trkpt>
      <trkpt lat="44.42696" lon="6.37563">
        <ele>1643</ele>
        <time>2021-09-01T09:28:23.000Z</time>
      </trkpt>
      <trkpt lat="44.42694" lon="6.37561">
        <ele>1644</ele>
        <time>2021-09-01T09:28:24.000Z</time>
      </trkpt>
      <trkpt lat="44.42692" lon="6.3756">
        <ele>1645</ele>
        <time>2021-09-01T09:28:25.000Z</time>
      </trkpt>
      <trkpt lat="44.4269" lon="6.37558">
        <ele>1646</ele>
        <time>2021-09-01T09:28:26.000Z</time>
      </trkpt>
      <trkpt lat="44.42688" lon="6.37557">
        <ele>1646</ele>
        <time>2021-09-01T09:28:27.000Z</time>
      </trkpt>
      <trkpt lat="44.42686" lon="6.37556">
        <ele>1646</ele>
        <time>2021-09-01T09:28:28.000Z</time>
      </trkpt>
      <trkpt lat="44.42684" lon="6.37556">
        <ele>1646</ele>
        <time>2021-09-01T09:28:29.000Z</time>
      </trkpt>
      <trkpt lat="44.42682" lon="6.37555">
        <ele>1647</ele>
        <time>2021-09-01T09:28:30.000Z</time>
      </trkpt>
      <trkpt lat="44.42679" lon="6.37554">
        <ele>1647</ele>
        <time>2021-09-01T09:28:31.000Z</time>
      </trkpt>
      <trkpt lat="44.42677" lon="6.37553">
        <ele>1649</ele>
        <time>2021-09-01T09:28:32.000Z</time>
      </trkpt>
      <trkpt lat="44.42675" lon="6.37552">
        <ele>1649</ele>
        <time>2021-09-01T09:28:33.000Z</time>
      </trkpt>
      <trkpt lat="44.42673" lon="6.37551">
        <ele>1650</ele>
        <time>2021-09-01T09:28:34.000Z</time>
      </trkpt>
      <trkpt lat="44.4267" lon="6.3755">
        <ele>1651</ele>
        <time>2021-09-01T09:28:35.000Z</time>
      </trkpt>
      <trkpt lat="44.42668" lon="6.37548">
        <ele>1651</ele>
        <time>2021-09-01T09:28:36.000Z</time>
      </trkpt>
      <trkpt lat="44.42666" lon="6.37547">
        <ele>1652</ele>
        <time>2021-09-01T09:28:37.000Z</time>
      </trkpt>
      <trkpt lat="44.42664" lon="6.37545">
        <ele>1653</ele>
        <time>2021-09-01T09:28:38.000Z</time>
      </trkpt>
      <trkpt lat="44.42662" lon="6.37545">
        <ele>1653</ele>
        <time>2021-09-01T09:28:39.000Z</time>
      </trkpt>
      <trkpt lat="44.4266" lon="6.37544">
        <ele>1653</ele>
        <time>2021-09-01T09:28:40.000Z</time>
      </trkpt>
      <trkpt lat="44.42658" lon="6.37542">
        <ele>1654</ele>
        <time>2021-09-01T09:28:41.000Z</time>
      </trkpt>
      <trkpt lat="44.42656" lon="6.37541">
        <ele>1655</ele>
        <time>2021-09-01T09:28:42.000Z</time>
      </trkpt>
      <trkpt lat="44.42654" lon="6.3754">
        <ele>1655</ele>
        <time>2021-09-01T09:28:43.000Z</time>
      </trkpt>
      <trkpt lat="44.42652" lon="6.37539">
        <ele>1656</ele>
        <time>2021-09-01T09:28:44.000Z</time>
      </trkpt>
      <trkpt lat="44.4265" lon="6.37538">
        <ele>1656</ele>
        <time>2021-09-01T09:28:45.000Z</time>
      </trkpt>
      <trkpt lat="44.42648" lon="6.37536">
        <ele>1656</ele>
        <time>2021-09-01T09:28:46.000Z</time>
      </trkpt>
      <trkpt lat="44.42646" lon="6.37535">
        <ele>1657</ele>
        <time>2021-09-01T09:28:47.000Z</time>
      </trkpt>
      <trkpt lat="44.42644" lon="6.37534">
        <ele>1656</ele>
        <time>2021-09-01T09:28:48.000Z</time>
      </trkpt>
      <trkpt lat="44.42642" lon="6.37533">
        <ele>1656</ele>
        <time>2021-09-01T09:28:49.000Z</time>
      </trkpt>
      <trkpt lat="44.4264" lon="6.3753">
        <ele>1656</ele>
        <time>2021-09-01T09:28:50.000Z</time>
      </trkpt>
      <trkpt lat="44.42638" lon="6.37529">
        <ele>1656</ele>
        <time>2021-09-01T09:28:51.000Z</time>
      </trkpt>
      <trkpt lat="44.42636" lon="6.37527">
        <ele>1656</ele>
        <time>2021-09-01T09:28:52.000Z</time>
      </trkpt>
      <trkpt lat="44.42634" lon="6.37525">
        <ele>1656</ele>
        <time>2021-09-01T09:28:53.000Z</time>
      </trkpt>
      <trkpt lat="44.42633" lon="6.37524">
        <ele>1656</ele>
        <time>2021-09-01T09:28:54.000Z</time>
      </trkpt>
      <trkpt lat="44.42631" lon="6.37522">
        <ele>1656</ele>
        <time>2021-09-01T09:28:55.000Z</time>
      </trkpt>
      <trkpt lat="44.42629" lon="6.3752">
        <ele>1656</ele>
        <time>2021-09-01T09:28:56.000Z</time>
      </trkpt>
      <trkpt lat="44.42627" lon="6.37519">
        <ele>1657</ele>
        <time>2021-09-01T09:28:57.000Z</time>
      </trkpt>
      <trkpt lat="44.42625" lon="6.37517">
        <ele>1657</ele>
        <time>2021-09-01T09:28:58.000Z</time>
      </trkpt>
      <trkpt lat="44.42623" lon="6.37516">
        <ele>1657</ele>
        <time>2021-09-01T09:28:59.000Z</time>
      </trkpt>
      <trkpt lat="44.42621" lon="6.37514">
        <ele>1657</ele>
        <time>2021-09-01T09:29:00.000Z</time>
      </trkpt>
      <trkpt lat="44.4262" lon="6.37513">
        <ele>1657</ele>
        <time>2021-09-01T09:29:01.000Z</time>
      </trkpt>
      <trkpt lat="44.42618" lon="6.37512">
        <ele>1658</ele>
        <time>2021-09-01T09:29:02.000Z</time>
      </trkpt>
      <trkpt lat="44.42615" lon="6.37511">
        <ele>1658</ele>
        <time>2021-09-01T09:29:03.000Z</time>
      </trkpt>
      <trkpt lat="44.42613" lon="6.3751">
        <ele>1658</ele>
        <time>2021-09-01T09:29:04.000Z</time>
      </trkpt>
      <trkpt lat="44.42611" lon="6.37508">
        <ele>1660</ele>
        <time>2021-09-01T09:29:05.000Z</time>
      </trkpt>
      <trkpt lat="44.42609" lon="6.37507">
        <ele>1660</ele>
        <time>2021-09-01T09:29:06.000Z</time>
      </trkpt>
      <trkpt lat="44.42607" lon="6.37508">
        <ele>1660</ele>
        <time>2021-09-01T09:29:07.000Z</time>
      </trkpt>
      <trkpt lat="44.42605" lon="6.37508">
        <ele>1660</ele>
        <time>2021-09-01T09:29:08.000Z</time>
      </trkpt>
      <trkpt lat="44.42602" lon="6.37507">
        <ele>1660</ele>
        <time>2021-09-01T09:29:09.000Z</time>
      </trkpt>
      <trkpt lat="44.426" lon="6.37506">
        <ele>1661</ele>
        <time>2021-09-01T09:29:10.000Z</time>
      </trkpt>
      <trkpt lat="44.42598" lon="6.37505">
        <ele>1662</ele>
        <time>2021-09-01T09:29:11.000Z</time>
      </trkpt>
      <trkpt lat="44.42596" lon="6.37505">
        <ele>1662</ele>
        <time>2021-09-01T09:29:12.000Z</time>
      </trkpt>
      <trkpt lat="44.42593" lon="6.37504">
        <ele>1662</ele>
        <time>2021-09-01T09:29:13.000Z</time>
      </trkpt>
      <trkpt lat="44.42591" lon="6.37503">
        <ele>1663</ele>
        <time>2021-09-01T09:29:14.000Z</time>
      </trkpt>
      <trkpt lat="44.42589" lon="6.37503">
        <ele>1663</ele>
        <time>2021-09-01T09:29:15.000Z</time>
      </trkpt>
      <trkpt lat="44.42586" lon="6.37502">
        <ele>1663</ele>
        <time>2021-09-01T09:29:16.000Z</time>
      </trkpt>
      <trkpt lat="44.42584" lon="6.37501">
        <ele>1663</ele>
        <time>2021-09-01T09:29:17.000Z</time>
      </trkpt>
      <trkpt lat="44.42582" lon="6.375">
        <ele>1663</ele>
        <time>2021-09-01T09:29:18.000Z</time>
      </trkpt>
      <trkpt lat="44.4258" lon="6.37499">
        <ele>1663</ele>
        <time>2021-09-01T09:29:19.000Z</time>
      </trkpt>
      <trkpt lat="44.42577" lon="6.37498">
        <ele>1663</ele>
        <time>2021-09-01T09:29:20.000Z</time>
      </trkpt>
      <trkpt lat="44.42575" lon="6.37497">
        <ele>1664</ele>
        <time>2021-09-01T09:29:21.000Z</time>
      </trkpt>
      <trkpt lat="44.42573" lon="6.37496">
        <ele>1664</ele>
        <time>2021-09-01T09:29:22.000Z</time>
      </trkpt>
      <trkpt lat="44.42571" lon="6.37495">
        <ele>1664</ele>
        <time>2021-09-01T09:29:23.000Z</time>
      </trkpt>
      <trkpt lat="44.42569" lon="6.37494">
        <ele>1664</ele>
        <time>2021-09-01T09:29:24.000Z</time>
      </trkpt>
      <trkpt lat="44.42567" lon="6.37494">
        <ele>1664</ele>
        <time>2021-09-01T09:29:25.000Z</time>
      </trkpt>
      <trkpt lat="44.42565" lon="6.37492">
        <ele>1663</ele>
        <time>2021-09-01T09:29:26.000Z</time>
      </trkpt>
      <trkpt lat="44.42563" lon="6.37491">
        <ele>1663</ele>
        <time>2021-09-01T09:29:27.000Z</time>
      </trkpt>
      <trkpt lat="44.42561" lon="6.37491">
        <ele>1663</ele>
        <time>2021-09-01T09:29:28.000Z</time>
      </trkpt>
      <trkpt lat="44.42558" lon="6.37491">
        <ele>1663</ele>
        <time>2021-09-01T09:29:29.000Z</time>
      </trkpt>
      <trkpt lat="44.42556" lon="6.37491">
        <ele>1663</ele>
        <time>2021-09-01T09:29:30.000Z</time>
      </trkpt>
      <trkpt lat="44.42554" lon="6.3749">
        <ele>1663</ele>
        <time>2021-09-01T09:29:31.000Z</time>
      </trkpt>
      <trkpt lat="44.42552" lon="6.3749">
        <ele>1662</ele>
        <time>2021-09-01T09:29:32.000Z</time>
      </trkpt>
      <trkpt lat="44.4255" lon="6.37489">
        <ele>1663</ele>
        <time>2021-09-01T09:29:33.000Z</time>
      </trkpt>
      <trkpt lat="44.42548" lon="6.37489">
        <ele>1662</ele>
        <time>2021-09-01T09:29:34.000Z</time>
      </trkpt>
      <trkpt lat="44.42545" lon="6.3749">
        <ele>1661</ele>
        <time>2021-09-01T09:29:35.000Z</time>
      </trkpt>
      <trkpt lat="44.42542" lon="6.3749">
        <ele>1661</ele>
        <time>2021-09-01T09:29:36.000Z</time>
      </trkpt>
      <trkpt lat="44.4254" lon="6.37489">
        <ele>1661</ele>
        <time>2021-09-01T09:29:37.000Z</time>
      </trkpt>
      <trkpt lat="44.42537" lon="6.37489">
        <ele>1661</ele>
        <time>2021-09-01T09:29:38.000Z</time>
      </trkpt>
      <trkpt lat="44.42535" lon="6.37489">
        <ele>1661</ele>
        <time>2021-09-01T09:29:39.000Z</time>
      </trkpt>
      <trkpt lat="44.42533" lon="6.37489">
        <ele>1661</ele>
        <time>2021-09-01T09:29:40.000Z</time>
      </trkpt>
      <trkpt lat="44.42531" lon="6.37489">
        <ele>1661</ele>
        <time>2021-09-01T09:29:41.000Z</time>
      </trkpt>
      <trkpt lat="44.4253" lon="6.37489">
        <ele>1662</ele>
        <time>2021-09-01T09:29:42.000Z</time>
      </trkpt>
      <trkpt lat="44.42529" lon="6.37488">
        <ele>1662</ele>
        <time>2021-09-01T09:29:43.000Z</time>
      </trkpt>
      <trkpt lat="44.42529" lon="6.37488">
        <ele>1662</ele>
        <time>2021-09-01T09:29:44.000Z</time>
      </trkpt>
      <trkpt lat="44.42528" lon="6.37487">
        <ele>1663</ele>
        <time>2021-09-01T09:29:45.000Z</time>
      </trkpt>
      <trkpt lat="44.42528" lon="6.37487">
        <ele>1662</ele>
        <time>2021-09-01T09:29:46.000Z</time>
      </trkpt>
      <trkpt lat="44.42527" lon="6.37486">
        <ele>1662</ele>
        <time>2021-09-01T09:29:47.000Z</time>
      </trkpt>
      <trkpt lat="44.42527" lon="6.37486">
        <ele>1663</ele>
        <time>2021-09-01T09:29:48.000Z</time>
      </trkpt>
      <trkpt lat="44.42526" lon="6.37485">
        <ele>1663</ele>
        <time>2021-09-01T09:29:49.000Z</time>
      </trkpt>
      <trkpt lat="44.42526" lon="6.37486">
        <ele>1663</ele>
        <time>2021-09-01T09:29:50.000Z</time>
      </trkpt>
      <trkpt lat="44.42526" lon="6.37485">
        <ele>1664</ele>
        <time>2021-09-01T09:29:51.000Z</time>
      </trkpt>
      <trkpt lat="44.42525" lon="6.37485">
        <ele>1665</ele>
        <time>2021-09-01T09:29:52.000Z</time>
      </trkpt>
      <trkpt lat="44.42526" lon="6.37485">
        <ele>1666</ele>
        <time>2021-09-01T09:29:53.000Z</time>
      </trkpt>
      <trkpt lat="44.42525" lon="6.37485">
        <ele>1666</ele>
        <time>2021-09-01T09:29:54.000Z</time>
      </trkpt>
      <trkpt lat="44.42526" lon="6.37485">
        <ele>1666</ele>
        <time>2021-09-01T09:29:55.000Z</time>
      </trkpt>
      <trkpt lat="44.42525" lon="6.37485">
        <ele>1667</ele>
        <time>2021-09-01T09:29:56.000Z</time>
      </trkpt>
      <trkpt lat="44.42525" lon="6.37485">
        <ele>1667</ele>
        <time>2021-09-01T09:29:57.000Z</time>
      </trkpt>
      <trkpt lat="44.42526" lon="6.37485">
        <ele>1666</ele>
        <time>2021-09-01T09:29:58.000Z</time>
      </trkpt>
      <trkpt lat="44.42526" lon="6.37485">
        <ele>1666</ele>
        <time>2021-09-01T09:29:59.000Z</time>
      </trkpt>
      <trkpt lat="44.42526" lon="6.37485">
        <ele>1666</ele>
        <time>2021-09-01T09:30:00.000Z</time>
      </trkpt>
      <trkpt lat="44.42527" lon="6.37485">
        <ele>1667</ele>
        <time>2021-09-01T09:30:01.000Z</time>
      </trkpt>
      <trkpt lat="44.42526" lon="6.37485">
        <ele>1667</ele>
        <time>2021-09-01T09:30:02.000Z</time>
      </trkpt>
      <trkpt lat="44.42526" lon="6.37485">
        <ele>1668</ele>
        <time>2021-09-01T09:30:03.000Z</time>
      </trkpt>
      <trkpt lat="44.42526" lon="6.37485">
        <ele>1668</ele>
        <time>2021-09-01T09:30:04.000Z</time>
      </trkpt>
      <trkpt lat="44.42526" lon="6.37485">
        <ele>1668</ele>
        <time>2021-09-01T09:30:05.000Z</time>
      </trkpt>
      <trkpt lat="44.42526" lon="6.37485">
        <ele>1668</ele>
        <time>2021-09-01T09:30:06.000Z</time>
      </trkpt>
      <trkpt lat="44.42525" lon="6.37484">
        <ele>1668</ele>
        <time>2021-09-01T09:30:07.000Z</time>
      </trkpt>
      <trkpt lat="44.42525" lon="6.37484">
        <ele>1669</ele>
        <time>2021-09-01T09:30:08.000Z</time>
      </trkpt>
      <trkpt lat="44.42525" lon="6.37484">
        <ele>1669</ele>
        <time>2021-09-01T09:30:09.000Z</time>
      </trkpt>
      <trkpt lat="44.42525" lon="6.37484">
        <ele>1669</ele>
        <time>2021-09-01T09:30:10.000Z</time>
      </trkpt>
      <trkpt lat="44.42525" lon="6.37483">
        <ele>1669</ele>
        <time>2021-09-01T09:30:11.000Z</time>
      </trkpt>
      <trkpt lat="44.42525" lon="6.37483">
        <ele>1669</ele>
        <time>2021-09-01T09:30:12.000Z</time>
      </trkpt>
      <trkpt lat="44.42524" lon="6.37483">
        <ele>1669</ele>
        <time>2021-09-01T09:30:13.000Z</time>
      </trkpt>
      <trkpt lat="44.42524" lon="6.37483">
        <ele>1670</ele>
        <time>2021-09-01T09:30:14.000Z</time>
      </trkpt>
      <trkpt lat="44.42524" lon="6.37482">
        <ele>1670</ele>
        <time>2021-09-01T09:30:15.000Z</time>
      </trkpt>
      <trkpt lat="44.42524" lon="6.37482">
        <ele>1671</ele>
        <time>2021-09-01T09:30:16.000Z</time>
      </trkpt>
      <trkpt lat="44.42524" lon="6.37481">
        <ele>1671</ele>
        <time>2021-09-01T09:30:17.000Z</time>
      </trkpt>
      <trkpt lat="44.42524" lon="6.37481">
        <ele>1672</ele>
        <time>2021-09-01T09:30:18.000Z</time>
      </trkpt>
      <trkpt lat="44.42523" lon="6.3748">
        <ele>1672</ele>
        <time>2021-09-01T09:30:19.000Z</time>
      </trkpt>
      <trkpt lat="44.42523" lon="6.3748">
        <ele>1673</ele>
        <time>2021-09-01T09:30:20.000Z</time>
      </trkpt>
      <trkpt lat="44.42523" lon="6.3748">
        <ele>1674</ele>
        <time>2021-09-01T09:30:21.000Z</time>
      </trkpt>
      <trkpt lat="44.42523" lon="6.37479">
        <ele>1674</ele>
        <time>2021-09-01T09:30:22.000Z</time>
      </trkpt>
      <trkpt lat="44.42523" lon="6.37479">
        <ele>1675</ele>
        <time>2021-09-01T09:30:23.000Z</time>
      </trkpt>
      <trkpt lat="44.42523" lon="6.37478">
        <ele>1675</ele>
        <time>2021-09-01T09:30:24.000Z</time>
      </trkpt>
      <trkpt lat="44.42523" lon="6.37478">
        <ele>1675</ele>
        <time>2021-09-01T09:30:25.000Z</time>
      </trkpt>
      <trkpt lat="44.42523" lon="6.37478">
        <ele>1673</ele>
        <time>2021-09-01T09:30:26.000Z</time>
      </trkpt>
      <trkpt lat="44.42523" lon="6.37478">
        <ele>1673</ele>
        <time>2021-09-01T09:30:27.000Z</time>
      </trkpt>
      <trkpt lat="44.42523" lon="6.37478">
        <ele>1673</ele>
        <time>2021-09-01T09:30:28.000Z</time>
      </trkpt>
      <trkpt lat="44.42523" lon="6.37478">
        <ele>1674</ele>
        <time>2021-09-01T09:30:29.000Z</time>
      </trkpt>
      <trkpt lat="44.42523" lon="6.37478">
        <ele>1673</ele>
        <time>2021-09-01T09:30:30.000Z</time>
      </trkpt>
      <trkpt lat="44.42523" lon="6.37477">
        <ele>1673</ele>
        <time>2021-09-01T09:30:31.000Z</time>
      </trkpt>
      <trkpt lat="44.42523" lon="6.37478">
        <ele>1672</ele>
        <time>2021-09-01T09:30:32.000Z</time>
      </trkpt>
      <trkpt lat="44.42523" lon="6.37478">
        <ele>1671</ele>
        <time>2021-09-01T09:30:33.000Z</time>
      </trkpt>
      <trkpt lat="44.42523" lon="6.37478">
        <ele>1671</ele>
        <time>2021-09-01T09:30:34.000Z</time>
      </trkpt>
      <trkpt lat="44.42523" lon="6.37478">
        <ele>1672</ele>
        <time>2021-09-01T09:30:35.000Z</time>
      </trkpt>
      <trkpt lat="44.42523" lon="6.37478">
        <ele>1672</ele>
        <time>2021-09-01T09:30:36.000Z</time>
      </trkpt>
      <trkpt lat="44.42523" lon="6.37478">
        <ele>1673</ele>
        <time>2021-09-01T09:30:37.000Z</time>
      </trkpt>
      <trkpt lat="44.42523" lon="6.37478">
        <ele>1674</ele>
        <time>2021-09-01T09:30:38.000Z</time>
      </trkpt>
      <trkpt lat="44.42523" lon="6.37477">
        <ele>1675</ele>
        <time>2021-09-01T09:30:39.000Z</time>
      </trkpt>
      <trkpt lat="44.42523" lon="6.37477">
        <ele>1675</ele>
        <time>2021-09-01T09:30:40.000Z</time>
      </trkpt>
      <trkpt lat="44.42523" lon="6.37477">
        <ele>1676</ele>
        <time>2021-09-01T09:30:41.000Z</time>
      </trkpt>
      <trkpt lat="44.42523" lon="6.37477">
        <ele>1677</ele>
        <time>2021-09-01T09:30:42.000Z</time>
      </trkpt>
      <trkpt lat="44.42523" lon="6.37478">
        <ele>1676</ele>
        <time>2021-09-01T09:30:43.000Z</time>
      </trkpt>
      <trkpt lat="44.42523" lon="6.37478">
        <ele>1676</ele>
        <time>2021-09-01T09:30:44.000Z</time>
      </trkpt>
      <trkpt lat="44.42523" lon="6.37478">
        <ele>1677</ele>
        <time>2021-09-01T09:30:45.000Z</time>
      </trkpt>
      <trkpt lat="44.42523" lon="6.37479">
        <ele>1676</ele>
        <time>2021-09-01T09:30:46.000Z</time>
      </trkpt>
      <trkpt lat="44.42523" lon="6.37479">
        <ele>1676</ele>
        <time>2021-09-01T09:30:47.000Z</time>
      </trkpt>
      <trkpt lat="44.42524" lon="6.37479">
        <ele>1676</ele>
        <time>2021-09-01T09:30:48.000Z</time>
      </trkpt>
      <trkpt lat="44.42524" lon="6.37479">
        <ele>1677</ele>
        <time>2021-09-01T09:30:49.000Z</time>
      </trkpt>
      <trkpt lat="44.42524" lon="6.37479">
        <ele>1677</ele>
        <time>2021-09-01T09:30:50.000Z</time>
      </trkpt>
      <trkpt lat="44.42524" lon="6.37479">
        <ele>1677</ele>
        <time>2021-09-01T09:30:51.000Z</time>
      </trkpt>
      <trkpt lat="44.42524" lon="6.37479">
        <ele>1677</ele>
        <time>2021-09-01T09:30:52.000Z</time>
      </trkpt>
      <trkpt lat="44.42524" lon="6.37479">
        <ele>1677</ele>
        <time>2021-09-01T09:30:53.000Z</time>
      </trkpt>
      <trkpt lat="44.42524" lon="6.37479">
        <ele>1677</ele>
        <time>2021-09-01T09:30:54.000Z</time>
      </trkpt>
      <trkpt lat="44.42524" lon="6.37479">
        <ele>1677</ele>
        <time>2021-09-01T09:30:55.000Z</time>
      </trkpt>
      <trkpt lat="44.42524" lon="6.37479">
        <ele>1677</ele>
        <time>2021-09-01T09:30:56.000Z</time>
      </trkpt>
      <trkpt lat="44.42524" lon="6.37479">
        <ele>1676</ele>
        <time>2021-09-01T09:30:57.000Z</time>
      </trkpt>
      <trkpt lat="44.42524" lon="6.37479">
        <ele>1676</ele>
        <time>2021-09-01T09:30:58.000Z</time>
      </trkpt>
      <trkpt lat="44.42524" lon="6.37479">
        <ele>1676</ele>
        <time>2021-09-01T09:30:59.000Z</time>
      </trkpt>
      <trkpt lat="44.42524" lon="6.37479">
        <ele>1675</ele>
        <time>2021-09-01T09:31:00.000Z</time>
      </trkpt>
      <trkpt lat="44.42524" lon="6.37479">
        <ele>1675</ele>
        <time>2021-09-01T09:31:01.000Z</time>
      </trkpt>
      <trkpt lat="44.42524" lon="6.37479">
        <ele>1675</ele>
        <time>2021-09-01T09:31:02.000Z</time>
      </trkpt>
      <trkpt lat="44.42524" lon="6.37479">
        <ele>1675</ele>
        <time>2021-09-01T09:31:03.000Z</time>
      </trkpt>
      <trkpt lat="44.42524" lon="6.37479">
        <ele>1675</ele>
        <time>2021-09-01T09:31:04.000Z</time>
      </trkpt>
      <trkpt lat="44.42525" lon="6.37478">
        <ele>1675</ele>
        <time>2021-09-01T09:31:05.000Z</time>
      </trkpt>
      <trkpt lat="44.42525" lon="6.37478">
        <ele>1675</ele>
        <time>2021-09-01T09:31:06.000Z</time>
      </trkpt>
      <trkpt lat="44.42525" lon="6.37479">
        <ele>1675</ele>
        <time>2021-09-01T09:31:07.000Z</time>
      </trkpt>
      <trkpt lat="44.42525" lon="6.37479">
        <ele>1675</ele>
        <time>2021-09-01T09:31:08.000Z</time>
      </trkpt>
      <trkpt lat="44.42525" lon="6.37479">
        <ele>1675</ele>
        <time>2021-09-01T09:31:09.000Z</time>
      </trkpt>
      <trkpt lat="44.42524" lon="6.37478">
        <ele>1675</ele>
        <time>2021-09-01T09:31:10.000Z</time>
      </trkpt>
      <trkpt lat="44.42525" lon="6.37479">
        <ele>1675</ele>
        <time>2021-09-01T09:31:11.000Z</time>
      </trkpt>
      <trkpt lat="44.42525" lon="6.37479">
        <ele>1675</ele>
        <time>2021-09-01T09:31:12.000Z</time>
      </trkpt>
      <trkpt lat="44.42525" lon="6.37479">
        <ele>1675</ele>
        <time>2021-09-01T09:31:13.000Z</time>
      </trkpt>
      <trkpt lat="44.42525" lon="6.37479">
        <ele>1675</ele>
        <time>2021-09-01T09:31:14.000Z</time>
      </trkpt>
      <trkpt lat="44.42525" lon="6.37479">
        <ele>1675</ele>
        <time>2021-09-01T09:31:15.000Z</time>
      </trkpt>
      <trkpt lat="44.42525" lon="6.37479">
        <ele>1675</ele>
        <time>2021-09-01T09:31:16.000Z</time>
      </trkpt>
      <trkpt lat="44.42525" lon="6.37479">
        <ele>1675</ele>
        <time>2021-09-01T09:31:17.000Z</time>
      </trkpt>
      <trkpt lat="44.42525" lon="6.37479">
        <ele>1675</ele>
        <time>2021-09-01T09:31:18.000Z</time>
      </trkpt>
      <trkpt lat="44.42524" lon="6.37478">
        <ele>1675</ele>
        <time>2021-09-01T09:31:19.000Z</time>
      </trkpt>
      <trkpt lat="44.42524" lon="6.37478">
        <ele>1675</ele>
        <time>2021-09-01T09:31:20.000Z</time>
      </trkpt>
      <trkpt lat="44.42524" lon="6.37478">
        <ele>1675</ele>
        <time>2021-09-01T09:31:21.000Z</time>
      </trkpt>
      <trkpt lat="44.42524" lon="6.37478">
        <ele>1675</ele>
        <time>2021-09-01T09:31:22.000Z</time>
      </trkpt>
      <trkpt lat="44.42524" lon="6.37478">
        <ele>1675</ele>
        <time>2021-09-01T09:31:23.000Z</time>
      </trkpt>
      <trkpt lat="44.42524" lon="6.37478">
        <ele>1675</ele>
        <time>2021-09-01T09:31:24.000Z</time>
      </trkpt>
      <trkpt lat="44.42524" lon="6.37478">
        <ele>1676</ele>
        <time>2021-09-01T09:31:25.000Z</time>
      </trkpt>
      <trkpt lat="44.42524" lon="6.37478">
        <ele>1676</ele>
        <time>2021-09-01T09:31:26.000Z</time>
      </trkpt>
      <trkpt lat="44.42524" lon="6.37479">
        <ele>1676</ele>
        <time>2021-09-01T09:31:27.000Z</time>
      </trkpt>
      <trkpt lat="44.42524" lon="6.37479">
        <ele>1675</ele>
        <time>2021-09-01T09:31:28.000Z</time>
      </trkpt>
      <trkpt lat="44.42525" lon="6.37479">
        <ele>1677</ele>
        <time>2021-09-01T09:31:29.000Z</time>
      </trkpt>
      <trkpt lat="44.42525" lon="6.37479">
        <ele>1676</ele>
        <time>2021-09-01T09:31:30.000Z</time>
      </trkpt>
      <trkpt lat="44.42525" lon="6.37479">
        <ele>1676</ele>
        <time>2021-09-01T09:31:31.000Z</time>
      </trkpt>
      <trkpt lat="44.42525" lon="6.37479">
        <ele>1676</ele>
        <time>2021-09-01T09:31:32.000Z</time>
      </trkpt>
      <trkpt lat="44.42525" lon="6.37479">
        <ele>1676</ele>
        <time>2021-09-01T09:31:33.000Z</time>
      </trkpt>
      <trkpt lat="44.42525" lon="6.37479">
        <ele>1676</ele>
        <time>2021-09-01T09:31:34.000Z</time>
      </trkpt>
      <trkpt lat="44.42525" lon="6.37479">
        <ele>1676</ele>
        <time>2021-09-01T09:31:35.000Z</time>
      </trkpt>
      <trkpt lat="44.42525" lon="6.37479">
        <ele>1676</ele>
        <time>2021-09-01T09:31:36.000Z</time>
      </trkpt>
      <trkpt lat="44.42524" lon="6.3748">
        <ele>1677</ele>
        <time>2021-09-01T09:31:37.000Z</time>
      </trkpt>
      <trkpt lat="44.42524" lon="6.37481">
        <ele>1676</ele>
        <time>2021-09-01T09:31:38.000Z</time>
      </trkpt>
      <trkpt lat="44.42522" lon="6.37482">
        <ele>1676</ele>
        <time>2021-09-01T09:31:39.000Z</time>
      </trkpt>
      <trkpt lat="44.42521" lon="6.37483">
        <ele>1676</ele>
        <time>2021-09-01T09:31:40.000Z</time>
      </trkpt>
      <trkpt lat="44.4252" lon="6.37484">
        <ele>1676</ele>
        <time>2021-09-01T09:31:41.000Z</time>
      </trkpt>
      <trkpt lat="44.42518" lon="6.37484">
        <ele>1676</ele>
        <time>2021-09-01T09:31:42.000Z</time>
      </trkpt>
      <trkpt lat="44.42516" lon="6.37485">
        <ele>1677</ele>
        <time>2021-09-01T09:31:43.000Z</time>
      </trkpt>
      <trkpt lat="44.42514" lon="6.37486">
        <ele>1676</ele>
        <time>2021-09-01T09:31:44.000Z</time>
      </trkpt>
      <trkpt lat="44.42512" lon="6.37486">
        <ele>1676</ele>
        <time>2021-09-01T09:31:45.000Z</time>
      </trkpt>
      <trkpt lat="44.4251" lon="6.37487">
        <ele>1677</ele>
        <time>2021-09-01T09:31:46.000Z</time>
      </trkpt>
      <trkpt lat="44.42508" lon="6.37487">
        <ele>1676</ele>
        <time>2021-09-01T09:31:47.000Z</time>
      </trkpt>
      <trkpt lat="44.42506" lon="6.37488">
        <ele>1676</ele>
        <time>2021-09-01T09:31:48.000Z</time>
      </trkpt>
      <trkpt lat="44.42503" lon="6.37488">
        <ele>1676</ele>
        <time>2021-09-01T09:31:49.000Z</time>
      </trkpt>
      <trkpt lat="44.42501" lon="6.37487">
        <ele>1674</ele>
        <time>2021-09-01T09:31:50.000Z</time>
      </trkpt>
      <trkpt lat="44.42498" lon="6.37486">
        <ele>1674</ele>
        <time>2021-09-01T09:31:51.000Z</time>
      </trkpt>
      <trkpt lat="44.42495" lon="6.37486">
        <ele>1673</ele>
        <time>2021-09-01T09:31:52.000Z</time>
      </trkpt>
      <trkpt lat="44.42492" lon="6.37486">
        <ele>1672</ele>
        <time>2021-09-01T09:31:53.000Z</time>
      </trkpt>
      <trkpt lat="44.4249" lon="6.37486">
        <ele>1672</ele>
        <time>2021-09-01T09:31:54.000Z</time>
      </trkpt>
      <trkpt lat="44.42488" lon="6.37485">
        <ele>1672</ele>
        <time>2021-09-01T09:31:55.000Z</time>
      </trkpt>
      <trkpt lat="44.42485" lon="6.37485">
        <ele>1673</ele>
        <time>2021-09-01T09:31:56.000Z</time>
      </trkpt>
      <trkpt lat="44.42482" lon="6.37485">
        <ele>1674</ele>
        <time>2021-09-01T09:31:57.000Z</time>
      </trkpt>
      <trkpt lat="44.42478" lon="6.37482">
        <ele>1673</ele>
        <time>2021-09-01T09:31:58.000Z</time>
      </trkpt>
      <trkpt lat="44.42474" lon="6.37481">
        <ele>1673</ele>
        <time>2021-09-01T09:31:59.000Z</time>
      </trkpt>
      <trkpt lat="44.42471" lon="6.37479">
        <ele>1672</ele>
        <time>2021-09-01T09:32:00.000Z</time>
      </trkpt>
      <trkpt lat="44.42468" lon="6.37478">
        <ele>1672</ele>
        <time>2021-09-01T09:32:01.000Z</time>
      </trkpt>
      <trkpt lat="44.42464" lon="6.37476">
        <ele>1673</ele>
        <time>2021-09-01T09:32:02.000Z</time>
      </trkpt>
      <trkpt lat="44.42461" lon="6.37474">
        <ele>1673</ele>
        <time>2021-09-01T09:32:03.000Z</time>
      </trkpt>
      <trkpt lat="44.42458" lon="6.37472">
        <ele>1674</ele>
        <time>2021-09-01T09:32:04.000Z</time>
      </trkpt>
      <trkpt lat="44.42456" lon="6.3747">
        <ele>1675</ele>
        <time>2021-09-01T09:32:05.000Z</time>
      </trkpt>
      <trkpt lat="44.42454" lon="6.37468">
        <ele>1676</ele>
        <time>2021-09-01T09:32:06.000Z</time>
      </trkpt>
      <trkpt lat="44.42452" lon="6.37465">
        <ele>1676</ele>
        <time>2021-09-01T09:32:07.000Z</time>
      </trkpt>
      <trkpt lat="44.42448" lon="6.37457">
        <ele>1679</ele>
        <time>2021-09-01T09:32:08.000Z</time>
      </trkpt>
      <trkpt lat="44.42445" lon="6.37453">
        <ele>1681</ele>
        <time>2021-09-01T09:32:09.000Z</time>
      </trkpt>
      <trkpt lat="44.42443" lon="6.37447">
        <ele>1683</ele>
        <time>2021-09-01T09:32:10.000Z</time>
      </trkpt>
      <trkpt lat="44.42441" lon="6.37444">
        <ele>1684</ele>
        <time>2021-09-01T09:32:11.000Z</time>
      </trkpt>
      <trkpt lat="44.42439" lon="6.3744">
        <ele>1684</ele>
        <time>2021-09-01T09:32:12.000Z</time>
      </trkpt>
      <trkpt lat="44.42438" lon="6.37437">
        <ele>1684</ele>
        <time>2021-09-01T09:32:13.000Z</time>
      </trkpt>
      <trkpt lat="44.42437" lon="6.37434">
        <ele>1684</ele>
        <time>2021-09-01T09:32:14.000Z</time>
      </trkpt>
      <trkpt lat="44.42436" lon="6.37431">
        <ele>1683</ele>
        <time>2021-09-01T09:32:15.000Z</time>
      </trkpt>
      <trkpt lat="44.42435" lon="6.37428">
        <ele>1682</ele>
        <time>2021-09-01T09:32:16.000Z</time>
      </trkpt>
      <trkpt lat="44.42434" lon="6.37425">
        <ele>1682</ele>
        <time>2021-09-01T09:32:17.000Z</time>
      </trkpt>
      <trkpt lat="44.42433" lon="6.37422">
        <ele>1682</ele>
        <time>2021-09-01T09:32:18.000Z</time>
      </trkpt>
      <trkpt lat="44.42433" lon="6.37419">
        <ele>1682</ele>
        <time>2021-09-01T09:32:19.000Z</time>
      </trkpt>
      <trkpt lat="44.42432" lon="6.37416">
        <ele>1682</ele>
        <time>2021-09-01T09:32:20.000Z</time>
      </trkpt>
      <trkpt lat="44.42432" lon="6.37413">
        <ele>1682</ele>
        <time>2021-09-01T09:32:21.000Z</time>
      </trkpt>
      <trkpt lat="44.42431" lon="6.3741">
        <ele>1682</ele>
        <time>2021-09-01T09:32:22.000Z</time>
      </trkpt>
      <trkpt lat="44.42431" lon="6.37407">
        <ele>1682</ele>
        <time>2021-09-01T09:32:23.000Z</time>
      </trkpt>
      <trkpt lat="44.42431" lon="6.37404">
        <ele>1683</ele>
        <time>2021-09-01T09:32:24.000Z</time>
      </trkpt>
      <trkpt lat="44.42431" lon="6.37401">
        <ele>1683</ele>
        <time>2021-09-01T09:32:25.000Z</time>
      </trkpt>
      <trkpt lat="44.4243" lon="6.37398">
        <ele>1682</ele>
        <time>2021-09-01T09:32:26.000Z</time>
      </trkpt>
      <trkpt lat="44.4243" lon="6.37394">
        <ele>1682</ele>
        <time>2021-09-01T09:32:27.000Z</time>
      </trkpt>
      <trkpt lat="44.4243" lon="6.37391">
        <ele>1683</ele>
        <time>2021-09-01T09:32:28.000Z</time>
      </trkpt>
      <trkpt lat="44.42431" lon="6.37386">
        <ele>1683</ele>
        <time>2021-09-01T09:32:29.000Z</time>
      </trkpt>
      <trkpt lat="44.42432" lon="6.37382">
        <ele>1683</ele>
        <time>2021-09-01T09:32:30.000Z</time>
      </trkpt>
      <trkpt lat="44.42432" lon="6.37379">
        <ele>1683</ele>
        <time>2021-09-01T09:32:31.000Z</time>
      </trkpt>
      <trkpt lat="44.42433" lon="6.37375">
        <ele>1682</ele>
        <time>2021-09-01T09:32:32.000Z</time>
      </trkpt>
      <trkpt lat="44.42434" lon="6.37371">
        <ele>1683</ele>
        <time>2021-09-01T09:32:33.000Z</time>
      </trkpt>
      <trkpt lat="44.42434" lon="6.37367">
        <ele>1684</ele>
        <time>2021-09-01T09:32:34.000Z</time>
      </trkpt>
      <trkpt lat="44.42435" lon="6.37364">
        <ele>1685</ele>
        <time>2021-09-01T09:32:35.000Z</time>
      </trkpt>
      <trkpt lat="44.42436" lon="6.37359">
        <ele>1686</ele>
        <time>2021-09-01T09:32:36.000Z</time>
      </trkpt>
      <trkpt lat="44.42437" lon="6.37356">
        <ele>1686</ele>
        <time>2021-09-01T09:32:37.000Z</time>
      </trkpt>
      <trkpt lat="44.42437" lon="6.37352">
        <ele>1686</ele>
        <time>2021-09-01T09:32:38.000Z</time>
      </trkpt>
      <trkpt lat="44.42439" lon="6.37348">
        <ele>1686</ele>
        <time>2021-09-01T09:32:39.000Z</time>
      </trkpt>
      <trkpt lat="44.4244" lon="6.37345">
        <ele>1685</ele>
        <time>2021-09-01T09:32:40.000Z</time>
      </trkpt>
      <trkpt lat="44.42441" lon="6.37342">
        <ele>1685</ele>
        <time>2021-09-01T09:32:41.000Z</time>
      </trkpt>
      <trkpt lat="44.42441" lon="6.37337">
        <ele>1685</ele>
        <time>2021-09-01T09:32:42.000Z</time>
      </trkpt>
      <trkpt lat="44.42441" lon="6.37333">
        <ele>1685</ele>
        <time>2021-09-01T09:32:43.000Z</time>
      </trkpt>
      <trkpt lat="44.42442" lon="6.37329">
        <ele>1685</ele>
        <time>2021-09-01T09:32:44.000Z</time>
      </trkpt>
      <trkpt lat="44.42443" lon="6.37326">
        <ele>1687</ele>
        <time>2021-09-01T09:32:45.000Z</time>
      </trkpt>
      <trkpt lat="44.42444" lon="6.37322">
        <ele>1687</ele>
        <time>2021-09-01T09:32:46.000Z</time>
      </trkpt>
      <trkpt lat="44.42445" lon="6.37318">
        <ele>1688</ele>
        <time>2021-09-01T09:32:47.000Z</time>
      </trkpt>
      <trkpt lat="44.42446" lon="6.37315">
        <ele>1688</ele>
        <time>2021-09-01T09:32:48.000Z</time>
      </trkpt>
      <trkpt lat="44.42447" lon="6.37311">
        <ele>1688</ele>
        <time>2021-09-01T09:32:49.000Z</time>
      </trkpt>
      <trkpt lat="44.42449" lon="6.37307">
        <ele>1689</ele>
        <time>2021-09-01T09:32:50.000Z</time>
      </trkpt>
      <trkpt lat="44.42451" lon="6.37304">
        <ele>1690</ele>
        <time>2021-09-01T09:32:51.000Z</time>
      </trkpt>
      <trkpt lat="44.42452" lon="6.37301">
        <ele>1690</ele>
        <time>2021-09-01T09:32:52.000Z</time>
      </trkpt>
      <trkpt lat="44.42453" lon="6.37298">
        <ele>1690</ele>
        <time>2021-09-01T09:32:53.000Z</time>
      </trkpt>
      <trkpt lat="44.42453" lon="6.37294">
        <ele>1690</ele>
        <time>2021-09-01T09:32:54.000Z</time>
      </trkpt>
      <trkpt lat="44.42454" lon="6.37291">
        <ele>1690</ele>
        <time>2021-09-01T09:32:55.000Z</time>
      </trkpt>
      <trkpt lat="44.42455" lon="6.37288">
        <ele>1690</ele>
        <time>2021-09-01T09:32:56.000Z</time>
      </trkpt>
      <trkpt lat="44.42455" lon="6.37285">
        <ele>1690</ele>
        <time>2021-09-01T09:32:57.000Z</time>
      </trkpt>
      <trkpt lat="44.42456" lon="6.37282">
        <ele>1690</ele>
        <time>2021-09-01T09:32:58.000Z</time>
      </trkpt>
      <trkpt lat="44.42456" lon="6.3728">
        <ele>1690</ele>
        <time>2021-09-01T09:32:59.000Z</time>
      </trkpt>
      <trkpt lat="44.42457" lon="6.37279">
        <ele>1691</ele>
        <time>2021-09-01T09:33:00.000Z</time>
      </trkpt>
      <trkpt lat="44.42458" lon="6.37278">
        <ele>1690</ele>
        <time>2021-09-01T09:33:01.000Z</time>
      </trkpt>
      <trkpt lat="44.42459" lon="6.37275">
        <ele>1690</ele>
        <time>2021-09-01T09:33:02.000Z</time>
      </trkpt>
      <trkpt lat="44.42461" lon="6.37273">
        <ele>1689</ele>
        <time>2021-09-01T09:33:03.000Z</time>
      </trkpt>
      <trkpt lat="44.42463" lon="6.3727">
        <ele>1689</ele>
        <time>2021-09-01T09:33:04.000Z</time>
      </trkpt>
      <trkpt lat="44.42464" lon="6.37268">
        <ele>1689</ele>
        <time>2021-09-01T09:33:05.000Z</time>
      </trkpt>
      <trkpt lat="44.42466" lon="6.37265">
        <ele>1690</ele>
        <time>2021-09-01T09:33:06.000Z</time>
      </trkpt>
      <trkpt lat="44.42468" lon="6.37262">
        <ele>1690</ele>
        <time>2021-09-01T09:33:07.000Z</time>
      </trkpt>
      <trkpt lat="44.42469" lon="6.3726">
        <ele>1691</ele>
        <time>2021-09-01T09:33:08.000Z</time>
      </trkpt>
      <trkpt lat="44.4247" lon="6.37258">
        <ele>1690</ele>
        <time>2021-09-01T09:33:09.000Z</time>
      </trkpt>
      <trkpt lat="44.42471" lon="6.37257">
        <ele>1690</ele>
        <time>2021-09-01T09:33:10.000Z</time>
      </trkpt>
      <trkpt lat="44.42472" lon="6.37255">
        <ele>1690</ele>
        <time>2021-09-01T09:33:11.000Z</time>
      </trkpt>
      <trkpt lat="44.42473" lon="6.37254">
        <ele>1690</ele>
        <time>2021-09-01T09:33:12.000Z</time>
      </trkpt>
      <trkpt lat="44.42474" lon="6.37252">
        <ele>1689</ele>
        <time>2021-09-01T09:33:13.000Z</time>
      </trkpt>
      <trkpt lat="44.42476" lon="6.37248">
        <ele>1689</ele>
        <time>2021-09-01T09:33:14.000Z</time>
      </trkpt>
      <trkpt lat="44.42477" lon="6.37246">
        <ele>1688</ele>
        <time>2021-09-01T09:33:15.000Z</time>
      </trkpt>
      <trkpt lat="44.42479" lon="6.37244">
        <ele>1688</ele>
        <time>2021-09-01T09:33:16.000Z</time>
      </trkpt>
      <trkpt lat="44.4248" lon="6.37243">
        <ele>1688</ele>
        <time>2021-09-01T09:33:17.000Z</time>
      </trkpt>
      <trkpt lat="44.42481" lon="6.37243">
        <ele>1688</ele>
        <time>2021-09-01T09:33:18.000Z</time>
      </trkpt>
      <trkpt lat="44.42481" lon="6.37243">
        <ele>1685</ele>
        <time>2021-09-01T09:33:19.000Z</time>
      </trkpt>
      <trkpt lat="44.42482" lon="6.37241">
        <ele>1680</ele>
        <time>2021-09-01T09:33:20.000Z</time>
      </trkpt>
      <trkpt lat="44.42483" lon="6.37241">
        <ele>1679</ele>
        <time>2021-09-01T09:33:21.000Z</time>
      </trkpt>
      <trkpt lat="44.42484" lon="6.37241">
        <ele>1681</ele>
        <time>2021-09-01T09:33:22.000Z</time>
      </trkpt>
      <trkpt lat="44.42484" lon="6.3724">
        <ele>1682</ele>
        <time>2021-09-01T09:33:23.000Z</time>
      </trkpt>
      <trkpt lat="44.42484" lon="6.37239">
        <ele>1683</ele>
        <time>2021-09-01T09:33:24.000Z</time>
      </trkpt>
      <trkpt lat="44.42484" lon="6.37239">
        <ele>1683</ele>
        <time>2021-09-01T09:33:25.000Z</time>
      </trkpt>
      <trkpt lat="44.42484" lon="6.37238">
        <ele>1683</ele>
        <time>2021-09-01T09:33:26.000Z</time>
      </trkpt>
      <trkpt lat="44.42484" lon="6.37237">
        <ele>1683</ele>
        <time>2021-09-01T09:33:27.000Z</time>
      </trkpt>
      <trkpt lat="44.42484" lon="6.37237">
        <ele>1682</ele>
        <time>2021-09-01T09:33:28.000Z</time>
      </trkpt>
      <trkpt lat="44.42485" lon="6.37236">
        <ele>1681</ele>
        <time>2021-09-01T09:33:29.000Z</time>
      </trkpt>
      <trkpt lat="44.42484" lon="6.37236">
        <ele>1680</ele>
        <time>2021-09-01T09:33:30.000Z</time>
      </trkpt>
      <trkpt lat="44.42484" lon="6.37236">
        <ele>1680</ele>
        <time>2021-09-01T09:33:31.000Z</time>
      </trkpt>
      <trkpt lat="44.42484" lon="6.37235">
        <ele>1680</ele>
        <time>2021-09-01T09:33:32.000Z</time>
      </trkpt>
      <trkpt lat="44.42484" lon="6.37235">
        <ele>1680</ele>
        <time>2021-09-01T09:33:33.000Z</time>
      </trkpt>
      <trkpt lat="44.42484" lon="6.37235">
        <ele>1679</ele>
        <time>2021-09-01T09:33:34.000Z</time>
      </trkpt>
      <trkpt lat="44.42484" lon="6.37234">
        <ele>1679</ele>
        <time>2021-09-01T09:33:35.000Z</time>
      </trkpt>
      <trkpt lat="44.42484" lon="6.37234">
        <ele>1679</ele>
        <time>2021-09-01T09:33:36.000Z</time>
      </trkpt>
      <trkpt lat="44.42484" lon="6.37234">
        <ele>1679</ele>
        <time>2021-09-01T09:33:37.000Z</time>
      </trkpt>
      <trkpt lat="44.42484" lon="6.37234">
        <ele>1679</ele>
        <time>2021-09-01T09:33:38.000Z</time>
      </trkpt>
      <trkpt lat="44.42484" lon="6.37234">
        <ele>1679</ele>
        <time>2021-09-01T09:33:39.000Z</time>
      </trkpt>
      <trkpt lat="44.42484" lon="6.37234">
        <ele>1679</ele>
        <time>2021-09-01T09:33:40.000Z</time>
      </trkpt>
      <trkpt lat="44.42484" lon="6.37233">
        <ele>1679</ele>
        <time>2021-09-01T09:33:41.000Z</time>
      </trkpt>
      <trkpt lat="44.42483" lon="6.37233">
        <ele>1679</ele>
        <time>2021-09-01T09:33:42.000Z</time>
      </trkpt>
      <trkpt lat="44.42483" lon="6.37233">
        <ele>1679</ele>
        <time>2021-09-01T09:33:43.000Z</time>
      </trkpt>
      <trkpt lat="44.42483" lon="6.37233">
        <ele>1679</ele>
        <time>2021-09-01T09:33:44.000Z</time>
      </trkpt>
      <trkpt lat="44.42483" lon="6.37233">
        <ele>1679</ele>
        <time>2021-09-01T09:33:45.000Z</time>
      </trkpt>
      <trkpt lat="44.42483" lon="6.37233">
        <ele>1679</ele>
        <time>2021-09-01T09:33:46.000Z</time>
      </trkpt>
      <trkpt lat="44.42484" lon="6.37233">
        <ele>1680</ele>
        <time>2021-09-01T09:33:47.000Z</time>
      </trkpt>
      <trkpt lat="44.42484" lon="6.37232">
        <ele>1680</ele>
        <time>2021-09-01T09:33:48.000Z</time>
      </trkpt>
      <trkpt lat="44.42484" lon="6.37232">
        <ele>1680</ele>
        <time>2021-09-01T09:33:49.000Z</time>
      </trkpt>
      <trkpt lat="44.42484" lon="6.37232">
        <ele>1680</ele>
        <time>2021-09-01T09:33:50.000Z</time>
      </trkpt>
      <trkpt lat="44.42484" lon="6.37232">
        <ele>1680</ele>
        <time>2021-09-01T09:33:51.000Z</time>
      </trkpt>
      <trkpt lat="44.42484" lon="6.37232">
        <ele>1680</ele>
        <time>2021-09-01T09:33:52.000Z</time>
      </trkpt>
      <trkpt lat="44.42484" lon="6.37232">
        <ele>1680</ele>
        <time>2021-09-01T09:33:53.000Z</time>
      </trkpt>
      <trkpt lat="44.42484" lon="6.37232">
        <ele>1680</ele>
        <time>2021-09-01T09:33:54.000Z</time>
      </trkpt>
      <trkpt lat="44.42484" lon="6.37231">
        <ele>1681</ele>
        <time>2021-09-01T09:33:55.000Z</time>
      </trkpt>
      <trkpt lat="44.42484" lon="6.37231">
        <ele>1680</ele>
        <time>2021-09-01T09:33:56.000Z</time>
      </trkpt>
      <trkpt lat="44.42484" lon="6.37231">
        <ele>1680</ele>
        <time>2021-09-01T09:33:57.000Z</time>
      </trkpt>
      <trkpt lat="44.42484" lon="6.37231">
        <ele>1680</ele>
        <time>2021-09-01T09:33:58.000Z</time>
      </trkpt>
      <trkpt lat="44.42484" lon="6.37231">
        <ele>1680</ele>
        <time>2021-09-01T09:33:59.000Z</time>
      </trkpt>
      <trkpt lat="44.42484" lon="6.37231">
        <ele>1680</ele>
        <time>2021-09-01T09:34:00.000Z</time>
      </trkpt>
      <trkpt lat="44.42484" lon="6.37231">
        <ele>1680</ele>
        <time>2021-09-01T09:34:01.000Z</time>
      </trkpt>
      <trkpt lat="44.42484" lon="6.3723">
        <ele>1680</ele>
        <time>2021-09-01T09:34:02.000Z</time>
      </trkpt>
      <trkpt lat="44.42485" lon="6.3723">
        <ele>1680</ele>
        <time>2021-09-01T09:34:03.000Z</time>
      </trkpt>
      <trkpt lat="44.42485" lon="6.3723">
        <ele>1680</ele>
        <time>2021-09-01T09:34:04.000Z</time>
      </trkpt>
      <trkpt lat="44.42485" lon="6.3723">
        <ele>1680</ele>
        <time>2021-09-01T09:34:05.000Z</time>
      </trkpt>
      <trkpt lat="44.42485" lon="6.3723">
        <ele>1680</ele>
        <time>2021-09-01T09:34:06.000Z</time>
      </trkpt>
      <trkpt lat="44.42485" lon="6.3723">
        <ele>1680</ele>
        <time>2021-09-01T09:34:07.000Z</time>
      </trkpt>
      <trkpt lat="44.42485" lon="6.3723">
        <ele>1680</ele>
        <time>2021-09-01T09:34:08.000Z</time>
      </trkpt>
      <trkpt lat="44.42485" lon="6.37229">
        <ele>1680</ele>
        <time>2021-09-01T09:34:09.000Z</time>
      </trkpt>
      <trkpt lat="44.42485" lon="6.37229">
        <ele>1679</ele>
        <time>2021-09-01T09:34:10.000Z</time>
      </trkpt>
      <trkpt lat="44.42485" lon="6.37229">
        <ele>1679</ele>
        <time>2021-09-01T09:34:11.000Z</time>
      </trkpt>
      <trkpt lat="44.42485" lon="6.37229">
        <ele>1679</ele>
        <time>2021-09-01T09:34:12.000Z</time>
      </trkpt>
      <trkpt lat="44.42485" lon="6.37229">
        <ele>1679</ele>
        <time>2021-09-01T09:34:13.000Z</time>
      </trkpt>
      <trkpt lat="44.42485" lon="6.37229">
        <ele>1679</ele>
        <time>2021-09-01T09:34:14.000Z</time>
      </trkpt>
      <trkpt lat="44.42485" lon="6.37229">
        <ele>1679</ele>
        <time>2021-09-01T09:34:15.000Z</time>
      </trkpt>
      <trkpt lat="44.42485" lon="6.37229">
        <ele>1679</ele>
        <time>2021-09-01T09:34:16.000Z</time>
      </trkpt>
      <trkpt lat="44.42485" lon="6.37229">
        <ele>1679</ele>
        <time>2021-09-01T09:34:17.000Z</time>
      </trkpt>
      <trkpt lat="44.42485" lon="6.37229">
        <ele>1679</ele>
        <time>2021-09-01T09:34:18.000Z</time>
      </trkpt>
      <trkpt lat="44.42485" lon="6.37229">
        <ele>1679</ele>
        <time>2021-09-01T09:34:19.000Z</time>
      </trkpt>
      <trkpt lat="44.42485" lon="6.37229">
        <ele>1679</ele>
        <time>2021-09-01T09:34:20.000Z</time>
      </trkpt>
      <trkpt lat="44.42485" lon="6.37229">
        <ele>1679</ele>
        <time>2021-09-01T09:34:21.000Z</time>
      </trkpt>
      <trkpt lat="44.42485" lon="6.37229">
        <ele>1679</ele>
        <time>2021-09-01T09:34:22.000Z</time>
      </trkpt>
      <trkpt lat="44.42484" lon="6.37229">
        <ele>1679</ele>
        <time>2021-09-01T09:34:23.000Z</time>
      </trkpt>
      <trkpt lat="44.42484" lon="6.37229">
        <ele>1680</ele>
        <time>2021-09-01T09:34:24.000Z</time>
      </trkpt>
      <trkpt lat="44.42484" lon="6.37229">
        <ele>1680</ele>
        <time>2021-09-01T09:34:25.000Z</time>
      </trkpt>
      <trkpt lat="44.42484" lon="6.3723">
        <ele>1680</ele>
        <time>2021-09-01T09:34:26.000Z</time>
      </trkpt>
      <trkpt lat="44.42484" lon="6.3723">
        <ele>1680</ele>
        <time>2021-09-01T09:34:27.000Z</time>
      </trkpt>
      <trkpt lat="44.42484" lon="6.3723">
        <ele>1680</ele>
        <time>2021-09-01T09:34:28.000Z</time>
      </trkpt>
      <trkpt lat="44.42484" lon="6.3723">
        <ele>1681</ele>
        <time>2021-09-01T09:34:29.000Z</time>
      </trkpt>
      <trkpt lat="44.42484" lon="6.3723">
        <ele>1681</ele>
        <time>2021-09-01T09:34:30.000Z</time>
      </trkpt>
      <trkpt lat="44.42484" lon="6.3723">
        <ele>1682</ele>
        <time>2021-09-01T09:34:31.000Z</time>
      </trkpt>
      <trkpt lat="44.42484" lon="6.3723">
        <ele>1682</ele>
        <time>2021-09-01T09:34:32.000Z</time>
      </trkpt>
      <trkpt lat="44.42484" lon="6.3723">
        <ele>1683</ele>
        <time>2021-09-01T09:34:33.000Z</time>
      </trkpt>
      <trkpt lat="44.42484" lon="6.3723">
        <ele>1683</ele>
        <time>2021-09-01T09:34:34.000Z</time>
      </trkpt>
      <trkpt lat="44.42485" lon="6.3723">
        <ele>1684</ele>
        <time>2021-09-01T09:34:35.000Z</time>
      </trkpt>
      <trkpt lat="44.42485" lon="6.3723">
        <ele>1684</ele>
        <time>2021-09-01T09:34:36.000Z</time>
      </trkpt>
      <trkpt lat="44.42485" lon="6.3723">
        <ele>1684</ele>
        <time>2021-09-01T09:34:37.000Z</time>
      </trkpt>
      <trkpt lat="44.42485" lon="6.3723">
        <ele>1685</ele>
        <time>2021-09-01T09:34:38.000Z</time>
      </trkpt>
      <trkpt lat="44.42485" lon="6.3723">
        <ele>1685</ele>
        <time>2021-09-01T09:34:39.000Z</time>
      </trkpt>
      <trkpt lat="44.42485" lon="6.3723">
        <ele>1685</ele>
        <time>2021-09-01T09:34:40.000Z</time>
      </trkpt>
      <trkpt lat="44.42485" lon="6.3723">
        <ele>1685</ele>
        <time>2021-09-01T09:34:41.000Z</time>
      </trkpt>
      <trkpt lat="44.42485" lon="6.3723">
        <ele>1685</ele>
        <time>2021-09-01T09:34:42.000Z</time>
      </trkpt>
      <trkpt lat="44.42486" lon="6.3723">
        <ele>1685</ele>
        <time>2021-09-01T09:34:43.000Z</time>
      </trkpt>
      <trkpt lat="44.42486" lon="6.3723">
        <ele>1685</ele>
        <time>2021-09-01T09:34:44.000Z</time>
      </trkpt>
      <trkpt lat="44.42486" lon="6.3723">
        <ele>1685</ele>
        <time>2021-09-01T09:34:45.000Z</time>
      </trkpt>
      <trkpt lat="44.42486" lon="6.3723">
        <ele>1686</ele>
        <time>2021-09-01T09:34:46.000Z</time>
      </trkpt>
      <trkpt lat="44.42486" lon="6.3723">
        <ele>1686</ele>
        <time>2021-09-01T09:34:47.000Z</time>
      </trkpt>
      <trkpt lat="44.42486" lon="6.37229">
        <ele>1685</ele>
        <time>2021-09-01T09:34:48.000Z</time>
      </trkpt>
      <trkpt lat="44.42486" lon="6.37229">
        <ele>1685</ele>
        <time>2021-09-01T09:34:49.000Z</time>
      </trkpt>
      <trkpt lat="44.42485" lon="6.37228">
        <ele>1685</ele>
        <time>2021-09-01T09:34:50.000Z</time>
      </trkpt>
      <trkpt lat="44.42484" lon="6.37227">
        <ele>1684</ele>
        <time>2021-09-01T09:34:51.000Z</time>
      </trkpt>
      <trkpt lat="44.42483" lon="6.37226">
        <ele>1683</ele>
        <time>2021-09-01T09:34:52.000Z</time>
      </trkpt>
      <trkpt lat="44.42482" lon="6.37225">
        <ele>1683</ele>
        <time>2021-09-01T09:34:53.000Z</time>
      </trkpt>
      <trkpt lat="44.42481" lon="6.37224">
        <ele>1682</ele>
        <time>2021-09-01T09:34:54.000Z</time>
      </trkpt>
      <trkpt lat="44.4248" lon="6.37224">
        <ele>1682</ele>
        <time>2021-09-01T09:34:55.000Z</time>
      </trkpt>
      <trkpt lat="44.42479" lon="6.37224">
        <ele>1682</ele>
        <time>2021-09-01T09:34:56.000Z</time>
      </trkpt>
      <trkpt lat="44.42477" lon="6.37225">
        <ele>1681</ele>
        <time>2021-09-01T09:34:57.000Z</time>
      </trkpt>
      <trkpt lat="44.42476" lon="6.37226">
        <ele>1681</ele>
        <time>2021-09-01T09:34:58.000Z</time>
      </trkpt>
      <trkpt lat="44.42476" lon="6.37227">
        <ele>1681</ele>
        <time>2021-09-01T09:34:59.000Z</time>
      </trkpt>
      <trkpt lat="44.42475" lon="6.3723">
        <ele>1681</ele>
        <time>2021-09-01T09:35:00.000Z</time>
      </trkpt>
      <trkpt lat="44.42474" lon="6.37231">
        <ele>1680</ele>
        <time>2021-09-01T09:35:01.000Z</time>
      </trkpt>
      <trkpt lat="44.42474" lon="6.37232">
        <ele>1680</ele>
        <time>2021-09-01T09:35:02.000Z</time>
      </trkpt>
      <trkpt lat="44.42473" lon="6.37233">
        <ele>1680</ele>
        <time>2021-09-01T09:35:03.000Z</time>
      </trkpt>
      <trkpt lat="44.42472" lon="6.37235">
        <ele>1680</ele>
        <time>2021-09-01T09:35:04.000Z</time>
      </trkpt>
      <trkpt lat="44.42471" lon="6.37237">
        <ele>1680</ele>
        <time>2021-09-01T09:35:05.000Z</time>
      </trkpt>
      <trkpt lat="44.4247" lon="6.37238">
        <ele>1680</ele>
        <time>2021-09-01T09:35:06.000Z</time>
      </trkpt>
      <trkpt lat="44.42468" lon="6.3724">
        <ele>1680</ele>
        <time>2021-09-01T09:35:07.000Z</time>
      </trkpt>
      <trkpt lat="44.42466" lon="6.37241">
        <ele>1680</ele>
        <time>2021-09-01T09:35:08.000Z</time>
      </trkpt>
      <trkpt lat="44.42464" lon="6.37242">
        <ele>1680</ele>
        <time>2021-09-01T09:35:09.000Z</time>
      </trkpt>
      <trkpt lat="44.42462" lon="6.37243">
        <ele>1679</ele>
        <time>2021-09-01T09:35:10.000Z</time>
      </trkpt>
      <trkpt lat="44.4246" lon="6.37244">
        <ele>1680</ele>
        <time>2021-09-01T09:35:11.000Z</time>
      </trkpt>
      <trkpt lat="44.42458" lon="6.37246">
        <ele>1680</ele>
        <time>2021-09-01T09:35:12.000Z</time>
      </trkpt>
      <trkpt lat="44.42457" lon="6.37247">
        <ele>1680</ele>
        <time>2021-09-01T09:35:13.000Z</time>
      </trkpt>
      <trkpt lat="44.42455" lon="6.37248">
        <ele>1680</ele>
        <time>2021-09-01T09:35:14.000Z</time>
      </trkpt>
      <trkpt lat="44.42452" lon="6.37249">
        <ele>1680</ele>
        <time>2021-09-01T09:35:15.000Z</time>
      </trkpt>
      <trkpt lat="44.4245" lon="6.3725">
        <ele>1681</ele>
        <time>2021-09-01T09:35:16.000Z</time>
      </trkpt>
      <trkpt lat="44.42449" lon="6.37252">
        <ele>1681</ele>
        <time>2021-09-01T09:35:17.000Z</time>
      </trkpt>
      <trkpt lat="44.42447" lon="6.37253">
        <ele>1681</ele>
        <time>2021-09-01T09:35:18.000Z</time>
      </trkpt>
      <trkpt lat="44.42445" lon="6.37254">
        <ele>1682</ele>
        <time>2021-09-01T09:35:19.000Z</time>
      </trkpt>
      <trkpt lat="44.42443" lon="6.37256">
        <ele>1682</ele>
        <time>2021-09-01T09:35:20.000Z</time>
      </trkpt>
      <trkpt lat="44.42441" lon="6.37257">
        <ele>1682</ele>
        <time>2021-09-01T09:35:21.000Z</time>
      </trkpt>
      <trkpt lat="44.4244" lon="6.37257">
        <ele>1682</ele>
        <time>2021-09-01T09:35:22.000Z</time>
      </trkpt>
      <trkpt lat="44.42438" lon="6.37258">
        <ele>1684</ele>
        <time>2021-09-01T09:35:23.000Z</time>
      </trkpt>
      <trkpt lat="44.42436" lon="6.37259">
        <ele>1684</ele>
        <time>2021-09-01T09:35:24.000Z</time>
      </trkpt>
      <trkpt lat="44.42434" lon="6.3726">
        <ele>1685</ele>
        <time>2021-09-01T09:35:25.000Z</time>
      </trkpt>
      <trkpt lat="44.42432" lon="6.37262">
        <ele>1685</ele>
        <time>2021-09-01T09:35:26.000Z</time>
      </trkpt>
      <trkpt lat="44.42431" lon="6.37262">
        <ele>1686</ele>
        <time>2021-09-01T09:35:27.000Z</time>
      </trkpt>
      <trkpt lat="44.42428" lon="6.37263">
        <ele>1687</ele>
        <time>2021-09-01T09:35:28.000Z</time>
      </trkpt>
      <trkpt lat="44.42426" lon="6.37262">
        <ele>1688</ele>
        <time>2021-09-01T09:35:29.000Z</time>
      </trkpt>
      <trkpt lat="44.42425" lon="6.37263">
        <ele>1689</ele>
        <time>2021-09-01T09:35:30.000Z</time>
      </trkpt>
      <trkpt lat="44.42423" lon="6.37264">
        <ele>1689</ele>
        <time>2021-09-01T09:35:31.000Z</time>
      </trkpt>
      <trkpt lat="44.42421" lon="6.37264">
        <ele>1690</ele>
        <time>2021-09-01T09:35:32.000Z</time>
      </trkpt>
      <trkpt lat="44.42419" lon="6.37265">
        <ele>1690</ele>
        <time>2021-09-01T09:35:33.000Z</time>
      </trkpt>
      <trkpt lat="44.42417" lon="6.37266">
        <ele>1690</ele>
        <time>2021-09-01T09:35:34.000Z</time>
      </trkpt>
      <trkpt lat="44.42414" lon="6.37266">
        <ele>1691</ele>
        <time>2021-09-01T09:35:35.000Z</time>
      </trkpt>
      <trkpt lat="44.42413" lon="6.37267">
        <ele>1691</ele>
        <time>2021-09-01T09:35:36.000Z</time>
      </trkpt>
      <trkpt lat="44.42411" lon="6.37268">
        <ele>1693</ele>
        <time>2021-09-01T09:35:37.000Z</time>
      </trkpt>
      <trkpt lat="44.42409" lon="6.37268">
        <ele>1694</ele>
        <time>2021-09-01T09:35:38.000Z</time>
      </trkpt>
      <trkpt lat="44.42407" lon="6.37268">
        <ele>1695</ele>
        <time>2021-09-01T09:35:39.000Z</time>
      </trkpt>
      <trkpt lat="44.42404" lon="6.37268">
        <ele>1694</ele>
        <time>2021-09-01T09:35:40.000Z</time>
      </trkpt>
      <trkpt lat="44.42403" lon="6.37268">
        <ele>1694</ele>
        <time>2021-09-01T09:35:41.000Z</time>
      </trkpt>
      <trkpt lat="44.42401" lon="6.37268">
        <ele>1695</ele>
        <time>2021-09-01T09:35:42.000Z</time>
      </trkpt>
      <trkpt lat="44.42399" lon="6.37269">
        <ele>1696</ele>
        <time>2021-09-01T09:35:43.000Z</time>
      </trkpt>
      <trkpt lat="44.42397" lon="6.37268">
        <ele>1696</ele>
        <time>2021-09-01T09:35:44.000Z</time>
      </trkpt>
      <trkpt lat="44.42395" lon="6.37269">
        <ele>1697</ele>
        <time>2021-09-01T09:35:45.000Z</time>
      </trkpt>
      <trkpt lat="44.42393" lon="6.37269">
        <ele>1698</ele>
        <time>2021-09-01T09:35:46.000Z</time>
      </trkpt>
      <trkpt lat="44.42391" lon="6.37269">
        <ele>1698</ele>
        <time>2021-09-01T09:35:47.000Z</time>
      </trkpt>
      <trkpt lat="44.42389" lon="6.37269">
        <ele>1698</ele>
        <time>2021-09-01T09:35:48.000Z</time>
      </trkpt>
      <trkpt lat="44.42387" lon="6.3727">
        <ele>1699</ele>
        <time>2021-09-01T09:35:49.000Z</time>
      </trkpt>
      <trkpt lat="44.42385" lon="6.3727">
        <ele>1699</ele>
        <time>2021-09-01T09:35:50.000Z</time>
      </trkpt>
      <trkpt lat="44.42383" lon="6.37271">
        <ele>1700</ele>
        <time>2021-09-01T09:35:51.000Z</time>
      </trkpt>
      <trkpt lat="44.42381" lon="6.37272">
        <ele>1700</ele>
        <time>2021-09-01T09:35:52.000Z</time>
      </trkpt>
      <trkpt lat="44.42379" lon="6.37273">
        <ele>1700</ele>
        <time>2021-09-01T09:35:53.000Z</time>
      </trkpt>
      <trkpt lat="44.42377" lon="6.37274">
        <ele>1700</ele>
        <time>2021-09-01T09:35:54.000Z</time>
      </trkpt>
      <trkpt lat="44.42376" lon="6.37275">
        <ele>1700</ele>
        <time>2021-09-01T09:35:55.000Z</time>
      </trkpt>
      <trkpt lat="44.42374" lon="6.37275">
        <ele>1701</ele>
        <time>2021-09-01T09:35:56.000Z</time>
      </trkpt>
      <trkpt lat="44.42372" lon="6.37277">
        <ele>1701</ele>
        <time>2021-09-01T09:35:57.000Z</time>
      </trkpt>
      <trkpt lat="44.42371" lon="6.37278">
        <ele>1702</ele>
        <time>2021-09-01T09:35:58.000Z</time>
      </trkpt>
      <trkpt lat="44.42369" lon="6.37278">
        <ele>1703</ele>
        <time>2021-09-01T09:35:59.000Z</time>
      </trkpt>
      <trkpt lat="44.42368" lon="6.37279">
        <ele>1703</ele>
        <time>2021-09-01T09:36:00.000Z</time>
      </trkpt>
      <trkpt lat="44.42366" lon="6.37281">
        <ele>1703</ele>
        <time>2021-09-01T09:36:01.000Z</time>
      </trkpt>
      <trkpt lat="44.42365" lon="6.37282">
        <ele>1703</ele>
        <time>2021-09-01T09:36:02.000Z</time>
      </trkpt>
      <trkpt lat="44.42364" lon="6.37283">
        <ele>1704</ele>
        <time>2021-09-01T09:36:03.000Z</time>
      </trkpt>
      <trkpt lat="44.42362" lon="6.37285">
        <ele>1704</ele>
        <time>2021-09-01T09:36:04.000Z</time>
      </trkpt>
      <trkpt lat="44.4236" lon="6.37286">
        <ele>1704</ele>
        <time>2021-09-01T09:36:05.000Z</time>
      </trkpt>
      <trkpt lat="44.42358" lon="6.37287">
        <ele>1705</ele>
        <time>2021-09-01T09:36:06.000Z</time>
      </trkpt>
      <trkpt lat="44.42356" lon="6.37288">
        <ele>1705</ele>
        <time>2021-09-01T09:36:07.000Z</time>
      </trkpt>
      <trkpt lat="44.42355" lon="6.37289">
        <ele>1705</ele>
        <time>2021-09-01T09:36:08.000Z</time>
      </trkpt>
      <trkpt lat="44.42353" lon="6.37291">
        <ele>1705</ele>
        <time>2021-09-01T09:36:09.000Z</time>
      </trkpt>
      <trkpt lat="44.42351" lon="6.37291">
        <ele>1706</ele>
        <time>2021-09-01T09:36:10.000Z</time>
      </trkpt>
      <trkpt lat="44.42349" lon="6.37291">
        <ele>1706</ele>
        <time>2021-09-01T09:36:11.000Z</time>
      </trkpt>
      <trkpt lat="44.42348" lon="6.37292">
        <ele>1707</ele>
        <time>2021-09-01T09:36:12.000Z</time>
      </trkpt>
      <trkpt lat="44.42346" lon="6.37293">
        <ele>1707</ele>
        <time>2021-09-01T09:36:13.000Z</time>
      </trkpt>
      <trkpt lat="44.42344" lon="6.37294">
        <ele>1708</ele>
        <time>2021-09-01T09:36:14.000Z</time>
      </trkpt>
      <trkpt lat="44.42343" lon="6.37296">
        <ele>1709</ele>
        <time>2021-09-01T09:36:15.000Z</time>
      </trkpt>
      <trkpt lat="44.42342" lon="6.37297">
        <ele>1709</ele>
        <time>2021-09-01T09:36:16.000Z</time>
      </trkpt>
      <trkpt lat="44.4234" lon="6.37298">
        <ele>1710</ele>
        <time>2021-09-01T09:36:17.000Z</time>
      </trkpt>
      <trkpt lat="44.42338" lon="6.37299">
        <ele>1709</ele>
        <time>2021-09-01T09:36:18.000Z</time>
      </trkpt>
      <trkpt lat="44.42335" lon="6.373">
        <ele>1709</ele>
        <time>2021-09-01T09:36:19.000Z</time>
      </trkpt>
      <trkpt lat="44.42333" lon="6.37301">
        <ele>1710</ele>
        <time>2021-09-01T09:36:20.000Z</time>
      </trkpt>
      <trkpt lat="44.42332" lon="6.37302">
        <ele>1710</ele>
        <time>2021-09-01T09:36:21.000Z</time>
      </trkpt>
      <trkpt lat="44.4233" lon="6.37303">
        <ele>1710</ele>
        <time>2021-09-01T09:36:22.000Z</time>
      </trkpt>
      <trkpt lat="44.42328" lon="6.37303">
        <ele>1711</ele>
        <time>2021-09-01T09:36:23.000Z</time>
      </trkpt>
      <trkpt lat="44.42326" lon="6.37303">
        <ele>1711</ele>
        <time>2021-09-01T09:36:24.000Z</time>
      </trkpt>
      <trkpt lat="44.42324" lon="6.37303">
        <ele>1711</ele>
        <time>2021-09-01T09:36:25.000Z</time>
      </trkpt>
      <trkpt lat="44.42323" lon="6.37303">
        <ele>1711</ele>
        <time>2021-09-01T09:36:26.000Z</time>
      </trkpt>
      <trkpt lat="44.42321" lon="6.37302">
        <ele>1711</ele>
        <time>2021-09-01T09:36:27.000Z</time>
      </trkpt>
      <trkpt lat="44.42319" lon="6.37301">
        <ele>1712</ele>
        <time>2021-09-01T09:36:28.000Z</time>
      </trkpt>
      <trkpt lat="44.42317" lon="6.37299">
        <ele>1713</ele>
        <time>2021-09-01T09:36:29.000Z</time>
      </trkpt>
      <trkpt lat="44.42316" lon="6.37298">
        <ele>1714</ele>
        <time>2021-09-01T09:36:30.000Z</time>
      </trkpt>
      <trkpt lat="44.42314" lon="6.37297">
        <ele>1715</ele>
        <time>2021-09-01T09:36:31.000Z</time>
      </trkpt>
      <trkpt lat="44.42312" lon="6.37296">
        <ele>1715</ele>
        <time>2021-09-01T09:36:32.000Z</time>
      </trkpt>
      <trkpt lat="44.42311" lon="6.37295">
        <ele>1715</ele>
        <time>2021-09-01T09:36:33.000Z</time>
      </trkpt>
      <trkpt lat="44.4231" lon="6.37294">
        <ele>1715</ele>
        <time>2021-09-01T09:36:34.000Z</time>
      </trkpt>
      <trkpt lat="44.42307" lon="6.37293">
        <ele>1717</ele>
        <time>2021-09-01T09:36:35.000Z</time>
      </trkpt>
      <trkpt lat="44.42305" lon="6.37292">
        <ele>1717</ele>
        <time>2021-09-01T09:36:36.000Z</time>
      </trkpt>
      <trkpt lat="44.42303" lon="6.37292">
        <ele>1718</ele>
        <time>2021-09-01T09:36:37.000Z</time>
      </trkpt>
      <trkpt lat="44.42301" lon="6.37291">
        <ele>1719</ele>
        <time>2021-09-01T09:36:38.000Z</time>
      </trkpt>
      <trkpt lat="44.42299" lon="6.3729">
        <ele>1719</ele>
        <time>2021-09-01T09:36:39.000Z</time>
      </trkpt>
      <trkpt lat="44.42297" lon="6.37289">
        <ele>1721</ele>
        <time>2021-09-01T09:36:40.000Z</time>
      </trkpt>
      <trkpt lat="44.42296" lon="6.37287">
        <ele>1720</ele>
        <time>2021-09-01T09:36:41.000Z</time>
      </trkpt>
      <trkpt lat="44.42294" lon="6.37286">
        <ele>1721</ele>
        <time>2021-09-01T09:36:42.000Z</time>
      </trkpt>
      <trkpt lat="44.42292" lon="6.37284">
        <ele>1720</ele>
        <time>2021-09-01T09:36:43.000Z</time>
      </trkpt>
      <trkpt lat="44.4229" lon="6.37282">
        <ele>1720</ele>
        <time>2021-09-01T09:36:44.000Z</time>
      </trkpt>
      <trkpt lat="44.42289" lon="6.3728">
        <ele>1720</ele>
        <time>2021-09-01T09:36:45.000Z</time>
      </trkpt>
      <trkpt lat="44.42287" lon="6.37278">
        <ele>1719</ele>
        <time>2021-09-01T09:36:46.000Z</time>
      </trkpt>
      <trkpt lat="44.42285" lon="6.37276">
        <ele>1720</ele>
        <time>2021-09-01T09:36:47.000Z</time>
      </trkpt>
      <trkpt lat="44.42284" lon="6.37274">
        <ele>1720</ele>
        <time>2021-09-01T09:36:48.000Z</time>
      </trkpt>
      <trkpt lat="44.42281" lon="6.37272">
        <ele>1722</ele>
        <time>2021-09-01T09:36:49.000Z</time>
      </trkpt>
      <trkpt lat="44.4228" lon="6.3727">
        <ele>1722</ele>
        <time>2021-09-01T09:36:50.000Z</time>
      </trkpt>
      <trkpt lat="44.42278" lon="6.37268">
        <ele>1723</ele>
        <time>2021-09-01T09:36:51.000Z</time>
      </trkpt>
      <trkpt lat="44.42277" lon="6.37266">
        <ele>1724</ele>
        <time>2021-09-01T09:36:52.000Z</time>
      </trkpt>
      <trkpt lat="44.42275" lon="6.37264">
        <ele>1724</ele>
        <time>2021-09-01T09:36:53.000Z</time>
      </trkpt>
      <trkpt lat="44.42274" lon="6.37262">
        <ele>1725</ele>
        <time>2021-09-01T09:36:54.000Z</time>
      </trkpt>
      <trkpt lat="44.42273" lon="6.3726">
        <ele>1725</ele>
        <time>2021-09-01T09:36:55.000Z</time>
      </trkpt>
      <trkpt lat="44.42271" lon="6.37258">
        <ele>1725</ele>
        <time>2021-09-01T09:36:56.000Z</time>
      </trkpt>
      <trkpt lat="44.4227" lon="6.37257">
        <ele>1725</ele>
        <time>2021-09-01T09:36:57.000Z</time>
      </trkpt>
      <trkpt lat="44.42268" lon="6.37255">
        <ele>1725</ele>
        <time>2021-09-01T09:36:58.000Z</time>
      </trkpt>
      <trkpt lat="44.42266" lon="6.37254">
        <ele>1726</ele>
        <time>2021-09-01T09:36:59.000Z</time>
      </trkpt>
      <trkpt lat="44.42265" lon="6.37253">
        <ele>1727</ele>
        <time>2021-09-01T09:37:00.000Z</time>
      </trkpt>
      <trkpt lat="44.42264" lon="6.37252">
        <ele>1727</ele>
        <time>2021-09-01T09:37:01.000Z</time>
      </trkpt>
      <trkpt lat="44.42262" lon="6.37251">
        <ele>1728</ele>
        <time>2021-09-01T09:37:02.000Z</time>
      </trkpt>
      <trkpt lat="44.4226" lon="6.37249">
        <ele>1728</ele>
        <time>2021-09-01T09:37:03.000Z</time>
      </trkpt>
      <trkpt lat="44.42258" lon="6.37247">
        <ele>1729</ele>
        <time>2021-09-01T09:37:04.000Z</time>
      </trkpt>
      <trkpt lat="44.42256" lon="6.37245">
        <ele>1729</ele>
        <time>2021-09-01T09:37:05.000Z</time>
      </trkpt>
      <trkpt lat="44.42254" lon="6.37244">
        <ele>1729</ele>
        <time>2021-09-01T09:37:06.000Z</time>
      </trkpt>
      <trkpt lat="44.42253" lon="6.37242">
        <ele>1729</ele>
        <time>2021-09-01T09:37:07.000Z</time>
      </trkpt>
      <trkpt lat="44.42251" lon="6.37241">
        <ele>1730</ele>
        <time>2021-09-01T09:37:08.000Z</time>
      </trkpt>
      <trkpt lat="44.4225" lon="6.37239">
        <ele>1731</ele>
        <time>2021-09-01T09:37:09.000Z</time>
      </trkpt>
      <trkpt lat="44.42249" lon="6.37237">
        <ele>1732</ele>
        <time>2021-09-01T09:37:10.000Z</time>
      </trkpt>
      <trkpt lat="44.42247" lon="6.37235">
        <ele>1732</ele>
        <time>2021-09-01T09:37:11.000Z</time>
      </trkpt>
      <trkpt lat="44.42246" lon="6.37233">
        <ele>1732</ele>
        <time>2021-09-01T09:37:12.000Z</time>
      </trkpt>
      <trkpt lat="44.42244" lon="6.37231">
        <ele>1733</ele>
        <time>2021-09-01T09:37:13.000Z</time>
      </trkpt>
      <trkpt lat="44.42243" lon="6.37229">
        <ele>1733</ele>
        <time>2021-09-01T09:37:14.000Z</time>
      </trkpt>
      <trkpt lat="44.42242" lon="6.37226">
        <ele>1733</ele>
        <time>2021-09-01T09:37:15.000Z</time>
      </trkpt>
      <trkpt lat="44.4224" lon="6.37224">
        <ele>1732</ele>
        <time>2021-09-01T09:37:16.000Z</time>
      </trkpt>
      <trkpt lat="44.42239" lon="6.37223">
        <ele>1733</ele>
        <time>2021-09-01T09:37:17.000Z</time>
      </trkpt>
      <trkpt lat="44.42238" lon="6.37221">
        <ele>1732</ele>
        <time>2021-09-01T09:37:18.000Z</time>
      </trkpt>
      <trkpt lat="44.42236" lon="6.37219">
        <ele>1733</ele>
        <time>2021-09-01T09:37:19.000Z</time>
      </trkpt>
      <trkpt lat="44.42235" lon="6.37218">
        <ele>1732</ele>
        <time>2021-09-01T09:37:20.000Z</time>
      </trkpt>
      <trkpt lat="44.42233" lon="6.37216">
        <ele>1732</ele>
        <time>2021-09-01T09:37:21.000Z</time>
      </trkpt>
      <trkpt lat="44.42232" lon="6.37214">
        <ele>1731</ele>
        <time>2021-09-01T09:37:22.000Z</time>
      </trkpt>
      <trkpt lat="44.42231" lon="6.37213">
        <ele>1732</ele>
        <time>2021-09-01T09:37:23.000Z</time>
      </trkpt>
      <trkpt lat="44.4223" lon="6.37211">
        <ele>1732</ele>
        <time>2021-09-01T09:37:24.000Z</time>
      </trkpt>
      <trkpt lat="44.42229" lon="6.37209">
        <ele>1732</ele>
        <time>2021-09-01T09:37:25.000Z</time>
      </trkpt>
      <trkpt lat="44.42227" lon="6.37208">
        <ele>1733</ele>
        <time>2021-09-01T09:37:26.000Z</time>
      </trkpt>
      <trkpt lat="44.42226" lon="6.37206">
        <ele>1733</ele>
        <time>2021-09-01T09:37:27.000Z</time>
      </trkpt>
      <trkpt lat="44.42225" lon="6.37205">
        <ele>1734</ele>
        <time>2021-09-01T09:37:28.000Z</time>
      </trkpt>
      <trkpt lat="44.42223" lon="6.37204">
        <ele>1734</ele>
        <time>2021-09-01T09:37:29.000Z</time>
      </trkpt>
      <trkpt lat="44.42222" lon="6.37202">
        <ele>1734</ele>
        <time>2021-09-01T09:37:30.000Z</time>
      </trkpt>
      <trkpt lat="44.4222" lon="6.37201">
        <ele>1734</ele>
        <time>2021-09-01T09:37:31.000Z</time>
      </trkpt>
      <trkpt lat="44.42218" lon="6.37199">
        <ele>1735</ele>
        <time>2021-09-01T09:37:32.000Z</time>
      </trkpt>
      <trkpt lat="44.42217" lon="6.37197">
        <ele>1735</ele>
        <time>2021-09-01T09:37:33.000Z</time>
      </trkpt>
      <trkpt lat="44.42215" lon="6.37196">
        <ele>1735</ele>
        <time>2021-09-01T09:37:34.000Z</time>
      </trkpt>
      <trkpt lat="44.42213" lon="6.37194">
        <ele>1736</ele>
        <time>2021-09-01T09:37:35.000Z</time>
      </trkpt>
      <trkpt lat="44.42212" lon="6.37193">
        <ele>1736</ele>
        <time>2021-09-01T09:37:36.000Z</time>
      </trkpt>
      <trkpt lat="44.4221" lon="6.37191">
        <ele>1736</ele>
        <time>2021-09-01T09:37:37.000Z</time>
      </trkpt>
      <trkpt lat="44.42208" lon="6.3719">
        <ele>1735</ele>
        <time>2021-09-01T09:37:38.000Z</time>
      </trkpt>
      <trkpt lat="44.42207" lon="6.37188">
        <ele>1735</ele>
        <time>2021-09-01T09:37:39.000Z</time>
      </trkpt>
      <trkpt lat="44.42205" lon="6.37188">
        <ele>1736</ele>
        <time>2021-09-01T09:37:40.000Z</time>
      </trkpt>
      <trkpt lat="44.42204" lon="6.37186">
        <ele>1736</ele>
        <time>2021-09-01T09:37:41.000Z</time>
      </trkpt>
      <trkpt lat="44.42202" lon="6.37186">
        <ele>1737</ele>
        <time>2021-09-01T09:37:42.000Z</time>
      </trkpt>
      <trkpt lat="44.422" lon="6.37184">
        <ele>1737</ele>
        <time>2021-09-01T09:37:43.000Z</time>
      </trkpt>
      <trkpt lat="44.42199" lon="6.37183">
        <ele>1737</ele>
        <time>2021-09-01T09:37:44.000Z</time>
      </trkpt>
      <trkpt lat="44.42197" lon="6.37182">
        <ele>1738</ele>
        <time>2021-09-01T09:37:45.000Z</time>
      </trkpt>
      <trkpt lat="44.42196" lon="6.37181">
        <ele>1739</ele>
        <time>2021-09-01T09:37:46.000Z</time>
      </trkpt>
      <trkpt lat="44.42194" lon="6.3718">
        <ele>1740</ele>
        <time>2021-09-01T09:37:47.000Z</time>
      </trkpt>
      <trkpt lat="44.42192" lon="6.37179">
        <ele>1741</ele>
        <time>2021-09-01T09:37:48.000Z</time>
      </trkpt>
      <trkpt lat="44.42191" lon="6.37178">
        <ele>1742</ele>
        <time>2021-09-01T09:37:49.000Z</time>
      </trkpt>
      <trkpt lat="44.42189" lon="6.37177">
        <ele>1743</ele>
        <time>2021-09-01T09:37:50.000Z</time>
      </trkpt>
      <trkpt lat="44.42187" lon="6.37176">
        <ele>1743</ele>
        <time>2021-09-01T09:37:51.000Z</time>
      </trkpt>
      <trkpt lat="44.42185" lon="6.37175">
        <ele>1743</ele>
        <time>2021-09-01T09:37:52.000Z</time>
      </trkpt>
      <trkpt lat="44.42183" lon="6.37174">
        <ele>1744</ele>
        <time>2021-09-01T09:37:53.000Z</time>
      </trkpt>
      <trkpt lat="44.4218" lon="6.37173">
        <ele>1743</ele>
        <time>2021-09-01T09:37:54.000Z</time>
      </trkpt>
      <trkpt lat="44.42178" lon="6.37171">
        <ele>1742</ele>
        <time>2021-09-01T09:37:55.000Z</time>
      </trkpt>
      <trkpt lat="44.42176" lon="6.3717">
        <ele>1742</ele>
        <time>2021-09-01T09:37:56.000Z</time>
      </trkpt>
      <trkpt lat="44.42174" lon="6.37169">
        <ele>1742</ele>
        <time>2021-09-01T09:37:57.000Z</time>
      </trkpt>
      <trkpt lat="44.42172" lon="6.37168">
        <ele>1742</ele>
        <time>2021-09-01T09:37:58.000Z</time>
      </trkpt>
      <trkpt lat="44.4217" lon="6.37168">
        <ele>1742</ele>
        <time>2021-09-01T09:37:59.000Z</time>
      </trkpt>
      <trkpt lat="44.42168" lon="6.37167">
        <ele>1743</ele>
        <time>2021-09-01T09:38:00.000Z</time>
      </trkpt>
      <trkpt lat="44.42165" lon="6.37166">
        <ele>1744</ele>
        <time>2021-09-01T09:38:01.000Z</time>
      </trkpt>
      <trkpt lat="44.42163" lon="6.37165">
        <ele>1744</ele>
        <time>2021-09-01T09:38:02.000Z</time>
      </trkpt>
      <trkpt lat="44.42162" lon="6.37165">
        <ele>1745</ele>
        <time>2021-09-01T09:38:03.000Z</time>
      </trkpt>
      <trkpt lat="44.42159" lon="6.37164">
        <ele>1745</ele>
        <time>2021-09-01T09:38:04.000Z</time>
      </trkpt>
      <trkpt lat="44.42157" lon="6.37163">
        <ele>1746</ele>
        <time>2021-09-01T09:38:05.000Z</time>
      </trkpt>
      <trkpt lat="44.42155" lon="6.37161">
        <ele>1747</ele>
        <time>2021-09-01T09:38:06.000Z</time>
      </trkpt>
      <trkpt lat="44.42153" lon="6.3716">
        <ele>1747</ele>
        <time>2021-09-01T09:38:07.000Z</time>
      </trkpt>
      <trkpt lat="44.42151" lon="6.3716">
        <ele>1747</ele>
        <time>2021-09-01T09:38:08.000Z</time>
      </trkpt>
      <trkpt lat="44.42148" lon="6.3716">
        <ele>1748</ele>
        <time>2021-09-01T09:38:09.000Z</time>
      </trkpt>
      <trkpt lat="44.42146" lon="6.37159">
        <ele>1748</ele>
        <time>2021-09-01T09:38:10.000Z</time>
      </trkpt>
      <trkpt lat="44.42144" lon="6.37158">
        <ele>1749</ele>
        <time>2021-09-01T09:38:11.000Z</time>
      </trkpt>
      <trkpt lat="44.42143" lon="6.37158">
        <ele>1749</ele>
        <time>2021-09-01T09:38:12.000Z</time>
      </trkpt>
      <trkpt lat="44.42141" lon="6.37157">
        <ele>1750</ele>
        <time>2021-09-01T09:38:13.000Z</time>
      </trkpt>
      <trkpt lat="44.42139" lon="6.37156">
        <ele>1750</ele>
        <time>2021-09-01T09:38:14.000Z</time>
      </trkpt>
      <trkpt lat="44.42137" lon="6.37155">
        <ele>1750</ele>
        <time>2021-09-01T09:38:15.000Z</time>
      </trkpt>
      <trkpt lat="44.42135" lon="6.37155">
        <ele>1751</ele>
        <time>2021-09-01T09:38:16.000Z</time>
      </trkpt>
      <trkpt lat="44.42133" lon="6.37154">
        <ele>1751</ele>
        <time>2021-09-01T09:38:17.000Z</time>
      </trkpt>
      <trkpt lat="44.42131" lon="6.37154">
        <ele>1751</ele>
        <time>2021-09-01T09:38:18.000Z</time>
      </trkpt>
      <trkpt lat="44.42128" lon="6.37154">
        <ele>1751</ele>
        <time>2021-09-01T09:38:19.000Z</time>
      </trkpt>
      <trkpt lat="44.42126" lon="6.37154">
        <ele>1752</ele>
        <time>2021-09-01T09:38:20.000Z</time>
      </trkpt>
      <trkpt lat="44.42124" lon="6.37153">
        <ele>1752</ele>
        <time>2021-09-01T09:38:21.000Z</time>
      </trkpt>
      <trkpt lat="44.42122" lon="6.37153">
        <ele>1753</ele>
        <time>2021-09-01T09:38:22.000Z</time>
      </trkpt>
      <trkpt lat="44.42121" lon="6.37152">
        <ele>1754</ele>
        <time>2021-09-01T09:38:23.000Z</time>
      </trkpt>
      <trkpt lat="44.42119" lon="6.37151">
        <ele>1754</ele>
        <time>2021-09-01T09:38:24.000Z</time>
      </trkpt>
      <trkpt lat="44.42117" lon="6.37151">
        <ele>1754</ele>
        <time>2021-09-01T09:38:25.000Z</time>
      </trkpt>
      <trkpt lat="44.42115" lon="6.37152">
        <ele>1754</ele>
        <time>2021-09-01T09:38:26.000Z</time>
      </trkpt>
      <trkpt lat="44.42113" lon="6.37152">
        <ele>1754</ele>
        <time>2021-09-01T09:38:27.000Z</time>
      </trkpt>
      <trkpt lat="44.42111" lon="6.37152">
        <ele>1755</ele>
        <time>2021-09-01T09:38:28.000Z</time>
      </trkpt>
      <trkpt lat="44.42108" lon="6.37151">
        <ele>1755</ele>
        <time>2021-09-01T09:38:29.000Z</time>
      </trkpt>
      <trkpt lat="44.42106" lon="6.37151">
        <ele>1756</ele>
        <time>2021-09-01T09:38:30.000Z</time>
      </trkpt>
      <trkpt lat="44.42104" lon="6.37151">
        <ele>1756</ele>
        <time>2021-09-01T09:38:31.000Z</time>
      </trkpt>
      <trkpt lat="44.42102" lon="6.37152">
        <ele>1756</ele>
        <time>2021-09-01T09:38:32.000Z</time>
      </trkpt>
      <trkpt lat="44.421" lon="6.37152">
        <ele>1756</ele>
        <time>2021-09-01T09:38:33.000Z</time>
      </trkpt>
      <trkpt lat="44.42098" lon="6.37153">
        <ele>1756</ele>
        <time>2021-09-01T09:38:34.000Z</time>
      </trkpt>
      <trkpt lat="44.42096" lon="6.37153">
        <ele>1757</ele>
        <time>2021-09-01T09:38:35.000Z</time>
      </trkpt>
      <trkpt lat="44.42094" lon="6.37154">
        <ele>1757</ele>
        <time>2021-09-01T09:38:36.000Z</time>
      </trkpt>
      <trkpt lat="44.42091" lon="6.37155">
        <ele>1757</ele>
        <time>2021-09-01T09:38:37.000Z</time>
      </trkpt>
      <trkpt lat="44.4209" lon="6.37156">
        <ele>1757</ele>
        <time>2021-09-01T09:38:38.000Z</time>
      </trkpt>
      <trkpt lat="44.42087" lon="6.37157">
        <ele>1758</ele>
        <time>2021-09-01T09:38:39.000Z</time>
      </trkpt>
      <trkpt lat="44.42085" lon="6.37158">
        <ele>1759</ele>
        <time>2021-09-01T09:38:40.000Z</time>
      </trkpt>
      <trkpt lat="44.42084" lon="6.37159">
        <ele>1759</ele>
        <time>2021-09-01T09:38:41.000Z</time>
      </trkpt>
      <trkpt lat="44.42082" lon="6.3716">
        <ele>1760</ele>
        <time>2021-09-01T09:38:42.000Z</time>
      </trkpt>
      <trkpt lat="44.4208" lon="6.37161">
        <ele>1760</ele>
        <time>2021-09-01T09:38:43.000Z</time>
      </trkpt>
      <trkpt lat="44.42078" lon="6.37162">
        <ele>1760</ele>
        <time>2021-09-01T09:38:44.000Z</time>
      </trkpt>
      <trkpt lat="44.42077" lon="6.37163">
        <ele>1761</ele>
        <time>2021-09-01T09:38:45.000Z</time>
      </trkpt>
      <trkpt lat="44.42075" lon="6.37164">
        <ele>1761</ele>
        <time>2021-09-01T09:38:46.000Z</time>
      </trkpt>
      <trkpt lat="44.42073" lon="6.37165">
        <ele>1761</ele>
        <time>2021-09-01T09:38:47.000Z</time>
      </trkpt>
      <trkpt lat="44.42071" lon="6.37165">
        <ele>1762</ele>
        <time>2021-09-01T09:38:48.000Z</time>
      </trkpt>
      <trkpt lat="44.42069" lon="6.37166">
        <ele>1762</ele>
        <time>2021-09-01T09:38:49.000Z</time>
      </trkpt>
      <trkpt lat="44.42067" lon="6.37167">
        <ele>1762</ele>
        <time>2021-09-01T09:38:50.000Z</time>
      </trkpt>
      <trkpt lat="44.42065" lon="6.37168">
        <ele>1762</ele>
        <time>2021-09-01T09:38:51.000Z</time>
      </trkpt>
      <trkpt lat="44.42063" lon="6.37169">
        <ele>1762</ele>
        <time>2021-09-01T09:38:52.000Z</time>
      </trkpt>
      <trkpt lat="44.42061" lon="6.3717">
        <ele>1762</ele>
        <time>2021-09-01T09:38:53.000Z</time>
      </trkpt>
      <trkpt lat="44.42059" lon="6.37171">
        <ele>1762</ele>
        <time>2021-09-01T09:38:54.000Z</time>
      </trkpt>
      <trkpt lat="44.42057" lon="6.37173">
        <ele>1761</ele>
        <time>2021-09-01T09:38:55.000Z</time>
      </trkpt>
      <trkpt lat="44.42055" lon="6.37174">
        <ele>1761</ele>
        <time>2021-09-01T09:38:56.000Z</time>
      </trkpt>
      <trkpt lat="44.42053" lon="6.37175">
        <ele>1762</ele>
        <time>2021-09-01T09:38:57.000Z</time>
      </trkpt>
      <trkpt lat="44.42051" lon="6.37176">
        <ele>1762</ele>
        <time>2021-09-01T09:38:58.000Z</time>
      </trkpt>
      <trkpt lat="44.4205" lon="6.37176">
        <ele>1762</ele>
        <time>2021-09-01T09:38:59.000Z</time>
      </trkpt>
      <trkpt lat="44.42048" lon="6.37177">
        <ele>1763</ele>
        <time>2021-09-01T09:39:00.000Z</time>
      </trkpt>
      <trkpt lat="44.42046" lon="6.37177">
        <ele>1764</ele>
        <time>2021-09-01T09:39:01.000Z</time>
      </trkpt>
      <trkpt lat="44.42045" lon="6.37179">
        <ele>1765</ele>
        <time>2021-09-01T09:39:02.000Z</time>
      </trkpt>
      <trkpt lat="44.42043" lon="6.3718">
        <ele>1765</ele>
        <time>2021-09-01T09:39:03.000Z</time>
      </trkpt>
      <trkpt lat="44.42041" lon="6.3718">
        <ele>1765</ele>
        <time>2021-09-01T09:39:04.000Z</time>
      </trkpt>
      <trkpt lat="44.42039" lon="6.3718">
        <ele>1765</ele>
        <time>2021-09-01T09:39:05.000Z</time>
      </trkpt>
      <trkpt lat="44.42037" lon="6.37181">
        <ele>1765</ele>
        <time>2021-09-01T09:39:06.000Z</time>
      </trkpt>
      <trkpt lat="44.42036" lon="6.37182">
        <ele>1766</ele>
        <time>2021-09-01T09:39:07.000Z</time>
      </trkpt>
      <trkpt lat="44.42034" lon="6.37181">
        <ele>1767</ele>
        <time>2021-09-01T09:39:08.000Z</time>
      </trkpt>
      <trkpt lat="44.42032" lon="6.37181">
        <ele>1768</ele>
        <time>2021-09-01T09:39:09.000Z</time>
      </trkpt>
      <trkpt lat="44.4203" lon="6.37182">
        <ele>1768</ele>
        <time>2021-09-01T09:39:10.000Z</time>
      </trkpt>
      <trkpt lat="44.42029" lon="6.37183">
        <ele>1768</ele>
        <time>2021-09-01T09:39:11.000Z</time>
      </trkpt>
      <trkpt lat="44.42027" lon="6.37184">
        <ele>1767</ele>
        <time>2021-09-01T09:39:12.000Z</time>
      </trkpt>
      <trkpt lat="44.42025" lon="6.37184">
        <ele>1768</ele>
        <time>2021-09-01T09:39:13.000Z</time>
      </trkpt>
      <trkpt lat="44.42022" lon="6.37184">
        <ele>1769</ele>
        <time>2021-09-01T09:39:14.000Z</time>
      </trkpt>
      <trkpt lat="44.4202" lon="6.37185">
        <ele>1770</ele>
        <time>2021-09-01T09:39:15.000Z</time>
      </trkpt>
      <trkpt lat="44.42017" lon="6.37185">
        <ele>1771</ele>
        <time>2021-09-01T09:39:16.000Z</time>
      </trkpt>
      <trkpt lat="44.42015" lon="6.37184">
        <ele>1772</ele>
        <time>2021-09-01T09:39:17.000Z</time>
      </trkpt>
      <trkpt lat="44.42013" lon="6.37185">
        <ele>1772</ele>
        <time>2021-09-01T09:39:18.000Z</time>
      </trkpt>
      <trkpt lat="44.42011" lon="6.37185">
        <ele>1773</ele>
        <time>2021-09-01T09:39:19.000Z</time>
      </trkpt>
      <trkpt lat="44.42009" lon="6.37186">
        <ele>1773</ele>
        <time>2021-09-01T09:39:20.000Z</time>
      </trkpt>
      <trkpt lat="44.42007" lon="6.37186">
        <ele>1774</ele>
        <time>2021-09-01T09:39:21.000Z</time>
      </trkpt>
      <trkpt lat="44.42005" lon="6.37186">
        <ele>1775</ele>
        <time>2021-09-01T09:39:22.000Z</time>
      </trkpt>
      <trkpt lat="44.42004" lon="6.37187">
        <ele>1777</ele>
        <time>2021-09-01T09:39:23.000Z</time>
      </trkpt>
      <trkpt lat="44.42002" lon="6.37187">
        <ele>1777</ele>
        <time>2021-09-01T09:39:24.000Z</time>
      </trkpt>
      <trkpt lat="44.42" lon="6.37187">
        <ele>1777</ele>
        <time>2021-09-01T09:39:25.000Z</time>
      </trkpt>
      <trkpt lat="44.41998" lon="6.37187">
        <ele>1777</ele>
        <time>2021-09-01T09:39:26.000Z</time>
      </trkpt>
      <trkpt lat="44.41996" lon="6.37187">
        <ele>1778</ele>
        <time>2021-09-01T09:39:27.000Z</time>
      </trkpt>
      <trkpt lat="44.41993" lon="6.37187">
        <ele>1780</ele>
        <time>2021-09-01T09:39:28.000Z</time>
      </trkpt>
      <trkpt lat="44.41991" lon="6.37187">
        <ele>1780</ele>
        <time>2021-09-01T09:39:29.000Z</time>
      </trkpt>
      <trkpt lat="44.41988" lon="6.37187">
        <ele>1780</ele>
        <time>2021-09-01T09:39:30.000Z</time>
      </trkpt>
      <trkpt lat="44.41986" lon="6.37187">
        <ele>1781</ele>
        <time>2021-09-01T09:39:31.000Z</time>
      </trkpt>
      <trkpt lat="44.41984" lon="6.37187">
        <ele>1781</ele>
        <time>2021-09-01T09:39:32.000Z</time>
      </trkpt>
      <trkpt lat="44.41982" lon="6.37187">
        <ele>1782</ele>
        <time>2021-09-01T09:39:33.000Z</time>
      </trkpt>
      <trkpt lat="44.41979" lon="6.37186">
        <ele>1783</ele>
        <time>2021-09-01T09:39:34.000Z</time>
      </trkpt>
      <trkpt lat="44.41977" lon="6.37186">
        <ele>1785</ele>
        <time>2021-09-01T09:39:35.000Z</time>
      </trkpt>
      <trkpt lat="44.41975" lon="6.37185">
        <ele>1785</ele>
        <time>2021-09-01T09:39:36.000Z</time>
      </trkpt>
      <trkpt lat="44.41972" lon="6.37185">
        <ele>1786</ele>
        <time>2021-09-01T09:39:37.000Z</time>
      </trkpt>
      <trkpt lat="44.4197" lon="6.37184">
        <ele>1786</ele>
        <time>2021-09-01T09:39:38.000Z</time>
      </trkpt>
      <trkpt lat="44.41969" lon="6.37184">
        <ele>1786</ele>
        <time>2021-09-01T09:39:39.000Z</time>
      </trkpt>
      <trkpt lat="44.41967" lon="6.37184">
        <ele>1787</ele>
        <time>2021-09-01T09:39:40.000Z</time>
      </trkpt>
      <trkpt lat="44.41965" lon="6.37183">
        <ele>1787</ele>
        <time>2021-09-01T09:39:41.000Z</time>
      </trkpt>
      <trkpt lat="44.41963" lon="6.37182">
        <ele>1787</ele>
        <time>2021-09-01T09:39:42.000Z</time>
      </trkpt>
      <trkpt lat="44.4196" lon="6.37182">
        <ele>1787</ele>
        <time>2021-09-01T09:39:43.000Z</time>
      </trkpt>
      <trkpt lat="44.41958" lon="6.37182">
        <ele>1788</ele>
        <time>2021-09-01T09:39:44.000Z</time>
      </trkpt>
      <trkpt lat="44.41956" lon="6.37181">
        <ele>1788</ele>
        <time>2021-09-01T09:39:45.000Z</time>
      </trkpt>
      <trkpt lat="44.41954" lon="6.37181">
        <ele>1788</ele>
        <time>2021-09-01T09:39:46.000Z</time>
      </trkpt>
      <trkpt lat="44.41952" lon="6.37181">
        <ele>1788</ele>
        <time>2021-09-01T09:39:47.000Z</time>
      </trkpt>
      <trkpt lat="44.4195" lon="6.3718">
        <ele>1788</ele>
        <time>2021-09-01T09:39:48.000Z</time>
      </trkpt>
      <trkpt lat="44.41948" lon="6.3718">
        <ele>1788</ele>
        <time>2021-09-01T09:39:49.000Z</time>
      </trkpt>
      <trkpt lat="44.41946" lon="6.3718">
        <ele>1788</ele>
        <time>2021-09-01T09:39:50.000Z</time>
      </trkpt>
      <trkpt lat="44.41944" lon="6.3718">
        <ele>1788</ele>
        <time>2021-09-01T09:39:51.000Z</time>
      </trkpt>
      <trkpt lat="44.41942" lon="6.37181">
        <ele>1788</ele>
        <time>2021-09-01T09:39:52.000Z</time>
      </trkpt>
      <trkpt lat="44.4194" lon="6.37181">
        <ele>1788</ele>
        <time>2021-09-01T09:39:53.000Z</time>
      </trkpt>
      <trkpt lat="44.41938" lon="6.37181">
        <ele>1788</ele>
        <time>2021-09-01T09:39:54.000Z</time>
      </trkpt>
      <trkpt lat="44.41936" lon="6.37181">
        <ele>1788</ele>
        <time>2021-09-01T09:39:55.000Z</time>
      </trkpt>
      <trkpt lat="44.41934" lon="6.37181">
        <ele>1788</ele>
        <time>2021-09-01T09:39:56.000Z</time>
      </trkpt>
      <trkpt lat="44.41932" lon="6.37181">
        <ele>1788</ele>
        <time>2021-09-01T09:39:57.000Z</time>
      </trkpt>
      <trkpt lat="44.4193" lon="6.37181">
        <ele>1788</ele>
        <time>2021-09-01T09:39:58.000Z</time>
      </trkpt>
      <trkpt lat="44.41928" lon="6.3718">
        <ele>1787</ele>
        <time>2021-09-01T09:39:59.000Z</time>
      </trkpt>
      <trkpt lat="44.41926" lon="6.3718">
        <ele>1788</ele>
        <time>2021-09-01T09:40:00.000Z</time>
      </trkpt>
      <trkpt lat="44.41924" lon="6.37181">
        <ele>1788</ele>
        <time>2021-09-01T09:40:01.000Z</time>
      </trkpt>
      <trkpt lat="44.41922" lon="6.37181">
        <ele>1788</ele>
        <time>2021-09-01T09:40:02.000Z</time>
      </trkpt>
      <trkpt lat="44.41919" lon="6.37181">
        <ele>1788</ele>
        <time>2021-09-01T09:40:03.000Z</time>
      </trkpt>
      <trkpt lat="44.41917" lon="6.37181">
        <ele>1788</ele>
        <time>2021-09-01T09:40:04.000Z</time>
      </trkpt>
      <trkpt lat="44.41915" lon="6.37181">
        <ele>1788</ele>
        <time>2021-09-01T09:40:05.000Z</time>
      </trkpt>
      <trkpt lat="44.41914" lon="6.37181">
        <ele>1788</ele>
        <time>2021-09-01T09:40:06.000Z</time>
      </trkpt>
      <trkpt lat="44.41912" lon="6.3718">
        <ele>1788</ele>
        <time>2021-09-01T09:40:07.000Z</time>
      </trkpt>
      <trkpt lat="44.4191" lon="6.3718">
        <ele>1789</ele>
        <time>2021-09-01T09:40:08.000Z</time>
      </trkpt>
      <trkpt lat="44.41908" lon="6.37181">
        <ele>1789</ele>
        <time>2021-09-01T09:40:09.000Z</time>
      </trkpt>
      <trkpt lat="44.41906" lon="6.37181">
        <ele>1789</ele>
        <time>2021-09-01T09:40:10.000Z</time>
      </trkpt>
      <trkpt lat="44.41904" lon="6.37181">
        <ele>1789</ele>
        <time>2021-09-01T09:40:11.000Z</time>
      </trkpt>
      <trkpt lat="44.41902" lon="6.37181">
        <ele>1790</ele>
        <time>2021-09-01T09:40:12.000Z</time>
      </trkpt>
      <trkpt lat="44.419" lon="6.37181">
        <ele>1790</ele>
        <time>2021-09-01T09:40:13.000Z</time>
      </trkpt>
      <trkpt lat="44.41898" lon="6.37181">
        <ele>1790</ele>
        <time>2021-09-01T09:40:14.000Z</time>
      </trkpt>
      <trkpt lat="44.41897" lon="6.37181">
        <ele>1790</ele>
        <time>2021-09-01T09:40:15.000Z</time>
      </trkpt>
      <trkpt lat="44.41895" lon="6.37181">
        <ele>1790</ele>
        <time>2021-09-01T09:40:16.000Z</time>
      </trkpt>
      <trkpt lat="44.41893" lon="6.37182">
        <ele>1790</ele>
        <time>2021-09-01T09:40:17.000Z</time>
      </trkpt>
      <trkpt lat="44.41891" lon="6.37183">
        <ele>1791</ele>
        <time>2021-09-01T09:40:18.000Z</time>
      </trkpt>
      <trkpt lat="44.41889" lon="6.37183">
        <ele>1791</ele>
        <time>2021-09-01T09:40:19.000Z</time>
      </trkpt>
      <trkpt lat="44.41887" lon="6.37183">
        <ele>1792</ele>
        <time>2021-09-01T09:40:20.000Z</time>
      </trkpt>
      <trkpt lat="44.41885" lon="6.37183">
        <ele>1793</ele>
        <time>2021-09-01T09:40:21.000Z</time>
      </trkpt>
      <trkpt lat="44.41883" lon="6.37183">
        <ele>1793</ele>
        <time>2021-09-01T09:40:22.000Z</time>
      </trkpt>
      <trkpt lat="44.41881" lon="6.37183">
        <ele>1792</ele>
        <time>2021-09-01T09:40:23.000Z</time>
      </trkpt>
      <trkpt lat="44.41879" lon="6.37183">
        <ele>1792</ele>
        <time>2021-09-01T09:40:24.000Z</time>
      </trkpt>
      <trkpt lat="44.41877" lon="6.37183">
        <ele>1794</ele>
        <time>2021-09-01T09:40:25.000Z</time>
      </trkpt>
      <trkpt lat="44.41875" lon="6.37183">
        <ele>1795</ele>
        <time>2021-09-01T09:40:26.000Z</time>
      </trkpt>
      <trkpt lat="44.41873" lon="6.37183">
        <ele>1796</ele>
        <time>2021-09-01T09:40:27.000Z</time>
      </trkpt>
      <trkpt lat="44.41872" lon="6.37182">
        <ele>1796</ele>
        <time>2021-09-01T09:40:28.000Z</time>
      </trkpt>
      <trkpt lat="44.4187" lon="6.37181">
        <ele>1796</ele>
        <time>2021-09-01T09:40:29.000Z</time>
      </trkpt>
      <trkpt lat="44.41869" lon="6.37181">
        <ele>1796</ele>
        <time>2021-09-01T09:40:30.000Z</time>
      </trkpt>
      <trkpt lat="44.41868" lon="6.37181">
        <ele>1797</ele>
        <time>2021-09-01T09:40:31.000Z</time>
      </trkpt>
      <trkpt lat="44.41866" lon="6.3718">
        <ele>1797</ele>
        <time>2021-09-01T09:40:32.000Z</time>
      </trkpt>
      <trkpt lat="44.41864" lon="6.37179">
        <ele>1797</ele>
        <time>2021-09-01T09:40:33.000Z</time>
      </trkpt>
      <trkpt lat="44.41863" lon="6.37178">
        <ele>1798</ele>
        <time>2021-09-01T09:40:34.000Z</time>
      </trkpt>
      <trkpt lat="44.41862" lon="6.37178">
        <ele>1799</ele>
        <time>2021-09-01T09:40:35.000Z</time>
      </trkpt>
      <trkpt lat="44.4186" lon="6.37176">
        <ele>1799</ele>
        <time>2021-09-01T09:40:36.000Z</time>
      </trkpt>
      <trkpt lat="44.41858" lon="6.37175">
        <ele>1799</ele>
        <time>2021-09-01T09:40:37.000Z</time>
      </trkpt>
      <trkpt lat="44.41856" lon="6.37174">
        <ele>1799</ele>
        <time>2021-09-01T09:40:38.000Z</time>
      </trkpt>
      <trkpt lat="44.41854" lon="6.37173">
        <ele>1800</ele>
        <time>2021-09-01T09:40:39.000Z</time>
      </trkpt>
      <trkpt lat="44.41852" lon="6.37172">
        <ele>1800</ele>
        <time>2021-09-01T09:40:40.000Z</time>
      </trkpt>
      <trkpt lat="44.41851" lon="6.37172">
        <ele>1801</ele>
        <time>2021-09-01T09:40:41.000Z</time>
      </trkpt>
      <trkpt lat="44.41849" lon="6.37171">
        <ele>1802</ele>
        <time>2021-09-01T09:40:42.000Z</time>
      </trkpt>
      <trkpt lat="44.41848" lon="6.37171">
        <ele>1803</ele>
        <time>2021-09-01T09:40:43.000Z</time>
      </trkpt>
      <trkpt lat="44.41846" lon="6.37171">
        <ele>1804</ele>
        <time>2021-09-01T09:40:44.000Z</time>
      </trkpt>
      <trkpt lat="44.41845" lon="6.37171">
        <ele>1805</ele>
        <time>2021-09-01T09:40:45.000Z</time>
      </trkpt>
      <trkpt lat="44.41843" lon="6.37171">
        <ele>1805</ele>
        <time>2021-09-01T09:40:46.000Z</time>
      </trkpt>
      <trkpt lat="44.41842" lon="6.37171">
        <ele>1806</ele>
        <time>2021-09-01T09:40:47.000Z</time>
      </trkpt>
      <trkpt lat="44.4184" lon="6.3717">
        <ele>1806</ele>
        <time>2021-09-01T09:40:48.000Z</time>
      </trkpt>
      <trkpt lat="44.41839" lon="6.3717">
        <ele>1806</ele>
        <time>2021-09-01T09:40:49.000Z</time>
      </trkpt>
      <trkpt lat="44.41837" lon="6.3717">
        <ele>1807</ele>
        <time>2021-09-01T09:40:50.000Z</time>
      </trkpt>
      <trkpt lat="44.41835" lon="6.3717">
        <ele>1807</ele>
        <time>2021-09-01T09:40:51.000Z</time>
      </trkpt>
      <trkpt lat="44.41833" lon="6.3717">
        <ele>1807</ele>
        <time>2021-09-01T09:40:52.000Z</time>
      </trkpt>
      <trkpt lat="44.41831" lon="6.3717">
        <ele>1807</ele>
        <time>2021-09-01T09:40:53.000Z</time>
      </trkpt>
      <trkpt lat="44.4183" lon="6.37169">
        <ele>1808</ele>
        <time>2021-09-01T09:40:54.000Z</time>
      </trkpt>
      <trkpt lat="44.41828" lon="6.37169">
        <ele>1808</ele>
        <time>2021-09-01T09:40:55.000Z</time>
      </trkpt>
      <trkpt lat="44.41826" lon="6.37169">
        <ele>1808</ele>
        <time>2021-09-01T09:40:56.000Z</time>
      </trkpt>
      <trkpt lat="44.41824" lon="6.37168">
        <ele>1809</ele>
        <time>2021-09-01T09:40:57.000Z</time>
      </trkpt>
      <trkpt lat="44.41822" lon="6.37168">
        <ele>1809</ele>
        <time>2021-09-01T09:40:58.000Z</time>
      </trkpt>
      <trkpt lat="44.4182" lon="6.37168">
        <ele>1809</ele>
        <time>2021-09-01T09:40:59.000Z</time>
      </trkpt>
      <trkpt lat="44.41818" lon="6.37168">
        <ele>1809</ele>
        <time>2021-09-01T09:41:00.000Z</time>
      </trkpt>
      <trkpt lat="44.41817" lon="6.37168">
        <ele>1809</ele>
        <time>2021-09-01T09:41:01.000Z</time>
      </trkpt>
      <trkpt lat="44.41814" lon="6.37167">
        <ele>1809</ele>
        <time>2021-09-01T09:41:02.000Z</time>
      </trkpt>
      <trkpt lat="44.41811" lon="6.37167">
        <ele>1809</ele>
        <time>2021-09-01T09:41:03.000Z</time>
      </trkpt>
      <trkpt lat="44.41809" lon="6.37167">
        <ele>1809</ele>
        <time>2021-09-01T09:41:04.000Z</time>
      </trkpt>
      <trkpt lat="44.41807" lon="6.37167">
        <ele>1809</ele>
        <time>2021-09-01T09:41:05.000Z</time>
      </trkpt>
      <trkpt lat="44.41805" lon="6.37166">
        <ele>1809</ele>
        <time>2021-09-01T09:41:06.000Z</time>
      </trkpt>
      <trkpt lat="44.41803" lon="6.37166">
        <ele>1809</ele>
        <time>2021-09-01T09:41:07.000Z</time>
      </trkpt>
      <trkpt lat="44.41801" lon="6.37166">
        <ele>1809</ele>
        <time>2021-09-01T09:41:08.000Z</time>
      </trkpt>
      <trkpt lat="44.41799" lon="6.37166">
        <ele>1808</ele>
        <time>2021-09-01T09:41:09.000Z</time>
      </trkpt>
      <trkpt lat="44.41797" lon="6.37166">
        <ele>1808</ele>
        <time>2021-09-01T09:41:10.000Z</time>
      </trkpt>
      <trkpt lat="44.41795" lon="6.37167">
        <ele>1808</ele>
        <time>2021-09-01T09:41:11.000Z</time>
      </trkpt>
      <trkpt lat="44.41793" lon="6.37167">
        <ele>1808</ele>
        <time>2021-09-01T09:41:12.000Z</time>
      </trkpt>
      <trkpt lat="44.41791" lon="6.37167">
        <ele>1809</ele>
        <time>2021-09-01T09:41:13.000Z</time>
      </trkpt>
      <trkpt lat="44.41789" lon="6.37168">
        <ele>1809</ele>
        <time>2021-09-01T09:41:14.000Z</time>
      </trkpt>
      <trkpt lat="44.41787" lon="6.37168">
        <ele>1810</ele>
        <time>2021-09-01T09:41:15.000Z</time>
      </trkpt>
      <trkpt lat="44.41785" lon="6.37168">
        <ele>1810</ele>
        <time>2021-09-01T09:41:16.000Z</time>
      </trkpt>
      <trkpt lat="44.41783" lon="6.3717">
        <ele>1811</ele>
        <time>2021-09-01T09:41:17.000Z</time>
      </trkpt>
      <trkpt lat="44.41781" lon="6.37171">
        <ele>1810</ele>
        <time>2021-09-01T09:41:18.000Z</time>
      </trkpt>
      <trkpt lat="44.4178" lon="6.37172">
        <ele>1810</ele>
        <time>2021-09-01T09:41:19.000Z</time>
      </trkpt>
      <trkpt lat="44.41778" lon="6.37172">
        <ele>1810</ele>
        <time>2021-09-01T09:41:20.000Z</time>
      </trkpt>
      <trkpt lat="44.41776" lon="6.37173">
        <ele>1810</ele>
        <time>2021-09-01T09:41:21.000Z</time>
      </trkpt>
      <trkpt lat="44.41774" lon="6.37174">
        <ele>1810</ele>
        <time>2021-09-01T09:41:22.000Z</time>
      </trkpt>
      <trkpt lat="44.41772" lon="6.37174">
        <ele>1811</ele>
        <time>2021-09-01T09:41:23.000Z</time>
      </trkpt>
      <trkpt lat="44.41771" lon="6.37175">
        <ele>1811</ele>
        <time>2021-09-01T09:41:24.000Z</time>
      </trkpt>
      <trkpt lat="44.41769" lon="6.37176">
        <ele>1812</ele>
        <time>2021-09-01T09:41:25.000Z</time>
      </trkpt>
      <trkpt lat="44.41767" lon="6.37177">
        <ele>1812</ele>
        <time>2021-09-01T09:41:26.000Z</time>
      </trkpt>
      <trkpt lat="44.41766" lon="6.37178">
        <ele>1812</ele>
        <time>2021-09-01T09:41:27.000Z</time>
      </trkpt>
      <trkpt lat="44.41764" lon="6.37179">
        <ele>1811</ele>
        <time>2021-09-01T09:41:28.000Z</time>
      </trkpt>
      <trkpt lat="44.41762" lon="6.3718">
        <ele>1812</ele>
        <time>2021-09-01T09:41:29.000Z</time>
      </trkpt>
      <trkpt lat="44.41761" lon="6.37181">
        <ele>1812</ele>
        <time>2021-09-01T09:41:30.000Z</time>
      </trkpt>
      <trkpt lat="44.41759" lon="6.37182">
        <ele>1813</ele>
        <time>2021-09-01T09:41:31.000Z</time>
      </trkpt>
      <trkpt lat="44.41757" lon="6.37183">
        <ele>1813</ele>
        <time>2021-09-01T09:41:32.000Z</time>
      </trkpt>
      <trkpt lat="44.41754" lon="6.37183">
        <ele>1814</ele>
        <time>2021-09-01T09:41:33.000Z</time>
      </trkpt>
      <trkpt lat="44.41752" lon="6.37184">
        <ele>1814</ele>
        <time>2021-09-01T09:41:34.000Z</time>
      </trkpt>
      <trkpt lat="44.41751" lon="6.37185">
        <ele>1815</ele>
        <time>2021-09-01T09:41:35.000Z</time>
      </trkpt>
      <trkpt lat="44.41749" lon="6.37186">
        <ele>1816</ele>
        <time>2021-09-01T09:41:36.000Z</time>
      </trkpt>
      <trkpt lat="44.41748" lon="6.37187">
        <ele>1816</ele>
        <time>2021-09-01T09:41:37.000Z</time>
      </trkpt>
      <trkpt lat="44.41746" lon="6.37188">
        <ele>1816</ele>
        <time>2021-09-01T09:41:38.000Z</time>
      </trkpt>
      <trkpt lat="44.41745" lon="6.37189">
        <ele>1816</ele>
        <time>2021-09-01T09:41:39.000Z</time>
      </trkpt>
      <trkpt lat="44.41743" lon="6.3719">
        <ele>1816</ele>
        <time>2021-09-01T09:41:40.000Z</time>
      </trkpt>
      <trkpt lat="44.41741" lon="6.37191">
        <ele>1816</ele>
        <time>2021-09-01T09:41:41.000Z</time>
      </trkpt>
      <trkpt lat="44.41738" lon="6.37192">
        <ele>1816</ele>
        <time>2021-09-01T09:41:42.000Z</time>
      </trkpt>
      <trkpt lat="44.41737" lon="6.37192">
        <ele>1816</ele>
        <time>2021-09-01T09:41:43.000Z</time>
      </trkpt>
      <trkpt lat="44.41735" lon="6.37193">
        <ele>1817</ele>
        <time>2021-09-01T09:41:44.000Z</time>
      </trkpt>
      <trkpt lat="44.41733" lon="6.37194">
        <ele>1817</ele>
        <time>2021-09-01T09:41:45.000Z</time>
      </trkpt>
      <trkpt lat="44.41731" lon="6.37195">
        <ele>1816</ele>
        <time>2021-09-01T09:41:46.000Z</time>
      </trkpt>
      <trkpt lat="44.41729" lon="6.37195">
        <ele>1816</ele>
        <time>2021-09-01T09:41:47.000Z</time>
      </trkpt>
      <trkpt lat="44.41727" lon="6.37195">
        <ele>1816</ele>
        <time>2021-09-01T09:41:48.000Z</time>
      </trkpt>
      <trkpt lat="44.41725" lon="6.37196">
        <ele>1815</ele>
        <time>2021-09-01T09:41:49.000Z</time>
      </trkpt>
      <trkpt lat="44.41723" lon="6.37196">
        <ele>1815</ele>
        <time>2021-09-01T09:41:50.000Z</time>
      </trkpt>
      <trkpt lat="44.41721" lon="6.37196">
        <ele>1815</ele>
        <time>2021-09-01T09:41:51.000Z</time>
      </trkpt>
      <trkpt lat="44.41719" lon="6.37197">
        <ele>1816</ele>
        <time>2021-09-01T09:41:52.000Z</time>
      </trkpt>
      <trkpt lat="44.41717" lon="6.37197">
        <ele>1817</ele>
        <time>2021-09-01T09:41:53.000Z</time>
      </trkpt>
      <trkpt lat="44.41715" lon="6.37197">
        <ele>1817</ele>
        <time>2021-09-01T09:41:54.000Z</time>
      </trkpt>
      <trkpt lat="44.41713" lon="6.37197">
        <ele>1817</ele>
        <time>2021-09-01T09:41:55.000Z</time>
      </trkpt>
      <trkpt lat="44.41712" lon="6.37197">
        <ele>1818</ele>
        <time>2021-09-01T09:41:56.000Z</time>
      </trkpt>
      <trkpt lat="44.4171" lon="6.37198">
        <ele>1818</ele>
        <time>2021-09-01T09:41:57.000Z</time>
      </trkpt>
      <trkpt lat="44.41709" lon="6.37198">
        <ele>1819</ele>
        <time>2021-09-01T09:41:58.000Z</time>
      </trkpt>
      <trkpt lat="44.41707" lon="6.37198">
        <ele>1821</ele>
        <time>2021-09-01T09:41:59.000Z</time>
      </trkpt>
      <trkpt lat="44.41705" lon="6.37198">
        <ele>1821</ele>
        <time>2021-09-01T09:42:00.000Z</time>
      </trkpt>
      <trkpt lat="44.41703" lon="6.37199">
        <ele>1823</ele>
        <time>2021-09-01T09:42:01.000Z</time>
      </trkpt>
      <trkpt lat="44.41701" lon="6.37199">
        <ele>1824</ele>
        <time>2021-09-01T09:42:02.000Z</time>
      </trkpt>
      <trkpt lat="44.41699" lon="6.37199">
        <ele>1824</ele>
        <time>2021-09-01T09:42:03.000Z</time>
      </trkpt>
      <trkpt lat="44.41697" lon="6.37199">
        <ele>1823</ele>
        <time>2021-09-01T09:42:04.000Z</time>
      </trkpt>
      <trkpt lat="44.41694" lon="6.37199">
        <ele>1823</ele>
        <time>2021-09-01T09:42:05.000Z</time>
      </trkpt>
      <trkpt lat="44.41692" lon="6.37198">
        <ele>1823</ele>
        <time>2021-09-01T09:42:06.000Z</time>
      </trkpt>
      <trkpt lat="44.4169" lon="6.37198">
        <ele>1823</ele>
        <time>2021-09-01T09:42:07.000Z</time>
      </trkpt>
      <trkpt lat="44.41688" lon="6.37198">
        <ele>1823</ele>
        <time>2021-09-01T09:42:08.000Z</time>
      </trkpt>
      <trkpt lat="44.41686" lon="6.37198">
        <ele>1824</ele>
        <time>2021-09-01T09:42:09.000Z</time>
      </trkpt>
      <trkpt lat="44.41684" lon="6.37198">
        <ele>1824</ele>
        <time>2021-09-01T09:42:10.000Z</time>
      </trkpt>
      <trkpt lat="44.41682" lon="6.37198">
        <ele>1824</ele>
        <time>2021-09-01T09:42:11.000Z</time>
      </trkpt>
      <trkpt lat="44.4168" lon="6.37199">
        <ele>1824</ele>
        <time>2021-09-01T09:42:12.000Z</time>
      </trkpt>
      <trkpt lat="44.41678" lon="6.37199">
        <ele>1825</ele>
        <time>2021-09-01T09:42:13.000Z</time>
      </trkpt>
      <trkpt lat="44.41677" lon="6.372">
        <ele>1825</ele>
        <time>2021-09-01T09:42:14.000Z</time>
      </trkpt>
      <trkpt lat="44.41675" lon="6.37199">
        <ele>1826</ele>
        <time>2021-09-01T09:42:15.000Z</time>
      </trkpt>
      <trkpt lat="44.41673" lon="6.37199">
        <ele>1826</ele>
        <time>2021-09-01T09:42:16.000Z</time>
      </trkpt>
      <trkpt lat="44.41671" lon="6.372">
        <ele>1826</ele>
        <time>2021-09-01T09:42:17.000Z</time>
      </trkpt>
      <trkpt lat="44.4167" lon="6.372">
        <ele>1826</ele>
        <time>2021-09-01T09:42:18.000Z</time>
      </trkpt>
      <trkpt lat="44.41667" lon="6.37201">
        <ele>1826</ele>
        <time>2021-09-01T09:42:19.000Z</time>
      </trkpt>
      <trkpt lat="44.41665" lon="6.37202">
        <ele>1826</ele>
        <time>2021-09-01T09:42:20.000Z</time>
      </trkpt>
      <trkpt lat="44.41663" lon="6.37202">
        <ele>1827</ele>
        <time>2021-09-01T09:42:21.000Z</time>
      </trkpt>
      <trkpt lat="44.4166" lon="6.37201">
        <ele>1828</ele>
        <time>2021-09-01T09:42:22.000Z</time>
      </trkpt>
      <trkpt lat="44.41658" lon="6.37201">
        <ele>1827</ele>
        <time>2021-09-01T09:42:23.000Z</time>
      </trkpt>
      <trkpt lat="44.41656" lon="6.37202">
        <ele>1828</ele>
        <time>2021-09-01T09:42:24.000Z</time>
      </trkpt>
      <trkpt lat="44.41654" lon="6.37202">
        <ele>1828</ele>
        <time>2021-09-01T09:42:25.000Z</time>
      </trkpt>
      <trkpt lat="44.41652" lon="6.37203">
        <ele>1828</ele>
        <time>2021-09-01T09:42:26.000Z</time>
      </trkpt>
      <trkpt lat="44.4165" lon="6.37203">
        <ele>1829</ele>
        <time>2021-09-01T09:42:27.000Z</time>
      </trkpt>
      <trkpt lat="44.41648" lon="6.37204">
        <ele>1829</ele>
        <time>2021-09-01T09:42:28.000Z</time>
      </trkpt>
      <trkpt lat="44.41646" lon="6.37204">
        <ele>1829</ele>
        <time>2021-09-01T09:42:29.000Z</time>
      </trkpt>
      <trkpt lat="44.41644" lon="6.37204">
        <ele>1830</ele>
        <time>2021-09-01T09:42:30.000Z</time>
      </trkpt>
      <trkpt lat="44.41642" lon="6.37204">
        <ele>1830</ele>
        <time>2021-09-01T09:42:31.000Z</time>
      </trkpt>
      <trkpt lat="44.4164" lon="6.37204">
        <ele>1830</ele>
        <time>2021-09-01T09:42:32.000Z</time>
      </trkpt>
      <trkpt lat="44.41638" lon="6.37204">
        <ele>1830</ele>
        <time>2021-09-01T09:42:33.000Z</time>
      </trkpt>
      <trkpt lat="44.41636" lon="6.37204">
        <ele>1830</ele>
        <time>2021-09-01T09:42:34.000Z</time>
      </trkpt>
      <trkpt lat="44.41634" lon="6.37204">
        <ele>1830</ele>
        <time>2021-09-01T09:42:35.000Z</time>
      </trkpt>
      <trkpt lat="44.41632" lon="6.37204">
        <ele>1830</ele>
        <time>2021-09-01T09:42:36.000Z</time>
      </trkpt>
      <trkpt lat="44.4163" lon="6.37204">
        <ele>1829</ele>
        <time>2021-09-01T09:42:37.000Z</time>
      </trkpt>
      <trkpt lat="44.41628" lon="6.37204">
        <ele>1829</ele>
        <time>2021-09-01T09:42:38.000Z</time>
      </trkpt>
      <trkpt lat="44.41627" lon="6.37204">
        <ele>1829</ele>
        <time>2021-09-01T09:42:39.000Z</time>
      </trkpt>
      <trkpt lat="44.41625" lon="6.37204">
        <ele>1829</ele>
        <time>2021-09-01T09:42:40.000Z</time>
      </trkpt>
      <trkpt lat="44.41623" lon="6.37204">
        <ele>1829</ele>
        <time>2021-09-01T09:42:41.000Z</time>
      </trkpt>
      <trkpt lat="44.41621" lon="6.37204">
        <ele>1830</ele>
        <time>2021-09-01T09:42:42.000Z</time>
      </trkpt>
      <trkpt lat="44.41619" lon="6.37204">
        <ele>1830</ele>
        <time>2021-09-01T09:42:43.000Z</time>
      </trkpt>
      <trkpt lat="44.41616" lon="6.37204">
        <ele>1830</ele>
        <time>2021-09-01T09:42:44.000Z</time>
      </trkpt>
      <trkpt lat="44.41613" lon="6.37205">
        <ele>1830</ele>
        <time>2021-09-01T09:42:45.000Z</time>
      </trkpt>
      <trkpt lat="44.41611" lon="6.37205">
        <ele>1830</ele>
        <time>2021-09-01T09:42:46.000Z</time>
      </trkpt>
      <trkpt lat="44.4161" lon="6.37206">
        <ele>1830</ele>
        <time>2021-09-01T09:42:47.000Z</time>
      </trkpt>
      <trkpt lat="44.41608" lon="6.37206">
        <ele>1830</ele>
        <time>2021-09-01T09:42:48.000Z</time>
      </trkpt>
      <trkpt lat="44.41606" lon="6.37207">
        <ele>1830</ele>
        <time>2021-09-01T09:42:49.000Z</time>
      </trkpt>
      <trkpt lat="44.41604" lon="6.37207">
        <ele>1831</ele>
        <time>2021-09-01T09:42:50.000Z</time>
      </trkpt>
      <trkpt lat="44.41602" lon="6.37208">
        <ele>1830</ele>
        <time>2021-09-01T09:42:51.000Z</time>
      </trkpt>
      <trkpt lat="44.416" lon="6.37209">
        <ele>1830</ele>
        <time>2021-09-01T09:42:52.000Z</time>
      </trkpt>
      <trkpt lat="44.41598" lon="6.3721">
        <ele>1830</ele>
        <time>2021-09-01T09:42:53.000Z</time>
      </trkpt>
      <trkpt lat="44.41597" lon="6.3721">
        <ele>1830</ele>
        <time>2021-09-01T09:42:54.000Z</time>
      </trkpt>
      <trkpt lat="44.41595" lon="6.37211">
        <ele>1829</ele>
        <time>2021-09-01T09:42:55.000Z</time>
      </trkpt>
      <trkpt lat="44.41593" lon="6.37213">
        <ele>1829</ele>
        <time>2021-09-01T09:42:56.000Z</time>
      </trkpt>
      <trkpt lat="44.41591" lon="6.37215">
        <ele>1829</ele>
        <time>2021-09-01T09:42:57.000Z</time>
      </trkpt>
      <trkpt lat="44.41588" lon="6.37216">
        <ele>1829</ele>
        <time>2021-09-01T09:42:58.000Z</time>
      </trkpt>
      <trkpt lat="44.41586" lon="6.37217">
        <ele>1829</ele>
        <time>2021-09-01T09:42:59.000Z</time>
      </trkpt>
      <trkpt lat="44.41583" lon="6.37218">
        <ele>1830</ele>
        <time>2021-09-01T09:43:00.000Z</time>
      </trkpt>
      <trkpt lat="44.41581" lon="6.3722">
        <ele>1830</ele>
        <time>2021-09-01T09:43:01.000Z</time>
      </trkpt>
      <trkpt lat="44.41578" lon="6.37221">
        <ele>1830</ele>
        <time>2021-09-01T09:43:02.000Z</time>
      </trkpt>
      <trkpt lat="44.41576" lon="6.37222">
        <ele>1830</ele>
        <time>2021-09-01T09:43:03.000Z</time>
      </trkpt>
      <trkpt lat="44.41574" lon="6.37223">
        <ele>1830</ele>
        <time>2021-09-01T09:43:04.000Z</time>
      </trkpt>
      <trkpt lat="44.41572" lon="6.37225">
        <ele>1831</ele>
        <time>2021-09-01T09:43:05.000Z</time>
      </trkpt>
      <trkpt lat="44.4157" lon="6.37226">
        <ele>1831</ele>
        <time>2021-09-01T09:43:06.000Z</time>
      </trkpt>
      <trkpt lat="44.41568" lon="6.37227">
        <ele>1832</ele>
        <time>2021-09-01T09:43:07.000Z</time>
      </trkpt>
      <trkpt lat="44.41566" lon="6.37229">
        <ele>1832</ele>
        <time>2021-09-01T09:43:08.000Z</time>
      </trkpt>
      <trkpt lat="44.41564" lon="6.3723">
        <ele>1833</ele>
        <time>2021-09-01T09:43:09.000Z</time>
      </trkpt>
      <trkpt lat="44.41563" lon="6.37231">
        <ele>1833</ele>
        <time>2021-09-01T09:43:10.000Z</time>
      </trkpt>
      <trkpt lat="44.41561" lon="6.37233">
        <ele>1834</ele>
        <time>2021-09-01T09:43:11.000Z</time>
      </trkpt>
      <trkpt lat="44.41559" lon="6.37235">
        <ele>1834</ele>
        <time>2021-09-01T09:43:12.000Z</time>
      </trkpt>
      <trkpt lat="44.41557" lon="6.37236">
        <ele>1835</ele>
        <time>2021-09-01T09:43:13.000Z</time>
      </trkpt>
      <trkpt lat="44.41556" lon="6.37237">
        <ele>1836</ele>
        <time>2021-09-01T09:43:14.000Z</time>
      </trkpt>
      <trkpt lat="44.41554" lon="6.37239">
        <ele>1836</ele>
        <time>2021-09-01T09:43:15.000Z</time>
      </trkpt>
      <trkpt lat="44.41553" lon="6.3724">
        <ele>1836</ele>
        <time>2021-09-01T09:43:16.000Z</time>
      </trkpt>
      <trkpt lat="44.41551" lon="6.37242">
        <ele>1837</ele>
        <time>2021-09-01T09:43:17.000Z</time>
      </trkpt>
      <trkpt lat="44.41549" lon="6.37243">
        <ele>1838</ele>
        <time>2021-09-01T09:43:18.000Z</time>
      </trkpt>
      <trkpt lat="44.41548" lon="6.37244">
        <ele>1838</ele>
        <time>2021-09-01T09:43:19.000Z</time>
      </trkpt>
      <trkpt lat="44.41546" lon="6.37245">
        <ele>1838</ele>
        <time>2021-09-01T09:43:20.000Z</time>
      </trkpt>
      <trkpt lat="44.41545" lon="6.37246">
        <ele>1839</ele>
        <time>2021-09-01T09:43:21.000Z</time>
      </trkpt>
      <trkpt lat="44.41544" lon="6.37248">
        <ele>1839</ele>
        <time>2021-09-01T09:43:22.000Z</time>
      </trkpt>
      <trkpt lat="44.41542" lon="6.37249">
        <ele>1840</ele>
        <time>2021-09-01T09:43:23.000Z</time>
      </trkpt>
      <trkpt lat="44.41541" lon="6.37251">
        <ele>1841</ele>
        <time>2021-09-01T09:43:24.000Z</time>
      </trkpt>
      <trkpt lat="44.4154" lon="6.37254">
        <ele>1843</ele>
        <time>2021-09-01T09:43:25.000Z</time>
      </trkpt>
      <trkpt lat="44.41539" lon="6.37256">
        <ele>1844</ele>
        <time>2021-09-01T09:43:26.000Z</time>
      </trkpt>
      <trkpt lat="44.41538" lon="6.37259">
        <ele>1844</ele>
        <time>2021-09-01T09:43:27.000Z</time>
      </trkpt>
      <trkpt lat="44.41536" lon="6.37261">
        <ele>1845</ele>
        <time>2021-09-01T09:43:28.000Z</time>
      </trkpt>
      <trkpt lat="44.41535" lon="6.37263">
        <ele>1845</ele>
        <time>2021-09-01T09:43:29.000Z</time>
      </trkpt>
      <trkpt lat="44.41534" lon="6.37266">
        <ele>1846</ele>
        <time>2021-09-01T09:43:30.000Z</time>
      </trkpt>
      <trkpt lat="44.41534" lon="6.37268">
        <ele>1846</ele>
        <time>2021-09-01T09:43:31.000Z</time>
      </trkpt>
      <trkpt lat="44.41533" lon="6.37271">
        <ele>1847</ele>
        <time>2021-09-01T09:43:32.000Z</time>
      </trkpt>
      <trkpt lat="44.41532" lon="6.37273">
        <ele>1847</ele>
        <time>2021-09-01T09:43:33.000Z</time>
      </trkpt>
      <trkpt lat="44.41532" lon="6.37275">
        <ele>1847</ele>
        <time>2021-09-01T09:43:34.000Z</time>
      </trkpt>
      <trkpt lat="44.41531" lon="6.37278">
        <ele>1847</ele>
        <time>2021-09-01T09:43:35.000Z</time>
      </trkpt>
      <trkpt lat="44.41531" lon="6.37279">
        <ele>1848</ele>
        <time>2021-09-01T09:43:36.000Z</time>
      </trkpt>
      <trkpt lat="44.41531" lon="6.37282">
        <ele>1848</ele>
        <time>2021-09-01T09:43:37.000Z</time>
      </trkpt>
      <trkpt lat="44.41531" lon="6.37284">
        <ele>1848</ele>
        <time>2021-09-01T09:43:38.000Z</time>
      </trkpt>
      <trkpt lat="44.41532" lon="6.37286">
        <ele>1849</ele>
        <time>2021-09-01T09:43:39.000Z</time>
      </trkpt>
      <trkpt lat="44.41534" lon="6.37287">
        <ele>1850</ele>
        <time>2021-09-01T09:43:40.000Z</time>
      </trkpt>
      <trkpt lat="44.41534" lon="6.37288">
        <ele>1851</ele>
        <time>2021-09-01T09:43:41.000Z</time>
      </trkpt>
      <trkpt lat="44.41536" lon="6.37289">
        <ele>1851</ele>
        <time>2021-09-01T09:43:42.000Z</time>
      </trkpt>
      <trkpt lat="44.41537" lon="6.3729">
        <ele>1851</ele>
        <time>2021-09-01T09:43:43.000Z</time>
      </trkpt>
      <trkpt lat="44.41538" lon="6.37291">
        <ele>1852</ele>
        <time>2021-09-01T09:43:44.000Z</time>
      </trkpt>
      <trkpt lat="44.41539" lon="6.37292">
        <ele>1852</ele>
        <time>2021-09-01T09:43:45.000Z</time>
      </trkpt>
      <trkpt lat="44.4154" lon="6.37294">
        <ele>1852</ele>
        <time>2021-09-01T09:43:46.000Z</time>
      </trkpt>
      <trkpt lat="44.41541" lon="6.37295">
        <ele>1852</ele>
        <time>2021-09-01T09:43:47.000Z</time>
      </trkpt>
      <trkpt lat="44.41543" lon="6.37297">
        <ele>1853</ele>
        <time>2021-09-01T09:43:48.000Z</time>
      </trkpt>
      <trkpt lat="44.41544" lon="6.37298">
        <ele>1853</ele>
        <time>2021-09-01T09:43:49.000Z</time>
      </trkpt>
      <trkpt lat="44.41545" lon="6.37299">
        <ele>1854</ele>
        <time>2021-09-01T09:43:50.000Z</time>
      </trkpt>
      <trkpt lat="44.41547" lon="6.373">
        <ele>1854</ele>
        <time>2021-09-01T09:43:51.000Z</time>
      </trkpt>
      <trkpt lat="44.41548" lon="6.37301">
        <ele>1854</ele>
        <time>2021-09-01T09:43:52.000Z</time>
      </trkpt>
      <trkpt lat="44.41549" lon="6.37303">
        <ele>1854</ele>
        <time>2021-09-01T09:43:53.000Z</time>
      </trkpt>
      <trkpt lat="44.4155" lon="6.37304">
        <ele>1855</ele>
        <time>2021-09-01T09:43:54.000Z</time>
      </trkpt>
      <trkpt lat="44.41552" lon="6.37306">
        <ele>1855</ele>
        <time>2021-09-01T09:43:55.000Z</time>
      </trkpt>
      <trkpt lat="44.41554" lon="6.37307">
        <ele>1856</ele>
        <time>2021-09-01T09:43:56.000Z</time>
      </trkpt>
      <trkpt lat="44.41555" lon="6.37309">
        <ele>1856</ele>
        <time>2021-09-01T09:43:57.000Z</time>
      </trkpt>
      <trkpt lat="44.41557" lon="6.3731">
        <ele>1856</ele>
        <time>2021-09-01T09:43:58.000Z</time>
      </trkpt>
      <trkpt lat="44.41558" lon="6.37312">
        <ele>1857</ele>
        <time>2021-09-01T09:43:59.000Z</time>
      </trkpt>
      <trkpt lat="44.4156" lon="6.37314">
        <ele>1858</ele>
        <time>2021-09-01T09:44:00.000Z</time>
      </trkpt>
      <trkpt lat="44.41562" lon="6.37317">
        <ele>1859</ele>
        <time>2021-09-01T09:44:01.000Z</time>
      </trkpt>
      <trkpt lat="44.41564" lon="6.37319">
        <ele>1859</ele>
        <time>2021-09-01T09:44:02.000Z</time>
      </trkpt>
      <trkpt lat="44.41565" lon="6.37321">
        <ele>1859</ele>
        <time>2021-09-01T09:44:03.000Z</time>
      </trkpt>
      <trkpt lat="44.41567" lon="6.37322">
        <ele>1859</ele>
        <time>2021-09-01T09:44:04.000Z</time>
      </trkpt>
      <trkpt lat="44.41569" lon="6.37324">
        <ele>1859</ele>
        <time>2021-09-01T09:44:05.000Z</time>
      </trkpt>
      <trkpt lat="44.4157" lon="6.37326">
        <ele>1859</ele>
        <time>2021-09-01T09:44:06.000Z</time>
      </trkpt>
      <trkpt lat="44.41572" lon="6.37328">
        <ele>1860</ele>
        <time>2021-09-01T09:44:07.000Z</time>
      </trkpt>
      <trkpt lat="44.41573" lon="6.3733">
        <ele>1860</ele>
        <time>2021-09-01T09:44:08.000Z</time>
      </trkpt>
      <trkpt lat="44.41575" lon="6.37332">
        <ele>1860</ele>
        <time>2021-09-01T09:44:09.000Z</time>
      </trkpt>
      <trkpt lat="44.41576" lon="6.37334">
        <ele>1860</ele>
        <time>2021-09-01T09:44:10.000Z</time>
      </trkpt>
      <trkpt lat="44.41577" lon="6.37336">
        <ele>1860</ele>
        <time>2021-09-01T09:44:11.000Z</time>
      </trkpt>
      <trkpt lat="44.41578" lon="6.37338">
        <ele>1860</ele>
        <time>2021-09-01T09:44:12.000Z</time>
      </trkpt>
      <trkpt lat="44.41579" lon="6.37339">
        <ele>1860</ele>
        <time>2021-09-01T09:44:13.000Z</time>
      </trkpt>
      <trkpt lat="44.41579" lon="6.3734">
        <ele>1861</ele>
        <time>2021-09-01T09:44:14.000Z</time>
      </trkpt>
      <trkpt lat="44.41579" lon="6.3734">
        <ele>1860</ele>
        <time>2021-09-01T09:44:15.000Z</time>
      </trkpt>
      <trkpt lat="44.41579" lon="6.37341">
        <ele>1860</ele>
        <time>2021-09-01T09:44:16.000Z</time>
      </trkpt>
      <trkpt lat="44.41579" lon="6.37341">
        <ele>1859</ele>
        <time>2021-09-01T09:44:17.000Z</time>
      </trkpt>
      <trkpt lat="44.41579" lon="6.37341">
        <ele>1859</ele>
        <time>2021-09-01T09:44:18.000Z</time>
      </trkpt>
      <trkpt lat="44.41579" lon="6.37341">
        <ele>1858</ele>
        <time>2021-09-01T09:44:19.000Z</time>
      </trkpt>
      <trkpt lat="44.4158" lon="6.37342">
        <ele>1858</ele>
        <time>2021-09-01T09:44:20.000Z</time>
      </trkpt>
      <trkpt lat="44.4158" lon="6.37342">
        <ele>1859</ele>
        <time>2021-09-01T09:44:21.000Z</time>
      </trkpt>
      <trkpt lat="44.4158" lon="6.37342">
        <ele>1860</ele>
        <time>2021-09-01T09:44:22.000Z</time>
      </trkpt>
      <trkpt lat="44.4158" lon="6.37342">
        <ele>1859</ele>
        <time>2021-09-01T09:44:23.000Z</time>
      </trkpt>
      <trkpt lat="44.4158" lon="6.37342">
        <ele>1859</ele>
        <time>2021-09-01T09:44:24.000Z</time>
      </trkpt>
      <trkpt lat="44.4158" lon="6.37342">
        <ele>1859</ele>
        <time>2021-09-01T09:44:25.000Z</time>
      </trkpt>
      <trkpt lat="44.4158" lon="6.37342">
        <ele>1859</ele>
        <time>2021-09-01T09:44:26.000Z</time>
      </trkpt>
      <trkpt lat="44.4158" lon="6.37342">
        <ele>1859</ele>
        <time>2021-09-01T09:44:27.000Z</time>
      </trkpt>
      <trkpt lat="44.41581" lon="6.37342">
        <ele>1860</ele>
        <time>2021-09-01T09:44:28.000Z</time>
      </trkpt>
      <trkpt lat="44.41581" lon="6.37342">
        <ele>1860</ele>
        <time>2021-09-01T09:44:29.000Z</time>
      </trkpt>
      <trkpt lat="44.41581" lon="6.37342">
        <ele>1861</ele>
        <time>2021-09-01T09:44:30.000Z</time>
      </trkpt>
      <trkpt lat="44.41581" lon="6.37342">
        <ele>1861</ele>
        <time>2021-09-01T09:44:31.000Z</time>
      </trkpt>
      <trkpt lat="44.41581" lon="6.37342">
        <ele>1861</ele>
        <time>2021-09-01T09:44:32.000Z</time>
      </trkpt>
      <trkpt lat="44.41581" lon="6.37342">
        <ele>1862</ele>
        <time>2021-09-01T09:44:33.000Z</time>
      </trkpt>
      <trkpt lat="44.41581" lon="6.37343">
        <ele>1862</ele>
        <time>2021-09-01T09:44:34.000Z</time>
      </trkpt>
      <trkpt lat="44.41581" lon="6.37343">
        <ele>1862</ele>
        <time>2021-09-01T09:44:35.000Z</time>
      </trkpt>
      <trkpt lat="44.41582" lon="6.37343">
        <ele>1863</ele>
        <time>2021-09-01T09:44:36.000Z</time>
      </trkpt>
      <trkpt lat="44.41582" lon="6.37343">
        <ele>1863</ele>
        <time>2021-09-01T09:44:37.000Z</time>
      </trkpt>
      <trkpt lat="44.41582" lon="6.37343">
        <ele>1863</ele>
        <time>2021-09-01T09:44:38.000Z</time>
      </trkpt>
      <trkpt lat="44.41582" lon="6.37343">
        <ele>1863</ele>
        <time>2021-09-01T09:44:39.000Z</time>
      </trkpt>
      <trkpt lat="44.41582" lon="6.37343">
        <ele>1863</ele>
        <time>2021-09-01T09:44:40.000Z</time>
      </trkpt>
      <trkpt lat="44.41582" lon="6.37344">
        <ele>1864</ele>
        <time>2021-09-01T09:44:41.000Z</time>
      </trkpt>
      <trkpt lat="44.41582" lon="6.37344">
        <ele>1864</ele>
        <time>2021-09-01T09:44:42.000Z</time>
      </trkpt>
      <trkpt lat="44.41582" lon="6.37344">
        <ele>1864</ele>
        <time>2021-09-01T09:44:43.000Z</time>
      </trkpt>
      <trkpt lat="44.41582" lon="6.37344">
        <ele>1864</ele>
        <time>2021-09-01T09:44:44.000Z</time>
      </trkpt>
      <trkpt lat="44.41582" lon="6.37344">
        <ele>1864</ele>
        <time>2021-09-01T09:44:45.000Z</time>
      </trkpt>
      <trkpt lat="44.41582" lon="6.37344">
        <ele>1865</ele>
        <time>2021-09-01T09:44:46.000Z</time>
      </trkpt>
      <trkpt lat="44.41582" lon="6.37344">
        <ele>1865</ele>
        <time>2021-09-01T09:44:47.000Z</time>
      </trkpt>
      <trkpt lat="44.41582" lon="6.37344">
        <ele>1865</ele>
        <time>2021-09-01T09:44:48.000Z</time>
      </trkpt>
      <trkpt lat="44.41582" lon="6.37345">
        <ele>1865</ele>
        <time>2021-09-01T09:44:49.000Z</time>
      </trkpt>
      <trkpt lat="44.41582" lon="6.37345">
        <ele>1865</ele>
        <time>2021-09-01T09:44:50.000Z</time>
      </trkpt>
      <trkpt lat="44.41582" lon="6.37345">
        <ele>1865</ele>
        <time>2021-09-01T09:44:51.000Z</time>
      </trkpt>
      <trkpt lat="44.41582" lon="6.37345">
        <ele>1865</ele>
        <time>2021-09-01T09:44:52.000Z</time>
      </trkpt>
      <trkpt lat="44.41582" lon="6.37345">
        <ele>1865</ele>
        <time>2021-09-01T09:44:53.000Z</time>
      </trkpt>
      <trkpt lat="44.41582" lon="6.37345">
        <ele>1866</ele>
        <time>2021-09-01T09:44:54.000Z</time>
      </trkpt>
      <trkpt lat="44.41582" lon="6.37345">
        <ele>1866</ele>
        <time>2021-09-01T09:44:55.000Z</time>
      </trkpt>
      <trkpt lat="44.41582" lon="6.37345">
        <ele>1867</ele>
        <time>2021-09-01T09:44:56.000Z</time>
      </trkpt>
      <trkpt lat="44.41582" lon="6.37345">
        <ele>1867</ele>
        <time>2021-09-01T09:44:57.000Z</time>
      </trkpt>
      <trkpt lat="44.41582" lon="6.37345">
        <ele>1867</ele>
        <time>2021-09-01T09:44:58.000Z</time>
      </trkpt>
      <trkpt lat="44.41582" lon="6.37345">
        <ele>1867</ele>
        <time>2021-09-01T09:44:59.000Z</time>
      </trkpt>
      <trkpt lat="44.41582" lon="6.37345">
        <ele>1867</ele>
        <time>2021-09-01T09:45:00.000Z</time>
      </trkpt>
      <trkpt lat="44.41582" lon="6.37345">
        <ele>1867</ele>
        <time>2021-09-01T09:45:01.000Z</time>
      </trkpt>
      <trkpt lat="44.41582" lon="6.37345">
        <ele>1867</ele>
        <time>2021-09-01T09:45:02.000Z</time>
      </trkpt>
      <trkpt lat="44.41582" lon="6.37345">
        <ele>1867</ele>
        <time>2021-09-01T09:45:03.000Z</time>
      </trkpt>
      <trkpt lat="44.41582" lon="6.37345">
        <ele>1867</ele>
        <time>2021-09-01T09:45:04.000Z</time>
      </trkpt>
      <trkpt lat="44.41582" lon="6.37345">
        <ele>1867</ele>
        <time>2021-09-01T09:45:05.000Z</time>
      </trkpt>
      <trkpt lat="44.41583" lon="6.37345">
        <ele>1868</ele>
        <time>2021-09-01T09:45:06.000Z</time>
      </trkpt>
      <trkpt lat="44.41583" lon="6.37345">
        <ele>1868</ele>
        <time>2021-09-01T09:45:07.000Z</time>
      </trkpt>
      <trkpt lat="44.41583" lon="6.37345">
        <ele>1867</ele>
        <time>2021-09-01T09:45:08.000Z</time>
      </trkpt>
      <trkpt lat="44.41583" lon="6.37345">
        <ele>1867</ele>
        <time>2021-09-01T09:45:09.000Z</time>
      </trkpt>
      <trkpt lat="44.41583" lon="6.37345">
        <ele>1867</ele>
        <time>2021-09-01T09:45:10.000Z</time>
      </trkpt>
      <trkpt lat="44.41583" lon="6.37345">
        <ele>1866</ele>
        <time>2021-09-01T09:45:11.000Z</time>
      </trkpt>
      <trkpt lat="44.41582" lon="6.37345">
        <ele>1866</ele>
        <time>2021-09-01T09:45:12.000Z</time>
      </trkpt>
      <trkpt lat="44.41582" lon="6.37345">
        <ele>1866</ele>
        <time>2021-09-01T09:45:13.000Z</time>
      </trkpt>
      <trkpt lat="44.41582" lon="6.37345">
        <ele>1865</ele>
        <time>2021-09-01T09:45:14.000Z</time>
      </trkpt>
      <trkpt lat="44.41582" lon="6.37345">
        <ele>1865</ele>
        <time>2021-09-01T09:45:15.000Z</time>
      </trkpt>
      <trkpt lat="44.41582" lon="6.37345">
        <ele>1865</ele>
        <time>2021-09-01T09:45:16.000Z</time>
      </trkpt>
      <trkpt lat="44.41582" lon="6.37345">
        <ele>1865</ele>
        <time>2021-09-01T09:45:17.000Z</time>
      </trkpt>
      <trkpt lat="44.41582" lon="6.37344">
        <ele>1864</ele>
        <time>2021-09-01T09:45:18.000Z</time>
      </trkpt>
      <trkpt lat="44.41582" lon="6.37344">
        <ele>1864</ele>
        <time>2021-09-01T09:45:19.000Z</time>
      </trkpt>
      <trkpt lat="44.41582" lon="6.37344">
        <ele>1864</ele>
        <time>2021-09-01T09:45:20.000Z</time>
      </trkpt>
      <trkpt lat="44.41582" lon="6.37344">
        <ele>1864</ele>
        <time>2021-09-01T09:45:21.000Z</time>
      </trkpt>
      <trkpt lat="44.41582" lon="6.37344">
        <ele>1864</ele>
        <time>2021-09-01T09:45:22.000Z</time>
      </trkpt>
      <trkpt lat="44.41582" lon="6.37344">
        <ele>1864</ele>
        <time>2021-09-01T09:45:23.000Z</time>
      </trkpt>
      <trkpt lat="44.41582" lon="6.37344">
        <ele>1864</ele>
        <time>2021-09-01T09:45:24.000Z</time>
      </trkpt>
      <trkpt lat="44.41582" lon="6.37344">
        <ele>1864</ele>
        <time>2021-09-01T09:45:25.000Z</time>
      </trkpt>
      <trkpt lat="44.41582" lon="6.37344">
        <ele>1865</ele>
        <time>2021-09-01T09:45:26.000Z</time>
      </trkpt>
      <trkpt lat="44.41582" lon="6.37344">
        <ele>1865</ele>
        <time>2021-09-01T09:45:27.000Z</time>
      </trkpt>
      <trkpt lat="44.41582" lon="6.37344">
        <ele>1865</ele>
        <time>2021-09-01T09:45:28.000Z</time>
      </trkpt>
      <trkpt lat="44.41582" lon="6.37344">
        <ele>1865</ele>
        <time>2021-09-01T09:45:29.000Z</time>
      </trkpt>
      <trkpt lat="44.41582" lon="6.37344">
        <ele>1865</ele>
        <time>2021-09-01T09:45:30.000Z</time>
      </trkpt>
      <trkpt lat="44.41582" lon="6.37344">
        <ele>1865</ele>
        <time>2021-09-01T09:45:31.000Z</time>
      </trkpt>
      <trkpt lat="44.41582" lon="6.37344">
        <ele>1865</ele>
        <time>2021-09-01T09:45:32.000Z</time>
      </trkpt>
      <trkpt lat="44.41582" lon="6.37344">
        <ele>1865</ele>
        <time>2021-09-01T09:45:33.000Z</time>
      </trkpt>
      <trkpt lat="44.41582" lon="6.37344">
        <ele>1865</ele>
        <time>2021-09-01T09:45:34.000Z</time>
      </trkpt>
      <trkpt lat="44.41582" lon="6.37344">
        <ele>1864</ele>
        <time>2021-09-01T09:45:35.000Z</time>
      </trkpt>
      <trkpt lat="44.41582" lon="6.37344">
        <ele>1864</ele>
        <time>2021-09-01T09:45:36.000Z</time>
      </trkpt>
      <trkpt lat="44.41582" lon="6.37344">
        <ele>1864</ele>
        <time>2021-09-01T09:45:37.000Z</time>
      </trkpt>
      <trkpt lat="44.41582" lon="6.37344">
        <ele>1864</ele>
        <time>2021-09-01T09:45:38.000Z</time>
      </trkpt>
      <trkpt lat="44.41581" lon="6.37344">
        <ele>1864</ele>
        <time>2021-09-01T09:45:39.000Z</time>
      </trkpt>
      <trkpt lat="44.41581" lon="6.37344">
        <ele>1863</ele>
        <time>2021-09-01T09:45:40.000Z</time>
      </trkpt>
      <trkpt lat="44.41581" lon="6.37344">
        <ele>1863</ele>
        <time>2021-09-01T09:45:41.000Z</time>
      </trkpt>
      <trkpt lat="44.41582" lon="6.37344">
        <ele>1863</ele>
        <time>2021-09-01T09:45:42.000Z</time>
      </trkpt>
      <trkpt lat="44.41582" lon="6.37344">
        <ele>1863</ele>
        <time>2021-09-01T09:45:43.000Z</time>
      </trkpt>
      <trkpt lat="44.41582" lon="6.37344">
        <ele>1863</ele>
        <time>2021-09-01T09:45:44.000Z</time>
      </trkpt>
      <trkpt lat="44.41581" lon="6.37344">
        <ele>1863</ele>
        <time>2021-09-01T09:45:45.000Z</time>
      </trkpt>
      <trkpt lat="44.41581" lon="6.37344">
        <ele>1863</ele>
        <time>2021-09-01T09:45:46.000Z</time>
      </trkpt>
      <trkpt lat="44.41581" lon="6.37344">
        <ele>1863</ele>
        <time>2021-09-01T09:45:47.000Z</time>
      </trkpt>
      <trkpt lat="44.41581" lon="6.37344">
        <ele>1863</ele>
        <time>2021-09-01T09:45:48.000Z</time>
      </trkpt>
      <trkpt lat="44.41581" lon="6.37344">
        <ele>1863</ele>
        <time>2021-09-01T09:45:49.000Z</time>
      </trkpt>
      <trkpt lat="44.41581" lon="6.37345">
        <ele>1863</ele>
        <time>2021-09-01T09:45:50.000Z</time>
      </trkpt>
      <trkpt lat="44.41582" lon="6.37346">
        <ele>1863</ele>
        <time>2021-09-01T09:45:51.000Z</time>
      </trkpt>
      <trkpt lat="44.41582" lon="6.37346">
        <ele>1863</ele>
        <time>2021-09-01T09:45:52.000Z</time>
      </trkpt>
      <trkpt lat="44.41581" lon="6.37346">
        <ele>1863</ele>
        <time>2021-09-01T09:45:53.000Z</time>
      </trkpt>
      <trkpt lat="44.41582" lon="6.37345">
        <ele>1862</ele>
        <time>2021-09-01T09:45:54.000Z</time>
      </trkpt>
      <trkpt lat="44.41582" lon="6.37345">
        <ele>1862</ele>
        <time>2021-09-01T09:45:55.000Z</time>
      </trkpt>
      <trkpt lat="44.41581" lon="6.37345">
        <ele>1861</ele>
        <time>2021-09-01T09:45:56.000Z</time>
      </trkpt>
      <trkpt lat="44.41581" lon="6.37345">
        <ele>1861</ele>
        <time>2021-09-01T09:45:57.000Z</time>
      </trkpt>
      <trkpt lat="44.41581" lon="6.37346">
        <ele>1861</ele>
        <time>2021-09-01T09:45:58.000Z</time>
      </trkpt>
      <trkpt lat="44.41579" lon="6.37346">
        <ele>1861</ele>
        <time>2021-09-01T09:45:59.000Z</time>
      </trkpt>
      <trkpt lat="44.41578" lon="6.37346">
        <ele>1862</ele>
        <time>2021-09-01T09:46:00.000Z</time>
      </trkpt>
      <trkpt lat="44.41576" lon="6.37346">
        <ele>1862</ele>
        <time>2021-09-01T09:46:01.000Z</time>
      </trkpt>
      <trkpt lat="44.41575" lon="6.37347">
        <ele>1862</ele>
        <time>2021-09-01T09:46:02.000Z</time>
      </trkpt>
      <trkpt lat="44.41573" lon="6.37347">
        <ele>1862</ele>
        <time>2021-09-01T09:46:03.000Z</time>
      </trkpt>
      <trkpt lat="44.41571" lon="6.37347">
        <ele>1862</ele>
        <time>2021-09-01T09:46:04.000Z</time>
      </trkpt>
      <trkpt lat="44.4157" lon="6.37347">
        <ele>1862</ele>
        <time>2021-09-01T09:46:05.000Z</time>
      </trkpt>
      <trkpt lat="44.41569" lon="6.37346">
        <ele>1862</ele>
        <time>2021-09-01T09:46:06.000Z</time>
      </trkpt>
      <trkpt lat="44.41567" lon="6.37346">
        <ele>1862</ele>
        <time>2021-09-01T09:46:07.000Z</time>
      </trkpt>
      <trkpt lat="44.41566" lon="6.37346">
        <ele>1862</ele>
        <time>2021-09-01T09:46:08.000Z</time>
      </trkpt>
      <trkpt lat="44.41564" lon="6.37345">
        <ele>1863</ele>
        <time>2021-09-01T09:46:09.000Z</time>
      </trkpt>
      <trkpt lat="44.41563" lon="6.37345">
        <ele>1863</ele>
        <time>2021-09-01T09:46:10.000Z</time>
      </trkpt>
      <trkpt lat="44.41561" lon="6.37345">
        <ele>1863</ele>
        <time>2021-09-01T09:46:11.000Z</time>
      </trkpt>
      <trkpt lat="44.4156" lon="6.37344">
        <ele>1863</ele>
        <time>2021-09-01T09:46:12.000Z</time>
      </trkpt>
      <trkpt lat="44.41559" lon="6.37344">
        <ele>1863</ele>
        <time>2021-09-01T09:46:13.000Z</time>
      </trkpt>
      <trkpt lat="44.41559" lon="6.37344">
        <ele>1863</ele>
        <time>2021-09-01T09:46:14.000Z</time>
      </trkpt>
      <trkpt lat="44.41559" lon="6.37345">
        <ele>1863</ele>
        <time>2021-09-01T09:46:15.000Z</time>
      </trkpt>
      <trkpt lat="44.41558" lon="6.37345">
        <ele>1863</ele>
        <time>2021-09-01T09:46:16.000Z</time>
      </trkpt>
      <trkpt lat="44.41559" lon="6.37345">
        <ele>1863</ele>
        <time>2021-09-01T09:46:17.000Z</time>
      </trkpt>
      <trkpt lat="44.4156" lon="6.37344">
        <ele>1863</ele>
        <time>2021-09-01T09:46:18.000Z</time>
      </trkpt>
      <trkpt lat="44.41561" lon="6.37344">
        <ele>1862</ele>
        <time>2021-09-01T09:46:19.000Z</time>
      </trkpt>
      <trkpt lat="44.41562" lon="6.37344">
        <ele>1862</ele>
        <time>2021-09-01T09:46:20.000Z</time>
      </trkpt>
      <trkpt lat="44.41563" lon="6.37344">
        <ele>1862</ele>
        <time>2021-09-01T09:46:21.000Z</time>
      </trkpt>
      <trkpt lat="44.41564" lon="6.37344">
        <ele>1862</ele>
        <time>2021-09-01T09:46:22.000Z</time>
      </trkpt>
      <trkpt lat="44.41565" lon="6.37345">
        <ele>1862</ele>
        <time>2021-09-01T09:46:23.000Z</time>
      </trkpt>
      <trkpt lat="44.41566" lon="6.37345">
        <ele>1862</ele>
        <time>2021-09-01T09:46:24.000Z</time>
      </trkpt>
      <trkpt lat="44.41567" lon="6.37345">
        <ele>1862</ele>
        <time>2021-09-01T09:46:25.000Z</time>
      </trkpt>
      <trkpt lat="44.41568" lon="6.37346">
        <ele>1862</ele>
        <time>2021-09-01T09:46:26.000Z</time>
      </trkpt>
      <trkpt lat="44.41568" lon="6.37345">
        <ele>1862</ele>
        <time>2021-09-01T09:46:27.000Z</time>
      </trkpt>
      <trkpt lat="44.41569" lon="6.37345">
        <ele>1862</ele>
        <time>2021-09-01T09:46:28.000Z</time>
      </trkpt>
      <trkpt lat="44.4157" lon="6.37345">
        <ele>1862</ele>
        <time>2021-09-01T09:46:29.000Z</time>
      </trkpt>
      <trkpt lat="44.41571" lon="6.37346">
        <ele>1862</ele>
        <time>2021-09-01T09:46:30.000Z</time>
      </trkpt>
      <trkpt lat="44.41572" lon="6.37346">
        <ele>1862</ele>
        <time>2021-09-01T09:46:31.000Z</time>
      </trkpt>
      <trkpt lat="44.41573" lon="6.37346">
        <ele>1862</ele>
        <time>2021-09-01T09:46:32.000Z</time>
      </trkpt>
      <trkpt lat="44.41574" lon="6.37346">
        <ele>1862</ele>
        <time>2021-09-01T09:46:33.000Z</time>
      </trkpt>
      <trkpt lat="44.41575" lon="6.37345">
        <ele>1862</ele>
        <time>2021-09-01T09:46:34.000Z</time>
      </trkpt>
      <trkpt lat="44.41576" lon="6.37346">
        <ele>1862</ele>
        <time>2021-09-01T09:46:35.000Z</time>
      </trkpt>
      <trkpt lat="44.41577" lon="6.37346">
        <ele>1862</ele>
        <time>2021-09-01T09:46:36.000Z</time>
      </trkpt>
      <trkpt lat="44.41578" lon="6.37346">
        <ele>1862</ele>
        <time>2021-09-01T09:46:37.000Z</time>
      </trkpt>
      <trkpt lat="44.41579" lon="6.37345">
        <ele>1862</ele>
        <time>2021-09-01T09:46:38.000Z</time>
      </trkpt>
      <trkpt lat="44.4158" lon="6.37345">
        <ele>1862</ele>
        <time>2021-09-01T09:46:39.000Z</time>
      </trkpt>
      <trkpt lat="44.41581" lon="6.37345">
        <ele>1862</ele>
        <time>2021-09-01T09:46:40.000Z</time>
      </trkpt>
      <trkpt lat="44.41581" lon="6.37345">
        <ele>1862</ele>
        <time>2021-09-01T09:46:41.000Z</time>
      </trkpt>
      <trkpt lat="44.41582" lon="6.37345">
        <ele>1863</ele>
        <time>2021-09-01T09:46:42.000Z</time>
      </trkpt>
      <trkpt lat="44.41582" lon="6.37345">
        <ele>1863</ele>
        <time>2021-09-01T09:46:43.000Z</time>
      </trkpt>
      <trkpt lat="44.41583" lon="6.37346">
        <ele>1863</ele>
        <time>2021-09-01T09:46:44.000Z</time>
      </trkpt>
      <trkpt lat="44.41583" lon="6.37346">
        <ele>1863</ele>
        <time>2021-09-01T09:46:45.000Z</time>
      </trkpt>
      <trkpt lat="44.41583" lon="6.37346">
        <ele>1863</ele>
        <time>2021-09-01T09:46:46.000Z</time>
      </trkpt>
      <trkpt lat="44.41584" lon="6.37346">
        <ele>1863</ele>
        <time>2021-09-01T09:46:47.000Z</time>
      </trkpt>
      <trkpt lat="44.41584" lon="6.37346">
        <ele>1863</ele>
        <time>2021-09-01T09:46:48.000Z</time>
      </trkpt>
      <trkpt lat="44.41584" lon="6.37347">
        <ele>1863</ele>
        <time>2021-09-01T09:46:49.000Z</time>
      </trkpt>
      <trkpt lat="44.41584" lon="6.37346">
        <ele>1863</ele>
        <time>2021-09-01T09:46:50.000Z</time>
      </trkpt>
      <trkpt lat="44.41583" lon="6.37346">
        <ele>1863</ele>
        <time>2021-09-01T09:46:51.000Z</time>
      </trkpt>
      <trkpt lat="44.41583" lon="6.37346">
        <ele>1862</ele>
        <time>2021-09-01T09:46:52.000Z</time>
      </trkpt>
      <trkpt lat="44.41583" lon="6.37346">
        <ele>1861</ele>
        <time>2021-09-01T09:46:53.000Z</time>
      </trkpt>
      <trkpt lat="44.41583" lon="6.37347">
        <ele>1860</ele>
        <time>2021-09-01T09:46:54.000Z</time>
      </trkpt>
      <trkpt lat="44.41583" lon="6.37347">
        <ele>1859</ele>
        <time>2021-09-01T09:46:55.000Z</time>
      </trkpt>
      <trkpt lat="44.41583" lon="6.37346">
        <ele>1859</ele>
        <time>2021-09-01T09:46:56.000Z</time>
      </trkpt>
      <trkpt lat="44.41583" lon="6.37346">
        <ele>1858</ele>
        <time>2021-09-01T09:46:57.000Z</time>
      </trkpt>
      <trkpt lat="44.41583" lon="6.37346">
        <ele>1858</ele>
        <time>2021-09-01T09:46:58.000Z</time>
      </trkpt>
      <trkpt lat="44.41582" lon="6.37346">
        <ele>1857</ele>
        <time>2021-09-01T09:46:59.000Z</time>
      </trkpt>
      <trkpt lat="44.41582" lon="6.37346">
        <ele>1857</ele>
        <time>2021-09-01T09:47:00.000Z</time>
      </trkpt>
      <trkpt lat="44.41582" lon="6.37346">
        <ele>1857</ele>
        <time>2021-09-01T09:47:01.000Z</time>
      </trkpt>
      <trkpt lat="44.41582" lon="6.37346">
        <ele>1858</ele>
        <time>2021-09-01T09:47:02.000Z</time>
      </trkpt>
      <trkpt lat="44.41582" lon="6.37346">
        <ele>1859</ele>
        <time>2021-09-01T09:47:03.000Z</time>
      </trkpt>
      <trkpt lat="44.41582" lon="6.37346">
        <ele>1859</ele>
        <time>2021-09-01T09:47:04.000Z</time>
      </trkpt>
      <trkpt lat="44.41582" lon="6.37346">
        <ele>1859</ele>
        <time>2021-09-01T09:47:05.000Z</time>
      </trkpt>
      <trkpt lat="44.41583" lon="6.37346">
        <ele>1860</ele>
        <time>2021-09-01T09:47:06.000Z</time>
      </trkpt>
      <trkpt lat="44.41583" lon="6.37346">
        <ele>1860</ele>
        <time>2021-09-01T09:47:07.000Z</time>
      </trkpt>
      <trkpt lat="44.41583" lon="6.37346">
        <ele>1860</ele>
        <time>2021-09-01T09:47:08.000Z</time>
      </trkpt>
      <trkpt lat="44.41583" lon="6.37346">
        <ele>1860</ele>
        <time>2021-09-01T09:47:09.000Z</time>
      </trkpt>
      <trkpt lat="44.41583" lon="6.37346">
        <ele>1860</ele>
        <time>2021-09-01T09:47:10.000Z</time>
      </trkpt>
      <trkpt lat="44.41583" lon="6.37346">
        <ele>1860</ele>
        <time>2021-09-01T09:47:11.000Z</time>
      </trkpt>
      <trkpt lat="44.41583" lon="6.37346">
        <ele>1860</ele>
        <time>2021-09-01T09:47:12.000Z</time>
      </trkpt>
      <trkpt lat="44.41583" lon="6.37346">
        <ele>1860</ele>
        <time>2021-09-01T09:47:13.000Z</time>
      </trkpt>
      <trkpt lat="44.41583" lon="6.37346">
        <ele>1861</ele>
        <time>2021-09-01T09:47:14.000Z</time>
      </trkpt>
      <trkpt lat="44.41583" lon="6.37345">
        <ele>1861</ele>
        <time>2021-09-01T09:47:15.000Z</time>
      </trkpt>
      <trkpt lat="44.41583" lon="6.37345">
        <ele>1861</ele>
        <time>2021-09-01T09:47:16.000Z</time>
      </trkpt>
      <trkpt lat="44.41583" lon="6.37345">
        <ele>1861</ele>
        <time>2021-09-01T09:47:17.000Z</time>
      </trkpt>
      <trkpt lat="44.41583" lon="6.37345">
        <ele>1861</ele>
        <time>2021-09-01T09:47:18.000Z</time>
      </trkpt>
      <trkpt lat="44.41582" lon="6.37345">
        <ele>1861</ele>
        <time>2021-09-01T09:47:19.000Z</time>
      </trkpt>
      <trkpt lat="44.41582" lon="6.37345">
        <ele>1861</ele>
        <time>2021-09-01T09:47:20.000Z</time>
      </trkpt>
      <trkpt lat="44.41581" lon="6.37345">
        <ele>1861</ele>
        <time>2021-09-01T09:47:21.000Z</time>
      </trkpt>
      <trkpt lat="44.41581" lon="6.37345">
        <ele>1861</ele>
        <time>2021-09-01T09:47:22.000Z</time>
      </trkpt>
      <trkpt lat="44.41581" lon="6.37345">
        <ele>1861</ele>
        <time>2021-09-01T09:47:23.000Z</time>
      </trkpt>
      <trkpt lat="44.4158" lon="6.37345">
        <ele>1861</ele>
        <time>2021-09-01T09:47:24.000Z</time>
      </trkpt>
      <trkpt lat="44.41579" lon="6.37345">
        <ele>1861</ele>
        <time>2021-09-01T09:47:25.000Z</time>
      </trkpt>
      <trkpt lat="44.41579" lon="6.37345">
        <ele>1861</ele>
        <time>2021-09-01T09:47:26.000Z</time>
      </trkpt>
      <trkpt lat="44.41578" lon="6.37345">
        <ele>1861</ele>
        <time>2021-09-01T09:47:27.000Z</time>
      </trkpt>
      <trkpt lat="44.41577" lon="6.37345">
        <ele>1861</ele>
        <time>2021-09-01T09:47:28.000Z</time>
      </trkpt>
      <trkpt lat="44.41576" lon="6.37345">
        <ele>1861</ele>
        <time>2021-09-01T09:47:29.000Z</time>
      </trkpt>
      <trkpt lat="44.41575" lon="6.37345">
        <ele>1861</ele>
        <time>2021-09-01T09:47:30.000Z</time>
      </trkpt>
      <trkpt lat="44.41574" lon="6.37346">
        <ele>1862</ele>
        <time>2021-09-01T09:47:31.000Z</time>
      </trkpt>
      <trkpt lat="44.41573" lon="6.37346">
        <ele>1861</ele>
        <time>2021-09-01T09:47:32.000Z</time>
      </trkpt>
      <trkpt lat="44.41572" lon="6.37345">
        <ele>1862</ele>
        <time>2021-09-01T09:47:33.000Z</time>
      </trkpt>
      <trkpt lat="44.41571" lon="6.37345">
        <ele>1862</ele>
        <time>2021-09-01T09:47:34.000Z</time>
      </trkpt>
      <trkpt lat="44.4157" lon="6.37345">
        <ele>1862</ele>
        <time>2021-09-01T09:47:35.000Z</time>
      </trkpt>
      <trkpt lat="44.41569" lon="6.37345">
        <ele>1862</ele>
        <time>2021-09-01T09:47:36.000Z</time>
      </trkpt>
      <trkpt lat="44.41568" lon="6.37345">
        <ele>1862</ele>
        <time>2021-09-01T09:47:37.000Z</time>
      </trkpt>
      <trkpt lat="44.41567" lon="6.37345">
        <ele>1862</ele>
        <time>2021-09-01T09:47:38.000Z</time>
      </trkpt>
      <trkpt lat="44.41567" lon="6.37344">
        <ele>1862</ele>
        <time>2021-09-01T09:47:39.000Z</time>
      </trkpt>
      <trkpt lat="44.41566" lon="6.37344">
        <ele>1863</ele>
        <time>2021-09-01T09:47:40.000Z</time>
      </trkpt>
      <trkpt lat="44.41565" lon="6.37344">
        <ele>1863</ele>
        <time>2021-09-01T09:47:41.000Z</time>
      </trkpt>
      <trkpt lat="44.41564" lon="6.37344">
        <ele>1863</ele>
        <time>2021-09-01T09:47:42.000Z</time>
      </trkpt>
      <trkpt lat="44.41563" lon="6.37343">
        <ele>1863</ele>
        <time>2021-09-01T09:47:43.000Z</time>
      </trkpt>
      <trkpt lat="44.41562" lon="6.37343">
        <ele>1864</ele>
        <time>2021-09-01T09:47:44.000Z</time>
      </trkpt>
      <trkpt lat="44.41561" lon="6.37343">
        <ele>1863</ele>
        <time>2021-09-01T09:47:45.000Z</time>
      </trkpt>
      <trkpt lat="44.4156" lon="6.37343">
        <ele>1863</ele>
        <time>2021-09-01T09:47:46.000Z</time>
      </trkpt>
      <trkpt lat="44.4156" lon="6.37343">
        <ele>1864</ele>
        <time>2021-09-01T09:47:47.000Z</time>
      </trkpt>
      <trkpt lat="44.4156" lon="6.37343">
        <ele>1864</ele>
        <time>2021-09-01T09:47:48.000Z</time>
      </trkpt>
      <trkpt lat="44.41559" lon="6.37343">
        <ele>1864</ele>
        <time>2021-09-01T09:47:49.000Z</time>
      </trkpt>
      <trkpt lat="44.41559" lon="6.37343">
        <ele>1864</ele>
        <time>2021-09-01T09:47:50.000Z</time>
      </trkpt>
      <trkpt lat="44.41559" lon="6.37343">
        <ele>1864</ele>
        <time>2021-09-01T09:47:51.000Z</time>
      </trkpt>
      <trkpt lat="44.41559" lon="6.37343">
        <ele>1864</ele>
        <time>2021-09-01T09:47:52.000Z</time>
      </trkpt>
      <trkpt lat="44.41559" lon="6.37343">
        <ele>1865</ele>
        <time>2021-09-01T09:47:53.000Z</time>
      </trkpt>
      <trkpt lat="44.41558" lon="6.37342">
        <ele>1865</ele>
        <time>2021-09-01T09:47:54.000Z</time>
      </trkpt>
      <trkpt lat="44.41558" lon="6.37342">
        <ele>1865</ele>
        <time>2021-09-01T09:47:55.000Z</time>
      </trkpt>
      <trkpt lat="44.41558" lon="6.37342">
        <ele>1865</ele>
        <time>2021-09-01T09:47:56.000Z</time>
      </trkpt>
      <trkpt lat="44.41558" lon="6.37342">
        <ele>1865</ele>
        <time>2021-09-01T09:47:57.000Z</time>
      </trkpt>
      <trkpt lat="44.41558" lon="6.37342">
        <ele>1864</ele>
        <time>2021-09-01T09:47:58.000Z</time>
      </trkpt>
      <trkpt lat="44.41558" lon="6.37342">
        <ele>1865</ele>
        <time>2021-09-01T09:47:59.000Z</time>
      </trkpt>
      <trkpt lat="44.41558" lon="6.37342">
        <ele>1865</ele>
        <time>2021-09-01T09:48:00.000Z</time>
      </trkpt>
      <trkpt lat="44.41558" lon="6.37342">
        <ele>1864</ele>
        <time>2021-09-01T09:48:01.000Z</time>
      </trkpt>
      <trkpt lat="44.41557" lon="6.37341">
        <ele>1865</ele>
        <time>2021-09-01T09:48:02.000Z</time>
      </trkpt>
      <trkpt lat="44.41556" lon="6.37342">
        <ele>1865</ele>
        <time>2021-09-01T09:48:03.000Z</time>
      </trkpt>
      <trkpt lat="44.41555" lon="6.37342">
        <ele>1865</ele>
        <time>2021-09-01T09:48:04.000Z</time>
      </trkpt>
      <trkpt lat="44.41553" lon="6.37342">
        <ele>1865</ele>
        <time>2021-09-01T09:48:05.000Z</time>
      </trkpt>
      <trkpt lat="44.41551" lon="6.37341">
        <ele>1865</ele>
        <time>2021-09-01T09:48:06.000Z</time>
      </trkpt>
      <trkpt lat="44.4155" lon="6.37341">
        <ele>1865</ele>
        <time>2021-09-01T09:48:07.000Z</time>
      </trkpt>
      <trkpt lat="44.41548" lon="6.3734">
        <ele>1865</ele>
        <time>2021-09-01T09:48:08.000Z</time>
      </trkpt>
      <trkpt lat="44.41546" lon="6.37341">
        <ele>1865</ele>
        <time>2021-09-01T09:48:09.000Z</time>
      </trkpt>
      <trkpt lat="44.41545" lon="6.37341">
        <ele>1865</ele>
        <time>2021-09-01T09:48:10.000Z</time>
      </trkpt>
      <trkpt lat="44.41543" lon="6.37341">
        <ele>1865</ele>
        <time>2021-09-01T09:48:11.000Z</time>
      </trkpt>
      <trkpt lat="44.41541" lon="6.37342">
        <ele>1865</ele>
        <time>2021-09-01T09:48:12.000Z</time>
      </trkpt>
      <trkpt lat="44.4154" lon="6.37342">
        <ele>1865</ele>
        <time>2021-09-01T09:48:13.000Z</time>
      </trkpt>
      <trkpt lat="44.41538" lon="6.37343">
        <ele>1865</ele>
        <time>2021-09-01T09:48:14.000Z</time>
      </trkpt>
      <trkpt lat="44.41537" lon="6.37343">
        <ele>1866</ele>
        <time>2021-09-01T09:48:15.000Z</time>
      </trkpt>
      <trkpt lat="44.41535" lon="6.37344">
        <ele>1866</ele>
        <time>2021-09-01T09:48:16.000Z</time>
      </trkpt>
      <trkpt lat="44.41534" lon="6.37344">
        <ele>1866</ele>
        <time>2021-09-01T09:48:17.000Z</time>
      </trkpt>
      <trkpt lat="44.41532" lon="6.37346">
        <ele>1866</ele>
        <time>2021-09-01T09:48:18.000Z</time>
      </trkpt>
      <trkpt lat="44.4153" lon="6.37347">
        <ele>1866</ele>
        <time>2021-09-01T09:48:19.000Z</time>
      </trkpt>
      <trkpt lat="44.41529" lon="6.37347">
        <ele>1866</ele>
        <time>2021-09-01T09:48:20.000Z</time>
      </trkpt>
      <trkpt lat="44.41527" lon="6.37348">
        <ele>1866</ele>
        <time>2021-09-01T09:48:21.000Z</time>
      </trkpt>
      <trkpt lat="44.41526" lon="6.37349">
        <ele>1866</ele>
        <time>2021-09-01T09:48:22.000Z</time>
      </trkpt>
      <trkpt lat="44.41524" lon="6.3735">
        <ele>1866</ele>
        <time>2021-09-01T09:48:23.000Z</time>
      </trkpt>
      <trkpt lat="44.41522" lon="6.37351">
        <ele>1866</ele>
        <time>2021-09-01T09:48:24.000Z</time>
      </trkpt>
      <trkpt lat="44.41521" lon="6.37352">
        <ele>1867</ele>
        <time>2021-09-01T09:48:25.000Z</time>
      </trkpt>
      <trkpt lat="44.41519" lon="6.37353">
        <ele>1867</ele>
        <time>2021-09-01T09:48:26.000Z</time>
      </trkpt>
      <trkpt lat="44.41517" lon="6.37354">
        <ele>1867</ele>
        <time>2021-09-01T09:48:27.000Z</time>
      </trkpt>
      <trkpt lat="44.41516" lon="6.37356">
        <ele>1867</ele>
        <time>2021-09-01T09:48:28.000Z</time>
      </trkpt>
      <trkpt lat="44.41514" lon="6.37357">
        <ele>1867</ele>
        <time>2021-09-01T09:48:29.000Z</time>
      </trkpt>
      <trkpt lat="44.41513" lon="6.37358">
        <ele>1867</ele>
        <time>2021-09-01T09:48:30.000Z</time>
      </trkpt>
      <trkpt lat="44.41511" lon="6.37359">
        <ele>1867</ele>
        <time>2021-09-01T09:48:31.000Z</time>
      </trkpt>
      <trkpt lat="44.41509" lon="6.3736">
        <ele>1868</ele>
        <time>2021-09-01T09:48:32.000Z</time>
      </trkpt>
      <trkpt lat="44.41508" lon="6.37362">
        <ele>1868</ele>
        <time>2021-09-01T09:48:33.000Z</time>
      </trkpt>
      <trkpt lat="44.41507" lon="6.37363">
        <ele>1867</ele>
        <time>2021-09-01T09:48:34.000Z</time>
      </trkpt>
      <trkpt lat="44.41505" lon="6.37364">
        <ele>1867</ele>
        <time>2021-09-01T09:48:35.000Z</time>
      </trkpt>
      <trkpt lat="44.41503" lon="6.37365">
        <ele>1867</ele>
        <time>2021-09-01T09:48:36.000Z</time>
      </trkpt>
      <trkpt lat="44.41502" lon="6.37367">
        <ele>1867</ele>
        <time>2021-09-01T09:48:37.000Z</time>
      </trkpt>
      <trkpt lat="44.415" lon="6.37368">
        <ele>1867</ele>
        <time>2021-09-01T09:48:38.000Z</time>
      </trkpt>
      <trkpt lat="44.41499" lon="6.3737">
        <ele>1867</ele>
        <time>2021-09-01T09:48:39.000Z</time>
      </trkpt>
      <trkpt lat="44.41497" lon="6.37372">
        <ele>1867</ele>
        <time>2021-09-01T09:48:40.000Z</time>
      </trkpt>
      <trkpt lat="44.41496" lon="6.37373">
        <ele>1867</ele>
        <time>2021-09-01T09:48:41.000Z</time>
      </trkpt>
      <trkpt lat="44.41495" lon="6.37375">
        <ele>1867</ele>
        <time>2021-09-01T09:48:42.000Z</time>
      </trkpt>
      <trkpt lat="44.41494" lon="6.37377">
        <ele>1867</ele>
        <time>2021-09-01T09:48:43.000Z</time>
      </trkpt>
      <trkpt lat="44.41492" lon="6.37378">
        <ele>1867</ele>
        <time>2021-09-01T09:48:44.000Z</time>
      </trkpt>
      <trkpt lat="44.41491" lon="6.3738">
        <ele>1867</ele>
        <time>2021-09-01T09:48:45.000Z</time>
      </trkpt>
      <trkpt lat="44.4149" lon="6.37381">
        <ele>1866</ele>
        <time>2021-09-01T09:48:46.000Z</time>
      </trkpt>
      <trkpt lat="44.41488" lon="6.37382">
        <ele>1866</ele>
        <time>2021-09-01T09:48:47.000Z</time>
      </trkpt>
      <trkpt lat="44.41487" lon="6.37384">
        <ele>1866</ele>
        <time>2021-09-01T09:48:48.000Z</time>
      </trkpt>
      <trkpt lat="44.41486" lon="6.37385">
        <ele>1867</ele>
        <time>2021-09-01T09:48:49.000Z</time>
      </trkpt>
      <trkpt lat="44.41485" lon="6.37386">
        <ele>1867</ele>
        <time>2021-09-01T09:48:50.000Z</time>
      </trkpt>
      <trkpt lat="44.41483" lon="6.37386">
        <ele>1868</ele>
        <time>2021-09-01T09:48:51.000Z</time>
      </trkpt>
      <trkpt lat="44.41482" lon="6.37387">
        <ele>1868</ele>
        <time>2021-09-01T09:48:52.000Z</time>
      </trkpt>
      <trkpt lat="44.4148" lon="6.37387">
        <ele>1867</ele>
        <time>2021-09-01T09:48:53.000Z</time>
      </trkpt>
      <trkpt lat="44.41479" lon="6.37388">
        <ele>1867</ele>
        <time>2021-09-01T09:48:54.000Z</time>
      </trkpt>
      <trkpt lat="44.41477" lon="6.37389">
        <ele>1867</ele>
        <time>2021-09-01T09:48:55.000Z</time>
      </trkpt>
      <trkpt lat="44.41475" lon="6.37389">
        <ele>1867</ele>
        <time>2021-09-01T09:48:56.000Z</time>
      </trkpt>
      <trkpt lat="44.41473" lon="6.37389">
        <ele>1867</ele>
        <time>2021-09-01T09:48:57.000Z</time>
      </trkpt>
      <trkpt lat="44.41471" lon="6.3739">
        <ele>1866</ele>
        <time>2021-09-01T09:48:58.000Z</time>
      </trkpt>
      <trkpt lat="44.4147" lon="6.37389">
        <ele>1867</ele>
        <time>2021-09-01T09:48:59.000Z</time>
      </trkpt>
      <trkpt lat="44.41467" lon="6.37389">
        <ele>1867</ele>
        <time>2021-09-01T09:49:00.000Z</time>
      </trkpt>
      <trkpt lat="44.41466" lon="6.3739">
        <ele>1867</ele>
        <time>2021-09-01T09:49:01.000Z</time>
      </trkpt>
      <trkpt lat="44.41464" lon="6.3739">
        <ele>1867</ele>
        <time>2021-09-01T09:49:02.000Z</time>
      </trkpt>
      <trkpt lat="44.41462" lon="6.3739">
        <ele>1867</ele>
        <time>2021-09-01T09:49:03.000Z</time>
      </trkpt>
      <trkpt lat="44.41461" lon="6.3739">
        <ele>1867</ele>
        <time>2021-09-01T09:49:04.000Z</time>
      </trkpt>
      <trkpt lat="44.41459" lon="6.3739">
        <ele>1867</ele>
        <time>2021-09-01T09:49:05.000Z</time>
      </trkpt>
      <trkpt lat="44.41458" lon="6.3739">
        <ele>1867</ele>
        <time>2021-09-01T09:49:06.000Z</time>
      </trkpt>
      <trkpt lat="44.41456" lon="6.3739">
        <ele>1867</ele>
        <time>2021-09-01T09:49:07.000Z</time>
      </trkpt>
      <trkpt lat="44.41454" lon="6.3739">
        <ele>1867</ele>
        <time>2021-09-01T09:49:08.000Z</time>
      </trkpt>
      <trkpt lat="44.41452" lon="6.3739">
        <ele>1867</ele>
        <time>2021-09-01T09:49:09.000Z</time>
      </trkpt>
      <trkpt lat="44.4145" lon="6.3739">
        <ele>1867</ele>
        <time>2021-09-01T09:49:10.000Z</time>
      </trkpt>
      <trkpt lat="44.41449" lon="6.3739">
        <ele>1867</ele>
        <time>2021-09-01T09:49:11.000Z</time>
      </trkpt>
      <trkpt lat="44.41447" lon="6.3739">
        <ele>1867</ele>
        <time>2021-09-01T09:49:12.000Z</time>
      </trkpt>
      <trkpt lat="44.41445" lon="6.37391">
        <ele>1867</ele>
        <time>2021-09-01T09:49:13.000Z</time>
      </trkpt>
      <trkpt lat="44.41444" lon="6.3739">
        <ele>1867</ele>
        <time>2021-09-01T09:49:14.000Z</time>
      </trkpt>
      <trkpt lat="44.41442" lon="6.3739">
        <ele>1868</ele>
        <time>2021-09-01T09:49:15.000Z</time>
      </trkpt>
      <trkpt lat="44.41441" lon="6.3739">
        <ele>1868</ele>
        <time>2021-09-01T09:49:16.000Z</time>
      </trkpt>
      <trkpt lat="44.41439" lon="6.37389">
        <ele>1868</ele>
        <time>2021-09-01T09:49:17.000Z</time>
      </trkpt>
      <trkpt lat="44.41437" lon="6.37389">
        <ele>1868</ele>
        <time>2021-09-01T09:49:18.000Z</time>
      </trkpt>
      <trkpt lat="44.41436" lon="6.3739">
        <ele>1869</ele>
        <time>2021-09-01T09:49:19.000Z</time>
      </trkpt>
      <trkpt lat="44.41434" lon="6.3739">
        <ele>1868</ele>
        <time>2021-09-01T09:49:20.000Z</time>
      </trkpt>
      <trkpt lat="44.41432" lon="6.37389">
        <ele>1869</ele>
        <time>2021-09-01T09:49:21.000Z</time>
      </trkpt>
      <trkpt lat="44.4143" lon="6.37388">
        <ele>1870</ele>
        <time>2021-09-01T09:49:22.000Z</time>
      </trkpt>
      <trkpt lat="44.41428" lon="6.37388">
        <ele>1870</ele>
        <time>2021-09-01T09:49:23.000Z</time>
      </trkpt>
      <trkpt lat="44.41427" lon="6.37388">
        <ele>1870</ele>
        <time>2021-09-01T09:49:24.000Z</time>
      </trkpt>
      <trkpt lat="44.41425" lon="6.37388">
        <ele>1870</ele>
        <time>2021-09-01T09:49:25.000Z</time>
      </trkpt>
      <trkpt lat="44.41423" lon="6.37388">
        <ele>1870</ele>
        <time>2021-09-01T09:49:26.000Z</time>
      </trkpt>
      <trkpt lat="44.41422" lon="6.37387">
        <ele>1870</ele>
        <time>2021-09-01T09:49:27.000Z</time>
      </trkpt>
      <trkpt lat="44.4142" lon="6.37387">
        <ele>1870</ele>
        <time>2021-09-01T09:49:28.000Z</time>
      </trkpt>
      <trkpt lat="44.41418" lon="6.37387">
        <ele>1870</ele>
        <time>2021-09-01T09:49:29.000Z</time>
      </trkpt>
      <trkpt lat="44.41417" lon="6.37387">
        <ele>1870</ele>
        <time>2021-09-01T09:49:30.000Z</time>
      </trkpt>
      <trkpt lat="44.41415" lon="6.37386">
        <ele>1870</ele>
        <time>2021-09-01T09:49:31.000Z</time>
      </trkpt>
      <trkpt lat="44.41414" lon="6.37386">
        <ele>1870</ele>
        <time>2021-09-01T09:49:32.000Z</time>
      </trkpt>
      <trkpt lat="44.41412" lon="6.37386">
        <ele>1869</ele>
        <time>2021-09-01T09:49:33.000Z</time>
      </trkpt>
      <trkpt lat="44.41411" lon="6.37387">
        <ele>1869</ele>
        <time>2021-09-01T09:49:34.000Z</time>
      </trkpt>
      <trkpt lat="44.41409" lon="6.37387">
        <ele>1869</ele>
        <time>2021-09-01T09:49:35.000Z</time>
      </trkpt>
      <trkpt lat="44.41408" lon="6.37388">
        <ele>1869</ele>
        <time>2021-09-01T09:49:36.000Z</time>
      </trkpt>
      <trkpt lat="44.41406" lon="6.37388">
        <ele>1869</ele>
        <time>2021-09-01T09:49:37.000Z</time>
      </trkpt>
      <trkpt lat="44.41405" lon="6.37388">
        <ele>1869</ele>
        <time>2021-09-01T09:49:38.000Z</time>
      </trkpt>
      <trkpt lat="44.41403" lon="6.37388">
        <ele>1870</ele>
        <time>2021-09-01T09:49:39.000Z</time>
      </trkpt>
      <trkpt lat="44.41401" lon="6.37388">
        <ele>1870</ele>
        <time>2021-09-01T09:49:40.000Z</time>
      </trkpt>
      <trkpt lat="44.414" lon="6.37387">
        <ele>1870</ele>
        <time>2021-09-01T09:49:41.000Z</time>
      </trkpt>
      <trkpt lat="44.41398" lon="6.37387">
        <ele>1869</ele>
        <time>2021-09-01T09:49:42.000Z</time>
      </trkpt>
      <trkpt lat="44.41396" lon="6.37386">
        <ele>1869</ele>
        <time>2021-09-01T09:49:43.000Z</time>
      </trkpt>
      <trkpt lat="44.41395" lon="6.37385">
        <ele>1869</ele>
        <time>2021-09-01T09:49:44.000Z</time>
      </trkpt>
      <trkpt lat="44.41393" lon="6.37384">
        <ele>1868</ele>
        <time>2021-09-01T09:49:45.000Z</time>
      </trkpt>
      <trkpt lat="44.41392" lon="6.37383">
        <ele>1868</ele>
        <time>2021-09-01T09:49:46.000Z</time>
      </trkpt>
      <trkpt lat="44.4139" lon="6.37382">
        <ele>1868</ele>
        <time>2021-09-01T09:49:47.000Z</time>
      </trkpt>
      <trkpt lat="44.41389" lon="6.37381">
        <ele>1869</ele>
        <time>2021-09-01T09:49:48.000Z</time>
      </trkpt>
      <trkpt lat="44.41387" lon="6.3738">
        <ele>1869</ele>
        <time>2021-09-01T09:49:49.000Z</time>
      </trkpt>
      <trkpt lat="44.41386" lon="6.37379">
        <ele>1869</ele>
        <time>2021-09-01T09:49:50.000Z</time>
      </trkpt>
      <trkpt lat="44.41385" lon="6.37379">
        <ele>1868</ele>
        <time>2021-09-01T09:49:51.000Z</time>
      </trkpt>
      <trkpt lat="44.41383" lon="6.37379">
        <ele>1868</ele>
        <time>2021-09-01T09:49:52.000Z</time>
      </trkpt>
      <trkpt lat="44.41382" lon="6.37378">
        <ele>1868</ele>
        <time>2021-09-01T09:49:53.000Z</time>
      </trkpt>
      <trkpt lat="44.4138" lon="6.37377">
        <ele>1869</ele>
        <time>2021-09-01T09:49:54.000Z</time>
      </trkpt>
      <trkpt lat="44.41378" lon="6.37378">
        <ele>1869</ele>
        <time>2021-09-01T09:49:55.000Z</time>
      </trkpt>
      <trkpt lat="44.41377" lon="6.37377">
        <ele>1868</ele>
        <time>2021-09-01T09:49:56.000Z</time>
      </trkpt>
      <trkpt lat="44.41375" lon="6.37378">
        <ele>1868</ele>
        <time>2021-09-01T09:49:57.000Z</time>
      </trkpt>
      <trkpt lat="44.41374" lon="6.37378">
        <ele>1868</ele>
        <time>2021-09-01T09:49:58.000Z</time>
      </trkpt>
      <trkpt lat="44.41372" lon="6.37378">
        <ele>1867</ele>
        <time>2021-09-01T09:49:59.000Z</time>
      </trkpt>
      <trkpt lat="44.4137" lon="6.37378">
        <ele>1867</ele>
        <time>2021-09-01T09:50:00.000Z</time>
      </trkpt>
      <trkpt lat="44.41369" lon="6.37378">
        <ele>1867</ele>
        <time>2021-09-01T09:50:01.000Z</time>
      </trkpt>
      <trkpt lat="44.41367" lon="6.37378">
        <ele>1868</ele>
        <time>2021-09-01T09:50:02.000Z</time>
      </trkpt>
      <trkpt lat="44.41366" lon="6.37378">
        <ele>1868</ele>
        <time>2021-09-01T09:50:03.000Z</time>
      </trkpt>
      <trkpt lat="44.41365" lon="6.37378">
        <ele>1868</ele>
        <time>2021-09-01T09:50:04.000Z</time>
      </trkpt>
      <trkpt lat="44.41365" lon="6.37377">
        <ele>1869</ele>
        <time>2021-09-01T09:50:05.000Z</time>
      </trkpt>
      <trkpt lat="44.41364" lon="6.37377">
        <ele>1869</ele>
        <time>2021-09-01T09:50:06.000Z</time>
      </trkpt>
      <trkpt lat="44.41364" lon="6.37377">
        <ele>1869</ele>
        <time>2021-09-01T09:50:07.000Z</time>
      </trkpt>
      <trkpt lat="44.41363" lon="6.37377">
        <ele>1869</ele>
        <time>2021-09-01T09:50:08.000Z</time>
      </trkpt>
      <trkpt lat="44.41363" lon="6.37376">
        <ele>1870</ele>
        <time>2021-09-01T09:50:09.000Z</time>
      </trkpt>
      <trkpt lat="44.41362" lon="6.37376">
        <ele>1870</ele>
        <time>2021-09-01T09:50:10.000Z</time>
      </trkpt>
      <trkpt lat="44.41362" lon="6.37375">
        <ele>1871</ele>
        <time>2021-09-01T09:50:11.000Z</time>
      </trkpt>
      <trkpt lat="44.41362" lon="6.37375">
        <ele>1871</ele>
        <time>2021-09-01T09:50:12.000Z</time>
      </trkpt>
      <trkpt lat="44.41361" lon="6.37375">
        <ele>1871</ele>
        <time>2021-09-01T09:50:13.000Z</time>
      </trkpt>
      <trkpt lat="44.4136" lon="6.37374">
        <ele>1871</ele>
        <time>2021-09-01T09:50:14.000Z</time>
      </trkpt>
      <trkpt lat="44.4136" lon="6.37374">
        <ele>1871</ele>
        <time>2021-09-01T09:50:15.000Z</time>
      </trkpt>
      <trkpt lat="44.4136" lon="6.37374">
        <ele>1871</ele>
        <time>2021-09-01T09:50:16.000Z</time>
      </trkpt>
      <trkpt lat="44.4136" lon="6.37373">
        <ele>1872</ele>
        <time>2021-09-01T09:50:17.000Z</time>
      </trkpt>
      <trkpt lat="44.4136" lon="6.37373">
        <ele>1872</ele>
        <time>2021-09-01T09:50:18.000Z</time>
      </trkpt>
      <trkpt lat="44.41359" lon="6.37373">
        <ele>1872</ele>
        <time>2021-09-01T09:50:19.000Z</time>
      </trkpt>
      <trkpt lat="44.41359" lon="6.37373">
        <ele>1872</ele>
        <time>2021-09-01T09:50:20.000Z</time>
      </trkpt>
      <trkpt lat="44.41358" lon="6.37372">
        <ele>1872</ele>
        <time>2021-09-01T09:50:21.000Z</time>
      </trkpt>
      <trkpt lat="44.41358" lon="6.37371">
        <ele>1872</ele>
        <time>2021-09-01T09:50:22.000Z</time>
      </trkpt>
      <trkpt lat="44.41358" lon="6.37371">
        <ele>1872</ele>
        <time>2021-09-01T09:50:23.000Z</time>
      </trkpt>
      <trkpt lat="44.41359" lon="6.37372">
        <ele>1871</ele>
        <time>2021-09-01T09:50:24.000Z</time>
      </trkpt>
      <trkpt lat="44.41358" lon="6.37371">
        <ele>1871</ele>
        <time>2021-09-01T09:50:25.000Z</time>
      </trkpt>
      <trkpt lat="44.41357" lon="6.3737">
        <ele>1873</ele>
        <time>2021-09-01T09:50:26.000Z</time>
      </trkpt>
      <trkpt lat="44.41357" lon="6.37369">
        <ele>1873</ele>
        <time>2021-09-01T09:50:27.000Z</time>
      </trkpt>
      <trkpt lat="44.41357" lon="6.37369">
        <ele>1873</ele>
        <time>2021-09-01T09:50:28.000Z</time>
      </trkpt>
      <trkpt lat="44.41357" lon="6.37369">
        <ele>1874</ele>
        <time>2021-09-01T09:50:29.000Z</time>
      </trkpt>
      <trkpt lat="44.41357" lon="6.37369">
        <ele>1874</ele>
        <time>2021-09-01T09:50:30.000Z</time>
      </trkpt>
      <trkpt lat="44.41357" lon="6.37368">
        <ele>1874</ele>
        <time>2021-09-01T09:50:31.000Z</time>
      </trkpt>
      <trkpt lat="44.41357" lon="6.37368">
        <ele>1874</ele>
        <time>2021-09-01T09:50:32.000Z</time>
      </trkpt>
      <trkpt lat="44.41357" lon="6.37367">
        <ele>1875</ele>
        <time>2021-09-01T09:50:33.000Z</time>
      </trkpt>
      <trkpt lat="44.41356" lon="6.37368">
        <ele>1874</ele>
        <time>2021-09-01T09:50:34.000Z</time>
      </trkpt>
      <trkpt lat="44.41355" lon="6.37368">
        <ele>1875</ele>
        <time>2021-09-01T09:50:35.000Z</time>
      </trkpt>
      <trkpt lat="44.41354" lon="6.37368">
        <ele>1876</ele>
        <time>2021-09-01T09:50:36.000Z</time>
      </trkpt>
      <trkpt lat="44.41353" lon="6.37368">
        <ele>1876</ele>
        <time>2021-09-01T09:50:37.000Z</time>
      </trkpt>
      <trkpt lat="44.41353" lon="6.37368">
        <ele>1876</ele>
        <time>2021-09-01T09:50:38.000Z</time>
      </trkpt>
      <trkpt lat="44.41352" lon="6.37369">
        <ele>1876</ele>
        <time>2021-09-01T09:50:39.000Z</time>
      </trkpt>
      <trkpt lat="44.41352" lon="6.37369">
        <ele>1876</ele>
        <time>2021-09-01T09:50:40.000Z</time>
      </trkpt>
      <trkpt lat="44.41352" lon="6.37369">
        <ele>1877</ele>
        <time>2021-09-01T09:50:41.000Z</time>
      </trkpt>
      <trkpt lat="44.41351" lon="6.3737">
        <ele>1876</ele>
        <time>2021-09-01T09:50:42.000Z</time>
      </trkpt>
      <trkpt lat="44.41351" lon="6.3737">
        <ele>1876</ele>
        <time>2021-09-01T09:50:43.000Z</time>
      </trkpt>
      <trkpt lat="44.4135" lon="6.3737">
        <ele>1877</ele>
        <time>2021-09-01T09:50:44.000Z</time>
      </trkpt>
      <trkpt lat="44.4135" lon="6.3737">
        <ele>1877</ele>
        <time>2021-09-01T09:50:45.000Z</time>
      </trkpt>
      <trkpt lat="44.4135" lon="6.3737">
        <ele>1877</ele>
        <time>2021-09-01T09:50:46.000Z</time>
      </trkpt>
      <trkpt lat="44.4135" lon="6.3737">
        <ele>1877</ele>
        <time>2021-09-01T09:50:47.000Z</time>
      </trkpt>
      <trkpt lat="44.4135" lon="6.3737">
        <ele>1877</ele>
        <time>2021-09-01T09:50:48.000Z</time>
      </trkpt>
      <trkpt lat="44.4135" lon="6.37371">
        <ele>1878</ele>
        <time>2021-09-01T09:50:49.000Z</time>
      </trkpt>
      <trkpt lat="44.41349" lon="6.3737">
        <ele>1878</ele>
        <time>2021-09-01T09:50:50.000Z</time>
      </trkpt>
      <trkpt lat="44.41349" lon="6.3737">
        <ele>1879</ele>
        <time>2021-09-01T09:50:51.000Z</time>
      </trkpt>
      <trkpt lat="44.41348" lon="6.3737">
        <ele>1879</ele>
        <time>2021-09-01T09:50:52.000Z</time>
      </trkpt>
      <trkpt lat="44.41348" lon="6.3737">
        <ele>1879</ele>
        <time>2021-09-01T09:50:53.000Z</time>
      </trkpt>
      <trkpt lat="44.41348" lon="6.37371">
        <ele>1878</ele>
        <time>2021-09-01T09:50:54.000Z</time>
      </trkpt>
      <trkpt lat="44.41348" lon="6.37371">
        <ele>1877</ele>
        <time>2021-09-01T09:50:55.000Z</time>
      </trkpt>
      <trkpt lat="44.41347" lon="6.37371">
        <ele>1878</ele>
        <time>2021-09-01T09:50:56.000Z</time>
      </trkpt>
      <trkpt lat="44.41346" lon="6.37371">
        <ele>1878</ele>
        <time>2021-09-01T09:50:57.000Z</time>
      </trkpt>
      <trkpt lat="44.41346" lon="6.37371">
        <ele>1879</ele>
        <time>2021-09-01T09:50:58.000Z</time>
      </trkpt>
      <trkpt lat="44.41344" lon="6.37373">
        <ele>1880</ele>
        <time>2021-09-01T09:50:59.000Z</time>
      </trkpt>
      <trkpt lat="44.41343" lon="6.37375">
        <ele>1881</ele>
        <time>2021-09-01T09:51:00.000Z</time>
      </trkpt>
      <trkpt lat="44.41346" lon="6.37379">
        <ele>1878</ele>
        <time>2021-09-01T09:51:01.000Z</time>
      </trkpt>
      <trkpt lat="44.41347" lon="6.37382">
        <ele>1876</ele>
        <time>2021-09-01T09:51:02.000Z</time>
      </trkpt>
      <trkpt lat="44.41347" lon="6.37385">
        <ele>1875</ele>
        <time>2021-09-01T09:51:03.000Z</time>
      </trkpt>
      <trkpt lat="44.41347" lon="6.37388">
        <ele>1875</ele>
        <time>2021-09-01T09:51:04.000Z</time>
      </trkpt>
      <trkpt lat="44.41347" lon="6.3739">
        <ele>1875</ele>
        <time>2021-09-01T09:51:05.000Z</time>
      </trkpt>
      <trkpt lat="44.41347" lon="6.37392">
        <ele>1875</ele>
        <time>2021-09-01T09:51:06.000Z</time>
      </trkpt>
      <trkpt lat="44.41347" lon="6.37395">
        <ele>1875</ele>
        <time>2021-09-01T09:51:07.000Z</time>
      </trkpt>
      <trkpt lat="44.41347" lon="6.37397">
        <ele>1875</ele>
        <time>2021-09-01T09:51:08.000Z</time>
      </trkpt>
      <trkpt lat="44.41347" lon="6.37399">
        <ele>1876</ele>
        <time>2021-09-01T09:51:09.000Z</time>
      </trkpt>
      <trkpt lat="44.41347" lon="6.37401">
        <ele>1876</ele>
        <time>2021-09-01T09:51:10.000Z</time>
      </trkpt>
      <trkpt lat="44.41348" lon="6.37403">
        <ele>1876</ele>
        <time>2021-09-01T09:51:11.000Z</time>
      </trkpt>
      <trkpt lat="44.41348" lon="6.37404">
        <ele>1876</ele>
        <time>2021-09-01T09:51:12.000Z</time>
      </trkpt>
      <trkpt lat="44.41348" lon="6.37404">
        <ele>1876</ele>
        <time>2021-09-01T09:51:13.000Z</time>
      </trkpt>
      <trkpt lat="44.41348" lon="6.37404">
        <ele>1875</ele>
        <time>2021-09-01T09:51:14.000Z</time>
      </trkpt>
      <trkpt lat="44.41348" lon="6.37404">
        <ele>1875</ele>
        <time>2021-09-01T09:51:15.000Z</time>
      </trkpt>
      <trkpt lat="44.41348" lon="6.37405">
        <ele>1874</ele>
        <time>2021-09-01T09:51:16.000Z</time>
      </trkpt>
      <trkpt lat="44.41348" lon="6.37406">
        <ele>1874</ele>
        <time>2021-09-01T09:51:17.000Z</time>
      </trkpt>
      <trkpt lat="44.41349" lon="6.37409">
        <ele>1874</ele>
        <time>2021-09-01T09:51:18.000Z</time>
      </trkpt>
      <trkpt lat="44.4135" lon="6.37411">
        <ele>1874</ele>
        <time>2021-09-01T09:51:19.000Z</time>
      </trkpt>
      <trkpt lat="44.4135" lon="6.37413">
        <ele>1873</ele>
        <time>2021-09-01T09:51:20.000Z</time>
      </trkpt>
      <trkpt lat="44.41351" lon="6.37415">
        <ele>1874</ele>
        <time>2021-09-01T09:51:21.000Z</time>
      </trkpt>
      <trkpt lat="44.41351" lon="6.37417">
        <ele>1874</ele>
        <time>2021-09-01T09:51:22.000Z</time>
      </trkpt>
      <trkpt lat="44.41351" lon="6.37419">
        <ele>1874</ele>
        <time>2021-09-01T09:51:23.000Z</time>
      </trkpt>
      <trkpt lat="44.41351" lon="6.3742">
        <ele>1873</ele>
        <time>2021-09-01T09:51:24.000Z</time>
      </trkpt>
      <trkpt lat="44.4135" lon="6.37419">
        <ele>1873</ele>
        <time>2021-09-01T09:51:25.000Z</time>
      </trkpt>
      <trkpt lat="44.4135" lon="6.37419">
        <ele>1873</ele>
        <time>2021-09-01T09:51:26.000Z</time>
      </trkpt>
      <trkpt lat="44.4135" lon="6.37419">
        <ele>1873</ele>
        <time>2021-09-01T09:51:27.000Z</time>
      </trkpt>
      <trkpt lat="44.41349" lon="6.37419">
        <ele>1873</ele>
        <time>2021-09-01T09:51:28.000Z</time>
      </trkpt>
      <trkpt lat="44.41348" lon="6.3742">
        <ele>1873</ele>
        <time>2021-09-01T09:51:29.000Z</time>
      </trkpt>
      <trkpt lat="44.41346" lon="6.3742">
        <ele>1873</ele>
        <time>2021-09-01T09:51:30.000Z</time>
      </trkpt>
      <trkpt lat="44.41345" lon="6.3742">
        <ele>1873</ele>
        <time>2021-09-01T09:51:31.000Z</time>
      </trkpt>
      <trkpt lat="44.41343" lon="6.3742">
        <ele>1873</ele>
        <time>2021-09-01T09:51:32.000Z</time>
      </trkpt>
      <trkpt lat="44.41342" lon="6.37419">
        <ele>1873</ele>
        <time>2021-09-01T09:51:33.000Z</time>
      </trkpt>
      <trkpt lat="44.4134" lon="6.37419">
        <ele>1874</ele>
        <time>2021-09-01T09:51:34.000Z</time>
      </trkpt>
      <trkpt lat="44.41339" lon="6.37419">
        <ele>1874</ele>
        <time>2021-09-01T09:51:35.000Z</time>
      </trkpt>
      <trkpt lat="44.41337" lon="6.37419">
        <ele>1874</ele>
        <time>2021-09-01T09:51:36.000Z</time>
      </trkpt>
      <trkpt lat="44.41335" lon="6.3742">
        <ele>1874</ele>
        <time>2021-09-01T09:51:37.000Z</time>
      </trkpt>
      <trkpt lat="44.41333" lon="6.37419">
        <ele>1874</ele>
        <time>2021-09-01T09:51:38.000Z</time>
      </trkpt>
      <trkpt lat="44.41331" lon="6.37419">
        <ele>1874</ele>
        <time>2021-09-01T09:51:39.000Z</time>
      </trkpt>
      <trkpt lat="44.41329" lon="6.37419">
        <ele>1875</ele>
        <time>2021-09-01T09:51:40.000Z</time>
      </trkpt>
      <trkpt lat="44.41327" lon="6.37419">
        <ele>1874</ele>
        <time>2021-09-01T09:51:41.000Z</time>
      </trkpt>
      <trkpt lat="44.41325" lon="6.3742">
        <ele>1875</ele>
        <time>2021-09-01T09:51:42.000Z</time>
      </trkpt>
      <trkpt lat="44.41324" lon="6.3742">
        <ele>1875</ele>
        <time>2021-09-01T09:51:43.000Z</time>
      </trkpt>
      <trkpt lat="44.41322" lon="6.37419">
        <ele>1876</ele>
        <time>2021-09-01T09:51:44.000Z</time>
      </trkpt>
      <trkpt lat="44.4132" lon="6.37418">
        <ele>1876</ele>
        <time>2021-09-01T09:51:45.000Z</time>
      </trkpt>
      <trkpt lat="44.41318" lon="6.37418">
        <ele>1878</ele>
        <time>2021-09-01T09:51:46.000Z</time>
      </trkpt>
      <trkpt lat="44.41316" lon="6.37417">
        <ele>1878</ele>
        <time>2021-09-01T09:51:47.000Z</time>
      </trkpt>
      <trkpt lat="44.41315" lon="6.37416">
        <ele>1879</ele>
        <time>2021-09-01T09:51:48.000Z</time>
      </trkpt>
      <trkpt lat="44.41313" lon="6.37415">
        <ele>1878</ele>
        <time>2021-09-01T09:51:49.000Z</time>
      </trkpt>
      <trkpt lat="44.4131" lon="6.37413">
        <ele>1876</ele>
        <time>2021-09-01T09:51:50.000Z</time>
      </trkpt>
      <trkpt lat="44.41308" lon="6.37412">
        <ele>1874</ele>
        <time>2021-09-01T09:51:51.000Z</time>
      </trkpt>
      <trkpt lat="44.41306" lon="6.37409">
        <ele>1875</ele>
        <time>2021-09-01T09:51:52.000Z</time>
      </trkpt>
      <trkpt lat="44.41304" lon="6.37408">
        <ele>1874</ele>
        <time>2021-09-01T09:51:53.000Z</time>
      </trkpt>
      <trkpt lat="44.41303" lon="6.37406">
        <ele>1873</ele>
        <time>2021-09-01T09:51:54.000Z</time>
      </trkpt>
      <trkpt lat="44.41302" lon="6.37404">
        <ele>1873</ele>
        <time>2021-09-01T09:51:55.000Z</time>
      </trkpt>
      <trkpt lat="44.413" lon="6.37403">
        <ele>1873</ele>
        <time>2021-09-01T09:51:56.000Z</time>
      </trkpt>
      <trkpt lat="44.41299" lon="6.374">
        <ele>1873</ele>
        <time>2021-09-01T09:51:57.000Z</time>
      </trkpt>
      <trkpt lat="44.41298" lon="6.37399">
        <ele>1872</ele>
        <time>2021-09-01T09:51:58.000Z</time>
      </trkpt>
      <trkpt lat="44.41296" lon="6.37398">
        <ele>1872</ele>
        <time>2021-09-01T09:51:59.000Z</time>
      </trkpt>
      <trkpt lat="44.41295" lon="6.37397">
        <ele>1872</ele>
        <time>2021-09-01T09:52:00.000Z</time>
      </trkpt>
      <trkpt lat="44.41294" lon="6.37396">
        <ele>1873</ele>
        <time>2021-09-01T09:52:01.000Z</time>
      </trkpt>
      <trkpt lat="44.41292" lon="6.37394">
        <ele>1873</ele>
        <time>2021-09-01T09:52:02.000Z</time>
      </trkpt>
      <trkpt lat="44.41291" lon="6.37393">
        <ele>1873</ele>
        <time>2021-09-01T09:52:03.000Z</time>
      </trkpt>
      <trkpt lat="44.41289" lon="6.37391">
        <ele>1874</ele>
        <time>2021-09-01T09:52:04.000Z</time>
      </trkpt>
      <trkpt lat="44.41288" lon="6.3739">
        <ele>1874</ele>
        <time>2021-09-01T09:52:05.000Z</time>
      </trkpt>
      <trkpt lat="44.41286" lon="6.37388">
        <ele>1874</ele>
        <time>2021-09-01T09:52:06.000Z</time>
      </trkpt>
      <trkpt lat="44.41284" lon="6.37388">
        <ele>1875</ele>
        <time>2021-09-01T09:52:07.000Z</time>
      </trkpt>
      <trkpt lat="44.41281" lon="6.37387">
        <ele>1875</ele>
        <time>2021-09-01T09:52:08.000Z</time>
      </trkpt>
      <trkpt lat="44.4128" lon="6.37387">
        <ele>1875</ele>
        <time>2021-09-01T09:52:09.000Z</time>
      </trkpt>
      <trkpt lat="44.41278" lon="6.37385">
        <ele>1875</ele>
        <time>2021-09-01T09:52:10.000Z</time>
      </trkpt>
      <trkpt lat="44.41277" lon="6.37385">
        <ele>1875</ele>
        <time>2021-09-01T09:52:11.000Z</time>
      </trkpt>
      <trkpt lat="44.41275" lon="6.37384">
        <ele>1876</ele>
        <time>2021-09-01T09:52:12.000Z</time>
      </trkpt>
      <trkpt lat="44.41273" lon="6.37383">
        <ele>1877</ele>
        <time>2021-09-01T09:52:13.000Z</time>
      </trkpt>
      <trkpt lat="44.41271" lon="6.37383">
        <ele>1877</ele>
        <time>2021-09-01T09:52:14.000Z</time>
      </trkpt>
      <trkpt lat="44.4127" lon="6.37382">
        <ele>1878</ele>
        <time>2021-09-01T09:52:15.000Z</time>
      </trkpt>
      <trkpt lat="44.41269" lon="6.37382">
        <ele>1879</ele>
        <time>2021-09-01T09:52:16.000Z</time>
      </trkpt>
      <trkpt lat="44.41268" lon="6.37381">
        <ele>1879</ele>
        <time>2021-09-01T09:52:17.000Z</time>
      </trkpt>
      <trkpt lat="44.41266" lon="6.37381">
        <ele>1879</ele>
        <time>2021-09-01T09:52:18.000Z</time>
      </trkpt>
      <trkpt lat="44.41264" lon="6.3738">
        <ele>1879</ele>
        <time>2021-09-01T09:52:19.000Z</time>
      </trkpt>
      <trkpt lat="44.41262" lon="6.3738">
        <ele>1880</ele>
        <time>2021-09-01T09:52:20.000Z</time>
      </trkpt>
      <trkpt lat="44.4126" lon="6.3738">
        <ele>1881</ele>
        <time>2021-09-01T09:52:21.000Z</time>
      </trkpt>
      <trkpt lat="44.41258" lon="6.3738">
        <ele>1881</ele>
        <time>2021-09-01T09:52:22.000Z</time>
      </trkpt>
      <trkpt lat="44.41256" lon="6.37379">
        <ele>1881</ele>
        <time>2021-09-01T09:52:23.000Z</time>
      </trkpt>
      <trkpt lat="44.41254" lon="6.37379">
        <ele>1881</ele>
        <time>2021-09-01T09:52:24.000Z</time>
      </trkpt>
      <trkpt lat="44.41252" lon="6.37378">
        <ele>1881</ele>
        <time>2021-09-01T09:52:25.000Z</time>
      </trkpt>
      <trkpt lat="44.4125" lon="6.37378">
        <ele>1881</ele>
        <time>2021-09-01T09:52:26.000Z</time>
      </trkpt>
      <trkpt lat="44.41248" lon="6.37377">
        <ele>1881</ele>
        <time>2021-09-01T09:52:27.000Z</time>
      </trkpt>
      <trkpt lat="44.41246" lon="6.37377">
        <ele>1880</ele>
        <time>2021-09-01T09:52:28.000Z</time>
      </trkpt>
      <trkpt lat="44.41244" lon="6.37376">
        <ele>1881</ele>
        <time>2021-09-01T09:52:29.000Z</time>
      </trkpt>
      <trkpt lat="44.41242" lon="6.37375">
        <ele>1880</ele>
        <time>2021-09-01T09:52:30.000Z</time>
      </trkpt>
      <trkpt lat="44.4124" lon="6.37374">
        <ele>1881</ele>
        <time>2021-09-01T09:52:31.000Z</time>
      </trkpt>
      <trkpt lat="44.41238" lon="6.37373">
        <ele>1881</ele>
        <time>2021-09-01T09:52:32.000Z</time>
      </trkpt>
      <trkpt lat="44.41237" lon="6.37372">
        <ele>1882</ele>
        <time>2021-09-01T09:52:33.000Z</time>
      </trkpt>
      <trkpt lat="44.41235" lon="6.37371">
        <ele>1882</ele>
        <time>2021-09-01T09:52:34.000Z</time>
      </trkpt>
      <trkpt lat="44.41232" lon="6.37371">
        <ele>1881</ele>
        <time>2021-09-01T09:52:35.000Z</time>
      </trkpt>
      <trkpt lat="44.4123" lon="6.3737">
        <ele>1881</ele>
        <time>2021-09-01T09:52:36.000Z</time>
      </trkpt>
      <trkpt lat="44.41229" lon="6.3737">
        <ele>1882</ele>
        <time>2021-09-01T09:52:37.000Z</time>
      </trkpt>
      <trkpt lat="44.41227" lon="6.37369">
        <ele>1882</ele>
        <time>2021-09-01T09:52:38.000Z</time>
      </trkpt>
      <trkpt lat="44.41225" lon="6.3737">
        <ele>1882</ele>
        <time>2021-09-01T09:52:39.000Z</time>
      </trkpt>
      <trkpt lat="44.41223" lon="6.3737">
        <ele>1882</ele>
        <time>2021-09-01T09:52:40.000Z</time>
      </trkpt>
      <trkpt lat="44.41221" lon="6.37369">
        <ele>1881</ele>
        <time>2021-09-01T09:52:41.000Z</time>
      </trkpt>
      <trkpt lat="44.41219" lon="6.37369">
        <ele>1882</ele>
        <time>2021-09-01T09:52:42.000Z</time>
      </trkpt>
      <trkpt lat="44.41218" lon="6.37368">
        <ele>1882</ele>
        <time>2021-09-01T09:52:43.000Z</time>
      </trkpt>
      <trkpt lat="44.41215" lon="6.37368">
        <ele>1882</ele>
        <time>2021-09-01T09:52:44.000Z</time>
      </trkpt>
      <trkpt lat="44.41214" lon="6.37368">
        <ele>1882</ele>
        <time>2021-09-01T09:52:45.000Z</time>
      </trkpt>
      <trkpt lat="44.41211" lon="6.37367">
        <ele>1882</ele>
        <time>2021-09-01T09:52:46.000Z</time>
      </trkpt>
      <trkpt lat="44.41209" lon="6.37366">
        <ele>1882</ele>
        <time>2021-09-01T09:52:47.000Z</time>
      </trkpt>
      <trkpt lat="44.41208" lon="6.37366">
        <ele>1882</ele>
        <time>2021-09-01T09:52:48.000Z</time>
      </trkpt>
      <trkpt lat="44.41205" lon="6.37365">
        <ele>1883</ele>
        <time>2021-09-01T09:52:49.000Z</time>
      </trkpt>
      <trkpt lat="44.41203" lon="6.37365">
        <ele>1882</ele>
        <time>2021-09-01T09:52:50.000Z</time>
      </trkpt>
      <trkpt lat="44.41202" lon="6.37364">
        <ele>1883</ele>
        <time>2021-09-01T09:52:51.000Z</time>
      </trkpt>
      <trkpt lat="44.41201" lon="6.37365">
        <ele>1883</ele>
        <time>2021-09-01T09:52:52.000Z</time>
      </trkpt>
      <trkpt lat="44.41199" lon="6.37365">
        <ele>1882</ele>
        <time>2021-09-01T09:52:53.000Z</time>
      </trkpt>
      <trkpt lat="44.41197" lon="6.37365">
        <ele>1882</ele>
        <time>2021-09-01T09:52:54.000Z</time>
      </trkpt>
      <trkpt lat="44.41195" lon="6.37365">
        <ele>1882</ele>
        <time>2021-09-01T09:52:55.000Z</time>
      </trkpt>
      <trkpt lat="44.41193" lon="6.37364">
        <ele>1883</ele>
        <time>2021-09-01T09:52:56.000Z</time>
      </trkpt>
      <trkpt lat="44.4119" lon="6.37364">
        <ele>1882</ele>
        <time>2021-09-01T09:52:57.000Z</time>
      </trkpt>
      <trkpt lat="44.41188" lon="6.37364">
        <ele>1882</ele>
        <time>2021-09-01T09:52:58.000Z</time>
      </trkpt>
      <trkpt lat="44.41186" lon="6.37364">
        <ele>1881</ele>
        <time>2021-09-01T09:52:59.000Z</time>
      </trkpt>
      <trkpt lat="44.41184" lon="6.37364">
        <ele>1881</ele>
        <time>2021-09-01T09:53:00.000Z</time>
      </trkpt>
      <trkpt lat="44.41182" lon="6.37365">
        <ele>1881</ele>
        <time>2021-09-01T09:53:01.000Z</time>
      </trkpt>
      <trkpt lat="44.4118" lon="6.37365">
        <ele>1881</ele>
        <time>2021-09-01T09:53:02.000Z</time>
      </trkpt>
      <trkpt lat="44.41178" lon="6.37366">
        <ele>1881</ele>
        <time>2021-09-01T09:53:03.000Z</time>
      </trkpt>
      <trkpt lat="44.41175" lon="6.37366">
        <ele>1881</ele>
        <time>2021-09-01T09:53:04.000Z</time>
      </trkpt>
      <trkpt lat="44.41173" lon="6.37366">
        <ele>1881</ele>
        <time>2021-09-01T09:53:05.000Z</time>
      </trkpt>
      <trkpt lat="44.41172" lon="6.37366">
        <ele>1881</ele>
        <time>2021-09-01T09:53:06.000Z</time>
      </trkpt>
      <trkpt lat="44.4117" lon="6.37367">
        <ele>1881</ele>
        <time>2021-09-01T09:53:07.000Z</time>
      </trkpt>
      <trkpt lat="44.41168" lon="6.37367">
        <ele>1881</ele>
        <time>2021-09-01T09:53:08.000Z</time>
      </trkpt>
      <trkpt lat="44.41167" lon="6.37368">
        <ele>1881</ele>
        <time>2021-09-01T09:53:09.000Z</time>
      </trkpt>
      <trkpt lat="44.41166" lon="6.37368">
        <ele>1881</ele>
        <time>2021-09-01T09:53:10.000Z</time>
      </trkpt>
      <trkpt lat="44.41164" lon="6.37369">
        <ele>1881</ele>
        <time>2021-09-01T09:53:11.000Z</time>
      </trkpt>
      <trkpt lat="44.41162" lon="6.37369">
        <ele>1882</ele>
        <time>2021-09-01T09:53:12.000Z</time>
      </trkpt>
      <trkpt lat="44.4116" lon="6.37369">
        <ele>1883</ele>
        <time>2021-09-01T09:53:13.000Z</time>
      </trkpt>
      <trkpt lat="44.41158" lon="6.37369">
        <ele>1884</ele>
        <time>2021-09-01T09:53:14.000Z</time>
      </trkpt>
      <trkpt lat="44.41156" lon="6.37369">
        <ele>1885</ele>
        <time>2021-09-01T09:53:15.000Z</time>
      </trkpt>
      <trkpt lat="44.41154" lon="6.37369">
        <ele>1886</ele>
        <time>2021-09-01T09:53:16.000Z</time>
      </trkpt>
      <trkpt lat="44.41151" lon="6.37368">
        <ele>1886</ele>
        <time>2021-09-01T09:53:17.000Z</time>
      </trkpt>
      <trkpt lat="44.41149" lon="6.37369">
        <ele>1887</ele>
        <time>2021-09-01T09:53:18.000Z</time>
      </trkpt>
      <trkpt lat="44.41147" lon="6.37369">
        <ele>1888</ele>
        <time>2021-09-01T09:53:19.000Z</time>
      </trkpt>
      <trkpt lat="44.41144" lon="6.37369">
        <ele>1888</ele>
        <time>2021-09-01T09:53:20.000Z</time>
      </trkpt>
      <trkpt lat="44.41143" lon="6.37369">
        <ele>1889</ele>
        <time>2021-09-01T09:53:21.000Z</time>
      </trkpt>
      <trkpt lat="44.41141" lon="6.3737">
        <ele>1889</ele>
        <time>2021-09-01T09:53:22.000Z</time>
      </trkpt>
      <trkpt lat="44.41138" lon="6.37369">
        <ele>1890</ele>
        <time>2021-09-01T09:53:23.000Z</time>
      </trkpt>
      <trkpt lat="44.41136" lon="6.37371">
        <ele>1890</ele>
        <time>2021-09-01T09:53:24.000Z</time>
      </trkpt>
      <trkpt lat="44.41134" lon="6.37371">
        <ele>1890</ele>
        <time>2021-09-01T09:53:25.000Z</time>
      </trkpt>
      <trkpt lat="44.41131" lon="6.3737">
        <ele>1891</ele>
        <time>2021-09-01T09:53:26.000Z</time>
      </trkpt>
      <trkpt lat="44.4113" lon="6.3737">
        <ele>1891</ele>
        <time>2021-09-01T09:53:27.000Z</time>
      </trkpt>
      <trkpt lat="44.41128" lon="6.37371">
        <ele>1892</ele>
        <time>2021-09-01T09:53:28.000Z</time>
      </trkpt>
      <trkpt lat="44.41126" lon="6.37371">
        <ele>1892</ele>
        <time>2021-09-01T09:53:29.000Z</time>
      </trkpt>
      <trkpt lat="44.41124" lon="6.37371">
        <ele>1893</ele>
        <time>2021-09-01T09:53:30.000Z</time>
      </trkpt>
      <trkpt lat="44.41122" lon="6.3737">
        <ele>1893</ele>
        <time>2021-09-01T09:53:31.000Z</time>
      </trkpt>
      <trkpt lat="44.4112" lon="6.3737">
        <ele>1894</ele>
        <time>2021-09-01T09:53:32.000Z</time>
      </trkpt>
      <trkpt lat="44.41118" lon="6.37371">
        <ele>1893</ele>
        <time>2021-09-01T09:53:33.000Z</time>
      </trkpt>
      <trkpt lat="44.41117" lon="6.37371">
        <ele>1894</ele>
        <time>2021-09-01T09:53:34.000Z</time>
      </trkpt>
      <trkpt lat="44.41115" lon="6.3737">
        <ele>1894</ele>
        <time>2021-09-01T09:53:35.000Z</time>
      </trkpt>
      <trkpt lat="44.41113" lon="6.3737">
        <ele>1894</ele>
        <time>2021-09-01T09:53:36.000Z</time>
      </trkpt>
      <trkpt lat="44.41111" lon="6.3737">
        <ele>1895</ele>
        <time>2021-09-01T09:53:37.000Z</time>
      </trkpt>
      <trkpt lat="44.41109" lon="6.3737">
        <ele>1896</ele>
        <time>2021-09-01T09:53:38.000Z</time>
      </trkpt>
      <trkpt lat="44.41108" lon="6.3737">
        <ele>1896</ele>
        <time>2021-09-01T09:53:39.000Z</time>
      </trkpt>
      <trkpt lat="44.41105" lon="6.3737">
        <ele>1897</ele>
        <time>2021-09-01T09:53:40.000Z</time>
      </trkpt>
      <trkpt lat="44.41103" lon="6.3737">
        <ele>1897</ele>
        <time>2021-09-01T09:53:41.000Z</time>
      </trkpt>
      <trkpt lat="44.41102" lon="6.3737">
        <ele>1897</ele>
        <time>2021-09-01T09:53:42.000Z</time>
      </trkpt>
      <trkpt lat="44.411" lon="6.37369">
        <ele>1897</ele>
        <time>2021-09-01T09:53:43.000Z</time>
      </trkpt>
      <trkpt lat="44.41099" lon="6.37369">
        <ele>1898</ele>
        <time>2021-09-01T09:53:44.000Z</time>
      </trkpt>
      <trkpt lat="44.41096" lon="6.37369">
        <ele>1898</ele>
        <time>2021-09-01T09:53:45.000Z</time>
      </trkpt>
      <trkpt lat="44.41094" lon="6.37369">
        <ele>1897</ele>
        <time>2021-09-01T09:53:46.000Z</time>
      </trkpt>
      <trkpt lat="44.41092" lon="6.37369">
        <ele>1897</ele>
        <time>2021-09-01T09:53:47.000Z</time>
      </trkpt>
      <trkpt lat="44.41091" lon="6.37369">
        <ele>1898</ele>
        <time>2021-09-01T09:53:48.000Z</time>
      </trkpt>
      <trkpt lat="44.41089" lon="6.37369">
        <ele>1898</ele>
        <time>2021-09-01T09:53:49.000Z</time>
      </trkpt>
      <trkpt lat="44.41087" lon="6.37368">
        <ele>1898</ele>
        <time>2021-09-01T09:53:50.000Z</time>
      </trkpt>
      <trkpt lat="44.41085" lon="6.37369">
        <ele>1897</ele>
        <time>2021-09-01T09:53:51.000Z</time>
      </trkpt>
      <trkpt lat="44.41084" lon="6.37369">
        <ele>1897</ele>
        <time>2021-09-01T09:53:52.000Z</time>
      </trkpt>
      <trkpt lat="44.41082" lon="6.37368">
        <ele>1897</ele>
        <time>2021-09-01T09:53:53.000Z</time>
      </trkpt>
      <trkpt lat="44.4108" lon="6.37368">
        <ele>1898</ele>
        <time>2021-09-01T09:53:54.000Z</time>
      </trkpt>
      <trkpt lat="44.41079" lon="6.37367">
        <ele>1899</ele>
        <time>2021-09-01T09:53:55.000Z</time>
      </trkpt>
      <trkpt lat="44.41078" lon="6.37367">
        <ele>1899</ele>
        <time>2021-09-01T09:53:56.000Z</time>
      </trkpt>
      <trkpt lat="44.41076" lon="6.37368">
        <ele>1899</ele>
        <time>2021-09-01T09:53:57.000Z</time>
      </trkpt>
      <trkpt lat="44.41074" lon="6.37367">
        <ele>1899</ele>
        <time>2021-09-01T09:53:58.000Z</time>
      </trkpt>
      <trkpt lat="44.41072" lon="6.37367">
        <ele>1900</ele>
        <time>2021-09-01T09:53:59.000Z</time>
      </trkpt>
      <trkpt lat="44.4107" lon="6.37367">
        <ele>1899</ele>
        <time>2021-09-01T09:54:00.000Z</time>
      </trkpt>
      <trkpt lat="44.41069" lon="6.37367">
        <ele>1899</ele>
        <time>2021-09-01T09:54:01.000Z</time>
      </trkpt>
      <trkpt lat="44.41067" lon="6.37367">
        <ele>1898</ele>
        <time>2021-09-01T09:54:02.000Z</time>
      </trkpt>
      <trkpt lat="44.41065" lon="6.37366">
        <ele>1898</ele>
        <time>2021-09-01T09:54:03.000Z</time>
      </trkpt>
      <trkpt lat="44.41063" lon="6.37366">
        <ele>1898</ele>
        <time>2021-09-01T09:54:04.000Z</time>
      </trkpt>
      <trkpt lat="44.41062" lon="6.37368">
        <ele>1897</ele>
        <time>2021-09-01T09:54:05.000Z</time>
      </trkpt>
      <trkpt lat="44.4106" lon="6.37368">
        <ele>1897</ele>
        <time>2021-09-01T09:54:06.000Z</time>
      </trkpt>
      <trkpt lat="44.41058" lon="6.37369">
        <ele>1896</ele>
        <time>2021-09-01T09:54:07.000Z</time>
      </trkpt>
      <trkpt lat="44.41057" lon="6.3737">
        <ele>1895</ele>
        <time>2021-09-01T09:54:08.000Z</time>
      </trkpt>
      <trkpt lat="44.41055" lon="6.3737">
        <ele>1896</ele>
        <time>2021-09-01T09:54:09.000Z</time>
      </trkpt>
      <trkpt lat="44.41054" lon="6.37371">
        <ele>1896</ele>
        <time>2021-09-01T09:54:10.000Z</time>
      </trkpt>
      <trkpt lat="44.41053" lon="6.37372">
        <ele>1896</ele>
        <time>2021-09-01T09:54:11.000Z</time>
      </trkpt>
      <trkpt lat="44.41052" lon="6.37373">
        <ele>1897</ele>
        <time>2021-09-01T09:54:12.000Z</time>
      </trkpt>
      <trkpt lat="44.41051" lon="6.37375">
        <ele>1898</ele>
        <time>2021-09-01T09:54:13.000Z</time>
      </trkpt>
      <trkpt lat="44.4105" lon="6.37376">
        <ele>1898</ele>
        <time>2021-09-01T09:54:14.000Z</time>
      </trkpt>
      <trkpt lat="44.41049" lon="6.37377">
        <ele>1898</ele>
        <time>2021-09-01T09:54:15.000Z</time>
      </trkpt>
      <trkpt lat="44.41048" lon="6.37379">
        <ele>1898</ele>
        <time>2021-09-01T09:54:16.000Z</time>
      </trkpt>
      <trkpt lat="44.41045" lon="6.37381">
        <ele>1899</ele>
        <time>2021-09-01T09:54:17.000Z</time>
      </trkpt>
      <trkpt lat="44.41044" lon="6.37382">
        <ele>1899</ele>
        <time>2021-09-01T09:54:18.000Z</time>
      </trkpt>
      <trkpt lat="44.41042" lon="6.37383">
        <ele>1900</ele>
        <time>2021-09-01T09:54:19.000Z</time>
      </trkpt>
      <trkpt lat="44.41039" lon="6.37383">
        <ele>1901</ele>
        <time>2021-09-01T09:54:20.000Z</time>
      </trkpt>
      <trkpt lat="44.41036" lon="6.37384">
        <ele>1901</ele>
        <time>2021-09-01T09:54:21.000Z</time>
      </trkpt>
      <trkpt lat="44.41034" lon="6.37384">
        <ele>1902</ele>
        <time>2021-09-01T09:54:22.000Z</time>
      </trkpt>
      <trkpt lat="44.41031" lon="6.37385">
        <ele>1903</ele>
        <time>2021-09-01T09:54:23.000Z</time>
      </trkpt>
      <trkpt lat="44.41028" lon="6.37385">
        <ele>1904</ele>
        <time>2021-09-01T09:54:24.000Z</time>
      </trkpt>
      <trkpt lat="44.41026" lon="6.37386">
        <ele>1905</ele>
        <time>2021-09-01T09:54:25.000Z</time>
      </trkpt>
      <trkpt lat="44.41024" lon="6.37387">
        <ele>1905</ele>
        <time>2021-09-01T09:54:26.000Z</time>
      </trkpt>
      <trkpt lat="44.41023" lon="6.37388">
        <ele>1905</ele>
        <time>2021-09-01T09:54:27.000Z</time>
      </trkpt>
      <trkpt lat="44.41021" lon="6.37389">
        <ele>1905</ele>
        <time>2021-09-01T09:54:28.000Z</time>
      </trkpt>
      <trkpt lat="44.4102" lon="6.3739">
        <ele>1906</ele>
        <time>2021-09-01T09:54:29.000Z</time>
      </trkpt>
      <trkpt lat="44.4102" lon="6.3739">
        <ele>1907</ele>
        <time>2021-09-01T09:54:30.000Z</time>
      </trkpt>
      <trkpt lat="44.41019" lon="6.3739">
        <ele>1908</ele>
        <time>2021-09-01T09:54:31.000Z</time>
      </trkpt>
      <trkpt lat="44.41018" lon="6.3739">
        <ele>1910</ele>
        <time>2021-09-01T09:54:32.000Z</time>
      </trkpt>
      <trkpt lat="44.41017" lon="6.37389">
        <ele>1911</ele>
        <time>2021-09-01T09:54:33.000Z</time>
      </trkpt>
      <trkpt lat="44.41016" lon="6.37389">
        <ele>1912</ele>
        <time>2021-09-01T09:54:34.000Z</time>
      </trkpt>
      <trkpt lat="44.41016" lon="6.37389">
        <ele>1913</ele>
        <time>2021-09-01T09:54:35.000Z</time>
      </trkpt>
      <trkpt lat="44.41015" lon="6.37389">
        <ele>1914</ele>
        <time>2021-09-01T09:54:36.000Z</time>
      </trkpt>
      <trkpt lat="44.41014" lon="6.37389">
        <ele>1915</ele>
        <time>2021-09-01T09:54:37.000Z</time>
      </trkpt>
      <trkpt lat="44.41014" lon="6.37389">
        <ele>1916</ele>
        <time>2021-09-01T09:54:38.000Z</time>
      </trkpt>
      <trkpt lat="44.41013" lon="6.3739">
        <ele>1916</ele>
        <time>2021-09-01T09:54:39.000Z</time>
      </trkpt>
      <trkpt lat="44.41012" lon="6.3739">
        <ele>1916</ele>
        <time>2021-09-01T09:54:40.000Z</time>
      </trkpt>
      <trkpt lat="44.41012" lon="6.37391">
        <ele>1916</ele>
        <time>2021-09-01T09:54:41.000Z</time>
      </trkpt>
      <trkpt lat="44.41011" lon="6.37391">
        <ele>1916</ele>
        <time>2021-09-01T09:54:42.000Z</time>
      </trkpt>
      <trkpt lat="44.41011" lon="6.37391">
        <ele>1916</ele>
        <time>2021-09-01T09:54:43.000Z</time>
      </trkpt>
      <trkpt lat="44.4101" lon="6.37391">
        <ele>1917</ele>
        <time>2021-09-01T09:54:44.000Z</time>
      </trkpt>
      <trkpt lat="44.4101" lon="6.37392">
        <ele>1916</ele>
        <time>2021-09-01T09:54:45.000Z</time>
      </trkpt>
      <trkpt lat="44.4101" lon="6.37392">
        <ele>1916</ele>
        <time>2021-09-01T09:54:46.000Z</time>
      </trkpt>
      <trkpt lat="44.41009" lon="6.37392">
        <ele>1915</ele>
        <time>2021-09-01T09:54:47.000Z</time>
      </trkpt>
      <trkpt lat="44.41009" lon="6.37392">
        <ele>1915</ele>
        <time>2021-09-01T09:54:48.000Z</time>
      </trkpt>
      <trkpt lat="44.41009" lon="6.37392">
        <ele>1915</ele>
        <time>2021-09-01T09:54:49.000Z</time>
      </trkpt>
      <trkpt lat="44.41009" lon="6.37392">
        <ele>1914</ele>
        <time>2021-09-01T09:54:50.000Z</time>
      </trkpt>
      <trkpt lat="44.41008" lon="6.37392">
        <ele>1914</ele>
        <time>2021-09-01T09:54:51.000Z</time>
      </trkpt>
      <trkpt lat="44.41008" lon="6.37392">
        <ele>1913</ele>
        <time>2021-09-01T09:54:52.000Z</time>
      </trkpt>
      <trkpt lat="44.41008" lon="6.37392">
        <ele>1913</ele>
        <time>2021-09-01T09:54:53.000Z</time>
      </trkpt>
      <trkpt lat="44.41008" lon="6.37392">
        <ele>1913</ele>
        <time>2021-09-01T09:54:54.000Z</time>
      </trkpt>
      <trkpt lat="44.41009" lon="6.37391">
        <ele>1913</ele>
        <time>2021-09-01T09:54:55.000Z</time>
      </trkpt>
      <trkpt lat="44.41009" lon="6.37391">
        <ele>1912</ele>
        <time>2021-09-01T09:54:56.000Z</time>
      </trkpt>
      <trkpt lat="44.41008" lon="6.37391">
        <ele>1912</ele>
        <time>2021-09-01T09:54:57.000Z</time>
      </trkpt>
      <trkpt lat="44.41008" lon="6.37391">
        <ele>1913</ele>
        <time>2021-09-01T09:54:58.000Z</time>
      </trkpt>
      <trkpt lat="44.41008" lon="6.37391">
        <ele>1914</ele>
        <time>2021-09-01T09:54:59.000Z</time>
      </trkpt>
      <trkpt lat="44.41008" lon="6.37392">
        <ele>1914</ele>
        <time>2021-09-01T09:55:00.000Z</time>
      </trkpt>
      <trkpt lat="44.41008" lon="6.37393">
        <ele>1913</ele>
        <time>2021-09-01T09:55:01.000Z</time>
      </trkpt>
      <trkpt lat="44.41008" lon="6.37394">
        <ele>1913</ele>
        <time>2021-09-01T09:55:02.000Z</time>
      </trkpt>
      <trkpt lat="44.41007" lon="6.37395">
        <ele>1914</ele>
        <time>2021-09-01T09:55:03.000Z</time>
      </trkpt>
      <trkpt lat="44.41007" lon="6.37395">
        <ele>1915</ele>
        <time>2021-09-01T09:55:04.000Z</time>
      </trkpt>
      <trkpt lat="44.41007" lon="6.37395">
        <ele>1915</ele>
        <time>2021-09-01T09:55:05.000Z</time>
      </trkpt>
      <trkpt lat="44.41007" lon="6.37395">
        <ele>1915</ele>
        <time>2021-09-01T09:55:06.000Z</time>
      </trkpt>
      <trkpt lat="44.41006" lon="6.37394">
        <ele>1916</ele>
        <time>2021-09-01T09:55:07.000Z</time>
      </trkpt>
      <trkpt lat="44.41006" lon="6.37394">
        <ele>1916</ele>
        <time>2021-09-01T09:55:08.000Z</time>
      </trkpt>
      <trkpt lat="44.41006" lon="6.37394">
        <ele>1916</ele>
        <time>2021-09-01T09:55:09.000Z</time>
      </trkpt>
      <trkpt lat="44.41006" lon="6.37394">
        <ele>1916</ele>
        <time>2021-09-01T09:55:10.000Z</time>
      </trkpt>
      <trkpt lat="44.41006" lon="6.37394">
        <ele>1916</ele>
        <time>2021-09-01T09:55:11.000Z</time>
      </trkpt>
      <trkpt lat="44.41006" lon="6.37394">
        <ele>1916</ele>
        <time>2021-09-01T09:55:12.000Z</time>
      </trkpt>
      <trkpt lat="44.41005" lon="6.37394">
        <ele>1917</ele>
        <time>2021-09-01T09:55:13.000Z</time>
      </trkpt>
      <trkpt lat="44.41005" lon="6.37393">
        <ele>1918</ele>
        <time>2021-09-01T09:55:14.000Z</time>
      </trkpt>
      <trkpt lat="44.41005" lon="6.37393">
        <ele>1918</ele>
        <time>2021-09-01T09:55:15.000Z</time>
      </trkpt>
      <trkpt lat="44.41006" lon="6.37393">
        <ele>1918</ele>
        <time>2021-09-01T09:55:16.000Z</time>
      </trkpt>
      <trkpt lat="44.41006" lon="6.37393">
        <ele>1918</ele>
        <time>2021-09-01T09:55:17.000Z</time>
      </trkpt>
      <trkpt lat="44.41006" lon="6.37392">
        <ele>1918</ele>
        <time>2021-09-01T09:55:18.000Z</time>
      </trkpt>
      <trkpt lat="44.41006" lon="6.37392">
        <ele>1918</ele>
        <time>2021-09-01T09:55:19.000Z</time>
      </trkpt>
      <trkpt lat="44.41006" lon="6.37392">
        <ele>1918</ele>
        <time>2021-09-01T09:55:20.000Z</time>
      </trkpt>
      <trkpt lat="44.41007" lon="6.37392">
        <ele>1917</ele>
        <time>2021-09-01T09:55:21.000Z</time>
      </trkpt>
      <trkpt lat="44.41007" lon="6.37391">
        <ele>1917</ele>
        <time>2021-09-01T09:55:22.000Z</time>
      </trkpt>
      <trkpt lat="44.41007" lon="6.37391">
        <ele>1917</ele>
        <time>2021-09-01T09:55:23.000Z</time>
      </trkpt>
      <trkpt lat="44.41006" lon="6.37391">
        <ele>1918</ele>
        <time>2021-09-01T09:55:24.000Z</time>
      </trkpt>
      <trkpt lat="44.41006" lon="6.3739">
        <ele>1919</ele>
        <time>2021-09-01T09:55:25.000Z</time>
      </trkpt>
      <trkpt lat="44.41006" lon="6.3739">
        <ele>1919</ele>
        <time>2021-09-01T09:55:26.000Z</time>
      </trkpt>
      <trkpt lat="44.41006" lon="6.37389">
        <ele>1920</ele>
        <time>2021-09-01T09:55:27.000Z</time>
      </trkpt>
      <trkpt lat="44.41006" lon="6.37389">
        <ele>1920</ele>
        <time>2021-09-01T09:55:28.000Z</time>
      </trkpt>
      <trkpt lat="44.41006" lon="6.37389">
        <ele>1920</ele>
        <time>2021-09-01T09:55:29.000Z</time>
      </trkpt>
      <trkpt lat="44.41006" lon="6.37389">
        <ele>1920</ele>
        <time>2021-09-01T09:55:30.000Z</time>
      </trkpt>
      <trkpt lat="44.41005" lon="6.37389">
        <ele>1921</ele>
        <time>2021-09-01T09:55:31.000Z</time>
      </trkpt>
      <trkpt lat="44.41004" lon="6.37388">
        <ele>1922</ele>
        <time>2021-09-01T09:55:32.000Z</time>
      </trkpt>
      <trkpt lat="44.41004" lon="6.37388">
        <ele>1923</ele>
        <time>2021-09-01T09:55:33.000Z</time>
      </trkpt>
      <trkpt lat="44.41004" lon="6.37387">
        <ele>1923</ele>
        <time>2021-09-01T09:55:34.000Z</time>
      </trkpt>
      <trkpt lat="44.41004" lon="6.37387">
        <ele>1924</ele>
        <time>2021-09-01T09:55:35.000Z</time>
      </trkpt>
      <trkpt lat="44.41004" lon="6.37387">
        <ele>1924</ele>
        <time>2021-09-01T09:55:36.000Z</time>
      </trkpt>
      <trkpt lat="44.41004" lon="6.37386">
        <ele>1925</ele>
        <time>2021-09-01T09:55:37.000Z</time>
      </trkpt>
      <trkpt lat="44.41004" lon="6.37386">
        <ele>1925</ele>
        <time>2021-09-01T09:55:38.000Z</time>
      </trkpt>
      <trkpt lat="44.41003" lon="6.37386">
        <ele>1926</ele>
        <time>2021-09-01T09:55:39.000Z</time>
      </trkpt>
      <trkpt lat="44.41003" lon="6.37386">
        <ele>1926</ele>
        <time>2021-09-01T09:55:40.000Z</time>
      </trkpt>
      <trkpt lat="44.41003" lon="6.37386">
        <ele>1926</ele>
        <time>2021-09-01T09:55:41.000Z</time>
      </trkpt>
      <trkpt lat="44.41002" lon="6.37387">
        <ele>1926</ele>
        <time>2021-09-01T09:55:42.000Z</time>
      </trkpt>
      <trkpt lat="44.41002" lon="6.37387">
        <ele>1926</ele>
        <time>2021-09-01T09:55:43.000Z</time>
      </trkpt>
      <trkpt lat="44.41002" lon="6.37387">
        <ele>1926</ele>
        <time>2021-09-01T09:55:44.000Z</time>
      </trkpt>
      <trkpt lat="44.41002" lon="6.37387">
        <ele>1926</ele>
        <time>2021-09-01T09:55:45.000Z</time>
      </trkpt>
      <trkpt lat="44.41001" lon="6.37388">
        <ele>1925</ele>
        <time>2021-09-01T09:55:46.000Z</time>
      </trkpt>
      <trkpt lat="44.41001" lon="6.37388">
        <ele>1925</ele>
        <time>2021-09-01T09:55:47.000Z</time>
      </trkpt>
      <trkpt lat="44.41001" lon="6.37388">
        <ele>1925</ele>
        <time>2021-09-01T09:55:48.000Z</time>
      </trkpt>
      <trkpt lat="44.41001" lon="6.37388">
        <ele>1925</ele>
        <time>2021-09-01T09:55:49.000Z</time>
      </trkpt>
      <trkpt lat="44.41001" lon="6.37389">
        <ele>1925</ele>
        <time>2021-09-01T09:55:50.000Z</time>
      </trkpt>
      <trkpt lat="44.41" lon="6.37388">
        <ele>1925</ele>
        <time>2021-09-01T09:55:51.000Z</time>
      </trkpt>
      <trkpt lat="44.41" lon="6.37388">
        <ele>1925</ele>
        <time>2021-09-01T09:55:52.000Z</time>
      </trkpt>
      <trkpt lat="44.41" lon="6.37388">
        <ele>1925</ele>
        <time>2021-09-01T09:55:53.000Z</time>
      </trkpt>
      <trkpt lat="44.41" lon="6.37388">
        <ele>1925</ele>
        <time>2021-09-01T09:55:54.000Z</time>
      </trkpt>
      <trkpt lat="44.41" lon="6.37388">
        <ele>1925</ele>
        <time>2021-09-01T09:55:55.000Z</time>
      </trkpt>
      <trkpt lat="44.41" lon="6.37388">
        <ele>1925</ele>
        <time>2021-09-01T09:55:56.000Z</time>
      </trkpt>
      <trkpt lat="44.40999" lon="6.37388">
        <ele>1925</ele>
        <time>2021-09-01T09:55:57.000Z</time>
      </trkpt>
      <trkpt lat="44.40999" lon="6.37388">
        <ele>1925</ele>
        <time>2021-09-01T09:55:58.000Z</time>
      </trkpt>
      <trkpt lat="44.40999" lon="6.37387">
        <ele>1926</ele>
        <time>2021-09-01T09:55:59.000Z</time>
      </trkpt>
      <trkpt lat="44.40999" lon="6.37387">
        <ele>1926</ele>
        <time>2021-09-01T09:56:00.000Z</time>
      </trkpt>
      <trkpt lat="44.40999" lon="6.37387">
        <ele>1927</ele>
        <time>2021-09-01T09:56:01.000Z</time>
      </trkpt>
      <trkpt lat="44.40998" lon="6.37386">
        <ele>1927</ele>
        <time>2021-09-01T09:56:02.000Z</time>
      </trkpt>
      <trkpt lat="44.40998" lon="6.37386">
        <ele>1928</ele>
        <time>2021-09-01T09:56:03.000Z</time>
      </trkpt>
      <trkpt lat="44.40998" lon="6.37385">
        <ele>1929</ele>
        <time>2021-09-01T09:56:04.000Z</time>
      </trkpt>
      <trkpt lat="44.40998" lon="6.37385">
        <ele>1929</ele>
        <time>2021-09-01T09:56:05.000Z</time>
      </trkpt>
      <trkpt lat="44.40998" lon="6.37385">
        <ele>1929</ele>
        <time>2021-09-01T09:56:06.000Z</time>
      </trkpt>
      <trkpt lat="44.40998" lon="6.37385">
        <ele>1930</ele>
        <time>2021-09-01T09:56:07.000Z</time>
      </trkpt>
      <trkpt lat="44.40998" lon="6.37385">
        <ele>1930</ele>
        <time>2021-09-01T09:56:08.000Z</time>
      </trkpt>
      <trkpt lat="44.40998" lon="6.37384">
        <ele>1930</ele>
        <time>2021-09-01T09:56:09.000Z</time>
      </trkpt>
      <trkpt lat="44.40997" lon="6.37384">
        <ele>1930</ele>
        <time>2021-09-01T09:56:10.000Z</time>
      </trkpt>
      <trkpt lat="44.40997" lon="6.37384">
        <ele>1930</ele>
        <time>2021-09-01T09:56:11.000Z</time>
      </trkpt>
      <trkpt lat="44.40997" lon="6.37384">
        <ele>1931</ele>
        <time>2021-09-01T09:56:12.000Z</time>
      </trkpt>
      <trkpt lat="44.40997" lon="6.37384">
        <ele>1931</ele>
        <time>2021-09-01T09:56:13.000Z</time>
      </trkpt>
      <trkpt lat="44.40998" lon="6.37384">
        <ele>1931</ele>
        <time>2021-09-01T09:56:14.000Z</time>
      </trkpt>
      <trkpt lat="44.40998" lon="6.37384">
        <ele>1931</ele>
        <time>2021-09-01T09:56:15.000Z</time>
      </trkpt>
      <trkpt lat="44.40998" lon="6.37384">
        <ele>1931</ele>
        <time>2021-09-01T09:56:16.000Z</time>
      </trkpt>
      <trkpt lat="44.40997" lon="6.37385">
        <ele>1930</ele>
        <time>2021-09-01T09:56:17.000Z</time>
      </trkpt>
      <trkpt lat="44.40998" lon="6.37385">
        <ele>1930</ele>
        <time>2021-09-01T09:56:18.000Z</time>
      </trkpt>
      <trkpt lat="44.40999" lon="6.37385">
        <ele>1929</ele>
        <time>2021-09-01T09:56:19.000Z</time>
      </trkpt>
      <trkpt lat="44.40999" lon="6.37386">
        <ele>1929</ele>
        <time>2021-09-01T09:56:20.000Z</time>
      </trkpt>
      <trkpt lat="44.41" lon="6.37386">
        <ele>1928</ele>
        <time>2021-09-01T09:56:21.000Z</time>
      </trkpt>
      <trkpt lat="44.41001" lon="6.37385">
        <ele>1927</ele>
        <time>2021-09-01T09:56:22.000Z</time>
      </trkpt>
      <trkpt lat="44.41001" lon="6.37385">
        <ele>1927</ele>
        <time>2021-09-01T09:56:23.000Z</time>
      </trkpt>
      <trkpt lat="44.41001" lon="6.37384">
        <ele>1929</ele>
        <time>2021-09-01T09:56:24.000Z</time>
      </trkpt>
      <trkpt lat="44.41001" lon="6.37383">
        <ele>1930</ele>
        <time>2021-09-01T09:56:25.000Z</time>
      </trkpt>
      <trkpt lat="44.41001" lon="6.37384">
        <ele>1929</ele>
        <time>2021-09-01T09:56:26.000Z</time>
      </trkpt>
      <trkpt lat="44.41001" lon="6.37384">
        <ele>1928</ele>
        <time>2021-09-01T09:56:27.000Z</time>
      </trkpt>
      <trkpt lat="44.41001" lon="6.37385">
        <ele>1928</ele>
        <time>2021-09-01T09:56:28.000Z</time>
      </trkpt>
      <trkpt lat="44.41001" lon="6.37385">
        <ele>1927</ele>
        <time>2021-09-01T09:56:29.000Z</time>
      </trkpt>
      <trkpt lat="44.41001" lon="6.37385">
        <ele>1927</ele>
        <time>2021-09-01T09:56:30.000Z</time>
      </trkpt>
      <trkpt lat="44.41" lon="6.37387">
        <ele>1927</ele>
        <time>2021-09-01T09:56:31.000Z</time>
      </trkpt>
      <trkpt lat="44.41001" lon="6.3739">
        <ele>1926</ele>
        <time>2021-09-01T09:56:32.000Z</time>
      </trkpt>
      <trkpt lat="44.41001" lon="6.37392">
        <ele>1926</ele>
        <time>2021-09-01T09:56:33.000Z</time>
      </trkpt>
      <trkpt lat="44.41001" lon="6.37394">
        <ele>1926</ele>
        <time>2021-09-01T09:56:34.000Z</time>
      </trkpt>
      <trkpt lat="44.41001" lon="6.37396">
        <ele>1925</ele>
        <time>2021-09-01T09:56:35.000Z</time>
      </trkpt>
      <trkpt lat="44.41001" lon="6.37398">
        <ele>1925</ele>
        <time>2021-09-01T09:56:36.000Z</time>
      </trkpt>
      <trkpt lat="44.41001" lon="6.374">
        <ele>1924</ele>
        <time>2021-09-01T09:56:37.000Z</time>
      </trkpt>
      <trkpt lat="44.41" lon="6.37402">
        <ele>1924</ele>
        <time>2021-09-01T09:56:38.000Z</time>
      </trkpt>
      <trkpt lat="44.40998" lon="6.37403">
        <ele>1923</ele>
        <time>2021-09-01T09:56:39.000Z</time>
      </trkpt>
      <trkpt lat="44.40999" lon="6.37404">
        <ele>1922</ele>
        <time>2021-09-01T09:56:40.000Z</time>
      </trkpt>
      <trkpt lat="44.40999" lon="6.37403">
        <ele>1921</ele>
        <time>2021-09-01T09:56:41.000Z</time>
      </trkpt>
      <trkpt lat="44.40999" lon="6.37404">
        <ele>1919</ele>
        <time>2021-09-01T09:56:42.000Z</time>
      </trkpt>
      <trkpt lat="44.40999" lon="6.37403">
        <ele>1918</ele>
        <time>2021-09-01T09:56:43.000Z</time>
      </trkpt>
      <trkpt lat="44.40998" lon="6.37402">
        <ele>1917</ele>
        <time>2021-09-01T09:56:44.000Z</time>
      </trkpt>
      <trkpt lat="44.40997" lon="6.37402">
        <ele>1916</ele>
        <time>2021-09-01T09:56:45.000Z</time>
      </trkpt>
      <trkpt lat="44.40996" lon="6.37402">
        <ele>1916</ele>
        <time>2021-09-01T09:56:46.000Z</time>
      </trkpt>
      <trkpt lat="44.40995" lon="6.37401">
        <ele>1916</ele>
        <time>2021-09-01T09:56:47.000Z</time>
      </trkpt>
      <trkpt lat="44.40994" lon="6.37401">
        <ele>1916</ele>
        <time>2021-09-01T09:56:48.000Z</time>
      </trkpt>
      <trkpt lat="44.40993" lon="6.374">
        <ele>1915</ele>
        <time>2021-09-01T09:56:49.000Z</time>
      </trkpt>
      <trkpt lat="44.40991" lon="6.37399">
        <ele>1913</ele>
        <time>2021-09-01T09:56:50.000Z</time>
      </trkpt>
      <trkpt lat="44.4099" lon="6.37398">
        <ele>1913</ele>
        <time>2021-09-01T09:56:51.000Z</time>
      </trkpt>
      <trkpt lat="44.40989" lon="6.37397">
        <ele>1912</ele>
        <time>2021-09-01T09:56:52.000Z</time>
      </trkpt>
      <trkpt lat="44.40987" lon="6.37395">
        <ele>1911</ele>
        <time>2021-09-01T09:56:53.000Z</time>
      </trkpt>
      <trkpt lat="44.40986" lon="6.37392">
        <ele>1911</ele>
        <time>2021-09-01T09:56:54.000Z</time>
      </trkpt>
      <trkpt lat="44.40984" lon="6.37391">
        <ele>1910</ele>
        <time>2021-09-01T09:56:55.000Z</time>
      </trkpt>
      <trkpt lat="44.40983" lon="6.3739">
        <ele>1910</ele>
        <time>2021-09-01T09:56:56.000Z</time>
      </trkpt>
      <trkpt lat="44.40981" lon="6.37389">
        <ele>1909</ele>
        <time>2021-09-01T09:56:57.000Z</time>
      </trkpt>
      <trkpt lat="44.4098" lon="6.37388">
        <ele>1909</ele>
        <time>2021-09-01T09:56:58.000Z</time>
      </trkpt>
      <trkpt lat="44.40978" lon="6.37386">
        <ele>1908</ele>
        <time>2021-09-01T09:56:59.000Z</time>
      </trkpt>
      <trkpt lat="44.40977" lon="6.37385">
        <ele>1908</ele>
        <time>2021-09-01T09:57:00.000Z</time>
      </trkpt>
      <trkpt lat="44.40975" lon="6.37384">
        <ele>1907</ele>
        <time>2021-09-01T09:57:01.000Z</time>
      </trkpt>
      <trkpt lat="44.40973" lon="6.37384">
        <ele>1907</ele>
        <time>2021-09-01T09:57:02.000Z</time>
      </trkpt>
      <trkpt lat="44.40972" lon="6.37383">
        <ele>1907</ele>
        <time>2021-09-01T09:57:03.000Z</time>
      </trkpt>
      <trkpt lat="44.4097" lon="6.37381">
        <ele>1907</ele>
        <time>2021-09-01T09:57:04.000Z</time>
      </trkpt>
      <trkpt lat="44.40969" lon="6.37381">
        <ele>1909</ele>
        <time>2021-09-01T09:57:05.000Z</time>
      </trkpt>
      <trkpt lat="44.40968" lon="6.37379">
        <ele>1909</ele>
        <time>2021-09-01T09:57:06.000Z</time>
      </trkpt>
      <trkpt lat="44.40966" lon="6.37378">
        <ele>1909</ele>
        <time>2021-09-01T09:57:07.000Z</time>
      </trkpt>
      <trkpt lat="44.40964" lon="6.37377">
        <ele>1910</ele>
        <time>2021-09-01T09:57:08.000Z</time>
      </trkpt>
      <trkpt lat="44.40962" lon="6.37376">
        <ele>1910</ele>
        <time>2021-09-01T09:57:09.000Z</time>
      </trkpt>
      <trkpt lat="44.4096" lon="6.37375">
        <ele>1911</ele>
        <time>2021-09-01T09:57:10.000Z</time>
      </trkpt>
      <trkpt lat="44.40959" lon="6.37374">
        <ele>1910</ele>
        <time>2021-09-01T09:57:11.000Z</time>
      </trkpt>
      <trkpt lat="44.40957" lon="6.37374">
        <ele>1909</ele>
        <time>2021-09-01T09:57:12.000Z</time>
      </trkpt>
      <trkpt lat="44.40956" lon="6.37374">
        <ele>1909</ele>
        <time>2021-09-01T09:57:13.000Z</time>
      </trkpt>
      <trkpt lat="44.40954" lon="6.37374">
        <ele>1910</ele>
        <time>2021-09-01T09:57:14.000Z</time>
      </trkpt>
      <trkpt lat="44.40951" lon="6.37373">
        <ele>1911</ele>
        <time>2021-09-01T09:57:15.000Z</time>
      </trkpt>
      <trkpt lat="44.40949" lon="6.37372">
        <ele>1911</ele>
        <time>2021-09-01T09:57:16.000Z</time>
      </trkpt>
      <trkpt lat="44.40947" lon="6.37372">
        <ele>1912</ele>
        <time>2021-09-01T09:57:17.000Z</time>
      </trkpt>
      <trkpt lat="44.40946" lon="6.37371">
        <ele>1912</ele>
        <time>2021-09-01T09:57:18.000Z</time>
      </trkpt>
      <trkpt lat="44.40944" lon="6.37371">
        <ele>1912</ele>
        <time>2021-09-01T09:57:19.000Z</time>
      </trkpt>
      <trkpt lat="44.40941" lon="6.37371">
        <ele>1911</ele>
        <time>2021-09-01T09:57:20.000Z</time>
      </trkpt>
      <trkpt lat="44.40939" lon="6.3737">
        <ele>1912</ele>
        <time>2021-09-01T09:57:21.000Z</time>
      </trkpt>
      <trkpt lat="44.40937" lon="6.37369">
        <ele>1912</ele>
        <time>2021-09-01T09:57:22.000Z</time>
      </trkpt>
      <trkpt lat="44.40935" lon="6.37369">
        <ele>1914</ele>
        <time>2021-09-01T09:57:23.000Z</time>
      </trkpt>
      <trkpt lat="44.40933" lon="6.37369">
        <ele>1914</ele>
        <time>2021-09-01T09:57:24.000Z</time>
      </trkpt>
      <trkpt lat="44.40931" lon="6.37369">
        <ele>1914</ele>
        <time>2021-09-01T09:57:25.000Z</time>
      </trkpt>
      <trkpt lat="44.4093" lon="6.37368">
        <ele>1914</ele>
        <time>2021-09-01T09:57:26.000Z</time>
      </trkpt>
      <trkpt lat="44.40928" lon="6.37368">
        <ele>1914</ele>
        <time>2021-09-01T09:57:27.000Z</time>
      </trkpt>
      <trkpt lat="44.40926" lon="6.37367">
        <ele>1915</ele>
        <time>2021-09-01T09:57:28.000Z</time>
      </trkpt>
      <trkpt lat="44.40924" lon="6.37366">
        <ele>1916</ele>
        <time>2021-09-01T09:57:29.000Z</time>
      </trkpt>
      <trkpt lat="44.40922" lon="6.37366">
        <ele>1916</ele>
        <time>2021-09-01T09:57:30.000Z</time>
      </trkpt>
      <trkpt lat="44.40921" lon="6.37365">
        <ele>1916</ele>
        <time>2021-09-01T09:57:31.000Z</time>
      </trkpt>
      <trkpt lat="44.40919" lon="6.37364">
        <ele>1915</ele>
        <time>2021-09-01T09:57:32.000Z</time>
      </trkpt>
      <trkpt lat="44.40916" lon="6.37364">
        <ele>1916</ele>
        <time>2021-09-01T09:57:33.000Z</time>
      </trkpt>
      <trkpt lat="44.40913" lon="6.37364">
        <ele>1916</ele>
        <time>2021-09-01T09:57:34.000Z</time>
      </trkpt>
      <trkpt lat="44.40911" lon="6.37364">
        <ele>1916</ele>
        <time>2021-09-01T09:57:35.000Z</time>
      </trkpt>
      <trkpt lat="44.40909" lon="6.37364">
        <ele>1916</ele>
        <time>2021-09-01T09:57:36.000Z</time>
      </trkpt>
      <trkpt lat="44.40907" lon="6.37364">
        <ele>1917</ele>
        <time>2021-09-01T09:57:37.000Z</time>
      </trkpt>
      <trkpt lat="44.40905" lon="6.37363">
        <ele>1917</ele>
        <time>2021-09-01T09:57:38.000Z</time>
      </trkpt>
      <trkpt lat="44.40902" lon="6.37364">
        <ele>1916</ele>
        <time>2021-09-01T09:57:39.000Z</time>
      </trkpt>
      <trkpt lat="44.40901" lon="6.37364">
        <ele>1916</ele>
        <time>2021-09-01T09:57:40.000Z</time>
      </trkpt>
      <trkpt lat="44.40899" lon="6.37363">
        <ele>1917</ele>
        <time>2021-09-01T09:57:41.000Z</time>
      </trkpt>
      <trkpt lat="44.40897" lon="6.37364">
        <ele>1917</ele>
        <time>2021-09-01T09:57:42.000Z</time>
      </trkpt>
      <trkpt lat="44.40895" lon="6.37364">
        <ele>1917</ele>
        <time>2021-09-01T09:57:43.000Z</time>
      </trkpt>
      <trkpt lat="44.40892" lon="6.37366">
        <ele>1914</ele>
        <time>2021-09-01T09:57:44.000Z</time>
      </trkpt>
      <trkpt lat="44.4089" lon="6.37366">
        <ele>1914</ele>
        <time>2021-09-01T09:57:45.000Z</time>
      </trkpt>
      <trkpt lat="44.40888" lon="6.37367">
        <ele>1914</ele>
        <time>2021-09-01T09:57:46.000Z</time>
      </trkpt>
      <trkpt lat="44.40887" lon="6.37367">
        <ele>1915</ele>
        <time>2021-09-01T09:57:47.000Z</time>
      </trkpt>
      <trkpt lat="44.40885" lon="6.37368">
        <ele>1915</ele>
        <time>2021-09-01T09:57:48.000Z</time>
      </trkpt>
      <trkpt lat="44.40883" lon="6.37368">
        <ele>1915</ele>
        <time>2021-09-01T09:57:49.000Z</time>
      </trkpt>
      <trkpt lat="44.40882" lon="6.37369">
        <ele>1915</ele>
        <time>2021-09-01T09:57:50.000Z</time>
      </trkpt>
      <trkpt lat="44.4088" lon="6.3737">
        <ele>1915</ele>
        <time>2021-09-01T09:57:51.000Z</time>
      </trkpt>
      <trkpt lat="44.40879" lon="6.37372">
        <ele>1915</ele>
        <time>2021-09-01T09:57:52.000Z</time>
      </trkpt>
      <trkpt lat="44.40879" lon="6.37374">
        <ele>1915</ele>
        <time>2021-09-01T09:57:53.000Z</time>
      </trkpt>
      <trkpt lat="44.40878" lon="6.37377">
        <ele>1915</ele>
        <time>2021-09-01T09:57:54.000Z</time>
      </trkpt>
      <trkpt lat="44.40877" lon="6.37379">
        <ele>1914</ele>
        <time>2021-09-01T09:57:55.000Z</time>
      </trkpt>
      <trkpt lat="44.40876" lon="6.37381">
        <ele>1915</ele>
        <time>2021-09-01T09:57:56.000Z</time>
      </trkpt>
      <trkpt lat="44.40875" lon="6.37383">
        <ele>1914</ele>
        <time>2021-09-01T09:57:57.000Z</time>
      </trkpt>
      <trkpt lat="44.40875" lon="6.37385">
        <ele>1913</ele>
        <time>2021-09-01T09:57:58.000Z</time>
      </trkpt>
      <trkpt lat="44.40874" lon="6.37388">
        <ele>1913</ele>
        <time>2021-09-01T09:57:59.000Z</time>
      </trkpt>
      <trkpt lat="44.40872" lon="6.37389">
        <ele>1912</ele>
        <time>2021-09-01T09:58:00.000Z</time>
      </trkpt>
      <trkpt lat="44.40871" lon="6.37391">
        <ele>1913</ele>
        <time>2021-09-01T09:58:01.000Z</time>
      </trkpt>
      <trkpt lat="44.4087" lon="6.37394">
        <ele>1913</ele>
        <time>2021-09-01T09:58:02.000Z</time>
      </trkpt>
      <trkpt lat="44.4087" lon="6.37396">
        <ele>1914</ele>
        <time>2021-09-01T09:58:03.000Z</time>
      </trkpt>
      <trkpt lat="44.40869" lon="6.37398">
        <ele>1914</ele>
        <time>2021-09-01T09:58:04.000Z</time>
      </trkpt>
      <trkpt lat="44.40869" lon="6.37399">
        <ele>1912</ele>
        <time>2021-09-01T09:58:05.000Z</time>
      </trkpt>
      <trkpt lat="44.40868" lon="6.374">
        <ele>1913</ele>
        <time>2021-09-01T09:58:06.000Z</time>
      </trkpt>
      <trkpt lat="44.40867" lon="6.37401">
        <ele>1913</ele>
        <time>2021-09-01T09:58:07.000Z</time>
      </trkpt>
      <trkpt lat="44.40866" lon="6.37402">
        <ele>1914</ele>
        <time>2021-09-01T09:58:08.000Z</time>
      </trkpt>
      <trkpt lat="44.40866" lon="6.37403">
        <ele>1914</ele>
        <time>2021-09-01T09:58:09.000Z</time>
      </trkpt>
      <trkpt lat="44.40865" lon="6.37403">
        <ele>1915</ele>
        <time>2021-09-01T09:58:10.000Z</time>
      </trkpt>
      <trkpt lat="44.40865" lon="6.37404">
        <ele>1915</ele>
        <time>2021-09-01T09:58:11.000Z</time>
      </trkpt>
      <trkpt lat="44.40864" lon="6.37405">
        <ele>1915</ele>
        <time>2021-09-01T09:58:12.000Z</time>
      </trkpt>
      <trkpt lat="44.40863" lon="6.37406">
        <ele>1915</ele>
        <time>2021-09-01T09:58:13.000Z</time>
      </trkpt>
      <trkpt lat="44.40863" lon="6.37406">
        <ele>1916</ele>
        <time>2021-09-01T09:58:14.000Z</time>
      </trkpt>
      <trkpt lat="44.40862" lon="6.37407">
        <ele>1916</ele>
        <time>2021-09-01T09:58:15.000Z</time>
      </trkpt>
      <trkpt lat="44.40861" lon="6.37408">
        <ele>1916</ele>
        <time>2021-09-01T09:58:16.000Z</time>
      </trkpt>
      <trkpt lat="44.40861" lon="6.37409">
        <ele>1916</ele>
        <time>2021-09-01T09:58:17.000Z</time>
      </trkpt>
      <trkpt lat="44.4086" lon="6.37409">
        <ele>1916</ele>
        <time>2021-09-01T09:58:18.000Z</time>
      </trkpt>
      <trkpt lat="44.4086" lon="6.3741">
        <ele>1916</ele>
        <time>2021-09-01T09:58:19.000Z</time>
      </trkpt>
      <trkpt lat="44.40859" lon="6.37411">
        <ele>1916</ele>
        <time>2021-09-01T09:58:20.000Z</time>
      </trkpt>
      <trkpt lat="44.40858" lon="6.37412">
        <ele>1917</ele>
        <time>2021-09-01T09:58:21.000Z</time>
      </trkpt>
      <trkpt lat="44.40857" lon="6.37413">
        <ele>1917</ele>
        <time>2021-09-01T09:58:22.000Z</time>
      </trkpt>
      <trkpt lat="44.40857" lon="6.37413">
        <ele>1917</ele>
        <time>2021-09-01T09:58:23.000Z</time>
      </trkpt>
      <trkpt lat="44.40857" lon="6.37413">
        <ele>1917</ele>
        <time>2021-09-01T09:58:24.000Z</time>
      </trkpt>
      <trkpt lat="44.40857" lon="6.37413">
        <ele>1917</ele>
        <time>2021-09-01T09:58:25.000Z</time>
      </trkpt>
      <trkpt lat="44.40857" lon="6.37413">
        <ele>1917</ele>
        <time>2021-09-01T09:58:26.000Z</time>
      </trkpt>
      <trkpt lat="44.40856" lon="6.37413">
        <ele>1917</ele>
        <time>2021-09-01T09:58:27.000Z</time>
      </trkpt>
      <trkpt lat="44.40856" lon="6.37413">
        <ele>1917</ele>
        <time>2021-09-01T09:58:28.000Z</time>
      </trkpt>
      <trkpt lat="44.40856" lon="6.37414">
        <ele>1918</ele>
        <time>2021-09-01T09:58:29.000Z</time>
      </trkpt>
      <trkpt lat="44.40855" lon="6.37415">
        <ele>1918</ele>
        <time>2021-09-01T09:58:30.000Z</time>
      </trkpt>
      <trkpt lat="44.40855" lon="6.37416">
        <ele>1917</ele>
        <time>2021-09-01T09:58:31.000Z</time>
      </trkpt>
      <trkpt lat="44.40854" lon="6.37417">
        <ele>1917</ele>
        <time>2021-09-01T09:58:32.000Z</time>
      </trkpt>
      <trkpt lat="44.40854" lon="6.37418">
        <ele>1917</ele>
        <time>2021-09-01T09:58:33.000Z</time>
      </trkpt>
      <trkpt lat="44.40853" lon="6.37419">
        <ele>1917</ele>
        <time>2021-09-01T09:58:34.000Z</time>
      </trkpt>
      <trkpt lat="44.40853" lon="6.3742">
        <ele>1917</ele>
        <time>2021-09-01T09:58:35.000Z</time>
      </trkpt>
      <trkpt lat="44.40853" lon="6.37421">
        <ele>1917</ele>
        <time>2021-09-01T09:58:36.000Z</time>
      </trkpt>
      <trkpt lat="44.40852" lon="6.37423">
        <ele>1917</ele>
        <time>2021-09-01T09:58:37.000Z</time>
      </trkpt>
      <trkpt lat="44.40852" lon="6.37424">
        <ele>1917</ele>
        <time>2021-09-01T09:58:38.000Z</time>
      </trkpt>
      <trkpt lat="44.40851" lon="6.37424">
        <ele>1917</ele>
        <time>2021-09-01T09:58:39.000Z</time>
      </trkpt>
      <trkpt lat="44.40851" lon="6.37424">
        <ele>1917</ele>
        <time>2021-09-01T09:58:40.000Z</time>
      </trkpt>
      <trkpt lat="44.40851" lon="6.37424">
        <ele>1917</ele>
        <time>2021-09-01T09:58:41.000Z</time>
      </trkpt>
      <trkpt lat="44.40851" lon="6.37424">
        <ele>1917</ele>
        <time>2021-09-01T09:58:42.000Z</time>
      </trkpt>
      <trkpt lat="44.40851" lon="6.37424">
        <ele>1917</ele>
        <time>2021-09-01T09:58:43.000Z</time>
      </trkpt>
      <trkpt lat="44.4085" lon="6.37425">
        <ele>1917</ele>
        <time>2021-09-01T09:58:44.000Z</time>
      </trkpt>
      <trkpt lat="44.4085" lon="6.37424">
        <ele>1917</ele>
        <time>2021-09-01T09:58:45.000Z</time>
      </trkpt>
      <trkpt lat="44.4085" lon="6.37424">
        <ele>1917</ele>
        <time>2021-09-01T09:58:46.000Z</time>
      </trkpt>
      <trkpt lat="44.4085" lon="6.37424">
        <ele>1918</ele>
        <time>2021-09-01T09:58:47.000Z</time>
      </trkpt>
      <trkpt lat="44.4085" lon="6.37424">
        <ele>1918</ele>
        <time>2021-09-01T09:58:48.000Z</time>
      </trkpt>
      <trkpt lat="44.40849" lon="6.37424">
        <ele>1920</ele>
        <time>2021-09-01T09:58:49.000Z</time>
      </trkpt>
      <trkpt lat="44.40848" lon="6.37424">
        <ele>1921</ele>
        <time>2021-09-01T09:58:50.000Z</time>
      </trkpt>
      <trkpt lat="44.40848" lon="6.37423">
        <ele>1922</ele>
        <time>2021-09-01T09:58:51.000Z</time>
      </trkpt>
      <trkpt lat="44.40848" lon="6.37423">
        <ele>1922</ele>
        <time>2021-09-01T09:58:52.000Z</time>
      </trkpt>
      <trkpt lat="44.40848" lon="6.37423">
        <ele>1922</ele>
        <time>2021-09-01T09:58:53.000Z</time>
      </trkpt>
      <trkpt lat="44.40848" lon="6.37422">
        <ele>1922</ele>
        <time>2021-09-01T09:58:54.000Z</time>
      </trkpt>
      <trkpt lat="44.40848" lon="6.37422">
        <ele>1923</ele>
        <time>2021-09-01T09:58:55.000Z</time>
      </trkpt>
      <trkpt lat="44.40848" lon="6.37421">
        <ele>1923</ele>
        <time>2021-09-01T09:58:56.000Z</time>
      </trkpt>
      <trkpt lat="44.40848" lon="6.37421">
        <ele>1924</ele>
        <time>2021-09-01T09:58:57.000Z</time>
      </trkpt>
      <trkpt lat="44.40848" lon="6.37421">
        <ele>1924</ele>
        <time>2021-09-01T09:58:58.000Z</time>
      </trkpt>
      <trkpt lat="44.40848" lon="6.37421">
        <ele>1924</ele>
        <time>2021-09-01T09:58:59.000Z</time>
      </trkpt>
      <trkpt lat="44.40848" lon="6.37421">
        <ele>1924</ele>
        <time>2021-09-01T09:59:00.000Z</time>
      </trkpt>
      <trkpt lat="44.40848" lon="6.37421">
        <ele>1924</ele>
        <time>2021-09-01T09:59:01.000Z</time>
      </trkpt>
      <trkpt lat="44.40848" lon="6.37421">
        <ele>1924</ele>
        <time>2021-09-01T09:59:02.000Z</time>
      </trkpt>
      <trkpt lat="44.40848" lon="6.3742">
        <ele>1925</ele>
        <time>2021-09-01T09:59:03.000Z</time>
      </trkpt>
      <trkpt lat="44.40848" lon="6.3742">
        <ele>1924</ele>
        <time>2021-09-01T09:59:04.000Z</time>
      </trkpt>
      <trkpt lat="44.40847" lon="6.3742">
        <ele>1925</ele>
        <time>2021-09-01T09:59:05.000Z</time>
      </trkpt>
      <trkpt lat="44.40847" lon="6.37422">
        <ele>1924</ele>
        <time>2021-09-01T09:59:06.000Z</time>
      </trkpt>
      <trkpt lat="44.40847" lon="6.37423">
        <ele>1925</ele>
        <time>2021-09-01T09:59:07.000Z</time>
      </trkpt>
      <trkpt lat="44.40847" lon="6.37423">
        <ele>1925</ele>
        <time>2021-09-01T09:59:08.000Z</time>
      </trkpt>
      <trkpt lat="44.40847" lon="6.37424">
        <ele>1925</ele>
        <time>2021-09-01T09:59:09.000Z</time>
      </trkpt>
      <trkpt lat="44.40846" lon="6.37424">
        <ele>1926</ele>
        <time>2021-09-01T09:59:10.000Z</time>
      </trkpt>
      <trkpt lat="44.40846" lon="6.37425">
        <ele>1927</ele>
        <time>2021-09-01T09:59:11.000Z</time>
      </trkpt>
      <trkpt lat="44.40846" lon="6.37425">
        <ele>1927</ele>
        <time>2021-09-01T09:59:12.000Z</time>
      </trkpt>
      <trkpt lat="44.40846" lon="6.37427">
        <ele>1927</ele>
        <time>2021-09-01T09:59:13.000Z</time>
      </trkpt>
      <trkpt lat="44.40845" lon="6.37427">
        <ele>1927</ele>
        <time>2021-09-01T09:59:14.000Z</time>
      </trkpt>
      <trkpt lat="44.40845" lon="6.37427">
        <ele>1928</ele>
        <time>2021-09-01T09:59:15.000Z</time>
      </trkpt>
      <trkpt lat="44.40844" lon="6.37427">
        <ele>1929</ele>
        <time>2021-09-01T09:59:16.000Z</time>
      </trkpt>
      <trkpt lat="44.40844" lon="6.37427">
        <ele>1929</ele>
        <time>2021-09-01T09:59:17.000Z</time>
      </trkpt>
      <trkpt lat="44.40844" lon="6.37429">
        <ele>1926</ele>
        <time>2021-09-01T09:59:18.000Z</time>
      </trkpt>
      <trkpt lat="44.40844" lon="6.37428">
        <ele>1927</ele>
        <time>2021-09-01T09:59:19.000Z</time>
      </trkpt>
      <trkpt lat="44.40844" lon="6.37428">
        <ele>1928</ele>
        <time>2021-09-01T09:59:20.000Z</time>
      </trkpt>
      <trkpt lat="44.40844" lon="6.37428">
        <ele>1928</ele>
        <time>2021-09-01T09:59:21.000Z</time>
      </trkpt>
      <trkpt lat="44.40843" lon="6.37428">
        <ele>1928</ele>
        <time>2021-09-01T09:59:22.000Z</time>
      </trkpt>
      <trkpt lat="44.40843" lon="6.37429">
        <ele>1927</ele>
        <time>2021-09-01T09:59:23.000Z</time>
      </trkpt>
      <trkpt lat="44.40843" lon="6.37429">
        <ele>1927</ele>
        <time>2021-09-01T09:59:24.000Z</time>
      </trkpt>
      <trkpt lat="44.40842" lon="6.3743">
        <ele>1927</ele>
        <time>2021-09-01T09:59:25.000Z</time>
      </trkpt>
      <trkpt lat="44.40842" lon="6.37431">
        <ele>1927</ele>
        <time>2021-09-01T09:59:26.000Z</time>
      </trkpt>
      <trkpt lat="44.40842" lon="6.37431">
        <ele>1927</ele>
        <time>2021-09-01T09:59:27.000Z</time>
      </trkpt>
      <trkpt lat="44.40842" lon="6.37431">
        <ele>1927</ele>
        <time>2021-09-01T09:59:28.000Z</time>
      </trkpt>
      <trkpt lat="44.40842" lon="6.37431">
        <ele>1927</ele>
        <time>2021-09-01T09:59:29.000Z</time>
      </trkpt>
      <trkpt lat="44.40842" lon="6.37432">
        <ele>1927</ele>
        <time>2021-09-01T09:59:30.000Z</time>
      </trkpt>
      <trkpt lat="44.40842" lon="6.37432">
        <ele>1926</ele>
        <time>2021-09-01T09:59:31.000Z</time>
      </trkpt>
      <trkpt lat="44.40841" lon="6.37432">
        <ele>1927</ele>
        <time>2021-09-01T09:59:32.000Z</time>
      </trkpt>
      <trkpt lat="44.40841" lon="6.37432">
        <ele>1926</ele>
        <time>2021-09-01T09:59:33.000Z</time>
      </trkpt>
      <trkpt lat="44.4084" lon="6.37433">
        <ele>1926</ele>
        <time>2021-09-01T09:59:34.000Z</time>
      </trkpt>
      <trkpt lat="44.40838" lon="6.37434">
        <ele>1926</ele>
        <time>2021-09-01T09:59:35.000Z</time>
      </trkpt>
      <trkpt lat="44.40836" lon="6.37434">
        <ele>1926</ele>
        <time>2021-09-01T09:59:36.000Z</time>
      </trkpt>
      <trkpt lat="44.40834" lon="6.37434">
        <ele>1925</ele>
        <time>2021-09-01T09:59:37.000Z</time>
      </trkpt>
      <trkpt lat="44.40831" lon="6.37433">
        <ele>1925</ele>
        <time>2021-09-01T09:59:38.000Z</time>
      </trkpt>
      <trkpt lat="44.40829" lon="6.37431">
        <ele>1924</ele>
        <time>2021-09-01T09:59:39.000Z</time>
      </trkpt>
      <trkpt lat="44.40827" lon="6.37429">
        <ele>1923</ele>
        <time>2021-09-01T09:59:40.000Z</time>
      </trkpt>
      <trkpt lat="44.40825" lon="6.37428">
        <ele>1922</ele>
        <time>2021-09-01T09:59:41.000Z</time>
      </trkpt>
      <trkpt lat="44.40824" lon="6.37427">
        <ele>1921</ele>
        <time>2021-09-01T09:59:42.000Z</time>
      </trkpt>
      <trkpt lat="44.40822" lon="6.37426">
        <ele>1920</ele>
        <time>2021-09-01T09:59:43.000Z</time>
      </trkpt>
      <trkpt lat="44.40821" lon="6.37424">
        <ele>1920</ele>
        <time>2021-09-01T09:59:44.000Z</time>
      </trkpt>
      <trkpt lat="44.4082" lon="6.37423">
        <ele>1919</ele>
        <time>2021-09-01T09:59:45.000Z</time>
      </trkpt>
      <trkpt lat="44.40818" lon="6.37421">
        <ele>1919</ele>
        <time>2021-09-01T09:59:46.000Z</time>
      </trkpt>
      <trkpt lat="44.40817" lon="6.37419">
        <ele>1920</ele>
        <time>2021-09-01T09:59:47.000Z</time>
      </trkpt>
      <trkpt lat="44.40816" lon="6.37418">
        <ele>1920</ele>
        <time>2021-09-01T09:59:48.000Z</time>
      </trkpt>
      <trkpt lat="44.40815" lon="6.37416">
        <ele>1919</ele>
        <time>2021-09-01T09:59:49.000Z</time>
      </trkpt>
      <trkpt lat="44.40814" lon="6.37414">
        <ele>1920</ele>
        <time>2021-09-01T09:59:50.000Z</time>
      </trkpt>
      <trkpt lat="44.40812" lon="6.37411">
        <ele>1920</ele>
        <time>2021-09-01T09:59:51.000Z</time>
      </trkpt>
      <trkpt lat="44.40811" lon="6.3741">
        <ele>1920</ele>
        <time>2021-09-01T09:59:52.000Z</time>
      </trkpt>
      <trkpt lat="44.40809" lon="6.37409">
        <ele>1919</ele>
        <time>2021-09-01T09:59:53.000Z</time>
      </trkpt>
      <trkpt lat="44.40809" lon="6.37406">
        <ele>1920</ele>
        <time>2021-09-01T09:59:54.000Z</time>
      </trkpt>
      <trkpt lat="44.40807" lon="6.37404">
        <ele>1920</ele>
        <time>2021-09-01T09:59:55.000Z</time>
      </trkpt>
      <trkpt lat="44.40806" lon="6.37401">
        <ele>1920</ele>
        <time>2021-09-01T09:59:56.000Z</time>
      </trkpt>
      <trkpt lat="44.40805" lon="6.374">
        <ele>1920</ele>
        <time>2021-09-01T09:59:57.000Z</time>
      </trkpt>
      <trkpt lat="44.40804" lon="6.37399">
        <ele>1920</ele>
        <time>2021-09-01T09:59:58.000Z</time>
      </trkpt>
      <trkpt lat="44.40803" lon="6.37397">
        <ele>1920</ele>
        <time>2021-09-01T09:59:59.000Z</time>
      </trkpt>
      <trkpt lat="44.40802" lon="6.37396">
        <ele>1921</ele>
        <time>2021-09-01T10:00:00.000Z</time>
      </trkpt>
      <trkpt lat="44.40802" lon="6.37394">
        <ele>1920</ele>
        <time>2021-09-01T10:00:01.000Z</time>
      </trkpt>
      <trkpt lat="44.408" lon="6.37393">
        <ele>1920</ele>
        <time>2021-09-01T10:00:02.000Z</time>
      </trkpt>
      <trkpt lat="44.40799" lon="6.37392">
        <ele>1921</ele>
        <time>2021-09-01T10:00:03.000Z</time>
      </trkpt>
      <trkpt lat="44.40798" lon="6.37391">
        <ele>1921</ele>
        <time>2021-09-01T10:00:04.000Z</time>
      </trkpt>
      <trkpt lat="44.40796" lon="6.3739">
        <ele>1922</ele>
        <time>2021-09-01T10:00:05.000Z</time>
      </trkpt>
      <trkpt lat="44.40795" lon="6.37389">
        <ele>1921</ele>
        <time>2021-09-01T10:00:06.000Z</time>
      </trkpt>
      <trkpt lat="44.40793" lon="6.37388">
        <ele>1921</ele>
        <time>2021-09-01T10:00:07.000Z</time>
      </trkpt>
      <trkpt lat="44.40792" lon="6.37387">
        <ele>1922</ele>
        <time>2021-09-01T10:00:08.000Z</time>
      </trkpt>
      <trkpt lat="44.40791" lon="6.37387">
        <ele>1922</ele>
        <time>2021-09-01T10:00:09.000Z</time>
      </trkpt>
      <trkpt lat="44.40791" lon="6.37387">
        <ele>1922</ele>
        <time>2021-09-01T10:00:10.000Z</time>
      </trkpt>
      <trkpt lat="44.40789" lon="6.37387">
        <ele>1922</ele>
        <time>2021-09-01T10:00:11.000Z</time>
      </trkpt>
      <trkpt lat="44.40788" lon="6.37387">
        <ele>1922</ele>
        <time>2021-09-01T10:00:12.000Z</time>
      </trkpt>
      <trkpt lat="44.40786" lon="6.37387">
        <ele>1922</ele>
        <time>2021-09-01T10:00:13.000Z</time>
      </trkpt>
      <trkpt lat="44.40785" lon="6.37387">
        <ele>1923</ele>
        <time>2021-09-01T10:00:14.000Z</time>
      </trkpt>
      <trkpt lat="44.40783" lon="6.37388">
        <ele>1923</ele>
        <time>2021-09-01T10:00:15.000Z</time>
      </trkpt>
      <trkpt lat="44.40782" lon="6.37388">
        <ele>1924</ele>
        <time>2021-09-01T10:00:16.000Z</time>
      </trkpt>
      <trkpt lat="44.4078" lon="6.37388">
        <ele>1924</ele>
        <time>2021-09-01T10:00:17.000Z</time>
      </trkpt>
      <trkpt lat="44.40779" lon="6.37389">
        <ele>1924</ele>
        <time>2021-09-01T10:00:18.000Z</time>
      </trkpt>
      <trkpt lat="44.40777" lon="6.37389">
        <ele>1924</ele>
        <time>2021-09-01T10:00:19.000Z</time>
      </trkpt>
      <trkpt lat="44.40775" lon="6.3739">
        <ele>1924</ele>
        <time>2021-09-01T10:00:20.000Z</time>
      </trkpt>
      <trkpt lat="44.40774" lon="6.37391">
        <ele>1924</ele>
        <time>2021-09-01T10:00:21.000Z</time>
      </trkpt>
      <trkpt lat="44.40772" lon="6.37391">
        <ele>1924</ele>
        <time>2021-09-01T10:00:22.000Z</time>
      </trkpt>
      <trkpt lat="44.40771" lon="6.37391">
        <ele>1924</ele>
        <time>2021-09-01T10:00:23.000Z</time>
      </trkpt>
      <trkpt lat="44.40771" lon="6.37393">
        <ele>1925</ele>
        <time>2021-09-01T10:00:24.000Z</time>
      </trkpt>
      <trkpt lat="44.4077" lon="6.37393">
        <ele>1924</ele>
        <time>2021-09-01T10:00:25.000Z</time>
      </trkpt>
      <trkpt lat="44.40769" lon="6.37394">
        <ele>1924</ele>
        <time>2021-09-01T10:00:26.000Z</time>
      </trkpt>
      <trkpt lat="44.40767" lon="6.37394">
        <ele>1924</ele>
        <time>2021-09-01T10:00:27.000Z</time>
      </trkpt>
      <trkpt lat="44.40765" lon="6.37395">
        <ele>1926</ele>
        <time>2021-09-01T10:00:28.000Z</time>
      </trkpt>
      <trkpt lat="44.40764" lon="6.37396">
        <ele>1926</ele>
        <time>2021-09-01T10:00:29.000Z</time>
      </trkpt>
      <trkpt lat="44.40762" lon="6.37396">
        <ele>1926</ele>
        <time>2021-09-01T10:00:30.000Z</time>
      </trkpt>
      <trkpt lat="44.4076" lon="6.37397">
        <ele>1927</ele>
        <time>2021-09-01T10:00:31.000Z</time>
      </trkpt>
      <trkpt lat="44.40757" lon="6.37397">
        <ele>1928</ele>
        <time>2021-09-01T10:00:32.000Z</time>
      </trkpt>
      <trkpt lat="44.40755" lon="6.37397">
        <ele>1928</ele>
        <time>2021-09-01T10:00:33.000Z</time>
      </trkpt>
      <trkpt lat="44.40752" lon="6.37397">
        <ele>1929</ele>
        <time>2021-09-01T10:00:34.000Z</time>
      </trkpt>
      <trkpt lat="44.40751" lon="6.37397">
        <ele>1929</ele>
        <time>2021-09-01T10:00:35.000Z</time>
      </trkpt>
      <trkpt lat="44.40748" lon="6.37398">
        <ele>1931</ele>
        <time>2021-09-01T10:00:36.000Z</time>
      </trkpt>
      <trkpt lat="44.40746" lon="6.37398">
        <ele>1932</ele>
        <time>2021-09-01T10:00:37.000Z</time>
      </trkpt>
      <trkpt lat="44.40744" lon="6.37398">
        <ele>1933</ele>
        <time>2021-09-01T10:00:38.000Z</time>
      </trkpt>
      <trkpt lat="44.40741" lon="6.37398">
        <ele>1934</ele>
        <time>2021-09-01T10:00:39.000Z</time>
      </trkpt>
      <trkpt lat="44.40739" lon="6.37398">
        <ele>1934</ele>
        <time>2021-09-01T10:00:40.000Z</time>
      </trkpt>
      <trkpt lat="44.40737" lon="6.37399">
        <ele>1934</ele>
        <time>2021-09-01T10:00:41.000Z</time>
      </trkpt>
      <trkpt lat="44.40736" lon="6.37399">
        <ele>1933</ele>
        <time>2021-09-01T10:00:42.000Z</time>
      </trkpt>
      <trkpt lat="44.40734" lon="6.374">
        <ele>1934</ele>
        <time>2021-09-01T10:00:43.000Z</time>
      </trkpt>
      <trkpt lat="44.40733" lon="6.37401">
        <ele>1935</ele>
        <time>2021-09-01T10:00:44.000Z</time>
      </trkpt>
      <trkpt lat="44.40732" lon="6.37401">
        <ele>1935</ele>
        <time>2021-09-01T10:00:45.000Z</time>
      </trkpt>
      <trkpt lat="44.40731" lon="6.37403">
        <ele>1935</ele>
        <time>2021-09-01T10:00:46.000Z</time>
      </trkpt>
      <trkpt lat="44.4073" lon="6.37405">
        <ele>1937</ele>
        <time>2021-09-01T10:00:47.000Z</time>
      </trkpt>
      <trkpt lat="44.4073" lon="6.37406">
        <ele>1937</ele>
        <time>2021-09-01T10:00:48.000Z</time>
      </trkpt>
      <trkpt lat="44.40729" lon="6.37407">
        <ele>1937</ele>
        <time>2021-09-01T10:00:49.000Z</time>
      </trkpt>
      <trkpt lat="44.40728" lon="6.37408">
        <ele>1937</ele>
        <time>2021-09-01T10:00:50.000Z</time>
      </trkpt>
      <trkpt lat="44.40728" lon="6.37409">
        <ele>1938</ele>
        <time>2021-09-01T10:00:51.000Z</time>
      </trkpt>
      <trkpt lat="44.40727" lon="6.37411">
        <ele>1939</ele>
        <time>2021-09-01T10:00:52.000Z</time>
      </trkpt>
      <trkpt lat="44.40727" lon="6.37412">
        <ele>1939</ele>
        <time>2021-09-01T10:00:53.000Z</time>
      </trkpt>
      <trkpt lat="44.40726" lon="6.37413">
        <ele>1939</ele>
        <time>2021-09-01T10:00:54.000Z</time>
      </trkpt>
      <trkpt lat="44.40725" lon="6.37414">
        <ele>1940</ele>
        <time>2021-09-01T10:00:55.000Z</time>
      </trkpt>
      <trkpt lat="44.40725" lon="6.37416">
        <ele>1940</ele>
        <time>2021-09-01T10:00:56.000Z</time>
      </trkpt>
      <trkpt lat="44.40723" lon="6.37418">
        <ele>1940</ele>
        <time>2021-09-01T10:00:57.000Z</time>
      </trkpt>
      <trkpt lat="44.40722" lon="6.37419">
        <ele>1940</ele>
        <time>2021-09-01T10:00:58.000Z</time>
      </trkpt>
      <trkpt lat="44.4072" lon="6.37419">
        <ele>1940</ele>
        <time>2021-09-01T10:00:59.000Z</time>
      </trkpt>
      <trkpt lat="44.40717" lon="6.37419">
        <ele>1942</ele>
        <time>2021-09-01T10:01:00.000Z</time>
      </trkpt>
      <trkpt lat="44.40715" lon="6.3742">
        <ele>1943</ele>
        <time>2021-09-01T10:01:01.000Z</time>
      </trkpt>
      <trkpt lat="44.40713" lon="6.37419">
        <ele>1945</ele>
        <time>2021-09-01T10:01:02.000Z</time>
      </trkpt>
      <trkpt lat="44.40712" lon="6.37419">
        <ele>1946</ele>
        <time>2021-09-01T10:01:03.000Z</time>
      </trkpt>
      <trkpt lat="44.40709" lon="6.3742">
        <ele>1946</ele>
        <time>2021-09-01T10:01:04.000Z</time>
      </trkpt>
      <trkpt lat="44.40708" lon="6.3742">
        <ele>1945</ele>
        <time>2021-09-01T10:01:05.000Z</time>
      </trkpt>
      <trkpt lat="44.40707" lon="6.37423">
        <ele>1944</ele>
        <time>2021-09-01T10:01:06.000Z</time>
      </trkpt>
      <trkpt lat="44.40707" lon="6.37425">
        <ele>1945</ele>
        <time>2021-09-01T10:01:07.000Z</time>
      </trkpt>
      <trkpt lat="44.40705" lon="6.37426">
        <ele>1945</ele>
        <time>2021-09-01T10:01:08.000Z</time>
      </trkpt>
      <trkpt lat="44.40704" lon="6.37427">
        <ele>1945</ele>
        <time>2021-09-01T10:01:09.000Z</time>
      </trkpt>
      <trkpt lat="44.40702" lon="6.37427">
        <ele>1946</ele>
        <time>2021-09-01T10:01:10.000Z</time>
      </trkpt>
      <trkpt lat="44.40701" lon="6.37428">
        <ele>1945</ele>
        <time>2021-09-01T10:01:11.000Z</time>
      </trkpt>
      <trkpt lat="44.40699" lon="6.37428">
        <ele>1945</ele>
        <time>2021-09-01T10:01:12.000Z</time>
      </trkpt>
      <trkpt lat="44.40696" lon="6.37428">
        <ele>1946</ele>
        <time>2021-09-01T10:01:13.000Z</time>
      </trkpt>
      <trkpt lat="44.40694" lon="6.37427">
        <ele>1945</ele>
        <time>2021-09-01T10:01:14.000Z</time>
      </trkpt>
      <trkpt lat="44.40692" lon="6.37427">
        <ele>1946</ele>
        <time>2021-09-01T10:01:15.000Z</time>
      </trkpt>
      <trkpt lat="44.4069" lon="6.37427">
        <ele>1946</ele>
        <time>2021-09-01T10:01:16.000Z</time>
      </trkpt>
      <trkpt lat="44.40688" lon="6.37427">
        <ele>1944</ele>
        <time>2021-09-01T10:01:17.000Z</time>
      </trkpt>
      <trkpt lat="44.40686" lon="6.37427">
        <ele>1942</ele>
        <time>2021-09-01T10:01:18.000Z</time>
      </trkpt>
      <trkpt lat="44.40684" lon="6.37427">
        <ele>1942</ele>
        <time>2021-09-01T10:01:19.000Z</time>
      </trkpt>
      <trkpt lat="44.40682" lon="6.37426">
        <ele>1943</ele>
        <time>2021-09-01T10:01:20.000Z</time>
      </trkpt>
      <trkpt lat="44.40681" lon="6.37426">
        <ele>1944</ele>
        <time>2021-09-01T10:01:21.000Z</time>
      </trkpt>
      <trkpt lat="44.40678" lon="6.37427">
        <ele>1944</ele>
        <time>2021-09-01T10:01:22.000Z</time>
      </trkpt>
      <trkpt lat="44.40677" lon="6.37427">
        <ele>1944</ele>
        <time>2021-09-01T10:01:23.000Z</time>
      </trkpt>
      <trkpt lat="44.40674" lon="6.37429">
        <ele>1942</ele>
        <time>2021-09-01T10:01:24.000Z</time>
      </trkpt>
      <trkpt lat="44.40673" lon="6.37429">
        <ele>1943</ele>
        <time>2021-09-01T10:01:25.000Z</time>
      </trkpt>
      <trkpt lat="44.4067" lon="6.3743">
        <ele>1943</ele>
        <time>2021-09-01T10:01:26.000Z</time>
      </trkpt>
      <trkpt lat="44.40668" lon="6.3743">
        <ele>1943</ele>
        <time>2021-09-01T10:01:27.000Z</time>
      </trkpt>
      <trkpt lat="44.40666" lon="6.37431">
        <ele>1943</ele>
        <time>2021-09-01T10:01:28.000Z</time>
      </trkpt>
      <trkpt lat="44.40664" lon="6.37432">
        <ele>1942</ele>
        <time>2021-09-01T10:01:29.000Z</time>
      </trkpt>
      <trkpt lat="44.40662" lon="6.37432">
        <ele>1943</ele>
        <time>2021-09-01T10:01:30.000Z</time>
      </trkpt>
      <trkpt lat="44.4066" lon="6.37433">
        <ele>1942</ele>
        <time>2021-09-01T10:01:31.000Z</time>
      </trkpt>
      <trkpt lat="44.40658" lon="6.37435">
        <ele>1941</ele>
        <time>2021-09-01T10:01:32.000Z</time>
      </trkpt>
      <trkpt lat="44.40657" lon="6.37435">
        <ele>1942</ele>
        <time>2021-09-01T10:01:33.000Z</time>
      </trkpt>
      <trkpt lat="44.40655" lon="6.37436">
        <ele>1941</ele>
        <time>2021-09-01T10:01:34.000Z</time>
      </trkpt>
      <trkpt lat="44.40653" lon="6.37438">
        <ele>1941</ele>
        <time>2021-09-01T10:01:35.000Z</time>
      </trkpt>
      <trkpt lat="44.40651" lon="6.37438">
        <ele>1941</ele>
        <time>2021-09-01T10:01:36.000Z</time>
      </trkpt>
      <trkpt lat="44.4065" lon="6.37439">
        <ele>1941</ele>
        <time>2021-09-01T10:01:37.000Z</time>
      </trkpt>
      <trkpt lat="44.40649" lon="6.3744">
        <ele>1942</ele>
        <time>2021-09-01T10:01:38.000Z</time>
      </trkpt>
      <trkpt lat="44.40648" lon="6.37441">
        <ele>1943</ele>
        <time>2021-09-01T10:01:39.000Z</time>
      </trkpt>
      <trkpt lat="44.40647" lon="6.37442">
        <ele>1943</ele>
        <time>2021-09-01T10:01:40.000Z</time>
      </trkpt>
      <trkpt lat="44.40646" lon="6.37443">
        <ele>1944</ele>
        <time>2021-09-01T10:01:41.000Z</time>
      </trkpt>
      <trkpt lat="44.40644" lon="6.37445">
        <ele>1945</ele>
        <time>2021-09-01T10:01:42.000Z</time>
      </trkpt>
      <trkpt lat="44.40642" lon="6.37446">
        <ele>1945</ele>
        <time>2021-09-01T10:01:43.000Z</time>
      </trkpt>
      <trkpt lat="44.40641" lon="6.37447">
        <ele>1944</ele>
        <time>2021-09-01T10:01:44.000Z</time>
      </trkpt>
      <trkpt lat="44.4064" lon="6.3745">
        <ele>1943</ele>
        <time>2021-09-01T10:01:45.000Z</time>
      </trkpt>
      <trkpt lat="44.40639" lon="6.37452">
        <ele>1944</ele>
        <time>2021-09-01T10:01:46.000Z</time>
      </trkpt>
      <trkpt lat="44.40638" lon="6.37452">
        <ele>1944</ele>
        <time>2021-09-01T10:01:47.000Z</time>
      </trkpt>
      <trkpt lat="44.40637" lon="6.37453">
        <ele>1945</ele>
        <time>2021-09-01T10:01:48.000Z</time>
      </trkpt>
      <trkpt lat="44.40636" lon="6.37455">
        <ele>1945</ele>
        <time>2021-09-01T10:01:49.000Z</time>
      </trkpt>
      <trkpt lat="44.40634" lon="6.37457">
        <ele>1945</ele>
        <time>2021-09-01T10:01:50.000Z</time>
      </trkpt>
      <trkpt lat="44.40633" lon="6.37458">
        <ele>1945</ele>
        <time>2021-09-01T10:01:51.000Z</time>
      </trkpt>
      <trkpt lat="44.40631" lon="6.3746">
        <ele>1946</ele>
        <time>2021-09-01T10:01:52.000Z</time>
      </trkpt>
      <trkpt lat="44.40629" lon="6.37461">
        <ele>1946</ele>
        <time>2021-09-01T10:01:53.000Z</time>
      </trkpt>
      <trkpt lat="44.40628" lon="6.37462">
        <ele>1946</ele>
        <time>2021-09-01T10:01:54.000Z</time>
      </trkpt>
      <trkpt lat="44.40627" lon="6.37464">
        <ele>1946</ele>
        <time>2021-09-01T10:01:55.000Z</time>
      </trkpt>
      <trkpt lat="44.40627" lon="6.37466">
        <ele>1946</ele>
        <time>2021-09-01T10:01:56.000Z</time>
      </trkpt>
      <trkpt lat="44.40625" lon="6.37467">
        <ele>1946</ele>
        <time>2021-09-01T10:01:57.000Z</time>
      </trkpt>
      <trkpt lat="44.40624" lon="6.37468">
        <ele>1946</ele>
        <time>2021-09-01T10:01:58.000Z</time>
      </trkpt>
      <trkpt lat="44.40623" lon="6.37471">
        <ele>1944</ele>
        <time>2021-09-01T10:01:59.000Z</time>
      </trkpt>
      <trkpt lat="44.40621" lon="6.37473">
        <ele>1943</ele>
        <time>2021-09-01T10:02:00.000Z</time>
      </trkpt>
      <trkpt lat="44.4062" lon="6.37476">
        <ele>1944</ele>
        <time>2021-09-01T10:02:01.000Z</time>
      </trkpt>
      <trkpt lat="44.40619" lon="6.37477">
        <ele>1945</ele>
        <time>2021-09-01T10:02:02.000Z</time>
      </trkpt>
      <trkpt lat="44.40618" lon="6.37479">
        <ele>1945</ele>
        <time>2021-09-01T10:02:03.000Z</time>
      </trkpt>
      <trkpt lat="44.40617" lon="6.37482">
        <ele>1945</ele>
        <time>2021-09-01T10:02:04.000Z</time>
      </trkpt>
      <trkpt lat="44.40616" lon="6.37484">
        <ele>1946</ele>
        <time>2021-09-01T10:02:05.000Z</time>
      </trkpt>
      <trkpt lat="44.40615" lon="6.37487">
        <ele>1947</ele>
        <time>2021-09-01T10:02:06.000Z</time>
      </trkpt>
      <trkpt lat="44.40614" lon="6.37488">
        <ele>1948</ele>
        <time>2021-09-01T10:02:07.000Z</time>
      </trkpt>
      <trkpt lat="44.40613" lon="6.37491">
        <ele>1948</ele>
        <time>2021-09-01T10:02:08.000Z</time>
      </trkpt>
      <trkpt lat="44.40612" lon="6.37493">
        <ele>1948</ele>
        <time>2021-09-01T10:02:09.000Z</time>
      </trkpt>
      <trkpt lat="44.4061" lon="6.37495">
        <ele>1947</ele>
        <time>2021-09-01T10:02:10.000Z</time>
      </trkpt>
      <trkpt lat="44.40608" lon="6.37497">
        <ele>1947</ele>
        <time>2021-09-01T10:02:11.000Z</time>
      </trkpt>
      <trkpt lat="44.40607" lon="6.37499">
        <ele>1947</ele>
        <time>2021-09-01T10:02:12.000Z</time>
      </trkpt>
      <trkpt lat="44.40605" lon="6.37501">
        <ele>1946</ele>
        <time>2021-09-01T10:02:13.000Z</time>
      </trkpt>
      <trkpt lat="44.40603" lon="6.37503">
        <ele>1947</ele>
        <time>2021-09-01T10:02:14.000Z</time>
      </trkpt>
      <trkpt lat="44.40601" lon="6.37503">
        <ele>1949</ele>
        <time>2021-09-01T10:02:15.000Z</time>
      </trkpt>
      <trkpt lat="44.40599" lon="6.37504">
        <ele>1950</ele>
        <time>2021-09-01T10:02:16.000Z</time>
      </trkpt>
      <trkpt lat="44.40598" lon="6.37504">
        <ele>1951</ele>
        <time>2021-09-01T10:02:17.000Z</time>
      </trkpt>
      <trkpt lat="44.40596" lon="6.37505">
        <ele>1952</ele>
        <time>2021-09-01T10:02:18.000Z</time>
      </trkpt>
      <trkpt lat="44.40595" lon="6.37507">
        <ele>1953</ele>
        <time>2021-09-01T10:02:19.000Z</time>
      </trkpt>
      <trkpt lat="44.40593" lon="6.37512">
        <ele>1950</ele>
        <time>2021-09-01T10:02:20.000Z</time>
      </trkpt>
      <trkpt lat="44.40593" lon="6.37516">
        <ele>1950</ele>
        <time>2021-09-01T10:02:21.000Z</time>
      </trkpt>
      <trkpt lat="44.40592" lon="6.37519">
        <ele>1949</ele>
        <time>2021-09-01T10:02:22.000Z</time>
      </trkpt>
      <trkpt lat="44.40592" lon="6.37528">
        <ele>1946</ele>
        <time>2021-09-01T10:02:23.000Z</time>
      </trkpt>
      <trkpt lat="44.40591" lon="6.37531">
        <ele>1945</ele>
        <time>2021-09-01T10:02:24.000Z</time>
      </trkpt>
      <trkpt lat="44.40591" lon="6.37534">
        <ele>1945</ele>
        <time>2021-09-01T10:02:25.000Z</time>
      </trkpt>
      <trkpt lat="44.40592" lon="6.37539">
        <ele>1944</ele>
        <time>2021-09-01T10:02:26.000Z</time>
      </trkpt>
      <trkpt lat="44.40591" lon="6.37542">
        <ele>1945</ele>
        <time>2021-09-01T10:02:27.000Z</time>
      </trkpt>
      <trkpt lat="44.4059" lon="6.37545">
        <ele>1946</ele>
        <time>2021-09-01T10:02:28.000Z</time>
      </trkpt>
      <trkpt lat="44.4059" lon="6.37548">
        <ele>1946</ele>
        <time>2021-09-01T10:02:29.000Z</time>
      </trkpt>
      <trkpt lat="44.40588" lon="6.37551">
        <ele>1946</ele>
        <time>2021-09-01T10:02:30.000Z</time>
      </trkpt>
      <trkpt lat="44.40587" lon="6.37554">
        <ele>1946</ele>
        <time>2021-09-01T10:02:31.000Z</time>
      </trkpt>
      <trkpt lat="44.40586" lon="6.37557">
        <ele>1944</ele>
        <time>2021-09-01T10:02:32.000Z</time>
      </trkpt>
      <trkpt lat="44.40583" lon="6.37558">
        <ele>1944</ele>
        <time>2021-09-01T10:02:33.000Z</time>
      </trkpt>
      <trkpt lat="44.40582" lon="6.3756">
        <ele>1946</ele>
        <time>2021-09-01T10:02:34.000Z</time>
      </trkpt>
      <trkpt lat="44.4058" lon="6.37562">
        <ele>1948</ele>
        <time>2021-09-01T10:02:35.000Z</time>
      </trkpt>
      <trkpt lat="44.40578" lon="6.37564">
        <ele>1949</ele>
        <time>2021-09-01T10:02:36.000Z</time>
      </trkpt>
      <trkpt lat="44.40577" lon="6.37566">
        <ele>1950</ele>
        <time>2021-09-01T10:02:37.000Z</time>
      </trkpt>
      <trkpt lat="44.40577" lon="6.37568">
        <ele>1951</ele>
        <time>2021-09-01T10:02:38.000Z</time>
      </trkpt>
      <trkpt lat="44.40574" lon="6.37571">
        <ele>1953</ele>
        <time>2021-09-01T10:02:39.000Z</time>
      </trkpt>
      <trkpt lat="44.40571" lon="6.37572">
        <ele>1955</ele>
        <time>2021-09-01T10:02:40.000Z</time>
      </trkpt>
      <trkpt lat="44.40569" lon="6.37572">
        <ele>1955</ele>
        <time>2021-09-01T10:02:41.000Z</time>
      </trkpt>
      <trkpt lat="44.40568" lon="6.37571">
        <ele>1957</ele>
        <time>2021-09-01T10:02:42.000Z</time>
      </trkpt>
      <trkpt lat="44.40566" lon="6.37571">
        <ele>1958</ele>
        <time>2021-09-01T10:02:43.000Z</time>
      </trkpt>
      <trkpt lat="44.40564" lon="6.37571">
        <ele>1959</ele>
        <time>2021-09-01T10:02:44.000Z</time>
      </trkpt>
      <trkpt lat="44.40562" lon="6.3757">
        <ele>1957</ele>
        <time>2021-09-01T10:02:45.000Z</time>
      </trkpt>
      <trkpt lat="44.4056" lon="6.3757">
        <ele>1956</ele>
        <time>2021-09-01T10:02:46.000Z</time>
      </trkpt>
      <trkpt lat="44.40559" lon="6.3757">
        <ele>1955</ele>
        <time>2021-09-01T10:02:47.000Z</time>
      </trkpt>
      <trkpt lat="44.40558" lon="6.37571">
        <ele>1955</ele>
        <time>2021-09-01T10:02:48.000Z</time>
      </trkpt>
      <trkpt lat="44.40556" lon="6.37571">
        <ele>1955</ele>
        <time>2021-09-01T10:02:49.000Z</time>
      </trkpt>
      <trkpt lat="44.40554" lon="6.3757">
        <ele>1956</ele>
        <time>2021-09-01T10:02:50.000Z</time>
      </trkpt>
      <trkpt lat="44.40553" lon="6.37571">
        <ele>1956</ele>
        <time>2021-09-01T10:02:51.000Z</time>
      </trkpt>
      <trkpt lat="44.40551" lon="6.3757">
        <ele>1956</ele>
        <time>2021-09-01T10:02:52.000Z</time>
      </trkpt>
      <trkpt lat="44.40548" lon="6.3757">
        <ele>1954</ele>
        <time>2021-09-01T10:02:53.000Z</time>
      </trkpt>
      <trkpt lat="44.40544" lon="6.3757">
        <ele>1956</ele>
        <time>2021-09-01T10:02:54.000Z</time>
      </trkpt>
      <trkpt lat="44.40542" lon="6.37569">
        <ele>1956</ele>
        <time>2021-09-01T10:02:55.000Z</time>
      </trkpt>
      <trkpt lat="44.4054" lon="6.37569">
        <ele>1956</ele>
        <time>2021-09-01T10:02:56.000Z</time>
      </trkpt>
      <trkpt lat="44.40539" lon="6.37569">
        <ele>1955</ele>
        <time>2021-09-01T10:02:57.000Z</time>
      </trkpt>
      <trkpt lat="44.40537" lon="6.37568">
        <ele>1956</ele>
        <time>2021-09-01T10:02:58.000Z</time>
      </trkpt>
      <trkpt lat="44.40535" lon="6.37567">
        <ele>1955</ele>
        <time>2021-09-01T10:02:59.000Z</time>
      </trkpt>
      <trkpt lat="44.40533" lon="6.37567">
        <ele>1954</ele>
        <time>2021-09-01T10:03:00.000Z</time>
      </trkpt>
      <trkpt lat="44.40532" lon="6.37567">
        <ele>1955</ele>
        <time>2021-09-01T10:03:01.000Z</time>
      </trkpt>
      <trkpt lat="44.4053" lon="6.37567">
        <ele>1954</ele>
        <time>2021-09-01T10:03:02.000Z</time>
      </trkpt>
      <trkpt lat="44.40529" lon="6.37567">
        <ele>1954</ele>
        <time>2021-09-01T10:03:03.000Z</time>
      </trkpt>
      <trkpt lat="44.40527" lon="6.37567">
        <ele>1955</ele>
        <time>2021-09-01T10:03:04.000Z</time>
      </trkpt>
      <trkpt lat="44.40526" lon="6.37567">
        <ele>1954</ele>
        <time>2021-09-01T10:03:05.000Z</time>
      </trkpt>
      <trkpt lat="44.40525" lon="6.37567">
        <ele>1954</ele>
        <time>2021-09-01T10:03:06.000Z</time>
      </trkpt>
      <trkpt lat="44.40525" lon="6.37569">
        <ele>1954</ele>
        <time>2021-09-01T10:03:07.000Z</time>
      </trkpt>
      <trkpt lat="44.40523" lon="6.3757">
        <ele>1953</ele>
        <time>2021-09-01T10:03:08.000Z</time>
      </trkpt>
      <trkpt lat="44.40523" lon="6.3757">
        <ele>1952</ele>
        <time>2021-09-01T10:03:09.000Z</time>
      </trkpt>
      <trkpt lat="44.40522" lon="6.37571">
        <ele>1952</ele>
        <time>2021-09-01T10:03:10.000Z</time>
      </trkpt>
      <trkpt lat="44.40521" lon="6.37572">
        <ele>1952</ele>
        <time>2021-09-01T10:03:11.000Z</time>
      </trkpt>
      <trkpt lat="44.40521" lon="6.37574">
        <ele>1952</ele>
        <time>2021-09-01T10:03:12.000Z</time>
      </trkpt>
      <trkpt lat="44.40519" lon="6.37576">
        <ele>1952</ele>
        <time>2021-09-01T10:03:13.000Z</time>
      </trkpt>
      <trkpt lat="44.40518" lon="6.37577">
        <ele>1951</ele>
        <time>2021-09-01T10:03:14.000Z</time>
      </trkpt>
      <trkpt lat="44.40517" lon="6.37577">
        <ele>1952</ele>
        <time>2021-09-01T10:03:15.000Z</time>
      </trkpt>
      <trkpt lat="44.40516" lon="6.37578">
        <ele>1953</ele>
        <time>2021-09-01T10:03:16.000Z</time>
      </trkpt>
      <trkpt lat="44.40514" lon="6.37579">
        <ele>1952</ele>
        <time>2021-09-01T10:03:17.000Z</time>
      </trkpt>
      <trkpt lat="44.40513" lon="6.3758">
        <ele>1952</ele>
        <time>2021-09-01T10:03:18.000Z</time>
      </trkpt>
      <trkpt lat="44.4051" lon="6.3758">
        <ele>1952</ele>
        <time>2021-09-01T10:03:19.000Z</time>
      </trkpt>
      <trkpt lat="44.40503" lon="6.37581">
        <ele>1956</ele>
        <time>2021-09-01T10:03:20.000Z</time>
      </trkpt>
      <trkpt lat="44.40494" lon="6.37579">
        <ele>1956</ele>
        <time>2021-09-01T10:03:21.000Z</time>
      </trkpt>
      <trkpt lat="44.40492" lon="6.37578">
        <ele>1956</ele>
        <time>2021-09-01T10:03:22.000Z</time>
      </trkpt>
      <trkpt lat="44.40489" lon="6.37575">
        <ele>1957</ele>
        <time>2021-09-01T10:03:23.000Z</time>
      </trkpt>
      <trkpt lat="44.40488" lon="6.37573">
        <ele>1957</ele>
        <time>2021-09-01T10:03:24.000Z</time>
      </trkpt>
      <trkpt lat="44.40486" lon="6.37572">
        <ele>1958</ele>
        <time>2021-09-01T10:03:25.000Z</time>
      </trkpt>
      <trkpt lat="44.40485" lon="6.3757">
        <ele>1957</ele>
        <time>2021-09-01T10:03:26.000Z</time>
      </trkpt>
      <trkpt lat="44.40484" lon="6.37568">
        <ele>1957</ele>
        <time>2021-09-01T10:03:27.000Z</time>
      </trkpt>
      <trkpt lat="44.40482" lon="6.37567">
        <ele>1957</ele>
        <time>2021-09-01T10:03:28.000Z</time>
      </trkpt>
      <trkpt lat="44.40481" lon="6.37564">
        <ele>1958</ele>
        <time>2021-09-01T10:03:29.000Z</time>
      </trkpt>
      <trkpt lat="44.4048" lon="6.37562">
        <ele>1958</ele>
        <time>2021-09-01T10:03:30.000Z</time>
      </trkpt>
      <trkpt lat="44.40479" lon="6.3756">
        <ele>1958</ele>
        <time>2021-09-01T10:03:31.000Z</time>
      </trkpt>
      <trkpt lat="44.40477" lon="6.37558">
        <ele>1958</ele>
        <time>2021-09-01T10:03:32.000Z</time>
      </trkpt>
      <trkpt lat="44.40476" lon="6.37556">
        <ele>1958</ele>
        <time>2021-09-01T10:03:33.000Z</time>
      </trkpt>
      <trkpt lat="44.40475" lon="6.37552">
        <ele>1958</ele>
        <time>2021-09-01T10:03:34.000Z</time>
      </trkpt>
      <trkpt lat="44.40475" lon="6.3755">
        <ele>1958</ele>
        <time>2021-09-01T10:03:35.000Z</time>
      </trkpt>
      <trkpt lat="44.40474" lon="6.37547">
        <ele>1959</ele>
        <time>2021-09-01T10:03:36.000Z</time>
      </trkpt>
      <trkpt lat="44.40473" lon="6.37544">
        <ele>1960</ele>
        <time>2021-09-01T10:03:37.000Z</time>
      </trkpt>
      <trkpt lat="44.40472" lon="6.37541">
        <ele>1960</ele>
        <time>2021-09-01T10:03:38.000Z</time>
      </trkpt>
      <trkpt lat="44.40471" lon="6.37539">
        <ele>1961</ele>
        <time>2021-09-01T10:03:39.000Z</time>
      </trkpt>
      <trkpt lat="44.4047" lon="6.37537">
        <ele>1962</ele>
        <time>2021-09-01T10:03:40.000Z</time>
      </trkpt>
      <trkpt lat="44.40469" lon="6.37534">
        <ele>1963</ele>
        <time>2021-09-01T10:03:41.000Z</time>
      </trkpt>
      <trkpt lat="44.40468" lon="6.37531">
        <ele>1963</ele>
        <time>2021-09-01T10:03:42.000Z</time>
      </trkpt>
      <trkpt lat="44.40467" lon="6.3753">
        <ele>1963</ele>
        <time>2021-09-01T10:03:43.000Z</time>
      </trkpt>
      <trkpt lat="44.40466" lon="6.37529">
        <ele>1964</ele>
        <time>2021-09-01T10:03:44.000Z</time>
      </trkpt>
      <trkpt lat="44.40465" lon="6.37527">
        <ele>1965</ele>
        <time>2021-09-01T10:03:45.000Z</time>
      </trkpt>
      <trkpt lat="44.40464" lon="6.37525">
        <ele>1965</ele>
        <time>2021-09-01T10:03:46.000Z</time>
      </trkpt>
      <trkpt lat="44.40463" lon="6.37523">
        <ele>1965</ele>
        <time>2021-09-01T10:03:47.000Z</time>
      </trkpt>
      <trkpt lat="44.4046" lon="6.37523">
        <ele>1964</ele>
        <time>2021-09-01T10:03:48.000Z</time>
      </trkpt>
      <trkpt lat="44.40458" lon="6.37523">
        <ele>1964</ele>
        <time>2021-09-01T10:03:49.000Z</time>
      </trkpt>
      <trkpt lat="44.40456" lon="6.37523">
        <ele>1964</ele>
        <time>2021-09-01T10:03:50.000Z</time>
      </trkpt>
      <trkpt lat="44.40454" lon="6.37523">
        <ele>1964</ele>
        <time>2021-09-01T10:03:51.000Z</time>
      </trkpt>
      <trkpt lat="44.40452" lon="6.37523">
        <ele>1965</ele>
        <time>2021-09-01T10:03:52.000Z</time>
      </trkpt>
      <trkpt lat="44.4045" lon="6.37522">
        <ele>1964</ele>
        <time>2021-09-01T10:03:53.000Z</time>
      </trkpt>
      <trkpt lat="44.40448" lon="6.37522">
        <ele>1965</ele>
        <time>2021-09-01T10:03:54.000Z</time>
      </trkpt>
      <trkpt lat="44.40447" lon="6.37522">
        <ele>1966</ele>
        <time>2021-09-01T10:03:55.000Z</time>
      </trkpt>
      <trkpt lat="44.40445" lon="6.37522">
        <ele>1966</ele>
        <time>2021-09-01T10:03:56.000Z</time>
      </trkpt>
      <trkpt lat="44.40443" lon="6.37522">
        <ele>1965</ele>
        <time>2021-09-01T10:03:57.000Z</time>
      </trkpt>
      <trkpt lat="44.40441" lon="6.37522">
        <ele>1965</ele>
        <time>2021-09-01T10:03:58.000Z</time>
      </trkpt>
      <trkpt lat="44.40441" lon="6.37522">
        <ele>1966</ele>
        <time>2021-09-01T10:03:59.000Z</time>
      </trkpt>
      <trkpt lat="44.40441" lon="6.37521">
        <ele>1967</ele>
        <time>2021-09-01T10:04:00.000Z</time>
      </trkpt>
      <trkpt lat="44.4044" lon="6.37519">
        <ele>1967</ele>
        <time>2021-09-01T10:04:01.000Z</time>
      </trkpt>
      <trkpt lat="44.40439" lon="6.37518">
        <ele>1967</ele>
        <time>2021-09-01T10:04:02.000Z</time>
      </trkpt>
      <trkpt lat="44.40438" lon="6.37517">
        <ele>1969</ele>
        <time>2021-09-01T10:04:03.000Z</time>
      </trkpt>
      <trkpt lat="44.40437" lon="6.37518">
        <ele>1969</ele>
        <time>2021-09-01T10:04:04.000Z</time>
      </trkpt>
      <trkpt lat="44.40437" lon="6.37518">
        <ele>1968</ele>
        <time>2021-09-01T10:04:05.000Z</time>
      </trkpt>
      <trkpt lat="44.40437" lon="6.37518">
        <ele>1968</ele>
        <time>2021-09-01T10:04:06.000Z</time>
      </trkpt>
      <trkpt lat="44.40437" lon="6.37519">
        <ele>1968</ele>
        <time>2021-09-01T10:04:07.000Z</time>
      </trkpt>
      <trkpt lat="44.40437" lon="6.37519">
        <ele>1968</ele>
        <time>2021-09-01T10:04:08.000Z</time>
      </trkpt>
      <trkpt lat="44.40437" lon="6.3752">
        <ele>1967</ele>
        <time>2021-09-01T10:04:09.000Z</time>
      </trkpt>
      <trkpt lat="44.40437" lon="6.3752">
        <ele>1967</ele>
        <time>2021-09-01T10:04:10.000Z</time>
      </trkpt>
      <trkpt lat="44.40437" lon="6.37521">
        <ele>1967</ele>
        <time>2021-09-01T10:04:11.000Z</time>
      </trkpt>
      <trkpt lat="44.40437" lon="6.37521">
        <ele>1966</ele>
        <time>2021-09-01T10:04:12.000Z</time>
      </trkpt>
      <trkpt lat="44.40437" lon="6.37521">
        <ele>1966</ele>
        <time>2021-09-01T10:04:13.000Z</time>
      </trkpt>
      <trkpt lat="44.40437" lon="6.37522">
        <ele>1966</ele>
        <time>2021-09-01T10:04:14.000Z</time>
      </trkpt>
      <trkpt lat="44.40437" lon="6.37522">
        <ele>1966</ele>
        <time>2021-09-01T10:04:15.000Z</time>
      </trkpt>
      <trkpt lat="44.40437" lon="6.37523">
        <ele>1967</ele>
        <time>2021-09-01T10:04:16.000Z</time>
      </trkpt>
      <trkpt lat="44.40437" lon="6.37523">
        <ele>1966</ele>
        <time>2021-09-01T10:04:17.000Z</time>
      </trkpt>
      <trkpt lat="44.40437" lon="6.37522">
        <ele>1965</ele>
        <time>2021-09-01T10:04:18.000Z</time>
      </trkpt>
      <trkpt lat="44.40437" lon="6.37522">
        <ele>1965</ele>
        <time>2021-09-01T10:04:19.000Z</time>
      </trkpt>
      <trkpt lat="44.40437" lon="6.37522">
        <ele>1964</ele>
        <time>2021-09-01T10:04:20.000Z</time>
      </trkpt>
      <trkpt lat="44.40437" lon="6.37522">
        <ele>1963</ele>
        <time>2021-09-01T10:04:21.000Z</time>
      </trkpt>
      <trkpt lat="44.40437" lon="6.37522">
        <ele>1963</ele>
        <time>2021-09-01T10:04:22.000Z</time>
      </trkpt>
      <trkpt lat="44.40437" lon="6.37522">
        <ele>1963</ele>
        <time>2021-09-01T10:04:23.000Z</time>
      </trkpt>
      <trkpt lat="44.40437" lon="6.37522">
        <ele>1962</ele>
        <time>2021-09-01T10:04:24.000Z</time>
      </trkpt>
      <trkpt lat="44.40438" lon="6.37522">
        <ele>1963</ele>
        <time>2021-09-01T10:04:25.000Z</time>
      </trkpt>
      <trkpt lat="44.40438" lon="6.37522">
        <ele>1963</ele>
        <time>2021-09-01T10:04:26.000Z</time>
      </trkpt>
      <trkpt lat="44.40438" lon="6.37522">
        <ele>1963</ele>
        <time>2021-09-01T10:04:27.000Z</time>
      </trkpt>
      <trkpt lat="44.40438" lon="6.37522">
        <ele>1963</ele>
        <time>2021-09-01T10:04:28.000Z</time>
      </trkpt>
      <trkpt lat="44.40438" lon="6.37522">
        <ele>1963</ele>
        <time>2021-09-01T10:04:29.000Z</time>
      </trkpt>
      <trkpt lat="44.40438" lon="6.37523">
        <ele>1962</ele>
        <time>2021-09-01T10:04:30.000Z</time>
      </trkpt>
      <trkpt lat="44.40438" lon="6.37523">
        <ele>1962</ele>
        <time>2021-09-01T10:04:31.000Z</time>
      </trkpt>
      <trkpt lat="44.40438" lon="6.37523">
        <ele>1962</ele>
        <time>2021-09-01T10:04:32.000Z</time>
      </trkpt>
      <trkpt lat="44.40438" lon="6.37523">
        <ele>1962</ele>
        <time>2021-09-01T10:04:33.000Z</time>
      </trkpt>
      <trkpt lat="44.40438" lon="6.37523">
        <ele>1962</ele>
        <time>2021-09-01T10:04:34.000Z</time>
      </trkpt>
      <trkpt lat="44.40438" lon="6.37523">
        <ele>1962</ele>
        <time>2021-09-01T10:04:35.000Z</time>
      </trkpt>
      <trkpt lat="44.40438" lon="6.37523">
        <ele>1962</ele>
        <time>2021-09-01T10:04:36.000Z</time>
      </trkpt>
      <trkpt lat="44.40437" lon="6.37523">
        <ele>1962</ele>
        <time>2021-09-01T10:04:37.000Z</time>
      </trkpt>
      <trkpt lat="44.40437" lon="6.37523">
        <ele>1962</ele>
        <time>2021-09-01T10:04:38.000Z</time>
      </trkpt>
      <trkpt lat="44.40437" lon="6.37523">
        <ele>1961</ele>
        <time>2021-09-01T10:04:39.000Z</time>
      </trkpt>
      <trkpt lat="44.40437" lon="6.37523">
        <ele>1961</ele>
        <time>2021-09-01T10:04:40.000Z</time>
      </trkpt>
      <trkpt lat="44.40436" lon="6.37523">
        <ele>1962</ele>
        <time>2021-09-01T10:04:41.000Z</time>
      </trkpt>
      <trkpt lat="44.40436" lon="6.37523">
        <ele>1962</ele>
        <time>2021-09-01T10:04:42.000Z</time>
      </trkpt>
      <trkpt lat="44.40436" lon="6.37523">
        <ele>1962</ele>
        <time>2021-09-01T10:04:43.000Z</time>
      </trkpt>
      <trkpt lat="44.40436" lon="6.37523">
        <ele>1962</ele>
        <time>2021-09-01T10:04:44.000Z</time>
      </trkpt>
      <trkpt lat="44.40435" lon="6.37523">
        <ele>1962</ele>
        <time>2021-09-01T10:04:45.000Z</time>
      </trkpt>
      <trkpt lat="44.40435" lon="6.37523">
        <ele>1962</ele>
        <time>2021-09-01T10:04:46.000Z</time>
      </trkpt>
      <trkpt lat="44.40435" lon="6.37523">
        <ele>1963</ele>
        <time>2021-09-01T10:04:47.000Z</time>
      </trkpt>
      <trkpt lat="44.40434" lon="6.37524">
        <ele>1963</ele>
        <time>2021-09-01T10:04:48.000Z</time>
      </trkpt>
      <trkpt lat="44.40434" lon="6.37524">
        <ele>1963</ele>
        <time>2021-09-01T10:04:49.000Z</time>
      </trkpt>
      <trkpt lat="44.40434" lon="6.37524">
        <ele>1963</ele>
        <time>2021-09-01T10:04:50.000Z</time>
      </trkpt>
      <trkpt lat="44.40434" lon="6.37524">
        <ele>1963</ele>
        <time>2021-09-01T10:04:51.000Z</time>
      </trkpt>
      <trkpt lat="44.40433" lon="6.37524">
        <ele>1963</ele>
        <time>2021-09-01T10:04:52.000Z</time>
      </trkpt>
      <trkpt lat="44.40433" lon="6.37524">
        <ele>1964</ele>
        <time>2021-09-01T10:04:53.000Z</time>
      </trkpt>
      <trkpt lat="44.40432" lon="6.37524">
        <ele>1964</ele>
        <time>2021-09-01T10:04:54.000Z</time>
      </trkpt>
      <trkpt lat="44.40432" lon="6.37524">
        <ele>1964</ele>
        <time>2021-09-01T10:04:55.000Z</time>
      </trkpt>
      <trkpt lat="44.40431" lon="6.37525">
        <ele>1964</ele>
        <time>2021-09-01T10:04:56.000Z</time>
      </trkpt>
      <trkpt lat="44.40431" lon="6.37525">
        <ele>1964</ele>
        <time>2021-09-01T10:04:57.000Z</time>
      </trkpt>
      <trkpt lat="44.40431" lon="6.37525">
        <ele>1964</ele>
        <time>2021-09-01T10:04:58.000Z</time>
      </trkpt>
      <trkpt lat="44.4043" lon="6.37525">
        <ele>1965</ele>
        <time>2021-09-01T10:04:59.000Z</time>
      </trkpt>
      <trkpt lat="44.40429" lon="6.37526">
        <ele>1965</ele>
        <time>2021-09-01T10:05:00.000Z</time>
      </trkpt>
      <trkpt lat="44.40429" lon="6.37526">
        <ele>1965</ele>
        <time>2021-09-01T10:05:01.000Z</time>
      </trkpt>
      <trkpt lat="44.40428" lon="6.37526">
        <ele>1966</ele>
        <time>2021-09-01T10:05:02.000Z</time>
      </trkpt>
      <trkpt lat="44.40428" lon="6.37527">
        <ele>1966</ele>
        <time>2021-09-01T10:05:03.000Z</time>
      </trkpt>
      <trkpt lat="44.40427" lon="6.37527">
        <ele>1966</ele>
        <time>2021-09-01T10:05:04.000Z</time>
      </trkpt>
      <trkpt lat="44.40427" lon="6.37527">
        <ele>1966</ele>
        <time>2021-09-01T10:05:05.000Z</time>
      </trkpt>
      <trkpt lat="44.40426" lon="6.37528">
        <ele>1967</ele>
        <time>2021-09-01T10:05:06.000Z</time>
      </trkpt>
      <trkpt lat="44.40426" lon="6.37528">
        <ele>1967</ele>
        <time>2021-09-01T10:05:07.000Z</time>
      </trkpt>
      <trkpt lat="44.40426" lon="6.37528">
        <ele>1966</ele>
        <time>2021-09-01T10:05:08.000Z</time>
      </trkpt>
      <trkpt lat="44.40426" lon="6.37528">
        <ele>1966</ele>
        <time>2021-09-01T10:05:09.000Z</time>
      </trkpt>
      <trkpt lat="44.40426" lon="6.37528">
        <ele>1966</ele>
        <time>2021-09-01T10:05:10.000Z</time>
      </trkpt>
      <trkpt lat="44.40426" lon="6.37528">
        <ele>1965</ele>
        <time>2021-09-01T10:05:11.000Z</time>
      </trkpt>
      <trkpt lat="44.40426" lon="6.37528">
        <ele>1965</ele>
        <time>2021-09-01T10:05:12.000Z</time>
      </trkpt>
      <trkpt lat="44.40426" lon="6.37528">
        <ele>1964</ele>
        <time>2021-09-01T10:05:13.000Z</time>
      </trkpt>
      <trkpt lat="44.40425" lon="6.37529">
        <ele>1963</ele>
        <time>2021-09-01T10:05:14.000Z</time>
      </trkpt>
      <trkpt lat="44.40424" lon="6.37529">
        <ele>1963</ele>
        <time>2021-09-01T10:05:15.000Z</time>
      </trkpt>
      <trkpt lat="44.40423" lon="6.37529">
        <ele>1963</ele>
        <time>2021-09-01T10:05:16.000Z</time>
      </trkpt>
      <trkpt lat="44.40423" lon="6.3753">
        <ele>1963</ele>
        <time>2021-09-01T10:05:17.000Z</time>
      </trkpt>
      <trkpt lat="44.40422" lon="6.3753">
        <ele>1963</ele>
        <time>2021-09-01T10:05:18.000Z</time>
      </trkpt>
      <trkpt lat="44.40421" lon="6.37531">
        <ele>1962</ele>
        <time>2021-09-01T10:05:19.000Z</time>
      </trkpt>
      <trkpt lat="44.4042" lon="6.37531">
        <ele>1963</ele>
        <time>2021-09-01T10:05:20.000Z</time>
      </trkpt>
      <trkpt lat="44.40418" lon="6.37533">
        <ele>1962</ele>
        <time>2021-09-01T10:05:21.000Z</time>
      </trkpt>
      <trkpt lat="44.40418" lon="6.37534">
        <ele>1962</ele>
        <time>2021-09-01T10:05:22.000Z</time>
      </trkpt>
      <trkpt lat="44.40417" lon="6.37535">
        <ele>1962</ele>
        <time>2021-09-01T10:05:23.000Z</time>
      </trkpt>
      <trkpt lat="44.40417" lon="6.37536">
        <ele>1963</ele>
        <time>2021-09-01T10:05:24.000Z</time>
      </trkpt>
      <trkpt lat="44.40418" lon="6.37537">
        <ele>1964</ele>
        <time>2021-09-01T10:05:25.000Z</time>
      </trkpt>
      <trkpt lat="44.40418" lon="6.37538">
        <ele>1964</ele>
        <time>2021-09-01T10:05:26.000Z</time>
      </trkpt>
      <trkpt lat="44.40419" lon="6.37538">
        <ele>1963</ele>
        <time>2021-09-01T10:05:27.000Z</time>
      </trkpt>
      <trkpt lat="44.4042" lon="6.37539">
        <ele>1964</ele>
        <time>2021-09-01T10:05:28.000Z</time>
      </trkpt>
      <trkpt lat="44.40421" lon="6.37539">
        <ele>1964</ele>
        <time>2021-09-01T10:05:29.000Z</time>
      </trkpt>
      <trkpt lat="44.40423" lon="6.3754">
        <ele>1965</ele>
        <time>2021-09-01T10:05:30.000Z</time>
      </trkpt>
      <trkpt lat="44.40424" lon="6.37541">
        <ele>1965</ele>
        <time>2021-09-01T10:05:31.000Z</time>
      </trkpt>
      <trkpt lat="44.40426" lon="6.37542">
        <ele>1966</ele>
        <time>2021-09-01T10:05:32.000Z</time>
      </trkpt>
      <trkpt lat="44.40428" lon="6.37543">
        <ele>1966</ele>
        <time>2021-09-01T10:05:33.000Z</time>
      </trkpt>
      <trkpt lat="44.40429" lon="6.37546">
        <ele>1967</ele>
        <time>2021-09-01T10:05:34.000Z</time>
      </trkpt>
      <trkpt lat="44.40429" lon="6.37548">
        <ele>1968</ele>
        <time>2021-09-01T10:05:35.000Z</time>
      </trkpt>
      <trkpt lat="44.4043" lon="6.37549">
        <ele>1968</ele>
        <time>2021-09-01T10:05:36.000Z</time>
      </trkpt>
      <trkpt lat="44.4043" lon="6.3755">
        <ele>1968</ele>
        <time>2021-09-01T10:05:37.000Z</time>
      </trkpt>
      <trkpt lat="44.40429" lon="6.3755">
        <ele>1969</ele>
        <time>2021-09-01T10:05:38.000Z</time>
      </trkpt>
      <trkpt lat="44.40428" lon="6.37551">
        <ele>1969</ele>
        <time>2021-09-01T10:05:39.000Z</time>
      </trkpt>
      <trkpt lat="44.40428" lon="6.37551">
        <ele>1970</ele>
        <time>2021-09-01T10:05:40.000Z</time>
      </trkpt>
      <trkpt lat="44.40428" lon="6.37551">
        <ele>1970</ele>
        <time>2021-09-01T10:05:41.000Z</time>
      </trkpt>
      <trkpt lat="44.40427" lon="6.37552">
        <ele>1970</ele>
        <time>2021-09-01T10:05:42.000Z</time>
      </trkpt>
      <trkpt lat="44.40427" lon="6.37552">
        <ele>1970</ele>
        <time>2021-09-01T10:05:43.000Z</time>
      </trkpt>
      <trkpt lat="44.40426" lon="6.37552">
        <ele>1970</ele>
        <time>2021-09-01T10:05:44.000Z</time>
      </trkpt>
      <trkpt lat="44.40424" lon="6.37552">
        <ele>1970</ele>
        <time>2021-09-01T10:05:45.000Z</time>
      </trkpt>
      <trkpt lat="44.40423" lon="6.37551">
        <ele>1970</ele>
        <time>2021-09-01T10:05:46.000Z</time>
      </trkpt>
      <trkpt lat="44.40422" lon="6.37552">
        <ele>1970</ele>
        <time>2021-09-01T10:05:47.000Z</time>
      </trkpt>
      <trkpt lat="44.4042" lon="6.37552">
        <ele>1972</ele>
        <time>2021-09-01T10:05:48.000Z</time>
      </trkpt>
      <trkpt lat="44.40419" lon="6.37553">
        <ele>1972</ele>
        <time>2021-09-01T10:05:49.000Z</time>
      </trkpt>
      <trkpt lat="44.40417" lon="6.37553">
        <ele>1972</ele>
        <time>2021-09-01T10:05:50.000Z</time>
      </trkpt>
      <trkpt lat="44.40416" lon="6.37553">
        <ele>1973</ele>
        <time>2021-09-01T10:05:51.000Z</time>
      </trkpt>
      <trkpt lat="44.40415" lon="6.37553">
        <ele>1974</ele>
        <time>2021-09-01T10:05:52.000Z</time>
      </trkpt>
      <trkpt lat="44.40413" lon="6.37553">
        <ele>1975</ele>
        <time>2021-09-01T10:05:53.000Z</time>
      </trkpt>
      <trkpt lat="44.40411" lon="6.37553">
        <ele>1975</ele>
        <time>2021-09-01T10:05:54.000Z</time>
      </trkpt>
      <trkpt lat="44.4041" lon="6.37554">
        <ele>1974</ele>
        <time>2021-09-01T10:05:55.000Z</time>
      </trkpt>
      <trkpt lat="44.40408" lon="6.37554">
        <ele>1975</ele>
        <time>2021-09-01T10:05:56.000Z</time>
      </trkpt>
      <trkpt lat="44.40406" lon="6.37555">
        <ele>1974</ele>
        <time>2021-09-01T10:05:57.000Z</time>
      </trkpt>
      <trkpt lat="44.40405" lon="6.37556">
        <ele>1975</ele>
        <time>2021-09-01T10:05:58.000Z</time>
      </trkpt>
      <trkpt lat="44.40404" lon="6.37557">
        <ele>1975</ele>
        <time>2021-09-01T10:05:59.000Z</time>
      </trkpt>
      <trkpt lat="44.40401" lon="6.37558">
        <ele>1975</ele>
        <time>2021-09-01T10:06:00.000Z</time>
      </trkpt>
      <trkpt lat="44.40399" lon="6.37556">
        <ele>1975</ele>
        <time>2021-09-01T10:06:01.000Z</time>
      </trkpt>
      <trkpt lat="44.40397" lon="6.37556">
        <ele>1975</ele>
        <time>2021-09-01T10:06:02.000Z</time>
      </trkpt>
      <trkpt lat="44.40395" lon="6.37555">
        <ele>1976</ele>
        <time>2021-09-01T10:06:03.000Z</time>
      </trkpt>
      <trkpt lat="44.40393" lon="6.37556">
        <ele>1976</ele>
        <time>2021-09-01T10:06:04.000Z</time>
      </trkpt>
      <trkpt lat="44.40391" lon="6.37555">
        <ele>1976</ele>
        <time>2021-09-01T10:06:05.000Z</time>
      </trkpt>
      <trkpt lat="44.4039" lon="6.37556">
        <ele>1974</ele>
        <time>2021-09-01T10:06:06.000Z</time>
      </trkpt>
      <trkpt lat="44.40388" lon="6.37557">
        <ele>1973</ele>
        <time>2021-09-01T10:06:07.000Z</time>
      </trkpt>
      <trkpt lat="44.40386" lon="6.37559">
        <ele>1972</ele>
        <time>2021-09-01T10:06:08.000Z</time>
      </trkpt>
      <trkpt lat="44.40384" lon="6.3756">
        <ele>1972</ele>
        <time>2021-09-01T10:06:09.000Z</time>
      </trkpt>
      <trkpt lat="44.40382" lon="6.37561">
        <ele>1973</ele>
        <time>2021-09-01T10:06:10.000Z</time>
      </trkpt>
      <trkpt lat="44.4038" lon="6.37561">
        <ele>1973</ele>
        <time>2021-09-01T10:06:11.000Z</time>
      </trkpt>
      <trkpt lat="44.40378" lon="6.37562">
        <ele>1973</ele>
        <time>2021-09-01T10:06:12.000Z</time>
      </trkpt>
      <trkpt lat="44.40375" lon="6.37562">
        <ele>1973</ele>
        <time>2021-09-01T10:06:13.000Z</time>
      </trkpt>
      <trkpt lat="44.40373" lon="6.37563">
        <ele>1974</ele>
        <time>2021-09-01T10:06:14.000Z</time>
      </trkpt>
      <trkpt lat="44.40371" lon="6.37564">
        <ele>1973</ele>
        <time>2021-09-01T10:06:15.000Z</time>
      </trkpt>
      <trkpt lat="44.4037" lon="6.37565">
        <ele>1973</ele>
        <time>2021-09-01T10:06:16.000Z</time>
      </trkpt>
      <trkpt lat="44.40369" lon="6.37567">
        <ele>1974</ele>
        <time>2021-09-01T10:06:17.000Z</time>
      </trkpt>
      <trkpt lat="44.40367" lon="6.37569">
        <ele>1973</ele>
        <time>2021-09-01T10:06:18.000Z</time>
      </trkpt>
      <trkpt lat="44.40365" lon="6.3757">
        <ele>1973</ele>
        <time>2021-09-01T10:06:19.000Z</time>
      </trkpt>
      <trkpt lat="44.40363" lon="6.37571">
        <ele>1973</ele>
        <time>2021-09-01T10:06:20.000Z</time>
      </trkpt>
      <trkpt lat="44.40362" lon="6.37573">
        <ele>1973</ele>
        <time>2021-09-01T10:06:21.000Z</time>
      </trkpt>
      <trkpt lat="44.4036" lon="6.37573">
        <ele>1972</ele>
        <time>2021-09-01T10:06:22.000Z</time>
      </trkpt>
      <trkpt lat="44.40358" lon="6.37574">
        <ele>1972</ele>
        <time>2021-09-01T10:06:23.000Z</time>
      </trkpt>
      <trkpt lat="44.40356" lon="6.37575">
        <ele>1973</ele>
        <time>2021-09-01T10:06:24.000Z</time>
      </trkpt>
      <trkpt lat="44.40354" lon="6.37576">
        <ele>1973</ele>
        <time>2021-09-01T10:06:25.000Z</time>
      </trkpt>
      <trkpt lat="44.40352" lon="6.37577">
        <ele>1973</ele>
        <time>2021-09-01T10:06:26.000Z</time>
      </trkpt>
      <trkpt lat="44.4035" lon="6.37579">
        <ele>1972</ele>
        <time>2021-09-01T10:06:27.000Z</time>
      </trkpt>
      <trkpt lat="44.40348" lon="6.3758">
        <ele>1972</ele>
        <time>2021-09-01T10:06:28.000Z</time>
      </trkpt>
      <trkpt lat="44.40346" lon="6.37582">
        <ele>1972</ele>
        <time>2021-09-01T10:06:29.000Z</time>
      </trkpt>
      <trkpt lat="44.40344" lon="6.37584">
        <ele>1972</ele>
        <time>2021-09-01T10:06:30.000Z</time>
      </trkpt>
      <trkpt lat="44.40342" lon="6.37585">
        <ele>1972</ele>
        <time>2021-09-01T10:06:31.000Z</time>
      </trkpt>
      <trkpt lat="44.4034" lon="6.37586">
        <ele>1973</ele>
        <time>2021-09-01T10:06:32.000Z</time>
      </trkpt>
      <trkpt lat="44.40338" lon="6.37587">
        <ele>1973</ele>
        <time>2021-09-01T10:06:33.000Z</time>
      </trkpt>
      <trkpt lat="44.40337" lon="6.37588">
        <ele>1973</ele>
        <time>2021-09-01T10:06:34.000Z</time>
      </trkpt>
      <trkpt lat="44.40336" lon="6.37589">
        <ele>1973</ele>
        <time>2021-09-01T10:06:35.000Z</time>
      </trkpt>
      <trkpt lat="44.40334" lon="6.3759">
        <ele>1974</ele>
        <time>2021-09-01T10:06:36.000Z</time>
      </trkpt>
      <trkpt lat="44.40333" lon="6.37591">
        <ele>1975</ele>
        <time>2021-09-01T10:06:37.000Z</time>
      </trkpt>
      <trkpt lat="44.40331" lon="6.37592">
        <ele>1975</ele>
        <time>2021-09-01T10:06:38.000Z</time>
      </trkpt>
      <trkpt lat="44.40329" lon="6.37594">
        <ele>1976</ele>
        <time>2021-09-01T10:06:39.000Z</time>
      </trkpt>
      <trkpt lat="44.40328" lon="6.37595">
        <ele>1976</ele>
        <time>2021-09-01T10:06:40.000Z</time>
      </trkpt>
      <trkpt lat="44.40326" lon="6.37597">
        <ele>1977</ele>
        <time>2021-09-01T10:06:41.000Z</time>
      </trkpt>
      <trkpt lat="44.40325" lon="6.37598">
        <ele>1976</ele>
        <time>2021-09-01T10:06:42.000Z</time>
      </trkpt>
      <trkpt lat="44.40323" lon="6.376">
        <ele>1977</ele>
        <time>2021-09-01T10:06:43.000Z</time>
      </trkpt>
      <trkpt lat="44.40321" lon="6.37602">
        <ele>1976</ele>
        <time>2021-09-01T10:06:44.000Z</time>
      </trkpt>
      <trkpt lat="44.4032" lon="6.37603">
        <ele>1975</ele>
        <time>2021-09-01T10:06:45.000Z</time>
      </trkpt>
      <trkpt lat="44.40318" lon="6.37605">
        <ele>1976</ele>
        <time>2021-09-01T10:06:46.000Z</time>
      </trkpt>
      <trkpt lat="44.40316" lon="6.37606">
        <ele>1976</ele>
        <time>2021-09-01T10:06:47.000Z</time>
      </trkpt>
      <trkpt lat="44.40315" lon="6.37608">
        <ele>1977</ele>
        <time>2021-09-01T10:06:48.000Z</time>
      </trkpt>
      <trkpt lat="44.40314" lon="6.3761">
        <ele>1977</ele>
        <time>2021-09-01T10:06:49.000Z</time>
      </trkpt>
      <trkpt lat="44.40311" lon="6.37611">
        <ele>1977</ele>
        <time>2021-09-01T10:06:50.000Z</time>
      </trkpt>
      <trkpt lat="44.40309" lon="6.37612">
        <ele>1976</ele>
        <time>2021-09-01T10:06:51.000Z</time>
      </trkpt>
      <trkpt lat="44.40306" lon="6.37614">
        <ele>1976</ele>
        <time>2021-09-01T10:06:52.000Z</time>
      </trkpt>
      <trkpt lat="44.40305" lon="6.37616">
        <ele>1975</ele>
        <time>2021-09-01T10:06:53.000Z</time>
      </trkpt>
      <trkpt lat="44.40303" lon="6.37617">
        <ele>1975</ele>
        <time>2021-09-01T10:06:54.000Z</time>
      </trkpt>
      <trkpt lat="44.40302" lon="6.37619">
        <ele>1974</ele>
        <time>2021-09-01T10:06:55.000Z</time>
      </trkpt>
      <trkpt lat="44.403" lon="6.37621">
        <ele>1975</ele>
        <time>2021-09-01T10:06:56.000Z</time>
      </trkpt>
      <trkpt lat="44.40298" lon="6.37623">
        <ele>1976</ele>
        <time>2021-09-01T10:06:57.000Z</time>
      </trkpt>
      <trkpt lat="44.40296" lon="6.37624">
        <ele>1978</ele>
        <time>2021-09-01T10:06:58.000Z</time>
      </trkpt>
      <trkpt lat="44.40295" lon="6.37626">
        <ele>1979</ele>
        <time>2021-09-01T10:06:59.000Z</time>
      </trkpt>
      <trkpt lat="44.40293" lon="6.37628">
        <ele>1979</ele>
        <time>2021-09-01T10:07:00.000Z</time>
      </trkpt>
      <trkpt lat="44.40291" lon="6.37629">
        <ele>1980</ele>
        <time>2021-09-01T10:07:01.000Z</time>
      </trkpt>
      <trkpt lat="44.4029" lon="6.37631">
        <ele>1981</ele>
        <time>2021-09-01T10:07:02.000Z</time>
      </trkpt>
      <trkpt lat="44.40288" lon="6.37633">
        <ele>1982</ele>
        <time>2021-09-01T10:07:03.000Z</time>
      </trkpt>
      <trkpt lat="44.40287" lon="6.37635">
        <ele>1983</ele>
        <time>2021-09-01T10:07:04.000Z</time>
      </trkpt>
      <trkpt lat="44.40286" lon="6.37638">
        <ele>1985</ele>
        <time>2021-09-01T10:07:05.000Z</time>
      </trkpt>
      <trkpt lat="44.40285" lon="6.3764">
        <ele>1986</ele>
        <time>2021-09-01T10:07:06.000Z</time>
      </trkpt>
      <trkpt lat="44.40284" lon="6.37641">
        <ele>1987</ele>
        <time>2021-09-01T10:07:07.000Z</time>
      </trkpt>
      <trkpt lat="44.40283" lon="6.37641">
        <ele>1988</ele>
        <time>2021-09-01T10:07:08.000Z</time>
      </trkpt>
      <trkpt lat="44.40282" lon="6.37642">
        <ele>1989</ele>
        <time>2021-09-01T10:07:09.000Z</time>
      </trkpt>
      <trkpt lat="44.40282" lon="6.37642">
        <ele>1989</ele>
        <time>2021-09-01T10:07:10.000Z</time>
      </trkpt>
      <trkpt lat="44.40282" lon="6.37642">
        <ele>1990</ele>
        <time>2021-09-01T10:07:11.000Z</time>
      </trkpt>
      <trkpt lat="44.40282" lon="6.37642">
        <ele>1991</ele>
        <time>2021-09-01T10:07:12.000Z</time>
      </trkpt>
      <trkpt lat="44.40282" lon="6.37642">
        <ele>1992</ele>
        <time>2021-09-01T10:07:13.000Z</time>
      </trkpt>
      <trkpt lat="44.40282" lon="6.37642">
        <ele>1993</ele>
        <time>2021-09-01T10:07:14.000Z</time>
      </trkpt>
      <trkpt lat="44.40282" lon="6.37642">
        <ele>1993</ele>
        <time>2021-09-01T10:07:15.000Z</time>
      </trkpt>
      <trkpt lat="44.40281" lon="6.37642">
        <ele>1993</ele>
        <time>2021-09-01T10:07:16.000Z</time>
      </trkpt>
      <trkpt lat="44.40281" lon="6.37642">
        <ele>1993</ele>
        <time>2021-09-01T10:07:17.000Z</time>
      </trkpt>
      <trkpt lat="44.40282" lon="6.37642">
        <ele>1993</ele>
        <time>2021-09-01T10:07:18.000Z</time>
      </trkpt>
      <trkpt lat="44.40282" lon="6.37642">
        <ele>1993</ele>
        <time>2021-09-01T10:07:19.000Z</time>
      </trkpt>
      <trkpt lat="44.40282" lon="6.37642">
        <ele>1993</ele>
        <time>2021-09-01T10:07:20.000Z</time>
      </trkpt>
      <trkpt lat="44.40282" lon="6.37643">
        <ele>1993</ele>
        <time>2021-09-01T10:07:21.000Z</time>
      </trkpt>
      <trkpt lat="44.40282" lon="6.37643">
        <ele>1993</ele>
        <time>2021-09-01T10:07:22.000Z</time>
      </trkpt>
      <trkpt lat="44.40281" lon="6.37643">
        <ele>1993</ele>
        <time>2021-09-01T10:07:23.000Z</time>
      </trkpt>
      <trkpt lat="44.40281" lon="6.37643">
        <ele>1993</ele>
        <time>2021-09-01T10:07:24.000Z</time>
      </trkpt>
      <trkpt lat="44.40281" lon="6.37643">
        <ele>1993</ele>
        <time>2021-09-01T10:07:25.000Z</time>
      </trkpt>
      <trkpt lat="44.40281" lon="6.37644">
        <ele>1993</ele>
        <time>2021-09-01T10:07:26.000Z</time>
      </trkpt>
      <trkpt lat="44.40281" lon="6.37645">
        <ele>1993</ele>
        <time>2021-09-01T10:07:27.000Z</time>
      </trkpt>
      <trkpt lat="44.40281" lon="6.37645">
        <ele>1993</ele>
        <time>2021-09-01T10:07:28.000Z</time>
      </trkpt>
      <trkpt lat="44.40281" lon="6.37646">
        <ele>1993</ele>
        <time>2021-09-01T10:07:29.000Z</time>
      </trkpt>
      <trkpt lat="44.40281" lon="6.37646">
        <ele>1992</ele>
        <time>2021-09-01T10:07:30.000Z</time>
      </trkpt>
      <trkpt lat="44.40281" lon="6.37646">
        <ele>1992</ele>
        <time>2021-09-01T10:07:31.000Z</time>
      </trkpt>
      <trkpt lat="44.40281" lon="6.37647">
        <ele>1992</ele>
        <time>2021-09-01T10:07:32.000Z</time>
      </trkpt>
      <trkpt lat="44.40281" lon="6.37649">
        <ele>1991</ele>
        <time>2021-09-01T10:07:33.000Z</time>
      </trkpt>
      <trkpt lat="44.40281" lon="6.37651">
        <ele>1991</ele>
        <time>2021-09-01T10:07:34.000Z</time>
      </trkpt>
      <trkpt lat="44.4028" lon="6.37652">
        <ele>1991</ele>
        <time>2021-09-01T10:07:35.000Z</time>
      </trkpt>
      <trkpt lat="44.40279" lon="6.37654">
        <ele>1990</ele>
        <time>2021-09-01T10:07:36.000Z</time>
      </trkpt>
      <trkpt lat="44.40278" lon="6.37655">
        <ele>1990</ele>
        <time>2021-09-01T10:07:37.000Z</time>
      </trkpt>
      <trkpt lat="44.40278" lon="6.37657">
        <ele>1990</ele>
        <time>2021-09-01T10:07:38.000Z</time>
      </trkpt>
      <trkpt lat="44.40277" lon="6.3766">
        <ele>1989</ele>
        <time>2021-09-01T10:07:39.000Z</time>
      </trkpt>
      <trkpt lat="44.40277" lon="6.37663">
        <ele>1990</ele>
        <time>2021-09-01T10:07:40.000Z</time>
      </trkpt>
      <trkpt lat="44.40276" lon="6.37666">
        <ele>1990</ele>
        <time>2021-09-01T10:07:41.000Z</time>
      </trkpt>
      <trkpt lat="44.40274" lon="6.37668">
        <ele>1990</ele>
        <time>2021-09-01T10:07:42.000Z</time>
      </trkpt>
      <trkpt lat="44.40273" lon="6.3767">
        <ele>1990</ele>
        <time>2021-09-01T10:07:43.000Z</time>
      </trkpt>
      <trkpt lat="44.40272" lon="6.37672">
        <ele>1990</ele>
        <time>2021-09-01T10:07:44.000Z</time>
      </trkpt>
      <trkpt lat="44.4027" lon="6.37675">
        <ele>1990</ele>
        <time>2021-09-01T10:07:45.000Z</time>
      </trkpt>
      <trkpt lat="44.40269" lon="6.37677">
        <ele>1990</ele>
        <time>2021-09-01T10:07:46.000Z</time>
      </trkpt>
      <trkpt lat="44.40268" lon="6.37679">
        <ele>1990</ele>
        <time>2021-09-01T10:07:47.000Z</time>
      </trkpt>
      <trkpt lat="44.40267" lon="6.37681">
        <ele>1990</ele>
        <time>2021-09-01T10:07:48.000Z</time>
      </trkpt>
      <trkpt lat="44.40266" lon="6.37683">
        <ele>1991</ele>
        <time>2021-09-01T10:07:49.000Z</time>
      </trkpt>
      <trkpt lat="44.40265" lon="6.37685">
        <ele>1991</ele>
        <time>2021-09-01T10:07:50.000Z</time>
      </trkpt>
      <trkpt lat="44.40263" lon="6.37688">
        <ele>1991</ele>
        <time>2021-09-01T10:07:51.000Z</time>
      </trkpt>
      <trkpt lat="44.40262" lon="6.3769">
        <ele>1991</ele>
        <time>2021-09-01T10:07:52.000Z</time>
      </trkpt>
      <trkpt lat="44.4026" lon="6.37692">
        <ele>1992</ele>
        <time>2021-09-01T10:07:53.000Z</time>
      </trkpt>
      <trkpt lat="44.40259" lon="6.37695">
        <ele>1992</ele>
        <time>2021-09-01T10:07:54.000Z</time>
      </trkpt>
      <trkpt lat="44.40258" lon="6.37698">
        <ele>1993</ele>
        <time>2021-09-01T10:07:55.000Z</time>
      </trkpt>
      <trkpt lat="44.40257" lon="6.37701">
        <ele>1992</ele>
        <time>2021-09-01T10:07:56.000Z</time>
      </trkpt>
      <trkpt lat="44.40256" lon="6.37703">
        <ele>1991</ele>
        <time>2021-09-01T10:07:57.000Z</time>
      </trkpt>
      <trkpt lat="44.40255" lon="6.37705">
        <ele>1991</ele>
        <time>2021-09-01T10:07:58.000Z</time>
      </trkpt>
      <trkpt lat="44.40254" lon="6.37707">
        <ele>1991</ele>
        <time>2021-09-01T10:07:59.000Z</time>
      </trkpt>
      <trkpt lat="44.40253" lon="6.3771">
        <ele>1991</ele>
        <time>2021-09-01T10:08:00.000Z</time>
      </trkpt>
      <trkpt lat="44.40252" lon="6.37712">
        <ele>1992</ele>
        <time>2021-09-01T10:08:01.000Z</time>
      </trkpt>
      <trkpt lat="44.40251" lon="6.37715">
        <ele>1992</ele>
        <time>2021-09-01T10:08:02.000Z</time>
      </trkpt>
      <trkpt lat="44.40249" lon="6.37717">
        <ele>1992</ele>
        <time>2021-09-01T10:08:03.000Z</time>
      </trkpt>
      <trkpt lat="44.40248" lon="6.37719">
        <ele>1992</ele>
        <time>2021-09-01T10:08:04.000Z</time>
      </trkpt>
      <trkpt lat="44.40246" lon="6.37721">
        <ele>1993</ele>
        <time>2021-09-01T10:08:05.000Z</time>
      </trkpt>
      <trkpt lat="44.40245" lon="6.37724">
        <ele>1994</ele>
        <time>2021-09-01T10:08:06.000Z</time>
      </trkpt>
      <trkpt lat="44.40243" lon="6.37726">
        <ele>1995</ele>
        <time>2021-09-01T10:08:07.000Z</time>
      </trkpt>
      <trkpt lat="44.40242" lon="6.37729">
        <ele>1996</ele>
        <time>2021-09-01T10:08:08.000Z</time>
      </trkpt>
      <trkpt lat="44.4024" lon="6.37731">
        <ele>1996</ele>
        <time>2021-09-01T10:08:09.000Z</time>
      </trkpt>
      <trkpt lat="44.40239" lon="6.37734">
        <ele>1996</ele>
        <time>2021-09-01T10:08:10.000Z</time>
      </trkpt>
      <trkpt lat="44.40238" lon="6.37738">
        <ele>1995</ele>
        <time>2021-09-01T10:08:11.000Z</time>
      </trkpt>
      <trkpt lat="44.40237" lon="6.37741">
        <ele>1995</ele>
        <time>2021-09-01T10:08:12.000Z</time>
      </trkpt>
      <trkpt lat="44.40237" lon="6.37743">
        <ele>1995</ele>
        <time>2021-09-01T10:08:13.000Z</time>
      </trkpt>
      <trkpt lat="44.40236" lon="6.37747">
        <ele>1994</ele>
        <time>2021-09-01T10:08:14.000Z</time>
      </trkpt>
      <trkpt lat="44.40235" lon="6.37749">
        <ele>1994</ele>
        <time>2021-09-01T10:08:15.000Z</time>
      </trkpt>
      <trkpt lat="44.40235" lon="6.37752">
        <ele>1994</ele>
        <time>2021-09-01T10:08:16.000Z</time>
      </trkpt>
      <trkpt lat="44.40234" lon="6.37754">
        <ele>1995</ele>
        <time>2021-09-01T10:08:17.000Z</time>
      </trkpt>
      <trkpt lat="44.40233" lon="6.37757">
        <ele>1996</ele>
        <time>2021-09-01T10:08:18.000Z</time>
      </trkpt>
      <trkpt lat="44.40232" lon="6.3776">
        <ele>1996</ele>
        <time>2021-09-01T10:08:19.000Z</time>
      </trkpt>
      <trkpt lat="44.40232" lon="6.37762">
        <ele>1995</ele>
        <time>2021-09-01T10:08:20.000Z</time>
      </trkpt>
      <trkpt lat="44.40231" lon="6.37764">
        <ele>1995</ele>
        <time>2021-09-01T10:08:21.000Z</time>
      </trkpt>
      <trkpt lat="44.40231" lon="6.37767">
        <ele>1996</ele>
        <time>2021-09-01T10:08:22.000Z</time>
      </trkpt>
      <trkpt lat="44.40231" lon="6.37769">
        <ele>1996</ele>
        <time>2021-09-01T10:08:23.000Z</time>
      </trkpt>
      <trkpt lat="44.4023" lon="6.37772">
        <ele>1996</ele>
        <time>2021-09-01T10:08:24.000Z</time>
      </trkpt>
      <trkpt lat="44.40229" lon="6.37774">
        <ele>1997</ele>
        <time>2021-09-01T10:08:25.000Z</time>
      </trkpt>
      <trkpt lat="44.40229" lon="6.37776">
        <ele>1997</ele>
        <time>2021-09-01T10:08:26.000Z</time>
      </trkpt>
      <trkpt lat="44.40227" lon="6.37779">
        <ele>1997</ele>
        <time>2021-09-01T10:08:27.000Z</time>
      </trkpt>
      <trkpt lat="44.40225" lon="6.37782">
        <ele>1997</ele>
        <time>2021-09-01T10:08:28.000Z</time>
      </trkpt>
      <trkpt lat="44.40223" lon="6.37784">
        <ele>1998</ele>
        <time>2021-09-01T10:08:29.000Z</time>
      </trkpt>
      <trkpt lat="44.40221" lon="6.37786">
        <ele>1999</ele>
        <time>2021-09-01T10:08:30.000Z</time>
      </trkpt>
      <trkpt lat="44.40218" lon="6.37788">
        <ele>1999</ele>
        <time>2021-09-01T10:08:31.000Z</time>
      </trkpt>
      <trkpt lat="44.40217" lon="6.3779">
        <ele>1999</ele>
        <time>2021-09-01T10:08:32.000Z</time>
      </trkpt>
      <trkpt lat="44.40215" lon="6.37792">
        <ele>1998</ele>
        <time>2021-09-01T10:08:33.000Z</time>
      </trkpt>
      <trkpt lat="44.40213" lon="6.37794">
        <ele>1998</ele>
        <time>2021-09-01T10:08:34.000Z</time>
      </trkpt>
      <trkpt lat="44.40212" lon="6.37796">
        <ele>1998</ele>
        <time>2021-09-01T10:08:35.000Z</time>
      </trkpt>
      <trkpt lat="44.4021" lon="6.37798">
        <ele>1997</ele>
        <time>2021-09-01T10:08:36.000Z</time>
      </trkpt>
      <trkpt lat="44.40208" lon="6.378">
        <ele>1997</ele>
        <time>2021-09-01T10:08:37.000Z</time>
      </trkpt>
      <trkpt lat="44.40207" lon="6.37802">
        <ele>1997</ele>
        <time>2021-09-01T10:08:38.000Z</time>
      </trkpt>
      <trkpt lat="44.40205" lon="6.37803">
        <ele>1997</ele>
        <time>2021-09-01T10:08:39.000Z</time>
      </trkpt>
      <trkpt lat="44.40203" lon="6.37804">
        <ele>1997</ele>
        <time>2021-09-01T10:08:40.000Z</time>
      </trkpt>
      <trkpt lat="44.40201" lon="6.37805">
        <ele>1998</ele>
        <time>2021-09-01T10:08:41.000Z</time>
      </trkpt>
      <trkpt lat="44.402" lon="6.37806">
        <ele>1998</ele>
        <time>2021-09-01T10:08:42.000Z</time>
      </trkpt>
      <trkpt lat="44.40198" lon="6.37808">
        <ele>1998</ele>
        <time>2021-09-01T10:08:43.000Z</time>
      </trkpt>
      <trkpt lat="44.40196" lon="6.37809">
        <ele>1999</ele>
        <time>2021-09-01T10:08:44.000Z</time>
      </trkpt>
      <trkpt lat="44.40194" lon="6.37811">
        <ele>2000</ele>
        <time>2021-09-01T10:08:45.000Z</time>
      </trkpt>
      <trkpt lat="44.40192" lon="6.37812">
        <ele>2000</ele>
        <time>2021-09-01T10:08:46.000Z</time>
      </trkpt>
      <trkpt lat="44.4019" lon="6.37814">
        <ele>1999</ele>
        <time>2021-09-01T10:08:47.000Z</time>
      </trkpt>
      <trkpt lat="44.40188" lon="6.37816">
        <ele>1999</ele>
        <time>2021-09-01T10:08:48.000Z</time>
      </trkpt>
      <trkpt lat="44.40187" lon="6.37817">
        <ele>1999</ele>
        <time>2021-09-01T10:08:49.000Z</time>
      </trkpt>
      <trkpt lat="44.40185" lon="6.37819">
        <ele>2000</ele>
        <time>2021-09-01T10:08:50.000Z</time>
      </trkpt>
      <trkpt lat="44.40182" lon="6.37821">
        <ele>2002</ele>
        <time>2021-09-01T10:08:51.000Z</time>
      </trkpt>
      <trkpt lat="44.4018" lon="6.37823">
        <ele>2002</ele>
        <time>2021-09-01T10:08:52.000Z</time>
      </trkpt>
      <trkpt lat="44.40179" lon="6.37825">
        <ele>2002</ele>
        <time>2021-09-01T10:08:53.000Z</time>
      </trkpt>
      <trkpt lat="44.40177" lon="6.37827">
        <ele>2001</ele>
        <time>2021-09-01T10:08:54.000Z</time>
      </trkpt>
      <trkpt lat="44.40175" lon="6.37829">
        <ele>2003</ele>
        <time>2021-09-01T10:08:55.000Z</time>
      </trkpt>
      <trkpt lat="44.40174" lon="6.37831">
        <ele>2003</ele>
        <time>2021-09-01T10:08:56.000Z</time>
      </trkpt>
      <trkpt lat="44.40172" lon="6.37833">
        <ele>2003</ele>
        <time>2021-09-01T10:08:57.000Z</time>
      </trkpt>
      <trkpt lat="44.4017" lon="6.37836">
        <ele>2004</ele>
        <time>2021-09-01T10:08:58.000Z</time>
      </trkpt>
      <trkpt lat="44.40169" lon="6.37838">
        <ele>2004</ele>
        <time>2021-09-01T10:08:59.000Z</time>
      </trkpt>
      <trkpt lat="44.40168" lon="6.3784">
        <ele>2004</ele>
        <time>2021-09-01T10:09:00.000Z</time>
      </trkpt>
      <trkpt lat="44.40166" lon="6.37843">
        <ele>2004</ele>
        <time>2021-09-01T10:09:01.000Z</time>
      </trkpt>
      <trkpt lat="44.40164" lon="6.37845">
        <ele>2004</ele>
        <time>2021-09-01T10:09:02.000Z</time>
      </trkpt>
      <trkpt lat="44.40162" lon="6.37847">
        <ele>2004</ele>
        <time>2021-09-01T10:09:03.000Z</time>
      </trkpt>
      <trkpt lat="44.4016" lon="6.3785">
        <ele>2005</ele>
        <time>2021-09-01T10:09:04.000Z</time>
      </trkpt>
      <trkpt lat="44.40159" lon="6.37852">
        <ele>2004</ele>
        <time>2021-09-01T10:09:05.000Z</time>
      </trkpt>
      <trkpt lat="44.40157" lon="6.37855">
        <ele>2004</ele>
        <time>2021-09-01T10:09:06.000Z</time>
      </trkpt>
      <trkpt lat="44.40156" lon="6.37857">
        <ele>2004</ele>
        <time>2021-09-01T10:09:07.000Z</time>
      </trkpt>
      <trkpt lat="44.40154" lon="6.3786">
        <ele>2004</ele>
        <time>2021-09-01T10:09:08.000Z</time>
      </trkpt>
      <trkpt lat="44.40153" lon="6.37862">
        <ele>2005</ele>
        <time>2021-09-01T10:09:09.000Z</time>
      </trkpt>
      <trkpt lat="44.40151" lon="6.37865">
        <ele>2006</ele>
        <time>2021-09-01T10:09:10.000Z</time>
      </trkpt>
      <trkpt lat="44.4015" lon="6.37868">
        <ele>2006</ele>
        <time>2021-09-01T10:09:11.000Z</time>
      </trkpt>
      <trkpt lat="44.40148" lon="6.37871">
        <ele>2007</ele>
        <time>2021-09-01T10:09:12.000Z</time>
      </trkpt>
      <trkpt lat="44.40146" lon="6.37873">
        <ele>2007</ele>
        <time>2021-09-01T10:09:13.000Z</time>
      </trkpt>
      <trkpt lat="44.40145" lon="6.37875">
        <ele>2008</ele>
        <time>2021-09-01T10:09:14.000Z</time>
      </trkpt>
      <trkpt lat="44.40143" lon="6.37878">
        <ele>2008</ele>
        <time>2021-09-01T10:09:15.000Z</time>
      </trkpt>
      <trkpt lat="44.40141" lon="6.3788">
        <ele>2008</ele>
        <time>2021-09-01T10:09:16.000Z</time>
      </trkpt>
      <trkpt lat="44.4014" lon="6.37883">
        <ele>2009</ele>
        <time>2021-09-01T10:09:17.000Z</time>
      </trkpt>
      <trkpt lat="44.40138" lon="6.37886">
        <ele>2009</ele>
        <time>2021-09-01T10:09:18.000Z</time>
      </trkpt>
      <trkpt lat="44.40137" lon="6.37888">
        <ele>2009</ele>
        <time>2021-09-01T10:09:19.000Z</time>
      </trkpt>
      <trkpt lat="44.40135" lon="6.37891">
        <ele>2010</ele>
        <time>2021-09-01T10:09:20.000Z</time>
      </trkpt>
      <trkpt lat="44.40133" lon="6.37893">
        <ele>2010</ele>
        <time>2021-09-01T10:09:21.000Z</time>
      </trkpt>
      <trkpt lat="44.40132" lon="6.37895">
        <ele>2010</ele>
        <time>2021-09-01T10:09:22.000Z</time>
      </trkpt>
      <trkpt lat="44.4013" lon="6.37898">
        <ele>2011</ele>
        <time>2021-09-01T10:09:23.000Z</time>
      </trkpt>
      <trkpt lat="44.40128" lon="6.379">
        <ele>2011</ele>
        <time>2021-09-01T10:09:24.000Z</time>
      </trkpt>
      <trkpt lat="44.40126" lon="6.37902">
        <ele>2011</ele>
        <time>2021-09-01T10:09:25.000Z</time>
      </trkpt>
      <trkpt lat="44.40125" lon="6.37905">
        <ele>2011</ele>
        <time>2021-09-01T10:09:26.000Z</time>
      </trkpt>
      <trkpt lat="44.40123" lon="6.37908">
        <ele>2011</ele>
        <time>2021-09-01T10:09:27.000Z</time>
      </trkpt>
      <trkpt lat="44.40121" lon="6.3791">
        <ele>2012</ele>
        <time>2021-09-01T10:09:28.000Z</time>
      </trkpt>
      <trkpt lat="44.4012" lon="6.37912">
        <ele>2012</ele>
        <time>2021-09-01T10:09:29.000Z</time>
      </trkpt>
      <trkpt lat="44.40118" lon="6.37915">
        <ele>2013</ele>
        <time>2021-09-01T10:09:30.000Z</time>
      </trkpt>
      <trkpt lat="44.40116" lon="6.37918">
        <ele>2014</ele>
        <time>2021-09-01T10:09:31.000Z</time>
      </trkpt>
      <trkpt lat="44.40114" lon="6.3792">
        <ele>2015</ele>
        <time>2021-09-01T10:09:32.000Z</time>
      </trkpt>
      <trkpt lat="44.40113" lon="6.37922">
        <ele>2016</ele>
        <time>2021-09-01T10:09:33.000Z</time>
      </trkpt>
      <trkpt lat="44.40111" lon="6.37925">
        <ele>2017</ele>
        <time>2021-09-01T10:09:34.000Z</time>
      </trkpt>
      <trkpt lat="44.4011" lon="6.37927">
        <ele>2017</ele>
        <time>2021-09-01T10:09:35.000Z</time>
      </trkpt>
      <trkpt lat="44.40108" lon="6.37929">
        <ele>2017</ele>
        <time>2021-09-01T10:09:36.000Z</time>
      </trkpt>
      <trkpt lat="44.40107" lon="6.37931">
        <ele>2018</ele>
        <time>2021-09-01T10:09:37.000Z</time>
      </trkpt>
      <trkpt lat="44.40105" lon="6.37933">
        <ele>2018</ele>
        <time>2021-09-01T10:09:38.000Z</time>
      </trkpt>
      <trkpt lat="44.40104" lon="6.37935">
        <ele>2018</ele>
        <time>2021-09-01T10:09:39.000Z</time>
      </trkpt>
      <trkpt lat="44.40102" lon="6.37937">
        <ele>2018</ele>
        <time>2021-09-01T10:09:40.000Z</time>
      </trkpt>
      <trkpt lat="44.401" lon="6.37939">
        <ele>2018</ele>
        <time>2021-09-01T10:09:41.000Z</time>
      </trkpt>
      <trkpt lat="44.40099" lon="6.37941">
        <ele>2018</ele>
        <time>2021-09-01T10:09:42.000Z</time>
      </trkpt>
      <trkpt lat="44.40097" lon="6.37943">
        <ele>2018</ele>
        <time>2021-09-01T10:09:43.000Z</time>
      </trkpt>
      <trkpt lat="44.40095" lon="6.37945">
        <ele>2019</ele>
        <time>2021-09-01T10:09:44.000Z</time>
      </trkpt>
      <trkpt lat="44.40094" lon="6.37947">
        <ele>2018</ele>
        <time>2021-09-01T10:09:45.000Z</time>
      </trkpt>
      <trkpt lat="44.40092" lon="6.37949">
        <ele>2019</ele>
        <time>2021-09-01T10:09:46.000Z</time>
      </trkpt>
      <trkpt lat="44.4009" lon="6.3795">
        <ele>2019</ele>
        <time>2021-09-01T10:09:47.000Z</time>
      </trkpt>
      <trkpt lat="44.40088" lon="6.37952">
        <ele>2020</ele>
        <time>2021-09-01T10:09:48.000Z</time>
      </trkpt>
      <trkpt lat="44.40087" lon="6.37953">
        <ele>2019</ele>
        <time>2021-09-01T10:09:49.000Z</time>
      </trkpt>
      <trkpt lat="44.40085" lon="6.37955">
        <ele>2019</ele>
        <time>2021-09-01T10:09:50.000Z</time>
      </trkpt>
      <trkpt lat="44.40084" lon="6.37956">
        <ele>2019</ele>
        <time>2021-09-01T10:09:51.000Z</time>
      </trkpt>
      <trkpt lat="44.40083" lon="6.37957">
        <ele>2019</ele>
        <time>2021-09-01T10:09:52.000Z</time>
      </trkpt>
      <trkpt lat="44.40081" lon="6.37958">
        <ele>2019</ele>
        <time>2021-09-01T10:09:53.000Z</time>
      </trkpt>
      <trkpt lat="44.4008" lon="6.37959">
        <ele>2018</ele>
        <time>2021-09-01T10:09:54.000Z</time>
      </trkpt>
      <trkpt lat="44.40079" lon="6.3796">
        <ele>2018</ele>
        <time>2021-09-01T10:09:55.000Z</time>
      </trkpt>
      <trkpt lat="44.40078" lon="6.37961">
        <ele>2017</ele>
        <time>2021-09-01T10:09:56.000Z</time>
      </trkpt>
      <trkpt lat="44.40078" lon="6.37962">
        <ele>2017</ele>
        <time>2021-09-01T10:09:57.000Z</time>
      </trkpt>
      <trkpt lat="44.40077" lon="6.37963">
        <ele>2017</ele>
        <time>2021-09-01T10:09:58.000Z</time>
      </trkpt>
      <trkpt lat="44.40077" lon="6.37964">
        <ele>2017</ele>
        <time>2021-09-01T10:09:59.000Z</time>
      </trkpt>
      <trkpt lat="44.40077" lon="6.37964">
        <ele>2016</ele>
        <time>2021-09-01T10:10:00.000Z</time>
      </trkpt>
      <trkpt lat="44.40077" lon="6.37964">
        <ele>2016</ele>
        <time>2021-09-01T10:10:01.000Z</time>
      </trkpt>
      <trkpt lat="44.40076" lon="6.37964">
        <ele>2016</ele>
        <time>2021-09-01T10:10:02.000Z</time>
      </trkpt>
      <trkpt lat="44.40076" lon="6.37964">
        <ele>2017</ele>
        <time>2021-09-01T10:10:03.000Z</time>
      </trkpt>
      <trkpt lat="44.40076" lon="6.37964">
        <ele>2018</ele>
        <time>2021-09-01T10:10:04.000Z</time>
      </trkpt>
      <trkpt lat="44.40076" lon="6.37965">
        <ele>2018</ele>
        <time>2021-09-01T10:10:05.000Z</time>
      </trkpt>
      <trkpt lat="44.40075" lon="6.37965">
        <ele>2019</ele>
        <time>2021-09-01T10:10:06.000Z</time>
      </trkpt>
      <trkpt lat="44.40075" lon="6.37965">
        <ele>2020</ele>
        <time>2021-09-01T10:10:07.000Z</time>
      </trkpt>
      <trkpt lat="44.40075" lon="6.37965">
        <ele>2020</ele>
        <time>2021-09-01T10:10:08.000Z</time>
      </trkpt>
      <trkpt lat="44.40075" lon="6.37965">
        <ele>2020</ele>
        <time>2021-09-01T10:10:09.000Z</time>
      </trkpt>
      <trkpt lat="44.40075" lon="6.37965">
        <ele>2020</ele>
        <time>2021-09-01T10:10:10.000Z</time>
      </trkpt>
      <trkpt lat="44.40074" lon="6.37965">
        <ele>2020</ele>
        <time>2021-09-01T10:10:11.000Z</time>
      </trkpt>
      <trkpt lat="44.40074" lon="6.37965">
        <ele>2020</ele>
        <time>2021-09-01T10:10:12.000Z</time>
      </trkpt>
      <trkpt lat="44.40074" lon="6.37965">
        <ele>2020</ele>
        <time>2021-09-01T10:10:13.000Z</time>
      </trkpt>
      <trkpt lat="44.40074" lon="6.37965">
        <ele>2020</ele>
        <time>2021-09-01T10:10:14.000Z</time>
      </trkpt>
      <trkpt lat="44.40074" lon="6.37965">
        <ele>2020</ele>
        <time>2021-09-01T10:10:15.000Z</time>
      </trkpt>
      <trkpt lat="44.40074" lon="6.37965">
        <ele>2020</ele>
        <time>2021-09-01T10:10:16.000Z</time>
      </trkpt>
      <trkpt lat="44.40074" lon="6.37965">
        <ele>2020</ele>
        <time>2021-09-01T10:10:17.000Z</time>
      </trkpt>
      <trkpt lat="44.40074" lon="6.37966">
        <ele>2020</ele>
        <time>2021-09-01T10:10:18.000Z</time>
      </trkpt>
      <trkpt lat="44.40074" lon="6.37966">
        <ele>2020</ele>
        <time>2021-09-01T10:10:19.000Z</time>
      </trkpt>
      <trkpt lat="44.40074" lon="6.37966">
        <ele>2020</ele>
        <time>2021-09-01T10:10:20.000Z</time>
      </trkpt>
      <trkpt lat="44.40074" lon="6.37966">
        <ele>2020</ele>
        <time>2021-09-01T10:10:21.000Z</time>
      </trkpt>
      <trkpt lat="44.40073" lon="6.37966">
        <ele>2020</ele>
        <time>2021-09-01T10:10:22.000Z</time>
      </trkpt>
      <trkpt lat="44.40073" lon="6.37966">
        <ele>2021</ele>
        <time>2021-09-01T10:10:23.000Z</time>
      </trkpt>
      <trkpt lat="44.40073" lon="6.37966">
        <ele>2021</ele>
        <time>2021-09-01T10:10:24.000Z</time>
      </trkpt>
      <trkpt lat="44.40073" lon="6.37966">
        <ele>2021</ele>
        <time>2021-09-01T10:10:25.000Z</time>
      </trkpt>
      <trkpt lat="44.40072" lon="6.37966">
        <ele>2021</ele>
        <time>2021-09-01T10:10:26.000Z</time>
      </trkpt>
      <trkpt lat="44.40072" lon="6.37966">
        <ele>2021</ele>
        <time>2021-09-01T10:10:27.000Z</time>
      </trkpt>
      <trkpt lat="44.40072" lon="6.37965">
        <ele>2021</ele>
        <time>2021-09-01T10:10:28.000Z</time>
      </trkpt>
      <trkpt lat="44.40072" lon="6.37966">
        <ele>2022</ele>
        <time>2021-09-01T10:10:29.000Z</time>
      </trkpt>
      <trkpt lat="44.40071" lon="6.37966">
        <ele>2021</ele>
        <time>2021-09-01T10:10:30.000Z</time>
      </trkpt>
      <trkpt lat="44.4007" lon="6.37967">
        <ele>2021</ele>
        <time>2021-09-01T10:10:31.000Z</time>
      </trkpt>
      <trkpt lat="44.40068" lon="6.37968">
        <ele>2023</ele>
        <time>2021-09-01T10:10:32.000Z</time>
      </trkpt>
      <trkpt lat="44.40067" lon="6.37968">
        <ele>2023</ele>
        <time>2021-09-01T10:10:33.000Z</time>
      </trkpt>
      <trkpt lat="44.40063" lon="6.3797">
        <ele>2022</ele>
        <time>2021-09-01T10:10:34.000Z</time>
      </trkpt>
      <trkpt lat="44.4006" lon="6.37971">
        <ele>2022</ele>
        <time>2021-09-01T10:10:35.000Z</time>
      </trkpt>
      <trkpt lat="44.40056" lon="6.37972">
        <ele>2021</ele>
        <time>2021-09-01T10:10:36.000Z</time>
      </trkpt>
      <trkpt lat="44.40052" lon="6.37973">
        <ele>2021</ele>
        <time>2021-09-01T10:10:37.000Z</time>
      </trkpt>
      <trkpt lat="44.40048" lon="6.37974">
        <ele>2020</ele>
        <time>2021-09-01T10:10:38.000Z</time>
      </trkpt>
      <trkpt lat="44.40045" lon="6.37976">
        <ele>2020</ele>
        <time>2021-09-01T10:10:39.000Z</time>
      </trkpt>
      <trkpt lat="44.4004" lon="6.37978">
        <ele>2021</ele>
        <time>2021-09-01T10:10:40.000Z</time>
      </trkpt>
      <trkpt lat="44.40036" lon="6.37981">
        <ele>2021</ele>
        <time>2021-09-01T10:10:41.000Z</time>
      </trkpt>
      <trkpt lat="44.40032" lon="6.37985">
        <ele>2019</ele>
        <time>2021-09-01T10:10:42.000Z</time>
      </trkpt>
      <trkpt lat="44.40026" lon="6.37989">
        <ele>2020</ele>
        <time>2021-09-01T10:10:43.000Z</time>
      </trkpt>
      <trkpt lat="44.40022" lon="6.37993">
        <ele>2019</ele>
        <time>2021-09-01T10:10:44.000Z</time>
      </trkpt>
      <trkpt lat="44.40017" lon="6.37998">
        <ele>2018</ele>
        <time>2021-09-01T10:10:45.000Z</time>
      </trkpt>
      <trkpt lat="44.40013" lon="6.38004">
        <ele>2018</ele>
        <time>2021-09-01T10:10:46.000Z</time>
      </trkpt>
      <trkpt lat="44.40008" lon="6.38009">
        <ele>2018</ele>
        <time>2021-09-01T10:10:47.000Z</time>
      </trkpt>
      <trkpt lat="44.40002" lon="6.38015">
        <ele>2018</ele>
        <time>2021-09-01T10:10:48.000Z</time>
      </trkpt>
      <trkpt lat="44.39996" lon="6.3802">
        <ele>2016</ele>
        <time>2021-09-01T10:10:49.000Z</time>
      </trkpt>
      <trkpt lat="44.3999" lon="6.38024">
        <ele>2015</ele>
        <time>2021-09-01T10:10:50.000Z</time>
      </trkpt>
      <trkpt lat="44.39983" lon="6.38028">
        <ele>2015</ele>
        <time>2021-09-01T10:10:51.000Z</time>
      </trkpt>
      <trkpt lat="44.39977" lon="6.38033">
        <ele>2015</ele>
        <time>2021-09-01T10:10:52.000Z</time>
      </trkpt>
      <trkpt lat="44.39971" lon="6.38036">
        <ele>2015</ele>
        <time>2021-09-01T10:10:53.000Z</time>
      </trkpt>
      <trkpt lat="44.39963" lon="6.38039">
        <ele>2013</ele>
        <time>2021-09-01T10:10:54.000Z</time>
      </trkpt>
      <trkpt lat="44.39954" lon="6.38041">
        <ele>2012</ele>
        <time>2021-09-01T10:10:55.000Z</time>
      </trkpt>
      <trkpt lat="44.39946" lon="6.38045">
        <ele>2013</ele>
        <time>2021-09-01T10:10:56.000Z</time>
      </trkpt>
      <trkpt lat="44.39939" lon="6.38049">
        <ele>2012</ele>
        <time>2021-09-01T10:10:57.000Z</time>
      </trkpt>
      <trkpt lat="44.39931" lon="6.38051">
        <ele>2011</ele>
        <time>2021-09-01T10:10:58.000Z</time>
      </trkpt>
      <trkpt lat="44.39923" lon="6.38055">
        <ele>2010</ele>
        <time>2021-09-01T10:10:59.000Z</time>
      </trkpt>
      <trkpt lat="44.39915" lon="6.38059">
        <ele>2009</ele>
        <time>2021-09-01T10:11:00.000Z</time>
      </trkpt>
      <trkpt lat="44.39908" lon="6.38063">
        <ele>2009</ele>
        <time>2021-09-01T10:11:01.000Z</time>
      </trkpt>
      <trkpt lat="44.399" lon="6.38067">
        <ele>2008</ele>
        <time>2021-09-01T10:11:02.000Z</time>
      </trkpt>
      <trkpt lat="44.39893" lon="6.38072">
        <ele>2007</ele>
        <time>2021-09-01T10:11:03.000Z</time>
      </trkpt>
      <trkpt lat="44.39886" lon="6.38075">
        <ele>2007</ele>
        <time>2021-09-01T10:11:04.000Z</time>
      </trkpt>
      <trkpt lat="44.39879" lon="6.38078">
        <ele>2006</ele>
        <time>2021-09-01T10:11:05.000Z</time>
      </trkpt>
      <trkpt lat="44.39873" lon="6.38081">
        <ele>2007</ele>
        <time>2021-09-01T10:11:06.000Z</time>
      </trkpt>
      <trkpt lat="44.39866" lon="6.38082">
        <ele>2006</ele>
        <time>2021-09-01T10:11:07.000Z</time>
      </trkpt>
      <trkpt lat="44.39859" lon="6.38083">
        <ele>2006</ele>
        <time>2021-09-01T10:11:08.000Z</time>
      </trkpt>
      <trkpt lat="44.39853" lon="6.38082">
        <ele>2007</ele>
        <time>2021-09-01T10:11:09.000Z</time>
      </trkpt>
      <trkpt lat="44.39846" lon="6.38081">
        <ele>2007</ele>
        <time>2021-09-01T10:11:10.000Z</time>
      </trkpt>
      <trkpt lat="44.39838" lon="6.3808">
        <ele>2006</ele>
        <time>2021-09-01T10:11:11.000Z</time>
      </trkpt>
      <trkpt lat="44.3983" lon="6.38081">
        <ele>2006</ele>
        <time>2021-09-01T10:11:12.000Z</time>
      </trkpt>
      <trkpt lat="44.39822" lon="6.38082">
        <ele>2007</ele>
        <time>2021-09-01T10:11:13.000Z</time>
      </trkpt>
      <trkpt lat="44.39815" lon="6.38083">
        <ele>2006</ele>
        <time>2021-09-01T10:11:14.000Z</time>
      </trkpt>
      <trkpt lat="44.39809" lon="6.38084">
        <ele>2006</ele>
        <time>2021-09-01T10:11:15.000Z</time>
      </trkpt>
      <trkpt lat="44.39802" lon="6.38086">
        <ele>2005</ele>
        <time>2021-09-01T10:11:16.000Z</time>
      </trkpt>
      <trkpt lat="44.39795" lon="6.38088">
        <ele>2004</ele>
        <time>2021-09-01T10:11:17.000Z</time>
      </trkpt>
      <trkpt lat="44.39787" lon="6.3809">
        <ele>2003</ele>
        <time>2021-09-01T10:11:18.000Z</time>
      </trkpt>
      <trkpt lat="44.3978" lon="6.38092">
        <ele>2003</ele>
        <time>2021-09-01T10:11:19.000Z</time>
      </trkpt>
      <trkpt lat="44.39773" lon="6.38094">
        <ele>2003</ele>
        <time>2021-09-01T10:11:20.000Z</time>
      </trkpt>
      <trkpt lat="44.39766" lon="6.38095">
        <ele>2002</ele>
        <time>2021-09-01T10:11:21.000Z</time>
      </trkpt>
      <trkpt lat="44.39759" lon="6.38097">
        <ele>2002</ele>
        <time>2021-09-01T10:11:22.000Z</time>
      </trkpt>
      <trkpt lat="44.39753" lon="6.381">
        <ele>2001</ele>
        <time>2021-09-01T10:11:23.000Z</time>
      </trkpt>
      <trkpt lat="44.39746" lon="6.38103">
        <ele>2001</ele>
        <time>2021-09-01T10:11:24.000Z</time>
      </trkpt>
      <trkpt lat="44.3974" lon="6.38105">
        <ele>2001</ele>
        <time>2021-09-01T10:11:25.000Z</time>
      </trkpt>
      <trkpt lat="44.39735" lon="6.38107">
        <ele>2000</ele>
        <time>2021-09-01T10:11:26.000Z</time>
      </trkpt>
      <trkpt lat="44.39728" lon="6.38106">
        <ele>1998</ele>
        <time>2021-09-01T10:11:27.000Z</time>
      </trkpt>
      <trkpt lat="44.39721" lon="6.38105">
        <ele>1997</ele>
        <time>2021-09-01T10:11:28.000Z</time>
      </trkpt>
      <trkpt lat="44.39714" lon="6.38105">
        <ele>1996</ele>
        <time>2021-09-01T10:11:29.000Z</time>
      </trkpt>
      <trkpt lat="44.39707" lon="6.38106">
        <ele>1996</ele>
        <time>2021-09-01T10:11:30.000Z</time>
      </trkpt>
      <trkpt lat="44.39701" lon="6.38107">
        <ele>1996</ele>
        <time>2021-09-01T10:11:31.000Z</time>
      </trkpt>
      <trkpt lat="44.39695" lon="6.38109">
        <ele>1995</ele>
        <time>2021-09-01T10:11:32.000Z</time>
      </trkpt>
      <trkpt lat="44.3969" lon="6.38111">
        <ele>1995</ele>
        <time>2021-09-01T10:11:33.000Z</time>
      </trkpt>
      <trkpt lat="44.39685" lon="6.38114">
        <ele>1995</ele>
        <time>2021-09-01T10:11:34.000Z</time>
      </trkpt>
      <trkpt lat="44.3968" lon="6.38116">
        <ele>1994</ele>
        <time>2021-09-01T10:11:35.000Z</time>
      </trkpt>
      <trkpt lat="44.39675" lon="6.38119">
        <ele>1993</ele>
        <time>2021-09-01T10:11:36.000Z</time>
      </trkpt>
      <trkpt lat="44.3967" lon="6.38123">
        <ele>1992</ele>
        <time>2021-09-01T10:11:37.000Z</time>
      </trkpt>
      <trkpt lat="44.39666" lon="6.38127">
        <ele>1991</ele>
        <time>2021-09-01T10:11:38.000Z</time>
      </trkpt>
      <trkpt lat="44.39662" lon="6.38136">
        <ele>1993</ele>
        <time>2021-09-01T10:11:39.000Z</time>
      </trkpt>
      <trkpt lat="44.39658" lon="6.38142">
        <ele>1994</ele>
        <time>2021-09-01T10:11:40.000Z</time>
      </trkpt>
      <trkpt lat="44.39654" lon="6.38148">
        <ele>1994</ele>
        <time>2021-09-01T10:11:41.000Z</time>
      </trkpt>
      <trkpt lat="44.3965" lon="6.38153">
        <ele>1994</ele>
        <time>2021-09-01T10:11:42.000Z</time>
      </trkpt>
      <trkpt lat="44.39647" lon="6.38159">
        <ele>1994</ele>
        <time>2021-09-01T10:11:43.000Z</time>
      </trkpt>
      <trkpt lat="44.39643" lon="6.38165">
        <ele>1994</ele>
        <time>2021-09-01T10:11:44.000Z</time>
      </trkpt>
      <trkpt lat="44.39639" lon="6.3817">
        <ele>1995</ele>
        <time>2021-09-01T10:11:45.000Z</time>
      </trkpt>
      <trkpt lat="44.39634" lon="6.38174">
        <ele>1995</ele>
        <time>2021-09-01T10:11:46.000Z</time>
      </trkpt>
      <trkpt lat="44.3963" lon="6.38179">
        <ele>1995</ele>
        <time>2021-09-01T10:11:47.000Z</time>
      </trkpt>
      <trkpt lat="44.39628" lon="6.38185">
        <ele>1995</ele>
        <time>2021-09-01T10:11:48.000Z</time>
      </trkpt>
      <trkpt lat="44.39624" lon="6.38191">
        <ele>1995</ele>
        <time>2021-09-01T10:11:49.000Z</time>
      </trkpt>
      <trkpt lat="44.39621" lon="6.38196">
        <ele>1995</ele>
        <time>2021-09-01T10:11:50.000Z</time>
      </trkpt>
      <trkpt lat="44.39618" lon="6.38203">
        <ele>1996</ele>
        <time>2021-09-01T10:11:51.000Z</time>
      </trkpt>
      <trkpt lat="44.39615" lon="6.38209">
        <ele>1996</ele>
        <time>2021-09-01T10:11:52.000Z</time>
      </trkpt>
      <trkpt lat="44.39611" lon="6.38215">
        <ele>1996</ele>
        <time>2021-09-01T10:11:53.000Z</time>
      </trkpt>
      <trkpt lat="44.39608" lon="6.3822">
        <ele>1996</ele>
        <time>2021-09-01T10:11:54.000Z</time>
      </trkpt>
      <trkpt lat="44.39604" lon="6.38225">
        <ele>1995</ele>
        <time>2021-09-01T10:11:55.000Z</time>
      </trkpt>
      <trkpt lat="44.39598" lon="6.3823">
        <ele>1996</ele>
        <time>2021-09-01T10:11:56.000Z</time>
      </trkpt>
      <trkpt lat="44.3959" lon="6.38236">
        <ele>1997</ele>
        <time>2021-09-01T10:11:57.000Z</time>
      </trkpt>
      <trkpt lat="44.39585" lon="6.38242">
        <ele>1996</ele>
        <time>2021-09-01T10:11:58.000Z</time>
      </trkpt>
      <trkpt lat="44.39578" lon="6.38248">
        <ele>1994</ele>
        <time>2021-09-01T10:11:59.000Z</time>
      </trkpt>
      <trkpt lat="44.39573" lon="6.38253">
        <ele>1993</ele>
        <time>2021-09-01T10:12:00.000Z</time>
      </trkpt>
      <trkpt lat="44.39567" lon="6.38258">
        <ele>1993</ele>
        <time>2021-09-01T10:12:01.000Z</time>
      </trkpt>
      <trkpt lat="44.39562" lon="6.38264">
        <ele>1992</ele>
        <time>2021-09-01T10:12:02.000Z</time>
      </trkpt>
      <trkpt lat="44.39556" lon="6.38268">
        <ele>1992</ele>
        <time>2021-09-01T10:12:03.000Z</time>
      </trkpt>
      <trkpt lat="44.3955" lon="6.38273">
        <ele>1991</ele>
        <time>2021-09-01T10:12:04.000Z</time>
      </trkpt>
      <trkpt lat="44.39544" lon="6.38277">
        <ele>1990</ele>
        <time>2021-09-01T10:12:05.000Z</time>
      </trkpt>
      <trkpt lat="44.39538" lon="6.38282">
        <ele>1990</ele>
        <time>2021-09-01T10:12:06.000Z</time>
      </trkpt>
      <trkpt lat="44.39532" lon="6.38287">
        <ele>1991</ele>
        <time>2021-09-01T10:12:07.000Z</time>
      </trkpt>
      <trkpt lat="44.39527" lon="6.38292">
        <ele>1991</ele>
        <time>2021-09-01T10:12:08.000Z</time>
      </trkpt>
      <trkpt lat="44.39521" lon="6.38297">
        <ele>1991</ele>
        <time>2021-09-01T10:12:09.000Z</time>
      </trkpt>
      <trkpt lat="44.39515" lon="6.38301">
        <ele>1991</ele>
        <time>2021-09-01T10:12:10.000Z</time>
      </trkpt>
      <trkpt lat="44.39509" lon="6.38305">
        <ele>1991</ele>
        <time>2021-09-01T10:12:11.000Z</time>
      </trkpt>
      <trkpt lat="44.39503" lon="6.38307">
        <ele>1989</ele>
        <time>2021-09-01T10:12:12.000Z</time>
      </trkpt>
      <trkpt lat="44.39496" lon="6.38307">
        <ele>1989</ele>
        <time>2021-09-01T10:12:13.000Z</time>
      </trkpt>
      <trkpt lat="44.39489" lon="6.38309">
        <ele>1988</ele>
        <time>2021-09-01T10:12:14.000Z</time>
      </trkpt>
      <trkpt lat="44.39483" lon="6.38313">
        <ele>1988</ele>
        <time>2021-09-01T10:12:15.000Z</time>
      </trkpt>
      <trkpt lat="44.39477" lon="6.38317">
        <ele>1989</ele>
        <time>2021-09-01T10:12:16.000Z</time>
      </trkpt>
      <trkpt lat="44.39471" lon="6.38323">
        <ele>1989</ele>
        <time>2021-09-01T10:12:17.000Z</time>
      </trkpt>
      <trkpt lat="44.39466" lon="6.38329">
        <ele>1989</ele>
        <time>2021-09-01T10:12:18.000Z</time>
      </trkpt>
      <trkpt lat="44.39461" lon="6.38334">
        <ele>1988</ele>
        <time>2021-09-01T10:12:19.000Z</time>
      </trkpt>
      <trkpt lat="44.39455" lon="6.3834">
        <ele>1988</ele>
        <time>2021-09-01T10:12:20.000Z</time>
      </trkpt>
      <trkpt lat="44.3945" lon="6.38345">
        <ele>1988</ele>
        <time>2021-09-01T10:12:21.000Z</time>
      </trkpt>
      <trkpt lat="44.39444" lon="6.3835">
        <ele>1988</ele>
        <time>2021-09-01T10:12:22.000Z</time>
      </trkpt>
      <trkpt lat="44.39438" lon="6.38355">
        <ele>1988</ele>
        <time>2021-09-01T10:12:23.000Z</time>
      </trkpt>
      <trkpt lat="44.39433" lon="6.38359">
        <ele>1988</ele>
        <time>2021-09-01T10:12:24.000Z</time>
      </trkpt>
      <trkpt lat="44.39427" lon="6.38363">
        <ele>1988</ele>
        <time>2021-09-01T10:12:25.000Z</time>
      </trkpt>
      <trkpt lat="44.39421" lon="6.38367">
        <ele>1987</ele>
        <time>2021-09-01T10:12:26.000Z</time>
      </trkpt>
      <trkpt lat="44.39415" lon="6.3837">
        <ele>1986</ele>
        <time>2021-09-01T10:12:27.000Z</time>
      </trkpt>
      <trkpt lat="44.39408" lon="6.38373">
        <ele>1986</ele>
        <time>2021-09-01T10:12:28.000Z</time>
      </trkpt>
      <trkpt lat="44.39402" lon="6.38377">
        <ele>1985</ele>
        <time>2021-09-01T10:12:29.000Z</time>
      </trkpt>
      <trkpt lat="44.39395" lon="6.38381">
        <ele>1985</ele>
        <time>2021-09-01T10:12:30.000Z</time>
      </trkpt>
      <trkpt lat="44.39388" lon="6.38385">
        <ele>1985</ele>
        <time>2021-09-01T10:12:31.000Z</time>
      </trkpt>
      <trkpt lat="44.39381" lon="6.3839">
        <ele>1985</ele>
        <time>2021-09-01T10:12:32.000Z</time>
      </trkpt>
      <trkpt lat="44.39375" lon="6.38395">
        <ele>1985</ele>
        <time>2021-09-01T10:12:33.000Z</time>
      </trkpt>
      <trkpt lat="44.39369" lon="6.38401">
        <ele>1985</ele>
        <time>2021-09-01T10:12:34.000Z</time>
      </trkpt>
      <trkpt lat="44.39363" lon="6.38406">
        <ele>1984</ele>
        <time>2021-09-01T10:12:35.000Z</time>
      </trkpt>
      <trkpt lat="44.39356" lon="6.38411">
        <ele>1984</ele>
        <time>2021-09-01T10:12:36.000Z</time>
      </trkpt>
      <trkpt lat="44.3935" lon="6.38415">
        <ele>1983</ele>
        <time>2021-09-01T10:12:37.000Z</time>
      </trkpt>
      <trkpt lat="44.39344" lon="6.3842">
        <ele>1983</ele>
        <time>2021-09-01T10:12:38.000Z</time>
      </trkpt>
      <trkpt lat="44.39337" lon="6.38424">
        <ele>1983</ele>
        <time>2021-09-01T10:12:39.000Z</time>
      </trkpt>
      <trkpt lat="44.39331" lon="6.38429">
        <ele>1983</ele>
        <time>2021-09-01T10:12:40.000Z</time>
      </trkpt>
      <trkpt lat="44.39325" lon="6.38433">
        <ele>1982</ele>
        <time>2021-09-01T10:12:41.000Z</time>
      </trkpt>
      <trkpt lat="44.39318" lon="6.38436">
        <ele>1982</ele>
        <time>2021-09-01T10:12:42.000Z</time>
      </trkpt>
      <trkpt lat="44.39312" lon="6.3844">
        <ele>1981</ele>
        <time>2021-09-01T10:12:43.000Z</time>
      </trkpt>
      <trkpt lat="44.39305" lon="6.38442">
        <ele>1981</ele>
        <time>2021-09-01T10:12:44.000Z</time>
      </trkpt>
      <trkpt lat="44.39299" lon="6.38445">
        <ele>1979</ele>
        <time>2021-09-01T10:12:45.000Z</time>
      </trkpt>
      <trkpt lat="44.39293" lon="6.38446">
        <ele>1977</ele>
        <time>2021-09-01T10:12:46.000Z</time>
      </trkpt>
      <trkpt lat="44.39287" lon="6.38448">
        <ele>1975</ele>
        <time>2021-09-01T10:12:47.000Z</time>
      </trkpt>
      <trkpt lat="44.39281" lon="6.38452">
        <ele>1974</ele>
        <time>2021-09-01T10:12:48.000Z</time>
      </trkpt>
      <trkpt lat="44.39275" lon="6.38455">
        <ele>1974</ele>
        <time>2021-09-01T10:12:49.000Z</time>
      </trkpt>
      <trkpt lat="44.39269" lon="6.38461">
        <ele>1973</ele>
        <time>2021-09-01T10:12:50.000Z</time>
      </trkpt>
      <trkpt lat="44.39264" lon="6.38467">
        <ele>1972</ele>
        <time>2021-09-01T10:12:51.000Z</time>
      </trkpt>
      <trkpt lat="44.39259" lon="6.38474">
        <ele>1972</ele>
        <time>2021-09-01T10:12:52.000Z</time>
      </trkpt>
      <trkpt lat="44.39254" lon="6.38479">
        <ele>1972</ele>
        <time>2021-09-01T10:12:53.000Z</time>
      </trkpt>
      <trkpt lat="44.39249" lon="6.38486">
        <ele>1970</ele>
        <time>2021-09-01T10:12:54.000Z</time>
      </trkpt>
      <trkpt lat="44.39245" lon="6.38495">
        <ele>1968</ele>
        <time>2021-09-01T10:12:55.000Z</time>
      </trkpt>
      <trkpt lat="44.39241" lon="6.38504">
        <ele>1966</ele>
        <time>2021-09-01T10:12:56.000Z</time>
      </trkpt>
      <trkpt lat="44.39234" lon="6.3851">
        <ele>1967</ele>
        <time>2021-09-01T10:12:57.000Z</time>
      </trkpt>
      <trkpt lat="44.39228" lon="6.38517">
        <ele>1966</ele>
        <time>2021-09-01T10:12:58.000Z</time>
      </trkpt>
      <trkpt lat="44.39222" lon="6.38523">
        <ele>1966</ele>
        <time>2021-09-01T10:12:59.000Z</time>
      </trkpt>
      <trkpt lat="44.39216" lon="6.38528">
        <ele>1964</ele>
        <time>2021-09-01T10:13:00.000Z</time>
      </trkpt>
      <trkpt lat="44.39208" lon="6.38533">
        <ele>1965</ele>
        <time>2021-09-01T10:13:01.000Z</time>
      </trkpt>
      <trkpt lat="44.39201" lon="6.38539">
        <ele>1966</ele>
        <time>2021-09-01T10:13:02.000Z</time>
      </trkpt>
      <trkpt lat="44.39194" lon="6.38545">
        <ele>1966</ele>
        <time>2021-09-01T10:13:03.000Z</time>
      </trkpt>
      <trkpt lat="44.39186" lon="6.3855">
        <ele>1964</ele>
        <time>2021-09-01T10:13:04.000Z</time>
      </trkpt>
      <trkpt lat="44.39178" lon="6.38555">
        <ele>1964</ele>
        <time>2021-09-01T10:13:05.000Z</time>
      </trkpt>
      <trkpt lat="44.39171" lon="6.38562">
        <ele>1964</ele>
        <time>2021-09-01T10:13:06.000Z</time>
      </trkpt>
      <trkpt lat="44.39163" lon="6.38569">
        <ele>1964</ele>
        <time>2021-09-01T10:13:07.000Z</time>
      </trkpt>
      <trkpt lat="44.39155" lon="6.38575">
        <ele>1964</ele>
        <time>2021-09-01T10:13:08.000Z</time>
      </trkpt>
      <trkpt lat="44.39148" lon="6.38582">
        <ele>1964</ele>
        <time>2021-09-01T10:13:09.000Z</time>
      </trkpt>
      <trkpt lat="44.39141" lon="6.38588">
        <ele>1963</ele>
        <time>2021-09-01T10:13:10.000Z</time>
      </trkpt>
      <trkpt lat="44.39135" lon="6.38594">
        <ele>1963</ele>
        <time>2021-09-01T10:13:11.000Z</time>
      </trkpt>
      <trkpt lat="44.39129" lon="6.38602">
        <ele>1961</ele>
        <time>2021-09-01T10:13:12.000Z</time>
      </trkpt>
      <trkpt lat="44.39123" lon="6.3861">
        <ele>1961</ele>
        <time>2021-09-01T10:13:13.000Z</time>
      </trkpt>
      <trkpt lat="44.39118" lon="6.38618">
        <ele>1960</ele>
        <time>2021-09-01T10:13:14.000Z</time>
      </trkpt>
      <trkpt lat="44.39113" lon="6.38626">
        <ele>1960</ele>
        <time>2021-09-01T10:13:15.000Z</time>
      </trkpt>
      <trkpt lat="44.39107" lon="6.38633">
        <ele>1960</ele>
        <time>2021-09-01T10:13:16.000Z</time>
      </trkpt>
      <trkpt lat="44.39101" lon="6.38639">
        <ele>1960</ele>
        <time>2021-09-01T10:13:17.000Z</time>
      </trkpt>
      <trkpt lat="44.39095" lon="6.38646">
        <ele>1960</ele>
        <time>2021-09-01T10:13:18.000Z</time>
      </trkpt>
      <trkpt lat="44.3909" lon="6.38654">
        <ele>1959</ele>
        <time>2021-09-01T10:13:19.000Z</time>
      </trkpt>
      <trkpt lat="44.39085" lon="6.38661">
        <ele>1959</ele>
        <time>2021-09-01T10:13:20.000Z</time>
      </trkpt>
      <trkpt lat="44.39079" lon="6.38667">
        <ele>1960</ele>
        <time>2021-09-01T10:13:21.000Z</time>
      </trkpt>
      <trkpt lat="44.39074" lon="6.38674">
        <ele>1961</ele>
        <time>2021-09-01T10:13:22.000Z</time>
      </trkpt>
      <trkpt lat="44.39068" lon="6.38679">
        <ele>1961</ele>
        <time>2021-09-01T10:13:23.000Z</time>
      </trkpt>
      <trkpt lat="44.39063" lon="6.38684">
        <ele>1961</ele>
        <time>2021-09-01T10:13:24.000Z</time>
      </trkpt>
      <trkpt lat="44.39057" lon="6.3869">
        <ele>1961</ele>
        <time>2021-09-01T10:13:25.000Z</time>
      </trkpt>
      <trkpt lat="44.39052" lon="6.38694">
        <ele>1961</ele>
        <time>2021-09-01T10:13:26.000Z</time>
      </trkpt>
      <trkpt lat="44.39047" lon="6.38698">
        <ele>1960</ele>
        <time>2021-09-01T10:13:27.000Z</time>
      </trkpt>
      <trkpt lat="44.39041" lon="6.38702">
        <ele>1959</ele>
        <time>2021-09-01T10:13:28.000Z</time>
      </trkpt>
      <trkpt lat="44.39035" lon="6.38706">
        <ele>1958</ele>
        <time>2021-09-01T10:13:29.000Z</time>
      </trkpt>
      <trkpt lat="44.39029" lon="6.3871">
        <ele>1958</ele>
        <time>2021-09-01T10:13:30.000Z</time>
      </trkpt>
      <trkpt lat="44.39024" lon="6.38715">
        <ele>1958</ele>
        <time>2021-09-01T10:13:31.000Z</time>
      </trkpt>
      <trkpt lat="44.3902" lon="6.38721">
        <ele>1958</ele>
        <time>2021-09-01T10:13:32.000Z</time>
      </trkpt>
      <trkpt lat="44.39016" lon="6.38727">
        <ele>1956</ele>
        <time>2021-09-01T10:13:33.000Z</time>
      </trkpt>
      <trkpt lat="44.39012" lon="6.38731">
        <ele>1955</ele>
        <time>2021-09-01T10:13:34.000Z</time>
      </trkpt>
      <trkpt lat="44.39008" lon="6.38737">
        <ele>1956</ele>
        <time>2021-09-01T10:13:35.000Z</time>
      </trkpt>
      <trkpt lat="44.39004" lon="6.3874">
        <ele>1956</ele>
        <time>2021-09-01T10:13:36.000Z</time>
      </trkpt>
      <trkpt lat="44.39" lon="6.38744">
        <ele>1956</ele>
        <time>2021-09-01T10:13:37.000Z</time>
      </trkpt>
      <trkpt lat="44.38995" lon="6.38747">
        <ele>1956</ele>
        <time>2021-09-01T10:13:38.000Z</time>
      </trkpt>
      <trkpt lat="44.38991" lon="6.3875">
        <ele>1957</ele>
        <time>2021-09-01T10:13:39.000Z</time>
      </trkpt>
      <trkpt lat="44.38987" lon="6.38753">
        <ele>1956</ele>
        <time>2021-09-01T10:13:40.000Z</time>
      </trkpt>
      <trkpt lat="44.38983" lon="6.38756">
        <ele>1956</ele>
        <time>2021-09-01T10:13:41.000Z</time>
      </trkpt>
      <trkpt lat="44.38979" lon="6.38759">
        <ele>1956</ele>
        <time>2021-09-01T10:13:42.000Z</time>
      </trkpt>
      <trkpt lat="44.38976" lon="6.38761">
        <ele>1956</ele>
        <time>2021-09-01T10:13:43.000Z</time>
      </trkpt>
      <trkpt lat="44.38973" lon="6.38764">
        <ele>1956</ele>
        <time>2021-09-01T10:13:44.000Z</time>
      </trkpt>
      <trkpt lat="44.38969" lon="6.38767">
        <ele>1956</ele>
        <time>2021-09-01T10:13:45.000Z</time>
      </trkpt>
      <trkpt lat="44.38967" lon="6.38769">
        <ele>1955</ele>
        <time>2021-09-01T10:13:46.000Z</time>
      </trkpt>
      <trkpt lat="44.38965" lon="6.38769">
        <ele>1957</ele>
        <time>2021-09-01T10:13:47.000Z</time>
      </trkpt>
      <trkpt lat="44.38964" lon="6.38769">
        <ele>1959</ele>
        <time>2021-09-01T10:13:48.000Z</time>
      </trkpt>
      <trkpt lat="44.38963" lon="6.38767">
        <ele>1961</ele>
        <time>2021-09-01T10:13:49.000Z</time>
      </trkpt>
      <trkpt lat="44.38963" lon="6.38767">
        <ele>1961</ele>
        <time>2021-09-01T10:13:50.000Z</time>
      </trkpt>
      <trkpt lat="44.38963" lon="6.38767">
        <ele>1960</ele>
        <time>2021-09-01T10:13:51.000Z</time>
      </trkpt>
      <trkpt lat="44.38962" lon="6.38766">
        <ele>1958</ele>
        <time>2021-09-01T10:13:52.000Z</time>
      </trkpt>
      <trkpt lat="44.38961" lon="6.38765">
        <ele>1958</ele>
        <time>2021-09-01T10:13:53.000Z</time>
      </trkpt>
      <trkpt lat="44.38961" lon="6.38765">
        <ele>1958</ele>
        <time>2021-09-01T10:13:54.000Z</time>
      </trkpt>
      <trkpt lat="44.38961" lon="6.38764">
        <ele>1958</ele>
        <time>2021-09-01T10:13:55.000Z</time>
      </trkpt>
      <trkpt lat="44.38961" lon="6.38764">
        <ele>1958</ele>
        <time>2021-09-01T10:13:56.000Z</time>
      </trkpt>
      <trkpt lat="44.3896" lon="6.38764">
        <ele>1958</ele>
        <time>2021-09-01T10:13:57.000Z</time>
      </trkpt>
      <trkpt lat="44.3896" lon="6.38764">
        <ele>1958</ele>
        <time>2021-09-01T10:13:58.000Z</time>
      </trkpt>
      <trkpt lat="44.3896" lon="6.38763">
        <ele>1957</ele>
        <time>2021-09-01T10:13:59.000Z</time>
      </trkpt>
      <trkpt lat="44.3896" lon="6.38763">
        <ele>1957</ele>
        <time>2021-09-01T10:14:00.000Z</time>
      </trkpt>
      <trkpt lat="44.3896" lon="6.38763">
        <ele>1957</ele>
        <time>2021-09-01T10:14:01.000Z</time>
      </trkpt>
      <trkpt lat="44.3896" lon="6.38763">
        <ele>1957</ele>
        <time>2021-09-01T10:14:02.000Z</time>
      </trkpt>
      <trkpt lat="44.3896" lon="6.38763">
        <ele>1957</ele>
        <time>2021-09-01T10:14:03.000Z</time>
      </trkpt>
      <trkpt lat="44.38959" lon="6.38763">
        <ele>1957</ele>
        <time>2021-09-01T10:14:04.000Z</time>
      </trkpt>
      <trkpt lat="44.38959" lon="6.38763">
        <ele>1957</ele>
        <time>2021-09-01T10:14:05.000Z</time>
      </trkpt>
      <trkpt lat="44.38959" lon="6.38763">
        <ele>1957</ele>
        <time>2021-09-01T10:14:06.000Z</time>
      </trkpt>
      <trkpt lat="44.38959" lon="6.38763">
        <ele>1957</ele>
        <time>2021-09-01T10:14:07.000Z</time>
      </trkpt>
      <trkpt lat="44.38959" lon="6.38763">
        <ele>1957</ele>
        <time>2021-09-01T10:14:08.000Z</time>
      </trkpt>
      <trkpt lat="44.38959" lon="6.38763">
        <ele>1957</ele>
        <time>2021-09-01T10:14:09.000Z</time>
      </trkpt>
      <trkpt lat="44.38959" lon="6.38762">
        <ele>1956</ele>
        <time>2021-09-01T10:14:10.000Z</time>
      </trkpt>
      <trkpt lat="44.38959" lon="6.38762">
        <ele>1956</ele>
        <time>2021-09-01T10:14:11.000Z</time>
      </trkpt>
      <trkpt lat="44.38959" lon="6.38762">
        <ele>1956</ele>
        <time>2021-09-01T10:14:12.000Z</time>
      </trkpt>
      <trkpt lat="44.38959" lon="6.38762">
        <ele>1956</ele>
        <time>2021-09-01T10:14:13.000Z</time>
      </trkpt>
      <trkpt lat="44.38959" lon="6.38762">
        <ele>1956</ele>
        <time>2021-09-01T10:14:14.000Z</time>
      </trkpt>
      <trkpt lat="44.38959" lon="6.38762">
        <ele>1956</ele>
        <time>2021-09-01T10:14:15.000Z</time>
      </trkpt>
      <trkpt lat="44.38959" lon="6.38762">
        <ele>1956</ele>
        <time>2021-09-01T10:14:16.000Z</time>
      </trkpt>
      <trkpt lat="44.38958" lon="6.38762">
        <ele>1956</ele>
        <time>2021-09-01T10:14:17.000Z</time>
      </trkpt>
      <trkpt lat="44.38958" lon="6.38763">
        <ele>1956</ele>
        <time>2021-09-01T10:14:18.000Z</time>
      </trkpt>
      <trkpt lat="44.38958" lon="6.38763">
        <ele>1956</ele>
        <time>2021-09-01T10:14:19.000Z</time>
      </trkpt>
      <trkpt lat="44.38958" lon="6.38763">
        <ele>1956</ele>
        <time>2021-09-01T10:14:20.000Z</time>
      </trkpt>
      <trkpt lat="44.38958" lon="6.38763">
        <ele>1956</ele>
        <time>2021-09-01T10:14:21.000Z</time>
      </trkpt>
      <trkpt lat="44.38958" lon="6.38763">
        <ele>1956</ele>
        <time>2021-09-01T10:14:22.000Z</time>
      </trkpt>
      <trkpt lat="44.38957" lon="6.38763">
        <ele>1956</ele>
        <time>2021-09-01T10:14:23.000Z</time>
      </trkpt>
      <trkpt lat="44.38957" lon="6.38763">
        <ele>1956</ele>
        <time>2021-09-01T10:14:24.000Z</time>
      </trkpt>
      <trkpt lat="44.38957" lon="6.38764">
        <ele>1956</ele>
        <time>2021-09-01T10:14:25.000Z</time>
      </trkpt>
      <trkpt lat="44.38956" lon="6.38765">
        <ele>1957</ele>
        <time>2021-09-01T10:14:26.000Z</time>
      </trkpt>
      <trkpt lat="44.38955" lon="6.38767">
        <ele>1958</ele>
        <time>2021-09-01T10:14:27.000Z</time>
      </trkpt>
      <trkpt lat="44.38953" lon="6.38769">
        <ele>1957</ele>
        <time>2021-09-01T10:14:28.000Z</time>
      </trkpt>
      <trkpt lat="44.38952" lon="6.38772">
        <ele>1957</ele>
        <time>2021-09-01T10:14:29.000Z</time>
      </trkpt>
      <trkpt lat="44.38951" lon="6.38775">
        <ele>1956</ele>
        <time>2021-09-01T10:14:30.000Z</time>
      </trkpt>
      <trkpt lat="44.38948" lon="6.38778">
        <ele>1957</ele>
        <time>2021-09-01T10:14:31.000Z</time>
      </trkpt>
      <trkpt lat="44.38945" lon="6.38781">
        <ele>1959</ele>
        <time>2021-09-01T10:14:32.000Z</time>
      </trkpt>
      <trkpt lat="44.38942" lon="6.38785">
        <ele>1959</ele>
        <time>2021-09-01T10:14:33.000Z</time>
      </trkpt>
      <trkpt lat="44.38938" lon="6.3879">
        <ele>1957</ele>
        <time>2021-09-01T10:14:34.000Z</time>
      </trkpt>
      <trkpt lat="44.38934" lon="6.38794">
        <ele>1956</ele>
        <time>2021-09-01T10:14:35.000Z</time>
      </trkpt>
      <trkpt lat="44.38931" lon="6.38799">
        <ele>1956</ele>
        <time>2021-09-01T10:14:36.000Z</time>
      </trkpt>
      <trkpt lat="44.38925" lon="6.38804">
        <ele>1957</ele>
        <time>2021-09-01T10:14:37.000Z</time>
      </trkpt>
      <trkpt lat="44.38921" lon="6.38809">
        <ele>1958</ele>
        <time>2021-09-01T10:14:38.000Z</time>
      </trkpt>
      <trkpt lat="44.38915" lon="6.38814">
        <ele>1959</ele>
        <time>2021-09-01T10:14:39.000Z</time>
      </trkpt>
      <trkpt lat="44.3891" lon="6.38819">
        <ele>1960</ele>
        <time>2021-09-01T10:14:40.000Z</time>
      </trkpt>
      <trkpt lat="44.38905" lon="6.38825">
        <ele>1959</ele>
        <time>2021-09-01T10:14:41.000Z</time>
      </trkpt>
      <trkpt lat="44.38898" lon="6.3883">
        <ele>1958</ele>
        <time>2021-09-01T10:14:42.000Z</time>
      </trkpt>
      <trkpt lat="44.38892" lon="6.38835">
        <ele>1957</ele>
        <time>2021-09-01T10:14:43.000Z</time>
      </trkpt>
      <trkpt lat="44.38885" lon="6.3884">
        <ele>1956</ele>
        <time>2021-09-01T10:14:44.000Z</time>
      </trkpt>
      <trkpt lat="44.38878" lon="6.38843">
        <ele>1955</ele>
        <time>2021-09-01T10:14:45.000Z</time>
      </trkpt>
      <trkpt lat="44.38873" lon="6.38846">
        <ele>1953</ele>
        <time>2021-09-01T10:14:46.000Z</time>
      </trkpt>
      <trkpt lat="44.38867" lon="6.38848">
        <ele>1951</ele>
        <time>2021-09-01T10:14:47.000Z</time>
      </trkpt>
      <trkpt lat="44.38861" lon="6.3885">
        <ele>1951</ele>
        <time>2021-09-01T10:14:48.000Z</time>
      </trkpt>
      <trkpt lat="44.38854" lon="6.3885">
        <ele>1949</ele>
        <time>2021-09-01T10:14:49.000Z</time>
      </trkpt>
      <trkpt lat="44.38847" lon="6.38852">
        <ele>1948</ele>
        <time>2021-09-01T10:14:50.000Z</time>
      </trkpt>
      <trkpt lat="44.38841" lon="6.38853">
        <ele>1947</ele>
        <time>2021-09-01T10:14:51.000Z</time>
      </trkpt>
      <trkpt lat="44.38835" lon="6.38855">
        <ele>1946</ele>
        <time>2021-09-01T10:14:52.000Z</time>
      </trkpt>
      <trkpt lat="44.38829" lon="6.38858">
        <ele>1946</ele>
        <time>2021-09-01T10:14:53.000Z</time>
      </trkpt>
      <trkpt lat="44.38825" lon="6.38862">
        <ele>1944</ele>
        <time>2021-09-01T10:14:54.000Z</time>
      </trkpt>
      <trkpt lat="44.3882" lon="6.38865">
        <ele>1943</ele>
        <time>2021-09-01T10:14:55.000Z</time>
      </trkpt>
      <trkpt lat="44.38815" lon="6.3887">
        <ele>1941</ele>
        <time>2021-09-01T10:14:56.000Z</time>
      </trkpt>
      <trkpt lat="44.38812" lon="6.38878">
        <ele>1941</ele>
        <time>2021-09-01T10:14:57.000Z</time>
      </trkpt>
      <trkpt lat="44.38808" lon="6.38884">
        <ele>1940</ele>
        <time>2021-09-01T10:14:58.000Z</time>
      </trkpt>
      <trkpt lat="44.38803" lon="6.3889">
        <ele>1940</ele>
        <time>2021-09-01T10:14:59.000Z</time>
      </trkpt>
      <trkpt lat="44.38799" lon="6.38897">
        <ele>1940</ele>
        <time>2021-09-01T10:15:00.000Z</time>
      </trkpt>
      <trkpt lat="44.38795" lon="6.38904">
        <ele>1939</ele>
        <time>2021-09-01T10:15:01.000Z</time>
      </trkpt>
      <trkpt lat="44.3879" lon="6.38911">
        <ele>1939</ele>
        <time>2021-09-01T10:15:02.000Z</time>
      </trkpt>
      <trkpt lat="44.38785" lon="6.38916">
        <ele>1938</ele>
        <time>2021-09-01T10:15:03.000Z</time>
      </trkpt>
      <trkpt lat="44.38779" lon="6.38919">
        <ele>1937</ele>
        <time>2021-09-01T10:15:04.000Z</time>
      </trkpt>
      <trkpt lat="44.38773" lon="6.38923">
        <ele>1936</ele>
        <time>2021-09-01T10:15:05.000Z</time>
      </trkpt>
      <trkpt lat="44.38767" lon="6.38928">
        <ele>1935</ele>
        <time>2021-09-01T10:15:06.000Z</time>
      </trkpt>
      <trkpt lat="44.38761" lon="6.38934">
        <ele>1933</ele>
        <time>2021-09-01T10:15:07.000Z</time>
      </trkpt>
      <trkpt lat="44.38755" lon="6.38942">
        <ele>1933</ele>
        <time>2021-09-01T10:15:08.000Z</time>
      </trkpt>
      <trkpt lat="44.3875" lon="6.38949">
        <ele>1932</ele>
        <time>2021-09-01T10:15:09.000Z</time>
      </trkpt>
      <trkpt lat="44.38744" lon="6.38957">
        <ele>1931</ele>
        <time>2021-09-01T10:15:10.000Z</time>
      </trkpt>
      <trkpt lat="44.38737" lon="6.38964">
        <ele>1930</ele>
        <time>2021-09-01T10:15:11.000Z</time>
      </trkpt>
      <trkpt lat="44.38731" lon="6.38972">
        <ele>1929</ele>
        <time>2021-09-01T10:15:12.000Z</time>
      </trkpt>
      <trkpt lat="44.38724" lon="6.3898">
        <ele>1928</ele>
        <time>2021-09-01T10:15:13.000Z</time>
      </trkpt>
      <trkpt lat="44.38716" lon="6.38987">
        <ele>1927</ele>
        <time>2021-09-01T10:15:14.000Z</time>
      </trkpt>
      <trkpt lat="44.38709" lon="6.38994">
        <ele>1926</ele>
        <time>2021-09-01T10:15:15.000Z</time>
      </trkpt>
      <trkpt lat="44.38702" lon="6.38999">
        <ele>1926</ele>
        <time>2021-09-01T10:15:16.000Z</time>
      </trkpt>
      <trkpt lat="44.38694" lon="6.39003">
        <ele>1925</ele>
        <time>2021-09-01T10:15:17.000Z</time>
      </trkpt>
      <trkpt lat="44.38687" lon="6.39006">
        <ele>1926</ele>
        <time>2021-09-01T10:15:18.000Z</time>
      </trkpt>
      <trkpt lat="44.38681" lon="6.3901">
        <ele>1925</ele>
        <time>2021-09-01T10:15:19.000Z</time>
      </trkpt>
      <trkpt lat="44.38675" lon="6.39015">
        <ele>1924</ele>
        <time>2021-09-01T10:15:20.000Z</time>
      </trkpt>
      <trkpt lat="44.38669" lon="6.3902">
        <ele>1923</ele>
        <time>2021-09-01T10:15:21.000Z</time>
      </trkpt>
      <trkpt lat="44.38663" lon="6.39026">
        <ele>1921</ele>
        <time>2021-09-01T10:15:22.000Z</time>
      </trkpt>
      <trkpt lat="44.38657" lon="6.39032">
        <ele>1921</ele>
        <time>2021-09-01T10:15:23.000Z</time>
      </trkpt>
      <trkpt lat="44.38651" lon="6.39039">
        <ele>1921</ele>
        <time>2021-09-01T10:15:24.000Z</time>
      </trkpt>
      <trkpt lat="44.38645" lon="6.39046">
        <ele>1920</ele>
        <time>2021-09-01T10:15:25.000Z</time>
      </trkpt>
      <trkpt lat="44.3864" lon="6.39055">
        <ele>1920</ele>
        <time>2021-09-01T10:15:26.000Z</time>
      </trkpt>
      <trkpt lat="44.38635" lon="6.39064">
        <ele>1919</ele>
        <time>2021-09-01T10:15:27.000Z</time>
      </trkpt>
      <trkpt lat="44.3863" lon="6.39072">
        <ele>1919</ele>
        <time>2021-09-01T10:15:28.000Z</time>
      </trkpt>
      <trkpt lat="44.38625" lon="6.39079">
        <ele>1919</ele>
        <time>2021-09-01T10:15:29.000Z</time>
      </trkpt>
      <trkpt lat="44.3862" lon="6.39085">
        <ele>1919</ele>
        <time>2021-09-01T10:15:30.000Z</time>
      </trkpt>
      <trkpt lat="44.38616" lon="6.39087">
        <ele>1918</ele>
        <time>2021-09-01T10:15:31.000Z</time>
      </trkpt>
      <trkpt lat="44.38615" lon="6.39084">
        <ele>1917</ele>
        <time>2021-09-01T10:15:32.000Z</time>
      </trkpt>
      <trkpt lat="44.38612" lon="6.39083">
        <ele>1916</ele>
        <time>2021-09-01T10:15:33.000Z</time>
      </trkpt>
      <trkpt lat="44.38609" lon="6.39083">
        <ele>1915</ele>
        <time>2021-09-01T10:15:34.000Z</time>
      </trkpt>
      <trkpt lat="44.38606" lon="6.39083">
        <ele>1913</ele>
        <time>2021-09-01T10:15:35.000Z</time>
      </trkpt>
      <trkpt lat="44.38603" lon="6.39083">
        <ele>1910</ele>
        <time>2021-09-01T10:15:36.000Z</time>
      </trkpt>
      <trkpt lat="44.386" lon="6.39082">
        <ele>1910</ele>
        <time>2021-09-01T10:15:37.000Z</time>
      </trkpt>
      <trkpt lat="44.38596" lon="6.39082">
        <ele>1910</ele>
        <time>2021-09-01T10:15:38.000Z</time>
      </trkpt>
      <trkpt lat="44.38593" lon="6.39083">
        <ele>1909</ele>
        <time>2021-09-01T10:15:39.000Z</time>
      </trkpt>
      <trkpt lat="44.38591" lon="6.39084">
        <ele>1908</ele>
        <time>2021-09-01T10:15:40.000Z</time>
      </trkpt>
      <trkpt lat="44.38588" lon="6.39085">
        <ele>1908</ele>
        <time>2021-09-01T10:15:41.000Z</time>
      </trkpt>
      <trkpt lat="44.38586" lon="6.39085">
        <ele>1907</ele>
        <time>2021-09-01T10:15:42.000Z</time>
      </trkpt>
      <trkpt lat="44.38583" lon="6.39086">
        <ele>1907</ele>
        <time>2021-09-01T10:15:43.000Z</time>
      </trkpt>
      <trkpt lat="44.38582" lon="6.39088">
        <ele>1906</ele>
        <time>2021-09-01T10:15:44.000Z</time>
      </trkpt>
      <trkpt lat="44.3858" lon="6.39089">
        <ele>1905</ele>
        <time>2021-09-01T10:15:45.000Z</time>
      </trkpt>
      <trkpt lat="44.38579" lon="6.3909">
        <ele>1905</ele>
        <time>2021-09-01T10:15:46.000Z</time>
      </trkpt>
      <trkpt lat="44.38577" lon="6.39092">
        <ele>1904</ele>
        <time>2021-09-01T10:15:47.000Z</time>
      </trkpt>
      <trkpt lat="44.38576" lon="6.39093">
        <ele>1904</ele>
        <time>2021-09-01T10:15:48.000Z</time>
      </trkpt>
      <trkpt lat="44.38575" lon="6.39094">
        <ele>1904</ele>
        <time>2021-09-01T10:15:49.000Z</time>
      </trkpt>
      <trkpt lat="44.38573" lon="6.39095">
        <ele>1904</ele>
        <time>2021-09-01T10:15:50.000Z</time>
      </trkpt>
      <trkpt lat="44.38572" lon="6.39095">
        <ele>1902</ele>
        <time>2021-09-01T10:15:51.000Z</time>
      </trkpt>
      <trkpt lat="44.38571" lon="6.39096">
        <ele>1902</ele>
        <time>2021-09-01T10:15:52.000Z</time>
      </trkpt>
      <trkpt lat="44.38569" lon="6.39096">
        <ele>1902</ele>
        <time>2021-09-01T10:15:53.000Z</time>
      </trkpt>
      <trkpt lat="44.38568" lon="6.39098">
        <ele>1901</ele>
        <time>2021-09-01T10:15:54.000Z</time>
      </trkpt>
      <trkpt lat="44.38565" lon="6.39098">
        <ele>1900</ele>
        <time>2021-09-01T10:15:55.000Z</time>
      </trkpt>
      <trkpt lat="44.38563" lon="6.391">
        <ele>1899</ele>
        <time>2021-09-01T10:15:56.000Z</time>
      </trkpt>
      <trkpt lat="44.3856" lon="6.39103">
        <ele>1898</ele>
        <time>2021-09-01T10:15:57.000Z</time>
      </trkpt>
      <trkpt lat="44.38558" lon="6.39105">
        <ele>1899</ele>
        <time>2021-09-01T10:15:58.000Z</time>
      </trkpt>
      <trkpt lat="44.38556" lon="6.39107">
        <ele>1899</ele>
        <time>2021-09-01T10:15:59.000Z</time>
      </trkpt>
      <trkpt lat="44.38554" lon="6.39109">
        <ele>1898</ele>
        <time>2021-09-01T10:16:00.000Z</time>
      </trkpt>
      <trkpt lat="44.38552" lon="6.39112">
        <ele>1897</ele>
        <time>2021-09-01T10:16:01.000Z</time>
      </trkpt>
      <trkpt lat="44.3855" lon="6.39115">
        <ele>1897</ele>
        <time>2021-09-01T10:16:02.000Z</time>
      </trkpt>
      <trkpt lat="44.38548" lon="6.39117">
        <ele>1897</ele>
        <time>2021-09-01T10:16:03.000Z</time>
      </trkpt>
      <trkpt lat="44.38547" lon="6.39122">
        <ele>1899</ele>
        <time>2021-09-01T10:16:04.000Z</time>
      </trkpt>
      <trkpt lat="44.38546" lon="6.39125">
        <ele>1899</ele>
        <time>2021-09-01T10:16:05.000Z</time>
      </trkpt>
      <trkpt lat="44.38544" lon="6.39128">
        <ele>1899</ele>
        <time>2021-09-01T10:16:06.000Z</time>
      </trkpt>
      <trkpt lat="44.38542" lon="6.3913">
        <ele>1899</ele>
        <time>2021-09-01T10:16:07.000Z</time>
      </trkpt>
      <trkpt lat="44.3854" lon="6.39133">
        <ele>1899</ele>
        <time>2021-09-01T10:16:08.000Z</time>
      </trkpt>
      <trkpt lat="44.38538" lon="6.39135">
        <ele>1898</ele>
        <time>2021-09-01T10:16:09.000Z</time>
      </trkpt>
      <trkpt lat="44.38537" lon="6.39136">
        <ele>1897</ele>
        <time>2021-09-01T10:16:10.000Z</time>
      </trkpt>
      <trkpt lat="44.38535" lon="6.39139">
        <ele>1897</ele>
        <time>2021-09-01T10:16:11.000Z</time>
      </trkpt>
      <trkpt lat="44.38532" lon="6.39141">
        <ele>1897</ele>
        <time>2021-09-01T10:16:12.000Z</time>
      </trkpt>
      <trkpt lat="44.3853" lon="6.39143">
        <ele>1898</ele>
        <time>2021-09-01T10:16:13.000Z</time>
      </trkpt>
      <trkpt lat="44.38528" lon="6.39145">
        <ele>1899</ele>
        <time>2021-09-01T10:16:14.000Z</time>
      </trkpt>
      <trkpt lat="44.38526" lon="6.39148">
        <ele>1900</ele>
        <time>2021-09-01T10:16:15.000Z</time>
      </trkpt>
      <trkpt lat="44.38523" lon="6.39151">
        <ele>1901</ele>
        <time>2021-09-01T10:16:16.000Z</time>
      </trkpt>
      <trkpt lat="44.38521" lon="6.39152">
        <ele>1901</ele>
        <time>2021-09-01T10:16:17.000Z</time>
      </trkpt>
      <trkpt lat="44.38518" lon="6.39154">
        <ele>1901</ele>
        <time>2021-09-01T10:16:18.000Z</time>
      </trkpt>
      <trkpt lat="44.38516" lon="6.39155">
        <ele>1902</ele>
        <time>2021-09-01T10:16:19.000Z</time>
      </trkpt>
      <trkpt lat="44.38514" lon="6.39157">
        <ele>1902</ele>
        <time>2021-09-01T10:16:20.000Z</time>
      </trkpt>
      <trkpt lat="44.3851" lon="6.39158">
        <ele>1903</ele>
        <time>2021-09-01T10:16:21.000Z</time>
      </trkpt>
      <trkpt lat="44.38508" lon="6.39159">
        <ele>1903</ele>
        <time>2021-09-01T10:16:22.000Z</time>
      </trkpt>
      <trkpt lat="44.38504" lon="6.3916">
        <ele>1903</ele>
        <time>2021-09-01T10:16:23.000Z</time>
      </trkpt>
      <trkpt lat="44.38502" lon="6.39162">
        <ele>1905</ele>
        <time>2021-09-01T10:16:24.000Z</time>
      </trkpt>
      <trkpt lat="44.38499" lon="6.39163">
        <ele>1908</ele>
        <time>2021-09-01T10:16:25.000Z</time>
      </trkpt>
      <trkpt lat="44.38495" lon="6.39164">
        <ele>1910</ele>
        <time>2021-09-01T10:16:26.000Z</time>
      </trkpt>
      <trkpt lat="44.38491" lon="6.39165">
        <ele>1912</ele>
        <time>2021-09-01T10:16:27.000Z</time>
      </trkpt>
      <trkpt lat="44.38487" lon="6.39166">
        <ele>1915</ele>
        <time>2021-09-01T10:16:28.000Z</time>
      </trkpt>
      <trkpt lat="44.38484" lon="6.39167">
        <ele>1916</ele>
        <time>2021-09-01T10:16:29.000Z</time>
      </trkpt>
      <trkpt lat="44.38482" lon="6.39168">
        <ele>1916</ele>
        <time>2021-09-01T10:16:30.000Z</time>
      </trkpt>
      <trkpt lat="44.38479" lon="6.39169">
        <ele>1917</ele>
        <time>2021-09-01T10:16:31.000Z</time>
      </trkpt>
      <trkpt lat="44.38477" lon="6.3917">
        <ele>1917</ele>
        <time>2021-09-01T10:16:32.000Z</time>
      </trkpt>
      <trkpt lat="44.38474" lon="6.39172">
        <ele>1918</ele>
        <time>2021-09-01T10:16:33.000Z</time>
      </trkpt>
      <trkpt lat="44.38471" lon="6.39174">
        <ele>1919</ele>
        <time>2021-09-01T10:16:34.000Z</time>
      </trkpt>
      <trkpt lat="44.38468" lon="6.39175">
        <ele>1919</ele>
        <time>2021-09-01T10:16:35.000Z</time>
      </trkpt>
      <trkpt lat="44.38465" lon="6.39176">
        <ele>1920</ele>
        <time>2021-09-01T10:16:36.000Z</time>
      </trkpt>
      <trkpt lat="44.38463" lon="6.39178">
        <ele>1921</ele>
        <time>2021-09-01T10:16:37.000Z</time>
      </trkpt>
      <trkpt lat="44.3846" lon="6.39179">
        <ele>1922</ele>
        <time>2021-09-01T10:16:38.000Z</time>
      </trkpt>
      <trkpt lat="44.38457" lon="6.39181">
        <ele>1922</ele>
        <time>2021-09-01T10:16:39.000Z</time>
      </trkpt>
      <trkpt lat="44.38455" lon="6.39183">
        <ele>1923</ele>
        <time>2021-09-01T10:16:40.000Z</time>
      </trkpt>
      <trkpt lat="44.38453" lon="6.39185">
        <ele>1923</ele>
        <time>2021-09-01T10:16:41.000Z</time>
      </trkpt>
      <trkpt lat="44.3845" lon="6.39187">
        <ele>1923</ele>
        <time>2021-09-01T10:16:42.000Z</time>
      </trkpt>
      <trkpt lat="44.38448" lon="6.39189">
        <ele>1924</ele>
        <time>2021-09-01T10:16:43.000Z</time>
      </trkpt>
      <trkpt lat="44.38446" lon="6.39191">
        <ele>1924</ele>
        <time>2021-09-01T10:16:44.000Z</time>
      </trkpt>
      <trkpt lat="44.38443" lon="6.39193">
        <ele>1925</ele>
        <time>2021-09-01T10:16:45.000Z</time>
      </trkpt>
      <trkpt lat="44.3844" lon="6.39195">
        <ele>1926</ele>
        <time>2021-09-01T10:16:46.000Z</time>
      </trkpt>
      <trkpt lat="44.38438" lon="6.39197">
        <ele>1926</ele>
        <time>2021-09-01T10:16:47.000Z</time>
      </trkpt>
      <trkpt lat="44.38436" lon="6.39198">
        <ele>1927</ele>
        <time>2021-09-01T10:16:48.000Z</time>
      </trkpt>
      <trkpt lat="44.38434" lon="6.392">
        <ele>1927</ele>
        <time>2021-09-01T10:16:49.000Z</time>
      </trkpt>
      <trkpt lat="44.38431" lon="6.39201">
        <ele>1927</ele>
        <time>2021-09-01T10:16:50.000Z</time>
      </trkpt>
      <trkpt lat="44.38429" lon="6.39203">
        <ele>1926</ele>
        <time>2021-09-01T10:16:51.000Z</time>
      </trkpt>
      <trkpt lat="44.38427" lon="6.39204">
        <ele>1926</ele>
        <time>2021-09-01T10:16:52.000Z</time>
      </trkpt>
      <trkpt lat="44.38424" lon="6.39205">
        <ele>1926</ele>
        <time>2021-09-01T10:16:53.000Z</time>
      </trkpt>
      <trkpt lat="44.38422" lon="6.39206">
        <ele>1928</ele>
        <time>2021-09-01T10:16:54.000Z</time>
      </trkpt>
      <trkpt lat="44.3842" lon="6.39207">
        <ele>1928</ele>
        <time>2021-09-01T10:16:55.000Z</time>
      </trkpt>
      <trkpt lat="44.38417" lon="6.39208">
        <ele>1928</ele>
        <time>2021-09-01T10:16:56.000Z</time>
      </trkpt>
      <trkpt lat="44.38415" lon="6.39208">
        <ele>1928</ele>
        <time>2021-09-01T10:16:57.000Z</time>
      </trkpt>
      <trkpt lat="44.38412" lon="6.39209">
        <ele>1927</ele>
        <time>2021-09-01T10:16:58.000Z</time>
      </trkpt>
      <trkpt lat="44.3841" lon="6.3921">
        <ele>1926</ele>
        <time>2021-09-01T10:16:59.000Z</time>
      </trkpt>
      <trkpt lat="44.38407" lon="6.39211">
        <ele>1926</ele>
        <time>2021-09-01T10:17:00.000Z</time>
      </trkpt>
      <trkpt lat="44.38403" lon="6.39211">
        <ele>1926</ele>
        <time>2021-09-01T10:17:01.000Z</time>
      </trkpt>
      <trkpt lat="44.38399" lon="6.39212">
        <ele>1928</ele>
        <time>2021-09-01T10:17:02.000Z</time>
      </trkpt>
      <trkpt lat="44.38396" lon="6.39212">
        <ele>1928</ele>
        <time>2021-09-01T10:17:03.000Z</time>
      </trkpt>
      <trkpt lat="44.38393" lon="6.39213">
        <ele>1929</ele>
        <time>2021-09-01T10:17:04.000Z</time>
      </trkpt>
      <trkpt lat="44.3839" lon="6.39214">
        <ele>1929</ele>
        <time>2021-09-01T10:17:05.000Z</time>
      </trkpt>
      <trkpt lat="44.38386" lon="6.39214">
        <ele>1930</ele>
        <time>2021-09-01T10:17:06.000Z</time>
      </trkpt>
      <trkpt lat="44.38384" lon="6.39217">
        <ele>1931</ele>
        <time>2021-09-01T10:17:07.000Z</time>
      </trkpt>
      <trkpt lat="44.38381" lon="6.39217">
        <ele>1931</ele>
        <time>2021-09-01T10:17:08.000Z</time>
      </trkpt>
      <trkpt lat="44.38377" lon="6.39218">
        <ele>1930</ele>
        <time>2021-09-01T10:17:09.000Z</time>
      </trkpt>
      <trkpt lat="44.38374" lon="6.39218">
        <ele>1931</ele>
        <time>2021-09-01T10:17:10.000Z</time>
      </trkpt>
      <trkpt lat="44.3837" lon="6.39218">
        <ele>1932</ele>
        <time>2021-09-01T10:17:11.000Z</time>
      </trkpt>
      <trkpt lat="44.38367" lon="6.39219">
        <ele>1932</ele>
        <time>2021-09-01T10:17:12.000Z</time>
      </trkpt>
      <trkpt lat="44.38364" lon="6.3922">
        <ele>1933</ele>
        <time>2021-09-01T10:17:13.000Z</time>
      </trkpt>
      <trkpt lat="44.38361" lon="6.3922">
        <ele>1934</ele>
        <time>2021-09-01T10:17:14.000Z</time>
      </trkpt>
      <trkpt lat="44.38358" lon="6.3922">
        <ele>1935</ele>
        <time>2021-09-01T10:17:15.000Z</time>
      </trkpt>
      <trkpt lat="44.38355" lon="6.3922">
        <ele>1935</ele>
        <time>2021-09-01T10:17:16.000Z</time>
      </trkpt>
      <trkpt lat="44.38351" lon="6.39218">
        <ele>1935</ele>
        <time>2021-09-01T10:17:17.000Z</time>
      </trkpt>
      <trkpt lat="44.38348" lon="6.39218">
        <ele>1936</ele>
        <time>2021-09-01T10:17:18.000Z</time>
      </trkpt>
      <trkpt lat="44.38345" lon="6.39217">
        <ele>1936</ele>
        <time>2021-09-01T10:17:19.000Z</time>
      </trkpt>
      <trkpt lat="44.38341" lon="6.39215">
        <ele>1936</ele>
        <time>2021-09-01T10:17:20.000Z</time>
      </trkpt>
      <trkpt lat="44.38338" lon="6.39215">
        <ele>1936</ele>
        <time>2021-09-01T10:17:21.000Z</time>
      </trkpt>
      <trkpt lat="44.38335" lon="6.39215">
        <ele>1937</ele>
        <time>2021-09-01T10:17:22.000Z</time>
      </trkpt>
      <trkpt lat="44.38332" lon="6.39215">
        <ele>1937</ele>
        <time>2021-09-01T10:17:23.000Z</time>
      </trkpt>
      <trkpt lat="44.38329" lon="6.39215">
        <ele>1937</ele>
        <time>2021-09-01T10:17:24.000Z</time>
      </trkpt>
      <trkpt lat="44.38326" lon="6.39215">
        <ele>1937</ele>
        <time>2021-09-01T10:17:25.000Z</time>
      </trkpt>
      <trkpt lat="44.38323" lon="6.39214">
        <ele>1937</ele>
        <time>2021-09-01T10:17:26.000Z</time>
      </trkpt>
      <trkpt lat="44.3832" lon="6.39215">
        <ele>1937</ele>
        <time>2021-09-01T10:17:27.000Z</time>
      </trkpt>
      <trkpt lat="44.38317" lon="6.39215">
        <ele>1937</ele>
        <time>2021-09-01T10:17:28.000Z</time>
      </trkpt>
      <trkpt lat="44.38314" lon="6.39215">
        <ele>1937</ele>
        <time>2021-09-01T10:17:29.000Z</time>
      </trkpt>
      <trkpt lat="44.38311" lon="6.39215">
        <ele>1938</ele>
        <time>2021-09-01T10:17:30.000Z</time>
      </trkpt>
      <trkpt lat="44.38309" lon="6.39214">
        <ele>1938</ele>
        <time>2021-09-01T10:17:31.000Z</time>
      </trkpt>
      <trkpt lat="44.38306" lon="6.39214">
        <ele>1938</ele>
        <time>2021-09-01T10:17:32.000Z</time>
      </trkpt>
      <trkpt lat="44.38303" lon="6.39215">
        <ele>1937</ele>
        <time>2021-09-01T10:17:33.000Z</time>
      </trkpt>
      <trkpt lat="44.383" lon="6.39216">
        <ele>1936</ele>
        <time>2021-09-01T10:17:34.000Z</time>
      </trkpt>
      <trkpt lat="44.38297" lon="6.39216">
        <ele>1936</ele>
        <time>2021-09-01T10:17:35.000Z</time>
      </trkpt>
      <trkpt lat="44.38294" lon="6.39217">
        <ele>1936</ele>
        <time>2021-09-01T10:17:36.000Z</time>
      </trkpt>
      <trkpt lat="44.38291" lon="6.39218">
        <ele>1935</ele>
        <time>2021-09-01T10:17:37.000Z</time>
      </trkpt>
      <trkpt lat="44.38289" lon="6.39219">
        <ele>1935</ele>
        <time>2021-09-01T10:17:38.000Z</time>
      </trkpt>
      <trkpt lat="44.38286" lon="6.3922">
        <ele>1934</ele>
        <time>2021-09-01T10:17:39.000Z</time>
      </trkpt>
      <trkpt lat="44.38283" lon="6.39221">
        <ele>1934</ele>
        <time>2021-09-01T10:17:40.000Z</time>
      </trkpt>
      <trkpt lat="44.38281" lon="6.39223">
        <ele>1933</ele>
        <time>2021-09-01T10:17:41.000Z</time>
      </trkpt>
      <trkpt lat="44.38279" lon="6.39225">
        <ele>1933</ele>
        <time>2021-09-01T10:17:42.000Z</time>
      </trkpt>
      <trkpt lat="44.38277" lon="6.39226">
        <ele>1931</ele>
        <time>2021-09-01T10:17:43.000Z</time>
      </trkpt>
      <trkpt lat="44.38275" lon="6.39227">
        <ele>1931</ele>
        <time>2021-09-01T10:17:44.000Z</time>
      </trkpt>
      <trkpt lat="44.38273" lon="6.39229">
        <ele>1930</ele>
        <time>2021-09-01T10:17:45.000Z</time>
      </trkpt>
      <trkpt lat="44.38271" lon="6.3923">
        <ele>1929</ele>
        <time>2021-09-01T10:17:46.000Z</time>
      </trkpt>
      <trkpt lat="44.38268" lon="6.3923">
        <ele>1929</ele>
        <time>2021-09-01T10:17:47.000Z</time>
      </trkpt>
      <trkpt lat="44.38266" lon="6.39231">
        <ele>1928</ele>
        <time>2021-09-01T10:17:48.000Z</time>
      </trkpt>
      <trkpt lat="44.38263" lon="6.39231">
        <ele>1927</ele>
        <time>2021-09-01T10:17:49.000Z</time>
      </trkpt>
      <trkpt lat="44.38261" lon="6.39231">
        <ele>1926</ele>
        <time>2021-09-01T10:17:50.000Z</time>
      </trkpt>
      <trkpt lat="44.38258" lon="6.39233">
        <ele>1925</ele>
        <time>2021-09-01T10:17:51.000Z</time>
      </trkpt>
      <trkpt lat="44.38256" lon="6.39234">
        <ele>1924</ele>
        <time>2021-09-01T10:17:52.000Z</time>
      </trkpt>
      <trkpt lat="44.38254" lon="6.39234">
        <ele>1923</ele>
        <time>2021-09-01T10:17:53.000Z</time>
      </trkpt>
      <trkpt lat="44.38252" lon="6.39235">
        <ele>1921</ele>
        <time>2021-09-01T10:17:54.000Z</time>
      </trkpt>
      <trkpt lat="44.3825" lon="6.39236">
        <ele>1920</ele>
        <time>2021-09-01T10:17:55.000Z</time>
      </trkpt>
      <trkpt lat="44.38248" lon="6.39237">
        <ele>1921</ele>
        <time>2021-09-01T10:17:56.000Z</time>
      </trkpt>
      <trkpt lat="44.38245" lon="6.39239">
        <ele>1921</ele>
        <time>2021-09-01T10:17:57.000Z</time>
      </trkpt>
      <trkpt lat="44.38244" lon="6.39241">
        <ele>1922</ele>
        <time>2021-09-01T10:17:58.000Z</time>
      </trkpt>
      <trkpt lat="44.38242" lon="6.39242">
        <ele>1922</ele>
        <time>2021-09-01T10:17:59.000Z</time>
      </trkpt>
      <trkpt lat="44.3824" lon="6.39243">
        <ele>1923</ele>
        <time>2021-09-01T10:18:00.000Z</time>
      </trkpt>
      <trkpt lat="44.38238" lon="6.39246">
        <ele>1923</ele>
        <time>2021-09-01T10:18:01.000Z</time>
      </trkpt>
      <trkpt lat="44.38236" lon="6.39248">
        <ele>1923</ele>
        <time>2021-09-01T10:18:02.000Z</time>
      </trkpt>
      <trkpt lat="44.38234" lon="6.3925">
        <ele>1923</ele>
        <time>2021-09-01T10:18:03.000Z</time>
      </trkpt>
      <trkpt lat="44.38232" lon="6.39253">
        <ele>1923</ele>
        <time>2021-09-01T10:18:04.000Z</time>
      </trkpt>
      <trkpt lat="44.38231" lon="6.39256">
        <ele>1922</ele>
        <time>2021-09-01T10:18:05.000Z</time>
      </trkpt>
      <trkpt lat="44.38229" lon="6.39259">
        <ele>1920</ele>
        <time>2021-09-01T10:18:06.000Z</time>
      </trkpt>
      <trkpt lat="44.38227" lon="6.39261">
        <ele>1919</ele>
        <time>2021-09-01T10:18:07.000Z</time>
      </trkpt>
      <trkpt lat="44.38225" lon="6.39262">
        <ele>1919</ele>
        <time>2021-09-01T10:18:08.000Z</time>
      </trkpt>
      <trkpt lat="44.38222" lon="6.39264">
        <ele>1918</ele>
        <time>2021-09-01T10:18:09.000Z</time>
      </trkpt>
      <trkpt lat="44.3822" lon="6.39266">
        <ele>1918</ele>
        <time>2021-09-01T10:18:10.000Z</time>
      </trkpt>
      <trkpt lat="44.38218" lon="6.39271">
        <ele>1919</ele>
        <time>2021-09-01T10:18:11.000Z</time>
      </trkpt>
      <trkpt lat="44.38216" lon="6.39276">
        <ele>1920</ele>
        <time>2021-09-01T10:18:12.000Z</time>
      </trkpt>
      <trkpt lat="44.38214" lon="6.39279">
        <ele>1920</ele>
        <time>2021-09-01T10:18:13.000Z</time>
      </trkpt>
      <trkpt lat="44.38212" lon="6.39283">
        <ele>1921</ele>
        <time>2021-09-01T10:18:14.000Z</time>
      </trkpt>
      <trkpt lat="44.3821" lon="6.39284">
        <ele>1922</ele>
        <time>2021-09-01T10:18:15.000Z</time>
      </trkpt>
      <trkpt lat="44.38208" lon="6.39287">
        <ele>1922</ele>
        <time>2021-09-01T10:18:16.000Z</time>
      </trkpt>
      <trkpt lat="44.38207" lon="6.3929">
        <ele>1922</ele>
        <time>2021-09-01T10:18:17.000Z</time>
      </trkpt>
      <trkpt lat="44.38205" lon="6.39293">
        <ele>1923</ele>
        <time>2021-09-01T10:18:18.000Z</time>
      </trkpt>
      <trkpt lat="44.38204" lon="6.39296">
        <ele>1924</ele>
        <time>2021-09-01T10:18:19.000Z</time>
      </trkpt>
      <trkpt lat="44.38203" lon="6.39299">
        <ele>1924</ele>
        <time>2021-09-01T10:18:20.000Z</time>
      </trkpt>
      <trkpt lat="44.38202" lon="6.39302">
        <ele>1925</ele>
        <time>2021-09-01T10:18:21.000Z</time>
      </trkpt>
      <trkpt lat="44.38201" lon="6.39305">
        <ele>1925</ele>
        <time>2021-09-01T10:18:22.000Z</time>
      </trkpt>
      <trkpt lat="44.38199" lon="6.39308">
        <ele>1925</ele>
        <time>2021-09-01T10:18:23.000Z</time>
      </trkpt>
      <trkpt lat="44.38197" lon="6.39309">
        <ele>1925</ele>
        <time>2021-09-01T10:18:24.000Z</time>
      </trkpt>
      <trkpt lat="44.38194" lon="6.39311">
        <ele>1925</ele>
        <time>2021-09-01T10:18:25.000Z</time>
      </trkpt>
      <trkpt lat="44.38193" lon="6.39316">
        <ele>1926</ele>
        <time>2021-09-01T10:18:26.000Z</time>
      </trkpt>
      <trkpt lat="44.38191" lon="6.3932">
        <ele>1926</ele>
        <time>2021-09-01T10:18:27.000Z</time>
      </trkpt>
      <trkpt lat="44.38188" lon="6.39322">
        <ele>1927</ele>
        <time>2021-09-01T10:18:28.000Z</time>
      </trkpt>
      <trkpt lat="44.38186" lon="6.39327">
        <ele>1926</ele>
        <time>2021-09-01T10:18:29.000Z</time>
      </trkpt>
      <trkpt lat="44.38184" lon="6.3933">
        <ele>1925</ele>
        <time>2021-09-01T10:18:30.000Z</time>
      </trkpt>
      <trkpt lat="44.38182" lon="6.39335">
        <ele>1926</ele>
        <time>2021-09-01T10:18:31.000Z</time>
      </trkpt>
      <trkpt lat="44.3818" lon="6.39339">
        <ele>1926</ele>
        <time>2021-09-01T10:18:32.000Z</time>
      </trkpt>
      <trkpt lat="44.38177" lon="6.39342">
        <ele>1926</ele>
        <time>2021-09-01T10:18:33.000Z</time>
      </trkpt>
      <trkpt lat="44.38175" lon="6.39346">
        <ele>1927</ele>
        <time>2021-09-01T10:18:34.000Z</time>
      </trkpt>
      <trkpt lat="44.38174" lon="6.39349">
        <ele>1927</ele>
        <time>2021-09-01T10:18:35.000Z</time>
      </trkpt>
      <trkpt lat="44.38172" lon="6.39351">
        <ele>1926</ele>
        <time>2021-09-01T10:18:36.000Z</time>
      </trkpt>
      <trkpt lat="44.38171" lon="6.39354">
        <ele>1926</ele>
        <time>2021-09-01T10:18:37.000Z</time>
      </trkpt>
      <trkpt lat="44.38168" lon="6.39357">
        <ele>1926</ele>
        <time>2021-09-01T10:18:38.000Z</time>
      </trkpt>
      <trkpt lat="44.38165" lon="6.39359">
        <ele>1926</ele>
        <time>2021-09-01T10:18:39.000Z</time>
      </trkpt>
      <trkpt lat="44.38163" lon="6.39362">
        <ele>1925</ele>
        <time>2021-09-01T10:18:40.000Z</time>
      </trkpt>
      <trkpt lat="44.38159" lon="6.39365">
        <ele>1927</ele>
        <time>2021-09-01T10:18:41.000Z</time>
      </trkpt>
      <trkpt lat="44.38155" lon="6.3937">
        <ele>1930</ele>
        <time>2021-09-01T10:18:42.000Z</time>
      </trkpt>
      <trkpt lat="44.38151" lon="6.39374">
        <ele>1933</ele>
        <time>2021-09-01T10:18:43.000Z</time>
      </trkpt>
      <trkpt lat="44.38149" lon="6.39378">
        <ele>1935</ele>
        <time>2021-09-01T10:18:44.000Z</time>
      </trkpt>
      <trkpt lat="44.38146" lon="6.39381">
        <ele>1937</ele>
        <time>2021-09-01T10:18:45.000Z</time>
      </trkpt>
      <trkpt lat="44.38144" lon="6.39384">
        <ele>1940</ele>
        <time>2021-09-01T10:18:46.000Z</time>
      </trkpt>
      <trkpt lat="44.38142" lon="6.39386">
        <ele>1942</ele>
        <time>2021-09-01T10:18:47.000Z</time>
      </trkpt>
      <trkpt lat="44.3814" lon="6.3939">
        <ele>1944</ele>
        <time>2021-09-01T10:18:48.000Z</time>
      </trkpt>
      <trkpt lat="44.38138" lon="6.39392">
        <ele>1946</ele>
        <time>2021-09-01T10:18:49.000Z</time>
      </trkpt>
      <trkpt lat="44.38136" lon="6.39396">
        <ele>1946</ele>
        <time>2021-09-01T10:18:50.000Z</time>
      </trkpt>
      <trkpt lat="44.38133" lon="6.39399">
        <ele>1947</ele>
        <time>2021-09-01T10:18:51.000Z</time>
      </trkpt>
      <trkpt lat="44.38132" lon="6.39403">
        <ele>1947</ele>
        <time>2021-09-01T10:18:52.000Z</time>
      </trkpt>
      <trkpt lat="44.3813" lon="6.39406">
        <ele>1948</ele>
        <time>2021-09-01T10:18:53.000Z</time>
      </trkpt>
      <trkpt lat="44.38128" lon="6.39409">
        <ele>1948</ele>
        <time>2021-09-01T10:18:54.000Z</time>
      </trkpt>
      <trkpt lat="44.38127" lon="6.39413">
        <ele>1948</ele>
        <time>2021-09-01T10:18:55.000Z</time>
      </trkpt>
      <trkpt lat="44.38124" lon="6.39415">
        <ele>1949</ele>
        <time>2021-09-01T10:18:56.000Z</time>
      </trkpt>
      <trkpt lat="44.38123" lon="6.39418">
        <ele>1950</ele>
        <time>2021-09-01T10:18:57.000Z</time>
      </trkpt>
      <trkpt lat="44.38121" lon="6.39422">
        <ele>1950</ele>
        <time>2021-09-01T10:18:58.000Z</time>
      </trkpt>
      <trkpt lat="44.38119" lon="6.39427">
        <ele>1951</ele>
        <time>2021-09-01T10:18:59.000Z</time>
      </trkpt>
      <trkpt lat="44.38117" lon="6.39433">
        <ele>1950</ele>
        <time>2021-09-01T10:19:00.000Z</time>
      </trkpt>
      <trkpt lat="44.38115" lon="6.39437">
        <ele>1950</ele>
        <time>2021-09-01T10:19:01.000Z</time>
      </trkpt>
      <trkpt lat="44.38114" lon="6.39442">
        <ele>1949</ele>
        <time>2021-09-01T10:19:02.000Z</time>
      </trkpt>
      <trkpt lat="44.38112" lon="6.39446">
        <ele>1949</ele>
        <time>2021-09-01T10:19:03.000Z</time>
      </trkpt>
      <trkpt lat="44.38111" lon="6.39452">
        <ele>1947</ele>
        <time>2021-09-01T10:19:04.000Z</time>
      </trkpt>
      <trkpt lat="44.38109" lon="6.39456">
        <ele>1947</ele>
        <time>2021-09-01T10:19:05.000Z</time>
      </trkpt>
      <trkpt lat="44.38107" lon="6.39459">
        <ele>1946</ele>
        <time>2021-09-01T10:19:06.000Z</time>
      </trkpt>
      <trkpt lat="44.38105" lon="6.39463">
        <ele>1946</ele>
        <time>2021-09-01T10:19:07.000Z</time>
      </trkpt>
      <trkpt lat="44.38102" lon="6.39467">
        <ele>1945</ele>
        <time>2021-09-01T10:19:08.000Z</time>
      </trkpt>
      <trkpt lat="44.38101" lon="6.39471">
        <ele>1944</ele>
        <time>2021-09-01T10:19:09.000Z</time>
      </trkpt>
      <trkpt lat="44.38099" lon="6.39475">
        <ele>1944</ele>
        <time>2021-09-01T10:19:10.000Z</time>
      </trkpt>
      <trkpt lat="44.38097" lon="6.39478">
        <ele>1944</ele>
        <time>2021-09-01T10:19:11.000Z</time>
      </trkpt>
      <trkpt lat="44.38094" lon="6.39482">
        <ele>1944</ele>
        <time>2021-09-01T10:19:12.000Z</time>
      </trkpt>
      <trkpt lat="44.38091" lon="6.39485">
        <ele>1945</ele>
        <time>2021-09-01T10:19:13.000Z</time>
      </trkpt>
      <trkpt lat="44.38089" lon="6.39488">
        <ele>1945</ele>
        <time>2021-09-01T10:19:14.000Z</time>
      </trkpt>
      <trkpt lat="44.38086" lon="6.39491">
        <ele>1945</ele>
        <time>2021-09-01T10:19:15.000Z</time>
      </trkpt>
      <trkpt lat="44.38084" lon="6.39495">
        <ele>1946</ele>
        <time>2021-09-01T10:19:16.000Z</time>
      </trkpt>
      <trkpt lat="44.38081" lon="6.39498">
        <ele>1946</ele>
        <time>2021-09-01T10:19:17.000Z</time>
      </trkpt>
      <trkpt lat="44.38079" lon="6.39501">
        <ele>1947</ele>
        <time>2021-09-01T10:19:18.000Z</time>
      </trkpt>
      <trkpt lat="44.38075" lon="6.39504">
        <ele>1948</ele>
        <time>2021-09-01T10:19:19.000Z</time>
      </trkpt>
      <trkpt lat="44.38072" lon="6.39507">
        <ele>1948</ele>
        <time>2021-09-01T10:19:20.000Z</time>
      </trkpt>
      <trkpt lat="44.38069" lon="6.39509">
        <ele>1949</ele>
        <time>2021-09-01T10:19:21.000Z</time>
      </trkpt>
      <trkpt lat="44.38065" lon="6.39511">
        <ele>1950</ele>
        <time>2021-09-01T10:19:22.000Z</time>
      </trkpt>
      <trkpt lat="44.38062" lon="6.39514">
        <ele>1951</ele>
        <time>2021-09-01T10:19:23.000Z</time>
      </trkpt>
      <trkpt lat="44.38058" lon="6.39516">
        <ele>1952</ele>
        <time>2021-09-01T10:19:24.000Z</time>
      </trkpt>
      <trkpt lat="44.38055" lon="6.39518">
        <ele>1953</ele>
        <time>2021-09-01T10:19:25.000Z</time>
      </trkpt>
      <trkpt lat="44.38051" lon="6.3952">
        <ele>1954</ele>
        <time>2021-09-01T10:19:26.000Z</time>
      </trkpt>
      <trkpt lat="44.38047" lon="6.39522">
        <ele>1955</ele>
        <time>2021-09-01T10:19:27.000Z</time>
      </trkpt>
      <trkpt lat="44.38044" lon="6.39523">
        <ele>1956</ele>
        <time>2021-09-01T10:19:28.000Z</time>
      </trkpt>
      <trkpt lat="44.38041" lon="6.39524">
        <ele>1956</ele>
        <time>2021-09-01T10:19:29.000Z</time>
      </trkpt>
      <trkpt lat="44.38038" lon="6.39526">
        <ele>1957</ele>
        <time>2021-09-01T10:19:30.000Z</time>
      </trkpt>
      <trkpt lat="44.38035" lon="6.39527">
        <ele>1957</ele>
        <time>2021-09-01T10:19:31.000Z</time>
      </trkpt>
      <trkpt lat="44.38031" lon="6.39529">
        <ele>1958</ele>
        <time>2021-09-01T10:19:32.000Z</time>
      </trkpt>
      <trkpt lat="44.38029" lon="6.3953">
        <ele>1958</ele>
        <time>2021-09-01T10:19:33.000Z</time>
      </trkpt>
      <trkpt lat="44.38026" lon="6.39532">
        <ele>1959</ele>
        <time>2021-09-01T10:19:34.000Z</time>
      </trkpt>
      <trkpt lat="44.38023" lon="6.39534">
        <ele>1959</ele>
        <time>2021-09-01T10:19:35.000Z</time>
      </trkpt>
      <trkpt lat="44.38019" lon="6.39536">
        <ele>1960</ele>
        <time>2021-09-01T10:19:36.000Z</time>
      </trkpt>
      <trkpt lat="44.38016" lon="6.39537">
        <ele>1960</ele>
        <time>2021-09-01T10:19:37.000Z</time>
      </trkpt>
      <trkpt lat="44.38014" lon="6.39539">
        <ele>1961</ele>
        <time>2021-09-01T10:19:38.000Z</time>
      </trkpt>
      <trkpt lat="44.38011" lon="6.39541">
        <ele>1961</ele>
        <time>2021-09-01T10:19:39.000Z</time>
      </trkpt>
      <trkpt lat="44.38008" lon="6.39542">
        <ele>1962</ele>
        <time>2021-09-01T10:19:40.000Z</time>
      </trkpt>
      <trkpt lat="44.38005" lon="6.39542">
        <ele>1963</ele>
        <time>2021-09-01T10:19:41.000Z</time>
      </trkpt>
      <trkpt lat="44.38001" lon="6.39543">
        <ele>1964</ele>
        <time>2021-09-01T10:19:42.000Z</time>
      </trkpt>
      <trkpt lat="44.37998" lon="6.39544">
        <ele>1965</ele>
        <time>2021-09-01T10:19:43.000Z</time>
      </trkpt>
      <trkpt lat="44.37995" lon="6.39546">
        <ele>1965</ele>
        <time>2021-09-01T10:19:44.000Z</time>
      </trkpt>
      <trkpt lat="44.37992" lon="6.39547">
        <ele>1965</ele>
        <time>2021-09-01T10:19:45.000Z</time>
      </trkpt>
      <trkpt lat="44.37989" lon="6.39548">
        <ele>1965</ele>
        <time>2021-09-01T10:19:46.000Z</time>
      </trkpt>
      <trkpt lat="44.37986" lon="6.39549">
        <ele>1965</ele>
        <time>2021-09-01T10:19:47.000Z</time>
      </trkpt>
      <trkpt lat="44.37984" lon="6.3955">
        <ele>1966</ele>
        <time>2021-09-01T10:19:48.000Z</time>
      </trkpt>
      <trkpt lat="44.37981" lon="6.39551">
        <ele>1966</ele>
        <time>2021-09-01T10:19:49.000Z</time>
      </trkpt>
      <trkpt lat="44.37978" lon="6.39553">
        <ele>1967</ele>
        <time>2021-09-01T10:19:50.000Z</time>
      </trkpt>
      <trkpt lat="44.37975" lon="6.39554">
        <ele>1967</ele>
        <time>2021-09-01T10:19:51.000Z</time>
      </trkpt>
      <trkpt lat="44.37972" lon="6.39554">
        <ele>1967</ele>
        <time>2021-09-01T10:19:52.000Z</time>
      </trkpt>
      <trkpt lat="44.37968" lon="6.39555">
        <ele>1968</ele>
        <time>2021-09-01T10:19:53.000Z</time>
      </trkpt>
      <trkpt lat="44.37966" lon="6.39556">
        <ele>1968</ele>
        <time>2021-09-01T10:19:54.000Z</time>
      </trkpt>
      <trkpt lat="44.37963" lon="6.39557">
        <ele>1969</ele>
        <time>2021-09-01T10:19:55.000Z</time>
      </trkpt>
      <trkpt lat="44.3796" lon="6.39558">
        <ele>1970</ele>
        <time>2021-09-01T10:19:56.000Z</time>
      </trkpt>
      <trkpt lat="44.37956" lon="6.39557">
        <ele>1971</ele>
        <time>2021-09-01T10:19:57.000Z</time>
      </trkpt>
      <trkpt lat="44.37953" lon="6.39557">
        <ele>1971</ele>
        <time>2021-09-01T10:19:58.000Z</time>
      </trkpt>
      <trkpt lat="44.3795" lon="6.39557">
        <ele>1972</ele>
        <time>2021-09-01T10:19:59.000Z</time>
      </trkpt>
      <trkpt lat="44.37948" lon="6.39556">
        <ele>1973</ele>
        <time>2021-09-01T10:20:00.000Z</time>
      </trkpt>
      <trkpt lat="44.37945" lon="6.39556">
        <ele>1973</ele>
        <time>2021-09-01T10:20:01.000Z</time>
      </trkpt>
      <trkpt lat="44.37942" lon="6.39555">
        <ele>1973</ele>
        <time>2021-09-01T10:20:02.000Z</time>
      </trkpt>
      <trkpt lat="44.37939" lon="6.39554">
        <ele>1974</ele>
        <time>2021-09-01T10:20:03.000Z</time>
      </trkpt>
      <trkpt lat="44.37935" lon="6.39554">
        <ele>1975</ele>
        <time>2021-09-01T10:20:04.000Z</time>
      </trkpt>
      <trkpt lat="44.37933" lon="6.39553">
        <ele>1975</ele>
        <time>2021-09-01T10:20:05.000Z</time>
      </trkpt>
      <trkpt lat="44.3793" lon="6.39553">
        <ele>1976</ele>
        <time>2021-09-01T10:20:06.000Z</time>
      </trkpt>
      <trkpt lat="44.37928" lon="6.39552">
        <ele>1976</ele>
        <time>2021-09-01T10:20:07.000Z</time>
      </trkpt>
      <trkpt lat="44.37926" lon="6.39552">
        <ele>1977</ele>
        <time>2021-09-01T10:20:08.000Z</time>
      </trkpt>
      <trkpt lat="44.37925" lon="6.39552">
        <ele>1977</ele>
        <time>2021-09-01T10:20:09.000Z</time>
      </trkpt>
      <trkpt lat="44.37924" lon="6.39552">
        <ele>1978</ele>
        <time>2021-09-01T10:20:10.000Z</time>
      </trkpt>
      <trkpt lat="44.37924" lon="6.39551">
        <ele>1978</ele>
        <time>2021-09-01T10:20:11.000Z</time>
      </trkpt>
      <trkpt lat="44.37924" lon="6.39551">
        <ele>1978</ele>
        <time>2021-09-01T10:20:12.000Z</time>
      </trkpt>
      <trkpt lat="44.37924" lon="6.39551">
        <ele>1978</ele>
        <time>2021-09-01T10:20:13.000Z</time>
      </trkpt>
      <trkpt lat="44.37924" lon="6.39551">
        <ele>1978</ele>
        <time>2021-09-01T10:20:14.000Z</time>
      </trkpt>
      <trkpt lat="44.37924" lon="6.39551">
        <ele>1978</ele>
        <time>2021-09-01T10:20:15.000Z</time>
      </trkpt>
      <trkpt lat="44.37925" lon="6.39552">
        <ele>1978</ele>
        <time>2021-09-01T10:20:16.000Z</time>
      </trkpt>
      <trkpt lat="44.37926" lon="6.39552">
        <ele>1978</ele>
        <time>2021-09-01T10:20:17.000Z</time>
      </trkpt>
      <trkpt lat="44.37928" lon="6.39553">
        <ele>1979</ele>
        <time>2021-09-01T10:20:18.000Z</time>
      </trkpt>
      <trkpt lat="44.37929" lon="6.39554">
        <ele>1979</ele>
        <time>2021-09-01T10:20:19.000Z</time>
      </trkpt>
      <trkpt lat="44.37931" lon="6.39555">
        <ele>1979</ele>
        <time>2021-09-01T10:20:20.000Z</time>
      </trkpt>
      <trkpt lat="44.37932" lon="6.39556">
        <ele>1979</ele>
        <time>2021-09-01T10:20:21.000Z</time>
      </trkpt>
      <trkpt lat="44.37933" lon="6.39557">
        <ele>1979</ele>
        <time>2021-09-01T10:20:22.000Z</time>
      </trkpt>
      <trkpt lat="44.37934" lon="6.39558">
        <ele>1979</ele>
        <time>2021-09-01T10:20:23.000Z</time>
      </trkpt>
      <trkpt lat="44.37936" lon="6.39559">
        <ele>1979</ele>
        <time>2021-09-01T10:20:24.000Z</time>
      </trkpt>
      <trkpt lat="44.37937" lon="6.3956">
        <ele>1979</ele>
        <time>2021-09-01T10:20:25.000Z</time>
      </trkpt>
      <trkpt lat="44.37939" lon="6.39561">
        <ele>1979</ele>
        <time>2021-09-01T10:20:26.000Z</time>
      </trkpt>
      <trkpt lat="44.3794" lon="6.39562">
        <ele>1979</ele>
        <time>2021-09-01T10:20:27.000Z</time>
      </trkpt>
      <trkpt lat="44.37942" lon="6.39563">
        <ele>1979</ele>
        <time>2021-09-01T10:20:28.000Z</time>
      </trkpt>
      <trkpt lat="44.37943" lon="6.39564">
        <ele>1979</ele>
        <time>2021-09-01T10:20:29.000Z</time>
      </trkpt>
      <trkpt lat="44.37945" lon="6.39566">
        <ele>1979</ele>
        <time>2021-09-01T10:20:30.000Z</time>
      </trkpt>
      <trkpt lat="44.37946" lon="6.39567">
        <ele>1979</ele>
        <time>2021-09-01T10:20:31.000Z</time>
      </trkpt>
      <trkpt lat="44.37947" lon="6.39568">
        <ele>1979</ele>
        <time>2021-09-01T10:20:32.000Z</time>
      </trkpt>
      <trkpt lat="44.37949" lon="6.39569">
        <ele>1979</ele>
        <time>2021-09-01T10:20:33.000Z</time>
      </trkpt>
      <trkpt lat="44.37951" lon="6.3957">
        <ele>1979</ele>
        <time>2021-09-01T10:20:34.000Z</time>
      </trkpt>
      <trkpt lat="44.37952" lon="6.39571">
        <ele>1979</ele>
        <time>2021-09-01T10:20:35.000Z</time>
      </trkpt>
      <trkpt lat="44.37954" lon="6.39572">
        <ele>1979</ele>
        <time>2021-09-01T10:20:36.000Z</time>
      </trkpt>
      <trkpt lat="44.37956" lon="6.39572">
        <ele>1980</ele>
        <time>2021-09-01T10:20:37.000Z</time>
      </trkpt>
      <trkpt lat="44.37958" lon="6.39573">
        <ele>1980</ele>
        <time>2021-09-01T10:20:38.000Z</time>
      </trkpt>
      <trkpt lat="44.3796" lon="6.39573">
        <ele>1981</ele>
        <time>2021-09-01T10:20:39.000Z</time>
      </trkpt>
      <trkpt lat="44.37962" lon="6.39574">
        <ele>1981</ele>
        <time>2021-09-01T10:20:40.000Z</time>
      </trkpt>
      <trkpt lat="44.37964" lon="6.39574">
        <ele>1982</ele>
        <time>2021-09-01T10:20:41.000Z</time>
      </trkpt>
      <trkpt lat="44.37966" lon="6.39575">
        <ele>1981</ele>
        <time>2021-09-01T10:20:42.000Z</time>
      </trkpt>
      <trkpt lat="44.37969" lon="6.39575">
        <ele>1981</ele>
        <time>2021-09-01T10:20:43.000Z</time>
      </trkpt>
      <trkpt lat="44.37971" lon="6.39575">
        <ele>1981</ele>
        <time>2021-09-01T10:20:44.000Z</time>
      </trkpt>
      <trkpt lat="44.37973" lon="6.39576">
        <ele>1982</ele>
        <time>2021-09-01T10:20:45.000Z</time>
      </trkpt>
      <trkpt lat="44.37975" lon="6.39576">
        <ele>1981</ele>
        <time>2021-09-01T10:20:46.000Z</time>
      </trkpt>
      <trkpt lat="44.37977" lon="6.39576">
        <ele>1981</ele>
        <time>2021-09-01T10:20:47.000Z</time>
      </trkpt>
      <trkpt lat="44.37979" lon="6.39576">
        <ele>1981</ele>
        <time>2021-09-01T10:20:48.000Z</time>
      </trkpt>
      <trkpt lat="44.37981" lon="6.39576">
        <ele>1981</ele>
        <time>2021-09-01T10:20:49.000Z</time>
      </trkpt>
      <trkpt lat="44.37982" lon="6.39577">
        <ele>1981</ele>
        <time>2021-09-01T10:20:50.000Z</time>
      </trkpt>
      <trkpt lat="44.37984" lon="6.39577">
        <ele>1981</ele>
        <time>2021-09-01T10:20:51.000Z</time>
      </trkpt>
      <trkpt lat="44.37986" lon="6.39577">
        <ele>1981</ele>
        <time>2021-09-01T10:20:52.000Z</time>
      </trkpt>
      <trkpt lat="44.37988" lon="6.39577">
        <ele>1981</ele>
        <time>2021-09-01T10:20:53.000Z</time>
      </trkpt>
      <trkpt lat="44.3799" lon="6.39577">
        <ele>1981</ele>
        <time>2021-09-01T10:20:54.000Z</time>
      </trkpt>
      <trkpt lat="44.37992" lon="6.39578">
        <ele>1981</ele>
        <time>2021-09-01T10:20:55.000Z</time>
      </trkpt>
      <trkpt lat="44.37994" lon="6.39578">
        <ele>1982</ele>
        <time>2021-09-01T10:20:56.000Z</time>
      </trkpt>
      <trkpt lat="44.37995" lon="6.39578">
        <ele>1982</ele>
        <time>2021-09-01T10:20:57.000Z</time>
      </trkpt>
      <trkpt lat="44.37997" lon="6.39579">
        <ele>1982</ele>
        <time>2021-09-01T10:20:58.000Z</time>
      </trkpt>
      <trkpt lat="44.37998" lon="6.39579">
        <ele>1982</ele>
        <time>2021-09-01T10:20:59.000Z</time>
      </trkpt>
      <trkpt lat="44.38" lon="6.3958">
        <ele>1982</ele>
        <time>2021-09-01T10:21:00.000Z</time>
      </trkpt>
      <trkpt lat="44.38002" lon="6.3958">
        <ele>1982</ele>
        <time>2021-09-01T10:21:01.000Z</time>
      </trkpt>
      <trkpt lat="44.38004" lon="6.39581">
        <ele>1983</ele>
        <time>2021-09-01T10:21:02.000Z</time>
      </trkpt>
      <trkpt lat="44.38007" lon="6.39581">
        <ele>1983</ele>
        <time>2021-09-01T10:21:03.000Z</time>
      </trkpt>
      <trkpt lat="44.38009" lon="6.39581">
        <ele>1984</ele>
        <time>2021-09-01T10:21:04.000Z</time>
      </trkpt>
      <trkpt lat="44.3801" lon="6.39581">
        <ele>1984</ele>
        <time>2021-09-01T10:21:05.000Z</time>
      </trkpt>
      <trkpt lat="44.38012" lon="6.39581">
        <ele>1984</ele>
        <time>2021-09-01T10:21:06.000Z</time>
      </trkpt>
      <trkpt lat="44.38014" lon="6.39582">
        <ele>1985</ele>
        <time>2021-09-01T10:21:07.000Z</time>
      </trkpt>
      <trkpt lat="44.38016" lon="6.39582">
        <ele>1985</ele>
        <time>2021-09-01T10:21:08.000Z</time>
      </trkpt>
      <trkpt lat="44.38018" lon="6.39582">
        <ele>1986</ele>
        <time>2021-09-01T10:21:09.000Z</time>
      </trkpt>
      <trkpt lat="44.3802" lon="6.39581">
        <ele>1986</ele>
        <time>2021-09-01T10:21:10.000Z</time>
      </trkpt>
      <trkpt lat="44.38021" lon="6.39581">
        <ele>1987</ele>
        <time>2021-09-01T10:21:11.000Z</time>
      </trkpt>
      <trkpt lat="44.38023" lon="6.39581">
        <ele>1987</ele>
        <time>2021-09-01T10:21:12.000Z</time>
      </trkpt>
      <trkpt lat="44.38025" lon="6.39581">
        <ele>1987</ele>
        <time>2021-09-01T10:21:13.000Z</time>
      </trkpt>
      <trkpt lat="44.38027" lon="6.39582">
        <ele>1988</ele>
        <time>2021-09-01T10:21:14.000Z</time>
      </trkpt>
      <trkpt lat="44.38029" lon="6.39582">
        <ele>1988</ele>
        <time>2021-09-01T10:21:15.000Z</time>
      </trkpt>
      <trkpt lat="44.38031" lon="6.39582">
        <ele>1989</ele>
        <time>2021-09-01T10:21:16.000Z</time>
      </trkpt>
      <trkpt lat="44.38033" lon="6.39582">
        <ele>1989</ele>
        <time>2021-09-01T10:21:17.000Z</time>
      </trkpt>
      <trkpt lat="44.38035" lon="6.39582">
        <ele>1990</ele>
        <time>2021-09-01T10:21:18.000Z</time>
      </trkpt>
      <trkpt lat="44.38038" lon="6.39582">
        <ele>1990</ele>
        <time>2021-09-01T10:21:19.000Z</time>
      </trkpt>
      <trkpt lat="44.3804" lon="6.39582">
        <ele>1991</ele>
        <time>2021-09-01T10:21:20.000Z</time>
      </trkpt>
      <trkpt lat="44.38042" lon="6.39582">
        <ele>1991</ele>
        <time>2021-09-01T10:21:21.000Z</time>
      </trkpt>
      <trkpt lat="44.38043" lon="6.39582">
        <ele>1991</ele>
        <time>2021-09-01T10:21:22.000Z</time>
      </trkpt>
      <trkpt lat="44.38044" lon="6.39582">
        <ele>1992</ele>
        <time>2021-09-01T10:21:23.000Z</time>
      </trkpt>
      <trkpt lat="44.38044" lon="6.39582">
        <ele>1993</ele>
        <time>2021-09-01T10:21:24.000Z</time>
      </trkpt>
      <trkpt lat="44.38045" lon="6.39582">
        <ele>1993</ele>
        <time>2021-09-01T10:21:25.000Z</time>
      </trkpt>
      <trkpt lat="44.38045" lon="6.39582">
        <ele>1993</ele>
        <time>2021-09-01T10:21:26.000Z</time>
      </trkpt>
      <trkpt lat="44.38046" lon="6.39582">
        <ele>1994</ele>
        <time>2021-09-01T10:21:27.000Z</time>
      </trkpt>
      <trkpt lat="44.38047" lon="6.39582">
        <ele>1996</ele>
        <time>2021-09-01T10:21:28.000Z</time>
      </trkpt>
      <trkpt lat="44.38048" lon="6.39581">
        <ele>1996</ele>
        <time>2021-09-01T10:21:29.000Z</time>
      </trkpt>
      <trkpt lat="44.38049" lon="6.39581">
        <ele>1997</ele>
        <time>2021-09-01T10:21:30.000Z</time>
      </trkpt>
      <trkpt lat="44.3805" lon="6.3958">
        <ele>1997</ele>
        <time>2021-09-01T10:21:31.000Z</time>
      </trkpt>
      <trkpt lat="44.3805" lon="6.3958">
        <ele>1998</ele>
        <time>2021-09-01T10:21:32.000Z</time>
      </trkpt>
      <trkpt lat="44.38051" lon="6.3958">
        <ele>1998</ele>
        <time>2021-09-01T10:21:33.000Z</time>
      </trkpt>
      <trkpt lat="44.38051" lon="6.3958">
        <ele>1998</ele>
        <time>2021-09-01T10:21:34.000Z</time>
      </trkpt>
      <trkpt lat="44.38052" lon="6.3958">
        <ele>1998</ele>
        <time>2021-09-01T10:21:35.000Z</time>
      </trkpt>
      <trkpt lat="44.38052" lon="6.3958">
        <ele>1999</ele>
        <time>2021-09-01T10:21:36.000Z</time>
      </trkpt>
      <trkpt lat="44.38053" lon="6.3958">
        <ele>1999</ele>
        <time>2021-09-01T10:21:37.000Z</time>
      </trkpt>
      <trkpt lat="44.38053" lon="6.39581">
        <ele>1999</ele>
        <time>2021-09-01T10:21:38.000Z</time>
      </trkpt>
      <trkpt lat="44.38054" lon="6.3958">
        <ele>1999</ele>
        <time>2021-09-01T10:21:39.000Z</time>
      </trkpt>
      <trkpt lat="44.38054" lon="6.3958">
        <ele>1999</ele>
        <time>2021-09-01T10:21:40.000Z</time>
      </trkpt>
      <trkpt lat="44.38054" lon="6.3958">
        <ele>1999</ele>
        <time>2021-09-01T10:21:41.000Z</time>
      </trkpt>
      <trkpt lat="44.38054" lon="6.39579">
        <ele>1999</ele>
        <time>2021-09-01T10:21:42.000Z</time>
      </trkpt>
      <trkpt lat="44.38054" lon="6.39579">
        <ele>2000</ele>
        <time>2021-09-01T10:21:43.000Z</time>
      </trkpt>
      <trkpt lat="44.38055" lon="6.39579">
        <ele>2000</ele>
        <time>2021-09-01T10:21:44.000Z</time>
      </trkpt>
      <trkpt lat="44.38055" lon="6.39579">
        <ele>2000</ele>
        <time>2021-09-01T10:21:45.000Z</time>
      </trkpt>
      <trkpt lat="44.38055" lon="6.39578">
        <ele>2000</ele>
        <time>2021-09-01T10:21:46.000Z</time>
      </trkpt>
      <trkpt lat="44.38056" lon="6.39578">
        <ele>2000</ele>
        <time>2021-09-01T10:21:47.000Z</time>
      </trkpt>
      <trkpt lat="44.38056" lon="6.39578">
        <ele>2001</ele>
        <time>2021-09-01T10:21:48.000Z</time>
      </trkpt>
      <trkpt lat="44.38056" lon="6.39578">
        <ele>2001</ele>
        <time>2021-09-01T10:21:49.000Z</time>
      </trkpt>
      <trkpt lat="44.38056" lon="6.39578">
        <ele>2001</ele>
        <time>2021-09-01T10:21:50.000Z</time>
      </trkpt>
      <trkpt lat="44.38056" lon="6.39578">
        <ele>2002</ele>
        <time>2021-09-01T10:21:51.000Z</time>
      </trkpt>
      <trkpt lat="44.38056" lon="6.39577">
        <ele>2002</ele>
        <time>2021-09-01T10:21:52.000Z</time>
      </trkpt>
      <trkpt lat="44.38056" lon="6.39577">
        <ele>2002</ele>
        <time>2021-09-01T10:21:53.000Z</time>
      </trkpt>
      <trkpt lat="44.38056" lon="6.39577">
        <ele>2002</ele>
        <time>2021-09-01T10:21:54.000Z</time>
      </trkpt>
      <trkpt lat="44.38056" lon="6.39577">
        <ele>2003</ele>
        <time>2021-09-01T10:21:55.000Z</time>
      </trkpt>
      <trkpt lat="44.38056" lon="6.39577">
        <ele>2003</ele>
        <time>2021-09-01T10:21:56.000Z</time>
      </trkpt>
      <trkpt lat="44.38057" lon="6.39577">
        <ele>2003</ele>
        <time>2021-09-01T10:21:57.000Z</time>
      </trkpt>
      <trkpt lat="44.38057" lon="6.39577">
        <ele>2003</ele>
        <time>2021-09-01T10:21:58.000Z</time>
      </trkpt>
      <trkpt lat="44.38057" lon="6.39577">
        <ele>2003</ele>
        <time>2021-09-01T10:21:59.000Z</time>
      </trkpt>
      <trkpt lat="44.38057" lon="6.39576">
        <ele>2003</ele>
        <time>2021-09-01T10:22:00.000Z</time>
      </trkpt>
      <trkpt lat="44.38057" lon="6.39576">
        <ele>2004</ele>
        <time>2021-09-01T10:22:01.000Z</time>
      </trkpt>
      <trkpt lat="44.38058" lon="6.39575">
        <ele>2005</ele>
        <time>2021-09-01T10:22:02.000Z</time>
      </trkpt>
      <trkpt lat="44.38058" lon="6.39575">
        <ele>2006</ele>
        <time>2021-09-01T10:22:03.000Z</time>
      </trkpt>
      <trkpt lat="44.38058" lon="6.39575">
        <ele>2006</ele>
        <time>2021-09-01T10:22:04.000Z</time>
      </trkpt>
      <trkpt lat="44.38059" lon="6.39574">
        <ele>2007</ele>
        <time>2021-09-01T10:22:05.000Z</time>
      </trkpt>
      <trkpt lat="44.38059" lon="6.39574">
        <ele>2007</ele>
        <time>2021-09-01T10:22:06.000Z</time>
      </trkpt>
      <trkpt lat="44.38059" lon="6.39574">
        <ele>2008</ele>
        <time>2021-09-01T10:22:07.000Z</time>
      </trkpt>
      <trkpt lat="44.38059" lon="6.39574">
        <ele>2008</ele>
        <time>2021-09-01T10:22:08.000Z</time>
      </trkpt>
      <trkpt lat="44.38059" lon="6.39574">
        <ele>2008</ele>
        <time>2021-09-01T10:22:09.000Z</time>
      </trkpt>
      <trkpt lat="44.38059" lon="6.39574">
        <ele>2008</ele>
        <time>2021-09-01T10:22:10.000Z</time>
      </trkpt>
      <trkpt lat="44.38059" lon="6.39574">
        <ele>2008</ele>
        <time>2021-09-01T10:22:11.000Z</time>
      </trkpt>
      <trkpt lat="44.38059" lon="6.39574">
        <ele>2008</ele>
        <time>2021-09-01T10:22:12.000Z</time>
      </trkpt>
      <trkpt lat="44.38059" lon="6.39575">
        <ele>2008</ele>
        <time>2021-09-01T10:22:13.000Z</time>
      </trkpt>
      <trkpt lat="44.38059" lon="6.39575">
        <ele>2008</ele>
        <time>2021-09-01T10:22:14.000Z</time>
      </trkpt>
      <trkpt lat="44.38059" lon="6.39575">
        <ele>2008</ele>
        <time>2021-09-01T10:22:15.000Z</time>
      </trkpt>
      <trkpt lat="44.38059" lon="6.39575">
        <ele>2008</ele>
        <time>2021-09-01T10:22:16.000Z</time>
      </trkpt>
      <trkpt lat="44.38059" lon="6.39575">
        <ele>2007</ele>
        <time>2021-09-01T10:22:17.000Z</time>
      </trkpt>
      <trkpt lat="44.38059" lon="6.39576">
        <ele>2007</ele>
        <time>2021-09-01T10:22:18.000Z</time>
      </trkpt>
      <trkpt lat="44.38059" lon="6.39575">
        <ele>2007</ele>
        <time>2021-09-01T10:22:19.000Z</time>
      </trkpt>
      <trkpt lat="44.38059" lon="6.39575">
        <ele>2007</ele>
        <time>2021-09-01T10:22:20.000Z</time>
      </trkpt>
      <trkpt lat="44.38059" lon="6.39575">
        <ele>2007</ele>
        <time>2021-09-01T10:22:21.000Z</time>
      </trkpt>
      <trkpt lat="44.38058" lon="6.39575">
        <ele>2007</ele>
        <time>2021-09-01T10:22:22.000Z</time>
      </trkpt>
      <trkpt lat="44.38058" lon="6.39575">
        <ele>2008</ele>
        <time>2021-09-01T10:22:23.000Z</time>
      </trkpt>
      <trkpt lat="44.38058" lon="6.39575">
        <ele>2008</ele>
        <time>2021-09-01T10:22:24.000Z</time>
      </trkpt>
      <trkpt lat="44.38058" lon="6.39575">
        <ele>2007</ele>
        <time>2021-09-01T10:22:25.000Z</time>
      </trkpt>
      <trkpt lat="44.38058" lon="6.39575">
        <ele>2007</ele>
        <time>2021-09-01T10:22:26.000Z</time>
      </trkpt>
      <trkpt lat="44.38058" lon="6.39575">
        <ele>2007</ele>
        <time>2021-09-01T10:22:27.000Z</time>
      </trkpt>
      <trkpt lat="44.38058" lon="6.39575">
        <ele>2007</ele>
        <time>2021-09-01T10:22:28.000Z</time>
      </trkpt>
      <trkpt lat="44.38058" lon="6.39574">
        <ele>2007</ele>
        <time>2021-09-01T10:22:29.000Z</time>
      </trkpt>
      <trkpt lat="44.38058" lon="6.39574">
        <ele>2007</ele>
        <time>2021-09-01T10:22:30.000Z</time>
      </trkpt>
      <trkpt lat="44.38058" lon="6.39574">
        <ele>2007</ele>
        <time>2021-09-01T10:22:31.000Z</time>
      </trkpt>
      <trkpt lat="44.38058" lon="6.39574">
        <ele>2007</ele>
        <time>2021-09-01T10:22:32.000Z</time>
      </trkpt>
      <trkpt lat="44.38058" lon="6.39573">
        <ele>2007</ele>
        <time>2021-09-01T10:22:33.000Z</time>
      </trkpt>
      <trkpt lat="44.38058" lon="6.39573">
        <ele>2007</ele>
        <time>2021-09-01T10:22:34.000Z</time>
      </trkpt>
      <trkpt lat="44.38057" lon="6.39573">
        <ele>2007</ele>
        <time>2021-09-01T10:22:35.000Z</time>
      </trkpt>
      <trkpt lat="44.38057" lon="6.39573">
        <ele>2006</ele>
        <time>2021-09-01T10:22:36.000Z</time>
      </trkpt>
      <trkpt lat="44.38057" lon="6.39573">
        <ele>2006</ele>
        <time>2021-09-01T10:22:37.000Z</time>
      </trkpt>
      <trkpt lat="44.38057" lon="6.39573">
        <ele>2006</ele>
        <time>2021-09-01T10:22:38.000Z</time>
      </trkpt>
      <trkpt lat="44.38057" lon="6.39573">
        <ele>2006</ele>
        <time>2021-09-01T10:22:39.000Z</time>
      </trkpt>
      <trkpt lat="44.38057" lon="6.39573">
        <ele>2006</ele>
        <time>2021-09-01T10:22:40.000Z</time>
      </trkpt>
      <trkpt lat="44.38056" lon="6.39573">
        <ele>2006</ele>
        <time>2021-09-01T10:22:41.000Z</time>
      </trkpt>
      <trkpt lat="44.38056" lon="6.39573">
        <ele>2005</ele>
        <time>2021-09-01T10:22:42.000Z</time>
      </trkpt>
      <trkpt lat="44.38056" lon="6.39573">
        <ele>2005</ele>
        <time>2021-09-01T10:22:43.000Z</time>
      </trkpt>
      <trkpt lat="44.38056" lon="6.39572">
        <ele>2005</ele>
        <time>2021-09-01T10:22:44.000Z</time>
      </trkpt>
      <trkpt lat="44.38056" lon="6.39572">
        <ele>2005</ele>
        <time>2021-09-01T10:22:45.000Z</time>
      </trkpt>
      <trkpt lat="44.38056" lon="6.39572">
        <ele>2005</ele>
        <time>2021-09-01T10:22:46.000Z</time>
      </trkpt>
      <trkpt lat="44.38056" lon="6.39571">
        <ele>2005</ele>
        <time>2021-09-01T10:22:47.000Z</time>
      </trkpt>
      <trkpt lat="44.38056" lon="6.39572">
        <ele>2005</ele>
        <time>2021-09-01T10:22:48.000Z</time>
      </trkpt>
      <trkpt lat="44.38056" lon="6.39572">
        <ele>2005</ele>
        <time>2021-09-01T10:22:49.000Z</time>
      </trkpt>
      <trkpt lat="44.38056" lon="6.39572">
        <ele>2005</ele>
        <time>2021-09-01T10:22:50.000Z</time>
      </trkpt>
      <trkpt lat="44.38056" lon="6.39572">
        <ele>2004</ele>
        <time>2021-09-01T10:22:51.000Z</time>
      </trkpt>
      <trkpt lat="44.38056" lon="6.39573">
        <ele>2004</ele>
        <time>2021-09-01T10:22:52.000Z</time>
      </trkpt>
      <trkpt lat="44.38056" lon="6.39573">
        <ele>2004</ele>
        <time>2021-09-01T10:22:53.000Z</time>
      </trkpt>
      <trkpt lat="44.38056" lon="6.39573">
        <ele>2004</ele>
        <time>2021-09-01T10:22:54.000Z</time>
      </trkpt>
      <trkpt lat="44.38056" lon="6.39574">
        <ele>2004</ele>
        <time>2021-09-01T10:22:55.000Z</time>
      </trkpt>
      <trkpt lat="44.38056" lon="6.39574">
        <ele>2003</ele>
        <time>2021-09-01T10:22:56.000Z</time>
      </trkpt>
      <trkpt lat="44.38057" lon="6.39574">
        <ele>2003</ele>
        <time>2021-09-01T10:22:57.000Z</time>
      </trkpt>
      <trkpt lat="44.38057" lon="6.39575">
        <ele>2003</ele>
        <time>2021-09-01T10:22:58.000Z</time>
      </trkpt>
      <trkpt lat="44.38057" lon="6.39575">
        <ele>2004</ele>
        <time>2021-09-01T10:22:59.000Z</time>
      </trkpt>
      <trkpt lat="44.38057" lon="6.39576">
        <ele>2003</ele>
        <time>2021-09-01T10:23:00.000Z</time>
      </trkpt>
      <trkpt lat="44.38057" lon="6.39577">
        <ele>2003</ele>
        <time>2021-09-01T10:23:01.000Z</time>
      </trkpt>
      <trkpt lat="44.38057" lon="6.39578">
        <ele>2002</ele>
        <time>2021-09-01T10:23:02.000Z</time>
      </trkpt>
      <trkpt lat="44.38057" lon="6.3958">
        <ele>2001</ele>
        <time>2021-09-01T10:23:03.000Z</time>
      </trkpt>
      <trkpt lat="44.38058" lon="6.39579">
        <ele>2002</ele>
        <time>2021-09-01T10:23:04.000Z</time>
      </trkpt>
      <trkpt lat="44.38058" lon="6.39579">
        <ele>2002</ele>
        <time>2021-09-01T10:23:05.000Z</time>
      </trkpt>
      <trkpt lat="44.38057" lon="6.39579">
        <ele>2002</ele>
        <time>2021-09-01T10:23:06.000Z</time>
      </trkpt>
      <trkpt lat="44.38058" lon="6.39578">
        <ele>2002</ele>
        <time>2021-09-01T10:23:07.000Z</time>
      </trkpt>
      <trkpt lat="44.38058" lon="6.39578">
        <ele>2003</ele>
        <time>2021-09-01T10:23:08.000Z</time>
      </trkpt>
      <trkpt lat="44.38059" lon="6.39577">
        <ele>2003</ele>
        <time>2021-09-01T10:23:09.000Z</time>
      </trkpt>
      <trkpt lat="44.38059" lon="6.39577">
        <ele>2003</ele>
        <time>2021-09-01T10:23:10.000Z</time>
      </trkpt>
      <trkpt lat="44.3806" lon="6.39575">
        <ele>2003</ele>
        <time>2021-09-01T10:23:11.000Z</time>
      </trkpt>
      <trkpt lat="44.3806" lon="6.39574">
        <ele>2003</ele>
        <time>2021-09-01T10:23:12.000Z</time>
      </trkpt>
      <trkpt lat="44.38061" lon="6.39573">
        <ele>2003</ele>
        <time>2021-09-01T10:23:13.000Z</time>
      </trkpt>
      <trkpt lat="44.38062" lon="6.39573">
        <ele>2002</ele>
        <time>2021-09-01T10:23:14.000Z</time>
      </trkpt>
      <trkpt lat="44.38062" lon="6.39571">
        <ele>2002</ele>
        <time>2021-09-01T10:23:15.000Z</time>
      </trkpt>
      <trkpt lat="44.38062" lon="6.3957">
        <ele>2002</ele>
        <time>2021-09-01T10:23:16.000Z</time>
      </trkpt>
      <trkpt lat="44.38062" lon="6.39567">
        <ele>2002</ele>
        <time>2021-09-01T10:23:17.000Z</time>
      </trkpt>
      <trkpt lat="44.38062" lon="6.39564">
        <ele>2002</ele>
        <time>2021-09-01T10:23:18.000Z</time>
      </trkpt>
      <trkpt lat="44.38063" lon="6.39562">
        <ele>2002</ele>
        <time>2021-09-01T10:23:19.000Z</time>
      </trkpt>
      <trkpt lat="44.38064" lon="6.3956">
        <ele>2003</ele>
        <time>2021-09-01T10:23:20.000Z</time>
      </trkpt>
      <trkpt lat="44.38065" lon="6.39559">
        <ele>2003</ele>
        <time>2021-09-01T10:23:21.000Z</time>
      </trkpt>
      <trkpt lat="44.38067" lon="6.39557">
        <ele>2004</ele>
        <time>2021-09-01T10:23:22.000Z</time>
      </trkpt>
      <trkpt lat="44.38068" lon="6.39556">
        <ele>2004</ele>
        <time>2021-09-01T10:23:23.000Z</time>
      </trkpt>
      <trkpt lat="44.38069" lon="6.39555">
        <ele>2004</ele>
        <time>2021-09-01T10:23:24.000Z</time>
      </trkpt>
      <trkpt lat="44.38071" lon="6.39554">
        <ele>2003</ele>
        <time>2021-09-01T10:23:25.000Z</time>
      </trkpt>
      <trkpt lat="44.38072" lon="6.39553">
        <ele>2003</ele>
        <time>2021-09-01T10:23:26.000Z</time>
      </trkpt>
      <trkpt lat="44.38074" lon="6.39551">
        <ele>2003</ele>
        <time>2021-09-01T10:23:27.000Z</time>
      </trkpt>
      <trkpt lat="44.38076" lon="6.39549">
        <ele>2002</ele>
        <time>2021-09-01T10:23:28.000Z</time>
      </trkpt>
      <trkpt lat="44.38077" lon="6.39548">
        <ele>2002</ele>
        <time>2021-09-01T10:23:29.000Z</time>
      </trkpt>
      <trkpt lat="44.38079" lon="6.39546">
        <ele>2001</ele>
        <time>2021-09-01T10:23:30.000Z</time>
      </trkpt>
      <trkpt lat="44.3808" lon="6.39545">
        <ele>2001</ele>
        <time>2021-09-01T10:23:31.000Z</time>
      </trkpt>
      <trkpt lat="44.38082" lon="6.39542">
        <ele>2001</ele>
        <time>2021-09-01T10:23:32.000Z</time>
      </trkpt>
      <trkpt lat="44.38084" lon="6.39541">
        <ele>2001</ele>
        <time>2021-09-01T10:23:33.000Z</time>
      </trkpt>
      <trkpt lat="44.38086" lon="6.39539">
        <ele>2001</ele>
        <time>2021-09-01T10:23:34.000Z</time>
      </trkpt>
      <trkpt lat="44.38088" lon="6.39538">
        <ele>2001</ele>
        <time>2021-09-01T10:23:35.000Z</time>
      </trkpt>
      <trkpt lat="44.38089" lon="6.39537">
        <ele>2001</ele>
        <time>2021-09-01T10:23:36.000Z</time>
      </trkpt>
      <trkpt lat="44.38091" lon="6.39536">
        <ele>2002</ele>
        <time>2021-09-01T10:23:37.000Z</time>
      </trkpt>
      <trkpt lat="44.38093" lon="6.39535">
        <ele>2002</ele>
        <time>2021-09-01T10:23:38.000Z</time>
      </trkpt>
      <trkpt lat="44.38094" lon="6.39534">
        <ele>2002</ele>
        <time>2021-09-01T10:23:39.000Z</time>
      </trkpt>
      <trkpt lat="44.38096" lon="6.39532">
        <ele>2002</ele>
        <time>2021-09-01T10:23:40.000Z</time>
      </trkpt>
      <trkpt lat="44.38098" lon="6.39532">
        <ele>2002</ele>
        <time>2021-09-01T10:23:41.000Z</time>
      </trkpt>
      <trkpt lat="44.38099" lon="6.39531">
        <ele>2003</ele>
        <time>2021-09-01T10:23:42.000Z</time>
      </trkpt>
      <trkpt lat="44.38101" lon="6.3953">
        <ele>2003</ele>
        <time>2021-09-01T10:23:43.000Z</time>
      </trkpt>
      <trkpt lat="44.38102" lon="6.39528">
        <ele>2004</ele>
        <time>2021-09-01T10:23:44.000Z</time>
      </trkpt>
      <trkpt lat="44.38104" lon="6.39527">
        <ele>2004</ele>
        <time>2021-09-01T10:23:45.000Z</time>
      </trkpt>
      <trkpt lat="44.38105" lon="6.39526">
        <ele>2004</ele>
        <time>2021-09-01T10:23:46.000Z</time>
      </trkpt>
      <trkpt lat="44.38108" lon="6.39525">
        <ele>2004</ele>
        <time>2021-09-01T10:23:47.000Z</time>
      </trkpt>
      <trkpt lat="44.3811" lon="6.39524">
        <ele>2004</ele>
        <time>2021-09-01T10:23:48.000Z</time>
      </trkpt>
      <trkpt lat="44.38112" lon="6.39523">
        <ele>2003</ele>
        <time>2021-09-01T10:23:49.000Z</time>
      </trkpt>
      <trkpt lat="44.38114" lon="6.39522">
        <ele>2002</ele>
        <time>2021-09-01T10:23:50.000Z</time>
      </trkpt>
      <trkpt lat="44.38116" lon="6.39522">
        <ele>2002</ele>
        <time>2021-09-01T10:23:51.000Z</time>
      </trkpt>
      <trkpt lat="44.38117" lon="6.3952">
        <ele>2002</ele>
        <time>2021-09-01T10:23:52.000Z</time>
      </trkpt>
      <trkpt lat="44.38119" lon="6.39519">
        <ele>2003</ele>
        <time>2021-09-01T10:23:53.000Z</time>
      </trkpt>
      <trkpt lat="44.3812" lon="6.39518">
        <ele>2004</ele>
        <time>2021-09-01T10:23:54.000Z</time>
      </trkpt>
      <trkpt lat="44.38122" lon="6.39516">
        <ele>2004</ele>
        <time>2021-09-01T10:23:55.000Z</time>
      </trkpt>
      <trkpt lat="44.38124" lon="6.39517">
        <ele>2004</ele>
        <time>2021-09-01T10:23:56.000Z</time>
      </trkpt>
      <trkpt lat="44.38125" lon="6.39516">
        <ele>2004</ele>
        <time>2021-09-01T10:23:57.000Z</time>
      </trkpt>
      <trkpt lat="44.38127" lon="6.39515">
        <ele>2004</ele>
        <time>2021-09-01T10:23:58.000Z</time>
      </trkpt>
      <trkpt lat="44.38128" lon="6.39514">
        <ele>2004</ele>
        <time>2021-09-01T10:23:59.000Z</time>
      </trkpt>
      <trkpt lat="44.3813" lon="6.39514">
        <ele>2004</ele>
        <time>2021-09-01T10:24:00.000Z</time>
      </trkpt>
      <trkpt lat="44.38131" lon="6.39513">
        <ele>2005</ele>
        <time>2021-09-01T10:24:01.000Z</time>
      </trkpt>
      <trkpt lat="44.38132" lon="6.39512">
        <ele>2005</ele>
        <time>2021-09-01T10:24:02.000Z</time>
      </trkpt>
      <trkpt lat="44.38134" lon="6.39511">
        <ele>2006</ele>
        <time>2021-09-01T10:24:03.000Z</time>
      </trkpt>
      <trkpt lat="44.38136" lon="6.3951">
        <ele>2006</ele>
        <time>2021-09-01T10:24:04.000Z</time>
      </trkpt>
      <trkpt lat="44.38137" lon="6.39508">
        <ele>2007</ele>
        <time>2021-09-01T10:24:05.000Z</time>
      </trkpt>
      <trkpt lat="44.38139" lon="6.39507">
        <ele>2007</ele>
        <time>2021-09-01T10:24:06.000Z</time>
      </trkpt>
      <trkpt lat="44.38141" lon="6.39506">
        <ele>2008</ele>
        <time>2021-09-01T10:24:07.000Z</time>
      </trkpt>
      <trkpt lat="44.38142" lon="6.39505">
        <ele>2008</ele>
        <time>2021-09-01T10:24:08.000Z</time>
      </trkpt>
      <trkpt lat="44.38144" lon="6.39503">
        <ele>2009</ele>
        <time>2021-09-01T10:24:09.000Z</time>
      </trkpt>
      <trkpt lat="44.38145" lon="6.39502">
        <ele>2009</ele>
        <time>2021-09-01T10:24:10.000Z</time>
      </trkpt>
      <trkpt lat="44.38147" lon="6.395">
        <ele>2009</ele>
        <time>2021-09-01T10:24:11.000Z</time>
      </trkpt>
      <trkpt lat="44.38149" lon="6.39499">
        <ele>2010</ele>
        <time>2021-09-01T10:24:12.000Z</time>
      </trkpt>
      <trkpt lat="44.3815" lon="6.39498">
        <ele>2010</ele>
        <time>2021-09-01T10:24:13.000Z</time>
      </trkpt>
      <trkpt lat="44.38151" lon="6.39498">
        <ele>2009</ele>
        <time>2021-09-01T10:24:14.000Z</time>
      </trkpt>
      <trkpt lat="44.38152" lon="6.39497">
        <ele>2009</ele>
        <time>2021-09-01T10:24:15.000Z</time>
      </trkpt>
      <trkpt lat="44.38152" lon="6.39496">
        <ele>2010</ele>
        <time>2021-09-01T10:24:16.000Z</time>
      </trkpt>
      <trkpt lat="44.38153" lon="6.39496">
        <ele>2010</ele>
        <time>2021-09-01T10:24:17.000Z</time>
      </trkpt>
      <trkpt lat="44.38154" lon="6.39493">
        <ele>2012</ele>
        <time>2021-09-01T10:24:18.000Z</time>
      </trkpt>
      <trkpt lat="44.38156" lon="6.39491">
        <ele>2013</ele>
        <time>2021-09-01T10:24:19.000Z</time>
      </trkpt>
      <trkpt lat="44.38157" lon="6.3949">
        <ele>2013</ele>
        <time>2021-09-01T10:24:20.000Z</time>
      </trkpt>
      <trkpt lat="44.38157" lon="6.39489">
        <ele>2013</ele>
        <time>2021-09-01T10:24:21.000Z</time>
      </trkpt>
      <trkpt lat="44.38157" lon="6.39488">
        <ele>2013</ele>
        <time>2021-09-01T10:24:22.000Z</time>
      </trkpt>
      <trkpt lat="44.38158" lon="6.39488">
        <ele>2013</ele>
        <time>2021-09-01T10:24:23.000Z</time>
      </trkpt>
      <trkpt lat="44.38158" lon="6.39487">
        <ele>2014</ele>
        <time>2021-09-01T10:24:24.000Z</time>
      </trkpt>
      <trkpt lat="44.38159" lon="6.39486">
        <ele>2014</ele>
        <time>2021-09-01T10:24:25.000Z</time>
      </trkpt>
      <trkpt lat="44.38159" lon="6.39486">
        <ele>2014</ele>
        <time>2021-09-01T10:24:26.000Z</time>
      </trkpt>
      <trkpt lat="44.38159" lon="6.39485">
        <ele>2015</ele>
        <time>2021-09-01T10:24:27.000Z</time>
      </trkpt>
      <trkpt lat="44.38159" lon="6.39485">
        <ele>2015</ele>
        <time>2021-09-01T10:24:28.000Z</time>
      </trkpt>
      <trkpt lat="44.38159" lon="6.39484">
        <ele>2016</ele>
        <time>2021-09-01T10:24:29.000Z</time>
      </trkpt>
      <trkpt lat="44.3816" lon="6.39484">
        <ele>2016</ele>
        <time>2021-09-01T10:24:30.000Z</time>
      </trkpt>
      <trkpt lat="44.38159" lon="6.39483">
        <ele>2016</ele>
        <time>2021-09-01T10:24:31.000Z</time>
      </trkpt>
      <trkpt lat="44.38159" lon="6.39483">
        <ele>2016</ele>
        <time>2021-09-01T10:24:32.000Z</time>
      </trkpt>
      <trkpt lat="44.38159" lon="6.39482">
        <ele>2016</ele>
        <time>2021-09-01T10:24:33.000Z</time>
      </trkpt>
      <trkpt lat="44.3816" lon="6.39482">
        <ele>2016</ele>
        <time>2021-09-01T10:24:34.000Z</time>
      </trkpt>
      <trkpt lat="44.3816" lon="6.39483">
        <ele>2016</ele>
        <time>2021-09-01T10:24:35.000Z</time>
      </trkpt>
      <trkpt lat="44.3816" lon="6.39482">
        <ele>2016</ele>
        <time>2021-09-01T10:24:36.000Z</time>
      </trkpt>
      <trkpt lat="44.3816" lon="6.39482">
        <ele>2017</ele>
        <time>2021-09-01T10:24:37.000Z</time>
      </trkpt>
      <trkpt lat="44.3816" lon="6.39482">
        <ele>2017</ele>
        <time>2021-09-01T10:24:38.000Z</time>
      </trkpt>
      <trkpt lat="44.3816" lon="6.39482">
        <ele>2017</ele>
        <time>2021-09-01T10:24:39.000Z</time>
      </trkpt>
      <trkpt lat="44.3816" lon="6.39482">
        <ele>2017</ele>
        <time>2021-09-01T10:24:40.000Z</time>
      </trkpt>
      <trkpt lat="44.3816" lon="6.39482">
        <ele>2017</ele>
        <time>2021-09-01T10:24:41.000Z</time>
      </trkpt>
      <trkpt lat="44.3816" lon="6.39482">
        <ele>2017</ele>
        <time>2021-09-01T10:24:42.000Z</time>
      </trkpt>
      <trkpt lat="44.3816" lon="6.39482">
        <ele>2017</ele>
        <time>2021-09-01T10:24:43.000Z</time>
      </trkpt>
      <trkpt lat="44.3816" lon="6.39482">
        <ele>2017</ele>
        <time>2021-09-01T10:24:44.000Z</time>
      </trkpt>
      <trkpt lat="44.3816" lon="6.39482">
        <ele>2017</ele>
        <time>2021-09-01T10:24:45.000Z</time>
      </trkpt>
      <trkpt lat="44.3816" lon="6.39482">
        <ele>2017</ele>
        <time>2021-09-01T10:24:46.000Z</time>
      </trkpt>
      <trkpt lat="44.3816" lon="6.39482">
        <ele>2017</ele>
        <time>2021-09-01T10:24:47.000Z</time>
      </trkpt>
      <trkpt lat="44.3816" lon="6.39482">
        <ele>2017</ele>
        <time>2021-09-01T10:24:48.000Z</time>
      </trkpt>
      <trkpt lat="44.3816" lon="6.39482">
        <ele>2017</ele>
        <time>2021-09-01T10:24:49.000Z</time>
      </trkpt>
      <trkpt lat="44.3816" lon="6.39481">
        <ele>2017</ele>
        <time>2021-09-01T10:24:50.000Z</time>
      </trkpt>
      <trkpt lat="44.3816" lon="6.39481">
        <ele>2017</ele>
        <time>2021-09-01T10:24:51.000Z</time>
      </trkpt>
      <trkpt lat="44.3816" lon="6.39481">
        <ele>2017</ele>
        <time>2021-09-01T10:24:52.000Z</time>
      </trkpt>
      <trkpt lat="44.3816" lon="6.39481">
        <ele>2017</ele>
        <time>2021-09-01T10:24:53.000Z</time>
      </trkpt>
      <trkpt lat="44.3816" lon="6.39481">
        <ele>2017</ele>
        <time>2021-09-01T10:24:54.000Z</time>
      </trkpt>
      <trkpt lat="44.38161" lon="6.39481">
        <ele>2017</ele>
        <time>2021-09-01T10:24:55.000Z</time>
      </trkpt>
      <trkpt lat="44.38161" lon="6.3948">
        <ele>2017</ele>
        <time>2021-09-01T10:24:56.000Z</time>
      </trkpt>
      <trkpt lat="44.38161" lon="6.3948">
        <ele>2017</ele>
        <time>2021-09-01T10:24:57.000Z</time>
      </trkpt>
      <trkpt lat="44.38161" lon="6.3948">
        <ele>2017</ele>
        <time>2021-09-01T10:24:58.000Z</time>
      </trkpt>
      <trkpt lat="44.38161" lon="6.3948">
        <ele>2017</ele>
        <time>2021-09-01T10:24:59.000Z</time>
      </trkpt>
      <trkpt lat="44.38161" lon="6.39479">
        <ele>2017</ele>
        <time>2021-09-01T10:25:00.000Z</time>
      </trkpt>
      <trkpt lat="44.38161" lon="6.39479">
        <ele>2017</ele>
        <time>2021-09-01T10:25:01.000Z</time>
      </trkpt>
      <trkpt lat="44.38161" lon="6.39479">
        <ele>2017</ele>
        <time>2021-09-01T10:25:02.000Z</time>
      </trkpt>
      <trkpt lat="44.38161" lon="6.39479">
        <ele>2017</ele>
        <time>2021-09-01T10:25:03.000Z</time>
      </trkpt>
      <trkpt lat="44.38161" lon="6.39479">
        <ele>2017</ele>
        <time>2021-09-01T10:25:04.000Z</time>
      </trkpt>
      <trkpt lat="44.38161" lon="6.39479">
        <ele>2017</ele>
        <time>2021-09-01T10:25:05.000Z</time>
      </trkpt>
      <trkpt lat="44.38161" lon="6.39479">
        <ele>2017</ele>
        <time>2021-09-01T10:25:06.000Z</time>
      </trkpt>
      <trkpt lat="44.38161" lon="6.39479">
        <ele>2017</ele>
        <time>2021-09-01T10:25:07.000Z</time>
      </trkpt>
      <trkpt lat="44.38161" lon="6.39478">
        <ele>2017</ele>
        <time>2021-09-01T10:25:08.000Z</time>
      </trkpt>
      <trkpt lat="44.38161" lon="6.39478">
        <ele>2017</ele>
        <time>2021-09-01T10:25:09.000Z</time>
      </trkpt>
      <trkpt lat="44.38162" lon="6.39478">
        <ele>2017</ele>
        <time>2021-09-01T10:25:10.000Z</time>
      </trkpt>
      <trkpt lat="44.38163" lon="6.39477">
        <ele>2016</ele>
        <time>2021-09-01T10:25:11.000Z</time>
      </trkpt>
      <trkpt lat="44.38164" lon="6.39477">
        <ele>2016</ele>
        <time>2021-09-01T10:25:12.000Z</time>
      </trkpt>
      <trkpt lat="44.38165" lon="6.39477">
        <ele>2016</ele>
        <time>2021-09-01T10:25:13.000Z</time>
      </trkpt>
      <trkpt lat="44.38166" lon="6.39476">
        <ele>2016</ele>
        <time>2021-09-01T10:25:14.000Z</time>
      </trkpt>
      <trkpt lat="44.38167" lon="6.39475">
        <ele>2016</ele>
        <time>2021-09-01T10:25:15.000Z</time>
      </trkpt>
      <trkpt lat="44.38168" lon="6.39474">
        <ele>2016</ele>
        <time>2021-09-01T10:25:16.000Z</time>
      </trkpt>
      <trkpt lat="44.38169" lon="6.39474">
        <ele>2017</ele>
        <time>2021-09-01T10:25:17.000Z</time>
      </trkpt>
      <trkpt lat="44.38171" lon="6.39473">
        <ele>2017</ele>
        <time>2021-09-01T10:25:18.000Z</time>
      </trkpt>
      <trkpt lat="44.38172" lon="6.39472">
        <ele>2016</ele>
        <time>2021-09-01T10:25:19.000Z</time>
      </trkpt>
      <trkpt lat="44.38174" lon="6.39471">
        <ele>2016</ele>
        <time>2021-09-01T10:25:20.000Z</time>
      </trkpt>
      <trkpt lat="44.38175" lon="6.3947">
        <ele>2016</ele>
        <time>2021-09-01T10:25:21.000Z</time>
      </trkpt>
      <trkpt lat="44.38176" lon="6.39469">
        <ele>2015</ele>
        <time>2021-09-01T10:25:22.000Z</time>
      </trkpt>
      <trkpt lat="44.38177" lon="6.39468">
        <ele>2015</ele>
        <time>2021-09-01T10:25:23.000Z</time>
      </trkpt>
      <trkpt lat="44.38179" lon="6.39466">
        <ele>2015</ele>
        <time>2021-09-01T10:25:24.000Z</time>
      </trkpt>
      <trkpt lat="44.3818" lon="6.39465">
        <ele>2015</ele>
        <time>2021-09-01T10:25:25.000Z</time>
      </trkpt>
      <trkpt lat="44.38182" lon="6.39463">
        <ele>2015</ele>
        <time>2021-09-01T10:25:26.000Z</time>
      </trkpt>
      <trkpt lat="44.38184" lon="6.39461">
        <ele>2015</ele>
        <time>2021-09-01T10:25:27.000Z</time>
      </trkpt>
      <trkpt lat="44.38186" lon="6.3946">
        <ele>2015</ele>
        <time>2021-09-01T10:25:28.000Z</time>
      </trkpt>
      <trkpt lat="44.38188" lon="6.39458">
        <ele>2014</ele>
        <time>2021-09-01T10:25:29.000Z</time>
      </trkpt>
      <trkpt lat="44.3819" lon="6.39457">
        <ele>2012</ele>
        <time>2021-09-01T10:25:30.000Z</time>
      </trkpt>
      <trkpt lat="44.38192" lon="6.39455">
        <ele>2012</ele>
        <time>2021-09-01T10:25:31.000Z</time>
      </trkpt>
      <trkpt lat="44.38194" lon="6.39453">
        <ele>2012</ele>
        <time>2021-09-01T10:25:32.000Z</time>
      </trkpt>
      <trkpt lat="44.38195" lon="6.39452">
        <ele>2011</ele>
        <time>2021-09-01T10:25:33.000Z</time>
      </trkpt>
      <trkpt lat="44.38197" lon="6.3945">
        <ele>2010</ele>
        <time>2021-09-01T10:25:34.000Z</time>
      </trkpt>
      <trkpt lat="44.38199" lon="6.3945">
        <ele>2010</ele>
        <time>2021-09-01T10:25:35.000Z</time>
      </trkpt>
      <trkpt lat="44.38201" lon="6.39449">
        <ele>2010</ele>
        <time>2021-09-01T10:25:36.000Z</time>
      </trkpt>
      <trkpt lat="44.38202" lon="6.39447">
        <ele>2010</ele>
        <time>2021-09-01T10:25:37.000Z</time>
      </trkpt>
      <trkpt lat="44.38204" lon="6.39446">
        <ele>2010</ele>
        <time>2021-09-01T10:25:38.000Z</time>
      </trkpt>
      <trkpt lat="44.38206" lon="6.39444">
        <ele>2010</ele>
        <time>2021-09-01T10:25:39.000Z</time>
      </trkpt>
      <trkpt lat="44.38207" lon="6.39443">
        <ele>2010</ele>
        <time>2021-09-01T10:25:40.000Z</time>
      </trkpt>
      <trkpt lat="44.38209" lon="6.39441">
        <ele>2010</ele>
        <time>2021-09-01T10:25:41.000Z</time>
      </trkpt>
      <trkpt lat="44.38211" lon="6.3944">
        <ele>2010</ele>
        <time>2021-09-01T10:25:42.000Z</time>
      </trkpt>
      <trkpt lat="44.38212" lon="6.39439">
        <ele>2010</ele>
        <time>2021-09-01T10:25:43.000Z</time>
      </trkpt>
      <trkpt lat="44.38213" lon="6.39437">
        <ele>2010</ele>
        <time>2021-09-01T10:25:44.000Z</time>
      </trkpt>
      <trkpt lat="44.38216" lon="6.39435">
        <ele>2010</ele>
        <time>2021-09-01T10:25:45.000Z</time>
      </trkpt>
      <trkpt lat="44.38217" lon="6.39433">
        <ele>2010</ele>
        <time>2021-09-01T10:25:46.000Z</time>
      </trkpt>
      <trkpt lat="44.38219" lon="6.39431">
        <ele>2010</ele>
        <time>2021-09-01T10:25:47.000Z</time>
      </trkpt>
      <trkpt lat="44.38222" lon="6.39429">
        <ele>2010</ele>
        <time>2021-09-01T10:25:48.000Z</time>
      </trkpt>
      <trkpt lat="44.38223" lon="6.39427">
        <ele>2010</ele>
        <time>2021-09-01T10:25:49.000Z</time>
      </trkpt>
      <trkpt lat="44.38226" lon="6.39425">
        <ele>2010</ele>
        <time>2021-09-01T10:25:50.000Z</time>
      </trkpt>
      <trkpt lat="44.38228" lon="6.39423">
        <ele>2011</ele>
        <time>2021-09-01T10:25:51.000Z</time>
      </trkpt>
      <trkpt lat="44.3823" lon="6.39422">
        <ele>2011</ele>
        <time>2021-09-01T10:25:52.000Z</time>
      </trkpt>
      <trkpt lat="44.38232" lon="6.3942">
        <ele>2012</ele>
        <time>2021-09-01T10:25:53.000Z</time>
      </trkpt>
      <trkpt lat="44.38234" lon="6.39418">
        <ele>2012</ele>
        <time>2021-09-01T10:25:54.000Z</time>
      </trkpt>
      <trkpt lat="44.38236" lon="6.39417">
        <ele>2012</ele>
        <time>2021-09-01T10:25:55.000Z</time>
      </trkpt>
      <trkpt lat="44.38238" lon="6.39415">
        <ele>2013</ele>
        <time>2021-09-01T10:25:56.000Z</time>
      </trkpt>
      <trkpt lat="44.3824" lon="6.39413">
        <ele>2014</ele>
        <time>2021-09-01T10:25:57.000Z</time>
      </trkpt>
      <trkpt lat="44.38242" lon="6.39413">
        <ele>2014</ele>
        <time>2021-09-01T10:25:58.000Z</time>
      </trkpt>
      <trkpt lat="44.38243" lon="6.39412">
        <ele>2015</ele>
        <time>2021-09-01T10:25:59.000Z</time>
      </trkpt>
      <trkpt lat="44.38246" lon="6.39411">
        <ele>2015</ele>
        <time>2021-09-01T10:26:00.000Z</time>
      </trkpt>
      <trkpt lat="44.38247" lon="6.39409">
        <ele>2016</ele>
        <time>2021-09-01T10:26:01.000Z</time>
      </trkpt>
      <trkpt lat="44.38248" lon="6.39406">
        <ele>2016</ele>
        <time>2021-09-01T10:26:02.000Z</time>
      </trkpt>
      <trkpt lat="44.38249" lon="6.39403">
        <ele>2016</ele>
        <time>2021-09-01T10:26:03.000Z</time>
      </trkpt>
      <trkpt lat="44.38251" lon="6.39401">
        <ele>2017</ele>
        <time>2021-09-01T10:26:04.000Z</time>
      </trkpt>
      <trkpt lat="44.38253" lon="6.39398">
        <ele>2017</ele>
        <time>2021-09-01T10:26:05.000Z</time>
      </trkpt>
      <trkpt lat="44.38254" lon="6.39395">
        <ele>2017</ele>
        <time>2021-09-01T10:26:06.000Z</time>
      </trkpt>
      <trkpt lat="44.38256" lon="6.39393">
        <ele>2019</ele>
        <time>2021-09-01T10:26:07.000Z</time>
      </trkpt>
      <trkpt lat="44.38258" lon="6.39392">
        <ele>2019</ele>
        <time>2021-09-01T10:26:08.000Z</time>
      </trkpt>
      <trkpt lat="44.3826" lon="6.3939">
        <ele>2019</ele>
        <time>2021-09-01T10:26:09.000Z</time>
      </trkpt>
      <trkpt lat="44.38261" lon="6.39389">
        <ele>2019</ele>
        <time>2021-09-01T10:26:10.000Z</time>
      </trkpt>
      <trkpt lat="44.38263" lon="6.39389">
        <ele>2020</ele>
        <time>2021-09-01T10:26:11.000Z</time>
      </trkpt>
      <trkpt lat="44.38265" lon="6.39388">
        <ele>2021</ele>
        <time>2021-09-01T10:26:12.000Z</time>
      </trkpt>
      <trkpt lat="44.38267" lon="6.39387">
        <ele>2022</ele>
        <time>2021-09-01T10:26:13.000Z</time>
      </trkpt>
      <trkpt lat="44.38269" lon="6.39387">
        <ele>2022</ele>
        <time>2021-09-01T10:26:14.000Z</time>
      </trkpt>
      <trkpt lat="44.38271" lon="6.39386">
        <ele>2023</ele>
        <time>2021-09-01T10:26:15.000Z</time>
      </trkpt>
      <trkpt lat="44.38273" lon="6.39385">
        <ele>2024</ele>
        <time>2021-09-01T10:26:16.000Z</time>
      </trkpt>
      <trkpt lat="44.38274" lon="6.39385">
        <ele>2024</ele>
        <time>2021-09-01T10:26:17.000Z</time>
      </trkpt>
      <trkpt lat="44.38277" lon="6.39384">
        <ele>2024</ele>
        <time>2021-09-01T10:26:18.000Z</time>
      </trkpt>
      <trkpt lat="44.3828" lon="6.39385">
        <ele>2023</ele>
        <time>2021-09-01T10:26:19.000Z</time>
      </trkpt>
      <trkpt lat="44.38282" lon="6.39385">
        <ele>2024</ele>
        <time>2021-09-01T10:26:20.000Z</time>
      </trkpt>
      <trkpt lat="44.38284" lon="6.39385">
        <ele>2024</ele>
        <time>2021-09-01T10:26:21.000Z</time>
      </trkpt>
      <trkpt lat="44.38286" lon="6.39385">
        <ele>2024</ele>
        <time>2021-09-01T10:26:22.000Z</time>
      </trkpt>
      <trkpt lat="44.38288" lon="6.39385">
        <ele>2025</ele>
        <time>2021-09-01T10:26:23.000Z</time>
      </trkpt>
      <trkpt lat="44.3829" lon="6.39385">
        <ele>2025</ele>
        <time>2021-09-01T10:26:24.000Z</time>
      </trkpt>
      <trkpt lat="44.38292" lon="6.39385">
        <ele>2026</ele>
        <time>2021-09-01T10:26:25.000Z</time>
      </trkpt>
      <trkpt lat="44.38294" lon="6.39386">
        <ele>2026</ele>
        <time>2021-09-01T10:26:26.000Z</time>
      </trkpt>
      <trkpt lat="44.38296" lon="6.39386">
        <ele>2026</ele>
        <time>2021-09-01T10:26:27.000Z</time>
      </trkpt>
      <trkpt lat="44.38298" lon="6.39386">
        <ele>2026</ele>
        <time>2021-09-01T10:26:28.000Z</time>
      </trkpt>
      <trkpt lat="44.383" lon="6.39388">
        <ele>2027</ele>
        <time>2021-09-01T10:26:29.000Z</time>
      </trkpt>
      <trkpt lat="44.38302" lon="6.39389">
        <ele>2027</ele>
        <time>2021-09-01T10:26:30.000Z</time>
      </trkpt>
      <trkpt lat="44.38305" lon="6.39389">
        <ele>2026</ele>
        <time>2021-09-01T10:26:31.000Z</time>
      </trkpt>
      <trkpt lat="44.38307" lon="6.3939">
        <ele>2026</ele>
        <time>2021-09-01T10:26:32.000Z</time>
      </trkpt>
      <trkpt lat="44.3831" lon="6.39391">
        <ele>2025</ele>
        <time>2021-09-01T10:26:33.000Z</time>
      </trkpt>
      <trkpt lat="44.38312" lon="6.39391">
        <ele>2025</ele>
        <time>2021-09-01T10:26:34.000Z</time>
      </trkpt>
      <trkpt lat="44.38314" lon="6.39392">
        <ele>2025</ele>
        <time>2021-09-01T10:26:35.000Z</time>
      </trkpt>
      <trkpt lat="44.38316" lon="6.39392">
        <ele>2025</ele>
        <time>2021-09-01T10:26:36.000Z</time>
      </trkpt>
      <trkpt lat="44.38319" lon="6.39392">
        <ele>2025</ele>
        <time>2021-09-01T10:26:37.000Z</time>
      </trkpt>
      <trkpt lat="44.38321" lon="6.39393">
        <ele>2025</ele>
        <time>2021-09-01T10:26:38.000Z</time>
      </trkpt>
      <trkpt lat="44.38324" lon="6.39392">
        <ele>2026</ele>
        <time>2021-09-01T10:26:39.000Z</time>
      </trkpt>
      <trkpt lat="44.38326" lon="6.39392">
        <ele>2026</ele>
        <time>2021-09-01T10:26:40.000Z</time>
      </trkpt>
      <trkpt lat="44.38328" lon="6.39392">
        <ele>2026</ele>
        <time>2021-09-01T10:26:41.000Z</time>
      </trkpt>
      <trkpt lat="44.38331" lon="6.39392">
        <ele>2026</ele>
        <time>2021-09-01T10:26:42.000Z</time>
      </trkpt>
      <trkpt lat="44.38333" lon="6.39391">
        <ele>2027</ele>
        <time>2021-09-01T10:26:43.000Z</time>
      </trkpt>
      <trkpt lat="44.38335" lon="6.3939">
        <ele>2027</ele>
        <time>2021-09-01T10:26:44.000Z</time>
      </trkpt>
      <trkpt lat="44.38338" lon="6.39389">
        <ele>2027</ele>
        <time>2021-09-01T10:26:45.000Z</time>
      </trkpt>
      <trkpt lat="44.3834" lon="6.39389">
        <ele>2028</ele>
        <time>2021-09-01T10:26:46.000Z</time>
      </trkpt>
      <trkpt lat="44.38342" lon="6.3939">
        <ele>2028</ele>
        <time>2021-09-01T10:26:47.000Z</time>
      </trkpt>
      <trkpt lat="44.38343" lon="6.3939">
        <ele>2028</ele>
        <time>2021-09-01T10:26:48.000Z</time>
      </trkpt>
      <trkpt lat="44.38344" lon="6.3939">
        <ele>2029</ele>
        <time>2021-09-01T10:26:49.000Z</time>
      </trkpt>
      <trkpt lat="44.38344" lon="6.39389">
        <ele>2030</ele>
        <time>2021-09-01T10:26:50.000Z</time>
      </trkpt>
      <trkpt lat="44.38344" lon="6.39389">
        <ele>2030</ele>
        <time>2021-09-01T10:26:51.000Z</time>
      </trkpt>
      <trkpt lat="44.38344" lon="6.39389">
        <ele>2030</ele>
        <time>2021-09-01T10:26:52.000Z</time>
      </trkpt>
      <trkpt lat="44.38345" lon="6.39389">
        <ele>2030</ele>
        <time>2021-09-01T10:26:53.000Z</time>
      </trkpt>
      <trkpt lat="44.38345" lon="6.39389">
        <ele>2030</ele>
        <time>2021-09-01T10:26:54.000Z</time>
      </trkpt>
      <trkpt lat="44.38346" lon="6.39389">
        <ele>2030</ele>
        <time>2021-09-01T10:26:55.000Z</time>
      </trkpt>
      <trkpt lat="44.38346" lon="6.39389">
        <ele>2030</ele>
        <time>2021-09-01T10:26:56.000Z</time>
      </trkpt>
      <trkpt lat="44.38346" lon="6.3939">
        <ele>2030</ele>
        <time>2021-09-01T10:26:57.000Z</time>
      </trkpt>
      <trkpt lat="44.38347" lon="6.3939">
        <ele>2030</ele>
        <time>2021-09-01T10:26:58.000Z</time>
      </trkpt>
      <trkpt lat="44.38347" lon="6.3939">
        <ele>2030</ele>
        <time>2021-09-01T10:26:59.000Z</time>
      </trkpt>
      <trkpt lat="44.38347" lon="6.3939">
        <ele>2030</ele>
        <time>2021-09-01T10:27:00.000Z</time>
      </trkpt>
      <trkpt lat="44.38347" lon="6.39389">
        <ele>2031</ele>
        <time>2021-09-01T10:27:01.000Z</time>
      </trkpt>
      <trkpt lat="44.38347" lon="6.39389">
        <ele>2031</ele>
        <time>2021-09-01T10:27:02.000Z</time>
      </trkpt>
      <trkpt lat="44.38348" lon="6.39389">
        <ele>2031</ele>
        <time>2021-09-01T10:27:03.000Z</time>
      </trkpt>
      <trkpt lat="44.38348" lon="6.39389">
        <ele>2031</ele>
        <time>2021-09-01T10:27:04.000Z</time>
      </trkpt>
      <trkpt lat="44.38348" lon="6.39389">
        <ele>2031</ele>
        <time>2021-09-01T10:27:05.000Z</time>
      </trkpt>
      <trkpt lat="44.38348" lon="6.39388">
        <ele>2032</ele>
        <time>2021-09-01T10:27:06.000Z</time>
      </trkpt>
      <trkpt lat="44.38348" lon="6.39388">
        <ele>2032</ele>
        <time>2021-09-01T10:27:07.000Z</time>
      </trkpt>
      <trkpt lat="44.38348" lon="6.39387">
        <ele>2032</ele>
        <time>2021-09-01T10:27:08.000Z</time>
      </trkpt>
      <trkpt lat="44.38348" lon="6.39387">
        <ele>2032</ele>
        <time>2021-09-01T10:27:09.000Z</time>
      </trkpt>
      <trkpt lat="44.38348" lon="6.39387">
        <ele>2032</ele>
        <time>2021-09-01T10:27:10.000Z</time>
      </trkpt>
      <trkpt lat="44.38348" lon="6.39387">
        <ele>2032</ele>
        <time>2021-09-01T10:27:11.000Z</time>
      </trkpt>
      <trkpt lat="44.38348" lon="6.39386">
        <ele>2033</ele>
        <time>2021-09-01T10:27:12.000Z</time>
      </trkpt>
      <trkpt lat="44.38348" lon="6.39386">
        <ele>2033</ele>
        <time>2021-09-01T10:27:13.000Z</time>
      </trkpt>
      <trkpt lat="44.38348" lon="6.39386">
        <ele>2032</ele>
        <time>2021-09-01T10:27:14.000Z</time>
      </trkpt>
      <trkpt lat="44.38348" lon="6.39385">
        <ele>2033</ele>
        <time>2021-09-01T10:27:15.000Z</time>
      </trkpt>
      <trkpt lat="44.38348" lon="6.39385">
        <ele>2033</ele>
        <time>2021-09-01T10:27:16.000Z</time>
      </trkpt>
      <trkpt lat="44.38349" lon="6.39385">
        <ele>2033</ele>
        <time>2021-09-01T10:27:17.000Z</time>
      </trkpt>
      <trkpt lat="44.38349" lon="6.39385">
        <ele>2033</ele>
        <time>2021-09-01T10:27:18.000Z</time>
      </trkpt>
      <trkpt lat="44.38349" lon="6.39384">
        <ele>2033</ele>
        <time>2021-09-01T10:27:19.000Z</time>
      </trkpt>
      <trkpt lat="44.38349" lon="6.39384">
        <ele>2033</ele>
        <time>2021-09-01T10:27:20.000Z</time>
      </trkpt>
      <trkpt lat="44.3835" lon="6.39383">
        <ele>2034</ele>
        <time>2021-09-01T10:27:21.000Z</time>
      </trkpt>
      <trkpt lat="44.38351" lon="6.39382">
        <ele>2035</ele>
        <time>2021-09-01T10:27:22.000Z</time>
      </trkpt>
      <trkpt lat="44.38353" lon="6.3938">
        <ele>2035</ele>
        <time>2021-09-01T10:27:23.000Z</time>
      </trkpt>
      <trkpt lat="44.38354" lon="6.39379">
        <ele>2036</ele>
        <time>2021-09-01T10:27:24.000Z</time>
      </trkpt>
      <trkpt lat="44.38355" lon="6.39378">
        <ele>2037</ele>
        <time>2021-09-01T10:27:25.000Z</time>
      </trkpt>
      <trkpt lat="44.38357" lon="6.39378">
        <ele>2037</ele>
        <time>2021-09-01T10:27:26.000Z</time>
      </trkpt>
      <trkpt lat="44.38358" lon="6.39377">
        <ele>2037</ele>
        <time>2021-09-01T10:27:27.000Z</time>
      </trkpt>
      <trkpt lat="44.3836" lon="6.39377">
        <ele>2038</ele>
        <time>2021-09-01T10:27:28.000Z</time>
      </trkpt>
      <trkpt lat="44.38361" lon="6.39376">
        <ele>2038</ele>
        <time>2021-09-01T10:27:29.000Z</time>
      </trkpt>
      <trkpt lat="44.38363" lon="6.39377">
        <ele>2038</ele>
        <time>2021-09-01T10:27:30.000Z</time>
      </trkpt>
      <trkpt lat="44.38364" lon="6.39377">
        <ele>2038</ele>
        <time>2021-09-01T10:27:31.000Z</time>
      </trkpt>
      <trkpt lat="44.38367" lon="6.39378">
        <ele>2038</ele>
        <time>2021-09-01T10:27:32.000Z</time>
      </trkpt>
      <trkpt lat="44.38368" lon="6.39378">
        <ele>2037</ele>
        <time>2021-09-01T10:27:33.000Z</time>
      </trkpt>
      <trkpt lat="44.3837" lon="6.39379">
        <ele>2037</ele>
        <time>2021-09-01T10:27:34.000Z</time>
      </trkpt>
      <trkpt lat="44.38371" lon="6.39379">
        <ele>2037</ele>
        <time>2021-09-01T10:27:35.000Z</time>
      </trkpt>
      <trkpt lat="44.38373" lon="6.39379">
        <ele>2038</ele>
        <time>2021-09-01T10:27:36.000Z</time>
      </trkpt>
      <trkpt lat="44.38375" lon="6.39379">
        <ele>2038</ele>
        <time>2021-09-01T10:27:37.000Z</time>
      </trkpt>
      <trkpt lat="44.38377" lon="6.39379">
        <ele>2039</ele>
        <time>2021-09-01T10:27:38.000Z</time>
      </trkpt>
      <trkpt lat="44.3838" lon="6.39379">
        <ele>2039</ele>
        <time>2021-09-01T10:27:39.000Z</time>
      </trkpt>
      <trkpt lat="44.38382" lon="6.39379">
        <ele>2039</ele>
        <time>2021-09-01T10:27:40.000Z</time>
      </trkpt>
      <trkpt lat="44.38384" lon="6.39379">
        <ele>2040</ele>
        <time>2021-09-01T10:27:41.000Z</time>
      </trkpt>
      <trkpt lat="44.38386" lon="6.39379">
        <ele>2040</ele>
        <time>2021-09-01T10:27:42.000Z</time>
      </trkpt>
      <trkpt lat="44.38387" lon="6.39379">
        <ele>2041</ele>
        <time>2021-09-01T10:27:43.000Z</time>
      </trkpt>
      <trkpt lat="44.3839" lon="6.39379">
        <ele>2041</ele>
        <time>2021-09-01T10:27:44.000Z</time>
      </trkpt>
      <trkpt lat="44.38392" lon="6.3938">
        <ele>2040</ele>
        <time>2021-09-01T10:27:45.000Z</time>
      </trkpt>
      <trkpt lat="44.38394" lon="6.3938">
        <ele>2040</ele>
        <time>2021-09-01T10:27:46.000Z</time>
      </trkpt>
      <trkpt lat="44.38396" lon="6.3938">
        <ele>2040</ele>
        <time>2021-09-01T10:27:47.000Z</time>
      </trkpt>
      <trkpt lat="44.38398" lon="6.3938">
        <ele>2041</ele>
        <time>2021-09-01T10:27:48.000Z</time>
      </trkpt>
      <trkpt lat="44.384" lon="6.3938">
        <ele>2041</ele>
        <time>2021-09-01T10:27:49.000Z</time>
      </trkpt>
      <trkpt lat="44.38402" lon="6.3938">
        <ele>2041</ele>
        <time>2021-09-01T10:27:50.000Z</time>
      </trkpt>
      <trkpt lat="44.38405" lon="6.39381">
        <ele>2041</ele>
        <time>2021-09-01T10:27:51.000Z</time>
      </trkpt>
      <trkpt lat="44.38408" lon="6.3938">
        <ele>2040</ele>
        <time>2021-09-01T10:27:52.000Z</time>
      </trkpt>
      <trkpt lat="44.3841" lon="6.39379">
        <ele>2040</ele>
        <time>2021-09-01T10:27:53.000Z</time>
      </trkpt>
      <trkpt lat="44.38412" lon="6.39379">
        <ele>2040</ele>
        <time>2021-09-01T10:27:54.000Z</time>
      </trkpt>
      <trkpt lat="44.38415" lon="6.39378">
        <ele>2040</ele>
        <time>2021-09-01T10:27:55.000Z</time>
      </trkpt>
      <trkpt lat="44.38417" lon="6.39379">
        <ele>2040</ele>
        <time>2021-09-01T10:27:56.000Z</time>
      </trkpt>
      <trkpt lat="44.38419" lon="6.39379">
        <ele>2041</ele>
        <time>2021-09-01T10:27:57.000Z</time>
      </trkpt>
      <trkpt lat="44.38421" lon="6.39379">
        <ele>2041</ele>
        <time>2021-09-01T10:27:58.000Z</time>
      </trkpt>
      <trkpt lat="44.38423" lon="6.39381">
        <ele>2041</ele>
        <time>2021-09-01T10:27:59.000Z</time>
      </trkpt>
      <trkpt lat="44.38424" lon="6.39381">
        <ele>2041</ele>
        <time>2021-09-01T10:28:00.000Z</time>
      </trkpt>
      <trkpt lat="44.38425" lon="6.39381">
        <ele>2041</ele>
        <time>2021-09-01T10:28:01.000Z</time>
      </trkpt>
      <trkpt lat="44.38426" lon="6.39381">
        <ele>2041</ele>
        <time>2021-09-01T10:28:02.000Z</time>
      </trkpt>
      <trkpt lat="44.38428" lon="6.39381">
        <ele>2041</ele>
        <time>2021-09-01T10:28:03.000Z</time>
      </trkpt>
      <trkpt lat="44.38429" lon="6.39381">
        <ele>2041</ele>
        <time>2021-09-01T10:28:04.000Z</time>
      </trkpt>
      <trkpt lat="44.3843" lon="6.39381">
        <ele>2042</ele>
        <time>2021-09-01T10:28:05.000Z</time>
      </trkpt>
      <trkpt lat="44.38431" lon="6.39381">
        <ele>2041</ele>
        <time>2021-09-01T10:28:06.000Z</time>
      </trkpt>
      <trkpt lat="44.38431" lon="6.39381">
        <ele>2041</ele>
        <time>2021-09-01T10:28:07.000Z</time>
      </trkpt>
      <trkpt lat="44.38432" lon="6.39381">
        <ele>2041</ele>
        <time>2021-09-01T10:28:08.000Z</time>
      </trkpt>
      <trkpt lat="44.38433" lon="6.39381">
        <ele>2041</ele>
        <time>2021-09-01T10:28:09.000Z</time>
      </trkpt>
      <trkpt lat="44.38435" lon="6.39381">
        <ele>2042</ele>
        <time>2021-09-01T10:28:10.000Z</time>
      </trkpt>
      <trkpt lat="44.38437" lon="6.39381">
        <ele>2042</ele>
        <time>2021-09-01T10:28:11.000Z</time>
      </trkpt>
      <trkpt lat="44.38439" lon="6.39381">
        <ele>2042</ele>
        <time>2021-09-01T10:28:12.000Z</time>
      </trkpt>
      <trkpt lat="44.3844" lon="6.39382">
        <ele>2042</ele>
        <time>2021-09-01T10:28:13.000Z</time>
      </trkpt>
      <trkpt lat="44.38441" lon="6.39382">
        <ele>2043</ele>
        <time>2021-09-01T10:28:14.000Z</time>
      </trkpt>
      <trkpt lat="44.38443" lon="6.39383">
        <ele>2043</ele>
        <time>2021-09-01T10:28:15.000Z</time>
      </trkpt>
      <trkpt lat="44.38444" lon="6.39384">
        <ele>2043</ele>
        <time>2021-09-01T10:28:16.000Z</time>
      </trkpt>
      <trkpt lat="44.38444" lon="6.39385">
        <ele>2044</ele>
        <time>2021-09-01T10:28:17.000Z</time>
      </trkpt>
      <trkpt lat="44.38445" lon="6.39385">
        <ele>2044</ele>
        <time>2021-09-01T10:28:18.000Z</time>
      </trkpt>
      <trkpt lat="44.38446" lon="6.39386">
        <ele>2044</ele>
        <time>2021-09-01T10:28:19.000Z</time>
      </trkpt>
      <trkpt lat="44.38448" lon="6.39388">
        <ele>2044</ele>
        <time>2021-09-01T10:28:20.000Z</time>
      </trkpt>
      <trkpt lat="44.38449" lon="6.39388">
        <ele>2044</ele>
        <time>2021-09-01T10:28:21.000Z</time>
      </trkpt>
      <trkpt lat="44.38451" lon="6.39389">
        <ele>2044</ele>
        <time>2021-09-01T10:28:22.000Z</time>
      </trkpt>
      <trkpt lat="44.38452" lon="6.39389">
        <ele>2045</ele>
        <time>2021-09-01T10:28:23.000Z</time>
      </trkpt>
      <trkpt lat="44.38454" lon="6.39389">
        <ele>2046</ele>
        <time>2021-09-01T10:28:24.000Z</time>
      </trkpt>
      <trkpt lat="44.38456" lon="6.39388">
        <ele>2046</ele>
        <time>2021-09-01T10:28:25.000Z</time>
      </trkpt>
      <trkpt lat="44.38458" lon="6.39388">
        <ele>2047</ele>
        <time>2021-09-01T10:28:26.000Z</time>
      </trkpt>
      <trkpt lat="44.3846" lon="6.39388">
        <ele>2047</ele>
        <time>2021-09-01T10:28:27.000Z</time>
      </trkpt>
      <trkpt lat="44.38463" lon="6.39389">
        <ele>2048</ele>
        <time>2021-09-01T10:28:28.000Z</time>
      </trkpt>
      <trkpt lat="44.38465" lon="6.39388">
        <ele>2048</ele>
        <time>2021-09-01T10:28:29.000Z</time>
      </trkpt>
      <trkpt lat="44.38467" lon="6.39388">
        <ele>2049</ele>
        <time>2021-09-01T10:28:30.000Z</time>
      </trkpt>
      <trkpt lat="44.38469" lon="6.39388">
        <ele>2048</ele>
        <time>2021-09-01T10:28:31.000Z</time>
      </trkpt>
      <trkpt lat="44.38472" lon="6.39388">
        <ele>2048</ele>
        <time>2021-09-01T10:28:32.000Z</time>
      </trkpt>
      <trkpt lat="44.38474" lon="6.39388">
        <ele>2048</ele>
        <time>2021-09-01T10:28:33.000Z</time>
      </trkpt>
      <trkpt lat="44.38476" lon="6.39389">
        <ele>2048</ele>
        <time>2021-09-01T10:28:34.000Z</time>
      </trkpt>
      <trkpt lat="44.38478" lon="6.39389">
        <ele>2048</ele>
        <time>2021-09-01T10:28:35.000Z</time>
      </trkpt>
      <trkpt lat="44.3848" lon="6.39389">
        <ele>2049</ele>
        <time>2021-09-01T10:28:36.000Z</time>
      </trkpt>
      <trkpt lat="44.38482" lon="6.39389">
        <ele>2049</ele>
        <time>2021-09-01T10:28:37.000Z</time>
      </trkpt>
      <trkpt lat="44.38483" lon="6.39389">
        <ele>2049</ele>
        <time>2021-09-01T10:28:38.000Z</time>
      </trkpt>
      <trkpt lat="44.38485" lon="6.39389">
        <ele>2048</ele>
        <time>2021-09-01T10:28:39.000Z</time>
      </trkpt>
      <trkpt lat="44.38487" lon="6.39389">
        <ele>2048</ele>
        <time>2021-09-01T10:28:40.000Z</time>
      </trkpt>
      <trkpt lat="44.38488" lon="6.39389">
        <ele>2049</ele>
        <time>2021-09-01T10:28:41.000Z</time>
      </trkpt>
      <trkpt lat="44.3849" lon="6.39389">
        <ele>2049</ele>
        <time>2021-09-01T10:28:42.000Z</time>
      </trkpt>
      <trkpt lat="44.38492" lon="6.39388">
        <ele>2049</ele>
        <time>2021-09-01T10:28:43.000Z</time>
      </trkpt>
      <trkpt lat="44.38493" lon="6.39388">
        <ele>2049</ele>
        <time>2021-09-01T10:28:44.000Z</time>
      </trkpt>
      <trkpt lat="44.38495" lon="6.39387">
        <ele>2050</ele>
        <time>2021-09-01T10:28:45.000Z</time>
      </trkpt>
      <trkpt lat="44.38497" lon="6.39386">
        <ele>2051</ele>
        <time>2021-09-01T10:28:46.000Z</time>
      </trkpt>
      <trkpt lat="44.38499" lon="6.39385">
        <ele>2052</ele>
        <time>2021-09-01T10:28:47.000Z</time>
      </trkpt>
      <trkpt lat="44.38501" lon="6.39384">
        <ele>2053</ele>
        <time>2021-09-01T10:28:48.000Z</time>
      </trkpt>
      <trkpt lat="44.38503" lon="6.39384">
        <ele>2053</ele>
        <time>2021-09-01T10:28:49.000Z</time>
      </trkpt>
      <trkpt lat="44.38504" lon="6.39383">
        <ele>2054</ele>
        <time>2021-09-01T10:28:50.000Z</time>
      </trkpt>
      <trkpt lat="44.38505" lon="6.39382">
        <ele>2054</ele>
        <time>2021-09-01T10:28:51.000Z</time>
      </trkpt>
      <trkpt lat="44.38507" lon="6.39382">
        <ele>2054</ele>
        <time>2021-09-01T10:28:52.000Z</time>
      </trkpt>
      <trkpt lat="44.38509" lon="6.39382">
        <ele>2054</ele>
        <time>2021-09-01T10:28:53.000Z</time>
      </trkpt>
      <trkpt lat="44.38511" lon="6.39382">
        <ele>2053</ele>
        <time>2021-09-01T10:28:54.000Z</time>
      </trkpt>
      <trkpt lat="44.38514" lon="6.39382">
        <ele>2053</ele>
        <time>2021-09-01T10:28:55.000Z</time>
      </trkpt>
      <trkpt lat="44.38516" lon="6.39382">
        <ele>2053</ele>
        <time>2021-09-01T10:28:56.000Z</time>
      </trkpt>
      <trkpt lat="44.38518" lon="6.39381">
        <ele>2053</ele>
        <time>2021-09-01T10:28:57.000Z</time>
      </trkpt>
      <trkpt lat="44.38521" lon="6.3938">
        <ele>2053</ele>
        <time>2021-09-01T10:28:58.000Z</time>
      </trkpt>
      <trkpt lat="44.38523" lon="6.3938">
        <ele>2054</ele>
        <time>2021-09-01T10:28:59.000Z</time>
      </trkpt>
      <trkpt lat="44.38525" lon="6.39379">
        <ele>2054</ele>
        <time>2021-09-01T10:29:00.000Z</time>
      </trkpt>
      <trkpt lat="44.38527" lon="6.39378">
        <ele>2054</ele>
        <time>2021-09-01T10:29:01.000Z</time>
      </trkpt>
      <trkpt lat="44.38529" lon="6.39378">
        <ele>2054</ele>
        <time>2021-09-01T10:29:02.000Z</time>
      </trkpt>
      <trkpt lat="44.38531" lon="6.39378">
        <ele>2054</ele>
        <time>2021-09-01T10:29:03.000Z</time>
      </trkpt>
      <trkpt lat="44.38533" lon="6.39377">
        <ele>2055</ele>
        <time>2021-09-01T10:29:04.000Z</time>
      </trkpt>
      <trkpt lat="44.38535" lon="6.39377">
        <ele>2055</ele>
        <time>2021-09-01T10:29:05.000Z</time>
      </trkpt>
      <trkpt lat="44.38537" lon="6.39377">
        <ele>2055</ele>
        <time>2021-09-01T10:29:06.000Z</time>
      </trkpt>
      <trkpt lat="44.38539" lon="6.39377">
        <ele>2056</ele>
        <time>2021-09-01T10:29:07.000Z</time>
      </trkpt>
      <trkpt lat="44.38542" lon="6.39377">
        <ele>2056</ele>
        <time>2021-09-01T10:29:08.000Z</time>
      </trkpt>
      <trkpt lat="44.38544" lon="6.39376">
        <ele>2056</ele>
        <time>2021-09-01T10:29:09.000Z</time>
      </trkpt>
      <trkpt lat="44.38546" lon="6.39374">
        <ele>2057</ele>
        <time>2021-09-01T10:29:10.000Z</time>
      </trkpt>
      <trkpt lat="44.38548" lon="6.39373">
        <ele>2058</ele>
        <time>2021-09-01T10:29:11.000Z</time>
      </trkpt>
      <trkpt lat="44.38551" lon="6.39373">
        <ele>2058</ele>
        <time>2021-09-01T10:29:12.000Z</time>
      </trkpt>
      <trkpt lat="44.38553" lon="6.39372">
        <ele>2059</ele>
        <time>2021-09-01T10:29:13.000Z</time>
      </trkpt>
      <trkpt lat="44.38555" lon="6.39372">
        <ele>2059</ele>
        <time>2021-09-01T10:29:14.000Z</time>
      </trkpt>
      <trkpt lat="44.38558" lon="6.39371">
        <ele>2060</ele>
        <time>2021-09-01T10:29:15.000Z</time>
      </trkpt>
      <trkpt lat="44.3856" lon="6.3937">
        <ele>2060</ele>
        <time>2021-09-01T10:29:16.000Z</time>
      </trkpt>
      <trkpt lat="44.38562" lon="6.3937">
        <ele>2059</ele>
        <time>2021-09-01T10:29:17.000Z</time>
      </trkpt>
      <trkpt lat="44.38564" lon="6.3937">
        <ele>2058</ele>
        <time>2021-09-01T10:29:18.000Z</time>
      </trkpt>
      <trkpt lat="44.38567" lon="6.39369">
        <ele>2058</ele>
        <time>2021-09-01T10:29:19.000Z</time>
      </trkpt>
      <trkpt lat="44.38569" lon="6.39367">
        <ele>2059</ele>
        <time>2021-09-01T10:29:20.000Z</time>
      </trkpt>
      <trkpt lat="44.3857" lon="6.39366">
        <ele>2060</ele>
        <time>2021-09-01T10:29:21.000Z</time>
      </trkpt>
      <trkpt lat="44.38573" lon="6.39365">
        <ele>2061</ele>
        <time>2021-09-01T10:29:22.000Z</time>
      </trkpt>
      <trkpt lat="44.38575" lon="6.39365">
        <ele>2061</ele>
        <time>2021-09-01T10:29:23.000Z</time>
      </trkpt>
      <trkpt lat="44.38577" lon="6.39365">
        <ele>2062</ele>
        <time>2021-09-01T10:29:24.000Z</time>
      </trkpt>
      <trkpt lat="44.38579" lon="6.39364">
        <ele>2062</ele>
        <time>2021-09-01T10:29:25.000Z</time>
      </trkpt>
      <trkpt lat="44.38581" lon="6.39363">
        <ele>2062</ele>
        <time>2021-09-01T10:29:26.000Z</time>
      </trkpt>
      <trkpt lat="44.38583" lon="6.39363">
        <ele>2063</ele>
        <time>2021-09-01T10:29:27.000Z</time>
      </trkpt>
      <trkpt lat="44.38585" lon="6.39363">
        <ele>2063</ele>
        <time>2021-09-01T10:29:28.000Z</time>
      </trkpt>
      <trkpt lat="44.38587" lon="6.39363">
        <ele>2063</ele>
        <time>2021-09-01T10:29:29.000Z</time>
      </trkpt>
      <trkpt lat="44.38589" lon="6.39362">
        <ele>2064</ele>
        <time>2021-09-01T10:29:30.000Z</time>
      </trkpt>
      <trkpt lat="44.38591" lon="6.39362">
        <ele>2064</ele>
        <time>2021-09-01T10:29:31.000Z</time>
      </trkpt>
      <trkpt lat="44.38593" lon="6.39362">
        <ele>2065</ele>
        <time>2021-09-01T10:29:32.000Z</time>
      </trkpt>
      <trkpt lat="44.38595" lon="6.39361">
        <ele>2066</ele>
        <time>2021-09-01T10:29:33.000Z</time>
      </trkpt>
      <trkpt lat="44.38598" lon="6.3936">
        <ele>2067</ele>
        <time>2021-09-01T10:29:34.000Z</time>
      </trkpt>
      <trkpt lat="44.38599" lon="6.3936">
        <ele>2067</ele>
        <time>2021-09-01T10:29:35.000Z</time>
      </trkpt>
      <trkpt lat="44.38602" lon="6.39361">
        <ele>2068</ele>
        <time>2021-09-01T10:29:36.000Z</time>
      </trkpt>
      <trkpt lat="44.38604" lon="6.39361">
        <ele>2068</ele>
        <time>2021-09-01T10:29:37.000Z</time>
      </trkpt>
      <trkpt lat="44.38606" lon="6.39361">
        <ele>2069</ele>
        <time>2021-09-01T10:29:38.000Z</time>
      </trkpt>
      <trkpt lat="44.38608" lon="6.39362">
        <ele>2069</ele>
        <time>2021-09-01T10:29:39.000Z</time>
      </trkpt>
      <trkpt lat="44.3861" lon="6.39361">
        <ele>2070</ele>
        <time>2021-09-01T10:29:40.000Z</time>
      </trkpt>
      <trkpt lat="44.38612" lon="6.39361">
        <ele>2070</ele>
        <time>2021-09-01T10:29:41.000Z</time>
      </trkpt>
      <trkpt lat="44.38613" lon="6.39361">
        <ele>2071</ele>
        <time>2021-09-01T10:29:42.000Z</time>
      </trkpt>
      <trkpt lat="44.38616" lon="6.39362">
        <ele>2071</ele>
        <time>2021-09-01T10:29:43.000Z</time>
      </trkpt>
      <trkpt lat="44.38619" lon="6.39364">
        <ele>2071</ele>
        <time>2021-09-01T10:29:44.000Z</time>
      </trkpt>
      <trkpt lat="44.38621" lon="6.39366">
        <ele>2072</ele>
        <time>2021-09-01T10:29:45.000Z</time>
      </trkpt>
      <trkpt lat="44.38624" lon="6.39369">
        <ele>2071</ele>
        <time>2021-09-01T10:29:46.000Z</time>
      </trkpt>
      <trkpt lat="44.38626" lon="6.39372">
        <ele>2071</ele>
        <time>2021-09-01T10:29:47.000Z</time>
      </trkpt>
      <trkpt lat="44.38629" lon="6.39374">
        <ele>2071</ele>
        <time>2021-09-01T10:29:48.000Z</time>
      </trkpt>
      <trkpt lat="44.38631" lon="6.39377">
        <ele>2072</ele>
        <time>2021-09-01T10:29:49.000Z</time>
      </trkpt>
      <trkpt lat="44.38633" lon="6.39378">
        <ele>2073</ele>
        <time>2021-09-01T10:29:50.000Z</time>
      </trkpt>
      <trkpt lat="44.38635" lon="6.39381">
        <ele>2074</ele>
        <time>2021-09-01T10:29:51.000Z</time>
      </trkpt>
      <trkpt lat="44.38637" lon="6.39383">
        <ele>2073</ele>
        <time>2021-09-01T10:29:52.000Z</time>
      </trkpt>
      <trkpt lat="44.38639" lon="6.39384">
        <ele>2074</ele>
        <time>2021-09-01T10:29:53.000Z</time>
      </trkpt>
      <trkpt lat="44.38641" lon="6.39385">
        <ele>2075</ele>
        <time>2021-09-01T10:29:54.000Z</time>
      </trkpt>
      <trkpt lat="44.38642" lon="6.39386">
        <ele>2075</ele>
        <time>2021-09-01T10:29:55.000Z</time>
      </trkpt>
      <trkpt lat="44.38645" lon="6.39388">
        <ele>2074</ele>
        <time>2021-09-01T10:29:56.000Z</time>
      </trkpt>
      <trkpt lat="44.38648" lon="6.39389">
        <ele>2075</ele>
        <time>2021-09-01T10:29:57.000Z</time>
      </trkpt>
      <trkpt lat="44.38651" lon="6.3939">
        <ele>2075</ele>
        <time>2021-09-01T10:29:58.000Z</time>
      </trkpt>
      <trkpt lat="44.38653" lon="6.3939">
        <ele>2075</ele>
        <time>2021-09-01T10:29:59.000Z</time>
      </trkpt>
      <trkpt lat="44.38655" lon="6.3939">
        <ele>2075</ele>
        <time>2021-09-01T10:30:00.000Z</time>
      </trkpt>
      <trkpt lat="44.38657" lon="6.39389">
        <ele>2074</ele>
        <time>2021-09-01T10:30:01.000Z</time>
      </trkpt>
      <trkpt lat="44.38659" lon="6.39388">
        <ele>2073</ele>
        <time>2021-09-01T10:30:02.000Z</time>
      </trkpt>
      <trkpt lat="44.3866" lon="6.39388">
        <ele>2073</ele>
        <time>2021-09-01T10:30:03.000Z</time>
      </trkpt>
      <trkpt lat="44.38663" lon="6.39388">
        <ele>2074</ele>
        <time>2021-09-01T10:30:04.000Z</time>
      </trkpt>
      <trkpt lat="44.38665" lon="6.39387">
        <ele>2073</ele>
        <time>2021-09-01T10:30:05.000Z</time>
      </trkpt>
      <trkpt lat="44.38668" lon="6.39386">
        <ele>2073</ele>
        <time>2021-09-01T10:30:06.000Z</time>
      </trkpt>
      <trkpt lat="44.38671" lon="6.39387">
        <ele>2073</ele>
        <time>2021-09-01T10:30:07.000Z</time>
      </trkpt>
      <trkpt lat="44.38673" lon="6.39389">
        <ele>2072</ele>
        <time>2021-09-01T10:30:08.000Z</time>
      </trkpt>
      <trkpt lat="44.38676" lon="6.39391">
        <ele>2072</ele>
        <time>2021-09-01T10:30:09.000Z</time>
      </trkpt>
      <trkpt lat="44.38678" lon="6.39392">
        <ele>2073</ele>
        <time>2021-09-01T10:30:10.000Z</time>
      </trkpt>
      <trkpt lat="44.38679" lon="6.39394">
        <ele>2073</ele>
        <time>2021-09-01T10:30:11.000Z</time>
      </trkpt>
      <trkpt lat="44.38681" lon="6.39395">
        <ele>2073</ele>
        <time>2021-09-01T10:30:12.000Z</time>
      </trkpt>
      <trkpt lat="44.38683" lon="6.39396">
        <ele>2073</ele>
        <time>2021-09-01T10:30:13.000Z</time>
      </trkpt>
      <trkpt lat="44.38686" lon="6.39397">
        <ele>2073</ele>
        <time>2021-09-01T10:30:14.000Z</time>
      </trkpt>
      <trkpt lat="44.38688" lon="6.39398">
        <ele>2073</ele>
        <time>2021-09-01T10:30:15.000Z</time>
      </trkpt>
      <trkpt lat="44.38691" lon="6.39398">
        <ele>2073</ele>
        <time>2021-09-01T10:30:16.000Z</time>
      </trkpt>
      <trkpt lat="44.38693" lon="6.39398">
        <ele>2074</ele>
        <time>2021-09-01T10:30:17.000Z</time>
      </trkpt>
      <trkpt lat="44.38695" lon="6.39399">
        <ele>2074</ele>
        <time>2021-09-01T10:30:18.000Z</time>
      </trkpt>
      <trkpt lat="44.38698" lon="6.39399">
        <ele>2074</ele>
        <time>2021-09-01T10:30:19.000Z</time>
      </trkpt>
      <trkpt lat="44.387" lon="6.394">
        <ele>2074</ele>
        <time>2021-09-01T10:30:20.000Z</time>
      </trkpt>
      <trkpt lat="44.38703" lon="6.394">
        <ele>2074</ele>
        <time>2021-09-01T10:30:21.000Z</time>
      </trkpt>
      <trkpt lat="44.38705" lon="6.39401">
        <ele>2074</ele>
        <time>2021-09-01T10:30:22.000Z</time>
      </trkpt>
      <trkpt lat="44.38708" lon="6.39401">
        <ele>2074</ele>
        <time>2021-09-01T10:30:23.000Z</time>
      </trkpt>
      <trkpt lat="44.3871" lon="6.39401">
        <ele>2074</ele>
        <time>2021-09-01T10:30:24.000Z</time>
      </trkpt>
      <trkpt lat="44.38712" lon="6.39401">
        <ele>2074</ele>
        <time>2021-09-01T10:30:25.000Z</time>
      </trkpt>
      <trkpt lat="44.38715" lon="6.39402">
        <ele>2075</ele>
        <time>2021-09-01T10:30:26.000Z</time>
      </trkpt>
      <trkpt lat="44.38717" lon="6.39401">
        <ele>2075</ele>
        <time>2021-09-01T10:30:27.000Z</time>
      </trkpt>
      <trkpt lat="44.3872" lon="6.39401">
        <ele>2074</ele>
        <time>2021-09-01T10:30:28.000Z</time>
      </trkpt>
      <trkpt lat="44.38722" lon="6.39399">
        <ele>2074</ele>
        <time>2021-09-01T10:30:29.000Z</time>
      </trkpt>
      <trkpt lat="44.38723" lon="6.39394">
        <ele>2076</ele>
        <time>2021-09-01T10:30:30.000Z</time>
      </trkpt>
      <trkpt lat="44.38725" lon="6.39391">
        <ele>2075</ele>
        <time>2021-09-01T10:30:31.000Z</time>
      </trkpt>
      <trkpt lat="44.38726" lon="6.39389">
        <ele>2076</ele>
        <time>2021-09-01T10:30:32.000Z</time>
      </trkpt>
      <trkpt lat="44.38728" lon="6.39386">
        <ele>2076</ele>
        <time>2021-09-01T10:30:33.000Z</time>
      </trkpt>
      <trkpt lat="44.38729" lon="6.39383">
        <ele>2075</ele>
        <time>2021-09-01T10:30:34.000Z</time>
      </trkpt>
      <trkpt lat="44.3873" lon="6.39379">
        <ele>2075</ele>
        <time>2021-09-01T10:30:35.000Z</time>
      </trkpt>
      <trkpt lat="44.38731" lon="6.39375">
        <ele>2075</ele>
        <time>2021-09-01T10:30:36.000Z</time>
      </trkpt>
      <trkpt lat="44.38732" lon="6.3937">
        <ele>2076</ele>
        <time>2021-09-01T10:30:37.000Z</time>
      </trkpt>
      <trkpt lat="44.38733" lon="6.39367">
        <ele>2077</ele>
        <time>2021-09-01T10:30:38.000Z</time>
      </trkpt>
      <trkpt lat="44.38733" lon="6.39364">
        <ele>2076</ele>
        <time>2021-09-01T10:30:39.000Z</time>
      </trkpt>
      <trkpt lat="44.38734" lon="6.39361">
        <ele>2076</ele>
        <time>2021-09-01T10:30:40.000Z</time>
      </trkpt>
      <trkpt lat="44.38734" lon="6.39357">
        <ele>2075</ele>
        <time>2021-09-01T10:30:41.000Z</time>
      </trkpt>
      <trkpt lat="44.38735" lon="6.39353">
        <ele>2075</ele>
        <time>2021-09-01T10:30:42.000Z</time>
      </trkpt>
      <trkpt lat="44.38735" lon="6.3935">
        <ele>2075</ele>
        <time>2021-09-01T10:30:43.000Z</time>
      </trkpt>
      <trkpt lat="44.38736" lon="6.39345">
        <ele>2076</ele>
        <time>2021-09-01T10:30:44.000Z</time>
      </trkpt>
      <trkpt lat="44.38737" lon="6.39343">
        <ele>2075</ele>
        <time>2021-09-01T10:30:45.000Z</time>
      </trkpt>
      <trkpt lat="44.38739" lon="6.39341">
        <ele>2075</ele>
        <time>2021-09-01T10:30:46.000Z</time>
      </trkpt>
      <trkpt lat="44.38741" lon="6.39338">
        <ele>2075</ele>
        <time>2021-09-01T10:30:47.000Z</time>
      </trkpt>
      <trkpt lat="44.38742" lon="6.39336">
        <ele>2075</ele>
        <time>2021-09-01T10:30:48.000Z</time>
      </trkpt>
      <trkpt lat="44.38744" lon="6.39334">
        <ele>2075</ele>
        <time>2021-09-01T10:30:49.000Z</time>
      </trkpt>
      <trkpt lat="44.38745" lon="6.39332">
        <ele>2075</ele>
        <time>2021-09-01T10:30:50.000Z</time>
      </trkpt>
      <trkpt lat="44.38747" lon="6.39329">
        <ele>2075</ele>
        <time>2021-09-01T10:30:51.000Z</time>
      </trkpt>
      <trkpt lat="44.38749" lon="6.39327">
        <ele>2075</ele>
        <time>2021-09-01T10:30:52.000Z</time>
      </trkpt>
      <trkpt lat="44.38751" lon="6.39325">
        <ele>2076</ele>
        <time>2021-09-01T10:30:53.000Z</time>
      </trkpt>
      <trkpt lat="44.38753" lon="6.39324">
        <ele>2077</ele>
        <time>2021-09-01T10:30:54.000Z</time>
      </trkpt>
      <trkpt lat="44.38755" lon="6.39322">
        <ele>2077</ele>
        <time>2021-09-01T10:30:55.000Z</time>
      </trkpt>
      <trkpt lat="44.38757" lon="6.3932">
        <ele>2078</ele>
        <time>2021-09-01T10:30:56.000Z</time>
      </trkpt>
      <trkpt lat="44.38759" lon="6.39318">
        <ele>2078</ele>
        <time>2021-09-01T10:30:57.000Z</time>
      </trkpt>
      <trkpt lat="44.38762" lon="6.39317">
        <ele>2078</ele>
        <time>2021-09-01T10:30:58.000Z</time>
      </trkpt>
      <trkpt lat="44.38764" lon="6.39315">
        <ele>2079</ele>
        <time>2021-09-01T10:30:59.000Z</time>
      </trkpt>
      <trkpt lat="44.38766" lon="6.39313">
        <ele>2078</ele>
        <time>2021-09-01T10:31:00.000Z</time>
      </trkpt>
      <trkpt lat="44.38768" lon="6.39311">
        <ele>2079</ele>
        <time>2021-09-01T10:31:01.000Z</time>
      </trkpt>
      <trkpt lat="44.38769" lon="6.39308">
        <ele>2079</ele>
        <time>2021-09-01T10:31:02.000Z</time>
      </trkpt>
      <trkpt lat="44.3877" lon="6.39303">
        <ele>2079</ele>
        <time>2021-09-01T10:31:03.000Z</time>
      </trkpt>
      <trkpt lat="44.38771" lon="6.393">
        <ele>2079</ele>
        <time>2021-09-01T10:31:04.000Z</time>
      </trkpt>
      <trkpt lat="44.38772" lon="6.39297">
        <ele>2078</ele>
        <time>2021-09-01T10:31:05.000Z</time>
      </trkpt>
      <trkpt lat="44.38772" lon="6.39294">
        <ele>2078</ele>
        <time>2021-09-01T10:31:06.000Z</time>
      </trkpt>
      <trkpt lat="44.38774" lon="6.39291">
        <ele>2078</ele>
        <time>2021-09-01T10:31:07.000Z</time>
      </trkpt>
      <trkpt lat="44.38775" lon="6.39287">
        <ele>2079</ele>
        <time>2021-09-01T10:31:08.000Z</time>
      </trkpt>
      <trkpt lat="44.38776" lon="6.39284">
        <ele>2079</ele>
        <time>2021-09-01T10:31:09.000Z</time>
      </trkpt>
      <trkpt lat="44.38777" lon="6.39281">
        <ele>2079</ele>
        <time>2021-09-01T10:31:10.000Z</time>
      </trkpt>
      <trkpt lat="44.38779" lon="6.39279">
        <ele>2078</ele>
        <time>2021-09-01T10:31:11.000Z</time>
      </trkpt>
      <trkpt lat="44.38781" lon="6.39279">
        <ele>2078</ele>
        <time>2021-09-01T10:31:12.000Z</time>
      </trkpt>
      <trkpt lat="44.38783" lon="6.39277">
        <ele>2078</ele>
        <time>2021-09-01T10:31:13.000Z</time>
      </trkpt>
      <trkpt lat="44.38784" lon="6.39274">
        <ele>2077</ele>
        <time>2021-09-01T10:31:14.000Z</time>
      </trkpt>
      <trkpt lat="44.38786" lon="6.39272">
        <ele>2077</ele>
        <time>2021-09-01T10:31:15.000Z</time>
      </trkpt>
      <trkpt lat="44.38787" lon="6.3927">
        <ele>2077</ele>
        <time>2021-09-01T10:31:16.000Z</time>
      </trkpt>
      <trkpt lat="44.38789" lon="6.39267">
        <ele>2077</ele>
        <time>2021-09-01T10:31:17.000Z</time>
      </trkpt>
      <trkpt lat="44.3879" lon="6.39264">
        <ele>2077</ele>
        <time>2021-09-01T10:31:18.000Z</time>
      </trkpt>
      <trkpt lat="44.38792" lon="6.39262">
        <ele>2077</ele>
        <time>2021-09-01T10:31:19.000Z</time>
      </trkpt>
      <trkpt lat="44.38795" lon="6.3926">
        <ele>2076</ele>
        <time>2021-09-01T10:31:20.000Z</time>
      </trkpt>
      <trkpt lat="44.38797" lon="6.39259">
        <ele>2076</ele>
        <time>2021-09-01T10:31:21.000Z</time>
      </trkpt>
      <trkpt lat="44.38798" lon="6.39256">
        <ele>2076</ele>
        <time>2021-09-01T10:31:22.000Z</time>
      </trkpt>
      <trkpt lat="44.388" lon="6.39254">
        <ele>2075</ele>
        <time>2021-09-01T10:31:23.000Z</time>
      </trkpt>
      <trkpt lat="44.38801" lon="6.39252">
        <ele>2075</ele>
        <time>2021-09-01T10:31:24.000Z</time>
      </trkpt>
      <trkpt lat="44.38802" lon="6.39249">
        <ele>2075</ele>
        <time>2021-09-01T10:31:25.000Z</time>
      </trkpt>
      <trkpt lat="44.38804" lon="6.39246">
        <ele>2076</ele>
        <time>2021-09-01T10:31:26.000Z</time>
      </trkpt>
      <trkpt lat="44.38806" lon="6.39244">
        <ele>2076</ele>
        <time>2021-09-01T10:31:27.000Z</time>
      </trkpt>
      <trkpt lat="44.38808" lon="6.39242">
        <ele>2076</ele>
        <time>2021-09-01T10:31:28.000Z</time>
      </trkpt>
      <trkpt lat="44.38809" lon="6.3924">
        <ele>2076</ele>
        <time>2021-09-01T10:31:29.000Z</time>
      </trkpt>
      <trkpt lat="44.38811" lon="6.39237">
        <ele>2076</ele>
        <time>2021-09-01T10:31:30.000Z</time>
      </trkpt>
      <trkpt lat="44.38813" lon="6.39235">
        <ele>2076</ele>
        <time>2021-09-01T10:31:31.000Z</time>
      </trkpt>
      <trkpt lat="44.38814" lon="6.39231">
        <ele>2076</ele>
        <time>2021-09-01T10:31:32.000Z</time>
      </trkpt>
      <trkpt lat="44.38814" lon="6.39227">
        <ele>2076</ele>
        <time>2021-09-01T10:31:33.000Z</time>
      </trkpt>
      <trkpt lat="44.38814" lon="6.39222">
        <ele>2076</ele>
        <time>2021-09-01T10:31:34.000Z</time>
      </trkpt>
      <trkpt lat="44.38814" lon="6.39217">
        <ele>2076</ele>
        <time>2021-09-01T10:31:35.000Z</time>
      </trkpt>
      <trkpt lat="44.38814" lon="6.39213">
        <ele>2075</ele>
        <time>2021-09-01T10:31:36.000Z</time>
      </trkpt>
      <trkpt lat="44.38814" lon="6.3921">
        <ele>2075</ele>
        <time>2021-09-01T10:31:37.000Z</time>
      </trkpt>
      <trkpt lat="44.38815" lon="6.39207">
        <ele>2075</ele>
        <time>2021-09-01T10:31:38.000Z</time>
      </trkpt>
      <trkpt lat="44.38816" lon="6.39203">
        <ele>2075</ele>
        <time>2021-09-01T10:31:39.000Z</time>
      </trkpt>
      <trkpt lat="44.38816" lon="6.392">
        <ele>2075</ele>
        <time>2021-09-01T10:31:40.000Z</time>
      </trkpt>
      <trkpt lat="44.38817" lon="6.39197">
        <ele>2076</ele>
        <time>2021-09-01T10:31:41.000Z</time>
      </trkpt>
      <trkpt lat="44.38818" lon="6.39194">
        <ele>2077</ele>
        <time>2021-09-01T10:31:42.000Z</time>
      </trkpt>
      <trkpt lat="44.38819" lon="6.39192">
        <ele>2078</ele>
        <time>2021-09-01T10:31:43.000Z</time>
      </trkpt>
      <trkpt lat="44.3882" lon="6.39189">
        <ele>2078</ele>
        <time>2021-09-01T10:31:44.000Z</time>
      </trkpt>
      <trkpt lat="44.3882" lon="6.39186">
        <ele>2078</ele>
        <time>2021-09-01T10:31:45.000Z</time>
      </trkpt>
      <trkpt lat="44.38822" lon="6.39185">
        <ele>2078</ele>
        <time>2021-09-01T10:31:46.000Z</time>
      </trkpt>
      <trkpt lat="44.38824" lon="6.39185">
        <ele>2078</ele>
        <time>2021-09-01T10:31:47.000Z</time>
      </trkpt>
      <trkpt lat="44.38825" lon="6.39183">
        <ele>2078</ele>
        <time>2021-09-01T10:31:48.000Z</time>
      </trkpt>
      <trkpt lat="44.38826" lon="6.39181">
        <ele>2079</ele>
        <time>2021-09-01T10:31:49.000Z</time>
      </trkpt>
      <trkpt lat="44.38827" lon="6.3918">
        <ele>2079</ele>
        <time>2021-09-01T10:31:50.000Z</time>
      </trkpt>
      <trkpt lat="44.38829" lon="6.39178">
        <ele>2080</ele>
        <time>2021-09-01T10:31:51.000Z</time>
      </trkpt>
      <trkpt lat="44.3883" lon="6.39177">
        <ele>2080</ele>
        <time>2021-09-01T10:31:52.000Z</time>
      </trkpt>
      <trkpt lat="44.38831" lon="6.39175">
        <ele>2080</ele>
        <time>2021-09-01T10:31:53.000Z</time>
      </trkpt>
      <trkpt lat="44.38832" lon="6.39173">
        <ele>2081</ele>
        <time>2021-09-01T10:31:54.000Z</time>
      </trkpt>
      <trkpt lat="44.38833" lon="6.39171">
        <ele>2081</ele>
        <time>2021-09-01T10:31:55.000Z</time>
      </trkpt>
      <trkpt lat="44.38835" lon="6.3917">
        <ele>2082</ele>
        <time>2021-09-01T10:31:56.000Z</time>
      </trkpt>
      <trkpt lat="44.38836" lon="6.39168">
        <ele>2082</ele>
        <time>2021-09-01T10:31:57.000Z</time>
      </trkpt>
      <trkpt lat="44.38837" lon="6.39167">
        <ele>2082</ele>
        <time>2021-09-01T10:31:58.000Z</time>
      </trkpt>
      <trkpt lat="44.38838" lon="6.39166">
        <ele>2082</ele>
        <time>2021-09-01T10:31:59.000Z</time>
      </trkpt>
      <trkpt lat="44.38839" lon="6.39165">
        <ele>2082</ele>
        <time>2021-09-01T10:32:00.000Z</time>
      </trkpt>
      <trkpt lat="44.3884" lon="6.39163">
        <ele>2083</ele>
        <time>2021-09-01T10:32:01.000Z</time>
      </trkpt>
      <trkpt lat="44.38841" lon="6.39162">
        <ele>2083</ele>
        <time>2021-09-01T10:32:02.000Z</time>
      </trkpt>
      <trkpt lat="44.38841" lon="6.39159">
        <ele>2083</ele>
        <time>2021-09-01T10:32:03.000Z</time>
      </trkpt>
      <trkpt lat="44.38843" lon="6.39158">
        <ele>2083</ele>
        <time>2021-09-01T10:32:04.000Z</time>
      </trkpt>
      <trkpt lat="44.38844" lon="6.39156">
        <ele>2084</ele>
        <time>2021-09-01T10:32:05.000Z</time>
      </trkpt>
      <trkpt lat="44.38845" lon="6.39155">
        <ele>2083</ele>
        <time>2021-09-01T10:32:06.000Z</time>
      </trkpt>
      <trkpt lat="44.38847" lon="6.39154">
        <ele>2084</ele>
        <time>2021-09-01T10:32:07.000Z</time>
      </trkpt>
      <trkpt lat="44.38849" lon="6.39153">
        <ele>2085</ele>
        <time>2021-09-01T10:32:08.000Z</time>
      </trkpt>
      <trkpt lat="44.3885" lon="6.39152">
        <ele>2084</ele>
        <time>2021-09-01T10:32:09.000Z</time>
      </trkpt>
      <trkpt lat="44.38852" lon="6.39151">
        <ele>2085</ele>
        <time>2021-09-01T10:32:10.000Z</time>
      </trkpt>
      <trkpt lat="44.38854" lon="6.3915">
        <ele>2086</ele>
        <time>2021-09-01T10:32:11.000Z</time>
      </trkpt>
      <trkpt lat="44.38855" lon="6.39149">
        <ele>2087</ele>
        <time>2021-09-01T10:32:12.000Z</time>
      </trkpt>
      <trkpt lat="44.38857" lon="6.39148">
        <ele>2088</ele>
        <time>2021-09-01T10:32:13.000Z</time>
      </trkpt>
      <trkpt lat="44.38859" lon="6.39148">
        <ele>2088</ele>
        <time>2021-09-01T10:32:14.000Z</time>
      </trkpt>
      <trkpt lat="44.38861" lon="6.39147">
        <ele>2089</ele>
        <time>2021-09-01T10:32:15.000Z</time>
      </trkpt>
      <trkpt lat="44.38863" lon="6.39145">
        <ele>2089</ele>
        <time>2021-09-01T10:32:16.000Z</time>
      </trkpt>
      <trkpt lat="44.38866" lon="6.39144">
        <ele>2089</ele>
        <time>2021-09-01T10:32:17.000Z</time>
      </trkpt>
      <trkpt lat="44.38867" lon="6.39143">
        <ele>2090</ele>
        <time>2021-09-01T10:32:18.000Z</time>
      </trkpt>
      <trkpt lat="44.3887" lon="6.39143">
        <ele>2090</ele>
        <time>2021-09-01T10:32:19.000Z</time>
      </trkpt>
      <trkpt lat="44.38872" lon="6.39142">
        <ele>2090</ele>
        <time>2021-09-01T10:32:20.000Z</time>
      </trkpt>
      <trkpt lat="44.38874" lon="6.39141">
        <ele>2090</ele>
        <time>2021-09-01T10:32:21.000Z</time>
      </trkpt>
      <trkpt lat="44.38876" lon="6.3914">
        <ele>2089</ele>
        <time>2021-09-01T10:32:22.000Z</time>
      </trkpt>
      <trkpt lat="44.38878" lon="6.39139">
        <ele>2090</ele>
        <time>2021-09-01T10:32:23.000Z</time>
      </trkpt>
      <trkpt lat="44.3888" lon="6.39138">
        <ele>2090</ele>
        <time>2021-09-01T10:32:24.000Z</time>
      </trkpt>
      <trkpt lat="44.38882" lon="6.39138">
        <ele>2090</ele>
        <time>2021-09-01T10:32:25.000Z</time>
      </trkpt>
      <trkpt lat="44.38884" lon="6.39137">
        <ele>2090</ele>
        <time>2021-09-01T10:32:26.000Z</time>
      </trkpt>
      <trkpt lat="44.38886" lon="6.39136">
        <ele>2090</ele>
        <time>2021-09-01T10:32:27.000Z</time>
      </trkpt>
      <trkpt lat="44.38888" lon="6.39135">
        <ele>2090</ele>
        <time>2021-09-01T10:32:28.000Z</time>
      </trkpt>
      <trkpt lat="44.38891" lon="6.39134">
        <ele>2091</ele>
        <time>2021-09-01T10:32:29.000Z</time>
      </trkpt>
      <trkpt lat="44.38893" lon="6.39132">
        <ele>2092</ele>
        <time>2021-09-01T10:32:30.000Z</time>
      </trkpt>
      <trkpt lat="44.38895" lon="6.39131">
        <ele>2092</ele>
        <time>2021-09-01T10:32:31.000Z</time>
      </trkpt>
      <trkpt lat="44.38897" lon="6.39129">
        <ele>2093</ele>
        <time>2021-09-01T10:32:32.000Z</time>
      </trkpt>
      <trkpt lat="44.38899" lon="6.39128">
        <ele>2093</ele>
        <time>2021-09-01T10:32:33.000Z</time>
      </trkpt>
      <trkpt lat="44.38901" lon="6.39126">
        <ele>2094</ele>
        <time>2021-09-01T10:32:34.000Z</time>
      </trkpt>
      <trkpt lat="44.38902" lon="6.39124">
        <ele>2095</ele>
        <time>2021-09-01T10:32:35.000Z</time>
      </trkpt>
      <trkpt lat="44.38904" lon="6.39123">
        <ele>2095</ele>
        <time>2021-09-01T10:32:36.000Z</time>
      </trkpt>
      <trkpt lat="44.38906" lon="6.39121">
        <ele>2096</ele>
        <time>2021-09-01T10:32:37.000Z</time>
      </trkpt>
      <trkpt lat="44.38907" lon="6.3912">
        <ele>2096</ele>
        <time>2021-09-01T10:32:38.000Z</time>
      </trkpt>
      <trkpt lat="44.38909" lon="6.39119">
        <ele>2096</ele>
        <time>2021-09-01T10:32:39.000Z</time>
      </trkpt>
      <trkpt lat="44.38911" lon="6.39118">
        <ele>2097</ele>
        <time>2021-09-01T10:32:40.000Z</time>
      </trkpt>
      <trkpt lat="44.38913" lon="6.39117">
        <ele>2097</ele>
        <time>2021-09-01T10:32:41.000Z</time>
      </trkpt>
      <trkpt lat="44.38915" lon="6.39116">
        <ele>2097</ele>
        <time>2021-09-01T10:32:42.000Z</time>
      </trkpt>
      <trkpt lat="44.38917" lon="6.39115">
        <ele>2097</ele>
        <time>2021-09-01T10:32:43.000Z</time>
      </trkpt>
      <trkpt lat="44.38918" lon="6.39115">
        <ele>2098</ele>
        <time>2021-09-01T10:32:44.000Z</time>
      </trkpt>
      <trkpt lat="44.3892" lon="6.39114">
        <ele>2098</ele>
        <time>2021-09-01T10:32:45.000Z</time>
      </trkpt>
      <trkpt lat="44.38922" lon="6.39113">
        <ele>2099</ele>
        <time>2021-09-01T10:32:46.000Z</time>
      </trkpt>
      <trkpt lat="44.38924" lon="6.39112">
        <ele>2099</ele>
        <time>2021-09-01T10:32:47.000Z</time>
      </trkpt>
      <trkpt lat="44.38925" lon="6.39111">
        <ele>2099</ele>
        <time>2021-09-01T10:32:48.000Z</time>
      </trkpt>
      <trkpt lat="44.38927" lon="6.39111">
        <ele>2099</ele>
        <time>2021-09-01T10:32:49.000Z</time>
      </trkpt>
      <trkpt lat="44.38929" lon="6.3911">
        <ele>2100</ele>
        <time>2021-09-01T10:32:50.000Z</time>
      </trkpt>
      <trkpt lat="44.38931" lon="6.3911">
        <ele>2100</ele>
        <time>2021-09-01T10:32:51.000Z</time>
      </trkpt>
      <trkpt lat="44.38932" lon="6.39109">
        <ele>2101</ele>
        <time>2021-09-01T10:32:52.000Z</time>
      </trkpt>
      <trkpt lat="44.38934" lon="6.39108">
        <ele>2101</ele>
        <time>2021-09-01T10:32:53.000Z</time>
      </trkpt>
      <trkpt lat="44.38936" lon="6.39107">
        <ele>2101</ele>
        <time>2021-09-01T10:32:54.000Z</time>
      </trkpt>
      <trkpt lat="44.38937" lon="6.39105">
        <ele>2101</ele>
        <time>2021-09-01T10:32:55.000Z</time>
      </trkpt>
      <trkpt lat="44.38938" lon="6.39103">
        <ele>2102</ele>
        <time>2021-09-01T10:32:56.000Z</time>
      </trkpt>
      <trkpt lat="44.38939" lon="6.39101">
        <ele>2102</ele>
        <time>2021-09-01T10:32:57.000Z</time>
      </trkpt>
      <trkpt lat="44.38941" lon="6.39099">
        <ele>2102</ele>
        <time>2021-09-01T10:32:58.000Z</time>
      </trkpt>
      <trkpt lat="44.38942" lon="6.39098">
        <ele>2101</ele>
        <time>2021-09-01T10:32:59.000Z</time>
      </trkpt>
      <trkpt lat="44.38944" lon="6.39096">
        <ele>2101</ele>
        <time>2021-09-01T10:33:00.000Z</time>
      </trkpt>
      <trkpt lat="44.38945" lon="6.39095">
        <ele>2102</ele>
        <time>2021-09-01T10:33:01.000Z</time>
      </trkpt>
      <trkpt lat="44.38947" lon="6.39093">
        <ele>2102</ele>
        <time>2021-09-01T10:33:02.000Z</time>
      </trkpt>
      <trkpt lat="44.38948" lon="6.39092">
        <ele>2102</ele>
        <time>2021-09-01T10:33:03.000Z</time>
      </trkpt>
      <trkpt lat="44.3895" lon="6.3909">
        <ele>2102</ele>
        <time>2021-09-01T10:33:04.000Z</time>
      </trkpt>
      <trkpt lat="44.38952" lon="6.39088">
        <ele>2103</ele>
        <time>2021-09-01T10:33:05.000Z</time>
      </trkpt>
      <trkpt lat="44.38954" lon="6.39087">
        <ele>2105</ele>
        <time>2021-09-01T10:33:06.000Z</time>
      </trkpt>
      <trkpt lat="44.38955" lon="6.39086">
        <ele>2105</ele>
        <time>2021-09-01T10:33:07.000Z</time>
      </trkpt>
      <trkpt lat="44.38957" lon="6.39084">
        <ele>2105</ele>
        <time>2021-09-01T10:33:08.000Z</time>
      </trkpt>
      <trkpt lat="44.38959" lon="6.39083">
        <ele>2105</ele>
        <time>2021-09-01T10:33:09.000Z</time>
      </trkpt>
      <trkpt lat="44.38961" lon="6.39082">
        <ele>2105</ele>
        <time>2021-09-01T10:33:10.000Z</time>
      </trkpt>
      <trkpt lat="44.38963" lon="6.39081">
        <ele>2105</ele>
        <time>2021-09-01T10:33:11.000Z</time>
      </trkpt>
      <trkpt lat="44.38964" lon="6.39079">
        <ele>2106</ele>
        <time>2021-09-01T10:33:12.000Z</time>
      </trkpt>
      <trkpt lat="44.38966" lon="6.39078">
        <ele>2105</ele>
        <time>2021-09-01T10:33:13.000Z</time>
      </trkpt>
      <trkpt lat="44.38968" lon="6.39077">
        <ele>2106</ele>
        <time>2021-09-01T10:33:14.000Z</time>
      </trkpt>
      <trkpt lat="44.3897" lon="6.39076">
        <ele>2106</ele>
        <time>2021-09-01T10:33:15.000Z</time>
      </trkpt>
      <trkpt lat="44.38971" lon="6.39075">
        <ele>2106</ele>
        <time>2021-09-01T10:33:16.000Z</time>
      </trkpt>
      <trkpt lat="44.38972" lon="6.39073">
        <ele>2106</ele>
        <time>2021-09-01T10:33:17.000Z</time>
      </trkpt>
      <trkpt lat="44.38974" lon="6.39072">
        <ele>2106</ele>
        <time>2021-09-01T10:33:18.000Z</time>
      </trkpt>
      <trkpt lat="44.38976" lon="6.39071">
        <ele>2106</ele>
        <time>2021-09-01T10:33:19.000Z</time>
      </trkpt>
      <trkpt lat="44.38978" lon="6.3907">
        <ele>2107</ele>
        <time>2021-09-01T10:33:20.000Z</time>
      </trkpt>
      <trkpt lat="44.3898" lon="6.39068">
        <ele>2107</ele>
        <time>2021-09-01T10:33:21.000Z</time>
      </trkpt>
      <trkpt lat="44.38982" lon="6.39066">
        <ele>2107</ele>
        <time>2021-09-01T10:33:22.000Z</time>
      </trkpt>
      <trkpt lat="44.38983" lon="6.39065">
        <ele>2108</ele>
        <time>2021-09-01T10:33:23.000Z</time>
      </trkpt>
      <trkpt lat="44.38985" lon="6.39064">
        <ele>2108</ele>
        <time>2021-09-01T10:33:24.000Z</time>
      </trkpt>
      <trkpt lat="44.38987" lon="6.39064">
        <ele>2108</ele>
        <time>2021-09-01T10:33:25.000Z</time>
      </trkpt>
      <trkpt lat="44.38989" lon="6.39062">
        <ele>2108</ele>
        <time>2021-09-01T10:33:26.000Z</time>
      </trkpt>
      <trkpt lat="44.38991" lon="6.39061">
        <ele>2108</ele>
        <time>2021-09-01T10:33:27.000Z</time>
      </trkpt>
      <trkpt lat="44.38993" lon="6.39061">
        <ele>2108</ele>
        <time>2021-09-01T10:33:28.000Z</time>
      </trkpt>
      <trkpt lat="44.38995" lon="6.3906">
        <ele>2108</ele>
        <time>2021-09-01T10:33:29.000Z</time>
      </trkpt>
      <trkpt lat="44.38996" lon="6.39059">
        <ele>2108</ele>
        <time>2021-09-01T10:33:30.000Z</time>
      </trkpt>
      <trkpt lat="44.38998" lon="6.39059">
        <ele>2108</ele>
        <time>2021-09-01T10:33:31.000Z</time>
      </trkpt>
      <trkpt lat="44.39" lon="6.39058">
        <ele>2108</ele>
        <time>2021-09-01T10:33:32.000Z</time>
      </trkpt>
      <trkpt lat="44.39002" lon="6.39057">
        <ele>2108</ele>
        <time>2021-09-01T10:33:33.000Z</time>
      </trkpt>
      <trkpt lat="44.39004" lon="6.39056">
        <ele>2108</ele>
        <time>2021-09-01T10:33:34.000Z</time>
      </trkpt>
      <trkpt lat="44.39005" lon="6.39055">
        <ele>2108</ele>
        <time>2021-09-01T10:33:35.000Z</time>
      </trkpt>
      <trkpt lat="44.39007" lon="6.39055">
        <ele>2108</ele>
        <time>2021-09-01T10:33:36.000Z</time>
      </trkpt>
      <trkpt lat="44.39009" lon="6.39054">
        <ele>2109</ele>
        <time>2021-09-01T10:33:37.000Z</time>
      </trkpt>
      <trkpt lat="44.39011" lon="6.39053">
        <ele>2109</ele>
        <time>2021-09-01T10:33:38.000Z</time>
      </trkpt>
      <trkpt lat="44.39012" lon="6.39052">
        <ele>2109</ele>
        <time>2021-09-01T10:33:39.000Z</time>
      </trkpt>
      <trkpt lat="44.39014" lon="6.3905">
        <ele>2110</ele>
        <time>2021-09-01T10:33:40.000Z</time>
      </trkpt>
      <trkpt lat="44.39015" lon="6.39049">
        <ele>2110</ele>
        <time>2021-09-01T10:33:41.000Z</time>
      </trkpt>
      <trkpt lat="44.39018" lon="6.39049">
        <ele>2111</ele>
        <time>2021-09-01T10:33:42.000Z</time>
      </trkpt>
      <trkpt lat="44.39019" lon="6.39048">
        <ele>2111</ele>
        <time>2021-09-01T10:33:43.000Z</time>
      </trkpt>
      <trkpt lat="44.39021" lon="6.39046">
        <ele>2111</ele>
        <time>2021-09-01T10:33:44.000Z</time>
      </trkpt>
      <trkpt lat="44.39023" lon="6.39045">
        <ele>2112</ele>
        <time>2021-09-01T10:33:45.000Z</time>
      </trkpt>
      <trkpt lat="44.39025" lon="6.39044">
        <ele>2112</ele>
        <time>2021-09-01T10:33:46.000Z</time>
      </trkpt>
      <trkpt lat="44.39027" lon="6.39044">
        <ele>2112</ele>
        <time>2021-09-01T10:33:47.000Z</time>
      </trkpt>
      <trkpt lat="44.39028" lon="6.39043">
        <ele>2112</ele>
        <time>2021-09-01T10:33:48.000Z</time>
      </trkpt>
      <trkpt lat="44.3903" lon="6.39042">
        <ele>2113</ele>
        <time>2021-09-01T10:33:49.000Z</time>
      </trkpt>
      <trkpt lat="44.39032" lon="6.39042">
        <ele>2113</ele>
        <time>2021-09-01T10:33:50.000Z</time>
      </trkpt>
      <trkpt lat="44.39033" lon="6.39041">
        <ele>2114</ele>
        <time>2021-09-01T10:33:51.000Z</time>
      </trkpt>
      <trkpt lat="44.39035" lon="6.3904">
        <ele>2114</ele>
        <time>2021-09-01T10:33:52.000Z</time>
      </trkpt>
      <trkpt lat="44.39037" lon="6.3904">
        <ele>2114</ele>
        <time>2021-09-01T10:33:53.000Z</time>
      </trkpt>
      <trkpt lat="44.39039" lon="6.3904">
        <ele>2114</ele>
        <time>2021-09-01T10:33:54.000Z</time>
      </trkpt>
      <trkpt lat="44.39041" lon="6.3904">
        <ele>2114</ele>
        <time>2021-09-01T10:33:55.000Z</time>
      </trkpt>
      <trkpt lat="44.39042" lon="6.39039">
        <ele>2115</ele>
        <time>2021-09-01T10:33:56.000Z</time>
      </trkpt>
      <trkpt lat="44.39044" lon="6.39039">
        <ele>2115</ele>
        <time>2021-09-01T10:33:57.000Z</time>
      </trkpt>
      <trkpt lat="44.39046" lon="6.39038">
        <ele>2115</ele>
        <time>2021-09-01T10:33:58.000Z</time>
      </trkpt>
      <trkpt lat="44.39048" lon="6.39037">
        <ele>2115</ele>
        <time>2021-09-01T10:33:59.000Z</time>
      </trkpt>
      <trkpt lat="44.39049" lon="6.39037">
        <ele>2116</ele>
        <time>2021-09-01T10:34:00.000Z</time>
      </trkpt>
      <trkpt lat="44.39051" lon="6.39036">
        <ele>2117</ele>
        <time>2021-09-01T10:34:01.000Z</time>
      </trkpt>
      <trkpt lat="44.39053" lon="6.39035">
        <ele>2116</ele>
        <time>2021-09-01T10:34:02.000Z</time>
      </trkpt>
      <trkpt lat="44.39056" lon="6.39036">
        <ele>2116</ele>
        <time>2021-09-01T10:34:03.000Z</time>
      </trkpt>
      <trkpt lat="44.39058" lon="6.39036">
        <ele>2116</ele>
        <time>2021-09-01T10:34:04.000Z</time>
      </trkpt>
      <trkpt lat="44.39059" lon="6.39035">
        <ele>2117</ele>
        <time>2021-09-01T10:34:05.000Z</time>
      </trkpt>
      <trkpt lat="44.39061" lon="6.39034">
        <ele>2116</ele>
        <time>2021-09-01T10:34:06.000Z</time>
      </trkpt>
      <trkpt lat="44.39063" lon="6.39034">
        <ele>2116</ele>
        <time>2021-09-01T10:34:07.000Z</time>
      </trkpt>
      <trkpt lat="44.39064" lon="6.39033">
        <ele>2117</ele>
        <time>2021-09-01T10:34:08.000Z</time>
      </trkpt>
      <trkpt lat="44.39066" lon="6.39032">
        <ele>2117</ele>
        <time>2021-09-01T10:34:09.000Z</time>
      </trkpt>
      <trkpt lat="44.39068" lon="6.39031">
        <ele>2117</ele>
        <time>2021-09-01T10:34:10.000Z</time>
      </trkpt>
      <trkpt lat="44.3907" lon="6.3903">
        <ele>2117</ele>
        <time>2021-09-01T10:34:11.000Z</time>
      </trkpt>
      <trkpt lat="44.39071" lon="6.39029">
        <ele>2117</ele>
        <time>2021-09-01T10:34:12.000Z</time>
      </trkpt>
      <trkpt lat="44.39073" lon="6.39028">
        <ele>2117</ele>
        <time>2021-09-01T10:34:13.000Z</time>
      </trkpt>
      <trkpt lat="44.39074" lon="6.39027">
        <ele>2118</ele>
        <time>2021-09-01T10:34:14.000Z</time>
      </trkpt>
      <trkpt lat="44.39076" lon="6.39026">
        <ele>2117</ele>
        <time>2021-09-01T10:34:15.000Z</time>
      </trkpt>
      <trkpt lat="44.39078" lon="6.39024">
        <ele>2118</ele>
        <time>2021-09-01T10:34:16.000Z</time>
      </trkpt>
      <trkpt lat="44.3908" lon="6.39023">
        <ele>2118</ele>
        <time>2021-09-01T10:34:17.000Z</time>
      </trkpt>
      <trkpt lat="44.39082" lon="6.39022">
        <ele>2118</ele>
        <time>2021-09-01T10:34:18.000Z</time>
      </trkpt>
      <trkpt lat="44.39084" lon="6.39021">
        <ele>2118</ele>
        <time>2021-09-01T10:34:19.000Z</time>
      </trkpt>
      <trkpt lat="44.39085" lon="6.39019">
        <ele>2118</ele>
        <time>2021-09-01T10:34:20.000Z</time>
      </trkpt>
      <trkpt lat="44.39087" lon="6.39018">
        <ele>2118</ele>
        <time>2021-09-01T10:34:21.000Z</time>
      </trkpt>
      <trkpt lat="44.39089" lon="6.39017">
        <ele>2118</ele>
        <time>2021-09-01T10:34:22.000Z</time>
      </trkpt>
      <trkpt lat="44.39091" lon="6.39016">
        <ele>2118</ele>
        <time>2021-09-01T10:34:23.000Z</time>
      </trkpt>
      <trkpt lat="44.39092" lon="6.39015">
        <ele>2119</ele>
        <time>2021-09-01T10:34:24.000Z</time>
      </trkpt>
      <trkpt lat="44.39095" lon="6.39014">
        <ele>2119</ele>
        <time>2021-09-01T10:34:25.000Z</time>
      </trkpt>
      <trkpt lat="44.39096" lon="6.39013">
        <ele>2119</ele>
        <time>2021-09-01T10:34:26.000Z</time>
      </trkpt>
      <trkpt lat="44.39098" lon="6.39012">
        <ele>2119</ele>
        <time>2021-09-01T10:34:27.000Z</time>
      </trkpt>
      <trkpt lat="44.39099" lon="6.3901">
        <ele>2119</ele>
        <time>2021-09-01T10:34:28.000Z</time>
      </trkpt>
      <trkpt lat="44.39101" lon="6.39008">
        <ele>2119</ele>
        <time>2021-09-01T10:34:29.000Z</time>
      </trkpt>
      <trkpt lat="44.39103" lon="6.39007">
        <ele>2119</ele>
        <time>2021-09-01T10:34:30.000Z</time>
      </trkpt>
      <trkpt lat="44.39104" lon="6.39005">
        <ele>2120</ele>
        <time>2021-09-01T10:34:31.000Z</time>
      </trkpt>
      <trkpt lat="44.39106" lon="6.39004">
        <ele>2120</ele>
        <time>2021-09-01T10:34:32.000Z</time>
      </trkpt>
      <trkpt lat="44.39108" lon="6.39003">
        <ele>2120</ele>
        <time>2021-09-01T10:34:33.000Z</time>
      </trkpt>
      <trkpt lat="44.3911" lon="6.39001">
        <ele>2120</ele>
        <time>2021-09-01T10:34:34.000Z</time>
      </trkpt>
      <trkpt lat="44.39112" lon="6.38999">
        <ele>2121</ele>
        <time>2021-09-01T10:34:35.000Z</time>
      </trkpt>
      <trkpt lat="44.39113" lon="6.38997">
        <ele>2121</ele>
        <time>2021-09-01T10:34:36.000Z</time>
      </trkpt>
      <trkpt lat="44.39115" lon="6.38996">
        <ele>2122</ele>
        <time>2021-09-01T10:34:37.000Z</time>
      </trkpt>
      <trkpt lat="44.39117" lon="6.38995">
        <ele>2122</ele>
        <time>2021-09-01T10:34:38.000Z</time>
      </trkpt>
      <trkpt lat="44.39119" lon="6.38993">
        <ele>2123</ele>
        <time>2021-09-01T10:34:39.000Z</time>
      </trkpt>
      <trkpt lat="44.39121" lon="6.38991">
        <ele>2123</ele>
        <time>2021-09-01T10:34:40.000Z</time>
      </trkpt>
      <trkpt lat="44.39123" lon="6.38991">
        <ele>2124</ele>
        <time>2021-09-01T10:34:41.000Z</time>
      </trkpt>
      <trkpt lat="44.39125" lon="6.38989">
        <ele>2124</ele>
        <time>2021-09-01T10:34:42.000Z</time>
      </trkpt>
      <trkpt lat="44.39127" lon="6.38988">
        <ele>2125</ele>
        <time>2021-09-01T10:34:43.000Z</time>
      </trkpt>
      <trkpt lat="44.39129" lon="6.38987">
        <ele>2125</ele>
        <time>2021-09-01T10:34:44.000Z</time>
      </trkpt>
      <trkpt lat="44.3913" lon="6.38986">
        <ele>2126</ele>
        <time>2021-09-01T10:34:45.000Z</time>
      </trkpt>
      <trkpt lat="44.39132" lon="6.38985">
        <ele>2126</ele>
        <time>2021-09-01T10:34:46.000Z</time>
      </trkpt>
      <trkpt lat="44.39134" lon="6.38984">
        <ele>2127</ele>
        <time>2021-09-01T10:34:47.000Z</time>
      </trkpt>
      <trkpt lat="44.39136" lon="6.38984">
        <ele>2127</ele>
        <time>2021-09-01T10:34:48.000Z</time>
      </trkpt>
      <trkpt lat="44.39137" lon="6.38983">
        <ele>2127</ele>
        <time>2021-09-01T10:34:49.000Z</time>
      </trkpt>
      <trkpt lat="44.39139" lon="6.38982">
        <ele>2127</ele>
        <time>2021-09-01T10:34:50.000Z</time>
      </trkpt>
      <trkpt lat="44.39141" lon="6.38981">
        <ele>2128</ele>
        <time>2021-09-01T10:34:51.000Z</time>
      </trkpt>
      <trkpt lat="44.39143" lon="6.38981">
        <ele>2128</ele>
        <time>2021-09-01T10:34:52.000Z</time>
      </trkpt>
      <trkpt lat="44.39144" lon="6.3898">
        <ele>2128</ele>
        <time>2021-09-01T10:34:53.000Z</time>
      </trkpt>
      <trkpt lat="44.39146" lon="6.38979">
        <ele>2128</ele>
        <time>2021-09-01T10:34:54.000Z</time>
      </trkpt>
      <trkpt lat="44.39148" lon="6.38978">
        <ele>2129</ele>
        <time>2021-09-01T10:34:55.000Z</time>
      </trkpt>
      <trkpt lat="44.3915" lon="6.38978">
        <ele>2130</ele>
        <time>2021-09-01T10:34:56.000Z</time>
      </trkpt>
      <trkpt lat="44.39152" lon="6.38979">
        <ele>2130</ele>
        <time>2021-09-01T10:34:57.000Z</time>
      </trkpt>
      <trkpt lat="44.39154" lon="6.38979">
        <ele>2131</ele>
        <time>2021-09-01T10:34:58.000Z</time>
      </trkpt>
      <trkpt lat="44.39157" lon="6.38979">
        <ele>2131</ele>
        <time>2021-09-01T10:34:59.000Z</time>
      </trkpt>
      <trkpt lat="44.39159" lon="6.38979">
        <ele>2129</ele>
        <time>2021-09-01T10:35:00.000Z</time>
      </trkpt>
      <trkpt lat="44.39162" lon="6.38977">
        <ele>2128</ele>
        <time>2021-09-01T10:35:01.000Z</time>
      </trkpt>
      <trkpt lat="44.39164" lon="6.38975">
        <ele>2128</ele>
        <time>2021-09-01T10:35:02.000Z</time>
      </trkpt>
      <trkpt lat="44.39166" lon="6.38973">
        <ele>2129</ele>
        <time>2021-09-01T10:35:03.000Z</time>
      </trkpt>
      <trkpt lat="44.39168" lon="6.38972">
        <ele>2129</ele>
        <time>2021-09-01T10:35:04.000Z</time>
      </trkpt>
      <trkpt lat="44.39169" lon="6.38969">
        <ele>2129</ele>
        <time>2021-09-01T10:35:05.000Z</time>
      </trkpt>
      <trkpt lat="44.39169" lon="6.38965">
        <ele>2129</ele>
        <time>2021-09-01T10:35:06.000Z</time>
      </trkpt>
      <trkpt lat="44.39171" lon="6.38963">
        <ele>2129</ele>
        <time>2021-09-01T10:35:07.000Z</time>
      </trkpt>
      <trkpt lat="44.39172" lon="6.3896">
        <ele>2130</ele>
        <time>2021-09-01T10:35:08.000Z</time>
      </trkpt>
      <trkpt lat="44.39174" lon="6.38958">
        <ele>2129</ele>
        <time>2021-09-01T10:35:09.000Z</time>
      </trkpt>
      <trkpt lat="44.39176" lon="6.38956">
        <ele>2129</ele>
        <time>2021-09-01T10:35:10.000Z</time>
      </trkpt>
      <trkpt lat="44.39177" lon="6.38954">
        <ele>2129</ele>
        <time>2021-09-01T10:35:11.000Z</time>
      </trkpt>
      <trkpt lat="44.39179" lon="6.38952">
        <ele>2129</ele>
        <time>2021-09-01T10:35:12.000Z</time>
      </trkpt>
      <trkpt lat="44.39181" lon="6.3895">
        <ele>2130</ele>
        <time>2021-09-01T10:35:13.000Z</time>
      </trkpt>
      <trkpt lat="44.39184" lon="6.38948">
        <ele>2130</ele>
        <time>2021-09-01T10:35:14.000Z</time>
      </trkpt>
      <trkpt lat="44.39186" lon="6.38946">
        <ele>2130</ele>
        <time>2021-09-01T10:35:15.000Z</time>
      </trkpt>
      <trkpt lat="44.39188" lon="6.38944">
        <ele>2130</ele>
        <time>2021-09-01T10:35:16.000Z</time>
      </trkpt>
      <trkpt lat="44.3919" lon="6.38943">
        <ele>2130</ele>
        <time>2021-09-01T10:35:17.000Z</time>
      </trkpt>
      <trkpt lat="44.39192" lon="6.38941">
        <ele>2130</ele>
        <time>2021-09-01T10:35:18.000Z</time>
      </trkpt>
      <trkpt lat="44.39194" lon="6.38939">
        <ele>2130</ele>
        <time>2021-09-01T10:35:19.000Z</time>
      </trkpt>
      <trkpt lat="44.39196" lon="6.38938">
        <ele>2130</ele>
        <time>2021-09-01T10:35:20.000Z</time>
      </trkpt>
      <trkpt lat="44.39198" lon="6.38936">
        <ele>2131</ele>
        <time>2021-09-01T10:35:21.000Z</time>
      </trkpt>
      <trkpt lat="44.39201" lon="6.38935">
        <ele>2131</ele>
        <time>2021-09-01T10:35:22.000Z</time>
      </trkpt>
      <trkpt lat="44.39203" lon="6.38933">
        <ele>2131</ele>
        <time>2021-09-01T10:35:23.000Z</time>
      </trkpt>
      <trkpt lat="44.39205" lon="6.38932">
        <ele>2131</ele>
        <time>2021-09-01T10:35:24.000Z</time>
      </trkpt>
      <trkpt lat="44.39207" lon="6.3893">
        <ele>2132</ele>
        <time>2021-09-01T10:35:25.000Z</time>
      </trkpt>
      <trkpt lat="44.39209" lon="6.38929">
        <ele>2132</ele>
        <time>2021-09-01T10:35:26.000Z</time>
      </trkpt>
      <trkpt lat="44.39211" lon="6.38927">
        <ele>2132</ele>
        <time>2021-09-01T10:35:27.000Z</time>
      </trkpt>
      <trkpt lat="44.39214" lon="6.38926">
        <ele>2132</ele>
        <time>2021-09-01T10:35:28.000Z</time>
      </trkpt>
      <trkpt lat="44.39216" lon="6.38924">
        <ele>2132</ele>
        <time>2021-09-01T10:35:29.000Z</time>
      </trkpt>
      <trkpt lat="44.39218" lon="6.38922">
        <ele>2132</ele>
        <time>2021-09-01T10:35:30.000Z</time>
      </trkpt>
      <trkpt lat="44.3922" lon="6.38921">
        <ele>2133</ele>
        <time>2021-09-01T10:35:31.000Z</time>
      </trkpt>
      <trkpt lat="44.39222" lon="6.38919">
        <ele>2133</ele>
        <time>2021-09-01T10:35:32.000Z</time>
      </trkpt>
      <trkpt lat="44.39225" lon="6.38917">
        <ele>2133</ele>
        <time>2021-09-01T10:35:33.000Z</time>
      </trkpt>
      <trkpt lat="44.39227" lon="6.38916">
        <ele>2133</ele>
        <time>2021-09-01T10:35:34.000Z</time>
      </trkpt>
      <trkpt lat="44.39229" lon="6.38915">
        <ele>2133</ele>
        <time>2021-09-01T10:35:35.000Z</time>
      </trkpt>
      <trkpt lat="44.39231" lon="6.38913">
        <ele>2134</ele>
        <time>2021-09-01T10:35:36.000Z</time>
      </trkpt>
      <trkpt lat="44.39233" lon="6.38911">
        <ele>2134</ele>
        <time>2021-09-01T10:35:37.000Z</time>
      </trkpt>
      <trkpt lat="44.39236" lon="6.3891">
        <ele>2134</ele>
        <time>2021-09-01T10:35:38.000Z</time>
      </trkpt>
      <trkpt lat="44.39238" lon="6.38908">
        <ele>2135</ele>
        <time>2021-09-01T10:35:39.000Z</time>
      </trkpt>
      <trkpt lat="44.39239" lon="6.38906">
        <ele>2135</ele>
        <time>2021-09-01T10:35:40.000Z</time>
      </trkpt>
      <trkpt lat="44.39241" lon="6.38905">
        <ele>2135</ele>
        <time>2021-09-01T10:35:41.000Z</time>
      </trkpt>
      <trkpt lat="44.39243" lon="6.38904">
        <ele>2135</ele>
        <time>2021-09-01T10:35:42.000Z</time>
      </trkpt>
      <trkpt lat="44.39245" lon="6.38903">
        <ele>2136</ele>
        <time>2021-09-01T10:35:43.000Z</time>
      </trkpt>
      <trkpt lat="44.39246" lon="6.38901">
        <ele>2136</ele>
        <time>2021-09-01T10:35:44.000Z</time>
      </trkpt>
      <trkpt lat="44.39248" lon="6.389">
        <ele>2136</ele>
        <time>2021-09-01T10:35:45.000Z</time>
      </trkpt>
      <trkpt lat="44.39249" lon="6.389">
        <ele>2135</ele>
        <time>2021-09-01T10:35:46.000Z</time>
      </trkpt>
      <trkpt lat="44.39251" lon="6.38899">
        <ele>2136</ele>
        <time>2021-09-01T10:35:47.000Z</time>
      </trkpt>
      <trkpt lat="44.39253" lon="6.38899">
        <ele>2136</ele>
        <time>2021-09-01T10:35:48.000Z</time>
      </trkpt>
      <trkpt lat="44.39255" lon="6.38899">
        <ele>2137</ele>
        <time>2021-09-01T10:35:49.000Z</time>
      </trkpt>
      <trkpt lat="44.39256" lon="6.38899">
        <ele>2137</ele>
        <time>2021-09-01T10:35:50.000Z</time>
      </trkpt>
      <trkpt lat="44.39258" lon="6.38898">
        <ele>2138</ele>
        <time>2021-09-01T10:35:51.000Z</time>
      </trkpt>
      <trkpt lat="44.39261" lon="6.38897">
        <ele>2139</ele>
        <time>2021-09-01T10:35:52.000Z</time>
      </trkpt>
      <trkpt lat="44.39263" lon="6.38896">
        <ele>2140</ele>
        <time>2021-09-01T10:35:53.000Z</time>
      </trkpt>
      <trkpt lat="44.39265" lon="6.38895">
        <ele>2141</ele>
        <time>2021-09-01T10:35:54.000Z</time>
      </trkpt>
      <trkpt lat="44.39266" lon="6.38894">
        <ele>2142</ele>
        <time>2021-09-01T10:35:55.000Z</time>
      </trkpt>
      <trkpt lat="44.39268" lon="6.38893">
        <ele>2142</ele>
        <time>2021-09-01T10:35:56.000Z</time>
      </trkpt>
      <trkpt lat="44.39269" lon="6.38892">
        <ele>2142</ele>
        <time>2021-09-01T10:35:57.000Z</time>
      </trkpt>
      <trkpt lat="44.3927" lon="6.3889">
        <ele>2143</ele>
        <time>2021-09-01T10:35:58.000Z</time>
      </trkpt>
      <trkpt lat="44.39272" lon="6.38888">
        <ele>2143</ele>
        <time>2021-09-01T10:35:59.000Z</time>
      </trkpt>
      <trkpt lat="44.39273" lon="6.38885">
        <ele>2143</ele>
        <time>2021-09-01T10:36:00.000Z</time>
      </trkpt>
      <trkpt lat="44.39274" lon="6.38883">
        <ele>2143</ele>
        <time>2021-09-01T10:36:01.000Z</time>
      </trkpt>
      <trkpt lat="44.39275" lon="6.3888">
        <ele>2143</ele>
        <time>2021-09-01T10:36:02.000Z</time>
      </trkpt>
      <trkpt lat="44.39276" lon="6.38878">
        <ele>2143</ele>
        <time>2021-09-01T10:36:03.000Z</time>
      </trkpt>
      <trkpt lat="44.39277" lon="6.38876">
        <ele>2143</ele>
        <time>2021-09-01T10:36:04.000Z</time>
      </trkpt>
      <trkpt lat="44.39279" lon="6.38874">
        <ele>2143</ele>
        <time>2021-09-01T10:36:05.000Z</time>
      </trkpt>
      <trkpt lat="44.3928" lon="6.38872">
        <ele>2143</ele>
        <time>2021-09-01T10:36:06.000Z</time>
      </trkpt>
      <trkpt lat="44.39282" lon="6.3887">
        <ele>2143</ele>
        <time>2021-09-01T10:36:07.000Z</time>
      </trkpt>
      <trkpt lat="44.39284" lon="6.38869">
        <ele>2144</ele>
        <time>2021-09-01T10:36:08.000Z</time>
      </trkpt>
      <trkpt lat="44.39286" lon="6.38867">
        <ele>2144</ele>
        <time>2021-09-01T10:36:09.000Z</time>
      </trkpt>
      <trkpt lat="44.39288" lon="6.38866">
        <ele>2144</ele>
        <time>2021-09-01T10:36:10.000Z</time>
      </trkpt>
      <trkpt lat="44.3929" lon="6.38865">
        <ele>2144</ele>
        <time>2021-09-01T10:36:11.000Z</time>
      </trkpt>
      <trkpt lat="44.39292" lon="6.38864">
        <ele>2145</ele>
        <time>2021-09-01T10:36:12.000Z</time>
      </trkpt>
      <trkpt lat="44.39293" lon="6.38863">
        <ele>2145</ele>
        <time>2021-09-01T10:36:13.000Z</time>
      </trkpt>
      <trkpt lat="44.39296" lon="6.38863">
        <ele>2146</ele>
        <time>2021-09-01T10:36:14.000Z</time>
      </trkpt>
      <trkpt lat="44.39297" lon="6.38862">
        <ele>2146</ele>
        <time>2021-09-01T10:36:15.000Z</time>
      </trkpt>
      <trkpt lat="44.39299" lon="6.38861">
        <ele>2146</ele>
        <time>2021-09-01T10:36:16.000Z</time>
      </trkpt>
      <trkpt lat="44.39302" lon="6.38861">
        <ele>2146</ele>
        <time>2021-09-01T10:36:17.000Z</time>
      </trkpt>
      <trkpt lat="44.39304" lon="6.3886">
        <ele>2146</ele>
        <time>2021-09-01T10:36:18.000Z</time>
      </trkpt>
      <trkpt lat="44.39306" lon="6.3886">
        <ele>2147</ele>
        <time>2021-09-01T10:36:19.000Z</time>
      </trkpt>
      <trkpt lat="44.39308" lon="6.38859">
        <ele>2147</ele>
        <time>2021-09-01T10:36:20.000Z</time>
      </trkpt>
      <trkpt lat="44.3931" lon="6.38857">
        <ele>2147</ele>
        <time>2021-09-01T10:36:21.000Z</time>
      </trkpt>
      <trkpt lat="44.39311" lon="6.38855">
        <ele>2147</ele>
        <time>2021-09-01T10:36:22.000Z</time>
      </trkpt>
      <trkpt lat="44.39312" lon="6.38852">
        <ele>2147</ele>
        <time>2021-09-01T10:36:23.000Z</time>
      </trkpt>
      <trkpt lat="44.39313" lon="6.3885">
        <ele>2147</ele>
        <time>2021-09-01T10:36:24.000Z</time>
      </trkpt>
      <trkpt lat="44.39314" lon="6.38848">
        <ele>2147</ele>
        <time>2021-09-01T10:36:25.000Z</time>
      </trkpt>
      <trkpt lat="44.39316" lon="6.38846">
        <ele>2147</ele>
        <time>2021-09-01T10:36:26.000Z</time>
      </trkpt>
      <trkpt lat="44.39317" lon="6.38844">
        <ele>2147</ele>
        <time>2021-09-01T10:36:27.000Z</time>
      </trkpt>
      <trkpt lat="44.39319" lon="6.38842">
        <ele>2147</ele>
        <time>2021-09-01T10:36:28.000Z</time>
      </trkpt>
      <trkpt lat="44.3932" lon="6.38839">
        <ele>2147</ele>
        <time>2021-09-01T10:36:29.000Z</time>
      </trkpt>
      <trkpt lat="44.39322" lon="6.38838">
        <ele>2147</ele>
        <time>2021-09-01T10:36:30.000Z</time>
      </trkpt>
      <trkpt lat="44.39324" lon="6.38837">
        <ele>2147</ele>
        <time>2021-09-01T10:36:31.000Z</time>
      </trkpt>
      <trkpt lat="44.39326" lon="6.38835">
        <ele>2147</ele>
        <time>2021-09-01T10:36:32.000Z</time>
      </trkpt>
      <trkpt lat="44.39328" lon="6.38834">
        <ele>2148</ele>
        <time>2021-09-01T10:36:33.000Z</time>
      </trkpt>
      <trkpt lat="44.3933" lon="6.38832">
        <ele>2148</ele>
        <time>2021-09-01T10:36:34.000Z</time>
      </trkpt>
      <trkpt lat="44.39332" lon="6.38831">
        <ele>2148</ele>
        <time>2021-09-01T10:36:35.000Z</time>
      </trkpt>
      <trkpt lat="44.39334" lon="6.38829">
        <ele>2148</ele>
        <time>2021-09-01T10:36:36.000Z</time>
      </trkpt>
      <trkpt lat="44.39336" lon="6.38828">
        <ele>2148</ele>
        <time>2021-09-01T10:36:37.000Z</time>
      </trkpt>
      <trkpt lat="44.39338" lon="6.38826">
        <ele>2149</ele>
        <time>2021-09-01T10:36:38.000Z</time>
      </trkpt>
      <trkpt lat="44.39341" lon="6.38825">
        <ele>2149</ele>
        <time>2021-09-01T10:36:39.000Z</time>
      </trkpt>
      <trkpt lat="44.39343" lon="6.38824">
        <ele>2149</ele>
        <time>2021-09-01T10:36:40.000Z</time>
      </trkpt>
      <trkpt lat="44.39345" lon="6.38823">
        <ele>2150</ele>
        <time>2021-09-01T10:36:41.000Z</time>
      </trkpt>
      <trkpt lat="44.39347" lon="6.38821">
        <ele>2150</ele>
        <time>2021-09-01T10:36:42.000Z</time>
      </trkpt>
      <trkpt lat="44.39349" lon="6.3882">
        <ele>2150</ele>
        <time>2021-09-01T10:36:43.000Z</time>
      </trkpt>
      <trkpt lat="44.39351" lon="6.38818">
        <ele>2150</ele>
        <time>2021-09-01T10:36:44.000Z</time>
      </trkpt>
      <trkpt lat="44.39353" lon="6.38817">
        <ele>2150</ele>
        <time>2021-09-01T10:36:45.000Z</time>
      </trkpt>
      <trkpt lat="44.39355" lon="6.38815">
        <ele>2151</ele>
        <time>2021-09-01T10:36:46.000Z</time>
      </trkpt>
      <trkpt lat="44.39357" lon="6.38814">
        <ele>2151</ele>
        <time>2021-09-01T10:36:47.000Z</time>
      </trkpt>
      <trkpt lat="44.39359" lon="6.38812">
        <ele>2152</ele>
        <time>2021-09-01T10:36:48.000Z</time>
      </trkpt>
      <trkpt lat="44.3936" lon="6.3881">
        <ele>2152</ele>
        <time>2021-09-01T10:36:49.000Z</time>
      </trkpt>
      <trkpt lat="44.39362" lon="6.38809">
        <ele>2152</ele>
        <time>2021-09-01T10:36:50.000Z</time>
      </trkpt>
      <trkpt lat="44.39364" lon="6.38807">
        <ele>2152</ele>
        <time>2021-09-01T10:36:51.000Z</time>
      </trkpt>
      <trkpt lat="44.39365" lon="6.38804">
        <ele>2152</ele>
        <time>2021-09-01T10:36:52.000Z</time>
      </trkpt>
      <trkpt lat="44.39366" lon="6.38802">
        <ele>2152</ele>
        <time>2021-09-01T10:36:53.000Z</time>
      </trkpt>
      <trkpt lat="44.39368" lon="6.38799">
        <ele>2151</ele>
        <time>2021-09-01T10:36:54.000Z</time>
      </trkpt>
      <trkpt lat="44.39369" lon="6.38797">
        <ele>2151</ele>
        <time>2021-09-01T10:36:55.000Z</time>
      </trkpt>
      <trkpt lat="44.3937" lon="6.38795">
        <ele>2151</ele>
        <time>2021-09-01T10:36:56.000Z</time>
      </trkpt>
      <trkpt lat="44.39371" lon="6.38793">
        <ele>2151</ele>
        <time>2021-09-01T10:36:57.000Z</time>
      </trkpt>
      <trkpt lat="44.39372" lon="6.3879">
        <ele>2151</ele>
        <time>2021-09-01T10:36:58.000Z</time>
      </trkpt>
      <trkpt lat="44.39374" lon="6.38788">
        <ele>2151</ele>
        <time>2021-09-01T10:36:59.000Z</time>
      </trkpt>
      <trkpt lat="44.39375" lon="6.38785">
        <ele>2152</ele>
        <time>2021-09-01T10:37:00.000Z</time>
      </trkpt>
      <trkpt lat="44.39376" lon="6.38782">
        <ele>2152</ele>
        <time>2021-09-01T10:37:01.000Z</time>
      </trkpt>
      <trkpt lat="44.39376" lon="6.38778">
        <ele>2153</ele>
        <time>2021-09-01T10:37:02.000Z</time>
      </trkpt>
      <trkpt lat="44.39377" lon="6.38775">
        <ele>2152</ele>
        <time>2021-09-01T10:37:03.000Z</time>
      </trkpt>
      <trkpt lat="44.39379" lon="6.38773">
        <ele>2153</ele>
        <time>2021-09-01T10:37:04.000Z</time>
      </trkpt>
      <trkpt lat="44.3938" lon="6.3877">
        <ele>2153</ele>
        <time>2021-09-01T10:37:05.000Z</time>
      </trkpt>
      <trkpt lat="44.39381" lon="6.38768">
        <ele>2153</ele>
        <time>2021-09-01T10:37:06.000Z</time>
      </trkpt>
      <trkpt lat="44.39382" lon="6.38765">
        <ele>2154</ele>
        <time>2021-09-01T10:37:07.000Z</time>
      </trkpt>
      <trkpt lat="44.39383" lon="6.38762">
        <ele>2154</ele>
        <time>2021-09-01T10:37:08.000Z</time>
      </trkpt>
      <trkpt lat="44.39385" lon="6.38759">
        <ele>2155</ele>
        <time>2021-09-01T10:37:09.000Z</time>
      </trkpt>
      <trkpt lat="44.39385" lon="6.38756">
        <ele>2155</ele>
        <time>2021-09-01T10:37:10.000Z</time>
      </trkpt>
      <trkpt lat="44.39386" lon="6.38753">
        <ele>2156</ele>
        <time>2021-09-01T10:37:11.000Z</time>
      </trkpt>
      <trkpt lat="44.39387" lon="6.38751">
        <ele>2156</ele>
        <time>2021-09-01T10:37:12.000Z</time>
      </trkpt>
      <trkpt lat="44.39388" lon="6.38748">
        <ele>2156</ele>
        <time>2021-09-01T10:37:13.000Z</time>
      </trkpt>
      <trkpt lat="44.39389" lon="6.38745">
        <ele>2156</ele>
        <time>2021-09-01T10:37:14.000Z</time>
      </trkpt>
      <trkpt lat="44.3939" lon="6.38742">
        <ele>2157</ele>
        <time>2021-09-01T10:37:15.000Z</time>
      </trkpt>
      <trkpt lat="44.39391" lon="6.3874">
        <ele>2157</ele>
        <time>2021-09-01T10:37:16.000Z</time>
      </trkpt>
      <trkpt lat="44.39392" lon="6.38737">
        <ele>2157</ele>
        <time>2021-09-01T10:37:17.000Z</time>
      </trkpt>
      <trkpt lat="44.39393" lon="6.38735">
        <ele>2157</ele>
        <time>2021-09-01T10:37:18.000Z</time>
      </trkpt>
      <trkpt lat="44.39395" lon="6.38733">
        <ele>2158</ele>
        <time>2021-09-01T10:37:19.000Z</time>
      </trkpt>
      <trkpt lat="44.39396" lon="6.3873">
        <ele>2158</ele>
        <time>2021-09-01T10:37:20.000Z</time>
      </trkpt>
      <trkpt lat="44.39398" lon="6.38728">
        <ele>2158</ele>
        <time>2021-09-01T10:37:21.000Z</time>
      </trkpt>
      <trkpt lat="44.39399" lon="6.38726">
        <ele>2159</ele>
        <time>2021-09-01T10:37:22.000Z</time>
      </trkpt>
      <trkpt lat="44.394" lon="6.38723">
        <ele>2158</ele>
        <time>2021-09-01T10:37:23.000Z</time>
      </trkpt>
      <trkpt lat="44.39402" lon="6.38721">
        <ele>2158</ele>
        <time>2021-09-01T10:37:24.000Z</time>
      </trkpt>
      <trkpt lat="44.39404" lon="6.3872">
        <ele>2159</ele>
        <time>2021-09-01T10:37:25.000Z</time>
      </trkpt>
      <trkpt lat="44.39405" lon="6.38718">
        <ele>2159</ele>
        <time>2021-09-01T10:37:26.000Z</time>
      </trkpt>
      <trkpt lat="44.39406" lon="6.38716">
        <ele>2159</ele>
        <time>2021-09-01T10:37:27.000Z</time>
      </trkpt>
      <trkpt lat="44.39408" lon="6.38715">
        <ele>2159</ele>
        <time>2021-09-01T10:37:28.000Z</time>
      </trkpt>
      <trkpt lat="44.3941" lon="6.38713">
        <ele>2159</ele>
        <time>2021-09-01T10:37:29.000Z</time>
      </trkpt>
      <trkpt lat="44.39412" lon="6.38711">
        <ele>2160</ele>
        <time>2021-09-01T10:37:30.000Z</time>
      </trkpt>
      <trkpt lat="44.39413" lon="6.3871">
        <ele>2160</ele>
        <time>2021-09-01T10:37:31.000Z</time>
      </trkpt>
      <trkpt lat="44.39415" lon="6.38708">
        <ele>2160</ele>
        <time>2021-09-01T10:37:32.000Z</time>
      </trkpt>
      <trkpt lat="44.39417" lon="6.38706">
        <ele>2161</ele>
        <time>2021-09-01T10:37:33.000Z</time>
      </trkpt>
      <trkpt lat="44.39419" lon="6.38705">
        <ele>2161</ele>
        <time>2021-09-01T10:37:34.000Z</time>
      </trkpt>
      <trkpt lat="44.39421" lon="6.38703">
        <ele>2161</ele>
        <time>2021-09-01T10:37:35.000Z</time>
      </trkpt>
      <trkpt lat="44.39423" lon="6.38702">
        <ele>2162</ele>
        <time>2021-09-01T10:37:36.000Z</time>
      </trkpt>
      <trkpt lat="44.39425" lon="6.387">
        <ele>2162</ele>
        <time>2021-09-01T10:37:37.000Z</time>
      </trkpt>
      <trkpt lat="44.39426" lon="6.38699">
        <ele>2163</ele>
        <time>2021-09-01T10:37:38.000Z</time>
      </trkpt>
      <trkpt lat="44.39429" lon="6.38698">
        <ele>2163</ele>
        <time>2021-09-01T10:37:39.000Z</time>
      </trkpt>
      <trkpt lat="44.3943" lon="6.38697">
        <ele>2163</ele>
        <time>2021-09-01T10:37:40.000Z</time>
      </trkpt>
      <trkpt lat="44.39432" lon="6.38695">
        <ele>2163</ele>
        <time>2021-09-01T10:37:41.000Z</time>
      </trkpt>
      <trkpt lat="44.39434" lon="6.38693">
        <ele>2165</ele>
        <time>2021-09-01T10:37:42.000Z</time>
      </trkpt>
      <trkpt lat="44.39435" lon="6.38692">
        <ele>2165</ele>
        <time>2021-09-01T10:37:43.000Z</time>
      </trkpt>
      <trkpt lat="44.39438" lon="6.38691">
        <ele>2166</ele>
        <time>2021-09-01T10:37:44.000Z</time>
      </trkpt>
      <trkpt lat="44.3944" lon="6.3869">
        <ele>2166</ele>
        <time>2021-09-01T10:37:45.000Z</time>
      </trkpt>
      <trkpt lat="44.39442" lon="6.38689">
        <ele>2166</ele>
        <time>2021-09-01T10:37:46.000Z</time>
      </trkpt>
      <trkpt lat="44.39444" lon="6.38687">
        <ele>2167</ele>
        <time>2021-09-01T10:37:47.000Z</time>
      </trkpt>
      <trkpt lat="44.39445" lon="6.38686">
        <ele>2168</ele>
        <time>2021-09-01T10:37:48.000Z</time>
      </trkpt>
      <trkpt lat="44.39447" lon="6.38685">
        <ele>2168</ele>
        <time>2021-09-01T10:37:49.000Z</time>
      </trkpt>
      <trkpt lat="44.39449" lon="6.38683">
        <ele>2168</ele>
        <time>2021-09-01T10:37:50.000Z</time>
      </trkpt>
      <trkpt lat="44.39451" lon="6.38682">
        <ele>2169</ele>
        <time>2021-09-01T10:37:51.000Z</time>
      </trkpt>
      <trkpt lat="44.39452" lon="6.3868">
        <ele>2169</ele>
        <time>2021-09-01T10:37:52.000Z</time>
      </trkpt>
      <trkpt lat="44.39454" lon="6.38679">
        <ele>2168</ele>
        <time>2021-09-01T10:37:53.000Z</time>
      </trkpt>
      <trkpt lat="44.39456" lon="6.38678">
        <ele>2169</ele>
        <time>2021-09-01T10:37:54.000Z</time>
      </trkpt>
      <trkpt lat="44.39458" lon="6.38679">
        <ele>2169</ele>
        <time>2021-09-01T10:37:55.000Z</time>
      </trkpt>
      <trkpt lat="44.3946" lon="6.38679">
        <ele>2169</ele>
        <time>2021-09-01T10:37:56.000Z</time>
      </trkpt>
      <trkpt lat="44.39461" lon="6.38679">
        <ele>2169</ele>
        <time>2021-09-01T10:37:57.000Z</time>
      </trkpt>
      <trkpt lat="44.39462" lon="6.38679">
        <ele>2170</ele>
        <time>2021-09-01T10:37:58.000Z</time>
      </trkpt>
      <trkpt lat="44.39464" lon="6.38679">
        <ele>2170</ele>
        <time>2021-09-01T10:37:59.000Z</time>
      </trkpt>
      <trkpt lat="44.39466" lon="6.3868">
        <ele>2171</ele>
        <time>2021-09-01T10:38:00.000Z</time>
      </trkpt>
      <trkpt lat="44.39467" lon="6.38681">
        <ele>2171</ele>
        <time>2021-09-01T10:38:01.000Z</time>
      </trkpt>
      <trkpt lat="44.39469" lon="6.38681">
        <ele>2172</ele>
        <time>2021-09-01T10:38:02.000Z</time>
      </trkpt>
      <trkpt lat="44.39471" lon="6.38681">
        <ele>2172</ele>
        <time>2021-09-01T10:38:03.000Z</time>
      </trkpt>
      <trkpt lat="44.39472" lon="6.38682">
        <ele>2173</ele>
        <time>2021-09-01T10:38:04.000Z</time>
      </trkpt>
      <trkpt lat="44.39474" lon="6.38682">
        <ele>2173</ele>
        <time>2021-09-01T10:38:05.000Z</time>
      </trkpt>
      <trkpt lat="44.39476" lon="6.38682">
        <ele>2173</ele>
        <time>2021-09-01T10:38:06.000Z</time>
      </trkpt>
      <trkpt lat="44.39477" lon="6.38683">
        <ele>2173</ele>
        <time>2021-09-01T10:38:07.000Z</time>
      </trkpt>
      <trkpt lat="44.39479" lon="6.38684">
        <ele>2173</ele>
        <time>2021-09-01T10:38:08.000Z</time>
      </trkpt>
      <trkpt lat="44.3948" lon="6.38685">
        <ele>2173</ele>
        <time>2021-09-01T10:38:09.000Z</time>
      </trkpt>
      <trkpt lat="44.39482" lon="6.38685">
        <ele>2174</ele>
        <time>2021-09-01T10:38:10.000Z</time>
      </trkpt>
      <trkpt lat="44.39483" lon="6.38685">
        <ele>2174</ele>
        <time>2021-09-01T10:38:11.000Z</time>
      </trkpt>
      <trkpt lat="44.39485" lon="6.38686">
        <ele>2174</ele>
        <time>2021-09-01T10:38:12.000Z</time>
      </trkpt>
      <trkpt lat="44.39487" lon="6.38686">
        <ele>2174</ele>
        <time>2021-09-01T10:38:13.000Z</time>
      </trkpt>
      <trkpt lat="44.39489" lon="6.38685">
        <ele>2173</ele>
        <time>2021-09-01T10:38:14.000Z</time>
      </trkpt>
      <trkpt lat="44.39491" lon="6.38686">
        <ele>2172</ele>
        <time>2021-09-01T10:38:15.000Z</time>
      </trkpt>
      <trkpt lat="44.39494" lon="6.38687">
        <ele>2172</ele>
        <time>2021-09-01T10:38:16.000Z</time>
      </trkpt>
      <trkpt lat="44.39497" lon="6.38687">
        <ele>2171</ele>
        <time>2021-09-01T10:38:17.000Z</time>
      </trkpt>
      <trkpt lat="44.39499" lon="6.38687">
        <ele>2171</ele>
        <time>2021-09-01T10:38:18.000Z</time>
      </trkpt>
      <trkpt lat="44.39501" lon="6.38687">
        <ele>2170</ele>
        <time>2021-09-01T10:38:19.000Z</time>
      </trkpt>
      <trkpt lat="44.39502" lon="6.38687">
        <ele>2170</ele>
        <time>2021-09-01T10:38:20.000Z</time>
      </trkpt>
      <trkpt lat="44.39504" lon="6.38687">
        <ele>2170</ele>
        <time>2021-09-01T10:38:21.000Z</time>
      </trkpt>
      <trkpt lat="44.39505" lon="6.38688">
        <ele>2170</ele>
        <time>2021-09-01T10:38:22.000Z</time>
      </trkpt>
      <trkpt lat="44.39507" lon="6.38687">
        <ele>2170</ele>
        <time>2021-09-01T10:38:23.000Z</time>
      </trkpt>
      <trkpt lat="44.39508" lon="6.38686">
        <ele>2170</ele>
        <time>2021-09-01T10:38:24.000Z</time>
      </trkpt>
      <trkpt lat="44.3951" lon="6.38686">
        <ele>2170</ele>
        <time>2021-09-01T10:38:25.000Z</time>
      </trkpt>
      <trkpt lat="44.39513" lon="6.38685">
        <ele>2171</ele>
        <time>2021-09-01T10:38:26.000Z</time>
      </trkpt>
      <trkpt lat="44.39514" lon="6.38684">
        <ele>2170</ele>
        <time>2021-09-01T10:38:27.000Z</time>
      </trkpt>
      <trkpt lat="44.39516" lon="6.38684">
        <ele>2170</ele>
        <time>2021-09-01T10:38:28.000Z</time>
      </trkpt>
      <trkpt lat="44.39518" lon="6.38683">
        <ele>2170</ele>
        <time>2021-09-01T10:38:29.000Z</time>
      </trkpt>
      <trkpt lat="44.3952" lon="6.38682">
        <ele>2170</ele>
        <time>2021-09-01T10:38:30.000Z</time>
      </trkpt>
      <trkpt lat="44.39521" lon="6.38682">
        <ele>2170</ele>
        <time>2021-09-01T10:38:31.000Z</time>
      </trkpt>
      <trkpt lat="44.39523" lon="6.38679">
        <ele>2170</ele>
        <time>2021-09-01T10:38:32.000Z</time>
      </trkpt>
      <trkpt lat="44.39524" lon="6.38677">
        <ele>2171</ele>
        <time>2021-09-01T10:38:33.000Z</time>
      </trkpt>
      <trkpt lat="44.39525" lon="6.38677">
        <ele>2171</ele>
        <time>2021-09-01T10:38:34.000Z</time>
      </trkpt>
      <trkpt lat="44.39526" lon="6.38675">
        <ele>2171</ele>
        <time>2021-09-01T10:38:35.000Z</time>
      </trkpt>
      <trkpt lat="44.39528" lon="6.38674">
        <ele>2172</ele>
        <time>2021-09-01T10:38:36.000Z</time>
      </trkpt>
      <trkpt lat="44.39528" lon="6.38671">
        <ele>2173</ele>
        <time>2021-09-01T10:38:37.000Z</time>
      </trkpt>
      <trkpt lat="44.39529" lon="6.38672">
        <ele>2172</ele>
        <time>2021-09-01T10:38:38.000Z</time>
      </trkpt>
      <trkpt lat="44.39529" lon="6.38671">
        <ele>2172</ele>
        <time>2021-09-01T10:38:39.000Z</time>
      </trkpt>
      <trkpt lat="44.39529" lon="6.38671">
        <ele>2173</ele>
        <time>2021-09-01T10:38:40.000Z</time>
      </trkpt>
      <trkpt lat="44.39529" lon="6.38669">
        <ele>2174</ele>
        <time>2021-09-01T10:38:41.000Z</time>
      </trkpt>
      <trkpt lat="44.3953" lon="6.38668">
        <ele>2174</ele>
        <time>2021-09-01T10:38:42.000Z</time>
      </trkpt>
      <trkpt lat="44.3953" lon="6.38666">
        <ele>2174</ele>
        <time>2021-09-01T10:38:43.000Z</time>
      </trkpt>
      <trkpt lat="44.3953" lon="6.38665">
        <ele>2174</ele>
        <time>2021-09-01T10:38:44.000Z</time>
      </trkpt>
      <trkpt lat="44.3953" lon="6.38662">
        <ele>2175</ele>
        <time>2021-09-01T10:38:45.000Z</time>
      </trkpt>
      <trkpt lat="44.3953" lon="6.38659">
        <ele>2175</ele>
        <time>2021-09-01T10:38:46.000Z</time>
      </trkpt>
      <trkpt lat="44.39531" lon="6.38657">
        <ele>2175</ele>
        <time>2021-09-01T10:38:47.000Z</time>
      </trkpt>
      <trkpt lat="44.39531" lon="6.38654">
        <ele>2175</ele>
        <time>2021-09-01T10:38:48.000Z</time>
      </trkpt>
      <trkpt lat="44.39531" lon="6.38651">
        <ele>2175</ele>
        <time>2021-09-01T10:38:49.000Z</time>
      </trkpt>
      <trkpt lat="44.39531" lon="6.3865">
        <ele>2174</ele>
        <time>2021-09-01T10:38:50.000Z</time>
      </trkpt>
      <trkpt lat="44.39531" lon="6.38651">
        <ele>2175</ele>
        <time>2021-09-01T10:38:51.000Z</time>
      </trkpt>
      <trkpt lat="44.39531" lon="6.38651">
        <ele>2175</ele>
        <time>2021-09-01T10:38:52.000Z</time>
      </trkpt>
      <trkpt lat="44.39531" lon="6.38651">
        <ele>2174</ele>
        <time>2021-09-01T10:38:53.000Z</time>
      </trkpt>
      <trkpt lat="44.39531" lon="6.38651">
        <ele>2175</ele>
        <time>2021-09-01T10:38:54.000Z</time>
      </trkpt>
      <trkpt lat="44.39531" lon="6.38651">
        <ele>2175</ele>
        <time>2021-09-01T10:38:55.000Z</time>
      </trkpt>
      <trkpt lat="44.39531" lon="6.3865">
        <ele>2175</ele>
        <time>2021-09-01T10:38:56.000Z</time>
      </trkpt>
      <trkpt lat="44.39532" lon="6.3865">
        <ele>2175</ele>
        <time>2021-09-01T10:38:57.000Z</time>
      </trkpt>
      <trkpt lat="44.39532" lon="6.3865">
        <ele>2175</ele>
        <time>2021-09-01T10:38:58.000Z</time>
      </trkpt>
      <trkpt lat="44.39532" lon="6.3865">
        <ele>2175</ele>
        <time>2021-09-01T10:38:59.000Z</time>
      </trkpt>
      <trkpt lat="44.39532" lon="6.38649">
        <ele>2175</ele>
        <time>2021-09-01T10:39:00.000Z</time>
      </trkpt>
      <trkpt lat="44.39532" lon="6.38649">
        <ele>2175</ele>
        <time>2021-09-01T10:39:01.000Z</time>
      </trkpt>
      <trkpt lat="44.39532" lon="6.38649">
        <ele>2175</ele>
        <time>2021-09-01T10:39:02.000Z</time>
      </trkpt>
      <trkpt lat="44.39532" lon="6.38649">
        <ele>2175</ele>
        <time>2021-09-01T10:39:03.000Z</time>
      </trkpt>
      <trkpt lat="44.39532" lon="6.38649">
        <ele>2175</ele>
        <time>2021-09-01T10:39:04.000Z</time>
      </trkpt>
      <trkpt lat="44.39532" lon="6.38649">
        <ele>2175</ele>
        <time>2021-09-01T10:39:05.000Z</time>
      </trkpt>
      <trkpt lat="44.39532" lon="6.38649">
        <ele>2176</ele>
        <time>2021-09-01T10:39:06.000Z</time>
      </trkpt>
      <trkpt lat="44.39532" lon="6.38649">
        <ele>2176</ele>
        <time>2021-09-01T10:39:07.000Z</time>
      </trkpt>
      <trkpt lat="44.39532" lon="6.38649">
        <ele>2176</ele>
        <time>2021-09-01T10:39:08.000Z</time>
      </trkpt>
      <trkpt lat="44.39532" lon="6.38649">
        <ele>2176</ele>
        <time>2021-09-01T10:39:09.000Z</time>
      </trkpt>
      <trkpt lat="44.39532" lon="6.38649">
        <ele>2176</ele>
        <time>2021-09-01T10:39:10.000Z</time>
      </trkpt>
      <trkpt lat="44.39532" lon="6.38648">
        <ele>2176</ele>
        <time>2021-09-01T10:39:11.000Z</time>
      </trkpt>
      <trkpt lat="44.39532" lon="6.38648">
        <ele>2176</ele>
        <time>2021-09-01T10:39:12.000Z</time>
      </trkpt>
      <trkpt lat="44.39532" lon="6.38648">
        <ele>2176</ele>
        <time>2021-09-01T10:39:13.000Z</time>
      </trkpt>
      <trkpt lat="44.39532" lon="6.38648">
        <ele>2176</ele>
        <time>2021-09-01T10:39:14.000Z</time>
      </trkpt>
      <trkpt lat="44.39532" lon="6.38648">
        <ele>2176</ele>
        <time>2021-09-01T10:39:15.000Z</time>
      </trkpt>
      <trkpt lat="44.39532" lon="6.38648">
        <ele>2176</ele>
        <time>2021-09-01T10:39:16.000Z</time>
      </trkpt>
      <trkpt lat="44.39532" lon="6.38648">
        <ele>2176</ele>
        <time>2021-09-01T10:39:17.000Z</time>
      </trkpt>
      <trkpt lat="44.39532" lon="6.38648">
        <ele>2175</ele>
        <time>2021-09-01T10:39:18.000Z</time>
      </trkpt>
      <trkpt lat="44.39532" lon="6.38648">
        <ele>2175</ele>
        <time>2021-09-01T10:39:19.000Z</time>
      </trkpt>
      <trkpt lat="44.39532" lon="6.38649">
        <ele>2176</ele>
        <time>2021-09-01T10:39:20.000Z</time>
      </trkpt>
      <trkpt lat="44.39532" lon="6.38649">
        <ele>2176</ele>
        <time>2021-09-01T10:39:21.000Z</time>
      </trkpt>
      <trkpt lat="44.39532" lon="6.38649">
        <ele>2176</ele>
        <time>2021-09-01T10:39:22.000Z</time>
      </trkpt>
      <trkpt lat="44.39532" lon="6.38649">
        <ele>2176</ele>
        <time>2021-09-01T10:39:23.000Z</time>
      </trkpt>
      <trkpt lat="44.39532" lon="6.38648">
        <ele>2176</ele>
        <time>2021-09-01T10:39:24.000Z</time>
      </trkpt>
      <trkpt lat="44.39532" lon="6.38648">
        <ele>2176</ele>
        <time>2021-09-01T10:39:25.000Z</time>
      </trkpt>
      <trkpt lat="44.39532" lon="6.38648">
        <ele>2176</ele>
        <time>2021-09-01T10:39:26.000Z</time>
      </trkpt>
      <trkpt lat="44.39533" lon="6.38648">
        <ele>2176</ele>
        <time>2021-09-01T10:39:27.000Z</time>
      </trkpt>
      <trkpt lat="44.39533" lon="6.38648">
        <ele>2177</ele>
        <time>2021-09-01T10:39:28.000Z</time>
      </trkpt>
      <trkpt lat="44.39533" lon="6.38648">
        <ele>2177</ele>
        <time>2021-09-01T10:39:29.000Z</time>
      </trkpt>
      <trkpt lat="44.39533" lon="6.38648">
        <ele>2177</ele>
        <time>2021-09-01T10:39:30.000Z</time>
      </trkpt>
      <trkpt lat="44.39533" lon="6.38648">
        <ele>2176</ele>
        <time>2021-09-01T10:39:31.000Z</time>
      </trkpt>
      <trkpt lat="44.39533" lon="6.38648">
        <ele>2176</ele>
        <time>2021-09-01T10:39:32.000Z</time>
      </trkpt>
      <trkpt lat="44.39533" lon="6.38648">
        <ele>2177</ele>
        <time>2021-09-01T10:39:33.000Z</time>
      </trkpt>
      <trkpt lat="44.39533" lon="6.38648">
        <ele>2177</ele>
        <time>2021-09-01T10:39:34.000Z</time>
      </trkpt>
      <trkpt lat="44.39533" lon="6.38648">
        <ele>2177</ele>
        <time>2021-09-01T10:39:35.000Z</time>
      </trkpt>
      <trkpt lat="44.39533" lon="6.38648">
        <ele>2177</ele>
        <time>2021-09-01T10:39:36.000Z</time>
      </trkpt>
      <trkpt lat="44.39533" lon="6.38648">
        <ele>2177</ele>
        <time>2021-09-01T10:39:37.000Z</time>
      </trkpt>
      <trkpt lat="44.39533" lon="6.38647">
        <ele>2177</ele>
        <time>2021-09-01T10:39:38.000Z</time>
      </trkpt>
      <trkpt lat="44.39533" lon="6.38647">
        <ele>2177</ele>
        <time>2021-09-01T10:39:39.000Z</time>
      </trkpt>
      <trkpt lat="44.39533" lon="6.38647">
        <ele>2177</ele>
        <time>2021-09-01T10:39:40.000Z</time>
      </trkpt>
      <trkpt lat="44.39533" lon="6.38647">
        <ele>2177</ele>
        <time>2021-09-01T10:39:41.000Z</time>
      </trkpt>
      <trkpt lat="44.39533" lon="6.38647">
        <ele>2177</ele>
        <time>2021-09-01T10:39:42.000Z</time>
      </trkpt>
      <trkpt lat="44.39533" lon="6.38647">
        <ele>2177</ele>
        <time>2021-09-01T10:39:43.000Z</time>
      </trkpt>
      <trkpt lat="44.39533" lon="6.38647">
        <ele>2177</ele>
        <time>2021-09-01T10:39:44.000Z</time>
      </trkpt>
      <trkpt lat="44.39533" lon="6.38647">
        <ele>2177</ele>
        <time>2021-09-01T10:39:45.000Z</time>
      </trkpt>
      <trkpt lat="44.39533" lon="6.38647">
        <ele>2177</ele>
        <time>2021-09-01T10:39:46.000Z</time>
      </trkpt>
      <trkpt lat="44.39533" lon="6.38647">
        <ele>2177</ele>
        <time>2021-09-01T10:39:47.000Z</time>
      </trkpt>
      <trkpt lat="44.39533" lon="6.38646">
        <ele>2177</ele>
        <time>2021-09-01T10:39:48.000Z</time>
      </trkpt>
      <trkpt lat="44.39533" lon="6.38646">
        <ele>2177</ele>
        <time>2021-09-01T10:39:49.000Z</time>
      </trkpt>
      <trkpt lat="44.39533" lon="6.38647">
        <ele>2177</ele>
        <time>2021-09-01T10:39:50.000Z</time>
      </trkpt>
      <trkpt lat="44.39533" lon="6.38647">
        <ele>2177</ele>
        <time>2021-09-01T10:39:51.000Z</time>
      </trkpt>
      <trkpt lat="44.39533" lon="6.38647">
        <ele>2177</ele>
        <time>2021-09-01T10:39:52.000Z</time>
      </trkpt>
      <trkpt lat="44.39533" lon="6.38646">
        <ele>2178</ele>
        <time>2021-09-01T10:39:53.000Z</time>
      </trkpt>
      <trkpt lat="44.39533" lon="6.38646">
        <ele>2178</ele>
        <time>2021-09-01T10:39:54.000Z</time>
      </trkpt>
      <trkpt lat="44.39533" lon="6.38646">
        <ele>2178</ele>
        <time>2021-09-01T10:39:55.000Z</time>
      </trkpt>
      <trkpt lat="44.39532" lon="6.38646">
        <ele>2178</ele>
        <time>2021-09-01T10:39:56.000Z</time>
      </trkpt>
      <trkpt lat="44.39532" lon="6.38646">
        <ele>2178</ele>
        <time>2021-09-01T10:39:57.000Z</time>
      </trkpt>
      <trkpt lat="44.39532" lon="6.38646">
        <ele>2178</ele>
        <time>2021-09-01T10:39:58.000Z</time>
      </trkpt>
      <trkpt lat="44.39532" lon="6.38646">
        <ele>2178</ele>
        <time>2021-09-01T10:39:59.000Z</time>
      </trkpt>
      <trkpt lat="44.39532" lon="6.38645">
        <ele>2178</ele>
        <time>2021-09-01T10:40:00.000Z</time>
      </trkpt>
      <trkpt lat="44.39532" lon="6.38645">
        <ele>2178</ele>
        <time>2021-09-01T10:40:01.000Z</time>
      </trkpt>
      <trkpt lat="44.39532" lon="6.38645">
        <ele>2179</ele>
        <time>2021-09-01T10:40:02.000Z</time>
      </trkpt>
      <trkpt lat="44.39532" lon="6.38645">
        <ele>2178</ele>
        <time>2021-09-01T10:40:03.000Z</time>
      </trkpt>
      <trkpt lat="44.39532" lon="6.38646">
        <ele>2178</ele>
        <time>2021-09-01T10:40:04.000Z</time>
      </trkpt>
      <trkpt lat="44.39532" lon="6.38646">
        <ele>2178</ele>
        <time>2021-09-01T10:40:05.000Z</time>
      </trkpt>
      <trkpt lat="44.39532" lon="6.38646">
        <ele>2178</ele>
        <time>2021-09-01T10:40:06.000Z</time>
      </trkpt>
      <trkpt lat="44.39532" lon="6.38646">
        <ele>2178</ele>
        <time>2021-09-01T10:40:07.000Z</time>
      </trkpt>
      <trkpt lat="44.39532" lon="6.38646">
        <ele>2178</ele>
        <time>2021-09-01T10:40:08.000Z</time>
      </trkpt>
      <trkpt lat="44.39532" lon="6.38646">
        <ele>2178</ele>
        <time>2021-09-01T10:40:09.000Z</time>
      </trkpt>
      <trkpt lat="44.39532" lon="6.38646">
        <ele>2178</ele>
        <time>2021-09-01T10:40:10.000Z</time>
      </trkpt>
      <trkpt lat="44.39532" lon="6.38646">
        <ele>2178</ele>
        <time>2021-09-01T10:40:11.000Z</time>
      </trkpt>
      <trkpt lat="44.39532" lon="6.38646">
        <ele>2178</ele>
        <time>2021-09-01T10:40:12.000Z</time>
      </trkpt>
      <trkpt lat="44.39532" lon="6.38646">
        <ele>2179</ele>
        <time>2021-09-01T10:40:13.000Z</time>
      </trkpt>
      <trkpt lat="44.39532" lon="6.38646">
        <ele>2179</ele>
        <time>2021-09-01T10:40:14.000Z</time>
      </trkpt>
      <trkpt lat="44.39532" lon="6.38646">
        <ele>2179</ele>
        <time>2021-09-01T10:40:15.000Z</time>
      </trkpt>
      <trkpt lat="44.39532" lon="6.38646">
        <ele>2179</ele>
        <time>2021-09-01T10:40:16.000Z</time>
      </trkpt>
      <trkpt lat="44.39532" lon="6.38646">
        <ele>2179</ele>
        <time>2021-09-01T10:40:17.000Z</time>
      </trkpt>
      <trkpt lat="44.39532" lon="6.38646">
        <ele>2179</ele>
        <time>2021-09-01T10:40:18.000Z</time>
      </trkpt>
      <trkpt lat="44.39532" lon="6.38646">
        <ele>2179</ele>
        <time>2021-09-01T10:40:19.000Z</time>
      </trkpt>
      <trkpt lat="44.39532" lon="6.38646">
        <ele>2179</ele>
        <time>2021-09-01T10:40:20.000Z</time>
      </trkpt>
      <trkpt lat="44.39532" lon="6.38646">
        <ele>2178</ele>
        <time>2021-09-01T10:40:21.000Z</time>
      </trkpt>
      <trkpt lat="44.39532" lon="6.38646">
        <ele>2178</ele>
        <time>2021-09-01T10:40:22.000Z</time>
      </trkpt>
      <trkpt lat="44.39532" lon="6.38646">
        <ele>2178</ele>
        <time>2021-09-01T10:40:23.000Z</time>
      </trkpt>
      <trkpt lat="44.39532" lon="6.38646">
        <ele>2178</ele>
        <time>2021-09-01T10:40:24.000Z</time>
      </trkpt>
      <trkpt lat="44.39532" lon="6.38646">
        <ele>2178</ele>
        <time>2021-09-01T10:40:25.000Z</time>
      </trkpt>
      <trkpt lat="44.39533" lon="6.38647">
        <ele>2178</ele>
        <time>2021-09-01T10:40:26.000Z</time>
      </trkpt>
      <trkpt lat="44.39533" lon="6.38647">
        <ele>2178</ele>
        <time>2021-09-01T10:40:27.000Z</time>
      </trkpt>
      <trkpt lat="44.39533" lon="6.38647">
        <ele>2178</ele>
        <time>2021-09-01T10:40:28.000Z</time>
      </trkpt>
      <trkpt lat="44.39533" lon="6.38647">
        <ele>2178</ele>
        <time>2021-09-01T10:40:29.000Z</time>
      </trkpt>
      <trkpt lat="44.39533" lon="6.38647">
        <ele>2178</ele>
        <time>2021-09-01T10:40:30.000Z</time>
      </trkpt>
      <trkpt lat="44.39533" lon="6.38647">
        <ele>2178</ele>
        <time>2021-09-01T10:40:31.000Z</time>
      </trkpt>
      <trkpt lat="44.39533" lon="6.38647">
        <ele>2178</ele>
        <time>2021-09-01T10:40:32.000Z</time>
      </trkpt>
      <trkpt lat="44.39533" lon="6.38647">
        <ele>2178</ele>
        <time>2021-09-01T10:40:33.000Z</time>
      </trkpt>
      <trkpt lat="44.39533" lon="6.38647">
        <ele>2178</ele>
        <time>2021-09-01T10:40:34.000Z</time>
      </trkpt>
      <trkpt lat="44.39533" lon="6.38647">
        <ele>2178</ele>
        <time>2021-09-01T10:40:35.000Z</time>
      </trkpt>
      <trkpt lat="44.39533" lon="6.38647">
        <ele>2178</ele>
        <time>2021-09-01T10:40:36.000Z</time>
      </trkpt>
      <trkpt lat="44.39533" lon="6.38647">
        <ele>2178</ele>
        <time>2021-09-01T10:40:37.000Z</time>
      </trkpt>
      <trkpt lat="44.39533" lon="6.38646">
        <ele>2178</ele>
        <time>2021-09-01T10:40:38.000Z</time>
      </trkpt>
      <trkpt lat="44.39533" lon="6.38647">
        <ele>2178</ele>
        <time>2021-09-01T10:40:39.000Z</time>
      </trkpt>
      <trkpt lat="44.39533" lon="6.38646">
        <ele>2178</ele>
        <time>2021-09-01T10:40:40.000Z</time>
      </trkpt>
      <trkpt lat="44.39533" lon="6.38646">
        <ele>2178</ele>
        <time>2021-09-01T10:40:41.000Z</time>
      </trkpt>
      <trkpt lat="44.39533" lon="6.38646">
        <ele>2178</ele>
        <time>2021-09-01T10:40:42.000Z</time>
      </trkpt>
      <trkpt lat="44.39533" lon="6.38646">
        <ele>2178</ele>
        <time>2021-09-01T10:40:43.000Z</time>
      </trkpt>
      <trkpt lat="44.39533" lon="6.38646">
        <ele>2178</ele>
        <time>2021-09-01T10:40:44.000Z</time>
      </trkpt>
      <trkpt lat="44.39533" lon="6.38646">
        <ele>2177</ele>
        <time>2021-09-01T10:40:45.000Z</time>
      </trkpt>
      <trkpt lat="44.39533" lon="6.38646">
        <ele>2178</ele>
        <time>2021-09-01T10:40:46.000Z</time>
      </trkpt>
      <trkpt lat="44.39533" lon="6.38646">
        <ele>2178</ele>
        <time>2021-09-01T10:40:47.000Z</time>
      </trkpt>
      <trkpt lat="44.39533" lon="6.38646">
        <ele>2178</ele>
        <time>2021-09-01T10:40:48.000Z</time>
      </trkpt>
      <trkpt lat="44.39533" lon="6.38647">
        <ele>2178</ele>
        <time>2021-09-01T10:40:49.000Z</time>
      </trkpt>
      <trkpt lat="44.39533" lon="6.38647">
        <ele>2178</ele>
        <time>2021-09-01T10:40:50.000Z</time>
      </trkpt>
      <trkpt lat="44.39533" lon="6.38646">
        <ele>2178</ele>
        <time>2021-09-01T10:40:51.000Z</time>
      </trkpt>
      <trkpt lat="44.39533" lon="6.38646">
        <ele>2178</ele>
        <time>2021-09-01T10:40:52.000Z</time>
      </trkpt>
      <trkpt lat="44.39533" lon="6.38646">
        <ele>2178</ele>
        <time>2021-09-01T10:40:53.000Z</time>
      </trkpt>
      <trkpt lat="44.39533" lon="6.38646">
        <ele>2178</ele>
        <time>2021-09-01T10:40:54.000Z</time>
      </trkpt>
      <trkpt lat="44.39533" lon="6.38646">
        <ele>2178</ele>
        <time>2021-09-01T10:40:55.000Z</time>
      </trkpt>
      <trkpt lat="44.39533" lon="6.38646">
        <ele>2178</ele>
        <time>2021-09-01T10:40:56.000Z</time>
      </trkpt>
      <trkpt lat="44.39533" lon="6.38646">
        <ele>2178</ele>
        <time>2021-09-01T10:40:57.000Z</time>
      </trkpt>
      <trkpt lat="44.39533" lon="6.38646">
        <ele>2178</ele>
        <time>2021-09-01T10:40:58.000Z</time>
      </trkpt>
      <trkpt lat="44.39533" lon="6.38646">
        <ele>2178</ele>
        <time>2021-09-01T10:40:59.000Z</time>
      </trkpt>
      <trkpt lat="44.39533" lon="6.38647">
        <ele>2178</ele>
        <time>2021-09-01T10:41:00.000Z</time>
      </trkpt>
      <trkpt lat="44.39533" lon="6.38646">
        <ele>2178</ele>
        <time>2021-09-01T10:41:01.000Z</time>
      </trkpt>
      <trkpt lat="44.39533" lon="6.38646">
        <ele>2178</ele>
        <time>2021-09-01T10:41:02.000Z</time>
      </trkpt>
      <trkpt lat="44.39533" lon="6.38646">
        <ele>2178</ele>
        <time>2021-09-01T10:41:03.000Z</time>
      </trkpt>
      <trkpt lat="44.39533" lon="6.38646">
        <ele>2178</ele>
        <time>2021-09-01T10:41:04.000Z</time>
      </trkpt>
      <trkpt lat="44.39533" lon="6.38646">
        <ele>2178</ele>
        <time>2021-09-01T10:41:05.000Z</time>
      </trkpt>
      <trkpt lat="44.39533" lon="6.38646">
        <ele>2178</ele>
        <time>2021-09-01T10:41:06.000Z</time>
      </trkpt>
      <trkpt lat="44.39533" lon="6.38646">
        <ele>2178</ele>
        <time>2021-09-01T10:41:07.000Z</time>
      </trkpt>
      <trkpt lat="44.39534" lon="6.38646">
        <ele>2179</ele>
        <time>2021-09-01T10:41:08.000Z</time>
      </trkpt>
      <trkpt lat="44.39534" lon="6.38647">
        <ele>2179</ele>
        <time>2021-09-01T10:41:09.000Z</time>
      </trkpt>
      <trkpt lat="44.39534" lon="6.38647">
        <ele>2178</ele>
        <time>2021-09-01T10:41:10.000Z</time>
      </trkpt>
      <trkpt lat="44.39533" lon="6.38647">
        <ele>2178</ele>
        <time>2021-09-01T10:41:11.000Z</time>
      </trkpt>
      <trkpt lat="44.39533" lon="6.38647">
        <ele>2178</ele>
        <time>2021-09-01T10:41:12.000Z</time>
      </trkpt>
      <trkpt lat="44.39533" lon="6.38647">
        <ele>2178</ele>
        <time>2021-09-01T10:41:13.000Z</time>
      </trkpt>
      <trkpt lat="44.39534" lon="6.38647">
        <ele>2178</ele>
        <time>2021-09-01T10:41:14.000Z</time>
      </trkpt>
      <trkpt lat="44.39534" lon="6.38647">
        <ele>2178</ele>
        <time>2021-09-01T10:41:15.000Z</time>
      </trkpt>
      <trkpt lat="44.39533" lon="6.38647">
        <ele>2178</ele>
        <time>2021-09-01T10:41:16.000Z</time>
      </trkpt>
      <trkpt lat="44.39533" lon="6.38647">
        <ele>2178</ele>
        <time>2021-09-01T10:41:17.000Z</time>
      </trkpt>
      <trkpt lat="44.39533" lon="6.38647">
        <ele>2177</ele>
        <time>2021-09-01T10:41:18.000Z</time>
      </trkpt>
      <trkpt lat="44.39533" lon="6.38647">
        <ele>2177</ele>
        <time>2021-09-01T10:41:19.000Z</time>
      </trkpt>
      <trkpt lat="44.39533" lon="6.38647">
        <ele>2177</ele>
        <time>2021-09-01T10:41:20.000Z</time>
      </trkpt>
      <trkpt lat="44.39533" lon="6.38647">
        <ele>2177</ele>
        <time>2021-09-01T10:41:21.000Z</time>
      </trkpt>
      <trkpt lat="44.39533" lon="6.38647">
        <ele>2177</ele>
        <time>2021-09-01T10:41:22.000Z</time>
      </trkpt>
      <trkpt lat="44.39533" lon="6.38647">
        <ele>2177</ele>
        <time>2021-09-01T10:41:23.000Z</time>
      </trkpt>
      <trkpt lat="44.39533" lon="6.38648">
        <ele>2177</ele>
        <time>2021-09-01T10:41:24.000Z</time>
      </trkpt>
      <trkpt lat="44.39533" lon="6.38648">
        <ele>2177</ele>
        <time>2021-09-01T10:41:25.000Z</time>
      </trkpt>
      <trkpt lat="44.39533" lon="6.38648">
        <ele>2177</ele>
        <time>2021-09-01T10:41:26.000Z</time>
      </trkpt>
      <trkpt lat="44.39533" lon="6.38648">
        <ele>2177</ele>
        <time>2021-09-01T10:41:27.000Z</time>
      </trkpt>
      <trkpt lat="44.39533" lon="6.38648">
        <ele>2177</ele>
        <time>2021-09-01T10:41:28.000Z</time>
      </trkpt>
      <trkpt lat="44.39533" lon="6.38648">
        <ele>2177</ele>
        <time>2021-09-01T10:41:29.000Z</time>
      </trkpt>
      <trkpt lat="44.39533" lon="6.38648">
        <ele>2177</ele>
        <time>2021-09-01T10:41:30.000Z</time>
      </trkpt>
      <trkpt lat="44.39533" lon="6.38648">
        <ele>2176</ele>
        <time>2021-09-01T10:41:31.000Z</time>
      </trkpt>
      <trkpt lat="44.39533" lon="6.38648">
        <ele>2177</ele>
        <time>2021-09-01T10:41:32.000Z</time>
      </trkpt>
      <trkpt lat="44.39533" lon="6.38648">
        <ele>2176</ele>
        <time>2021-09-01T10:41:33.000Z</time>
      </trkpt>
      <trkpt lat="44.39533" lon="6.38648">
        <ele>2176</ele>
        <time>2021-09-01T10:41:34.000Z</time>
      </trkpt>
      <trkpt lat="44.39533" lon="6.38648">
        <ele>2176</ele>
        <time>2021-09-01T10:41:35.000Z</time>
      </trkpt>
      <trkpt lat="44.39533" lon="6.38648">
        <ele>2175</ele>
        <time>2021-09-01T10:41:36.000Z</time>
      </trkpt>
      <trkpt lat="44.39533" lon="6.38646">
        <ele>2175</ele>
        <time>2021-09-01T10:41:37.000Z</time>
      </trkpt>
      <trkpt lat="44.39534" lon="6.38645">
        <ele>2175</ele>
        <time>2021-09-01T10:41:38.000Z</time>
      </trkpt>
      <trkpt lat="44.39534" lon="6.38644">
        <ele>2174</ele>
        <time>2021-09-01T10:41:39.000Z</time>
      </trkpt>
      <trkpt lat="44.39535" lon="6.38642">
        <ele>2173</ele>
        <time>2021-09-01T10:41:40.000Z</time>
      </trkpt>
      <trkpt lat="44.39536" lon="6.3864">
        <ele>2173</ele>
        <time>2021-09-01T10:41:41.000Z</time>
      </trkpt>
      <trkpt lat="44.39538" lon="6.38639">
        <ele>2173</ele>
        <time>2021-09-01T10:41:42.000Z</time>
      </trkpt>
      <trkpt lat="44.39539" lon="6.38638">
        <ele>2173</ele>
        <time>2021-09-01T10:41:43.000Z</time>
      </trkpt>
      <trkpt lat="44.39541" lon="6.38637">
        <ele>2174</ele>
        <time>2021-09-01T10:41:44.000Z</time>
      </trkpt>
      <trkpt lat="44.39543" lon="6.38636">
        <ele>2174</ele>
        <time>2021-09-01T10:41:45.000Z</time>
      </trkpt>
      <trkpt lat="44.39545" lon="6.38635">
        <ele>2175</ele>
        <time>2021-09-01T10:41:46.000Z</time>
      </trkpt>
      <trkpt lat="44.39546" lon="6.38634">
        <ele>2176</ele>
        <time>2021-09-01T10:41:47.000Z</time>
      </trkpt>
      <trkpt lat="44.39547" lon="6.38633">
        <ele>2177</ele>
        <time>2021-09-01T10:41:48.000Z</time>
      </trkpt>
      <trkpt lat="44.39549" lon="6.38633">
        <ele>2177</ele>
        <time>2021-09-01T10:41:49.000Z</time>
      </trkpt>
      <trkpt lat="44.3955" lon="6.38634">
        <ele>2177</ele>
        <time>2021-09-01T10:41:50.000Z</time>
      </trkpt>
      <trkpt lat="44.39552" lon="6.38634">
        <ele>2177</ele>
        <time>2021-09-01T10:41:51.000Z</time>
      </trkpt>
      <trkpt lat="44.39554" lon="6.38635">
        <ele>2178</ele>
        <time>2021-09-01T10:41:52.000Z</time>
      </trkpt>
      <trkpt lat="44.39556" lon="6.38636">
        <ele>2178</ele>
        <time>2021-09-01T10:41:53.000Z</time>
      </trkpt>
      <trkpt lat="44.39557" lon="6.38636">
        <ele>2179</ele>
        <time>2021-09-01T10:41:54.000Z</time>
      </trkpt>
      <trkpt lat="44.39559" lon="6.38636">
        <ele>2179</ele>
        <time>2021-09-01T10:41:55.000Z</time>
      </trkpt>
      <trkpt lat="44.39561" lon="6.38636">
        <ele>2179</ele>
        <time>2021-09-01T10:41:56.000Z</time>
      </trkpt>
      <trkpt lat="44.39562" lon="6.38635">
        <ele>2180</ele>
        <time>2021-09-01T10:41:57.000Z</time>
      </trkpt>
      <trkpt lat="44.39564" lon="6.38636">
        <ele>2180</ele>
        <time>2021-09-01T10:41:58.000Z</time>
      </trkpt>
      <trkpt lat="44.39566" lon="6.38636">
        <ele>2179</ele>
        <time>2021-09-01T10:41:59.000Z</time>
      </trkpt>
      <trkpt lat="44.39568" lon="6.38636">
        <ele>2180</ele>
        <time>2021-09-01T10:42:00.000Z</time>
      </trkpt>
      <trkpt lat="44.39571" lon="6.38635">
        <ele>2180</ele>
        <time>2021-09-01T10:42:01.000Z</time>
      </trkpt>
      <trkpt lat="44.39573" lon="6.38635">
        <ele>2180</ele>
        <time>2021-09-01T10:42:02.000Z</time>
      </trkpt>
      <trkpt lat="44.39576" lon="6.38635">
        <ele>2180</ele>
        <time>2021-09-01T10:42:03.000Z</time>
      </trkpt>
      <trkpt lat="44.39578" lon="6.38635">
        <ele>2180</ele>
        <time>2021-09-01T10:42:04.000Z</time>
      </trkpt>
      <trkpt lat="44.3958" lon="6.38635">
        <ele>2180</ele>
        <time>2021-09-01T10:42:05.000Z</time>
      </trkpt>
      <trkpt lat="44.39582" lon="6.38634">
        <ele>2180</ele>
        <time>2021-09-01T10:42:06.000Z</time>
      </trkpt>
      <trkpt lat="44.39584" lon="6.38633">
        <ele>2180</ele>
        <time>2021-09-01T10:42:07.000Z</time>
      </trkpt>
      <trkpt lat="44.39586" lon="6.38632">
        <ele>2180</ele>
        <time>2021-09-01T10:42:08.000Z</time>
      </trkpt>
      <trkpt lat="44.39588" lon="6.38631">
        <ele>2180</ele>
        <time>2021-09-01T10:42:09.000Z</time>
      </trkpt>
      <trkpt lat="44.3959" lon="6.3863">
        <ele>2180</ele>
        <time>2021-09-01T10:42:10.000Z</time>
      </trkpt>
      <trkpt lat="44.39592" lon="6.38629">
        <ele>2180</ele>
        <time>2021-09-01T10:42:11.000Z</time>
      </trkpt>
      <trkpt lat="44.39595" lon="6.38626">
        <ele>2182</ele>
        <time>2021-09-01T10:42:12.000Z</time>
      </trkpt>
      <trkpt lat="44.39597" lon="6.38626">
        <ele>2183</ele>
        <time>2021-09-01T10:42:13.000Z</time>
      </trkpt>
      <trkpt lat="44.39599" lon="6.38625">
        <ele>2183</ele>
        <time>2021-09-01T10:42:14.000Z</time>
      </trkpt>
      <trkpt lat="44.39601" lon="6.38624">
        <ele>2183</ele>
        <time>2021-09-01T10:42:15.000Z</time>
      </trkpt>
      <trkpt lat="44.39603" lon="6.38623">
        <ele>2184</ele>
        <time>2021-09-01T10:42:16.000Z</time>
      </trkpt>
      <trkpt lat="44.39605" lon="6.38622">
        <ele>2184</ele>
        <time>2021-09-01T10:42:17.000Z</time>
      </trkpt>
      <trkpt lat="44.39607" lon="6.38621">
        <ele>2184</ele>
        <time>2021-09-01T10:42:18.000Z</time>
      </trkpt>
      <trkpt lat="44.39609" lon="6.3862">
        <ele>2185</ele>
        <time>2021-09-01T10:42:19.000Z</time>
      </trkpt>
      <trkpt lat="44.39611" lon="6.3862">
        <ele>2186</ele>
        <time>2021-09-01T10:42:20.000Z</time>
      </trkpt>
      <trkpt lat="44.39613" lon="6.38619">
        <ele>2186</ele>
        <time>2021-09-01T10:42:21.000Z</time>
      </trkpt>
      <trkpt lat="44.39615" lon="6.38619">
        <ele>2187</ele>
        <time>2021-09-01T10:42:22.000Z</time>
      </trkpt>
      <trkpt lat="44.39617" lon="6.38618">
        <ele>2187</ele>
        <time>2021-09-01T10:42:23.000Z</time>
      </trkpt>
      <trkpt lat="44.39619" lon="6.38616">
        <ele>2187</ele>
        <time>2021-09-01T10:42:24.000Z</time>
      </trkpt>
      <trkpt lat="44.3962" lon="6.38613">
        <ele>2188</ele>
        <time>2021-09-01T10:42:25.000Z</time>
      </trkpt>
      <trkpt lat="44.39622" lon="6.38611">
        <ele>2188</ele>
        <time>2021-09-01T10:42:26.000Z</time>
      </trkpt>
      <trkpt lat="44.39624" lon="6.3861">
        <ele>2188</ele>
        <time>2021-09-01T10:42:27.000Z</time>
      </trkpt>
      <trkpt lat="44.39625" lon="6.38609">
        <ele>2188</ele>
        <time>2021-09-01T10:42:28.000Z</time>
      </trkpt>
      <trkpt lat="44.39625" lon="6.38609">
        <ele>2188</ele>
        <time>2021-09-01T10:42:29.000Z</time>
      </trkpt>
      <trkpt lat="44.39625" lon="6.38608">
        <ele>2189</ele>
        <time>2021-09-01T10:42:30.000Z</time>
      </trkpt>
      <trkpt lat="44.39626" lon="6.38608">
        <ele>2189</ele>
        <time>2021-09-01T10:42:31.000Z</time>
      </trkpt>
      <trkpt lat="44.39626" lon="6.3861">
        <ele>2188</ele>
        <time>2021-09-01T10:42:32.000Z</time>
      </trkpt>
      <trkpt lat="44.39627" lon="6.3861">
        <ele>2188</ele>
        <time>2021-09-01T10:42:33.000Z</time>
      </trkpt>
      <trkpt lat="44.39627" lon="6.38609">
        <ele>2187</ele>
        <time>2021-09-01T10:42:34.000Z</time>
      </trkpt>
      <trkpt lat="44.39628" lon="6.38609">
        <ele>2187</ele>
        <time>2021-09-01T10:42:35.000Z</time>
      </trkpt>
      <trkpt lat="44.39628" lon="6.38609">
        <ele>2188</ele>
        <time>2021-09-01T10:42:36.000Z</time>
      </trkpt>
      <trkpt lat="44.39628" lon="6.38609">
        <ele>2188</ele>
        <time>2021-09-01T10:42:37.000Z</time>
      </trkpt>
      <trkpt lat="44.39628" lon="6.38608">
        <ele>2187</ele>
        <time>2021-09-01T10:42:38.000Z</time>
      </trkpt>
      <trkpt lat="44.39629" lon="6.38608">
        <ele>2187</ele>
        <time>2021-09-01T10:42:39.000Z</time>
      </trkpt>
      <trkpt lat="44.3963" lon="6.38607">
        <ele>2187</ele>
        <time>2021-09-01T10:42:40.000Z</time>
      </trkpt>
      <trkpt lat="44.3963" lon="6.38605">
        <ele>2186</ele>
        <time>2021-09-01T10:42:41.000Z</time>
      </trkpt>
      <trkpt lat="44.39631" lon="6.38604">
        <ele>2186</ele>
        <time>2021-09-01T10:42:42.000Z</time>
      </trkpt>
      <trkpt lat="44.39631" lon="6.38602">
        <ele>2185</ele>
        <time>2021-09-01T10:42:43.000Z</time>
      </trkpt>
      <trkpt lat="44.39631" lon="6.38599">
        <ele>2184</ele>
        <time>2021-09-01T10:42:44.000Z</time>
      </trkpt>
      <trkpt lat="44.39631" lon="6.38597">
        <ele>2184</ele>
        <time>2021-09-01T10:42:45.000Z</time>
      </trkpt>
      <trkpt lat="44.39631" lon="6.38594">
        <ele>2184</ele>
        <time>2021-09-01T10:42:46.000Z</time>
      </trkpt>
      <trkpt lat="44.39632" lon="6.38592">
        <ele>2184</ele>
        <time>2021-09-01T10:42:47.000Z</time>
      </trkpt>
      <trkpt lat="44.39632" lon="6.3859">
        <ele>2184</ele>
        <time>2021-09-01T10:42:48.000Z</time>
      </trkpt>
      <trkpt lat="44.39633" lon="6.38588">
        <ele>2183</ele>
        <time>2021-09-01T10:42:49.000Z</time>
      </trkpt>
      <trkpt lat="44.39634" lon="6.38586">
        <ele>2182</ele>
        <time>2021-09-01T10:42:50.000Z</time>
      </trkpt>
      <trkpt lat="44.39635" lon="6.38585">
        <ele>2181</ele>
        <time>2021-09-01T10:42:51.000Z</time>
      </trkpt>
      <trkpt lat="44.39636" lon="6.38583">
        <ele>2181</ele>
        <time>2021-09-01T10:42:52.000Z</time>
      </trkpt>
      <trkpt lat="44.39638" lon="6.38581">
        <ele>2182</ele>
        <time>2021-09-01T10:42:53.000Z</time>
      </trkpt>
      <trkpt lat="44.3964" lon="6.38577">
        <ele>2184</ele>
        <time>2021-09-01T10:42:54.000Z</time>
      </trkpt>
      <trkpt lat="44.39642" lon="6.38576">
        <ele>2184</ele>
        <time>2021-09-01T10:42:55.000Z</time>
      </trkpt>
      <trkpt lat="44.39644" lon="6.38574">
        <ele>2185</ele>
        <time>2021-09-01T10:42:56.000Z</time>
      </trkpt>
      <trkpt lat="44.39645" lon="6.38573">
        <ele>2186</ele>
        <time>2021-09-01T10:42:57.000Z</time>
      </trkpt>
      <trkpt lat="44.39647" lon="6.38572">
        <ele>2186</ele>
        <time>2021-09-01T10:42:58.000Z</time>
      </trkpt>
      <trkpt lat="44.39649" lon="6.38572">
        <ele>2187</ele>
        <time>2021-09-01T10:42:59.000Z</time>
      </trkpt>
      <trkpt lat="44.39651" lon="6.38572">
        <ele>2188</ele>
        <time>2021-09-01T10:43:00.000Z</time>
      </trkpt>
      <trkpt lat="44.39653" lon="6.38571">
        <ele>2189</ele>
        <time>2021-09-01T10:43:01.000Z</time>
      </trkpt>
      <trkpt lat="44.39655" lon="6.3857">
        <ele>2190</ele>
        <time>2021-09-01T10:43:02.000Z</time>
      </trkpt>
      <trkpt lat="44.39657" lon="6.3857">
        <ele>2190</ele>
        <time>2021-09-01T10:43:03.000Z</time>
      </trkpt>
      <trkpt lat="44.39659" lon="6.3857">
        <ele>2191</ele>
        <time>2021-09-01T10:43:04.000Z</time>
      </trkpt>
      <trkpt lat="44.39661" lon="6.38569">
        <ele>2191</ele>
        <time>2021-09-01T10:43:05.000Z</time>
      </trkpt>
      <trkpt lat="44.39663" lon="6.38568">
        <ele>2192</ele>
        <time>2021-09-01T10:43:06.000Z</time>
      </trkpt>
      <trkpt lat="44.39665" lon="6.38567">
        <ele>2192</ele>
        <time>2021-09-01T10:43:07.000Z</time>
      </trkpt>
      <trkpt lat="44.39668" lon="6.38566">
        <ele>2193</ele>
        <time>2021-09-01T10:43:08.000Z</time>
      </trkpt>
      <trkpt lat="44.39669" lon="6.38565">
        <ele>2193</ele>
        <time>2021-09-01T10:43:09.000Z</time>
      </trkpt>
      <trkpt lat="44.39671" lon="6.38564">
        <ele>2193</ele>
        <time>2021-09-01T10:43:10.000Z</time>
      </trkpt>
      <trkpt lat="44.39672" lon="6.38561">
        <ele>2193</ele>
        <time>2021-09-01T10:43:11.000Z</time>
      </trkpt>
      <trkpt lat="44.39674" lon="6.3856">
        <ele>2194</ele>
        <time>2021-09-01T10:43:12.000Z</time>
      </trkpt>
      <trkpt lat="44.39676" lon="6.38559">
        <ele>2194</ele>
        <time>2021-09-01T10:43:13.000Z</time>
      </trkpt>
      <trkpt lat="44.39678" lon="6.38557">
        <ele>2195</ele>
        <time>2021-09-01T10:43:14.000Z</time>
      </trkpt>
      <trkpt lat="44.3968" lon="6.38556">
        <ele>2194</ele>
        <time>2021-09-01T10:43:15.000Z</time>
      </trkpt>
      <trkpt lat="44.39682" lon="6.38554">
        <ele>2194</ele>
        <time>2021-09-01T10:43:16.000Z</time>
      </trkpt>
      <trkpt lat="44.39683" lon="6.38553">
        <ele>2194</ele>
        <time>2021-09-01T10:43:17.000Z</time>
      </trkpt>
      <trkpt lat="44.39684" lon="6.38551">
        <ele>2194</ele>
        <time>2021-09-01T10:43:18.000Z</time>
      </trkpt>
      <trkpt lat="44.39686" lon="6.38549">
        <ele>2193</ele>
        <time>2021-09-01T10:43:19.000Z</time>
      </trkpt>
      <trkpt lat="44.39687" lon="6.38546">
        <ele>2194</ele>
        <time>2021-09-01T10:43:20.000Z</time>
      </trkpt>
      <trkpt lat="44.39689" lon="6.38545">
        <ele>2194</ele>
        <time>2021-09-01T10:43:21.000Z</time>
      </trkpt>
      <trkpt lat="44.3969" lon="6.38542">
        <ele>2194</ele>
        <time>2021-09-01T10:43:22.000Z</time>
      </trkpt>
      <trkpt lat="44.39692" lon="6.38541">
        <ele>2194</ele>
        <time>2021-09-01T10:43:23.000Z</time>
      </trkpt>
      <trkpt lat="44.39694" lon="6.38538">
        <ele>2194</ele>
        <time>2021-09-01T10:43:24.000Z</time>
      </trkpt>
      <trkpt lat="44.39695" lon="6.38537">
        <ele>2194</ele>
        <time>2021-09-01T10:43:25.000Z</time>
      </trkpt>
      <trkpt lat="44.39697" lon="6.38535">
        <ele>2194</ele>
        <time>2021-09-01T10:43:26.000Z</time>
      </trkpt>
      <trkpt lat="44.39699" lon="6.38534">
        <ele>2195</ele>
        <time>2021-09-01T10:43:27.000Z</time>
      </trkpt>
      <trkpt lat="44.39701" lon="6.38533">
        <ele>2195</ele>
        <time>2021-09-01T10:43:28.000Z</time>
      </trkpt>
      <trkpt lat="44.39703" lon="6.38531">
        <ele>2197</ele>
        <time>2021-09-01T10:43:29.000Z</time>
      </trkpt>
      <trkpt lat="44.39706" lon="6.3853">
        <ele>2199</ele>
        <time>2021-09-01T10:43:30.000Z</time>
      </trkpt>
      <trkpt lat="44.39708" lon="6.38529">
        <ele>2199</ele>
        <time>2021-09-01T10:43:31.000Z</time>
      </trkpt>
      <trkpt lat="44.3971" lon="6.38528">
        <ele>2199</ele>
        <time>2021-09-01T10:43:32.000Z</time>
      </trkpt>
      <trkpt lat="44.39713" lon="6.38528">
        <ele>2200</ele>
        <time>2021-09-01T10:43:33.000Z</time>
      </trkpt>
      <trkpt lat="44.39715" lon="6.38526">
        <ele>2200</ele>
        <time>2021-09-01T10:43:34.000Z</time>
      </trkpt>
      <trkpt lat="44.39716" lon="6.38526">
        <ele>2201</ele>
        <time>2021-09-01T10:43:35.000Z</time>
      </trkpt>
      <trkpt lat="44.39719" lon="6.38525">
        <ele>2201</ele>
        <time>2021-09-01T10:43:36.000Z</time>
      </trkpt>
      <trkpt lat="44.3972" lon="6.38525">
        <ele>2201</ele>
        <time>2021-09-01T10:43:37.000Z</time>
      </trkpt>
      <trkpt lat="44.39722" lon="6.38524">
        <ele>2202</ele>
        <time>2021-09-01T10:43:38.000Z</time>
      </trkpt>
      <trkpt lat="44.39724" lon="6.38523">
        <ele>2203</ele>
        <time>2021-09-01T10:43:39.000Z</time>
      </trkpt>
      <trkpt lat="44.39726" lon="6.38523">
        <ele>2203</ele>
        <time>2021-09-01T10:43:40.000Z</time>
      </trkpt>
      <trkpt lat="44.39728" lon="6.38522">
        <ele>2204</ele>
        <time>2021-09-01T10:43:41.000Z</time>
      </trkpt>
      <trkpt lat="44.3973" lon="6.38522">
        <ele>2205</ele>
        <time>2021-09-01T10:43:42.000Z</time>
      </trkpt>
      <trkpt lat="44.39732" lon="6.38522">
        <ele>2205</ele>
        <time>2021-09-01T10:43:43.000Z</time>
      </trkpt>
      <trkpt lat="44.39734" lon="6.38522">
        <ele>2205</ele>
        <time>2021-09-01T10:43:44.000Z</time>
      </trkpt>
      <trkpt lat="44.39735" lon="6.38521">
        <ele>2205</ele>
        <time>2021-09-01T10:43:45.000Z</time>
      </trkpt>
      <trkpt lat="44.39737" lon="6.38522">
        <ele>2205</ele>
        <time>2021-09-01T10:43:46.000Z</time>
      </trkpt>
      <trkpt lat="44.3974" lon="6.38521">
        <ele>2205</ele>
        <time>2021-09-01T10:43:47.000Z</time>
      </trkpt>
      <trkpt lat="44.39742" lon="6.38521">
        <ele>2206</ele>
        <time>2021-09-01T10:43:48.000Z</time>
      </trkpt>
      <trkpt lat="44.39744" lon="6.38521">
        <ele>2206</ele>
        <time>2021-09-01T10:43:49.000Z</time>
      </trkpt>
      <trkpt lat="44.39746" lon="6.38521">
        <ele>2207</ele>
        <time>2021-09-01T10:43:50.000Z</time>
      </trkpt>
      <trkpt lat="44.39748" lon="6.38521">
        <ele>2207</ele>
        <time>2021-09-01T10:43:51.000Z</time>
      </trkpt>
      <trkpt lat="44.3975" lon="6.38521">
        <ele>2207</ele>
        <time>2021-09-01T10:43:52.000Z</time>
      </trkpt>
      <trkpt lat="44.39752" lon="6.38521">
        <ele>2208</ele>
        <time>2021-09-01T10:43:53.000Z</time>
      </trkpt>
      <trkpt lat="44.39754" lon="6.38519">
        <ele>2208</ele>
        <time>2021-09-01T10:43:54.000Z</time>
      </trkpt>
      <trkpt lat="44.39756" lon="6.38519">
        <ele>2209</ele>
        <time>2021-09-01T10:43:55.000Z</time>
      </trkpt>
      <trkpt lat="44.39758" lon="6.38518">
        <ele>2209</ele>
        <time>2021-09-01T10:43:56.000Z</time>
      </trkpt>
      <trkpt lat="44.39761" lon="6.38516">
        <ele>2211</ele>
        <time>2021-09-01T10:43:57.000Z</time>
      </trkpt>
      <trkpt lat="44.39763" lon="6.38516">
        <ele>2211</ele>
        <time>2021-09-01T10:43:58.000Z</time>
      </trkpt>
      <trkpt lat="44.39765" lon="6.38516">
        <ele>2211</ele>
        <time>2021-09-01T10:43:59.000Z</time>
      </trkpt>
      <trkpt lat="44.39768" lon="6.38516">
        <ele>2211</ele>
        <time>2021-09-01T10:44:00.000Z</time>
      </trkpt>
      <trkpt lat="44.3977" lon="6.38516">
        <ele>2212</ele>
        <time>2021-09-01T10:44:01.000Z</time>
      </trkpt>
      <trkpt lat="44.39772" lon="6.38516">
        <ele>2212</ele>
        <time>2021-09-01T10:44:02.000Z</time>
      </trkpt>
      <trkpt lat="44.39774" lon="6.38516">
        <ele>2212</ele>
        <time>2021-09-01T10:44:03.000Z</time>
      </trkpt>
      <trkpt lat="44.39777" lon="6.38517">
        <ele>2212</ele>
        <time>2021-09-01T10:44:04.000Z</time>
      </trkpt>
      <trkpt lat="44.39779" lon="6.38517">
        <ele>2212</ele>
        <time>2021-09-01T10:44:05.000Z</time>
      </trkpt>
      <trkpt lat="44.3978" lon="6.38516">
        <ele>2212</ele>
        <time>2021-09-01T10:44:06.000Z</time>
      </trkpt>
      <trkpt lat="44.39783" lon="6.38516">
        <ele>2212</ele>
        <time>2021-09-01T10:44:07.000Z</time>
      </trkpt>
      <trkpt lat="44.39785" lon="6.38515">
        <ele>2213</ele>
        <time>2021-09-01T10:44:08.000Z</time>
      </trkpt>
      <trkpt lat="44.39788" lon="6.38515">
        <ele>2214</ele>
        <time>2021-09-01T10:44:09.000Z</time>
      </trkpt>
      <trkpt lat="44.3979" lon="6.38514">
        <ele>2215</ele>
        <time>2021-09-01T10:44:10.000Z</time>
      </trkpt>
      <trkpt lat="44.39792" lon="6.38514">
        <ele>2215</ele>
        <time>2021-09-01T10:44:11.000Z</time>
      </trkpt>
      <trkpt lat="44.39793" lon="6.38513">
        <ele>2216</ele>
        <time>2021-09-01T10:44:12.000Z</time>
      </trkpt>
      <trkpt lat="44.39796" lon="6.38513">
        <ele>2216</ele>
        <time>2021-09-01T10:44:13.000Z</time>
      </trkpt>
      <trkpt lat="44.39798" lon="6.38513">
        <ele>2217</ele>
        <time>2021-09-01T10:44:14.000Z</time>
      </trkpt>
      <trkpt lat="44.39799" lon="6.38512">
        <ele>2217</ele>
        <time>2021-09-01T10:44:15.000Z</time>
      </trkpt>
      <trkpt lat="44.39801" lon="6.38511">
        <ele>2217</ele>
        <time>2021-09-01T10:44:16.000Z</time>
      </trkpt>
      <trkpt lat="44.39804" lon="6.38511">
        <ele>2217</ele>
        <time>2021-09-01T10:44:17.000Z</time>
      </trkpt>
      <trkpt lat="44.39806" lon="6.38511">
        <ele>2218</ele>
        <time>2021-09-01T10:44:18.000Z</time>
      </trkpt>
      <trkpt lat="44.39808" lon="6.38511">
        <ele>2218</ele>
        <time>2021-09-01T10:44:19.000Z</time>
      </trkpt>
      <trkpt lat="44.39811" lon="6.38511">
        <ele>2219</ele>
        <time>2021-09-01T10:44:20.000Z</time>
      </trkpt>
      <trkpt lat="44.39813" lon="6.38511">
        <ele>2219</ele>
        <time>2021-09-01T10:44:21.000Z</time>
      </trkpt>
      <trkpt lat="44.39815" lon="6.38511">
        <ele>2219</ele>
        <time>2021-09-01T10:44:22.000Z</time>
      </trkpt>
      <trkpt lat="44.39817" lon="6.38512">
        <ele>2220</ele>
        <time>2021-09-01T10:44:23.000Z</time>
      </trkpt>
      <trkpt lat="44.39819" lon="6.38511">
        <ele>2220</ele>
        <time>2021-09-01T10:44:24.000Z</time>
      </trkpt>
      <trkpt lat="44.3982" lon="6.3851">
        <ele>2221</ele>
        <time>2021-09-01T10:44:25.000Z</time>
      </trkpt>
      <trkpt lat="44.39822" lon="6.3851">
        <ele>2221</ele>
        <time>2021-09-01T10:44:26.000Z</time>
      </trkpt>
      <trkpt lat="44.39824" lon="6.3851">
        <ele>2221</ele>
        <time>2021-09-01T10:44:27.000Z</time>
      </trkpt>
      <trkpt lat="44.39826" lon="6.3851">
        <ele>2221</ele>
        <time>2021-09-01T10:44:28.000Z</time>
      </trkpt>
      <trkpt lat="44.39828" lon="6.3851">
        <ele>2222</ele>
        <time>2021-09-01T10:44:29.000Z</time>
      </trkpt>
      <trkpt lat="44.3983" lon="6.38511">
        <ele>2221</ele>
        <time>2021-09-01T10:44:30.000Z</time>
      </trkpt>
      <trkpt lat="44.39832" lon="6.38511">
        <ele>2222</ele>
        <time>2021-09-01T10:44:31.000Z</time>
      </trkpt>
      <trkpt lat="44.39834" lon="6.38512">
        <ele>2223</ele>
        <time>2021-09-01T10:44:32.000Z</time>
      </trkpt>
      <trkpt lat="44.39836" lon="6.38511">
        <ele>2224</ele>
        <time>2021-09-01T10:44:33.000Z</time>
      </trkpt>
      <trkpt lat="44.39838" lon="6.38511">
        <ele>2224</ele>
        <time>2021-09-01T10:44:34.000Z</time>
      </trkpt>
      <trkpt lat="44.39839" lon="6.38511">
        <ele>2225</ele>
        <time>2021-09-01T10:44:35.000Z</time>
      </trkpt>
      <trkpt lat="44.39841" lon="6.38512">
        <ele>2225</ele>
        <time>2021-09-01T10:44:36.000Z</time>
      </trkpt>
      <trkpt lat="44.39844" lon="6.38512">
        <ele>2225</ele>
        <time>2021-09-01T10:44:37.000Z</time>
      </trkpt>
      <trkpt lat="44.39845" lon="6.38512">
        <ele>2225</ele>
        <time>2021-09-01T10:44:38.000Z</time>
      </trkpt>
      <trkpt lat="44.39845" lon="6.38511">
        <ele>2226</ele>
        <time>2021-09-01T10:44:39.000Z</time>
      </trkpt>
      <trkpt lat="44.39847" lon="6.38511">
        <ele>2226</ele>
        <time>2021-09-01T10:44:40.000Z</time>
      </trkpt>
      <trkpt lat="44.39849" lon="6.38511">
        <ele>2226</ele>
        <time>2021-09-01T10:44:41.000Z</time>
      </trkpt>
      <trkpt lat="44.39852" lon="6.38511">
        <ele>2226</ele>
        <time>2021-09-01T10:44:42.000Z</time>
      </trkpt>
      <trkpt lat="44.39854" lon="6.38512">
        <ele>2225</ele>
        <time>2021-09-01T10:44:43.000Z</time>
      </trkpt>
      <trkpt lat="44.39856" lon="6.38512">
        <ele>2224</ele>
        <time>2021-09-01T10:44:44.000Z</time>
      </trkpt>
      <trkpt lat="44.39858" lon="6.38511">
        <ele>2226</ele>
        <time>2021-09-01T10:44:45.000Z</time>
      </trkpt>
      <trkpt lat="44.3986" lon="6.38511">
        <ele>2226</ele>
        <time>2021-09-01T10:44:46.000Z</time>
      </trkpt>
      <trkpt lat="44.39863" lon="6.3851">
        <ele>2225</ele>
        <time>2021-09-01T10:44:47.000Z</time>
      </trkpt>
      <trkpt lat="44.39865" lon="6.38509">
        <ele>2224</ele>
        <time>2021-09-01T10:44:48.000Z</time>
      </trkpt>
      <trkpt lat="44.39867" lon="6.3851">
        <ele>2221</ele>
        <time>2021-09-01T10:44:49.000Z</time>
      </trkpt>
      <trkpt lat="44.39868" lon="6.3851">
        <ele>2221</ele>
        <time>2021-09-01T10:44:50.000Z</time>
      </trkpt>
      <trkpt lat="44.39869" lon="6.38509">
        <ele>2221</ele>
        <time>2021-09-01T10:44:51.000Z</time>
      </trkpt>
      <trkpt lat="44.39869" lon="6.38509">
        <ele>2221</ele>
        <time>2021-09-01T10:44:52.000Z</time>
      </trkpt>
      <trkpt lat="44.3987" lon="6.3851">
        <ele>2220</ele>
        <time>2021-09-01T10:44:53.000Z</time>
      </trkpt>
      <trkpt lat="44.3987" lon="6.38511">
        <ele>2218</ele>
        <time>2021-09-01T10:44:54.000Z</time>
      </trkpt>
      <trkpt lat="44.3987" lon="6.38511">
        <ele>2218</ele>
        <time>2021-09-01T10:44:55.000Z</time>
      </trkpt>
      <trkpt lat="44.39871" lon="6.38511">
        <ele>2218</ele>
        <time>2021-09-01T10:44:56.000Z</time>
      </trkpt>
      <trkpt lat="44.39871" lon="6.38511">
        <ele>2218</ele>
        <time>2021-09-01T10:44:57.000Z</time>
      </trkpt>
      <trkpt lat="44.39871" lon="6.38511">
        <ele>2218</ele>
        <time>2021-09-01T10:44:58.000Z</time>
      </trkpt>
      <trkpt lat="44.39872" lon="6.38511">
        <ele>2218</ele>
        <time>2021-09-01T10:44:59.000Z</time>
      </trkpt>
      <trkpt lat="44.39872" lon="6.38511">
        <ele>2218</ele>
        <time>2021-09-01T10:45:00.000Z</time>
      </trkpt>
      <trkpt lat="44.39872" lon="6.38511">
        <ele>2218</ele>
        <time>2021-09-01T10:45:01.000Z</time>
      </trkpt>
      <trkpt lat="44.39872" lon="6.38511">
        <ele>2217</ele>
        <time>2021-09-01T10:45:02.000Z</time>
      </trkpt>
      <trkpt lat="44.39873" lon="6.38511">
        <ele>2217</ele>
        <time>2021-09-01T10:45:03.000Z</time>
      </trkpt>
      <trkpt lat="44.39873" lon="6.38511">
        <ele>2217</ele>
        <time>2021-09-01T10:45:04.000Z</time>
      </trkpt>
      <trkpt lat="44.39873" lon="6.38511">
        <ele>2217</ele>
        <time>2021-09-01T10:45:05.000Z</time>
      </trkpt>
      <trkpt lat="44.39873" lon="6.38512">
        <ele>2217</ele>
        <time>2021-09-01T10:45:06.000Z</time>
      </trkpt>
      <trkpt lat="44.39874" lon="6.38512">
        <ele>2217</ele>
        <time>2021-09-01T10:45:07.000Z</time>
      </trkpt>
      <trkpt lat="44.39874" lon="6.38512">
        <ele>2217</ele>
        <time>2021-09-01T10:45:08.000Z</time>
      </trkpt>
      <trkpt lat="44.39875" lon="6.38513">
        <ele>2217</ele>
        <time>2021-09-01T10:45:09.000Z</time>
      </trkpt>
      <trkpt lat="44.39875" lon="6.38513">
        <ele>2217</ele>
        <time>2021-09-01T10:45:10.000Z</time>
      </trkpt>
      <trkpt lat="44.39875" lon="6.38513">
        <ele>2216</ele>
        <time>2021-09-01T10:45:11.000Z</time>
      </trkpt>
      <trkpt lat="44.39875" lon="6.38513">
        <ele>2216</ele>
        <time>2021-09-01T10:45:12.000Z</time>
      </trkpt>
      <trkpt lat="44.39876" lon="6.38513">
        <ele>2216</ele>
        <time>2021-09-01T10:45:13.000Z</time>
      </trkpt>
      <trkpt lat="44.39876" lon="6.38513">
        <ele>2216</ele>
        <time>2021-09-01T10:45:14.000Z</time>
      </trkpt>
      <trkpt lat="44.39876" lon="6.38513">
        <ele>2216</ele>
        <time>2021-09-01T10:45:15.000Z</time>
      </trkpt>
      <trkpt lat="44.39876" lon="6.38513">
        <ele>2216</ele>
        <time>2021-09-01T10:45:16.000Z</time>
      </trkpt>
      <trkpt lat="44.39876" lon="6.38513">
        <ele>2216</ele>
        <time>2021-09-01T10:45:17.000Z</time>
      </trkpt>
      <trkpt lat="44.39877" lon="6.38514">
        <ele>2216</ele>
        <time>2021-09-01T10:45:18.000Z</time>
      </trkpt>
      <trkpt lat="44.39877" lon="6.38514">
        <ele>2216</ele>
        <time>2021-09-01T10:45:19.000Z</time>
      </trkpt>
      <trkpt lat="44.39877" lon="6.38515">
        <ele>2216</ele>
        <time>2021-09-01T10:45:20.000Z</time>
      </trkpt>
      <trkpt lat="44.39877" lon="6.38515">
        <ele>2216</ele>
        <time>2021-09-01T10:45:21.000Z</time>
      </trkpt>
      <trkpt lat="44.39877" lon="6.38516">
        <ele>2216</ele>
        <time>2021-09-01T10:45:22.000Z</time>
      </trkpt>
      <trkpt lat="44.39876" lon="6.38516">
        <ele>2215</ele>
        <time>2021-09-01T10:45:23.000Z</time>
      </trkpt>
      <trkpt lat="44.39876" lon="6.38516">
        <ele>2216</ele>
        <time>2021-09-01T10:45:24.000Z</time>
      </trkpt>
      <trkpt lat="44.39876" lon="6.38516">
        <ele>2216</ele>
        <time>2021-09-01T10:45:25.000Z</time>
      </trkpt>
      <trkpt lat="44.39876" lon="6.38516">
        <ele>2216</ele>
        <time>2021-09-01T10:45:26.000Z</time>
      </trkpt>
      <trkpt lat="44.39876" lon="6.38516">
        <ele>2216</ele>
        <time>2021-09-01T10:45:27.000Z</time>
      </trkpt>
      <trkpt lat="44.39876" lon="6.38517">
        <ele>2215</ele>
        <time>2021-09-01T10:45:28.000Z</time>
      </trkpt>
      <trkpt lat="44.39876" lon="6.38517">
        <ele>2216</ele>
        <time>2021-09-01T10:45:29.000Z</time>
      </trkpt>
      <trkpt lat="44.39877" lon="6.38516">
        <ele>2216</ele>
        <time>2021-09-01T10:45:30.000Z</time>
      </trkpt>
      <trkpt lat="44.39877" lon="6.38517">
        <ele>2216</ele>
        <time>2021-09-01T10:45:31.000Z</time>
      </trkpt>
      <trkpt lat="44.39877" lon="6.38517">
        <ele>2216</ele>
        <time>2021-09-01T10:45:32.000Z</time>
      </trkpt>
      <trkpt lat="44.39877" lon="6.38517">
        <ele>2216</ele>
        <time>2021-09-01T10:45:33.000Z</time>
      </trkpt>
      <trkpt lat="44.39877" lon="6.38517">
        <ele>2216</ele>
        <time>2021-09-01T10:45:34.000Z</time>
      </trkpt>
      <trkpt lat="44.39877" lon="6.38517">
        <ele>2216</ele>
        <time>2021-09-01T10:45:35.000Z</time>
      </trkpt>
      <trkpt lat="44.39877" lon="6.38517">
        <ele>2216</ele>
        <time>2021-09-01T10:45:36.000Z</time>
      </trkpt>
      <trkpt lat="44.39877" lon="6.38516">
        <ele>2216</ele>
        <time>2021-09-01T10:45:37.000Z</time>
      </trkpt>
      <trkpt lat="44.39877" lon="6.38516">
        <ele>2216</ele>
        <time>2021-09-01T10:45:38.000Z</time>
      </trkpt>
      <trkpt lat="44.39877" lon="6.38516">
        <ele>2216</ele>
        <time>2021-09-01T10:45:39.000Z</time>
      </trkpt>
      <trkpt lat="44.39877" lon="6.38516">
        <ele>2216</ele>
        <time>2021-09-01T10:45:40.000Z</time>
      </trkpt>
      <trkpt lat="44.39878" lon="6.38516">
        <ele>2215</ele>
        <time>2021-09-01T10:45:41.000Z</time>
      </trkpt>
      <trkpt lat="44.39877" lon="6.38516">
        <ele>2215</ele>
        <time>2021-09-01T10:45:42.000Z</time>
      </trkpt>
      <trkpt lat="44.39877" lon="6.38516">
        <ele>2215</ele>
        <time>2021-09-01T10:45:43.000Z</time>
      </trkpt>
      <trkpt lat="44.39877" lon="6.38516">
        <ele>2215</ele>
        <time>2021-09-01T10:45:44.000Z</time>
      </trkpt>
      <trkpt lat="44.39878" lon="6.38516">
        <ele>2215</ele>
        <time>2021-09-01T10:45:45.000Z</time>
      </trkpt>
      <trkpt lat="44.39878" lon="6.38516">
        <ele>2215</ele>
        <time>2021-09-01T10:45:46.000Z</time>
      </trkpt>
      <trkpt lat="44.39877" lon="6.38516">
        <ele>2215</ele>
        <time>2021-09-01T10:45:47.000Z</time>
      </trkpt>
      <trkpt lat="44.39877" lon="6.38516">
        <ele>2215</ele>
        <time>2021-09-01T10:45:48.000Z</time>
      </trkpt>
      <trkpt lat="44.39878" lon="6.38516">
        <ele>2215</ele>
        <time>2021-09-01T10:45:49.000Z</time>
      </trkpt>
      <trkpt lat="44.39878" lon="6.38516">
        <ele>2215</ele>
        <time>2021-09-01T10:45:50.000Z</time>
      </trkpt>
      <trkpt lat="44.39878" lon="6.38516">
        <ele>2215</ele>
        <time>2021-09-01T10:45:51.000Z</time>
      </trkpt>
      <trkpt lat="44.39878" lon="6.38516">
        <ele>2215</ele>
        <time>2021-09-01T10:45:52.000Z</time>
      </trkpt>
      <trkpt lat="44.39878" lon="6.38516">
        <ele>2216</ele>
        <time>2021-09-01T10:45:53.000Z</time>
      </trkpt>
      <trkpt lat="44.39878" lon="6.38516">
        <ele>2216</ele>
        <time>2021-09-01T10:45:54.000Z</time>
      </trkpt>
      <trkpt lat="44.39878" lon="6.38516">
        <ele>2216</ele>
        <time>2021-09-01T10:45:55.000Z</time>
      </trkpt>
      <trkpt lat="44.39878" lon="6.38515">
        <ele>2216</ele>
        <time>2021-09-01T10:45:56.000Z</time>
      </trkpt>
      <trkpt lat="44.39878" lon="6.38515">
        <ele>2216</ele>
        <time>2021-09-01T10:45:57.000Z</time>
      </trkpt>
      <trkpt lat="44.39878" lon="6.38515">
        <ele>2216</ele>
        <time>2021-09-01T10:45:58.000Z</time>
      </trkpt>
      <trkpt lat="44.39878" lon="6.38515">
        <ele>2216</ele>
        <time>2021-09-01T10:45:59.000Z</time>
      </trkpt>
      <trkpt lat="44.39878" lon="6.38515">
        <ele>2216</ele>
        <time>2021-09-01T10:46:00.000Z</time>
      </trkpt>
      <trkpt lat="44.39878" lon="6.38515">
        <ele>2216</ele>
        <time>2021-09-01T10:46:01.000Z</time>
      </trkpt>
      <trkpt lat="44.39878" lon="6.38515">
        <ele>2216</ele>
        <time>2021-09-01T10:46:02.000Z</time>
      </trkpt>
      <trkpt lat="44.39878" lon="6.38515">
        <ele>2216</ele>
        <time>2021-09-01T10:46:03.000Z</time>
      </trkpt>
      <trkpt lat="44.39878" lon="6.38515">
        <ele>2216</ele>
        <time>2021-09-01T10:46:04.000Z</time>
      </trkpt>
      <trkpt lat="44.39878" lon="6.38515">
        <ele>2216</ele>
        <time>2021-09-01T10:46:05.000Z</time>
      </trkpt>
      <trkpt lat="44.39878" lon="6.38515">
        <ele>2216</ele>
        <time>2021-09-01T10:46:06.000Z</time>
      </trkpt>
      <trkpt lat="44.39878" lon="6.38515">
        <ele>2216</ele>
        <time>2021-09-01T10:46:07.000Z</time>
      </trkpt>
      <trkpt lat="44.39878" lon="6.38515">
        <ele>2216</ele>
        <time>2021-09-01T10:46:08.000Z</time>
      </trkpt>
      <trkpt lat="44.39878" lon="6.38515">
        <ele>2216</ele>
        <time>2021-09-01T10:46:09.000Z</time>
      </trkpt>
      <trkpt lat="44.39878" lon="6.38515">
        <ele>2216</ele>
        <time>2021-09-01T10:46:10.000Z</time>
      </trkpt>
      <trkpt lat="44.39878" lon="6.38515">
        <ele>2216</ele>
        <time>2021-09-01T10:46:11.000Z</time>
      </trkpt>
      <trkpt lat="44.39878" lon="6.38515">
        <ele>2216</ele>
        <time>2021-09-01T10:46:12.000Z</time>
      </trkpt>
      <trkpt lat="44.39878" lon="6.38515">
        <ele>2215</ele>
        <time>2021-09-01T10:46:13.000Z</time>
      </trkpt>
      <trkpt lat="44.39878" lon="6.38515">
        <ele>2215</ele>
        <time>2021-09-01T10:46:14.000Z</time>
      </trkpt>
      <trkpt lat="44.39878" lon="6.38515">
        <ele>2215</ele>
        <time>2021-09-01T10:46:15.000Z</time>
      </trkpt>
      <trkpt lat="44.39878" lon="6.38515">
        <ele>2215</ele>
        <time>2021-09-01T10:46:16.000Z</time>
      </trkpt>
      <trkpt lat="44.39878" lon="6.38515">
        <ele>2215</ele>
        <time>2021-09-01T10:46:17.000Z</time>
      </trkpt>
      <trkpt lat="44.39878" lon="6.38515">
        <ele>2215</ele>
        <time>2021-09-01T10:46:18.000Z</time>
      </trkpt>
      <trkpt lat="44.39878" lon="6.38515">
        <ele>2215</ele>
        <time>2021-09-01T10:46:19.000Z</time>
      </trkpt>
      <trkpt lat="44.39878" lon="6.38515">
        <ele>2215</ele>
        <time>2021-09-01T10:46:20.000Z</time>
      </trkpt>
      <trkpt lat="44.39878" lon="6.38515">
        <ele>2215</ele>
        <time>2021-09-01T10:46:21.000Z</time>
      </trkpt>
      <trkpt lat="44.39878" lon="6.38516">
        <ele>2214</ele>
        <time>2021-09-01T10:46:22.000Z</time>
      </trkpt>
      <trkpt lat="44.39878" lon="6.38516">
        <ele>2214</ele>
        <time>2021-09-01T10:46:23.000Z</time>
      </trkpt>
      <trkpt lat="44.39878" lon="6.38516">
        <ele>2214</ele>
        <time>2021-09-01T10:46:24.000Z</time>
      </trkpt>
      <trkpt lat="44.39878" lon="6.38516">
        <ele>2214</ele>
        <time>2021-09-01T10:46:25.000Z</time>
      </trkpt>
      <trkpt lat="44.39878" lon="6.38516">
        <ele>2214</ele>
        <time>2021-09-01T10:46:26.000Z</time>
      </trkpt>
      <trkpt lat="44.39878" lon="6.38516">
        <ele>2214</ele>
        <time>2021-09-01T10:46:27.000Z</time>
      </trkpt>
      <trkpt lat="44.39878" lon="6.38516">
        <ele>2214</ele>
        <time>2021-09-01T10:46:28.000Z</time>
      </trkpt>
      <trkpt lat="44.39878" lon="6.38516">
        <ele>2215</ele>
        <time>2021-09-01T10:46:29.000Z</time>
      </trkpt>
      <trkpt lat="44.39878" lon="6.38516">
        <ele>2215</ele>
        <time>2021-09-01T10:46:30.000Z</time>
      </trkpt>
      <trkpt lat="44.39878" lon="6.38516">
        <ele>2215</ele>
        <time>2021-09-01T10:46:31.000Z</time>
      </trkpt>
      <trkpt lat="44.39878" lon="6.38516">
        <ele>2215</ele>
        <time>2021-09-01T10:46:32.000Z</time>
      </trkpt>
      <trkpt lat="44.39879" lon="6.38516">
        <ele>2215</ele>
        <time>2021-09-01T10:46:33.000Z</time>
      </trkpt>
      <trkpt lat="44.39879" lon="6.38516">
        <ele>2215</ele>
        <time>2021-09-01T10:46:34.000Z</time>
      </trkpt>
      <trkpt lat="44.39879" lon="6.38516">
        <ele>2215</ele>
        <time>2021-09-01T10:46:35.000Z</time>
      </trkpt>
      <trkpt lat="44.39879" lon="6.38515">
        <ele>2215</ele>
        <time>2021-09-01T10:46:36.000Z</time>
      </trkpt>
      <trkpt lat="44.39879" lon="6.38515">
        <ele>2215</ele>
        <time>2021-09-01T10:46:37.000Z</time>
      </trkpt>
      <trkpt lat="44.39879" lon="6.38515">
        <ele>2216</ele>
        <time>2021-09-01T10:46:38.000Z</time>
      </trkpt>
      <trkpt lat="44.39879" lon="6.38515">
        <ele>2216</ele>
        <time>2021-09-01T10:46:39.000Z</time>
      </trkpt>
      <trkpt lat="44.3988" lon="6.38515">
        <ele>2216</ele>
        <time>2021-09-01T10:46:40.000Z</time>
      </trkpt>
      <trkpt lat="44.3988" lon="6.38514">
        <ele>2216</ele>
        <time>2021-09-01T10:46:41.000Z</time>
      </trkpt>
      <trkpt lat="44.3988" lon="6.38514">
        <ele>2216</ele>
        <time>2021-09-01T10:46:42.000Z</time>
      </trkpt>
      <trkpt lat="44.3988" lon="6.38514">
        <ele>2216</ele>
        <time>2021-09-01T10:46:43.000Z</time>
      </trkpt>
      <trkpt lat="44.3988" lon="6.38514">
        <ele>2216</ele>
        <time>2021-09-01T10:46:44.000Z</time>
      </trkpt>
      <trkpt lat="44.3988" lon="6.38514">
        <ele>2216</ele>
        <time>2021-09-01T10:46:45.000Z</time>
      </trkpt>
      <trkpt lat="44.3988" lon="6.38514">
        <ele>2217</ele>
        <time>2021-09-01T10:46:46.000Z</time>
      </trkpt>
      <trkpt lat="44.3988" lon="6.38514">
        <ele>2217</ele>
        <time>2021-09-01T10:46:47.000Z</time>
      </trkpt>
      <trkpt lat="44.3988" lon="6.38514">
        <ele>2217</ele>
        <time>2021-09-01T10:46:48.000Z</time>
      </trkpt>
      <trkpt lat="44.3988" lon="6.38513">
        <ele>2218</ele>
        <time>2021-09-01T10:46:49.000Z</time>
      </trkpt>
      <trkpt lat="44.3988" lon="6.38513">
        <ele>2218</ele>
        <time>2021-09-01T10:46:50.000Z</time>
      </trkpt>
      <trkpt lat="44.3988" lon="6.38514">
        <ele>2218</ele>
        <time>2021-09-01T10:46:51.000Z</time>
      </trkpt>
      <trkpt lat="44.3988" lon="6.38514">
        <ele>2218</ele>
        <time>2021-09-01T10:46:52.000Z</time>
      </trkpt>
      <trkpt lat="44.3988" lon="6.38514">
        <ele>2218</ele>
        <time>2021-09-01T10:46:53.000Z</time>
      </trkpt>
      <trkpt lat="44.3988" lon="6.38514">
        <ele>2218</ele>
        <time>2021-09-01T10:46:54.000Z</time>
      </trkpt>
      <trkpt lat="44.3988" lon="6.38514">
        <ele>2218</ele>
        <time>2021-09-01T10:46:55.000Z</time>
      </trkpt>
      <trkpt lat="44.3988" lon="6.38514">
        <ele>2218</ele>
        <time>2021-09-01T10:46:56.000Z</time>
      </trkpt>
      <trkpt lat="44.3988" lon="6.38514">
        <ele>2218</ele>
        <time>2021-09-01T10:46:57.000Z</time>
      </trkpt>
      <trkpt lat="44.3988" lon="6.38514">
        <ele>2218</ele>
        <time>2021-09-01T10:46:58.000Z</time>
      </trkpt>
      <trkpt lat="44.3988" lon="6.38514">
        <ele>2218</ele>
        <time>2021-09-01T10:46:59.000Z</time>
      </trkpt>
      <trkpt lat="44.39881" lon="6.38514">
        <ele>2218</ele>
        <time>2021-09-01T10:47:00.000Z</time>
      </trkpt>
      <trkpt lat="44.39881" lon="6.38514">
        <ele>2218</ele>
        <time>2021-09-01T10:47:01.000Z</time>
      </trkpt>
      <trkpt lat="44.39881" lon="6.38515">
        <ele>2218</ele>
        <time>2021-09-01T10:47:02.000Z</time>
      </trkpt>
      <trkpt lat="44.39881" lon="6.38515">
        <ele>2218</ele>
        <time>2021-09-01T10:47:03.000Z</time>
      </trkpt>
      <trkpt lat="44.39881" lon="6.38515">
        <ele>2218</ele>
        <time>2021-09-01T10:47:04.000Z</time>
      </trkpt>
      <trkpt lat="44.39881" lon="6.38515">
        <ele>2218</ele>
        <time>2021-09-01T10:47:05.000Z</time>
      </trkpt>
      <trkpt lat="44.39881" lon="6.38514">
        <ele>2218</ele>
        <time>2021-09-01T10:47:06.000Z</time>
      </trkpt>
      <trkpt lat="44.3988" lon="6.38514">
        <ele>2218</ele>
        <time>2021-09-01T10:47:07.000Z</time>
      </trkpt>
      <trkpt lat="44.3988" lon="6.38514">
        <ele>2218</ele>
        <time>2021-09-01T10:47:08.000Z</time>
      </trkpt>
      <trkpt lat="44.3988" lon="6.38515">
        <ele>2218</ele>
        <time>2021-09-01T10:47:09.000Z</time>
      </trkpt>
      <trkpt lat="44.3988" lon="6.38515">
        <ele>2218</ele>
        <time>2021-09-01T10:47:10.000Z</time>
      </trkpt>
      <trkpt lat="44.3988" lon="6.38515">
        <ele>2218</ele>
        <time>2021-09-01T10:47:11.000Z</time>
      </trkpt>
      <trkpt lat="44.3988" lon="6.38515">
        <ele>2218</ele>
        <time>2021-09-01T10:47:12.000Z</time>
      </trkpt>
      <trkpt lat="44.3988" lon="6.38514">
        <ele>2218</ele>
        <time>2021-09-01T10:47:13.000Z</time>
      </trkpt>
      <trkpt lat="44.3988" lon="6.38514">
        <ele>2218</ele>
        <time>2021-09-01T10:47:14.000Z</time>
      </trkpt>
      <trkpt lat="44.3988" lon="6.38514">
        <ele>2218</ele>
        <time>2021-09-01T10:47:15.000Z</time>
      </trkpt>
      <trkpt lat="44.3988" lon="6.38514">
        <ele>2218</ele>
        <time>2021-09-01T10:47:16.000Z</time>
      </trkpt>
      <trkpt lat="44.39881" lon="6.38515">
        <ele>2218</ele>
        <time>2021-09-01T10:47:17.000Z</time>
      </trkpt>
      <trkpt lat="44.39881" lon="6.38514">
        <ele>2218</ele>
        <time>2021-09-01T10:47:18.000Z</time>
      </trkpt>
      <trkpt lat="44.39881" lon="6.38515">
        <ele>2218</ele>
        <time>2021-09-01T10:47:19.000Z</time>
      </trkpt>
      <trkpt lat="44.39881" lon="6.38515">
        <ele>2218</ele>
        <time>2021-09-01T10:47:20.000Z</time>
      </trkpt>
      <trkpt lat="44.39881" lon="6.38515">
        <ele>2218</ele>
        <time>2021-09-01T10:47:21.000Z</time>
      </trkpt>
      <trkpt lat="44.3988" lon="6.38515">
        <ele>2218</ele>
        <time>2021-09-01T10:47:22.000Z</time>
      </trkpt>
      <trkpt lat="44.39881" lon="6.38515">
        <ele>2218</ele>
        <time>2021-09-01T10:47:23.000Z</time>
      </trkpt>
      <trkpt lat="44.39881" lon="6.38515">
        <ele>2218</ele>
        <time>2021-09-01T10:47:24.000Z</time>
      </trkpt>
      <trkpt lat="44.39881" lon="6.38515">
        <ele>2218</ele>
        <time>2021-09-01T10:47:25.000Z</time>
      </trkpt>
      <trkpt lat="44.39881" lon="6.38515">
        <ele>2218</ele>
        <time>2021-09-01T10:47:26.000Z</time>
      </trkpt>
      <trkpt lat="44.39881" lon="6.38515">
        <ele>2218</ele>
        <time>2021-09-01T10:47:27.000Z</time>
      </trkpt>
      <trkpt lat="44.39881" lon="6.38515">
        <ele>2218</ele>
        <time>2021-09-01T10:47:28.000Z</time>
      </trkpt>
      <trkpt lat="44.3988" lon="6.38515">
        <ele>2218</ele>
        <time>2021-09-01T10:47:29.000Z</time>
      </trkpt>
      <trkpt lat="44.3988" lon="6.38515">
        <ele>2218</ele>
        <time>2021-09-01T10:47:30.000Z</time>
      </trkpt>
      <trkpt lat="44.3988" lon="6.38515">
        <ele>2218</ele>
        <time>2021-09-01T10:47:31.000Z</time>
      </trkpt>
      <trkpt lat="44.3988" lon="6.38515">
        <ele>2217</ele>
        <time>2021-09-01T10:47:32.000Z</time>
      </trkpt>
      <trkpt lat="44.3988" lon="6.38515">
        <ele>2217</ele>
        <time>2021-09-01T10:47:33.000Z</time>
      </trkpt>
      <trkpt lat="44.3988" lon="6.38515">
        <ele>2217</ele>
        <time>2021-09-01T10:47:34.000Z</time>
      </trkpt>
      <trkpt lat="44.39881" lon="6.38515">
        <ele>2217</ele>
        <time>2021-09-01T10:47:35.000Z</time>
      </trkpt>
      <trkpt lat="44.39882" lon="6.38515">
        <ele>2217</ele>
        <time>2021-09-01T10:47:36.000Z</time>
      </trkpt>
      <trkpt lat="44.39884" lon="6.38514">
        <ele>2217</ele>
        <time>2021-09-01T10:47:37.000Z</time>
      </trkpt>
      <trkpt lat="44.39886" lon="6.38513">
        <ele>2217</ele>
        <time>2021-09-01T10:47:38.000Z</time>
      </trkpt>
      <trkpt lat="44.39887" lon="6.38513">
        <ele>2217</ele>
        <time>2021-09-01T10:47:39.000Z</time>
      </trkpt>
      <trkpt lat="44.39889" lon="6.38512">
        <ele>2217</ele>
        <time>2021-09-01T10:47:40.000Z</time>
      </trkpt>
      <trkpt lat="44.3989" lon="6.38511">
        <ele>2218</ele>
        <time>2021-09-01T10:47:41.000Z</time>
      </trkpt>
      <trkpt lat="44.39892" lon="6.38511">
        <ele>2218</ele>
        <time>2021-09-01T10:47:42.000Z</time>
      </trkpt>
      <trkpt lat="44.39893" lon="6.38511">
        <ele>2218</ele>
        <time>2021-09-01T10:47:43.000Z</time>
      </trkpt>
      <trkpt lat="44.39895" lon="6.3851">
        <ele>2218</ele>
        <time>2021-09-01T10:47:44.000Z</time>
      </trkpt>
      <trkpt lat="44.39897" lon="6.3851">
        <ele>2219</ele>
        <time>2021-09-01T10:47:45.000Z</time>
      </trkpt>
      <trkpt lat="44.39899" lon="6.38511">
        <ele>2219</ele>
        <time>2021-09-01T10:47:46.000Z</time>
      </trkpt>
      <trkpt lat="44.399" lon="6.38509">
        <ele>2219</ele>
        <time>2021-09-01T10:47:47.000Z</time>
      </trkpt>
      <trkpt lat="44.39902" lon="6.38509">
        <ele>2219</ele>
        <time>2021-09-01T10:47:48.000Z</time>
      </trkpt>
      <trkpt lat="44.39904" lon="6.38508">
        <ele>2219</ele>
        <time>2021-09-01T10:47:49.000Z</time>
      </trkpt>
      <trkpt lat="44.39906" lon="6.38508">
        <ele>2219</ele>
        <time>2021-09-01T10:47:50.000Z</time>
      </trkpt>
      <trkpt lat="44.39908" lon="6.38507">
        <ele>2219</ele>
        <time>2021-09-01T10:47:51.000Z</time>
      </trkpt>
      <trkpt lat="44.39909" lon="6.38507">
        <ele>2219</ele>
        <time>2021-09-01T10:47:52.000Z</time>
      </trkpt>
      <trkpt lat="44.39911" lon="6.38506">
        <ele>2219</ele>
        <time>2021-09-01T10:47:53.000Z</time>
      </trkpt>
      <trkpt lat="44.39913" lon="6.38506">
        <ele>2219</ele>
        <time>2021-09-01T10:47:54.000Z</time>
      </trkpt>
      <trkpt lat="44.39915" lon="6.38505">
        <ele>2220</ele>
        <time>2021-09-01T10:47:55.000Z</time>
      </trkpt>
      <trkpt lat="44.39916" lon="6.38505">
        <ele>2220</ele>
        <time>2021-09-01T10:47:56.000Z</time>
      </trkpt>
      <trkpt lat="44.39918" lon="6.38503">
        <ele>2221</ele>
        <time>2021-09-01T10:47:57.000Z</time>
      </trkpt>
      <trkpt lat="44.39919" lon="6.38503">
        <ele>2221</ele>
        <time>2021-09-01T10:47:58.000Z</time>
      </trkpt>
      <trkpt lat="44.39921" lon="6.38502">
        <ele>2222</ele>
        <time>2021-09-01T10:47:59.000Z</time>
      </trkpt>
      <trkpt lat="44.39923" lon="6.38501">
        <ele>2222</ele>
        <time>2021-09-01T10:48:00.000Z</time>
      </trkpt>
      <trkpt lat="44.39926" lon="6.38501">
        <ele>2222</ele>
        <time>2021-09-01T10:48:01.000Z</time>
      </trkpt>
      <trkpt lat="44.39928" lon="6.385">
        <ele>2223</ele>
        <time>2021-09-01T10:48:02.000Z</time>
      </trkpt>
      <trkpt lat="44.39929" lon="6.38499">
        <ele>2224</ele>
        <time>2021-09-01T10:48:03.000Z</time>
      </trkpt>
      <trkpt lat="44.39931" lon="6.38498">
        <ele>2224</ele>
        <time>2021-09-01T10:48:04.000Z</time>
      </trkpt>
      <trkpt lat="44.39933" lon="6.38497">
        <ele>2224</ele>
        <time>2021-09-01T10:48:05.000Z</time>
      </trkpt>
      <trkpt lat="44.39934" lon="6.38496">
        <ele>2224</ele>
        <time>2021-09-01T10:48:06.000Z</time>
      </trkpt>
      <trkpt lat="44.39936" lon="6.38496">
        <ele>2224</ele>
        <time>2021-09-01T10:48:07.000Z</time>
      </trkpt>
      <trkpt lat="44.39938" lon="6.38495">
        <ele>2224</ele>
        <time>2021-09-01T10:48:08.000Z</time>
      </trkpt>
      <trkpt lat="44.3994" lon="6.38494">
        <ele>2225</ele>
        <time>2021-09-01T10:48:09.000Z</time>
      </trkpt>
      <trkpt lat="44.39942" lon="6.38494">
        <ele>2225</ele>
        <time>2021-09-01T10:48:10.000Z</time>
      </trkpt>
      <trkpt lat="44.39944" lon="6.38493">
        <ele>2225</ele>
        <time>2021-09-01T10:48:11.000Z</time>
      </trkpt>
      <trkpt lat="44.39946" lon="6.38493">
        <ele>2225</ele>
        <time>2021-09-01T10:48:12.000Z</time>
      </trkpt>
      <trkpt lat="44.39948" lon="6.38492">
        <ele>2226</ele>
        <time>2021-09-01T10:48:13.000Z</time>
      </trkpt>
      <trkpt lat="44.3995" lon="6.38491">
        <ele>2226</ele>
        <time>2021-09-01T10:48:14.000Z</time>
      </trkpt>
      <trkpt lat="44.39951" lon="6.38491">
        <ele>2227</ele>
        <time>2021-09-01T10:48:15.000Z</time>
      </trkpt>
      <trkpt lat="44.39953" lon="6.38491">
        <ele>2227</ele>
        <time>2021-09-01T10:48:16.000Z</time>
      </trkpt>
      <trkpt lat="44.39955" lon="6.3849">
        <ele>2228</ele>
        <time>2021-09-01T10:48:17.000Z</time>
      </trkpt>
      <trkpt lat="44.39957" lon="6.3849">
        <ele>2228</ele>
        <time>2021-09-01T10:48:18.000Z</time>
      </trkpt>
      <trkpt lat="44.39959" lon="6.38489">
        <ele>2228</ele>
        <time>2021-09-01T10:48:19.000Z</time>
      </trkpt>
      <trkpt lat="44.39961" lon="6.38489">
        <ele>2228</ele>
        <time>2021-09-01T10:48:20.000Z</time>
      </trkpt>
      <trkpt lat="44.39963" lon="6.38488">
        <ele>2228</ele>
        <time>2021-09-01T10:48:21.000Z</time>
      </trkpt>
      <trkpt lat="44.39965" lon="6.38488">
        <ele>2228</ele>
        <time>2021-09-01T10:48:22.000Z</time>
      </trkpt>
      <trkpt lat="44.39967" lon="6.38488">
        <ele>2229</ele>
        <time>2021-09-01T10:48:23.000Z</time>
      </trkpt>
      <trkpt lat="44.39968" lon="6.38487">
        <ele>2229</ele>
        <time>2021-09-01T10:48:24.000Z</time>
      </trkpt>
      <trkpt lat="44.3997" lon="6.38487">
        <ele>2229</ele>
        <time>2021-09-01T10:48:25.000Z</time>
      </trkpt>
      <trkpt lat="44.39972" lon="6.38486">
        <ele>2229</ele>
        <time>2021-09-01T10:48:26.000Z</time>
      </trkpt>
      <trkpt lat="44.39974" lon="6.38486">
        <ele>2230</ele>
        <time>2021-09-01T10:48:27.000Z</time>
      </trkpt>
      <trkpt lat="44.39975" lon="6.38485">
        <ele>2230</ele>
        <time>2021-09-01T10:48:28.000Z</time>
      </trkpt>
      <trkpt lat="44.39977" lon="6.38484">
        <ele>2230</ele>
        <time>2021-09-01T10:48:29.000Z</time>
      </trkpt>
      <trkpt lat="44.39979" lon="6.38483">
        <ele>2230</ele>
        <time>2021-09-01T10:48:30.000Z</time>
      </trkpt>
      <trkpt lat="44.39981" lon="6.38483">
        <ele>2231</ele>
        <time>2021-09-01T10:48:31.000Z</time>
      </trkpt>
      <trkpt lat="44.39983" lon="6.38482">
        <ele>2231</ele>
        <time>2021-09-01T10:48:32.000Z</time>
      </trkpt>
      <trkpt lat="44.39984" lon="6.38481">
        <ele>2232</ele>
        <time>2021-09-01T10:48:33.000Z</time>
      </trkpt>
      <trkpt lat="44.39986" lon="6.3848">
        <ele>2232</ele>
        <time>2021-09-01T10:48:34.000Z</time>
      </trkpt>
      <trkpt lat="44.39988" lon="6.3848">
        <ele>2232</ele>
        <time>2021-09-01T10:48:35.000Z</time>
      </trkpt>
      <trkpt lat="44.39989" lon="6.38479">
        <ele>2232</ele>
        <time>2021-09-01T10:48:36.000Z</time>
      </trkpt>
      <trkpt lat="44.39991" lon="6.38479">
        <ele>2233</ele>
        <time>2021-09-01T10:48:37.000Z</time>
      </trkpt>
      <trkpt lat="44.39993" lon="6.38477">
        <ele>2233</ele>
        <time>2021-09-01T10:48:38.000Z</time>
      </trkpt>
      <trkpt lat="44.39995" lon="6.38477">
        <ele>2233</ele>
        <time>2021-09-01T10:48:39.000Z</time>
      </trkpt>
      <trkpt lat="44.39997" lon="6.38476">
        <ele>2233</ele>
        <time>2021-09-01T10:48:40.000Z</time>
      </trkpt>
      <trkpt lat="44.39999" lon="6.38476">
        <ele>2233</ele>
        <time>2021-09-01T10:48:41.000Z</time>
      </trkpt>
      <trkpt lat="44.40001" lon="6.38475">
        <ele>2233</ele>
        <time>2021-09-01T10:48:42.000Z</time>
      </trkpt>
      <trkpt lat="44.40002" lon="6.38475">
        <ele>2233</ele>
        <time>2021-09-01T10:48:43.000Z</time>
      </trkpt>
      <trkpt lat="44.40004" lon="6.38474">
        <ele>2234</ele>
        <time>2021-09-01T10:48:44.000Z</time>
      </trkpt>
      <trkpt lat="44.40007" lon="6.38473">
        <ele>2234</ele>
        <time>2021-09-01T10:48:45.000Z</time>
      </trkpt>
      <trkpt lat="44.40008" lon="6.38472">
        <ele>2235</ele>
        <time>2021-09-01T10:48:46.000Z</time>
      </trkpt>
      <trkpt lat="44.4001" lon="6.38472">
        <ele>2235</ele>
        <time>2021-09-01T10:48:47.000Z</time>
      </trkpt>
      <trkpt lat="44.40012" lon="6.38471">
        <ele>2236</ele>
        <time>2021-09-01T10:48:48.000Z</time>
      </trkpt>
      <trkpt lat="44.40014" lon="6.3847">
        <ele>2236</ele>
        <time>2021-09-01T10:48:49.000Z</time>
      </trkpt>
      <trkpt lat="44.40016" lon="6.3847">
        <ele>2236</ele>
        <time>2021-09-01T10:48:50.000Z</time>
      </trkpt>
      <trkpt lat="44.40018" lon="6.38469">
        <ele>2236</ele>
        <time>2021-09-01T10:48:51.000Z</time>
      </trkpt>
      <trkpt lat="44.4002" lon="6.38468">
        <ele>2237</ele>
        <time>2021-09-01T10:48:52.000Z</time>
      </trkpt>
      <trkpt lat="44.40022" lon="6.38467">
        <ele>2237</ele>
        <time>2021-09-01T10:48:53.000Z</time>
      </trkpt>
      <trkpt lat="44.40023" lon="6.38467">
        <ele>2237</ele>
        <time>2021-09-01T10:48:54.000Z</time>
      </trkpt>
      <trkpt lat="44.40025" lon="6.38465">
        <ele>2237</ele>
        <time>2021-09-01T10:48:55.000Z</time>
      </trkpt>
      <trkpt lat="44.40027" lon="6.38465">
        <ele>2237</ele>
        <time>2021-09-01T10:48:56.000Z</time>
      </trkpt>
      <trkpt lat="44.40029" lon="6.38464">
        <ele>2238</ele>
        <time>2021-09-01T10:48:57.000Z</time>
      </trkpt>
      <trkpt lat="44.40031" lon="6.38463">
        <ele>2238</ele>
        <time>2021-09-01T10:48:58.000Z</time>
      </trkpt>
      <trkpt lat="44.40032" lon="6.38461">
        <ele>2238</ele>
        <time>2021-09-01T10:48:59.000Z</time>
      </trkpt>
      <trkpt lat="44.40034" lon="6.38461">
        <ele>2239</ele>
        <time>2021-09-01T10:49:00.000Z</time>
      </trkpt>
      <trkpt lat="44.40036" lon="6.38461">
        <ele>2239</ele>
        <time>2021-09-01T10:49:01.000Z</time>
      </trkpt>
      <trkpt lat="44.40038" lon="6.3846">
        <ele>2239</ele>
        <time>2021-09-01T10:49:02.000Z</time>
      </trkpt>
      <trkpt lat="44.40041" lon="6.3846">
        <ele>2239</ele>
        <time>2021-09-01T10:49:03.000Z</time>
      </trkpt>
      <trkpt lat="44.40042" lon="6.38459">
        <ele>2240</ele>
        <time>2021-09-01T10:49:04.000Z</time>
      </trkpt>
      <trkpt lat="44.40044" lon="6.38458">
        <ele>2240</ele>
        <time>2021-09-01T10:49:05.000Z</time>
      </trkpt>
      <trkpt lat="44.40046" lon="6.38457">
        <ele>2240</ele>
        <time>2021-09-01T10:49:06.000Z</time>
      </trkpt>
      <trkpt lat="44.40048" lon="6.38457">
        <ele>2241</ele>
        <time>2021-09-01T10:49:07.000Z</time>
      </trkpt>
      <trkpt lat="44.4005" lon="6.38457">
        <ele>2241</ele>
        <time>2021-09-01T10:49:08.000Z</time>
      </trkpt>
      <trkpt lat="44.40052" lon="6.38457">
        <ele>2241</ele>
        <time>2021-09-01T10:49:09.000Z</time>
      </trkpt>
      <trkpt lat="44.40054" lon="6.38456">
        <ele>2241</ele>
        <time>2021-09-01T10:49:10.000Z</time>
      </trkpt>
      <trkpt lat="44.40056" lon="6.38456">
        <ele>2241</ele>
        <time>2021-09-01T10:49:11.000Z</time>
      </trkpt>
      <trkpt lat="44.40058" lon="6.38455">
        <ele>2242</ele>
        <time>2021-09-01T10:49:12.000Z</time>
      </trkpt>
      <trkpt lat="44.4006" lon="6.38454">
        <ele>2242</ele>
        <time>2021-09-01T10:49:13.000Z</time>
      </trkpt>
      <trkpt lat="44.40062" lon="6.38454">
        <ele>2242</ele>
        <time>2021-09-01T10:49:14.000Z</time>
      </trkpt>
      <trkpt lat="44.40064" lon="6.38453">
        <ele>2242</ele>
        <time>2021-09-01T10:49:15.000Z</time>
      </trkpt>
      <trkpt lat="44.40067" lon="6.38453">
        <ele>2243</ele>
        <time>2021-09-01T10:49:16.000Z</time>
      </trkpt>
      <trkpt lat="44.40068" lon="6.38451">
        <ele>2243</ele>
        <time>2021-09-01T10:49:17.000Z</time>
      </trkpt>
      <trkpt lat="44.4007" lon="6.38451">
        <ele>2244</ele>
        <time>2021-09-01T10:49:18.000Z</time>
      </trkpt>
      <trkpt lat="44.40072" lon="6.3845">
        <ele>2244</ele>
        <time>2021-09-01T10:49:19.000Z</time>
      </trkpt>
      <trkpt lat="44.40075" lon="6.38449">
        <ele>2244</ele>
        <time>2021-09-01T10:49:20.000Z</time>
      </trkpt>
      <trkpt lat="44.40077" lon="6.38449">
        <ele>2244</ele>
        <time>2021-09-01T10:49:21.000Z</time>
      </trkpt>
      <trkpt lat="44.40079" lon="6.38449">
        <ele>2244</ele>
        <time>2021-09-01T10:49:22.000Z</time>
      </trkpt>
      <trkpt lat="44.40081" lon="6.38449">
        <ele>2244</ele>
        <time>2021-09-01T10:49:23.000Z</time>
      </trkpt>
      <trkpt lat="44.40083" lon="6.38448">
        <ele>2244</ele>
        <time>2021-09-01T10:49:24.000Z</time>
      </trkpt>
      <trkpt lat="44.40085" lon="6.38448">
        <ele>2244</ele>
        <time>2021-09-01T10:49:25.000Z</time>
      </trkpt>
      <trkpt lat="44.40087" lon="6.38447">
        <ele>2244</ele>
        <time>2021-09-01T10:49:26.000Z</time>
      </trkpt>
      <trkpt lat="44.4009" lon="6.38447">
        <ele>2245</ele>
        <time>2021-09-01T10:49:27.000Z</time>
      </trkpt>
      <trkpt lat="44.40092" lon="6.38446">
        <ele>2245</ele>
        <time>2021-09-01T10:49:28.000Z</time>
      </trkpt>
      <trkpt lat="44.40094" lon="6.38445">
        <ele>2245</ele>
        <time>2021-09-01T10:49:29.000Z</time>
      </trkpt>
      <trkpt lat="44.40096" lon="6.38444">
        <ele>2246</ele>
        <time>2021-09-01T10:49:30.000Z</time>
      </trkpt>
      <trkpt lat="44.40098" lon="6.38443">
        <ele>2247</ele>
        <time>2021-09-01T10:49:31.000Z</time>
      </trkpt>
      <trkpt lat="44.401" lon="6.38442">
        <ele>2247</ele>
        <time>2021-09-01T10:49:32.000Z</time>
      </trkpt>
      <trkpt lat="44.40102" lon="6.38441">
        <ele>2247</ele>
        <time>2021-09-01T10:49:33.000Z</time>
      </trkpt>
      <trkpt lat="44.40104" lon="6.38441">
        <ele>2248</ele>
        <time>2021-09-01T10:49:34.000Z</time>
      </trkpt>
      <trkpt lat="44.40106" lon="6.3844">
        <ele>2248</ele>
        <time>2021-09-01T10:49:35.000Z</time>
      </trkpt>
      <trkpt lat="44.40108" lon="6.3844">
        <ele>2249</ele>
        <time>2021-09-01T10:49:36.000Z</time>
      </trkpt>
      <trkpt lat="44.4011" lon="6.38439">
        <ele>2249</ele>
        <time>2021-09-01T10:49:37.000Z</time>
      </trkpt>
      <trkpt lat="44.40111" lon="6.38439">
        <ele>2249</ele>
        <time>2021-09-01T10:49:38.000Z</time>
      </trkpt>
      <trkpt lat="44.40113" lon="6.38438">
        <ele>2250</ele>
        <time>2021-09-01T10:49:39.000Z</time>
      </trkpt>
      <trkpt lat="44.40115" lon="6.38438">
        <ele>2250</ele>
        <time>2021-09-01T10:49:40.000Z</time>
      </trkpt>
      <trkpt lat="44.40117" lon="6.38437">
        <ele>2250</ele>
        <time>2021-09-01T10:49:41.000Z</time>
      </trkpt>
      <trkpt lat="44.40119" lon="6.38436">
        <ele>2251</ele>
        <time>2021-09-01T10:49:42.000Z</time>
      </trkpt>
      <trkpt lat="44.4012" lon="6.38435">
        <ele>2252</ele>
        <time>2021-09-01T10:49:43.000Z</time>
      </trkpt>
      <trkpt lat="44.40123" lon="6.38435">
        <ele>2252</ele>
        <time>2021-09-01T10:49:44.000Z</time>
      </trkpt>
      <trkpt lat="44.40125" lon="6.38434">
        <ele>2252</ele>
        <time>2021-09-01T10:49:45.000Z</time>
      </trkpt>
      <trkpt lat="44.40127" lon="6.38433">
        <ele>2253</ele>
        <time>2021-09-01T10:49:46.000Z</time>
      </trkpt>
      <trkpt lat="44.4013" lon="6.38433">
        <ele>2253</ele>
        <time>2021-09-01T10:49:47.000Z</time>
      </trkpt>
      <trkpt lat="44.40131" lon="6.38432">
        <ele>2253</ele>
        <time>2021-09-01T10:49:48.000Z</time>
      </trkpt>
      <trkpt lat="44.40134" lon="6.38431">
        <ele>2253</ele>
        <time>2021-09-01T10:49:49.000Z</time>
      </trkpt>
      <trkpt lat="44.40136" lon="6.3843">
        <ele>2253</ele>
        <time>2021-09-01T10:49:50.000Z</time>
      </trkpt>
      <trkpt lat="44.40138" lon="6.38429">
        <ele>2253</ele>
        <time>2021-09-01T10:49:51.000Z</time>
      </trkpt>
      <trkpt lat="44.4014" lon="6.38429">
        <ele>2253</ele>
        <time>2021-09-01T10:49:52.000Z</time>
      </trkpt>
      <trkpt lat="44.40142" lon="6.38428">
        <ele>2254</ele>
        <time>2021-09-01T10:49:53.000Z</time>
      </trkpt>
      <trkpt lat="44.40144" lon="6.38427">
        <ele>2254</ele>
        <time>2021-09-01T10:49:54.000Z</time>
      </trkpt>
      <trkpt lat="44.40146" lon="6.38427">
        <ele>2253</ele>
        <time>2021-09-01T10:49:55.000Z</time>
      </trkpt>
      <trkpt lat="44.40148" lon="6.38426">
        <ele>2253</ele>
        <time>2021-09-01T10:49:56.000Z</time>
      </trkpt>
      <trkpt lat="44.4015" lon="6.38425">
        <ele>2254</ele>
        <time>2021-09-01T10:49:57.000Z</time>
      </trkpt>
      <trkpt lat="44.40152" lon="6.38425">
        <ele>2254</ele>
        <time>2021-09-01T10:49:58.000Z</time>
      </trkpt>
      <trkpt lat="44.40154" lon="6.38425">
        <ele>2255</ele>
        <time>2021-09-01T10:49:59.000Z</time>
      </trkpt>
      <trkpt lat="44.40156" lon="6.38424">
        <ele>2255</ele>
        <time>2021-09-01T10:50:00.000Z</time>
      </trkpt>
      <trkpt lat="44.40158" lon="6.38423">
        <ele>2255</ele>
        <time>2021-09-01T10:50:01.000Z</time>
      </trkpt>
      <trkpt lat="44.4016" lon="6.38423">
        <ele>2255</ele>
        <time>2021-09-01T10:50:02.000Z</time>
      </trkpt>
      <trkpt lat="44.40162" lon="6.38422">
        <ele>2255</ele>
        <time>2021-09-01T10:50:03.000Z</time>
      </trkpt>
      <trkpt lat="44.40164" lon="6.38421">
        <ele>2255</ele>
        <time>2021-09-01T10:50:04.000Z</time>
      </trkpt>
      <trkpt lat="44.40166" lon="6.3842">
        <ele>2256</ele>
        <time>2021-09-01T10:50:05.000Z</time>
      </trkpt>
      <trkpt lat="44.40168" lon="6.3842">
        <ele>2256</ele>
        <time>2021-09-01T10:50:06.000Z</time>
      </trkpt>
      <trkpt lat="44.4017" lon="6.38418">
        <ele>2257</ele>
        <time>2021-09-01T10:50:07.000Z</time>
      </trkpt>
      <trkpt lat="44.40172" lon="6.38417">
        <ele>2257</ele>
        <time>2021-09-01T10:50:08.000Z</time>
      </trkpt>
      <trkpt lat="44.40174" lon="6.38416">
        <ele>2257</ele>
        <time>2021-09-01T10:50:09.000Z</time>
      </trkpt>
      <trkpt lat="44.40176" lon="6.38415">
        <ele>2257</ele>
        <time>2021-09-01T10:50:10.000Z</time>
      </trkpt>
      <trkpt lat="44.40178" lon="6.38415">
        <ele>2257</ele>
        <time>2021-09-01T10:50:11.000Z</time>
      </trkpt>
      <trkpt lat="44.40179" lon="6.38414">
        <ele>2257</ele>
        <time>2021-09-01T10:50:12.000Z</time>
      </trkpt>
      <trkpt lat="44.40182" lon="6.38413">
        <ele>2258</ele>
        <time>2021-09-01T10:50:13.000Z</time>
      </trkpt>
      <trkpt lat="44.40184" lon="6.38412">
        <ele>2258</ele>
        <time>2021-09-01T10:50:14.000Z</time>
      </trkpt>
      <trkpt lat="44.40186" lon="6.38411">
        <ele>2259</ele>
        <time>2021-09-01T10:50:15.000Z</time>
      </trkpt>
      <trkpt lat="44.40187" lon="6.3841">
        <ele>2259</ele>
        <time>2021-09-01T10:50:16.000Z</time>
      </trkpt>
      <trkpt lat="44.40189" lon="6.38409">
        <ele>2259</ele>
        <time>2021-09-01T10:50:17.000Z</time>
      </trkpt>
      <trkpt lat="44.40191" lon="6.38408">
        <ele>2259</ele>
        <time>2021-09-01T10:50:18.000Z</time>
      </trkpt>
      <trkpt lat="44.40193" lon="6.38407">
        <ele>2260</ele>
        <time>2021-09-01T10:50:19.000Z</time>
      </trkpt>
      <trkpt lat="44.40195" lon="6.38406">
        <ele>2260</ele>
        <time>2021-09-01T10:50:20.000Z</time>
      </trkpt>
      <trkpt lat="44.40196" lon="6.38405">
        <ele>2260</ele>
        <time>2021-09-01T10:50:21.000Z</time>
      </trkpt>
      <trkpt lat="44.40198" lon="6.38405">
        <ele>2261</ele>
        <time>2021-09-01T10:50:22.000Z</time>
      </trkpt>
      <trkpt lat="44.40199" lon="6.38403">
        <ele>2261</ele>
        <time>2021-09-01T10:50:23.000Z</time>
      </trkpt>
      <trkpt lat="44.40202" lon="6.38402">
        <ele>2261</ele>
        <time>2021-09-01T10:50:24.000Z</time>
      </trkpt>
      <trkpt lat="44.40204" lon="6.38401">
        <ele>2261</ele>
        <time>2021-09-01T10:50:25.000Z</time>
      </trkpt>
      <trkpt lat="44.40206" lon="6.384">
        <ele>2262</ele>
        <time>2021-09-01T10:50:26.000Z</time>
      </trkpt>
      <trkpt lat="44.40207" lon="6.38399">
        <ele>2262</ele>
        <time>2021-09-01T10:50:27.000Z</time>
      </trkpt>
      <trkpt lat="44.40209" lon="6.38398">
        <ele>2263</ele>
        <time>2021-09-01T10:50:28.000Z</time>
      </trkpt>
      <trkpt lat="44.40211" lon="6.38398">
        <ele>2263</ele>
        <time>2021-09-01T10:50:29.000Z</time>
      </trkpt>
      <trkpt lat="44.40213" lon="6.38397">
        <ele>2264</ele>
        <time>2021-09-01T10:50:30.000Z</time>
      </trkpt>
      <trkpt lat="44.40215" lon="6.38396">
        <ele>2264</ele>
        <time>2021-09-01T10:50:31.000Z</time>
      </trkpt>
      <trkpt lat="44.40217" lon="6.38395">
        <ele>2264</ele>
        <time>2021-09-01T10:50:32.000Z</time>
      </trkpt>
      <trkpt lat="44.40219" lon="6.38393">
        <ele>2264</ele>
        <time>2021-09-01T10:50:33.000Z</time>
      </trkpt>
      <trkpt lat="44.40221" lon="6.38392">
        <ele>2265</ele>
        <time>2021-09-01T10:50:34.000Z</time>
      </trkpt>
      <trkpt lat="44.40223" lon="6.38391">
        <ele>2265</ele>
        <time>2021-09-01T10:50:35.000Z</time>
      </trkpt>
      <trkpt lat="44.40225" lon="6.38389">
        <ele>2266</ele>
        <time>2021-09-01T10:50:36.000Z</time>
      </trkpt>
      <trkpt lat="44.40226" lon="6.38388">
        <ele>2267</ele>
        <time>2021-09-01T10:50:37.000Z</time>
      </trkpt>
      <trkpt lat="44.40227" lon="6.38386">
        <ele>2267</ele>
        <time>2021-09-01T10:50:38.000Z</time>
      </trkpt>
      <trkpt lat="44.40229" lon="6.38386">
        <ele>2268</ele>
        <time>2021-09-01T10:50:39.000Z</time>
      </trkpt>
      <trkpt lat="44.40231" lon="6.38386">
        <ele>2268</ele>
        <time>2021-09-01T10:50:40.000Z</time>
      </trkpt>
      <trkpt lat="44.40233" lon="6.38385">
        <ele>2267</ele>
        <time>2021-09-01T10:50:41.000Z</time>
      </trkpt>
      <trkpt lat="44.40235" lon="6.38385">
        <ele>2268</ele>
        <time>2021-09-01T10:50:42.000Z</time>
      </trkpt>
      <trkpt lat="44.40237" lon="6.38384">
        <ele>2269</ele>
        <time>2021-09-01T10:50:43.000Z</time>
      </trkpt>
      <trkpt lat="44.40239" lon="6.38383">
        <ele>2269</ele>
        <time>2021-09-01T10:50:44.000Z</time>
      </trkpt>
      <trkpt lat="44.40241" lon="6.38384">
        <ele>2269</ele>
        <time>2021-09-01T10:50:45.000Z</time>
      </trkpt>
      <trkpt lat="44.40243" lon="6.38383">
        <ele>2270</ele>
        <time>2021-09-01T10:50:46.000Z</time>
      </trkpt>
      <trkpt lat="44.40245" lon="6.38383">
        <ele>2270</ele>
        <time>2021-09-01T10:50:47.000Z</time>
      </trkpt>
      <trkpt lat="44.40246" lon="6.38382">
        <ele>2271</ele>
        <time>2021-09-01T10:50:48.000Z</time>
      </trkpt>
      <trkpt lat="44.40247" lon="6.38381">
        <ele>2272</ele>
        <time>2021-09-01T10:50:49.000Z</time>
      </trkpt>
      <trkpt lat="44.40249" lon="6.38379">
        <ele>2273</ele>
        <time>2021-09-01T10:50:50.000Z</time>
      </trkpt>
      <trkpt lat="44.4025" lon="6.38379">
        <ele>2273</ele>
        <time>2021-09-01T10:50:51.000Z</time>
      </trkpt>
      <trkpt lat="44.40252" lon="6.38378">
        <ele>2274</ele>
        <time>2021-09-01T10:50:52.000Z</time>
      </trkpt>
      <trkpt lat="44.40254" lon="6.38376">
        <ele>2273</ele>
        <time>2021-09-01T10:50:53.000Z</time>
      </trkpt>
      <trkpt lat="44.40256" lon="6.38376">
        <ele>2273</ele>
        <time>2021-09-01T10:50:54.000Z</time>
      </trkpt>
      <trkpt lat="44.40258" lon="6.38374">
        <ele>2274</ele>
        <time>2021-09-01T10:50:55.000Z</time>
      </trkpt>
      <trkpt lat="44.40259" lon="6.38373">
        <ele>2274</ele>
        <time>2021-09-01T10:50:56.000Z</time>
      </trkpt>
      <trkpt lat="44.40262" lon="6.38373">
        <ele>2273</ele>
        <time>2021-09-01T10:50:57.000Z</time>
      </trkpt>
      <trkpt lat="44.40264" lon="6.38371">
        <ele>2273</ele>
        <time>2021-09-01T10:50:58.000Z</time>
      </trkpt>
      <trkpt lat="44.40267" lon="6.3837">
        <ele>2272</ele>
        <time>2021-09-01T10:50:59.000Z</time>
      </trkpt>
      <trkpt lat="44.40269" lon="6.38369">
        <ele>2272</ele>
        <time>2021-09-01T10:51:00.000Z</time>
      </trkpt>
      <trkpt lat="44.40271" lon="6.38367">
        <ele>2272</ele>
        <time>2021-09-01T10:51:01.000Z</time>
      </trkpt>
      <trkpt lat="44.40272" lon="6.38367">
        <ele>2272</ele>
        <time>2021-09-01T10:51:02.000Z</time>
      </trkpt>
      <trkpt lat="44.40274" lon="6.38365">
        <ele>2272</ele>
        <time>2021-09-01T10:51:03.000Z</time>
      </trkpt>
      <trkpt lat="44.40276" lon="6.38363">
        <ele>2271</ele>
        <time>2021-09-01T10:51:04.000Z</time>
      </trkpt>
      <trkpt lat="44.40277" lon="6.38362">
        <ele>2272</ele>
        <time>2021-09-01T10:51:05.000Z</time>
      </trkpt>
      <trkpt lat="44.4028" lon="6.38361">
        <ele>2272</ele>
        <time>2021-09-01T10:51:06.000Z</time>
      </trkpt>
      <trkpt lat="44.40281" lon="6.3836">
        <ele>2272</ele>
        <time>2021-09-01T10:51:07.000Z</time>
      </trkpt>
      <trkpt lat="44.40283" lon="6.3836">
        <ele>2273</ele>
        <time>2021-09-01T10:51:08.000Z</time>
      </trkpt>
      <trkpt lat="44.40284" lon="6.38359">
        <ele>2273</ele>
        <time>2021-09-01T10:51:09.000Z</time>
      </trkpt>
      <trkpt lat="44.40286" lon="6.38359">
        <ele>2274</ele>
        <time>2021-09-01T10:51:10.000Z</time>
      </trkpt>
      <trkpt lat="44.40288" lon="6.38358">
        <ele>2273</ele>
        <time>2021-09-01T10:51:11.000Z</time>
      </trkpt>
      <trkpt lat="44.4029" lon="6.38357">
        <ele>2274</ele>
        <time>2021-09-01T10:51:12.000Z</time>
      </trkpt>
      <trkpt lat="44.40291" lon="6.38356">
        <ele>2274</ele>
        <time>2021-09-01T10:51:13.000Z</time>
      </trkpt>
      <trkpt lat="44.40293" lon="6.38355">
        <ele>2275</ele>
        <time>2021-09-01T10:51:14.000Z</time>
      </trkpt>
      <trkpt lat="44.40295" lon="6.38354">
        <ele>2275</ele>
        <time>2021-09-01T10:51:15.000Z</time>
      </trkpt>
      <trkpt lat="44.40297" lon="6.38354">
        <ele>2276</ele>
        <time>2021-09-01T10:51:16.000Z</time>
      </trkpt>
      <trkpt lat="44.40299" lon="6.38353">
        <ele>2276</ele>
        <time>2021-09-01T10:51:17.000Z</time>
      </trkpt>
      <trkpt lat="44.403" lon="6.38352">
        <ele>2276</ele>
        <time>2021-09-01T10:51:18.000Z</time>
      </trkpt>
      <trkpt lat="44.40302" lon="6.3835">
        <ele>2277</ele>
        <time>2021-09-01T10:51:19.000Z</time>
      </trkpt>
      <trkpt lat="44.40304" lon="6.38348">
        <ele>2278</ele>
        <time>2021-09-01T10:51:20.000Z</time>
      </trkpt>
      <trkpt lat="44.40307" lon="6.38348">
        <ele>2277</ele>
        <time>2021-09-01T10:51:21.000Z</time>
      </trkpt>
      <trkpt lat="44.4031" lon="6.38347">
        <ele>2276</ele>
        <time>2021-09-01T10:51:22.000Z</time>
      </trkpt>
      <trkpt lat="44.40312" lon="6.38346">
        <ele>2277</ele>
        <time>2021-09-01T10:51:23.000Z</time>
      </trkpt>
      <trkpt lat="44.40314" lon="6.38344">
        <ele>2278</ele>
        <time>2021-09-01T10:51:24.000Z</time>
      </trkpt>
      <trkpt lat="44.40316" lon="6.38344">
        <ele>2278</ele>
        <time>2021-09-01T10:51:25.000Z</time>
      </trkpt>
      <trkpt lat="44.40318" lon="6.38343">
        <ele>2279</ele>
        <time>2021-09-01T10:51:26.000Z</time>
      </trkpt>
      <trkpt lat="44.4032" lon="6.38343">
        <ele>2279</ele>
        <time>2021-09-01T10:51:27.000Z</time>
      </trkpt>
      <trkpt lat="44.40323" lon="6.38343">
        <ele>2279</ele>
        <time>2021-09-01T10:51:28.000Z</time>
      </trkpt>
      <trkpt lat="44.40324" lon="6.38342">
        <ele>2280</ele>
        <time>2021-09-01T10:51:29.000Z</time>
      </trkpt>
      <trkpt lat="44.40326" lon="6.38342">
        <ele>2280</ele>
        <time>2021-09-01T10:51:30.000Z</time>
      </trkpt>
      <trkpt lat="44.40327" lon="6.38341">
        <ele>2281</ele>
        <time>2021-09-01T10:51:31.000Z</time>
      </trkpt>
      <trkpt lat="44.40328" lon="6.38341">
        <ele>2282</ele>
        <time>2021-09-01T10:51:32.000Z</time>
      </trkpt>
      <trkpt lat="44.40329" lon="6.3834">
        <ele>2283</ele>
        <time>2021-09-01T10:51:33.000Z</time>
      </trkpt>
      <trkpt lat="44.40331" lon="6.3834">
        <ele>2283</ele>
        <time>2021-09-01T10:51:34.000Z</time>
      </trkpt>
      <trkpt lat="44.40333" lon="6.38339">
        <ele>2283</ele>
        <time>2021-09-01T10:51:35.000Z</time>
      </trkpt>
      <trkpt lat="44.40336" lon="6.38339">
        <ele>2282</ele>
        <time>2021-09-01T10:51:36.000Z</time>
      </trkpt>
      <trkpt lat="44.40338" lon="6.38339">
        <ele>2281</ele>
        <time>2021-09-01T10:51:37.000Z</time>
      </trkpt>
      <trkpt lat="44.4034" lon="6.3834">
        <ele>2280</ele>
        <time>2021-09-01T10:51:38.000Z</time>
      </trkpt>
      <trkpt lat="44.40342" lon="6.38339">
        <ele>2280</ele>
        <time>2021-09-01T10:51:39.000Z</time>
      </trkpt>
      <trkpt lat="44.40344" lon="6.38338">
        <ele>2279</ele>
        <time>2021-09-01T10:51:40.000Z</time>
      </trkpt>
      <trkpt lat="44.40346" lon="6.38337">
        <ele>2279</ele>
        <time>2021-09-01T10:51:41.000Z</time>
      </trkpt>
      <trkpt lat="44.40347" lon="6.38337">
        <ele>2278</ele>
        <time>2021-09-01T10:51:42.000Z</time>
      </trkpt>
      <trkpt lat="44.40349" lon="6.38336">
        <ele>2279</ele>
        <time>2021-09-01T10:51:43.000Z</time>
      </trkpt>
      <trkpt lat="44.40351" lon="6.38334">
        <ele>2279</ele>
        <time>2021-09-01T10:51:44.000Z</time>
      </trkpt>
      <trkpt lat="44.40353" lon="6.38332">
        <ele>2281</ele>
        <time>2021-09-01T10:51:45.000Z</time>
      </trkpt>
      <trkpt lat="44.40356" lon="6.3833">
        <ele>2282</ele>
        <time>2021-09-01T10:51:46.000Z</time>
      </trkpt>
      <trkpt lat="44.40358" lon="6.3833">
        <ele>2283</ele>
        <time>2021-09-01T10:51:47.000Z</time>
      </trkpt>
      <trkpt lat="44.40361" lon="6.38329">
        <ele>2284</ele>
        <time>2021-09-01T10:51:48.000Z</time>
      </trkpt>
      <trkpt lat="44.40363" lon="6.38328">
        <ele>2284</ele>
        <time>2021-09-01T10:51:49.000Z</time>
      </trkpt>
      <trkpt lat="44.40365" lon="6.38327">
        <ele>2284</ele>
        <time>2021-09-01T10:51:50.000Z</time>
      </trkpt>
      <trkpt lat="44.40367" lon="6.38325">
        <ele>2285</ele>
        <time>2021-09-01T10:51:51.000Z</time>
      </trkpt>
      <trkpt lat="44.40368" lon="6.38324">
        <ele>2286</ele>
        <time>2021-09-01T10:51:52.000Z</time>
      </trkpt>
      <trkpt lat="44.4037" lon="6.38322">
        <ele>2287</ele>
        <time>2021-09-01T10:51:53.000Z</time>
      </trkpt>
      <trkpt lat="44.40372" lon="6.3832">
        <ele>2288</ele>
        <time>2021-09-01T10:51:54.000Z</time>
      </trkpt>
      <trkpt lat="44.40374" lon="6.38318">
        <ele>2289</ele>
        <time>2021-09-01T10:51:55.000Z</time>
      </trkpt>
      <trkpt lat="44.40376" lon="6.38317">
        <ele>2290</ele>
        <time>2021-09-01T10:51:56.000Z</time>
      </trkpt>
      <trkpt lat="44.40379" lon="6.38316">
        <ele>2290</ele>
        <time>2021-09-01T10:51:57.000Z</time>
      </trkpt>
      <trkpt lat="44.4038" lon="6.38315">
        <ele>2290</ele>
        <time>2021-09-01T10:51:58.000Z</time>
      </trkpt>
      <trkpt lat="44.40382" lon="6.38314">
        <ele>2291</ele>
        <time>2021-09-01T10:51:59.000Z</time>
      </trkpt>
      <trkpt lat="44.40384" lon="6.38313">
        <ele>2291</ele>
        <time>2021-09-01T10:52:00.000Z</time>
      </trkpt>
      <trkpt lat="44.40387" lon="6.38312">
        <ele>2291</ele>
        <time>2021-09-01T10:52:01.000Z</time>
      </trkpt>
      <trkpt lat="44.4039" lon="6.3831">
        <ele>2289</ele>
        <time>2021-09-01T10:52:02.000Z</time>
      </trkpt>
      <trkpt lat="44.40392" lon="6.38309">
        <ele>2288</ele>
        <time>2021-09-01T10:52:03.000Z</time>
      </trkpt>
      <trkpt lat="44.40395" lon="6.38308">
        <ele>2287</ele>
        <time>2021-09-01T10:52:04.000Z</time>
      </trkpt>
      <trkpt lat="44.40397" lon="6.38306">
        <ele>2285</ele>
        <time>2021-09-01T10:52:05.000Z</time>
      </trkpt>
      <trkpt lat="44.40399" lon="6.38305">
        <ele>2285</ele>
        <time>2021-09-01T10:52:06.000Z</time>
      </trkpt>
      <trkpt lat="44.40401" lon="6.38303">
        <ele>2284</ele>
        <time>2021-09-01T10:52:07.000Z</time>
      </trkpt>
      <trkpt lat="44.40403" lon="6.38302">
        <ele>2284</ele>
        <time>2021-09-01T10:52:08.000Z</time>
      </trkpt>
      <trkpt lat="44.40405" lon="6.383">
        <ele>2284</ele>
        <time>2021-09-01T10:52:09.000Z</time>
      </trkpt>
      <trkpt lat="44.40406" lon="6.38298">
        <ele>2285</ele>
        <time>2021-09-01T10:52:10.000Z</time>
      </trkpt>
      <trkpt lat="44.40408" lon="6.38297">
        <ele>2285</ele>
        <time>2021-09-01T10:52:11.000Z</time>
      </trkpt>
      <trkpt lat="44.4041" lon="6.38296">
        <ele>2287</ele>
        <time>2021-09-01T10:52:12.000Z</time>
      </trkpt>
      <trkpt lat="44.40412" lon="6.38295">
        <ele>2287</ele>
        <time>2021-09-01T10:52:13.000Z</time>
      </trkpt>
      <trkpt lat="44.40413" lon="6.38293">
        <ele>2288</ele>
        <time>2021-09-01T10:52:14.000Z</time>
      </trkpt>
      <trkpt lat="44.40414" lon="6.38292">
        <ele>2288</ele>
        <time>2021-09-01T10:52:15.000Z</time>
      </trkpt>
      <trkpt lat="44.40416" lon="6.3829">
        <ele>2288</ele>
        <time>2021-09-01T10:52:16.000Z</time>
      </trkpt>
      <trkpt lat="44.40417" lon="6.38287">
        <ele>2288</ele>
        <time>2021-09-01T10:52:17.000Z</time>
      </trkpt>
      <trkpt lat="44.40419" lon="6.38286">
        <ele>2287</ele>
        <time>2021-09-01T10:52:18.000Z</time>
      </trkpt>
      <trkpt lat="44.40421" lon="6.38285">
        <ele>2287</ele>
        <time>2021-09-01T10:52:19.000Z</time>
      </trkpt>
      <trkpt lat="44.40424" lon="6.38285">
        <ele>2287</ele>
        <time>2021-09-01T10:52:20.000Z</time>
      </trkpt>
      <trkpt lat="44.40425" lon="6.38284">
        <ele>2287</ele>
        <time>2021-09-01T10:52:21.000Z</time>
      </trkpt>
      <trkpt lat="44.40427" lon="6.38284">
        <ele>2287</ele>
        <time>2021-09-01T10:52:22.000Z</time>
      </trkpt>
      <trkpt lat="44.40428" lon="6.38283">
        <ele>2288</ele>
        <time>2021-09-01T10:52:23.000Z</time>
      </trkpt>
      <trkpt lat="44.40429" lon="6.38283">
        <ele>2288</ele>
        <time>2021-09-01T10:52:24.000Z</time>
      </trkpt>
      <trkpt lat="44.4043" lon="6.38283">
        <ele>2288</ele>
        <time>2021-09-01T10:52:25.000Z</time>
      </trkpt>
      <trkpt lat="44.40431" lon="6.38283">
        <ele>2288</ele>
        <time>2021-09-01T10:52:26.000Z</time>
      </trkpt>
      <trkpt lat="44.40433" lon="6.38283">
        <ele>2288</ele>
        <time>2021-09-01T10:52:27.000Z</time>
      </trkpt>
      <trkpt lat="44.40435" lon="6.38282">
        <ele>2289</ele>
        <time>2021-09-01T10:52:28.000Z</time>
      </trkpt>
      <trkpt lat="44.40436" lon="6.38281">
        <ele>2289</ele>
        <time>2021-09-01T10:52:29.000Z</time>
      </trkpt>
      <trkpt lat="44.40438" lon="6.3828">
        <ele>2290</ele>
        <time>2021-09-01T10:52:30.000Z</time>
      </trkpt>
      <trkpt lat="44.40439" lon="6.3828">
        <ele>2290</ele>
        <time>2021-09-01T10:52:31.000Z</time>
      </trkpt>
      <trkpt lat="44.40441" lon="6.38279">
        <ele>2291</ele>
        <time>2021-09-01T10:52:32.000Z</time>
      </trkpt>
      <trkpt lat="44.40443" lon="6.38278">
        <ele>2291</ele>
        <time>2021-09-01T10:52:33.000Z</time>
      </trkpt>
      <trkpt lat="44.40445" lon="6.38277">
        <ele>2292</ele>
        <time>2021-09-01T10:52:34.000Z</time>
      </trkpt>
      <trkpt lat="44.40446" lon="6.38277">
        <ele>2293</ele>
        <time>2021-09-01T10:52:35.000Z</time>
      </trkpt>
      <trkpt lat="44.40447" lon="6.38276">
        <ele>2293</ele>
        <time>2021-09-01T10:52:36.000Z</time>
      </trkpt>
      <trkpt lat="44.40449" lon="6.38275">
        <ele>2293</ele>
        <time>2021-09-01T10:52:37.000Z</time>
      </trkpt>
      <trkpt lat="44.40451" lon="6.38274">
        <ele>2294</ele>
        <time>2021-09-01T10:52:38.000Z</time>
      </trkpt>
      <trkpt lat="44.40453" lon="6.38274">
        <ele>2294</ele>
        <time>2021-09-01T10:52:39.000Z</time>
      </trkpt>
      <trkpt lat="44.40455" lon="6.38273">
        <ele>2295</ele>
        <time>2021-09-01T10:52:40.000Z</time>
      </trkpt>
      <trkpt lat="44.40457" lon="6.38272">
        <ele>2295</ele>
        <time>2021-09-01T10:52:41.000Z</time>
      </trkpt>
      <trkpt lat="44.40458" lon="6.38271">
        <ele>2295</ele>
        <time>2021-09-01T10:52:42.000Z</time>
      </trkpt>
      <trkpt lat="44.4046" lon="6.3827">
        <ele>2296</ele>
        <time>2021-09-01T10:52:43.000Z</time>
      </trkpt>
      <trkpt lat="44.40461" lon="6.38269">
        <ele>2296</ele>
        <time>2021-09-01T10:52:44.000Z</time>
      </trkpt>
      <trkpt lat="44.40463" lon="6.38268">
        <ele>2296</ele>
        <time>2021-09-01T10:52:45.000Z</time>
      </trkpt>
      <trkpt lat="44.40465" lon="6.38267">
        <ele>2295</ele>
        <time>2021-09-01T10:52:46.000Z</time>
      </trkpt>
      <trkpt lat="44.40467" lon="6.38266">
        <ele>2296</ele>
        <time>2021-09-01T10:52:47.000Z</time>
      </trkpt>
      <trkpt lat="44.40469" lon="6.38266">
        <ele>2296</ele>
        <time>2021-09-01T10:52:48.000Z</time>
      </trkpt>
      <trkpt lat="44.40471" lon="6.38266">
        <ele>2296</ele>
        <time>2021-09-01T10:52:49.000Z</time>
      </trkpt>
      <trkpt lat="44.40473" lon="6.38265">
        <ele>2297</ele>
        <time>2021-09-01T10:52:50.000Z</time>
      </trkpt>
      <trkpt lat="44.40475" lon="6.38264">
        <ele>2296</ele>
        <time>2021-09-01T10:52:51.000Z</time>
      </trkpt>
      <trkpt lat="44.40477" lon="6.38264">
        <ele>2296</ele>
        <time>2021-09-01T10:52:52.000Z</time>
      </trkpt>
      <trkpt lat="44.4048" lon="6.38263">
        <ele>2296</ele>
        <time>2021-09-01T10:52:53.000Z</time>
      </trkpt>
      <trkpt lat="44.40482" lon="6.38263">
        <ele>2296</ele>
        <time>2021-09-01T10:52:54.000Z</time>
      </trkpt>
      <trkpt lat="44.40485" lon="6.38262">
        <ele>2295</ele>
        <time>2021-09-01T10:52:55.000Z</time>
      </trkpt>
      <trkpt lat="44.40487" lon="6.38261">
        <ele>2295</ele>
        <time>2021-09-01T10:52:56.000Z</time>
      </trkpt>
      <trkpt lat="44.40489" lon="6.3826">
        <ele>2296</ele>
        <time>2021-09-01T10:52:57.000Z</time>
      </trkpt>
      <trkpt lat="44.40491" lon="6.38259">
        <ele>2297</ele>
        <time>2021-09-01T10:52:58.000Z</time>
      </trkpt>
      <trkpt lat="44.40494" lon="6.38257">
        <ele>2299</ele>
        <time>2021-09-01T10:52:59.000Z</time>
      </trkpt>
      <trkpt lat="44.40496" lon="6.38256">
        <ele>2301</ele>
        <time>2021-09-01T10:53:00.000Z</time>
      </trkpt>
      <trkpt lat="44.40497" lon="6.38255">
        <ele>2302</ele>
        <time>2021-09-01T10:53:01.000Z</time>
      </trkpt>
      <trkpt lat="44.40499" lon="6.38253">
        <ele>2304</ele>
        <time>2021-09-01T10:53:02.000Z</time>
      </trkpt>
      <trkpt lat="44.405" lon="6.38252">
        <ele>2305</ele>
        <time>2021-09-01T10:53:03.000Z</time>
      </trkpt>
      <trkpt lat="44.40502" lon="6.38251">
        <ele>2306</ele>
        <time>2021-09-01T10:53:04.000Z</time>
      </trkpt>
      <trkpt lat="44.40504" lon="6.38251">
        <ele>2306</ele>
        <time>2021-09-01T10:53:05.000Z</time>
      </trkpt>
      <trkpt lat="44.40505" lon="6.38251">
        <ele>2307</ele>
        <time>2021-09-01T10:53:06.000Z</time>
      </trkpt>
      <trkpt lat="44.40507" lon="6.3825">
        <ele>2308</ele>
        <time>2021-09-01T10:53:07.000Z</time>
      </trkpt>
      <trkpt lat="44.40509" lon="6.38249">
        <ele>2308</ele>
        <time>2021-09-01T10:53:08.000Z</time>
      </trkpt>
      <trkpt lat="44.40511" lon="6.38249">
        <ele>2308</ele>
        <time>2021-09-01T10:53:09.000Z</time>
      </trkpt>
      <trkpt lat="44.40512" lon="6.38248">
        <ele>2308</ele>
        <time>2021-09-01T10:53:10.000Z</time>
      </trkpt>
      <trkpt lat="44.40513" lon="6.38247">
        <ele>2308</ele>
        <time>2021-09-01T10:53:11.000Z</time>
      </trkpt>
      <trkpt lat="44.40515" lon="6.38248">
        <ele>2309</ele>
        <time>2021-09-01T10:53:12.000Z</time>
      </trkpt>
      <trkpt lat="44.40518" lon="6.38248">
        <ele>2309</ele>
        <time>2021-09-01T10:53:13.000Z</time>
      </trkpt>
      <trkpt lat="44.4052" lon="6.38247">
        <ele>2309</ele>
        <time>2021-09-01T10:53:14.000Z</time>
      </trkpt>
      <trkpt lat="44.40522" lon="6.38247">
        <ele>2309</ele>
        <time>2021-09-01T10:53:15.000Z</time>
      </trkpt>
      <trkpt lat="44.40524" lon="6.38246">
        <ele>2308</ele>
        <time>2021-09-01T10:53:16.000Z</time>
      </trkpt>
      <trkpt lat="44.40526" lon="6.38246">
        <ele>2309</ele>
        <time>2021-09-01T10:53:17.000Z</time>
      </trkpt>
      <trkpt lat="44.40528" lon="6.38246">
        <ele>2309</ele>
        <time>2021-09-01T10:53:18.000Z</time>
      </trkpt>
      <trkpt lat="44.40529" lon="6.38246">
        <ele>2308</ele>
        <time>2021-09-01T10:53:19.000Z</time>
      </trkpt>
      <trkpt lat="44.40531" lon="6.38247">
        <ele>2308</ele>
        <time>2021-09-01T10:53:20.000Z</time>
      </trkpt>
      <trkpt lat="44.40533" lon="6.38248">
        <ele>2309</ele>
        <time>2021-09-01T10:53:21.000Z</time>
      </trkpt>
      <trkpt lat="44.40535" lon="6.38248">
        <ele>2310</ele>
        <time>2021-09-01T10:53:22.000Z</time>
      </trkpt>
      <trkpt lat="44.40537" lon="6.38248">
        <ele>2310</ele>
        <time>2021-09-01T10:53:23.000Z</time>
      </trkpt>
      <trkpt lat="44.40539" lon="6.38248">
        <ele>2310</ele>
        <time>2021-09-01T10:53:24.000Z</time>
      </trkpt>
      <trkpt lat="44.4054" lon="6.38248">
        <ele>2311</ele>
        <time>2021-09-01T10:53:25.000Z</time>
      </trkpt>
      <trkpt lat="44.40542" lon="6.38249">
        <ele>2311</ele>
        <time>2021-09-01T10:53:26.000Z</time>
      </trkpt>
      <trkpt lat="44.40543" lon="6.38249">
        <ele>2310</ele>
        <time>2021-09-01T10:53:27.000Z</time>
      </trkpt>
      <trkpt lat="44.40545" lon="6.3825">
        <ele>2309</ele>
        <time>2021-09-01T10:53:28.000Z</time>
      </trkpt>
      <trkpt lat="44.40547" lon="6.3825">
        <ele>2309</ele>
        <time>2021-09-01T10:53:29.000Z</time>
      </trkpt>
      <trkpt lat="44.40549" lon="6.38251">
        <ele>2310</ele>
        <time>2021-09-01T10:53:30.000Z</time>
      </trkpt>
      <trkpt lat="44.40551" lon="6.38252">
        <ele>2310</ele>
        <time>2021-09-01T10:53:31.000Z</time>
      </trkpt>
      <trkpt lat="44.40553" lon="6.38252">
        <ele>2310</ele>
        <time>2021-09-01T10:53:32.000Z</time>
      </trkpt>
      <trkpt lat="44.40555" lon="6.38252">
        <ele>2309</ele>
        <time>2021-09-01T10:53:33.000Z</time>
      </trkpt>
      <trkpt lat="44.40558" lon="6.38251">
        <ele>2309</ele>
        <time>2021-09-01T10:53:34.000Z</time>
      </trkpt>
      <trkpt lat="44.4056" lon="6.38251">
        <ele>2309</ele>
        <time>2021-09-01T10:53:35.000Z</time>
      </trkpt>
      <trkpt lat="44.40562" lon="6.38249">
        <ele>2310</ele>
        <time>2021-09-01T10:53:36.000Z</time>
      </trkpt>
      <trkpt lat="44.40565" lon="6.38249">
        <ele>2310</ele>
        <time>2021-09-01T10:53:37.000Z</time>
      </trkpt>
      <trkpt lat="44.40568" lon="6.38249">
        <ele>2309</ele>
        <time>2021-09-01T10:53:38.000Z</time>
      </trkpt>
      <trkpt lat="44.40569" lon="6.3825">
        <ele>2309</ele>
        <time>2021-09-01T10:53:39.000Z</time>
      </trkpt>
      <trkpt lat="44.40571" lon="6.38249">
        <ele>2308</ele>
        <time>2021-09-01T10:53:40.000Z</time>
      </trkpt>
      <trkpt lat="44.40573" lon="6.38248">
        <ele>2309</ele>
        <time>2021-09-01T10:53:41.000Z</time>
      </trkpt>
      <trkpt lat="44.40575" lon="6.38248">
        <ele>2309</ele>
        <time>2021-09-01T10:53:42.000Z</time>
      </trkpt>
      <trkpt lat="44.40578" lon="6.38247">
        <ele>2308</ele>
        <time>2021-09-01T10:53:43.000Z</time>
      </trkpt>
      <trkpt lat="44.4058" lon="6.38247">
        <ele>2306</ele>
        <time>2021-09-01T10:53:44.000Z</time>
      </trkpt>
      <trkpt lat="44.40583" lon="6.38245">
        <ele>2307</ele>
        <time>2021-09-01T10:53:45.000Z</time>
      </trkpt>
      <trkpt lat="44.40585" lon="6.38245">
        <ele>2307</ele>
        <time>2021-09-01T10:53:46.000Z</time>
      </trkpt>
      <trkpt lat="44.40587" lon="6.38244">
        <ele>2307</ele>
        <time>2021-09-01T10:53:47.000Z</time>
      </trkpt>
      <trkpt lat="44.40589" lon="6.38243">
        <ele>2308</ele>
        <time>2021-09-01T10:53:48.000Z</time>
      </trkpt>
      <trkpt lat="44.40592" lon="6.38241">
        <ele>2309</ele>
        <time>2021-09-01T10:53:49.000Z</time>
      </trkpt>
      <trkpt lat="44.40594" lon="6.38241">
        <ele>2309</ele>
        <time>2021-09-01T10:53:50.000Z</time>
      </trkpt>
      <trkpt lat="44.40596" lon="6.3824">
        <ele>2310</ele>
        <time>2021-09-01T10:53:51.000Z</time>
      </trkpt>
      <trkpt lat="44.40599" lon="6.38239">
        <ele>2311</ele>
        <time>2021-09-01T10:53:52.000Z</time>
      </trkpt>
      <trkpt lat="44.40601" lon="6.38238">
        <ele>2311</ele>
        <time>2021-09-01T10:53:53.000Z</time>
      </trkpt>
      <trkpt lat="44.40603" lon="6.38237">
        <ele>2312</ele>
        <time>2021-09-01T10:53:54.000Z</time>
      </trkpt>
      <trkpt lat="44.40606" lon="6.38236">
        <ele>2311</ele>
        <time>2021-09-01T10:53:55.000Z</time>
      </trkpt>
      <trkpt lat="44.40609" lon="6.38235">
        <ele>2311</ele>
        <time>2021-09-01T10:53:56.000Z</time>
      </trkpt>
      <trkpt lat="44.40611" lon="6.38232">
        <ele>2310</ele>
        <time>2021-09-01T10:53:57.000Z</time>
      </trkpt>
      <trkpt lat="44.40612" lon="6.38232">
        <ele>2310</ele>
        <time>2021-09-01T10:53:58.000Z</time>
      </trkpt>
      <trkpt lat="44.40614" lon="6.38231">
        <ele>2310</ele>
        <time>2021-09-01T10:53:59.000Z</time>
      </trkpt>
      <trkpt lat="44.40616" lon="6.38231">
        <ele>2310</ele>
        <time>2021-09-01T10:54:00.000Z</time>
      </trkpt>
      <trkpt lat="44.40616" lon="6.38229">
        <ele>2313</ele>
        <time>2021-09-01T10:54:01.000Z</time>
      </trkpt>
      <trkpt lat="44.40617" lon="6.38228">
        <ele>2314</ele>
        <time>2021-09-01T10:54:02.000Z</time>
      </trkpt>
      <trkpt lat="44.40615" lon="6.3823">
        <ele>2316</ele>
        <time>2021-09-01T10:54:03.000Z</time>
      </trkpt>
      <trkpt lat="44.40613" lon="6.38232">
        <ele>2315</ele>
        <time>2021-09-01T10:54:04.000Z</time>
      </trkpt>
      <trkpt lat="44.40611" lon="6.38231">
        <ele>2318</ele>
        <time>2021-09-01T10:54:05.000Z</time>
      </trkpt>
      <trkpt lat="44.40609" lon="6.38233">
        <ele>2316</ele>
        <time>2021-09-01T10:54:06.000Z</time>
      </trkpt>
      <trkpt lat="44.40608" lon="6.38234">
        <ele>2316</ele>
        <time>2021-09-01T10:54:07.000Z</time>
      </trkpt>
      <trkpt lat="44.40607" lon="6.38235">
        <ele>2316</ele>
        <time>2021-09-01T10:54:08.000Z</time>
      </trkpt>
      <trkpt lat="44.40606" lon="6.38236">
        <ele>2317</ele>
        <time>2021-09-01T10:54:09.000Z</time>
      </trkpt>
      <trkpt lat="44.40603" lon="6.38237">
        <ele>2318</ele>
        <time>2021-09-01T10:54:10.000Z</time>
      </trkpt>
      <trkpt lat="44.40602" lon="6.38238">
        <ele>2318</ele>
        <time>2021-09-01T10:54:11.000Z</time>
      </trkpt>
      <trkpt lat="44.406" lon="6.3824">
        <ele>2318</ele>
        <time>2021-09-01T10:54:12.000Z</time>
      </trkpt>
      <trkpt lat="44.40599" lon="6.3824">
        <ele>2319</ele>
        <time>2021-09-01T10:54:13.000Z</time>
      </trkpt>
      <trkpt lat="44.40599" lon="6.38242">
        <ele>2320</ele>
        <time>2021-09-01T10:54:14.000Z</time>
      </trkpt>
      <trkpt lat="44.40598" lon="6.38243">
        <ele>2319</ele>
        <time>2021-09-01T10:54:15.000Z</time>
      </trkpt>
      <trkpt lat="44.40597" lon="6.38243">
        <ele>2320</ele>
        <time>2021-09-01T10:54:16.000Z</time>
      </trkpt>
      <trkpt lat="44.40596" lon="6.38244">
        <ele>2321</ele>
        <time>2021-09-01T10:54:17.000Z</time>
      </trkpt>
      <trkpt lat="44.40597" lon="6.38244">
        <ele>2322</ele>
        <time>2021-09-01T10:54:18.000Z</time>
      </trkpt>
      <trkpt lat="44.40597" lon="6.38245">
        <ele>2324</ele>
        <time>2021-09-01T10:54:19.000Z</time>
      </trkpt>
      <trkpt lat="44.40597" lon="6.38245">
        <ele>2324</ele>
        <time>2021-09-01T10:54:20.000Z</time>
      </trkpt>
      <trkpt lat="44.40598" lon="6.38246">
        <ele>2323</ele>
        <time>2021-09-01T10:54:21.000Z</time>
      </trkpt>
      <trkpt lat="44.406" lon="6.38248">
        <ele>2322</ele>
        <time>2021-09-01T10:54:22.000Z</time>
      </trkpt>
      <trkpt lat="44.40601" lon="6.38246">
        <ele>2322</ele>
        <time>2021-09-01T10:54:23.000Z</time>
      </trkpt>
      <trkpt lat="44.40602" lon="6.38245">
        <ele>2321</ele>
        <time>2021-09-01T10:54:24.000Z</time>
      </trkpt>
      <trkpt lat="44.40603" lon="6.38245">
        <ele>2322</ele>
        <time>2021-09-01T10:54:25.000Z</time>
      </trkpt>
      <trkpt lat="44.40604" lon="6.38244">
        <ele>2321</ele>
        <time>2021-09-01T10:54:26.000Z</time>
      </trkpt>
      <trkpt lat="44.40606" lon="6.38244">
        <ele>2322</ele>
        <time>2021-09-01T10:54:27.000Z</time>
      </trkpt>
      <trkpt lat="44.40606" lon="6.38243">
        <ele>2322</ele>
        <time>2021-09-01T10:54:28.000Z</time>
      </trkpt>
      <trkpt lat="44.40608" lon="6.38242">
        <ele>2322</ele>
        <time>2021-09-01T10:54:29.000Z</time>
      </trkpt>
      <trkpt lat="44.40609" lon="6.38242">
        <ele>2322</ele>
        <time>2021-09-01T10:54:30.000Z</time>
      </trkpt>
      <trkpt lat="44.40612" lon="6.3824">
        <ele>2322</ele>
        <time>2021-09-01T10:54:31.000Z</time>
      </trkpt>
      <trkpt lat="44.40614" lon="6.38239">
        <ele>2321</ele>
        <time>2021-09-01T10:54:32.000Z</time>
      </trkpt>
      <trkpt lat="44.40615" lon="6.38238">
        <ele>2321</ele>
        <time>2021-09-01T10:54:33.000Z</time>
      </trkpt>
      <trkpt lat="44.40617" lon="6.38238">
        <ele>2321</ele>
        <time>2021-09-01T10:54:34.000Z</time>
      </trkpt>
      <trkpt lat="44.40618" lon="6.38236">
        <ele>2321</ele>
        <time>2021-09-01T10:54:35.000Z</time>
      </trkpt>
      <trkpt lat="44.40619" lon="6.38236">
        <ele>2322</ele>
        <time>2021-09-01T10:54:36.000Z</time>
      </trkpt>
      <trkpt lat="44.40621" lon="6.38235">
        <ele>2323</ele>
        <time>2021-09-01T10:54:37.000Z</time>
      </trkpt>
      <trkpt lat="44.40619" lon="6.38237">
        <ele>2322</ele>
        <time>2021-09-01T10:54:38.000Z</time>
      </trkpt>
      <trkpt lat="44.40618" lon="6.38241">
        <ele>2320</ele>
        <time>2021-09-01T10:54:39.000Z</time>
      </trkpt>
      <trkpt lat="44.40616" lon="6.38241">
        <ele>2322</ele>
        <time>2021-09-01T10:54:40.000Z</time>
      </trkpt>
      <trkpt lat="44.40615" lon="6.38243">
        <ele>2321</ele>
        <time>2021-09-01T10:54:41.000Z</time>
      </trkpt>
      <trkpt lat="44.40614" lon="6.38244">
        <ele>2322</ele>
        <time>2021-09-01T10:54:42.000Z</time>
      </trkpt>
      <trkpt lat="44.40612" lon="6.38244">
        <ele>2324</ele>
        <time>2021-09-01T10:54:43.000Z</time>
      </trkpt>
      <trkpt lat="44.40611" lon="6.38245">
        <ele>2324</ele>
        <time>2021-09-01T10:54:44.000Z</time>
      </trkpt>
      <trkpt lat="44.4061" lon="6.38247">
        <ele>2325</ele>
        <time>2021-09-01T10:54:45.000Z</time>
      </trkpt>
      <trkpt lat="44.40608" lon="6.38247">
        <ele>2326</ele>
        <time>2021-09-01T10:54:46.000Z</time>
      </trkpt>
      <trkpt lat="44.40607" lon="6.38248">
        <ele>2327</ele>
        <time>2021-09-01T10:54:47.000Z</time>
      </trkpt>
      <trkpt lat="44.40606" lon="6.38249">
        <ele>2327</ele>
        <time>2021-09-01T10:54:48.000Z</time>
      </trkpt>
      <trkpt lat="44.40605" lon="6.38251">
        <ele>2328</ele>
        <time>2021-09-01T10:54:49.000Z</time>
      </trkpt>
      <trkpt lat="44.40604" lon="6.38252">
        <ele>2328</ele>
        <time>2021-09-01T10:54:50.000Z</time>
      </trkpt>
      <trkpt lat="44.40602" lon="6.38254">
        <ele>2328</ele>
        <time>2021-09-01T10:54:51.000Z</time>
      </trkpt>
      <trkpt lat="44.40601" lon="6.38255">
        <ele>2328</ele>
        <time>2021-09-01T10:54:52.000Z</time>
      </trkpt>
      <trkpt lat="44.406" lon="6.38255">
        <ele>2330</ele>
        <time>2021-09-01T10:54:53.000Z</time>
      </trkpt>
      <trkpt lat="44.406" lon="6.38255">
        <ele>2331</ele>
        <time>2021-09-01T10:54:54.000Z</time>
      </trkpt>
      <trkpt lat="44.406" lon="6.38255">
        <ele>2331</ele>
        <time>2021-09-01T10:54:55.000Z</time>
      </trkpt>
      <trkpt lat="44.40601" lon="6.38258">
        <ele>2333</ele>
        <time>2021-09-01T10:54:56.000Z</time>
      </trkpt>
      <trkpt lat="44.40602" lon="6.38259">
        <ele>2334</ele>
        <time>2021-09-01T10:54:57.000Z</time>
      </trkpt>
      <trkpt lat="44.40603" lon="6.38259">
        <ele>2334</ele>
        <time>2021-09-01T10:54:58.000Z</time>
      </trkpt>
      <trkpt lat="44.40603" lon="6.38259">
        <ele>2335</ele>
        <time>2021-09-01T10:54:59.000Z</time>
      </trkpt>
      <trkpt lat="44.40604" lon="6.38259">
        <ele>2334</ele>
        <time>2021-09-01T10:55:00.000Z</time>
      </trkpt>
      <trkpt lat="44.40605" lon="6.38259">
        <ele>2334</ele>
        <time>2021-09-01T10:55:01.000Z</time>
      </trkpt>
      <trkpt lat="44.40607" lon="6.38259">
        <ele>2334</ele>
        <time>2021-09-01T10:55:02.000Z</time>
      </trkpt>
      <trkpt lat="44.40609" lon="6.38258">
        <ele>2333</ele>
        <time>2021-09-01T10:55:03.000Z</time>
      </trkpt>
      <trkpt lat="44.40611" lon="6.38257">
        <ele>2333</ele>
        <time>2021-09-01T10:55:04.000Z</time>
      </trkpt>
      <trkpt lat="44.40613" lon="6.38256">
        <ele>2333</ele>
        <time>2021-09-01T10:55:05.000Z</time>
      </trkpt>
      <trkpt lat="44.40615" lon="6.38256">
        <ele>2333</ele>
        <time>2021-09-01T10:55:06.000Z</time>
      </trkpt>
      <trkpt lat="44.40619" lon="6.38256">
        <ele>2332</ele>
        <time>2021-09-01T10:55:07.000Z</time>
      </trkpt>
      <trkpt lat="44.40621" lon="6.38255">
        <ele>2332</ele>
        <time>2021-09-01T10:55:08.000Z</time>
      </trkpt>
      <trkpt lat="44.40623" lon="6.38254">
        <ele>2332</ele>
        <time>2021-09-01T10:55:09.000Z</time>
      </trkpt>
      <trkpt lat="44.40625" lon="6.38253">
        <ele>2331</ele>
        <time>2021-09-01T10:55:10.000Z</time>
      </trkpt>
      <trkpt lat="44.40627" lon="6.38253">
        <ele>2331</ele>
        <time>2021-09-01T10:55:11.000Z</time>
      </trkpt>
      <trkpt lat="44.4063" lon="6.38253">
        <ele>2331</ele>
        <time>2021-09-01T10:55:12.000Z</time>
      </trkpt>
      <trkpt lat="44.40632" lon="6.38252">
        <ele>2330</ele>
        <time>2021-09-01T10:55:13.000Z</time>
      </trkpt>
      <trkpt lat="44.40635" lon="6.38251">
        <ele>2330</ele>
        <time>2021-09-01T10:55:14.000Z</time>
      </trkpt>
      <trkpt lat="44.40636" lon="6.38248">
        <ele>2330</ele>
        <time>2021-09-01T10:55:15.000Z</time>
      </trkpt>
      <trkpt lat="44.40638" lon="6.38246">
        <ele>2331</ele>
        <time>2021-09-01T10:55:16.000Z</time>
      </trkpt>
      <trkpt lat="44.4064" lon="6.38244">
        <ele>2330</ele>
        <time>2021-09-01T10:55:17.000Z</time>
      </trkpt>
      <trkpt lat="44.40641" lon="6.38242">
        <ele>2330</ele>
        <time>2021-09-01T10:55:18.000Z</time>
      </trkpt>
      <trkpt lat="44.40643" lon="6.38241">
        <ele>2329</ele>
        <time>2021-09-01T10:55:19.000Z</time>
      </trkpt>
      <trkpt lat="44.40644" lon="6.38239">
        <ele>2328</ele>
        <time>2021-09-01T10:55:20.000Z</time>
      </trkpt>
      <trkpt lat="44.40645" lon="6.38237">
        <ele>2328</ele>
        <time>2021-09-01T10:55:21.000Z</time>
      </trkpt>
      <trkpt lat="44.40647" lon="6.38235">
        <ele>2327</ele>
        <time>2021-09-01T10:55:22.000Z</time>
      </trkpt>
      <trkpt lat="44.40649" lon="6.38233">
        <ele>2327</ele>
        <time>2021-09-01T10:55:23.000Z</time>
      </trkpt>
      <trkpt lat="44.40651" lon="6.38231">
        <ele>2327</ele>
        <time>2021-09-01T10:55:24.000Z</time>
      </trkpt>
      <trkpt lat="44.40653" lon="6.3823">
        <ele>2328</ele>
        <time>2021-09-01T10:55:25.000Z</time>
      </trkpt>
      <trkpt lat="44.40655" lon="6.38227">
        <ele>2328</ele>
        <time>2021-09-01T10:55:26.000Z</time>
      </trkpt>
      <trkpt lat="44.40658" lon="6.38225">
        <ele>2329</ele>
        <time>2021-09-01T10:55:27.000Z</time>
      </trkpt>
      <trkpt lat="44.4066" lon="6.38223">
        <ele>2329</ele>
        <time>2021-09-01T10:55:28.000Z</time>
      </trkpt>
      <trkpt lat="44.40662" lon="6.38221">
        <ele>2329</ele>
        <time>2021-09-01T10:55:29.000Z</time>
      </trkpt>
      <trkpt lat="44.40663" lon="6.3822">
        <ele>2330</ele>
        <time>2021-09-01T10:55:30.000Z</time>
      </trkpt>
      <trkpt lat="44.40664" lon="6.38219">
        <ele>2330</ele>
        <time>2021-09-01T10:55:31.000Z</time>
      </trkpt>
      <trkpt lat="44.40665" lon="6.38217">
        <ele>2331</ele>
        <time>2021-09-01T10:55:32.000Z</time>
      </trkpt>
      <trkpt lat="44.40666" lon="6.38218">
        <ele>2330</ele>
        <time>2021-09-01T10:55:33.000Z</time>
      </trkpt>
      <trkpt lat="44.40665" lon="6.38223">
        <ele>2326</ele>
        <time>2021-09-01T10:55:34.000Z</time>
      </trkpt>
      <trkpt lat="44.40664" lon="6.38228">
        <ele>2324</ele>
        <time>2021-09-01T10:55:35.000Z</time>
      </trkpt>
      <trkpt lat="44.40664" lon="6.38229">
        <ele>2326</ele>
        <time>2021-09-01T10:55:36.000Z</time>
      </trkpt>
      <trkpt lat="44.40663" lon="6.3823">
        <ele>2329</ele>
        <time>2021-09-01T10:55:37.000Z</time>
      </trkpt>
      <trkpt lat="44.40662" lon="6.38231">
        <ele>2331</ele>
        <time>2021-09-01T10:55:38.000Z</time>
      </trkpt>
      <trkpt lat="44.40661" lon="6.38233">
        <ele>2333</ele>
        <time>2021-09-01T10:55:39.000Z</time>
      </trkpt>
      <trkpt lat="44.40661" lon="6.38235">
        <ele>2334</ele>
        <time>2021-09-01T10:55:40.000Z</time>
      </trkpt>
      <trkpt lat="44.40661" lon="6.38236">
        <ele>2336</ele>
        <time>2021-09-01T10:55:41.000Z</time>
      </trkpt>
      <trkpt lat="44.4066" lon="6.38238">
        <ele>2337</ele>
        <time>2021-09-01T10:55:42.000Z</time>
      </trkpt>
      <trkpt lat="44.40659" lon="6.3824">
        <ele>2338</ele>
        <time>2021-09-01T10:55:43.000Z</time>
      </trkpt>
      <trkpt lat="44.40659" lon="6.38243">
        <ele>2338</ele>
        <time>2021-09-01T10:55:44.000Z</time>
      </trkpt>
      <trkpt lat="44.40658" lon="6.38245">
        <ele>2339</ele>
        <time>2021-09-01T10:55:45.000Z</time>
      </trkpt>
      <trkpt lat="44.40657" lon="6.38247">
        <ele>2340</ele>
        <time>2021-09-01T10:55:46.000Z</time>
      </trkpt>
      <trkpt lat="44.40657" lon="6.3825">
        <ele>2341</ele>
        <time>2021-09-01T10:55:47.000Z</time>
      </trkpt>
      <trkpt lat="44.40656" lon="6.38253">
        <ele>2341</ele>
        <time>2021-09-01T10:55:48.000Z</time>
      </trkpt>
      <trkpt lat="44.40655" lon="6.38256">
        <ele>2342</ele>
        <time>2021-09-01T10:55:49.000Z</time>
      </trkpt>
      <trkpt lat="44.40654" lon="6.38258">
        <ele>2343</ele>
        <time>2021-09-01T10:55:50.000Z</time>
      </trkpt>
      <trkpt lat="44.40654" lon="6.38261">
        <ele>2344</ele>
        <time>2021-09-01T10:55:51.000Z</time>
      </trkpt>
      <trkpt lat="44.40653" lon="6.38263">
        <ele>2344</ele>
        <time>2021-09-01T10:55:52.000Z</time>
      </trkpt>
      <trkpt lat="44.40652" lon="6.38266">
        <ele>2345</ele>
        <time>2021-09-01T10:55:53.000Z</time>
      </trkpt>
      <trkpt lat="44.40651" lon="6.38269">
        <ele>2345</ele>
        <time>2021-09-01T10:55:54.000Z</time>
      </trkpt>
      <trkpt lat="44.40649" lon="6.38271">
        <ele>2346</ele>
        <time>2021-09-01T10:55:55.000Z</time>
      </trkpt>
      <trkpt lat="44.40648" lon="6.38272">
        <ele>2347</ele>
        <time>2021-09-01T10:55:56.000Z</time>
      </trkpt>
      <trkpt lat="44.40645" lon="6.38272">
        <ele>2348</ele>
        <time>2021-09-01T10:55:57.000Z</time>
      </trkpt>
      <trkpt lat="44.40644" lon="6.38274">
        <ele>2349</ele>
        <time>2021-09-01T10:55:58.000Z</time>
      </trkpt>
      <trkpt lat="44.40643" lon="6.38276">
        <ele>2350</ele>
        <time>2021-09-01T10:55:59.000Z</time>
      </trkpt>
      <trkpt lat="44.40641" lon="6.38278">
        <ele>2350</ele>
        <time>2021-09-01T10:56:00.000Z</time>
      </trkpt>
      <trkpt lat="44.40639" lon="6.38279">
        <ele>2351</ele>
        <time>2021-09-01T10:56:01.000Z</time>
      </trkpt>
      <trkpt lat="44.40637" lon="6.38279">
        <ele>2352</ele>
        <time>2021-09-01T10:56:02.000Z</time>
      </trkpt>
      <trkpt lat="44.40635" lon="6.38279">
        <ele>2353</ele>
        <time>2021-09-01T10:56:03.000Z</time>
      </trkpt>
      <trkpt lat="44.40632" lon="6.3828">
        <ele>2353</ele>
        <time>2021-09-01T10:56:04.000Z</time>
      </trkpt>
      <trkpt lat="44.40631" lon="6.38281">
        <ele>2353</ele>
        <time>2021-09-01T10:56:05.000Z</time>
      </trkpt>
      <trkpt lat="44.40629" lon="6.38281">
        <ele>2353</ele>
        <time>2021-09-01T10:56:06.000Z</time>
      </trkpt>
      <trkpt lat="44.40627" lon="6.38281">
        <ele>2352</ele>
        <time>2021-09-01T10:56:07.000Z</time>
      </trkpt>
      <trkpt lat="44.40625" lon="6.38281">
        <ele>2352</ele>
        <time>2021-09-01T10:56:08.000Z</time>
      </trkpt>
      <trkpt lat="44.40624" lon="6.38282">
        <ele>2351</ele>
        <time>2021-09-01T10:56:09.000Z</time>
      </trkpt>
      <trkpt lat="44.40622" lon="6.38282">
        <ele>2351</ele>
        <time>2021-09-01T10:56:10.000Z</time>
      </trkpt>
      <trkpt lat="44.40621" lon="6.38283">
        <ele>2352</ele>
        <time>2021-09-01T10:56:11.000Z</time>
      </trkpt>
      <trkpt lat="44.40621" lon="6.38285">
        <ele>2353</ele>
        <time>2021-09-01T10:56:12.000Z</time>
      </trkpt>
      <trkpt lat="44.4062" lon="6.38286">
        <ele>2352</ele>
        <time>2021-09-01T10:56:13.000Z</time>
      </trkpt>
      <trkpt lat="44.40621" lon="6.38287">
        <ele>2351</ele>
        <time>2021-09-01T10:56:14.000Z</time>
      </trkpt>
      <trkpt lat="44.40622" lon="6.38288">
        <ele>2349</ele>
        <time>2021-09-01T10:56:15.000Z</time>
      </trkpt>
      <trkpt lat="44.40622" lon="6.38288">
        <ele>2348</ele>
        <time>2021-09-01T10:56:16.000Z</time>
      </trkpt>
      <trkpt lat="44.40623" lon="6.38288">
        <ele>2347</ele>
        <time>2021-09-01T10:56:17.000Z</time>
      </trkpt>
      <trkpt lat="44.40625" lon="6.38288">
        <ele>2347</ele>
        <time>2021-09-01T10:56:18.000Z</time>
      </trkpt>
      <trkpt lat="44.40628" lon="6.38289">
        <ele>2349</ele>
        <time>2021-09-01T10:56:19.000Z</time>
      </trkpt>
      <trkpt lat="44.40631" lon="6.38288">
        <ele>2351</ele>
        <time>2021-09-01T10:56:20.000Z</time>
      </trkpt>
      <trkpt lat="44.40633" lon="6.38287">
        <ele>2351</ele>
        <time>2021-09-01T10:56:21.000Z</time>
      </trkpt>
      <trkpt lat="44.40635" lon="6.38286">
        <ele>2351</ele>
        <time>2021-09-01T10:56:22.000Z</time>
      </trkpt>
      <trkpt lat="44.40637" lon="6.38285">
        <ele>2351</ele>
        <time>2021-09-01T10:56:23.000Z</time>
      </trkpt>
      <trkpt lat="44.40638" lon="6.38283">
        <ele>2351</ele>
        <time>2021-09-01T10:56:24.000Z</time>
      </trkpt>
      <trkpt lat="44.4064" lon="6.38282">
        <ele>2352</ele>
        <time>2021-09-01T10:56:25.000Z</time>
      </trkpt>
      <trkpt lat="44.40641" lon="6.38281">
        <ele>2351</ele>
        <time>2021-09-01T10:56:26.000Z</time>
      </trkpt>
      <trkpt lat="44.40642" lon="6.3828">
        <ele>2351</ele>
        <time>2021-09-01T10:56:27.000Z</time>
      </trkpt>
      <trkpt lat="44.40644" lon="6.38279">
        <ele>2350</ele>
        <time>2021-09-01T10:56:28.000Z</time>
      </trkpt>
      <trkpt lat="44.40646" lon="6.38278">
        <ele>2350</ele>
        <time>2021-09-01T10:56:29.000Z</time>
      </trkpt>
      <trkpt lat="44.40648" lon="6.38277">
        <ele>2349</ele>
        <time>2021-09-01T10:56:30.000Z</time>
      </trkpt>
      <trkpt lat="44.40649" lon="6.38276">
        <ele>2350</ele>
        <time>2021-09-01T10:56:31.000Z</time>
      </trkpt>
      <trkpt lat="44.40652" lon="6.38274">
        <ele>2349</ele>
        <time>2021-09-01T10:56:32.000Z</time>
      </trkpt>
      <trkpt lat="44.40655" lon="6.38272">
        <ele>2347</ele>
        <time>2021-09-01T10:56:33.000Z</time>
      </trkpt>
      <trkpt lat="44.40657" lon="6.38271">
        <ele>2347</ele>
        <time>2021-09-01T10:56:34.000Z</time>
      </trkpt>
      <trkpt lat="44.40659" lon="6.38269">
        <ele>2347</ele>
        <time>2021-09-01T10:56:35.000Z</time>
      </trkpt>
      <trkpt lat="44.40661" lon="6.38268">
        <ele>2346</ele>
        <time>2021-09-01T10:56:36.000Z</time>
      </trkpt>
      <trkpt lat="44.40663" lon="6.38266">
        <ele>2346</ele>
        <time>2021-09-01T10:56:37.000Z</time>
      </trkpt>
      <trkpt lat="44.40665" lon="6.38265">
        <ele>2345</ele>
        <time>2021-09-01T10:56:38.000Z</time>
      </trkpt>
      <trkpt lat="44.40668" lon="6.38264">
        <ele>2345</ele>
        <time>2021-09-01T10:56:39.000Z</time>
      </trkpt>
      <trkpt lat="44.40669" lon="6.38262">
        <ele>2345</ele>
        <time>2021-09-01T10:56:40.000Z</time>
      </trkpt>
      <trkpt lat="44.40671" lon="6.3826">
        <ele>2345</ele>
        <time>2021-09-01T10:56:41.000Z</time>
      </trkpt>
      <trkpt lat="44.40672" lon="6.38257">
        <ele>2345</ele>
        <time>2021-09-01T10:56:42.000Z</time>
      </trkpt>
      <trkpt lat="44.40674" lon="6.38256">
        <ele>2345</ele>
        <time>2021-09-01T10:56:43.000Z</time>
      </trkpt>
      <trkpt lat="44.40676" lon="6.38254">
        <ele>2345</ele>
        <time>2021-09-01T10:56:44.000Z</time>
      </trkpt>
      <trkpt lat="44.40678" lon="6.38253">
        <ele>2345</ele>
        <time>2021-09-01T10:56:45.000Z</time>
      </trkpt>
      <trkpt lat="44.4068" lon="6.38251">
        <ele>2346</ele>
        <time>2021-09-01T10:56:46.000Z</time>
      </trkpt>
      <trkpt lat="44.40682" lon="6.38251">
        <ele>2345</ele>
        <time>2021-09-01T10:56:47.000Z</time>
      </trkpt>
      <trkpt lat="44.40684" lon="6.38251">
        <ele>2346</ele>
        <time>2021-09-01T10:56:48.000Z</time>
      </trkpt>
      <trkpt lat="44.40686" lon="6.38251">
        <ele>2348</ele>
        <time>2021-09-01T10:56:49.000Z</time>
      </trkpt>
      <trkpt lat="44.40687" lon="6.38251">
        <ele>2349</ele>
        <time>2021-09-01T10:56:50.000Z</time>
      </trkpt>
      <trkpt lat="44.40689" lon="6.38251">
        <ele>2351</ele>
        <time>2021-09-01T10:56:51.000Z</time>
      </trkpt>
      <trkpt lat="44.40691" lon="6.38252">
        <ele>2352</ele>
        <time>2021-09-01T10:56:52.000Z</time>
      </trkpt>
      <trkpt lat="44.40692" lon="6.38253">
        <ele>2353</ele>
        <time>2021-09-01T10:56:53.000Z</time>
      </trkpt>
      <trkpt lat="44.40694" lon="6.38254">
        <ele>2354</ele>
        <time>2021-09-01T10:56:54.000Z</time>
      </trkpt>
      <trkpt lat="44.40696" lon="6.38253">
        <ele>2355</ele>
        <time>2021-09-01T10:56:55.000Z</time>
      </trkpt>
      <trkpt lat="44.40698" lon="6.38254">
        <ele>2355</ele>
        <time>2021-09-01T10:56:56.000Z</time>
      </trkpt>
      <trkpt lat="44.407" lon="6.38255">
        <ele>2355</ele>
        <time>2021-09-01T10:56:57.000Z</time>
      </trkpt>
      <trkpt lat="44.40701" lon="6.38255">
        <ele>2357</ele>
        <time>2021-09-01T10:56:58.000Z</time>
      </trkpt>
      <trkpt lat="44.40703" lon="6.38254">
        <ele>2358</ele>
        <time>2021-09-01T10:56:59.000Z</time>
      </trkpt>
      <trkpt lat="44.40704" lon="6.38255">
        <ele>2359</ele>
        <time>2021-09-01T10:57:00.000Z</time>
      </trkpt>
      <trkpt lat="44.40706" lon="6.38255">
        <ele>2360</ele>
        <time>2021-09-01T10:57:01.000Z</time>
      </trkpt>
      <trkpt lat="44.40707" lon="6.38256">
        <ele>2362</ele>
        <time>2021-09-01T10:57:02.000Z</time>
      </trkpt>
      <trkpt lat="44.40709" lon="6.38256">
        <ele>2363</ele>
        <time>2021-09-01T10:57:03.000Z</time>
      </trkpt>
      <trkpt lat="44.40711" lon="6.38256">
        <ele>2364</ele>
        <time>2021-09-01T10:57:04.000Z</time>
      </trkpt>
      <trkpt lat="44.40713" lon="6.38255">
        <ele>2363</ele>
        <time>2021-09-01T10:57:05.000Z</time>
      </trkpt>
      <trkpt lat="44.40714" lon="6.38254">
        <ele>2364</ele>
        <time>2021-09-01T10:57:06.000Z</time>
      </trkpt>
      <trkpt lat="44.40715" lon="6.38255">
        <ele>2364</ele>
        <time>2021-09-01T10:57:07.000Z</time>
      </trkpt>
      <trkpt lat="44.40716" lon="6.38256">
        <ele>2363</ele>
        <time>2021-09-01T10:57:08.000Z</time>
      </trkpt>
      <trkpt lat="44.40717" lon="6.38256">
        <ele>2363</ele>
        <time>2021-09-01T10:57:09.000Z</time>
      </trkpt>
      <trkpt lat="44.40718" lon="6.38255">
        <ele>2363</ele>
        <time>2021-09-01T10:57:10.000Z</time>
      </trkpt>
      <trkpt lat="44.40719" lon="6.38254">
        <ele>2364</ele>
        <time>2021-09-01T10:57:11.000Z</time>
      </trkpt>
      <trkpt lat="44.40719" lon="6.38254">
        <ele>2363</ele>
        <time>2021-09-01T10:57:12.000Z</time>
      </trkpt>
      <trkpt lat="44.40719" lon="6.38253">
        <ele>2364</ele>
        <time>2021-09-01T10:57:13.000Z</time>
      </trkpt>
      <trkpt lat="44.4072" lon="6.38253">
        <ele>2364</ele>
        <time>2021-09-01T10:57:14.000Z</time>
      </trkpt>
      <trkpt lat="44.4072" lon="6.38253">
        <ele>2365</ele>
        <time>2021-09-01T10:57:15.000Z</time>
      </trkpt>
      <trkpt lat="44.40721" lon="6.38253">
        <ele>2365</ele>
        <time>2021-09-01T10:57:16.000Z</time>
      </trkpt>
      <trkpt lat="44.40721" lon="6.38253">
        <ele>2365</ele>
        <time>2021-09-01T10:57:17.000Z</time>
      </trkpt>
      <trkpt lat="44.40721" lon="6.38253">
        <ele>2365</ele>
        <time>2021-09-01T10:57:18.000Z</time>
      </trkpt>
      <trkpt lat="44.40721" lon="6.38252">
        <ele>2366</ele>
        <time>2021-09-01T10:57:19.000Z</time>
      </trkpt>
      <trkpt lat="44.40722" lon="6.38252">
        <ele>2366</ele>
        <time>2021-09-01T10:57:20.000Z</time>
      </trkpt>
      <trkpt lat="44.40722" lon="6.38252">
        <ele>2366</ele>
        <time>2021-09-01T10:57:21.000Z</time>
      </trkpt>
      <trkpt lat="44.40722" lon="6.38252">
        <ele>2366</ele>
        <time>2021-09-01T10:57:22.000Z</time>
      </trkpt>
      <trkpt lat="44.40723" lon="6.38252">
        <ele>2366</ele>
        <time>2021-09-01T10:57:23.000Z</time>
      </trkpt>
      <trkpt lat="44.40723" lon="6.38252">
        <ele>2366</ele>
        <time>2021-09-01T10:57:24.000Z</time>
      </trkpt>
      <trkpt lat="44.40723" lon="6.38252">
        <ele>2365</ele>
        <time>2021-09-01T10:57:25.000Z</time>
      </trkpt>
      <trkpt lat="44.40723" lon="6.38252">
        <ele>2365</ele>
        <time>2021-09-01T10:57:26.000Z</time>
      </trkpt>
      <trkpt lat="44.40723" lon="6.38252">
        <ele>2365</ele>
        <time>2021-09-01T10:57:27.000Z</time>
      </trkpt>
      <trkpt lat="44.40724" lon="6.38251">
        <ele>2365</ele>
        <time>2021-09-01T10:57:28.000Z</time>
      </trkpt>
      <trkpt lat="44.40725" lon="6.38251">
        <ele>2365</ele>
        <time>2021-09-01T10:57:29.000Z</time>
      </trkpt>
      <trkpt lat="44.40727" lon="6.38251">
        <ele>2365</ele>
        <time>2021-09-01T10:57:30.000Z</time>
      </trkpt>
      <trkpt lat="44.40729" lon="6.38251">
        <ele>2365</ele>
        <time>2021-09-01T10:57:31.000Z</time>
      </trkpt>
      <trkpt lat="44.4073" lon="6.38251">
        <ele>2365</ele>
        <time>2021-09-01T10:57:32.000Z</time>
      </trkpt>
      <trkpt lat="44.40731" lon="6.38249">
        <ele>2365</ele>
        <time>2021-09-01T10:57:33.000Z</time>
      </trkpt>
      <trkpt lat="44.40733" lon="6.38249">
        <ele>2364</ele>
        <time>2021-09-01T10:57:34.000Z</time>
      </trkpt>
      <trkpt lat="44.40734" lon="6.38248">
        <ele>2364</ele>
        <time>2021-09-01T10:57:35.000Z</time>
      </trkpt>
      <trkpt lat="44.40735" lon="6.38246">
        <ele>2365</ele>
        <time>2021-09-01T10:57:36.000Z</time>
      </trkpt>
      <trkpt lat="44.40735" lon="6.38244">
        <ele>2365</ele>
        <time>2021-09-01T10:57:37.000Z</time>
      </trkpt>
      <trkpt lat="44.40737" lon="6.38242">
        <ele>2365</ele>
        <time>2021-09-01T10:57:38.000Z</time>
      </trkpt>
      <trkpt lat="44.40738" lon="6.38241">
        <ele>2366</ele>
        <time>2021-09-01T10:57:39.000Z</time>
      </trkpt>
      <trkpt lat="44.40739" lon="6.38239">
        <ele>2366</ele>
        <time>2021-09-01T10:57:40.000Z</time>
      </trkpt>
      <trkpt lat="44.4074" lon="6.38238">
        <ele>2366</ele>
        <time>2021-09-01T10:57:41.000Z</time>
      </trkpt>
      <trkpt lat="44.40741" lon="6.38237">
        <ele>2367</ele>
        <time>2021-09-01T10:57:42.000Z</time>
      </trkpt>
      <trkpt lat="44.40742" lon="6.38234">
        <ele>2368</ele>
        <time>2021-09-01T10:57:43.000Z</time>
      </trkpt>
      <trkpt lat="44.40742" lon="6.38232">
        <ele>2367</ele>
        <time>2021-09-01T10:57:44.000Z</time>
      </trkpt>
      <trkpt lat="44.40743" lon="6.38229">
        <ele>2368</ele>
        <time>2021-09-01T10:57:45.000Z</time>
      </trkpt>
      <trkpt lat="44.40744" lon="6.38227">
        <ele>2368</ele>
        <time>2021-09-01T10:57:46.000Z</time>
      </trkpt>
      <trkpt lat="44.40745" lon="6.38225">
        <ele>2368</ele>
        <time>2021-09-01T10:57:47.000Z</time>
      </trkpt>
      <trkpt lat="44.40746" lon="6.38223">
        <ele>2368</ele>
        <time>2021-09-01T10:57:48.000Z</time>
      </trkpt>
      <trkpt lat="44.40747" lon="6.3822">
        <ele>2368</ele>
        <time>2021-09-01T10:57:49.000Z</time>
      </trkpt>
      <trkpt lat="44.40748" lon="6.38217">
        <ele>2369</ele>
        <time>2021-09-01T10:57:50.000Z</time>
      </trkpt>
      <trkpt lat="44.40748" lon="6.38215">
        <ele>2369</ele>
        <time>2021-09-01T10:57:51.000Z</time>
      </trkpt>
      <trkpt lat="44.40749" lon="6.38213">
        <ele>2369</ele>
        <time>2021-09-01T10:57:52.000Z</time>
      </trkpt>
      <trkpt lat="44.4075" lon="6.38211">
        <ele>2369</ele>
        <time>2021-09-01T10:57:53.000Z</time>
      </trkpt>
      <trkpt lat="44.40752" lon="6.38209">
        <ele>2370</ele>
        <time>2021-09-01T10:57:54.000Z</time>
      </trkpt>
      <trkpt lat="44.40753" lon="6.38206">
        <ele>2370</ele>
        <time>2021-09-01T10:57:55.000Z</time>
      </trkpt>
      <trkpt lat="44.40754" lon="6.38203">
        <ele>2370</ele>
        <time>2021-09-01T10:57:56.000Z</time>
      </trkpt>
      <trkpt lat="44.40755" lon="6.382">
        <ele>2370</ele>
        <time>2021-09-01T10:57:57.000Z</time>
      </trkpt>
      <trkpt lat="44.40756" lon="6.38198">
        <ele>2369</ele>
        <time>2021-09-01T10:57:58.000Z</time>
      </trkpt>
      <trkpt lat="44.40757" lon="6.38195">
        <ele>2370</ele>
        <time>2021-09-01T10:57:59.000Z</time>
      </trkpt>
      <trkpt lat="44.40759" lon="6.38193">
        <ele>2370</ele>
        <time>2021-09-01T10:58:00.000Z</time>
      </trkpt>
      <trkpt lat="44.4076" lon="6.38191">
        <ele>2371</ele>
        <time>2021-09-01T10:58:01.000Z</time>
      </trkpt>
      <trkpt lat="44.40762" lon="6.38188">
        <ele>2372</ele>
        <time>2021-09-01T10:58:02.000Z</time>
      </trkpt>
      <trkpt lat="44.40763" lon="6.38186">
        <ele>2372</ele>
        <time>2021-09-01T10:58:03.000Z</time>
      </trkpt>
      <trkpt lat="44.40764" lon="6.38184">
        <ele>2373</ele>
        <time>2021-09-01T10:58:04.000Z</time>
      </trkpt>
      <trkpt lat="44.40766" lon="6.38182">
        <ele>2374</ele>
        <time>2021-09-01T10:58:05.000Z</time>
      </trkpt>
      <trkpt lat="44.40768" lon="6.38181">
        <ele>2376</ele>
        <time>2021-09-01T10:58:06.000Z</time>
      </trkpt>
      <trkpt lat="44.40769" lon="6.3818">
        <ele>2377</ele>
        <time>2021-09-01T10:58:07.000Z</time>
      </trkpt>
      <trkpt lat="44.40771" lon="6.38179">
        <ele>2378</ele>
        <time>2021-09-01T10:58:08.000Z</time>
      </trkpt>
      <trkpt lat="44.40772" lon="6.38178">
        <ele>2379</ele>
        <time>2021-09-01T10:58:09.000Z</time>
      </trkpt>
      <trkpt lat="44.40773" lon="6.38178">
        <ele>2380</ele>
        <time>2021-09-01T10:58:10.000Z</time>
      </trkpt>
      <trkpt lat="44.40775" lon="6.3818">
        <ele>2381</ele>
        <time>2021-09-01T10:58:11.000Z</time>
      </trkpt>
      <trkpt lat="44.40776" lon="6.3818">
        <ele>2381</ele>
        <time>2021-09-01T10:58:12.000Z</time>
      </trkpt>
      <trkpt lat="44.40778" lon="6.3818">
        <ele>2382</ele>
        <time>2021-09-01T10:58:13.000Z</time>
      </trkpt>
      <trkpt lat="44.4078" lon="6.38181">
        <ele>2382</ele>
        <time>2021-09-01T10:58:14.000Z</time>
      </trkpt>
      <trkpt lat="44.40782" lon="6.3818">
        <ele>2382</ele>
        <time>2021-09-01T10:58:15.000Z</time>
      </trkpt>
      <trkpt lat="44.40785" lon="6.38179">
        <ele>2383</ele>
        <time>2021-09-01T10:58:16.000Z</time>
      </trkpt>
      <trkpt lat="44.40787" lon="6.3818">
        <ele>2383</ele>
        <time>2021-09-01T10:58:17.000Z</time>
      </trkpt>
      <trkpt lat="44.40789" lon="6.3818">
        <ele>2383</ele>
        <time>2021-09-01T10:58:18.000Z</time>
      </trkpt>
      <trkpt lat="44.40791" lon="6.38179">
        <ele>2383</ele>
        <time>2021-09-01T10:58:19.000Z</time>
      </trkpt>
      <trkpt lat="44.40793" lon="6.38178">
        <ele>2382</ele>
        <time>2021-09-01T10:58:20.000Z</time>
      </trkpt>
      <trkpt lat="44.40794" lon="6.38176">
        <ele>2382</ele>
        <time>2021-09-01T10:58:21.000Z</time>
      </trkpt>
      <trkpt lat="44.40796" lon="6.38175">
        <ele>2383</ele>
        <time>2021-09-01T10:58:22.000Z</time>
      </trkpt>
      <trkpt lat="44.40797" lon="6.38174">
        <ele>2383</ele>
        <time>2021-09-01T10:58:23.000Z</time>
      </trkpt>
      <trkpt lat="44.40799" lon="6.38172">
        <ele>2382</ele>
        <time>2021-09-01T10:58:24.000Z</time>
      </trkpt>
      <trkpt lat="44.408" lon="6.38171">
        <ele>2381</ele>
        <time>2021-09-01T10:58:25.000Z</time>
      </trkpt>
      <trkpt lat="44.40802" lon="6.3817">
        <ele>2381</ele>
        <time>2021-09-01T10:58:26.000Z</time>
      </trkpt>
      <trkpt lat="44.40803" lon="6.38169">
        <ele>2380</ele>
        <time>2021-09-01T10:58:27.000Z</time>
      </trkpt>
      <trkpt lat="44.40805" lon="6.38169">
        <ele>2380</ele>
        <time>2021-09-01T10:58:28.000Z</time>
      </trkpt>
      <trkpt lat="44.40806" lon="6.38168">
        <ele>2380</ele>
        <time>2021-09-01T10:58:29.000Z</time>
      </trkpt>
      <trkpt lat="44.40808" lon="6.38168">
        <ele>2381</ele>
        <time>2021-09-01T10:58:30.000Z</time>
      </trkpt>
      <trkpt lat="44.4081" lon="6.38169">
        <ele>2383</ele>
        <time>2021-09-01T10:58:31.000Z</time>
      </trkpt>
      <trkpt lat="44.40811" lon="6.38168">
        <ele>2383</ele>
        <time>2021-09-01T10:58:32.000Z</time>
      </trkpt>
      <trkpt lat="44.40813" lon="6.3817">
        <ele>2384</ele>
        <time>2021-09-01T10:58:33.000Z</time>
      </trkpt>
      <trkpt lat="44.40814" lon="6.38171">
        <ele>2384</ele>
        <time>2021-09-01T10:58:34.000Z</time>
      </trkpt>
      <trkpt lat="44.40815" lon="6.38174">
        <ele>2383</ele>
        <time>2021-09-01T10:58:35.000Z</time>
      </trkpt>
      <trkpt lat="44.40817" lon="6.38175">
        <ele>2383</ele>
        <time>2021-09-01T10:58:36.000Z</time>
      </trkpt>
      <trkpt lat="44.40818" lon="6.38176">
        <ele>2383</ele>
        <time>2021-09-01T10:58:37.000Z</time>
      </trkpt>
      <trkpt lat="44.4082" lon="6.38177">
        <ele>2383</ele>
        <time>2021-09-01T10:58:38.000Z</time>
      </trkpt>
      <trkpt lat="44.40821" lon="6.38178">
        <ele>2382</ele>
        <time>2021-09-01T10:58:39.000Z</time>
      </trkpt>
      <trkpt lat="44.40823" lon="6.38179">
        <ele>2383</ele>
        <time>2021-09-01T10:58:40.000Z</time>
      </trkpt>
      <trkpt lat="44.40824" lon="6.38179">
        <ele>2384</ele>
        <time>2021-09-01T10:58:41.000Z</time>
      </trkpt>
      <trkpt lat="44.40827" lon="6.3818">
        <ele>2385</ele>
        <time>2021-09-01T10:58:42.000Z</time>
      </trkpt>
      <trkpt lat="44.40829" lon="6.3818">
        <ele>2385</ele>
        <time>2021-09-01T10:58:43.000Z</time>
      </trkpt>
      <trkpt lat="44.40831" lon="6.38181">
        <ele>2386</ele>
        <time>2021-09-01T10:58:44.000Z</time>
      </trkpt>
      <trkpt lat="44.40833" lon="6.38181">
        <ele>2386</ele>
        <time>2021-09-01T10:58:45.000Z</time>
      </trkpt>
      <trkpt lat="44.40835" lon="6.38182">
        <ele>2386</ele>
        <time>2021-09-01T10:58:46.000Z</time>
      </trkpt>
      <trkpt lat="44.40837" lon="6.38182">
        <ele>2387</ele>
        <time>2021-09-01T10:58:47.000Z</time>
      </trkpt>
      <trkpt lat="44.40839" lon="6.38182">
        <ele>2388</ele>
        <time>2021-09-01T10:58:48.000Z</time>
      </trkpt>
      <trkpt lat="44.40842" lon="6.38182">
        <ele>2390</ele>
        <time>2021-09-01T10:58:49.000Z</time>
      </trkpt>
      <trkpt lat="44.40843" lon="6.38183">
        <ele>2391</ele>
        <time>2021-09-01T10:58:50.000Z</time>
      </trkpt>
      <trkpt lat="44.40845" lon="6.38184">
        <ele>2392</ele>
        <time>2021-09-01T10:58:51.000Z</time>
      </trkpt>
      <trkpt lat="44.40847" lon="6.38184">
        <ele>2393</ele>
        <time>2021-09-01T10:58:52.000Z</time>
      </trkpt>
      <trkpt lat="44.40849" lon="6.38185">
        <ele>2394</ele>
        <time>2021-09-01T10:58:53.000Z</time>
      </trkpt>
      <trkpt lat="44.40851" lon="6.38184">
        <ele>2394</ele>
        <time>2021-09-01T10:58:54.000Z</time>
      </trkpt>
      <trkpt lat="44.40854" lon="6.38185">
        <ele>2394</ele>
        <time>2021-09-01T10:58:55.000Z</time>
      </trkpt>
      <trkpt lat="44.40855" lon="6.38185">
        <ele>2396</ele>
        <time>2021-09-01T10:58:56.000Z</time>
      </trkpt>
      <trkpt lat="44.40858" lon="6.38185">
        <ele>2395</ele>
        <time>2021-09-01T10:58:57.000Z</time>
      </trkpt>
      <trkpt lat="44.40861" lon="6.38185">
        <ele>2396</ele>
        <time>2021-09-01T10:58:58.000Z</time>
      </trkpt>
      <trkpt lat="44.40862" lon="6.38185">
        <ele>2396</ele>
        <time>2021-09-01T10:58:59.000Z</time>
      </trkpt>
      <trkpt lat="44.40863" lon="6.38184">
        <ele>2397</ele>
        <time>2021-09-01T10:59:00.000Z</time>
      </trkpt>
      <trkpt lat="44.40865" lon="6.38183">
        <ele>2396</ele>
        <time>2021-09-01T10:59:01.000Z</time>
      </trkpt>
      <trkpt lat="44.40866" lon="6.38183">
        <ele>2396</ele>
        <time>2021-09-01T10:59:02.000Z</time>
      </trkpt>
      <trkpt lat="44.40869" lon="6.38185">
        <ele>2394</ele>
        <time>2021-09-01T10:59:03.000Z</time>
      </trkpt>
      <trkpt lat="44.40872" lon="6.38185">
        <ele>2393</ele>
        <time>2021-09-01T10:59:04.000Z</time>
      </trkpt>
      <trkpt lat="44.40874" lon="6.38183">
        <ele>2392</ele>
        <time>2021-09-01T10:59:05.000Z</time>
      </trkpt>
      <trkpt lat="44.40876" lon="6.38183">
        <ele>2391</ele>
        <time>2021-09-01T10:59:06.000Z</time>
      </trkpt>
      <trkpt lat="44.40879" lon="6.38182">
        <ele>2389</ele>
        <time>2021-09-01T10:59:07.000Z</time>
      </trkpt>
      <trkpt lat="44.4088" lon="6.38181">
        <ele>2388</ele>
        <time>2021-09-01T10:59:08.000Z</time>
      </trkpt>
      <trkpt lat="44.40882" lon="6.3818">
        <ele>2387</ele>
        <time>2021-09-01T10:59:09.000Z</time>
      </trkpt>
      <trkpt lat="44.40883" lon="6.38179">
        <ele>2386</ele>
        <time>2021-09-01T10:59:10.000Z</time>
      </trkpt>
      <trkpt lat="44.40885" lon="6.38177">
        <ele>2386</ele>
        <time>2021-09-01T10:59:11.000Z</time>
      </trkpt>
      <trkpt lat="44.40887" lon="6.38176">
        <ele>2385</ele>
        <time>2021-09-01T10:59:12.000Z</time>
      </trkpt>
      <trkpt lat="44.40889" lon="6.38175">
        <ele>2385</ele>
        <time>2021-09-01T10:59:13.000Z</time>
      </trkpt>
      <trkpt lat="44.40891" lon="6.38174">
        <ele>2384</ele>
        <time>2021-09-01T10:59:14.000Z</time>
      </trkpt>
      <trkpt lat="44.40893" lon="6.38174">
        <ele>2384</ele>
        <time>2021-09-01T10:59:15.000Z</time>
      </trkpt>
      <trkpt lat="44.40894" lon="6.38173">
        <ele>2385</ele>
        <time>2021-09-01T10:59:16.000Z</time>
      </trkpt>
      <trkpt lat="44.40897" lon="6.38172">
        <ele>2387</ele>
        <time>2021-09-01T10:59:17.000Z</time>
      </trkpt>
      <trkpt lat="44.409" lon="6.38171">
        <ele>2390</ele>
        <time>2021-09-01T10:59:18.000Z</time>
      </trkpt>
      <trkpt lat="44.40902" lon="6.38171">
        <ele>2391</ele>
        <time>2021-09-01T10:59:19.000Z</time>
      </trkpt>
      <trkpt lat="44.40904" lon="6.38172">
        <ele>2391</ele>
        <time>2021-09-01T10:59:20.000Z</time>
      </trkpt>
      <trkpt lat="44.40907" lon="6.38172">
        <ele>2391</ele>
        <time>2021-09-01T10:59:21.000Z</time>
      </trkpt>
      <trkpt lat="44.40909" lon="6.38171">
        <ele>2392</ele>
        <time>2021-09-01T10:59:22.000Z</time>
      </trkpt>
      <trkpt lat="44.40911" lon="6.3817">
        <ele>2392</ele>
        <time>2021-09-01T10:59:23.000Z</time>
      </trkpt>
      <trkpt lat="44.40913" lon="6.3817">
        <ele>2391</ele>
        <time>2021-09-01T10:59:24.000Z</time>
      </trkpt>
      <trkpt lat="44.40916" lon="6.3817">
        <ele>2391</ele>
        <time>2021-09-01T10:59:25.000Z</time>
      </trkpt>
      <trkpt lat="44.40919" lon="6.38168">
        <ele>2391</ele>
        <time>2021-09-01T10:59:26.000Z</time>
      </trkpt>
      <trkpt lat="44.40921" lon="6.38167">
        <ele>2390</ele>
        <time>2021-09-01T10:59:27.000Z</time>
      </trkpt>
      <trkpt lat="44.40923" lon="6.38166">
        <ele>2390</ele>
        <time>2021-09-01T10:59:28.000Z</time>
      </trkpt>
      <trkpt lat="44.40926" lon="6.38165">
        <ele>2390</ele>
        <time>2021-09-01T10:59:29.000Z</time>
      </trkpt>
      <trkpt lat="44.40928" lon="6.38164">
        <ele>2390</ele>
        <time>2021-09-01T10:59:30.000Z</time>
      </trkpt>
      <trkpt lat="44.40931" lon="6.38164">
        <ele>2390</ele>
        <time>2021-09-01T10:59:31.000Z</time>
      </trkpt>
      <trkpt lat="44.40934" lon="6.38164">
        <ele>2390</ele>
        <time>2021-09-01T10:59:32.000Z</time>
      </trkpt>
      <trkpt lat="44.40936" lon="6.38165">
        <ele>2390</ele>
        <time>2021-09-01T10:59:33.000Z</time>
      </trkpt>
      <trkpt lat="44.40938" lon="6.38165">
        <ele>2390</ele>
        <time>2021-09-01T10:59:34.000Z</time>
      </trkpt>
      <trkpt lat="44.40939" lon="6.38166">
        <ele>2389</ele>
        <time>2021-09-01T10:59:35.000Z</time>
      </trkpt>
      <trkpt lat="44.40938" lon="6.38169">
        <ele>2389</ele>
        <time>2021-09-01T10:59:36.000Z</time>
      </trkpt>
      <trkpt lat="44.4094" lon="6.38171">
        <ele>2391</ele>
        <time>2021-09-01T10:59:37.000Z</time>
      </trkpt>
      <trkpt lat="44.4094" lon="6.38173">
        <ele>2390</ele>
        <time>2021-09-01T10:59:38.000Z</time>
      </trkpt>
      <trkpt lat="44.40941" lon="6.38175">
        <ele>2391</ele>
        <time>2021-09-01T10:59:39.000Z</time>
      </trkpt>
      <trkpt lat="44.4094" lon="6.38178">
        <ele>2392</ele>
        <time>2021-09-01T10:59:40.000Z</time>
      </trkpt>
      <trkpt lat="44.4094" lon="6.3818">
        <ele>2392</ele>
        <time>2021-09-01T10:59:41.000Z</time>
      </trkpt>
      <trkpt lat="44.40941" lon="6.38182">
        <ele>2391</ele>
        <time>2021-09-01T10:59:42.000Z</time>
      </trkpt>
      <trkpt lat="44.40941" lon="6.38183">
        <ele>2391</ele>
        <time>2021-09-01T10:59:43.000Z</time>
      </trkpt>
      <trkpt lat="44.40941" lon="6.38185">
        <ele>2392</ele>
        <time>2021-09-01T10:59:44.000Z</time>
      </trkpt>
      <trkpt lat="44.4094" lon="6.38187">
        <ele>2392</ele>
        <time>2021-09-01T10:59:45.000Z</time>
      </trkpt>
      <trkpt lat="44.40939" lon="6.38189">
        <ele>2392</ele>
        <time>2021-09-01T10:59:46.000Z</time>
      </trkpt>
      <trkpt lat="44.40938" lon="6.38191">
        <ele>2391</ele>
        <time>2021-09-01T10:59:47.000Z</time>
      </trkpt>
      <trkpt lat="44.40937" lon="6.38192">
        <ele>2390</ele>
        <time>2021-09-01T10:59:48.000Z</time>
      </trkpt>
      <trkpt lat="44.40935" lon="6.38192">
        <ele>2390</ele>
        <time>2021-09-01T10:59:49.000Z</time>
      </trkpt>
      <trkpt lat="44.40933" lon="6.38193">
        <ele>2392</ele>
        <time>2021-09-01T10:59:50.000Z</time>
      </trkpt>
      <trkpt lat="44.40932" lon="6.38193">
        <ele>2392</ele>
        <time>2021-09-01T10:59:51.000Z</time>
      </trkpt>
      <trkpt lat="44.4093" lon="6.38193">
        <ele>2392</ele>
        <time>2021-09-01T10:59:52.000Z</time>
      </trkpt>
      <trkpt lat="44.40928" lon="6.38192">
        <ele>2392</ele>
        <time>2021-09-01T10:59:53.000Z</time>
      </trkpt>
      <trkpt lat="44.40926" lon="6.38192">
        <ele>2391</ele>
        <time>2021-09-01T10:59:54.000Z</time>
      </trkpt>
      <trkpt lat="44.40924" lon="6.38191">
        <ele>2392</ele>
        <time>2021-09-01T10:59:55.000Z</time>
      </trkpt>
      <trkpt lat="44.40922" lon="6.38192">
        <ele>2392</ele>
        <time>2021-09-01T10:59:56.000Z</time>
      </trkpt>
      <trkpt lat="44.4092" lon="6.38192">
        <ele>2392</ele>
        <time>2021-09-01T10:59:57.000Z</time>
      </trkpt>
      <trkpt lat="44.40918" lon="6.38192">
        <ele>2392</ele>
        <time>2021-09-01T10:59:58.000Z</time>
      </trkpt>
      <trkpt lat="44.40916" lon="6.38192">
        <ele>2393</ele>
        <time>2021-09-01T10:59:59.000Z</time>
      </trkpt>
      <trkpt lat="44.40914" lon="6.38192">
        <ele>2393</ele>
        <time>2021-09-01T11:00:00.000Z</time>
      </trkpt>
      <trkpt lat="44.40912" lon="6.38192">
        <ele>2393</ele>
        <time>2021-09-01T11:00:01.000Z</time>
      </trkpt>
      <trkpt lat="44.4091" lon="6.38192">
        <ele>2393</ele>
        <time>2021-09-01T11:00:02.000Z</time>
      </trkpt>
      <trkpt lat="44.40908" lon="6.38192">
        <ele>2394</ele>
        <time>2021-09-01T11:00:03.000Z</time>
      </trkpt>
      <trkpt lat="44.40906" lon="6.38192">
        <ele>2394</ele>
        <time>2021-09-01T11:00:04.000Z</time>
      </trkpt>
      <trkpt lat="44.40904" lon="6.38193">
        <ele>2394</ele>
        <time>2021-09-01T11:00:05.000Z</time>
      </trkpt>
      <trkpt lat="44.40902" lon="6.38193">
        <ele>2394</ele>
        <time>2021-09-01T11:00:06.000Z</time>
      </trkpt>
      <trkpt lat="44.409" lon="6.38193">
        <ele>2395</ele>
        <time>2021-09-01T11:00:07.000Z</time>
      </trkpt>
      <trkpt lat="44.40898" lon="6.38194">
        <ele>2395</ele>
        <time>2021-09-01T11:00:08.000Z</time>
      </trkpt>
      <trkpt lat="44.40896" lon="6.38195">
        <ele>2395</ele>
        <time>2021-09-01T11:00:09.000Z</time>
      </trkpt>
      <trkpt lat="44.40894" lon="6.38196">
        <ele>2395</ele>
        <time>2021-09-01T11:00:10.000Z</time>
      </trkpt>
      <trkpt lat="44.40892" lon="6.38197">
        <ele>2395</ele>
        <time>2021-09-01T11:00:11.000Z</time>
      </trkpt>
      <trkpt lat="44.4089" lon="6.38198">
        <ele>2395</ele>
        <time>2021-09-01T11:00:12.000Z</time>
      </trkpt>
      <trkpt lat="44.40888" lon="6.38199">
        <ele>2396</ele>
        <time>2021-09-01T11:00:13.000Z</time>
      </trkpt>
      <trkpt lat="44.40887" lon="6.38201">
        <ele>2396</ele>
        <time>2021-09-01T11:00:14.000Z</time>
      </trkpt>
      <trkpt lat="44.40885" lon="6.38202">
        <ele>2396</ele>
        <time>2021-09-01T11:00:15.000Z</time>
      </trkpt>
      <trkpt lat="44.40883" lon="6.38202">
        <ele>2396</ele>
        <time>2021-09-01T11:00:16.000Z</time>
      </trkpt>
      <trkpt lat="44.40881" lon="6.38203">
        <ele>2396</ele>
        <time>2021-09-01T11:00:17.000Z</time>
      </trkpt>
      <trkpt lat="44.40879" lon="6.38204">
        <ele>2396</ele>
        <time>2021-09-01T11:00:18.000Z</time>
      </trkpt>
      <trkpt lat="44.40877" lon="6.38204">
        <ele>2396</ele>
        <time>2021-09-01T11:00:19.000Z</time>
      </trkpt>
      <trkpt lat="44.40874" lon="6.38204">
        <ele>2397</ele>
        <time>2021-09-01T11:00:20.000Z</time>
      </trkpt>
      <trkpt lat="44.40872" lon="6.38204">
        <ele>2397</ele>
        <time>2021-09-01T11:00:21.000Z</time>
      </trkpt>
      <trkpt lat="44.4087" lon="6.38205">
        <ele>2398</ele>
        <time>2021-09-01T11:00:22.000Z</time>
      </trkpt>
      <trkpt lat="44.40867" lon="6.38206">
        <ele>2398</ele>
        <time>2021-09-01T11:00:23.000Z</time>
      </trkpt>
      <trkpt lat="44.40865" lon="6.38206">
        <ele>2398</ele>
        <time>2021-09-01T11:00:24.000Z</time>
      </trkpt>
      <trkpt lat="44.40863" lon="6.38207">
        <ele>2398</ele>
        <time>2021-09-01T11:00:25.000Z</time>
      </trkpt>
      <trkpt lat="44.40861" lon="6.38207">
        <ele>2399</ele>
        <time>2021-09-01T11:00:26.000Z</time>
      </trkpt>
      <trkpt lat="44.40859" lon="6.38207">
        <ele>2399</ele>
        <time>2021-09-01T11:00:27.000Z</time>
      </trkpt>
      <trkpt lat="44.40857" lon="6.38207">
        <ele>2400</ele>
        <time>2021-09-01T11:00:28.000Z</time>
      </trkpt>
      <trkpt lat="44.40854" lon="6.38207">
        <ele>2400</ele>
        <time>2021-09-01T11:00:29.000Z</time>
      </trkpt>
      <trkpt lat="44.40852" lon="6.38207">
        <ele>2401</ele>
        <time>2021-09-01T11:00:30.000Z</time>
      </trkpt>
      <trkpt lat="44.4085" lon="6.38206">
        <ele>2401</ele>
        <time>2021-09-01T11:00:31.000Z</time>
      </trkpt>
      <trkpt lat="44.40848" lon="6.38207">
        <ele>2401</ele>
        <time>2021-09-01T11:00:32.000Z</time>
      </trkpt>
      <trkpt lat="44.40847" lon="6.38208">
        <ele>2402</ele>
        <time>2021-09-01T11:00:33.000Z</time>
      </trkpt>
      <trkpt lat="44.40847" lon="6.38209">
        <ele>2402</ele>
        <time>2021-09-01T11:00:34.000Z</time>
      </trkpt>
      <trkpt lat="44.40848" lon="6.38212">
        <ele>2401</ele>
        <time>2021-09-01T11:00:35.000Z</time>
      </trkpt>
      <trkpt lat="44.40847" lon="6.38212">
        <ele>2401</ele>
        <time>2021-09-01T11:00:36.000Z</time>
      </trkpt>
      <trkpt lat="44.40847" lon="6.38212">
        <ele>2401</ele>
        <time>2021-09-01T11:00:37.000Z</time>
      </trkpt>
      <trkpt lat="44.40848" lon="6.38212">
        <ele>2400</ele>
        <time>2021-09-01T11:00:38.000Z</time>
      </trkpt>
      <trkpt lat="44.40849" lon="6.38213">
        <ele>2401</ele>
        <time>2021-09-01T11:00:39.000Z</time>
      </trkpt>
      <trkpt lat="44.40851" lon="6.38215">
        <ele>2402</ele>
        <time>2021-09-01T11:00:40.000Z</time>
      </trkpt>
      <trkpt lat="44.40854" lon="6.38216">
        <ele>2403</ele>
        <time>2021-09-01T11:00:41.000Z</time>
      </trkpt>
      <trkpt lat="44.40856" lon="6.38217">
        <ele>2405</ele>
        <time>2021-09-01T11:00:42.000Z</time>
      </trkpt>
      <trkpt lat="44.40859" lon="6.38218">
        <ele>2405</ele>
        <time>2021-09-01T11:00:43.000Z</time>
      </trkpt>
      <trkpt lat="44.4086" lon="6.38218">
        <ele>2405</ele>
        <time>2021-09-01T11:00:44.000Z</time>
      </trkpt>
      <trkpt lat="44.40862" lon="6.3822">
        <ele>2406</ele>
        <time>2021-09-01T11:00:45.000Z</time>
      </trkpt>
      <trkpt lat="44.40864" lon="6.38221">
        <ele>2406</ele>
        <time>2021-09-01T11:00:46.000Z</time>
      </trkpt>
      <trkpt lat="44.40865" lon="6.38223">
        <ele>2406</ele>
        <time>2021-09-01T11:00:47.000Z</time>
      </trkpt>
      <trkpt lat="44.40867" lon="6.38225">
        <ele>2407</ele>
        <time>2021-09-01T11:00:48.000Z</time>
      </trkpt>
      <trkpt lat="44.40869" lon="6.38226">
        <ele>2407</ele>
        <time>2021-09-01T11:00:49.000Z</time>
      </trkpt>
      <trkpt lat="44.40871" lon="6.38227">
        <ele>2408</ele>
        <time>2021-09-01T11:00:50.000Z</time>
      </trkpt>
      <trkpt lat="44.40873" lon="6.38229">
        <ele>2408</ele>
        <time>2021-09-01T11:00:51.000Z</time>
      </trkpt>
      <trkpt lat="44.40875" lon="6.3823">
        <ele>2408</ele>
        <time>2021-09-01T11:00:52.000Z</time>
      </trkpt>
      <trkpt lat="44.40877" lon="6.38232">
        <ele>2409</ele>
        <time>2021-09-01T11:00:53.000Z</time>
      </trkpt>
      <trkpt lat="44.40879" lon="6.38233">
        <ele>2409</ele>
        <time>2021-09-01T11:00:54.000Z</time>
      </trkpt>
      <trkpt lat="44.40881" lon="6.38235">
        <ele>2409</ele>
        <time>2021-09-01T11:00:55.000Z</time>
      </trkpt>
      <trkpt lat="44.40882" lon="6.38236">
        <ele>2410</ele>
        <time>2021-09-01T11:00:56.000Z</time>
      </trkpt>
      <trkpt lat="44.40884" lon="6.38237">
        <ele>2410</ele>
        <time>2021-09-01T11:00:57.000Z</time>
      </trkpt>
      <trkpt lat="44.40886" lon="6.38238">
        <ele>2410</ele>
        <time>2021-09-01T11:00:58.000Z</time>
      </trkpt>
      <trkpt lat="44.40888" lon="6.38239">
        <ele>2410</ele>
        <time>2021-09-01T11:00:59.000Z</time>
      </trkpt>
      <trkpt lat="44.4089" lon="6.38241">
        <ele>2410</ele>
        <time>2021-09-01T11:01:00.000Z</time>
      </trkpt>
      <trkpt lat="44.40892" lon="6.38242">
        <ele>2410</ele>
        <time>2021-09-01T11:01:01.000Z</time>
      </trkpt>
      <trkpt lat="44.40894" lon="6.38244">
        <ele>2410</ele>
        <time>2021-09-01T11:01:02.000Z</time>
      </trkpt>
      <trkpt lat="44.40895" lon="6.38245">
        <ele>2410</ele>
        <time>2021-09-01T11:01:03.000Z</time>
      </trkpt>
      <trkpt lat="44.40897" lon="6.38246">
        <ele>2410</ele>
        <time>2021-09-01T11:01:04.000Z</time>
      </trkpt>
      <trkpt lat="44.40899" lon="6.38248">
        <ele>2410</ele>
        <time>2021-09-01T11:01:05.000Z</time>
      </trkpt>
      <trkpt lat="44.409" lon="6.38248">
        <ele>2411</ele>
        <time>2021-09-01T11:01:06.000Z</time>
      </trkpt>
      <trkpt lat="44.40901" lon="6.38249">
        <ele>2411</ele>
        <time>2021-09-01T11:01:07.000Z</time>
      </trkpt>
      <trkpt lat="44.40902" lon="6.38249">
        <ele>2412</ele>
        <time>2021-09-01T11:01:08.000Z</time>
      </trkpt>
      <trkpt lat="44.40902" lon="6.38249">
        <ele>2412</ele>
        <time>2021-09-01T11:01:09.000Z</time>
      </trkpt>
      <trkpt lat="44.40903" lon="6.38249">
        <ele>2412</ele>
        <time>2021-09-01T11:01:10.000Z</time>
      </trkpt>
      <trkpt lat="44.40902" lon="6.3825">
        <ele>2412</ele>
        <time>2021-09-01T11:01:11.000Z</time>
      </trkpt>
      <trkpt lat="44.40902" lon="6.3825">
        <ele>2411</ele>
        <time>2021-09-01T11:01:12.000Z</time>
      </trkpt>
      <trkpt lat="44.40902" lon="6.38251">
        <ele>2411</ele>
        <time>2021-09-01T11:01:13.000Z</time>
      </trkpt>
      <trkpt lat="44.40902" lon="6.38251">
        <ele>2411</ele>
        <time>2021-09-01T11:01:14.000Z</time>
      </trkpt>
      <trkpt lat="44.40902" lon="6.38251">
        <ele>2412</ele>
        <time>2021-09-01T11:01:15.000Z</time>
      </trkpt>
      <trkpt lat="44.40902" lon="6.38251">
        <ele>2412</ele>
        <time>2021-09-01T11:01:16.000Z</time>
      </trkpt>
      <trkpt lat="44.40902" lon="6.38251">
        <ele>2412</ele>
        <time>2021-09-01T11:01:17.000Z</time>
      </trkpt>
      <trkpt lat="44.40902" lon="6.38251">
        <ele>2411</ele>
        <time>2021-09-01T11:01:18.000Z</time>
      </trkpt>
      <trkpt lat="44.40902" lon="6.38252">
        <ele>2411</ele>
        <time>2021-09-01T11:01:19.000Z</time>
      </trkpt>
      <trkpt lat="44.40902" lon="6.38252">
        <ele>2411</ele>
        <time>2021-09-01T11:01:20.000Z</time>
      </trkpt>
      <trkpt lat="44.40902" lon="6.38252">
        <ele>2411</ele>
        <time>2021-09-01T11:01:21.000Z</time>
      </trkpt>
      <trkpt lat="44.40902" lon="6.38252">
        <ele>2411</ele>
        <time>2021-09-01T11:01:22.000Z</time>
      </trkpt>
      <trkpt lat="44.40902" lon="6.38252">
        <ele>2411</ele>
        <time>2021-09-01T11:01:23.000Z</time>
      </trkpt>
      <trkpt lat="44.40902" lon="6.38252">
        <ele>2411</ele>
        <time>2021-09-01T11:01:24.000Z</time>
      </trkpt>
      <trkpt lat="44.40902" lon="6.38252">
        <ele>2411</ele>
        <time>2021-09-01T11:01:25.000Z</time>
      </trkpt>
      <trkpt lat="44.40902" lon="6.38252">
        <ele>2411</ele>
        <time>2021-09-01T11:01:26.000Z</time>
      </trkpt>
      <trkpt lat="44.40902" lon="6.38253">
        <ele>2411</ele>
        <time>2021-09-01T11:01:27.000Z</time>
      </trkpt>
      <trkpt lat="44.40902" lon="6.38253">
        <ele>2411</ele>
        <time>2021-09-01T11:01:28.000Z</time>
      </trkpt>
      <trkpt lat="44.40902" lon="6.38253">
        <ele>2411</ele>
        <time>2021-09-01T11:01:29.000Z</time>
      </trkpt>
      <trkpt lat="44.40902" lon="6.38253">
        <ele>2411</ele>
        <time>2021-09-01T11:01:30.000Z</time>
      </trkpt>
      <trkpt lat="44.40902" lon="6.38253">
        <ele>2411</ele>
        <time>2021-09-01T11:01:31.000Z</time>
      </trkpt>
      <trkpt lat="44.40902" lon="6.38253">
        <ele>2411</ele>
        <time>2021-09-01T11:01:32.000Z</time>
      </trkpt>
      <trkpt lat="44.40902" lon="6.38253">
        <ele>2411</ele>
        <time>2021-09-01T11:01:33.000Z</time>
      </trkpt>
      <trkpt lat="44.40902" lon="6.38253">
        <ele>2411</ele>
        <time>2021-09-01T11:01:34.000Z</time>
      </trkpt>
      <trkpt lat="44.40902" lon="6.38253">
        <ele>2411</ele>
        <time>2021-09-01T11:01:35.000Z</time>
      </trkpt>
      <trkpt lat="44.40902" lon="6.38253">
        <ele>2411</ele>
        <time>2021-09-01T11:01:36.000Z</time>
      </trkpt>
      <trkpt lat="44.40902" lon="6.38253">
        <ele>2411</ele>
        <time>2021-09-01T11:01:37.000Z</time>
      </trkpt>
      <trkpt lat="44.40902" lon="6.38253">
        <ele>2411</ele>
        <time>2021-09-01T11:01:38.000Z</time>
      </trkpt>
      <trkpt lat="44.40902" lon="6.38253">
        <ele>2411</ele>
        <time>2021-09-01T11:01:39.000Z</time>
      </trkpt>
      <trkpt lat="44.40903" lon="6.38253">
        <ele>2411</ele>
        <time>2021-09-01T11:01:40.000Z</time>
      </trkpt>
      <trkpt lat="44.40903" lon="6.38253">
        <ele>2411</ele>
        <time>2021-09-01T11:01:41.000Z</time>
      </trkpt>
      <trkpt lat="44.40903" lon="6.38252">
        <ele>2411</ele>
        <time>2021-09-01T11:01:42.000Z</time>
      </trkpt>
      <trkpt lat="44.40903" lon="6.38252">
        <ele>2411</ele>
        <time>2021-09-01T11:01:43.000Z</time>
      </trkpt>
      <trkpt lat="44.40903" lon="6.38252">
        <ele>2411</ele>
        <time>2021-09-01T11:01:44.000Z</time>
      </trkpt>
      <trkpt lat="44.40903" lon="6.38252">
        <ele>2411</ele>
        <time>2021-09-01T11:01:45.000Z</time>
      </trkpt>
      <trkpt lat="44.40904" lon="6.38252">
        <ele>2411</ele>
        <time>2021-09-01T11:01:46.000Z</time>
      </trkpt>
      <trkpt lat="44.40904" lon="6.38252">
        <ele>2411</ele>
        <time>2021-09-01T11:01:47.000Z</time>
      </trkpt>
      <trkpt lat="44.40903" lon="6.38252">
        <ele>2411</ele>
        <time>2021-09-01T11:01:48.000Z</time>
      </trkpt>
      <trkpt lat="44.40903" lon="6.38252">
        <ele>2411</ele>
        <time>2021-09-01T11:01:49.000Z</time>
      </trkpt>
      <trkpt lat="44.40903" lon="6.38252">
        <ele>2411</ele>
        <time>2021-09-01T11:01:50.000Z</time>
      </trkpt>
      <trkpt lat="44.40903" lon="6.38252">
        <ele>2411</ele>
        <time>2021-09-01T11:01:51.000Z</time>
      </trkpt>
      <trkpt lat="44.40903" lon="6.38251">
        <ele>2411</ele>
        <time>2021-09-01T11:01:52.000Z</time>
      </trkpt>
      <trkpt lat="44.40903" lon="6.38251">
        <ele>2411</ele>
        <time>2021-09-01T11:01:53.000Z</time>
      </trkpt>
      <trkpt lat="44.40903" lon="6.38251">
        <ele>2411</ele>
        <time>2021-09-01T11:01:54.000Z</time>
      </trkpt>
      <trkpt lat="44.40903" lon="6.38251">
        <ele>2411</ele>
        <time>2021-09-01T11:01:55.000Z</time>
      </trkpt>
      <trkpt lat="44.40903" lon="6.38251">
        <ele>2411</ele>
        <time>2021-09-01T11:01:56.000Z</time>
      </trkpt>
      <trkpt lat="44.40903" lon="6.38251">
        <ele>2412</ele>
        <time>2021-09-01T11:01:57.000Z</time>
      </trkpt>
      <trkpt lat="44.40903" lon="6.38251">
        <ele>2412</ele>
        <time>2021-09-01T11:01:58.000Z</time>
      </trkpt>
      <trkpt lat="44.40903" lon="6.38251">
        <ele>2411</ele>
        <time>2021-09-01T11:01:59.000Z</time>
      </trkpt>
      <trkpt lat="44.40903" lon="6.38251">
        <ele>2411</ele>
        <time>2021-09-01T11:02:00.000Z</time>
      </trkpt>
      <trkpt lat="44.40903" lon="6.38251">
        <ele>2411</ele>
        <time>2021-09-01T11:02:01.000Z</time>
      </trkpt>
      <trkpt lat="44.40903" lon="6.38251">
        <ele>2411</ele>
        <time>2021-09-01T11:02:02.000Z</time>
      </trkpt>
      <trkpt lat="44.40904" lon="6.38251">
        <ele>2411</ele>
        <time>2021-09-01T11:02:03.000Z</time>
      </trkpt>
      <trkpt lat="44.40904" lon="6.38251">
        <ele>2411</ele>
        <time>2021-09-01T11:02:04.000Z</time>
      </trkpt>
      <trkpt lat="44.40904" lon="6.38251">
        <ele>2411</ele>
        <time>2021-09-01T11:02:05.000Z</time>
      </trkpt>
      <trkpt lat="44.40904" lon="6.38251">
        <ele>2411</ele>
        <time>2021-09-01T11:02:06.000Z</time>
      </trkpt>
      <trkpt lat="44.40904" lon="6.38251">
        <ele>2411</ele>
        <time>2021-09-01T11:02:07.000Z</time>
      </trkpt>
      <trkpt lat="44.40904" lon="6.38251">
        <ele>2411</ele>
        <time>2021-09-01T11:02:08.000Z</time>
      </trkpt>
      <trkpt lat="44.40904" lon="6.38251">
        <ele>2411</ele>
        <time>2021-09-01T11:02:09.000Z</time>
      </trkpt>
      <trkpt lat="44.40904" lon="6.38251">
        <ele>2411</ele>
        <time>2021-09-01T11:02:10.000Z</time>
      </trkpt>
      <trkpt lat="44.40905" lon="6.38251">
        <ele>2411</ele>
        <time>2021-09-01T11:02:11.000Z</time>
      </trkpt>
      <trkpt lat="44.40905" lon="6.38251">
        <ele>2411</ele>
        <time>2021-09-01T11:02:12.000Z</time>
      </trkpt>
      <trkpt lat="44.40905" lon="6.38251">
        <ele>2411</ele>
        <time>2021-09-01T11:02:13.000Z</time>
      </trkpt>
      <trkpt lat="44.40905" lon="6.38251">
        <ele>2411</ele>
        <time>2021-09-01T11:02:14.000Z</time>
      </trkpt>
      <trkpt lat="44.40905" lon="6.38251">
        <ele>2411</ele>
        <time>2021-09-01T11:02:15.000Z</time>
      </trkpt>
      <trkpt lat="44.40905" lon="6.38251">
        <ele>2411</ele>
        <time>2021-09-01T11:02:16.000Z</time>
      </trkpt>
      <trkpt lat="44.40905" lon="6.38251">
        <ele>2411</ele>
        <time>2021-09-01T11:02:17.000Z</time>
      </trkpt>
      <trkpt lat="44.40905" lon="6.38251">
        <ele>2411</ele>
        <time>2021-09-01T11:02:18.000Z</time>
      </trkpt>
      <trkpt lat="44.40905" lon="6.38251">
        <ele>2411</ele>
        <time>2021-09-01T11:02:19.000Z</time>
      </trkpt>
      <trkpt lat="44.40905" lon="6.38251">
        <ele>2411</ele>
        <time>2021-09-01T11:02:20.000Z</time>
      </trkpt>
      <trkpt lat="44.40905" lon="6.38251">
        <ele>2411</ele>
        <time>2021-09-01T11:02:21.000Z</time>
      </trkpt>
      <trkpt lat="44.40905" lon="6.38251">
        <ele>2411</ele>
        <time>2021-09-01T11:02:22.000Z</time>
      </trkpt>
      <trkpt lat="44.40905" lon="6.3825">
        <ele>2411</ele>
        <time>2021-09-01T11:02:23.000Z</time>
      </trkpt>
      <trkpt lat="44.40905" lon="6.3825">
        <ele>2412</ele>
        <time>2021-09-01T11:02:24.000Z</time>
      </trkpt>
      <trkpt lat="44.40905" lon="6.3825">
        <ele>2412</ele>
        <time>2021-09-01T11:02:25.000Z</time>
      </trkpt>
      <trkpt lat="44.40905" lon="6.3825">
        <ele>2412</ele>
        <time>2021-09-01T11:02:26.000Z</time>
      </trkpt>
      <trkpt lat="44.40905" lon="6.3825">
        <ele>2412</ele>
        <time>2021-09-01T11:02:27.000Z</time>
      </trkpt>
      <trkpt lat="44.40905" lon="6.3825">
        <ele>2412</ele>
        <time>2021-09-01T11:02:28.000Z</time>
      </trkpt>
      <trkpt lat="44.40905" lon="6.3825">
        <ele>2412</ele>
        <time>2021-09-01T11:02:29.000Z</time>
      </trkpt>
      <trkpt lat="44.40905" lon="6.3825">
        <ele>2413</ele>
        <time>2021-09-01T11:02:30.000Z</time>
      </trkpt>
      <trkpt lat="44.40905" lon="6.3825">
        <ele>2413</ele>
        <time>2021-09-01T11:02:31.000Z</time>
      </trkpt>
      <trkpt lat="44.40905" lon="6.3825">
        <ele>2413</ele>
        <time>2021-09-01T11:02:32.000Z</time>
      </trkpt>
      <trkpt lat="44.40905" lon="6.3825">
        <ele>2413</ele>
        <time>2021-09-01T11:02:33.000Z</time>
      </trkpt>
      <trkpt lat="44.40905" lon="6.3825">
        <ele>2413</ele>
        <time>2021-09-01T11:02:34.000Z</time>
      </trkpt>
      <trkpt lat="44.40905" lon="6.3825">
        <ele>2413</ele>
        <time>2021-09-01T11:02:35.000Z</time>
      </trkpt>
      <trkpt lat="44.40905" lon="6.3825">
        <ele>2413</ele>
        <time>2021-09-01T11:02:36.000Z</time>
      </trkpt>
      <trkpt lat="44.40905" lon="6.3825">
        <ele>2413</ele>
        <time>2021-09-01T11:02:37.000Z</time>
      </trkpt>
      <trkpt lat="44.40905" lon="6.3825">
        <ele>2413</ele>
        <time>2021-09-01T11:02:38.000Z</time>
      </trkpt>
      <trkpt lat="44.40905" lon="6.3825">
        <ele>2413</ele>
        <time>2021-09-01T11:02:39.000Z</time>
      </trkpt>
      <trkpt lat="44.40905" lon="6.38251">
        <ele>2413</ele>
        <time>2021-09-01T11:02:40.000Z</time>
      </trkpt>
      <trkpt lat="44.40905" lon="6.38251">
        <ele>2413</ele>
        <time>2021-09-01T11:02:41.000Z</time>
      </trkpt>
      <trkpt lat="44.40905" lon="6.38251">
        <ele>2413</ele>
        <time>2021-09-01T11:02:42.000Z</time>
      </trkpt>
      <trkpt lat="44.40905" lon="6.38251">
        <ele>2413</ele>
        <time>2021-09-01T11:02:43.000Z</time>
      </trkpt>
      <trkpt lat="44.40905" lon="6.38251">
        <ele>2413</ele>
        <time>2021-09-01T11:02:44.000Z</time>
      </trkpt>
      <trkpt lat="44.40905" lon="6.38251">
        <ele>2413</ele>
        <time>2021-09-01T11:02:45.000Z</time>
      </trkpt>
      <trkpt lat="44.40905" lon="6.38251">
        <ele>2413</ele>
        <time>2021-09-01T11:02:46.000Z</time>
      </trkpt>
      <trkpt lat="44.40905" lon="6.38251">
        <ele>2413</ele>
        <time>2021-09-01T11:02:47.000Z</time>
      </trkpt>
      <trkpt lat="44.40905" lon="6.38251">
        <ele>2413</ele>
        <time>2021-09-01T11:02:48.000Z</time>
      </trkpt>
      <trkpt lat="44.40905" lon="6.38251">
        <ele>2413</ele>
        <time>2021-09-01T11:02:49.000Z</time>
      </trkpt>
      <trkpt lat="44.40905" lon="6.38251">
        <ele>2413</ele>
        <time>2021-09-01T11:02:50.000Z</time>
      </trkpt>
      <trkpt lat="44.40905" lon="6.38251">
        <ele>2413</ele>
        <time>2021-09-01T11:02:51.000Z</time>
      </trkpt>
      <trkpt lat="44.40905" lon="6.38251">
        <ele>2413</ele>
        <time>2021-09-01T11:02:52.000Z</time>
      </trkpt>
      <trkpt lat="44.40905" lon="6.38251">
        <ele>2413</ele>
        <time>2021-09-01T11:02:53.000Z</time>
      </trkpt>
      <trkpt lat="44.40905" lon="6.38251">
        <ele>2413</ele>
        <time>2021-09-01T11:02:54.000Z</time>
      </trkpt>
      <trkpt lat="44.40905" lon="6.38251">
        <ele>2413</ele>
        <time>2021-09-01T11:02:55.000Z</time>
      </trkpt>
      <trkpt lat="44.40905" lon="6.38251">
        <ele>2413</ele>
        <time>2021-09-01T11:02:56.000Z</time>
      </trkpt>
      <trkpt lat="44.40905" lon="6.38251">
        <ele>2413</ele>
        <time>2021-09-01T11:02:57.000Z</time>
      </trkpt>
      <trkpt lat="44.40905" lon="6.38251">
        <ele>2413</ele>
        <time>2021-09-01T11:02:58.000Z</time>
      </trkpt>
      <trkpt lat="44.40905" lon="6.38251">
        <ele>2413</ele>
        <time>2021-09-01T11:02:59.000Z</time>
      </trkpt>
      <trkpt lat="44.40905" lon="6.38251">
        <ele>2413</ele>
        <time>2021-09-01T11:03:00.000Z</time>
      </trkpt>
      <trkpt lat="44.40905" lon="6.38251">
        <ele>2412</ele>
        <time>2021-09-01T11:03:01.000Z</time>
      </trkpt>
      <trkpt lat="44.40905" lon="6.38251">
        <ele>2412</ele>
        <time>2021-09-01T11:03:02.000Z</time>
      </trkpt>
      <trkpt lat="44.40905" lon="6.38251">
        <ele>2412</ele>
        <time>2021-09-01T11:03:03.000Z</time>
      </trkpt>
      <trkpt lat="44.40904" lon="6.38251">
        <ele>2412</ele>
        <time>2021-09-01T11:03:04.000Z</time>
      </trkpt>
      <trkpt lat="44.40904" lon="6.38251">
        <ele>2412</ele>
        <time>2021-09-01T11:03:05.000Z</time>
      </trkpt>
      <trkpt lat="44.40904" lon="6.38252">
        <ele>2412</ele>
        <time>2021-09-01T11:03:06.000Z</time>
      </trkpt>
      <trkpt lat="44.40904" lon="6.38252">
        <ele>2412</ele>
        <time>2021-09-01T11:03:07.000Z</time>
      </trkpt>
      <trkpt lat="44.40904" lon="6.38252">
        <ele>2412</ele>
        <time>2021-09-01T11:03:08.000Z</time>
      </trkpt>
      <trkpt lat="44.40905" lon="6.38252">
        <ele>2412</ele>
        <time>2021-09-01T11:03:09.000Z</time>
      </trkpt>
      <trkpt lat="44.40905" lon="6.38253">
        <ele>2412</ele>
        <time>2021-09-01T11:03:10.000Z</time>
      </trkpt>
      <trkpt lat="44.40907" lon="6.38253">
        <ele>2413</ele>
        <time>2021-09-01T11:03:11.000Z</time>
      </trkpt>
      <trkpt lat="44.40908" lon="6.38254">
        <ele>2413</ele>
        <time>2021-09-01T11:03:12.000Z</time>
      </trkpt>
      <trkpt lat="44.40909" lon="6.38255">
        <ele>2413</ele>
        <time>2021-09-01T11:03:13.000Z</time>
      </trkpt>
      <trkpt lat="44.4091" lon="6.38257">
        <ele>2413</ele>
        <time>2021-09-01T11:03:14.000Z</time>
      </trkpt>
      <trkpt lat="44.40911" lon="6.38259">
        <ele>2413</ele>
        <time>2021-09-01T11:03:15.000Z</time>
      </trkpt>
      <trkpt lat="44.40912" lon="6.3826">
        <ele>2413</ele>
        <time>2021-09-01T11:03:16.000Z</time>
      </trkpt>
      <trkpt lat="44.40914" lon="6.38262">
        <ele>2414</ele>
        <time>2021-09-01T11:03:17.000Z</time>
      </trkpt>
      <trkpt lat="44.40914" lon="6.38264">
        <ele>2414</ele>
        <time>2021-09-01T11:03:18.000Z</time>
      </trkpt>
      <trkpt lat="44.40915" lon="6.38266">
        <ele>2414</ele>
        <time>2021-09-01T11:03:19.000Z</time>
      </trkpt>
      <trkpt lat="44.40915" lon="6.38268">
        <ele>2414</ele>
        <time>2021-09-01T11:03:20.000Z</time>
      </trkpt>
      <trkpt lat="44.40916" lon="6.38271">
        <ele>2414</ele>
        <time>2021-09-01T11:03:21.000Z</time>
      </trkpt>
      <trkpt lat="44.40917" lon="6.38273">
        <ele>2414</ele>
        <time>2021-09-01T11:03:22.000Z</time>
      </trkpt>
      <trkpt lat="44.40917" lon="6.38275">
        <ele>2414</ele>
        <time>2021-09-01T11:03:23.000Z</time>
      </trkpt>
      <trkpt lat="44.40918" lon="6.38278">
        <ele>2414</ele>
        <time>2021-09-01T11:03:24.000Z</time>
      </trkpt>
      <trkpt lat="44.40919" lon="6.3828">
        <ele>2414</ele>
        <time>2021-09-01T11:03:25.000Z</time>
      </trkpt>
      <trkpt lat="44.40919" lon="6.38283">
        <ele>2414</ele>
        <time>2021-09-01T11:03:26.000Z</time>
      </trkpt>
      <trkpt lat="44.40919" lon="6.38286">
        <ele>2414</ele>
        <time>2021-09-01T11:03:27.000Z</time>
      </trkpt>
      <trkpt lat="44.40919" lon="6.38289">
        <ele>2414</ele>
        <time>2021-09-01T11:03:28.000Z</time>
      </trkpt>
      <trkpt lat="44.40919" lon="6.38292">
        <ele>2414</ele>
        <time>2021-09-01T11:03:29.000Z</time>
      </trkpt>
      <trkpt lat="44.40919" lon="6.38295">
        <ele>2414</ele>
        <time>2021-09-01T11:03:30.000Z</time>
      </trkpt>
      <trkpt lat="44.40919" lon="6.38298">
        <ele>2415</ele>
        <time>2021-09-01T11:03:31.000Z</time>
      </trkpt>
      <trkpt lat="44.40919" lon="6.38301">
        <ele>2415</ele>
        <time>2021-09-01T11:03:32.000Z</time>
      </trkpt>
      <trkpt lat="44.40918" lon="6.38304">
        <ele>2416</ele>
        <time>2021-09-01T11:03:33.000Z</time>
      </trkpt>
      <trkpt lat="44.40919" lon="6.38307">
        <ele>2417</ele>
        <time>2021-09-01T11:03:34.000Z</time>
      </trkpt>
      <trkpt lat="44.40919" lon="6.3831">
        <ele>2417</ele>
        <time>2021-09-01T11:03:35.000Z</time>
      </trkpt>
      <trkpt lat="44.40919" lon="6.38312">
        <ele>2417</ele>
        <time>2021-09-01T11:03:36.000Z</time>
      </trkpt>
      <trkpt lat="44.40918" lon="6.38315">
        <ele>2417</ele>
        <time>2021-09-01T11:03:37.000Z</time>
      </trkpt>
      <trkpt lat="44.40917" lon="6.38317">
        <ele>2417</ele>
        <time>2021-09-01T11:03:38.000Z</time>
      </trkpt>
      <trkpt lat="44.40916" lon="6.38318">
        <ele>2418</ele>
        <time>2021-09-01T11:03:39.000Z</time>
      </trkpt>
      <trkpt lat="44.40914" lon="6.38319">
        <ele>2418</ele>
        <time>2021-09-01T11:03:40.000Z</time>
      </trkpt>
      <trkpt lat="44.40912" lon="6.38321">
        <ele>2418</ele>
        <time>2021-09-01T11:03:41.000Z</time>
      </trkpt>
      <trkpt lat="44.40911" lon="6.38321">
        <ele>2418</ele>
        <time>2021-09-01T11:03:42.000Z</time>
      </trkpt>
      <trkpt lat="44.40909" lon="6.38323">
        <ele>2418</ele>
        <time>2021-09-01T11:03:43.000Z</time>
      </trkpt>
      <trkpt lat="44.40908" lon="6.38324">
        <ele>2418</ele>
        <time>2021-09-01T11:03:44.000Z</time>
      </trkpt>
      <trkpt lat="44.40906" lon="6.38325">
        <ele>2419</ele>
        <time>2021-09-01T11:03:45.000Z</time>
      </trkpt>
      <trkpt lat="44.40904" lon="6.38325">
        <ele>2420</ele>
        <time>2021-09-01T11:03:46.000Z</time>
      </trkpt>
      <trkpt lat="44.40902" lon="6.38326">
        <ele>2420</ele>
        <time>2021-09-01T11:03:47.000Z</time>
      </trkpt>
      <trkpt lat="44.409" lon="6.38326">
        <ele>2420</ele>
        <time>2021-09-01T11:03:48.000Z</time>
      </trkpt>
      <trkpt lat="44.40898" lon="6.38327">
        <ele>2421</ele>
        <time>2021-09-01T11:03:49.000Z</time>
      </trkpt>
      <trkpt lat="44.40896" lon="6.38327">
        <ele>2421</ele>
        <time>2021-09-01T11:03:50.000Z</time>
      </trkpt>
      <trkpt lat="44.40895" lon="6.38328">
        <ele>2421</ele>
        <time>2021-09-01T11:03:51.000Z</time>
      </trkpt>
      <trkpt lat="44.40893" lon="6.38328">
        <ele>2422</ele>
        <time>2021-09-01T11:03:52.000Z</time>
      </trkpt>
      <trkpt lat="44.40891" lon="6.38329">
        <ele>2422</ele>
        <time>2021-09-01T11:03:53.000Z</time>
      </trkpt>
      <trkpt lat="44.40889" lon="6.3833">
        <ele>2422</ele>
        <time>2021-09-01T11:03:54.000Z</time>
      </trkpt>
      <trkpt lat="44.40887" lon="6.3833">
        <ele>2423</ele>
        <time>2021-09-01T11:03:55.000Z</time>
      </trkpt>
      <trkpt lat="44.40885" lon="6.38331">
        <ele>2423</ele>
        <time>2021-09-01T11:03:56.000Z</time>
      </trkpt>
      <trkpt lat="44.40883" lon="6.38331">
        <ele>2424</ele>
        <time>2021-09-01T11:03:57.000Z</time>
      </trkpt>
      <trkpt lat="44.4088" lon="6.38331">
        <ele>2424</ele>
        <time>2021-09-01T11:03:58.000Z</time>
      </trkpt>
      <trkpt lat="44.40878" lon="6.38332">
        <ele>2424</ele>
        <time>2021-09-01T11:03:59.000Z</time>
      </trkpt>
      <trkpt lat="44.40876" lon="6.38332">
        <ele>2424</ele>
        <time>2021-09-01T11:04:00.000Z</time>
      </trkpt>
      <trkpt lat="44.40875" lon="6.38333">
        <ele>2425</ele>
        <time>2021-09-01T11:04:01.000Z</time>
      </trkpt>
      <trkpt lat="44.40873" lon="6.38334">
        <ele>2425</ele>
        <time>2021-09-01T11:04:02.000Z</time>
      </trkpt>
      <trkpt lat="44.40871" lon="6.38334">
        <ele>2425</ele>
        <time>2021-09-01T11:04:03.000Z</time>
      </trkpt>
      <trkpt lat="44.40868" lon="6.38335">
        <ele>2425</ele>
        <time>2021-09-01T11:04:04.000Z</time>
      </trkpt>
      <trkpt lat="44.40866" lon="6.38336">
        <ele>2426</ele>
        <time>2021-09-01T11:04:05.000Z</time>
      </trkpt>
      <trkpt lat="44.40865" lon="6.38337">
        <ele>2426</ele>
        <time>2021-09-01T11:04:06.000Z</time>
      </trkpt>
      <trkpt lat="44.40863" lon="6.38338">
        <ele>2426</ele>
        <time>2021-09-01T11:04:07.000Z</time>
      </trkpt>
      <trkpt lat="44.40861" lon="6.38339">
        <ele>2426</ele>
        <time>2021-09-01T11:04:08.000Z</time>
      </trkpt>
      <trkpt lat="44.40859" lon="6.3834">
        <ele>2427</ele>
        <time>2021-09-01T11:04:09.000Z</time>
      </trkpt>
      <trkpt lat="44.40857" lon="6.38341">
        <ele>2427</ele>
        <time>2021-09-01T11:04:10.000Z</time>
      </trkpt>
      <trkpt lat="44.40855" lon="6.38342">
        <ele>2427</ele>
        <time>2021-09-01T11:04:11.000Z</time>
      </trkpt>
      <trkpt lat="44.40853" lon="6.38342">
        <ele>2428</ele>
        <time>2021-09-01T11:04:12.000Z</time>
      </trkpt>
      <trkpt lat="44.40851" lon="6.38343">
        <ele>2428</ele>
        <time>2021-09-01T11:04:13.000Z</time>
      </trkpt>
      <trkpt lat="44.40849" lon="6.38343">
        <ele>2428</ele>
        <time>2021-09-01T11:04:14.000Z</time>
      </trkpt>
      <trkpt lat="44.40848" lon="6.38345">
        <ele>2428</ele>
        <time>2021-09-01T11:04:15.000Z</time>
      </trkpt>
      <trkpt lat="44.40847" lon="6.38348">
        <ele>2428</ele>
        <time>2021-09-01T11:04:16.000Z</time>
      </trkpt>
      <trkpt lat="44.40847" lon="6.3835">
        <ele>2429</ele>
        <time>2021-09-01T11:04:17.000Z</time>
      </trkpt>
      <trkpt lat="44.40847" lon="6.38353">
        <ele>2429</ele>
        <time>2021-09-01T11:04:18.000Z</time>
      </trkpt>
      <trkpt lat="44.40847" lon="6.38355">
        <ele>2429</ele>
        <time>2021-09-01T11:04:19.000Z</time>
      </trkpt>
      <trkpt lat="44.40847" lon="6.38357">
        <ele>2429</ele>
        <time>2021-09-01T11:04:20.000Z</time>
      </trkpt>
      <trkpt lat="44.40847" lon="6.3836">
        <ele>2430</ele>
        <time>2021-09-01T11:04:21.000Z</time>
      </trkpt>
      <trkpt lat="44.40847" lon="6.38363">
        <ele>2430</ele>
        <time>2021-09-01T11:04:22.000Z</time>
      </trkpt>
      <trkpt lat="44.40847" lon="6.38366">
        <ele>2430</ele>
        <time>2021-09-01T11:04:23.000Z</time>
      </trkpt>
      <trkpt lat="44.40847" lon="6.38369">
        <ele>2430</ele>
        <time>2021-09-01T11:04:24.000Z</time>
      </trkpt>
      <trkpt lat="44.40847" lon="6.38371">
        <ele>2430</ele>
        <time>2021-09-01T11:04:25.000Z</time>
      </trkpt>
      <trkpt lat="44.40848" lon="6.38374">
        <ele>2430</ele>
        <time>2021-09-01T11:04:26.000Z</time>
      </trkpt>
      <trkpt lat="44.40849" lon="6.38376">
        <ele>2431</ele>
        <time>2021-09-01T11:04:27.000Z</time>
      </trkpt>
      <trkpt lat="44.40851" lon="6.38378">
        <ele>2431</ele>
        <time>2021-09-01T11:04:28.000Z</time>
      </trkpt>
      <trkpt lat="44.40852" lon="6.38381">
        <ele>2431</ele>
        <time>2021-09-01T11:04:29.000Z</time>
      </trkpt>
      <trkpt lat="44.40853" lon="6.38384">
        <ele>2431</ele>
        <time>2021-09-01T11:04:30.000Z</time>
      </trkpt>
      <trkpt lat="44.40855" lon="6.38386">
        <ele>2432</ele>
        <time>2021-09-01T11:04:31.000Z</time>
      </trkpt>
      <trkpt lat="44.40856" lon="6.38388">
        <ele>2432</ele>
        <time>2021-09-01T11:04:32.000Z</time>
      </trkpt>
      <trkpt lat="44.40857" lon="6.38391">
        <ele>2432</ele>
        <time>2021-09-01T11:04:33.000Z</time>
      </trkpt>
      <trkpt lat="44.40858" lon="6.38393">
        <ele>2431</ele>
        <time>2021-09-01T11:04:34.000Z</time>
      </trkpt>
      <trkpt lat="44.40859" lon="6.38395">
        <ele>2431</ele>
        <time>2021-09-01T11:04:35.000Z</time>
      </trkpt>
      <trkpt lat="44.4086" lon="6.38398">
        <ele>2431</ele>
        <time>2021-09-01T11:04:36.000Z</time>
      </trkpt>
      <trkpt lat="44.4086" lon="6.384">
        <ele>2431</ele>
        <time>2021-09-01T11:04:37.000Z</time>
      </trkpt>
      <trkpt lat="44.40861" lon="6.38402">
        <ele>2430</ele>
        <time>2021-09-01T11:04:38.000Z</time>
      </trkpt>
      <trkpt lat="44.40862" lon="6.38404">
        <ele>2430</ele>
        <time>2021-09-01T11:04:39.000Z</time>
      </trkpt>
      <trkpt lat="44.40863" lon="6.38406">
        <ele>2430</ele>
        <time>2021-09-01T11:04:40.000Z</time>
      </trkpt>
      <trkpt lat="44.40864" lon="6.38408">
        <ele>2430</ele>
        <time>2021-09-01T11:04:41.000Z</time>
      </trkpt>
      <trkpt lat="44.40866" lon="6.38409">
        <ele>2431</ele>
        <time>2021-09-01T11:04:42.000Z</time>
      </trkpt>
      <trkpt lat="44.40868" lon="6.38411">
        <ele>2431</ele>
        <time>2021-09-01T11:04:43.000Z</time>
      </trkpt>
      <trkpt lat="44.4087" lon="6.38412">
        <ele>2431</ele>
        <time>2021-09-01T11:04:44.000Z</time>
      </trkpt>
      <trkpt lat="44.40871" lon="6.38413">
        <ele>2431</ele>
        <time>2021-09-01T11:04:45.000Z</time>
      </trkpt>
      <trkpt lat="44.40873" lon="6.38413">
        <ele>2432</ele>
        <time>2021-09-01T11:04:46.000Z</time>
      </trkpt>
      <trkpt lat="44.40875" lon="6.38415">
        <ele>2432</ele>
        <time>2021-09-01T11:04:47.000Z</time>
      </trkpt>
      <trkpt lat="44.40877" lon="6.38416">
        <ele>2432</ele>
        <time>2021-09-01T11:04:48.000Z</time>
      </trkpt>
      <trkpt lat="44.40879" lon="6.38418">
        <ele>2431</ele>
        <time>2021-09-01T11:04:49.000Z</time>
      </trkpt>
      <trkpt lat="44.40881" lon="6.3842">
        <ele>2431</ele>
        <time>2021-09-01T11:04:50.000Z</time>
      </trkpt>
      <trkpt lat="44.40882" lon="6.38421">
        <ele>2431</ele>
        <time>2021-09-01T11:04:51.000Z</time>
      </trkpt>
      <trkpt lat="44.40884" lon="6.38423">
        <ele>2432</ele>
        <time>2021-09-01T11:04:52.000Z</time>
      </trkpt>
      <trkpt lat="44.40885" lon="6.38425">
        <ele>2432</ele>
        <time>2021-09-01T11:04:53.000Z</time>
      </trkpt>
      <trkpt lat="44.40886" lon="6.38428">
        <ele>2433</ele>
        <time>2021-09-01T11:04:54.000Z</time>
      </trkpt>
      <trkpt lat="44.40888" lon="6.3843">
        <ele>2433</ele>
        <time>2021-09-01T11:04:55.000Z</time>
      </trkpt>
      <trkpt lat="44.40889" lon="6.38432">
        <ele>2434</ele>
        <time>2021-09-01T11:04:56.000Z</time>
      </trkpt>
      <trkpt lat="44.4089" lon="6.38434">
        <ele>2434</ele>
        <time>2021-09-01T11:04:57.000Z</time>
      </trkpt>
      <trkpt lat="44.40892" lon="6.38436">
        <ele>2434</ele>
        <time>2021-09-01T11:04:58.000Z</time>
      </trkpt>
      <trkpt lat="44.40893" lon="6.38437">
        <ele>2434</ele>
        <time>2021-09-01T11:04:59.000Z</time>
      </trkpt>
      <trkpt lat="44.40895" lon="6.38439">
        <ele>2434</ele>
        <time>2021-09-01T11:05:00.000Z</time>
      </trkpt>
      <trkpt lat="44.40897" lon="6.38441">
        <ele>2435</ele>
        <time>2021-09-01T11:05:01.000Z</time>
      </trkpt>
      <trkpt lat="44.40898" lon="6.38443">
        <ele>2435</ele>
        <time>2021-09-01T11:05:02.000Z</time>
      </trkpt>
      <trkpt lat="44.409" lon="6.38444">
        <ele>2435</ele>
        <time>2021-09-01T11:05:03.000Z</time>
      </trkpt>
      <trkpt lat="44.40901" lon="6.38446">
        <ele>2435</ele>
        <time>2021-09-01T11:05:04.000Z</time>
      </trkpt>
      <trkpt lat="44.40902" lon="6.38448">
        <ele>2435</ele>
        <time>2021-09-01T11:05:05.000Z</time>
      </trkpt>
      <trkpt lat="44.40904" lon="6.38449">
        <ele>2436</ele>
        <time>2021-09-01T11:05:06.000Z</time>
      </trkpt>
      <trkpt lat="44.40905" lon="6.3845">
        <ele>2436</ele>
        <time>2021-09-01T11:05:07.000Z</time>
      </trkpt>
      <trkpt lat="44.40907" lon="6.38451">
        <ele>2436</ele>
        <time>2021-09-01T11:05:08.000Z</time>
      </trkpt>
      <trkpt lat="44.40909" lon="6.38452">
        <ele>2436</ele>
        <time>2021-09-01T11:05:09.000Z</time>
      </trkpt>
      <trkpt lat="44.40911" lon="6.38454">
        <ele>2436</ele>
        <time>2021-09-01T11:05:10.000Z</time>
      </trkpt>
      <trkpt lat="44.40913" lon="6.38455">
        <ele>2436</ele>
        <time>2021-09-01T11:05:11.000Z</time>
      </trkpt>
      <trkpt lat="44.40915" lon="6.38456">
        <ele>2437</ele>
        <time>2021-09-01T11:05:12.000Z</time>
      </trkpt>
      <trkpt lat="44.40917" lon="6.38458">
        <ele>2437</ele>
        <time>2021-09-01T11:05:13.000Z</time>
      </trkpt>
      <trkpt lat="44.40918" lon="6.38459">
        <ele>2437</ele>
        <time>2021-09-01T11:05:14.000Z</time>
      </trkpt>
      <trkpt lat="44.4092" lon="6.3846">
        <ele>2437</ele>
        <time>2021-09-01T11:05:15.000Z</time>
      </trkpt>
      <trkpt lat="44.40922" lon="6.38461">
        <ele>2437</ele>
        <time>2021-09-01T11:05:16.000Z</time>
      </trkpt>
      <trkpt lat="44.40924" lon="6.38462">
        <ele>2437</ele>
        <time>2021-09-01T11:05:17.000Z</time>
      </trkpt>
      <trkpt lat="44.40926" lon="6.38463">
        <ele>2437</ele>
        <time>2021-09-01T11:05:18.000Z</time>
      </trkpt>
      <trkpt lat="44.40928" lon="6.38463">
        <ele>2437</ele>
        <time>2021-09-01T11:05:19.000Z</time>
      </trkpt>
      <trkpt lat="44.40929" lon="6.38464">
        <ele>2437</ele>
        <time>2021-09-01T11:05:20.000Z</time>
      </trkpt>
      <trkpt lat="44.40931" lon="6.38465">
        <ele>2437</ele>
        <time>2021-09-01T11:05:21.000Z</time>
      </trkpt>
      <trkpt lat="44.40932" lon="6.38466">
        <ele>2438</ele>
        <time>2021-09-01T11:05:22.000Z</time>
      </trkpt>
      <trkpt lat="44.40934" lon="6.38466">
        <ele>2439</ele>
        <time>2021-09-01T11:05:23.000Z</time>
      </trkpt>
      <trkpt lat="44.40936" lon="6.38467">
        <ele>2439</ele>
        <time>2021-09-01T11:05:24.000Z</time>
      </trkpt>
      <trkpt lat="44.40937" lon="6.38467">
        <ele>2439</ele>
        <time>2021-09-01T11:05:25.000Z</time>
      </trkpt>
      <trkpt lat="44.40939" lon="6.38468">
        <ele>2440</ele>
        <time>2021-09-01T11:05:26.000Z</time>
      </trkpt>
      <trkpt lat="44.40941" lon="6.38468">
        <ele>2440</ele>
        <time>2021-09-01T11:05:27.000Z</time>
      </trkpt>
      <trkpt lat="44.40943" lon="6.38469">
        <ele>2440</ele>
        <time>2021-09-01T11:05:28.000Z</time>
      </trkpt>
      <trkpt lat="44.40944" lon="6.38469">
        <ele>2440</ele>
        <time>2021-09-01T11:05:29.000Z</time>
      </trkpt>
      <trkpt lat="44.40946" lon="6.38469">
        <ele>2440</ele>
        <time>2021-09-01T11:05:30.000Z</time>
      </trkpt>
      <trkpt lat="44.40948" lon="6.38469">
        <ele>2440</ele>
        <time>2021-09-01T11:05:31.000Z</time>
      </trkpt>
      <trkpt lat="44.4095" lon="6.38469">
        <ele>2440</ele>
        <time>2021-09-01T11:05:32.000Z</time>
      </trkpt>
      <trkpt lat="44.40952" lon="6.38468">
        <ele>2440</ele>
        <time>2021-09-01T11:05:33.000Z</time>
      </trkpt>
      <trkpt lat="44.40954" lon="6.38468">
        <ele>2441</ele>
        <time>2021-09-01T11:05:34.000Z</time>
      </trkpt>
      <trkpt lat="44.40956" lon="6.38468">
        <ele>2441</ele>
        <time>2021-09-01T11:05:35.000Z</time>
      </trkpt>
      <trkpt lat="44.40958" lon="6.38467">
        <ele>2441</ele>
        <time>2021-09-01T11:05:36.000Z</time>
      </trkpt>
      <trkpt lat="44.40959" lon="6.38466">
        <ele>2441</ele>
        <time>2021-09-01T11:05:37.000Z</time>
      </trkpt>
      <trkpt lat="44.40961" lon="6.38465">
        <ele>2441</ele>
        <time>2021-09-01T11:05:38.000Z</time>
      </trkpt>
      <trkpt lat="44.40963" lon="6.38465">
        <ele>2441</ele>
        <time>2021-09-01T11:05:39.000Z</time>
      </trkpt>
      <trkpt lat="44.40964" lon="6.38465">
        <ele>2441</ele>
        <time>2021-09-01T11:05:40.000Z</time>
      </trkpt>
      <trkpt lat="44.40966" lon="6.38464">
        <ele>2441</ele>
        <time>2021-09-01T11:05:41.000Z</time>
      </trkpt>
      <trkpt lat="44.40968" lon="6.38464">
        <ele>2442</ele>
        <time>2021-09-01T11:05:42.000Z</time>
      </trkpt>
      <trkpt lat="44.4097" lon="6.38464">
        <ele>2442</ele>
        <time>2021-09-01T11:05:43.000Z</time>
      </trkpt>
      <trkpt lat="44.40971" lon="6.38464">
        <ele>2442</ele>
        <time>2021-09-01T11:05:44.000Z</time>
      </trkpt>
      <trkpt lat="44.40973" lon="6.38464">
        <ele>2442</ele>
        <time>2021-09-01T11:05:45.000Z</time>
      </trkpt>
      <trkpt lat="44.40974" lon="6.38464">
        <ele>2442</ele>
        <time>2021-09-01T11:05:46.000Z</time>
      </trkpt>
      <trkpt lat="44.40976" lon="6.38463">
        <ele>2443</ele>
        <time>2021-09-01T11:05:47.000Z</time>
      </trkpt>
      <trkpt lat="44.40978" lon="6.38463">
        <ele>2442</ele>
        <time>2021-09-01T11:05:48.000Z</time>
      </trkpt>
      <trkpt lat="44.40979" lon="6.38463">
        <ele>2442</ele>
        <time>2021-09-01T11:05:49.000Z</time>
      </trkpt>
      <trkpt lat="44.40981" lon="6.38462">
        <ele>2443</ele>
        <time>2021-09-01T11:05:50.000Z</time>
      </trkpt>
      <trkpt lat="44.40983" lon="6.38462">
        <ele>2443</ele>
        <time>2021-09-01T11:05:51.000Z</time>
      </trkpt>
      <trkpt lat="44.40984" lon="6.38461">
        <ele>2443</ele>
        <time>2021-09-01T11:05:52.000Z</time>
      </trkpt>
      <trkpt lat="44.40986" lon="6.38462">
        <ele>2443</ele>
        <time>2021-09-01T11:05:53.000Z</time>
      </trkpt>
      <trkpt lat="44.40987" lon="6.38462">
        <ele>2443</ele>
        <time>2021-09-01T11:05:54.000Z</time>
      </trkpt>
      <trkpt lat="44.40989" lon="6.38462">
        <ele>2443</ele>
        <time>2021-09-01T11:05:55.000Z</time>
      </trkpt>
      <trkpt lat="44.40991" lon="6.38462">
        <ele>2443</ele>
        <time>2021-09-01T11:05:56.000Z</time>
      </trkpt>
      <trkpt lat="44.40992" lon="6.38462">
        <ele>2443</ele>
        <time>2021-09-01T11:05:57.000Z</time>
      </trkpt>
      <trkpt lat="44.40994" lon="6.38461">
        <ele>2443</ele>
        <time>2021-09-01T11:05:58.000Z</time>
      </trkpt>
      <trkpt lat="44.40996" lon="6.38461">
        <ele>2444</ele>
        <time>2021-09-01T11:05:59.000Z</time>
      </trkpt>
      <trkpt lat="44.40997" lon="6.38461">
        <ele>2444</ele>
        <time>2021-09-01T11:06:00.000Z</time>
      </trkpt>
      <trkpt lat="44.40999" lon="6.38461">
        <ele>2444</ele>
        <time>2021-09-01T11:06:01.000Z</time>
      </trkpt>
      <trkpt lat="44.41001" lon="6.38461">
        <ele>2444</ele>
        <time>2021-09-01T11:06:02.000Z</time>
      </trkpt>
      <trkpt lat="44.41002" lon="6.38461">
        <ele>2445</ele>
        <time>2021-09-01T11:06:03.000Z</time>
      </trkpt>
      <trkpt lat="44.41004" lon="6.38461">
        <ele>2445</ele>
        <time>2021-09-01T11:06:04.000Z</time>
      </trkpt>
      <trkpt lat="44.41005" lon="6.38461">
        <ele>2445</ele>
        <time>2021-09-01T11:06:05.000Z</time>
      </trkpt>
      <trkpt lat="44.41007" lon="6.3846">
        <ele>2445</ele>
        <time>2021-09-01T11:06:06.000Z</time>
      </trkpt>
      <trkpt lat="44.41009" lon="6.3846">
        <ele>2444</ele>
        <time>2021-09-01T11:06:07.000Z</time>
      </trkpt>
      <trkpt lat="44.41011" lon="6.3846">
        <ele>2444</ele>
        <time>2021-09-01T11:06:08.000Z</time>
      </trkpt>
      <trkpt lat="44.41012" lon="6.38458">
        <ele>2444</ele>
        <time>2021-09-01T11:06:09.000Z</time>
      </trkpt>
      <trkpt lat="44.41014" lon="6.38457">
        <ele>2444</ele>
        <time>2021-09-01T11:06:10.000Z</time>
      </trkpt>
      <trkpt lat="44.41015" lon="6.38456">
        <ele>2444</ele>
        <time>2021-09-01T11:06:11.000Z</time>
      </trkpt>
      <trkpt lat="44.41017" lon="6.38455">
        <ele>2444</ele>
        <time>2021-09-01T11:06:12.000Z</time>
      </trkpt>
      <trkpt lat="44.41018" lon="6.38454">
        <ele>2444</ele>
        <time>2021-09-01T11:06:13.000Z</time>
      </trkpt>
      <trkpt lat="44.4102" lon="6.38453">
        <ele>2444</ele>
        <time>2021-09-01T11:06:14.000Z</time>
      </trkpt>
      <trkpt lat="44.41022" lon="6.38452">
        <ele>2444</ele>
        <time>2021-09-01T11:06:15.000Z</time>
      </trkpt>
      <trkpt lat="44.41024" lon="6.38451">
        <ele>2444</ele>
        <time>2021-09-01T11:06:16.000Z</time>
      </trkpt>
      <trkpt lat="44.41025" lon="6.38451">
        <ele>2445</ele>
        <time>2021-09-01T11:06:17.000Z</time>
      </trkpt>
      <trkpt lat="44.41027" lon="6.3845">
        <ele>2444</ele>
        <time>2021-09-01T11:06:18.000Z</time>
      </trkpt>
      <trkpt lat="44.41029" lon="6.38449">
        <ele>2444</ele>
        <time>2021-09-01T11:06:19.000Z</time>
      </trkpt>
      <trkpt lat="44.41031" lon="6.38448">
        <ele>2444</ele>
        <time>2021-09-01T11:06:20.000Z</time>
      </trkpt>
      <trkpt lat="44.41032" lon="6.38448">
        <ele>2444</ele>
        <time>2021-09-01T11:06:21.000Z</time>
      </trkpt>
      <trkpt lat="44.41034" lon="6.38448">
        <ele>2444</ele>
        <time>2021-09-01T11:06:22.000Z</time>
      </trkpt>
      <trkpt lat="44.41036" lon="6.38447">
        <ele>2444</ele>
        <time>2021-09-01T11:06:23.000Z</time>
      </trkpt>
      <trkpt lat="44.41038" lon="6.38447">
        <ele>2445</ele>
        <time>2021-09-01T11:06:24.000Z</time>
      </trkpt>
      <trkpt lat="44.4104" lon="6.38447">
        <ele>2445</ele>
        <time>2021-09-01T11:06:25.000Z</time>
      </trkpt>
      <trkpt lat="44.41042" lon="6.38447">
        <ele>2445</ele>
        <time>2021-09-01T11:06:26.000Z</time>
      </trkpt>
      <trkpt lat="44.41044" lon="6.38447">
        <ele>2445</ele>
        <time>2021-09-01T11:06:27.000Z</time>
      </trkpt>
      <trkpt lat="44.41046" lon="6.38446">
        <ele>2446</ele>
        <time>2021-09-01T11:06:28.000Z</time>
      </trkpt>
      <trkpt lat="44.41048" lon="6.38445">
        <ele>2446</ele>
        <time>2021-09-01T11:06:29.000Z</time>
      </trkpt>
      <trkpt lat="44.4105" lon="6.38444">
        <ele>2446</ele>
        <time>2021-09-01T11:06:30.000Z</time>
      </trkpt>
      <trkpt lat="44.41052" lon="6.38444">
        <ele>2446</ele>
        <time>2021-09-01T11:06:31.000Z</time>
      </trkpt>
      <trkpt lat="44.41054" lon="6.38444">
        <ele>2446</ele>
        <time>2021-09-01T11:06:32.000Z</time>
      </trkpt>
      <trkpt lat="44.41056" lon="6.38443">
        <ele>2446</ele>
        <time>2021-09-01T11:06:33.000Z</time>
      </trkpt>
      <trkpt lat="44.41058" lon="6.38443">
        <ele>2446</ele>
        <time>2021-09-01T11:06:34.000Z</time>
      </trkpt>
      <trkpt lat="44.41059" lon="6.38442">
        <ele>2447</ele>
        <time>2021-09-01T11:06:35.000Z</time>
      </trkpt>
      <trkpt lat="44.41061" lon="6.38441">
        <ele>2447</ele>
        <time>2021-09-01T11:06:36.000Z</time>
      </trkpt>
      <trkpt lat="44.41063" lon="6.3844">
        <ele>2447</ele>
        <time>2021-09-01T11:06:37.000Z</time>
      </trkpt>
      <trkpt lat="44.41065" lon="6.38439">
        <ele>2448</ele>
        <time>2021-09-01T11:06:38.000Z</time>
      </trkpt>
      <trkpt lat="44.41067" lon="6.38438">
        <ele>2448</ele>
        <time>2021-09-01T11:06:39.000Z</time>
      </trkpt>
      <trkpt lat="44.41069" lon="6.38438">
        <ele>2448</ele>
        <time>2021-09-01T11:06:40.000Z</time>
      </trkpt>
      <trkpt lat="44.41071" lon="6.38437">
        <ele>2449</ele>
        <time>2021-09-01T11:06:41.000Z</time>
      </trkpt>
      <trkpt lat="44.41073" lon="6.38436">
        <ele>2449</ele>
        <time>2021-09-01T11:06:42.000Z</time>
      </trkpt>
      <trkpt lat="44.41075" lon="6.38435">
        <ele>2449</ele>
        <time>2021-09-01T11:06:43.000Z</time>
      </trkpt>
      <trkpt lat="44.41077" lon="6.38435">
        <ele>2449</ele>
        <time>2021-09-01T11:06:44.000Z</time>
      </trkpt>
      <trkpt lat="44.41079" lon="6.38434">
        <ele>2450</ele>
        <time>2021-09-01T11:06:45.000Z</time>
      </trkpt>
      <trkpt lat="44.4108" lon="6.38433">
        <ele>2450</ele>
        <time>2021-09-01T11:06:46.000Z</time>
      </trkpt>
      <trkpt lat="44.41082" lon="6.38432">
        <ele>2450</ele>
        <time>2021-09-01T11:06:47.000Z</time>
      </trkpt>
      <trkpt lat="44.41084" lon="6.38431">
        <ele>2451</ele>
        <time>2021-09-01T11:06:48.000Z</time>
      </trkpt>
      <trkpt lat="44.41086" lon="6.3843">
        <ele>2452</ele>
        <time>2021-09-01T11:06:49.000Z</time>
      </trkpt>
      <trkpt lat="44.41088" lon="6.38429">
        <ele>2452</ele>
        <time>2021-09-01T11:06:50.000Z</time>
      </trkpt>
      <trkpt lat="44.4109" lon="6.38428">
        <ele>2451</ele>
        <time>2021-09-01T11:06:51.000Z</time>
      </trkpt>
      <trkpt lat="44.41091" lon="6.38427">
        <ele>2451</ele>
        <time>2021-09-01T11:06:52.000Z</time>
      </trkpt>
      <trkpt lat="44.41093" lon="6.38426">
        <ele>2452</ele>
        <time>2021-09-01T11:06:53.000Z</time>
      </trkpt>
      <trkpt lat="44.41095" lon="6.38425">
        <ele>2452</ele>
        <time>2021-09-01T11:06:54.000Z</time>
      </trkpt>
      <trkpt lat="44.41097" lon="6.38424">
        <ele>2452</ele>
        <time>2021-09-01T11:06:55.000Z</time>
      </trkpt>
      <trkpt lat="44.41099" lon="6.38423">
        <ele>2452</ele>
        <time>2021-09-01T11:06:56.000Z</time>
      </trkpt>
      <trkpt lat="44.41101" lon="6.38422">
        <ele>2452</ele>
        <time>2021-09-01T11:06:57.000Z</time>
      </trkpt>
      <trkpt lat="44.41103" lon="6.38421">
        <ele>2452</ele>
        <time>2021-09-01T11:06:58.000Z</time>
      </trkpt>
      <trkpt lat="44.41105" lon="6.3842">
        <ele>2452</ele>
        <time>2021-09-01T11:06:59.000Z</time>
      </trkpt>
      <trkpt lat="44.41106" lon="6.38419">
        <ele>2453</ele>
        <time>2021-09-01T11:07:00.000Z</time>
      </trkpt>
      <trkpt lat="44.41108" lon="6.38418">
        <ele>2453</ele>
        <time>2021-09-01T11:07:01.000Z</time>
      </trkpt>
      <trkpt lat="44.4111" lon="6.38417">
        <ele>2453</ele>
        <time>2021-09-01T11:07:02.000Z</time>
      </trkpt>
      <trkpt lat="44.41112" lon="6.38416">
        <ele>2453</ele>
        <time>2021-09-01T11:07:03.000Z</time>
      </trkpt>
      <trkpt lat="44.41114" lon="6.38415">
        <ele>2454</ele>
        <time>2021-09-01T11:07:04.000Z</time>
      </trkpt>
      <trkpt lat="44.41116" lon="6.38414">
        <ele>2455</ele>
        <time>2021-09-01T11:07:05.000Z</time>
      </trkpt>
      <trkpt lat="44.41117" lon="6.38413">
        <ele>2455</ele>
        <time>2021-09-01T11:07:06.000Z</time>
      </trkpt>
      <trkpt lat="44.41119" lon="6.38412">
        <ele>2456</ele>
        <time>2021-09-01T11:07:07.000Z</time>
      </trkpt>
      <trkpt lat="44.41121" lon="6.38411">
        <ele>2456</ele>
        <time>2021-09-01T11:07:08.000Z</time>
      </trkpt>
      <trkpt lat="44.41123" lon="6.3841">
        <ele>2457</ele>
        <time>2021-09-01T11:07:09.000Z</time>
      </trkpt>
      <trkpt lat="44.41124" lon="6.38408">
        <ele>2457</ele>
        <time>2021-09-01T11:07:10.000Z</time>
      </trkpt>
      <trkpt lat="44.41126" lon="6.38407">
        <ele>2457</ele>
        <time>2021-09-01T11:07:11.000Z</time>
      </trkpt>
      <trkpt lat="44.41128" lon="6.38406">
        <ele>2457</ele>
        <time>2021-09-01T11:07:12.000Z</time>
      </trkpt>
      <trkpt lat="44.4113" lon="6.38405">
        <ele>2457</ele>
        <time>2021-09-01T11:07:13.000Z</time>
      </trkpt>
      <trkpt lat="44.41132" lon="6.38404">
        <ele>2457</ele>
        <time>2021-09-01T11:07:14.000Z</time>
      </trkpt>
      <trkpt lat="44.41133" lon="6.38403">
        <ele>2458</ele>
        <time>2021-09-01T11:07:15.000Z</time>
      </trkpt>
      <trkpt lat="44.41135" lon="6.38402">
        <ele>2458</ele>
        <time>2021-09-01T11:07:16.000Z</time>
      </trkpt>
      <trkpt lat="44.41137" lon="6.38402">
        <ele>2458</ele>
        <time>2021-09-01T11:07:17.000Z</time>
      </trkpt>
      <trkpt lat="44.41139" lon="6.38401">
        <ele>2459</ele>
        <time>2021-09-01T11:07:18.000Z</time>
      </trkpt>
      <trkpt lat="44.41141" lon="6.384">
        <ele>2459</ele>
        <time>2021-09-01T11:07:19.000Z</time>
      </trkpt>
      <trkpt lat="44.41143" lon="6.384">
        <ele>2460</ele>
        <time>2021-09-01T11:07:20.000Z</time>
      </trkpt>
      <trkpt lat="44.41145" lon="6.384">
        <ele>2460</ele>
        <time>2021-09-01T11:07:21.000Z</time>
      </trkpt>
      <trkpt lat="44.41147" lon="6.384">
        <ele>2460</ele>
        <time>2021-09-01T11:07:22.000Z</time>
      </trkpt>
      <trkpt lat="44.41149" lon="6.38399">
        <ele>2461</ele>
        <time>2021-09-01T11:07:23.000Z</time>
      </trkpt>
      <trkpt lat="44.4115" lon="6.38399">
        <ele>2461</ele>
        <time>2021-09-01T11:07:24.000Z</time>
      </trkpt>
      <trkpt lat="44.41152" lon="6.38398">
        <ele>2461</ele>
        <time>2021-09-01T11:07:25.000Z</time>
      </trkpt>
      <trkpt lat="44.41154" lon="6.38398">
        <ele>2461</ele>
        <time>2021-09-01T11:07:26.000Z</time>
      </trkpt>
      <trkpt lat="44.41156" lon="6.38398">
        <ele>2462</ele>
        <time>2021-09-01T11:07:27.000Z</time>
      </trkpt>
      <trkpt lat="44.41158" lon="6.38397">
        <ele>2462</ele>
        <time>2021-09-01T11:07:28.000Z</time>
      </trkpt>
      <trkpt lat="44.41159" lon="6.38397">
        <ele>2462</ele>
        <time>2021-09-01T11:07:29.000Z</time>
      </trkpt>
      <trkpt lat="44.41161" lon="6.38397">
        <ele>2462</ele>
        <time>2021-09-01T11:07:30.000Z</time>
      </trkpt>
      <trkpt lat="44.41163" lon="6.38396">
        <ele>2462</ele>
        <time>2021-09-01T11:07:31.000Z</time>
      </trkpt>
      <trkpt lat="44.41165" lon="6.38396">
        <ele>2462</ele>
        <time>2021-09-01T11:07:32.000Z</time>
      </trkpt>
      <trkpt lat="44.41166" lon="6.38396">
        <ele>2462</ele>
        <time>2021-09-01T11:07:33.000Z</time>
      </trkpt>
      <trkpt lat="44.41168" lon="6.38395">
        <ele>2462</ele>
        <time>2021-09-01T11:07:34.000Z</time>
      </trkpt>
      <trkpt lat="44.41169" lon="6.38395">
        <ele>2462</ele>
        <time>2021-09-01T11:07:35.000Z</time>
      </trkpt>
      <trkpt lat="44.4117" lon="6.38395">
        <ele>2462</ele>
        <time>2021-09-01T11:07:36.000Z</time>
      </trkpt>
      <trkpt lat="44.40937" lon="6.38602">
        <ele>2491</ele>
        <time>2021-09-01T11:44:33.000Z</time>
      </trkpt>
      <trkpt lat="44.40934" lon="6.38603">
        <ele>2490</ele>
        <time>2021-09-01T11:44:34.000Z</time>
      </trkpt>
      <trkpt lat="44.40931" lon="6.38604">
        <ele>2490</ele>
        <time>2021-09-01T11:44:35.000Z</time>
      </trkpt>
      <trkpt lat="44.40928" lon="6.38605">
        <ele>2490</ele>
        <time>2021-09-01T11:44:36.000Z</time>
      </trkpt>
      <trkpt lat="44.40926" lon="6.38606">
        <ele>2490</ele>
        <time>2021-09-01T11:44:37.000Z</time>
      </trkpt>
      <trkpt lat="44.40924" lon="6.38606">
        <ele>2489</ele>
        <time>2021-09-01T11:44:38.000Z</time>
      </trkpt>
      <trkpt lat="44.40921" lon="6.38607">
        <ele>2489</ele>
        <time>2021-09-01T11:44:39.000Z</time>
      </trkpt>
      <trkpt lat="44.40919" lon="6.38607">
        <ele>2489</ele>
        <time>2021-09-01T11:44:40.000Z</time>
      </trkpt>
      <trkpt lat="44.40918" lon="6.38608">
        <ele>2489</ele>
        <time>2021-09-01T11:44:41.000Z</time>
      </trkpt>
      <trkpt lat="44.40916" lon="6.38609">
        <ele>2489</ele>
        <time>2021-09-01T11:44:42.000Z</time>
      </trkpt>
      <trkpt lat="44.40914" lon="6.3861">
        <ele>2489</ele>
        <time>2021-09-01T11:44:43.000Z</time>
      </trkpt>
      <trkpt lat="44.40911" lon="6.38611">
        <ele>2489</ele>
        <time>2021-09-01T11:44:44.000Z</time>
      </trkpt>
      <trkpt lat="44.40909" lon="6.3861">
        <ele>2489</ele>
        <time>2021-09-01T11:44:45.000Z</time>
      </trkpt>
      <trkpt lat="44.40906" lon="6.3861">
        <ele>2488</ele>
        <time>2021-09-01T11:44:46.000Z</time>
      </trkpt>
      <trkpt lat="44.40904" lon="6.3861">
        <ele>2488</ele>
        <time>2021-09-01T11:44:47.000Z</time>
      </trkpt>
      <trkpt lat="44.40902" lon="6.38611">
        <ele>2487</ele>
        <time>2021-09-01T11:44:48.000Z</time>
      </trkpt>
      <trkpt lat="44.40899" lon="6.38611">
        <ele>2486</ele>
        <time>2021-09-01T11:44:49.000Z</time>
      </trkpt>
      <trkpt lat="44.40897" lon="6.38612">
        <ele>2485</ele>
        <time>2021-09-01T11:44:50.000Z</time>
      </trkpt>
      <trkpt lat="44.40894" lon="6.38613">
        <ele>2485</ele>
        <time>2021-09-01T11:44:51.000Z</time>
      </trkpt>
      <trkpt lat="44.40892" lon="6.38614">
        <ele>2484</ele>
        <time>2021-09-01T11:44:52.000Z</time>
      </trkpt>
      <trkpt lat="44.40889" lon="6.38613">
        <ele>2484</ele>
        <time>2021-09-01T11:44:53.000Z</time>
      </trkpt>
      <trkpt lat="44.40887" lon="6.38613">
        <ele>2484</ele>
        <time>2021-09-01T11:44:54.000Z</time>
      </trkpt>
      <trkpt lat="44.40884" lon="6.38614">
        <ele>2484</ele>
        <time>2021-09-01T11:44:55.000Z</time>
      </trkpt>
      <trkpt lat="44.40882" lon="6.38614">
        <ele>2484</ele>
        <time>2021-09-01T11:44:56.000Z</time>
      </trkpt>
      <trkpt lat="44.40879" lon="6.38614">
        <ele>2483</ele>
        <time>2021-09-01T11:44:57.000Z</time>
      </trkpt>
      <trkpt lat="44.40877" lon="6.38614">
        <ele>2483</ele>
        <time>2021-09-01T11:44:58.000Z</time>
      </trkpt>
      <trkpt lat="44.40875" lon="6.38614">
        <ele>2483</ele>
        <time>2021-09-01T11:44:59.000Z</time>
      </trkpt>
      <trkpt lat="44.40872" lon="6.38614">
        <ele>2483</ele>
        <time>2021-09-01T11:45:00.000Z</time>
      </trkpt>
      <trkpt lat="44.4087" lon="6.38614">
        <ele>2483</ele>
        <time>2021-09-01T11:45:01.000Z</time>
      </trkpt>
      <trkpt lat="44.40867" lon="6.38614">
        <ele>2483</ele>
        <time>2021-09-01T11:45:02.000Z</time>
      </trkpt>
      <trkpt lat="44.40865" lon="6.38614">
        <ele>2483</ele>
        <time>2021-09-01T11:45:03.000Z</time>
      </trkpt>
      <trkpt lat="44.40863" lon="6.38614">
        <ele>2482</ele>
        <time>2021-09-01T11:45:04.000Z</time>
      </trkpt>
      <trkpt lat="44.4086" lon="6.38615">
        <ele>2481</ele>
        <time>2021-09-01T11:45:05.000Z</time>
      </trkpt>
      <trkpt lat="44.40857" lon="6.38614">
        <ele>2481</ele>
        <time>2021-09-01T11:45:06.000Z</time>
      </trkpt>
      <trkpt lat="44.40854" lon="6.38614">
        <ele>2481</ele>
        <time>2021-09-01T11:45:07.000Z</time>
      </trkpt>
      <trkpt lat="44.40851" lon="6.38615">
        <ele>2480</ele>
        <time>2021-09-01T11:45:08.000Z</time>
      </trkpt>
      <trkpt lat="44.40849" lon="6.38615">
        <ele>2479</ele>
        <time>2021-09-01T11:45:09.000Z</time>
      </trkpt>
      <trkpt lat="44.40846" lon="6.38615">
        <ele>2480</ele>
        <time>2021-09-01T11:45:10.000Z</time>
      </trkpt>
      <trkpt lat="44.40843" lon="6.38615">
        <ele>2478</ele>
        <time>2021-09-01T11:45:11.000Z</time>
      </trkpt>
      <trkpt lat="44.40841" lon="6.38615">
        <ele>2477</ele>
        <time>2021-09-01T11:45:12.000Z</time>
      </trkpt>
      <trkpt lat="44.40838" lon="6.38615">
        <ele>2477</ele>
        <time>2021-09-01T11:45:13.000Z</time>
      </trkpt>
      <trkpt lat="44.40836" lon="6.38615">
        <ele>2476</ele>
        <time>2021-09-01T11:45:14.000Z</time>
      </trkpt>
      <trkpt lat="44.40833" lon="6.38613">
        <ele>2476</ele>
        <time>2021-09-01T11:45:15.000Z</time>
      </trkpt>
      <trkpt lat="44.4083" lon="6.38611">
        <ele>2475</ele>
        <time>2021-09-01T11:45:16.000Z</time>
      </trkpt>
      <trkpt lat="44.40828" lon="6.38609">
        <ele>2473</ele>
        <time>2021-09-01T11:45:17.000Z</time>
      </trkpt>
      <trkpt lat="44.40825" lon="6.38606">
        <ele>2472</ele>
        <time>2021-09-01T11:45:18.000Z</time>
      </trkpt>
      <trkpt lat="44.40822" lon="6.38602">
        <ele>2473</ele>
        <time>2021-09-01T11:45:19.000Z</time>
      </trkpt>
      <trkpt lat="44.40818" lon="6.38598">
        <ele>2473</ele>
        <time>2021-09-01T11:45:20.000Z</time>
      </trkpt>
      <trkpt lat="44.40815" lon="6.38594">
        <ele>2474</ele>
        <time>2021-09-01T11:45:21.000Z</time>
      </trkpt>
      <trkpt lat="44.40812" lon="6.38591">
        <ele>2474</ele>
        <time>2021-09-01T11:45:22.000Z</time>
      </trkpt>
      <trkpt lat="44.40809" lon="6.38586">
        <ele>2473</ele>
        <time>2021-09-01T11:45:23.000Z</time>
      </trkpt>
      <trkpt lat="44.40805" lon="6.38582">
        <ele>2472</ele>
        <time>2021-09-01T11:45:24.000Z</time>
      </trkpt>
      <trkpt lat="44.40803" lon="6.38578">
        <ele>2472</ele>
        <time>2021-09-01T11:45:25.000Z</time>
      </trkpt>
      <trkpt lat="44.408" lon="6.38574">
        <ele>2471</ele>
        <time>2021-09-01T11:45:26.000Z</time>
      </trkpt>
      <trkpt lat="44.40799" lon="6.38572">
        <ele>2472</ele>
        <time>2021-09-01T11:45:27.000Z</time>
      </trkpt>
      <trkpt lat="44.40798" lon="6.38569">
        <ele>2471</ele>
        <time>2021-09-01T11:45:28.000Z</time>
      </trkpt>
      <trkpt lat="44.40796" lon="6.38566">
        <ele>2471</ele>
        <time>2021-09-01T11:45:29.000Z</time>
      </trkpt>
      <trkpt lat="44.40794" lon="6.38563">
        <ele>2472</ele>
        <time>2021-09-01T11:45:30.000Z</time>
      </trkpt>
      <trkpt lat="44.40791" lon="6.38561">
        <ele>2472</ele>
        <time>2021-09-01T11:45:31.000Z</time>
      </trkpt>
      <trkpt lat="44.40789" lon="6.38559">
        <ele>2472</ele>
        <time>2021-09-01T11:45:32.000Z</time>
      </trkpt>
      <trkpt lat="44.40787" lon="6.38558">
        <ele>2472</ele>
        <time>2021-09-01T11:45:33.000Z</time>
      </trkpt>
      <trkpt lat="44.40785" lon="6.38556">
        <ele>2472</ele>
        <time>2021-09-01T11:45:34.000Z</time>
      </trkpt>
      <trkpt lat="44.40783" lon="6.38557">
        <ele>2472</ele>
        <time>2021-09-01T11:45:35.000Z</time>
      </trkpt>
      <trkpt lat="44.4078" lon="6.38558">
        <ele>2472</ele>
        <time>2021-09-01T11:45:36.000Z</time>
      </trkpt>
      <trkpt lat="44.40778" lon="6.3856">
        <ele>2472</ele>
        <time>2021-09-01T11:45:37.000Z</time>
      </trkpt>
      <trkpt lat="44.40776" lon="6.38561">
        <ele>2472</ele>
        <time>2021-09-01T11:45:38.000Z</time>
      </trkpt>
      <trkpt lat="44.40774" lon="6.38561">
        <ele>2472</ele>
        <time>2021-09-01T11:45:39.000Z</time>
      </trkpt>
      <trkpt lat="44.40773" lon="6.38562">
        <ele>2472</ele>
        <time>2021-09-01T11:45:40.000Z</time>
      </trkpt>
      <trkpt lat="44.4077" lon="6.38564">
        <ele>2472</ele>
        <time>2021-09-01T11:45:41.000Z</time>
      </trkpt>
      <trkpt lat="44.40769" lon="6.38565">
        <ele>2472</ele>
        <time>2021-09-01T11:45:42.000Z</time>
      </trkpt>
      <trkpt lat="44.40766" lon="6.38566">
        <ele>2472</ele>
        <time>2021-09-01T11:45:43.000Z</time>
      </trkpt>
      <trkpt lat="44.40764" lon="6.38567">
        <ele>2472</ele>
        <time>2021-09-01T11:45:44.000Z</time>
      </trkpt>
      <trkpt lat="44.40761" lon="6.38568">
        <ele>2472</ele>
        <time>2021-09-01T11:45:45.000Z</time>
      </trkpt>
      <trkpt lat="44.40759" lon="6.3857">
        <ele>2471</ele>
        <time>2021-09-01T11:45:46.000Z</time>
      </trkpt>
      <trkpt lat="44.40756" lon="6.38572">
        <ele>2471</ele>
        <time>2021-09-01T11:45:47.000Z</time>
      </trkpt>
      <trkpt lat="44.40753" lon="6.38574">
        <ele>2471</ele>
        <time>2021-09-01T11:45:48.000Z</time>
      </trkpt>
      <trkpt lat="44.4075" lon="6.38575">
        <ele>2472</ele>
        <time>2021-09-01T11:45:49.000Z</time>
      </trkpt>
      <trkpt lat="44.40747" lon="6.38575">
        <ele>2472</ele>
        <time>2021-09-01T11:45:50.000Z</time>
      </trkpt>
      <trkpt lat="44.40745" lon="6.38576">
        <ele>2472</ele>
        <time>2021-09-01T11:45:51.000Z</time>
      </trkpt>
      <trkpt lat="44.40742" lon="6.38577">
        <ele>2472</ele>
        <time>2021-09-01T11:45:52.000Z</time>
      </trkpt>
      <trkpt lat="44.4074" lon="6.38577">
        <ele>2472</ele>
        <time>2021-09-01T11:45:53.000Z</time>
      </trkpt>
      <trkpt lat="44.40737" lon="6.38579">
        <ele>2472</ele>
        <time>2021-09-01T11:45:54.000Z</time>
      </trkpt>
      <trkpt lat="44.40734" lon="6.38579">
        <ele>2472</ele>
        <time>2021-09-01T11:45:55.000Z</time>
      </trkpt>
      <trkpt lat="44.4073" lon="6.38579">
        <ele>2472</ele>
        <time>2021-09-01T11:45:56.000Z</time>
      </trkpt>
      <trkpt lat="44.40727" lon="6.38579">
        <ele>2472</ele>
        <time>2021-09-01T11:45:57.000Z</time>
      </trkpt>
      <trkpt lat="44.40723" lon="6.38579">
        <ele>2472</ele>
        <time>2021-09-01T11:45:58.000Z</time>
      </trkpt>
      <trkpt lat="44.40719" lon="6.38579">
        <ele>2471</ele>
        <time>2021-09-01T11:45:59.000Z</time>
      </trkpt>
      <trkpt lat="44.40714" lon="6.3858">
        <ele>2470</ele>
        <time>2021-09-01T11:46:00.000Z</time>
      </trkpt>
      <trkpt lat="44.40709" lon="6.38581">
        <ele>2470</ele>
        <time>2021-09-01T11:46:01.000Z</time>
      </trkpt>
      <trkpt lat="44.40704" lon="6.38582">
        <ele>2470</ele>
        <time>2021-09-01T11:46:02.000Z</time>
      </trkpt>
      <trkpt lat="44.40698" lon="6.38584">
        <ele>2471</ele>
        <time>2021-09-01T11:46:03.000Z</time>
      </trkpt>
      <trkpt lat="44.40692" lon="6.38584">
        <ele>2471</ele>
        <time>2021-09-01T11:46:04.000Z</time>
      </trkpt>
      <trkpt lat="44.40686" lon="6.38584">
        <ele>2473</ele>
        <time>2021-09-01T11:46:05.000Z</time>
      </trkpt>
      <trkpt lat="44.4068" lon="6.38586">
        <ele>2472</ele>
        <time>2021-09-01T11:46:06.000Z</time>
      </trkpt>
      <trkpt lat="44.40674" lon="6.38586">
        <ele>2472</ele>
        <time>2021-09-01T11:46:07.000Z</time>
      </trkpt>
      <trkpt lat="44.40668" lon="6.38588">
        <ele>2473</ele>
        <time>2021-09-01T11:46:08.000Z</time>
      </trkpt>
      <trkpt lat="44.40662" lon="6.38589">
        <ele>2473</ele>
        <time>2021-09-01T11:46:09.000Z</time>
      </trkpt>
      <trkpt lat="44.40655" lon="6.3859">
        <ele>2474</ele>
        <time>2021-09-01T11:46:10.000Z</time>
      </trkpt>
      <trkpt lat="44.40649" lon="6.38591">
        <ele>2473</ele>
        <time>2021-09-01T11:46:11.000Z</time>
      </trkpt>
      <trkpt lat="44.40643" lon="6.38591">
        <ele>2473</ele>
        <time>2021-09-01T11:46:12.000Z</time>
      </trkpt>
      <trkpt lat="44.40637" lon="6.38592">
        <ele>2472</ele>
        <time>2021-09-01T11:46:13.000Z</time>
      </trkpt>
      <trkpt lat="44.40631" lon="6.38593">
        <ele>2471</ele>
        <time>2021-09-01T11:46:14.000Z</time>
      </trkpt>
      <trkpt lat="44.40625" lon="6.38595">
        <ele>2470</ele>
        <time>2021-09-01T11:46:15.000Z</time>
      </trkpt>
      <trkpt lat="44.40619" lon="6.38596">
        <ele>2468</ele>
        <time>2021-09-01T11:46:16.000Z</time>
      </trkpt>
      <trkpt lat="44.40614" lon="6.38598">
        <ele>2467</ele>
        <time>2021-09-01T11:46:17.000Z</time>
      </trkpt>
      <trkpt lat="44.40608" lon="6.386">
        <ele>2465</ele>
        <time>2021-09-01T11:46:18.000Z</time>
      </trkpt>
      <trkpt lat="44.40602" lon="6.38602">
        <ele>2464</ele>
        <time>2021-09-01T11:46:19.000Z</time>
      </trkpt>
      <trkpt lat="44.40596" lon="6.38603">
        <ele>2463</ele>
        <time>2021-09-01T11:46:20.000Z</time>
      </trkpt>
      <trkpt lat="44.4059" lon="6.38605">
        <ele>2461</ele>
        <time>2021-09-01T11:46:21.000Z</time>
      </trkpt>
      <trkpt lat="44.40583" lon="6.38608">
        <ele>2459</ele>
        <time>2021-09-01T11:46:22.000Z</time>
      </trkpt>
      <trkpt lat="44.40576" lon="6.3861">
        <ele>2457</ele>
        <time>2021-09-01T11:46:23.000Z</time>
      </trkpt>
      <trkpt lat="44.40568" lon="6.38615">
        <ele>2456</ele>
        <time>2021-09-01T11:46:24.000Z</time>
      </trkpt>
      <trkpt lat="44.4056" lon="6.38619">
        <ele>2456</ele>
        <time>2021-09-01T11:46:25.000Z</time>
      </trkpt>
      <trkpt lat="44.40551" lon="6.38623">
        <ele>2457</ele>
        <time>2021-09-01T11:46:26.000Z</time>
      </trkpt>
      <trkpt lat="44.40543" lon="6.38626">
        <ele>2456</ele>
        <time>2021-09-01T11:46:27.000Z</time>
      </trkpt>
      <trkpt lat="44.40535" lon="6.38629">
        <ele>2456</ele>
        <time>2021-09-01T11:46:28.000Z</time>
      </trkpt>
      <trkpt lat="44.40529" lon="6.38633">
        <ele>2455</ele>
        <time>2021-09-01T11:46:29.000Z</time>
      </trkpt>
      <trkpt lat="44.40523" lon="6.38635">
        <ele>2454</ele>
        <time>2021-09-01T11:46:30.000Z</time>
      </trkpt>
      <trkpt lat="44.40517" lon="6.38634">
        <ele>2453</ele>
        <time>2021-09-01T11:46:31.000Z</time>
      </trkpt>
      <trkpt lat="44.40513" lon="6.38634">
        <ele>2451</ele>
        <time>2021-09-01T11:46:32.000Z</time>
      </trkpt>
      <trkpt lat="44.40508" lon="6.38635">
        <ele>2451</ele>
        <time>2021-09-01T11:46:33.000Z</time>
      </trkpt>
      <trkpt lat="44.40502" lon="6.38637">
        <ele>2451</ele>
        <time>2021-09-01T11:46:34.000Z</time>
      </trkpt>
      <trkpt lat="44.40497" lon="6.38637">
        <ele>2452</ele>
        <time>2021-09-01T11:46:35.000Z</time>
      </trkpt>
      <trkpt lat="44.40492" lon="6.38637">
        <ele>2452</ele>
        <time>2021-09-01T11:46:36.000Z</time>
      </trkpt>
      <trkpt lat="44.40487" lon="6.38637">
        <ele>2452</ele>
        <time>2021-09-01T11:46:37.000Z</time>
      </trkpt>
      <trkpt lat="44.40483" lon="6.38636">
        <ele>2453</ele>
        <time>2021-09-01T11:46:38.000Z</time>
      </trkpt>
      <trkpt lat="44.40479" lon="6.38633">
        <ele>2454</ele>
        <time>2021-09-01T11:46:39.000Z</time>
      </trkpt>
      <trkpt lat="44.40476" lon="6.3863">
        <ele>2454</ele>
        <time>2021-09-01T11:46:40.000Z</time>
      </trkpt>
      <trkpt lat="44.40472" lon="6.38628">
        <ele>2454</ele>
        <time>2021-09-01T11:46:41.000Z</time>
      </trkpt>
      <trkpt lat="44.40469" lon="6.38626">
        <ele>2453</ele>
        <time>2021-09-01T11:46:42.000Z</time>
      </trkpt>
      <trkpt lat="44.40465" lon="6.38624">
        <ele>2453</ele>
        <time>2021-09-01T11:46:43.000Z</time>
      </trkpt>
      <trkpt lat="44.40462" lon="6.38622">
        <ele>2452</ele>
        <time>2021-09-01T11:46:44.000Z</time>
      </trkpt>
      <trkpt lat="44.40459" lon="6.38619">
        <ele>2452</ele>
        <time>2021-09-01T11:46:45.000Z</time>
      </trkpt>
      <trkpt lat="44.40457" lon="6.38615">
        <ele>2450</ele>
        <time>2021-09-01T11:46:46.000Z</time>
      </trkpt>
      <trkpt lat="44.40454" lon="6.38612">
        <ele>2450</ele>
        <time>2021-09-01T11:46:47.000Z</time>
      </trkpt>
      <trkpt lat="44.40452" lon="6.38608">
        <ele>2448</ele>
        <time>2021-09-01T11:46:48.000Z</time>
      </trkpt>
      <trkpt lat="44.40449" lon="6.38604">
        <ele>2447</ele>
        <time>2021-09-01T11:46:49.000Z</time>
      </trkpt>
      <trkpt lat="44.4044" lon="6.38591">
        <ele>2445</ele>
        <time>2021-09-01T12:02:54.000Z</time>
      </trkpt>
      <trkpt lat="44.4044" lon="6.3859">
        <ele>2444</ele>
        <time>2021-09-01T12:02:55.000Z</time>
      </trkpt>
      <trkpt lat="44.40439" lon="6.3859">
        <ele>2444</ele>
        <time>2021-09-01T12:02:56.000Z</time>
      </trkpt>
      <trkpt lat="44.40439" lon="6.3859">
        <ele>2444</ele>
        <time>2021-09-01T12:02:57.000Z</time>
      </trkpt>
      <trkpt lat="44.40438" lon="6.3859">
        <ele>2444</ele>
        <time>2021-09-01T12:02:58.000Z</time>
      </trkpt>
      <trkpt lat="44.40437" lon="6.3859">
        <ele>2444</ele>
        <time>2021-09-01T12:02:59.000Z</time>
      </trkpt>
      <trkpt lat="44.40437" lon="6.3859">
        <ele>2444</ele>
        <time>2021-09-01T12:03:00.000Z</time>
      </trkpt>
      <trkpt lat="44.40437" lon="6.3859">
        <ele>2444</ele>
        <time>2021-09-01T12:03:01.000Z</time>
      </trkpt>
      <trkpt lat="44.40436" lon="6.3859">
        <ele>2444</ele>
        <time>2021-09-01T12:03:02.000Z</time>
      </trkpt>
      <trkpt lat="44.40436" lon="6.3859">
        <ele>2444</ele>
        <time>2021-09-01T12:03:03.000Z</time>
      </trkpt>
      <trkpt lat="44.40436" lon="6.3859">
        <ele>2443</ele>
        <time>2021-09-01T12:03:04.000Z</time>
      </trkpt>
      <trkpt lat="44.40435" lon="6.3859">
        <ele>2443</ele>
        <time>2021-09-01T12:03:05.000Z</time>
      </trkpt>
      <trkpt lat="44.40435" lon="6.38589">
        <ele>2443</ele>
        <time>2021-09-01T12:03:06.000Z</time>
      </trkpt>
      <trkpt lat="44.40434" lon="6.38589">
        <ele>2443</ele>
        <time>2021-09-01T12:03:07.000Z</time>
      </trkpt>
      <trkpt lat="44.40434" lon="6.38589">
        <ele>2443</ele>
        <time>2021-09-01T12:03:08.000Z</time>
      </trkpt>
      <trkpt lat="44.40434" lon="6.38589">
        <ele>2443</ele>
        <time>2021-09-01T12:03:09.000Z</time>
      </trkpt>
      <trkpt lat="44.40434" lon="6.38589">
        <ele>2443</ele>
        <time>2021-09-01T12:03:10.000Z</time>
      </trkpt>
      <trkpt lat="44.40434" lon="6.38588">
        <ele>2443</ele>
        <time>2021-09-01T12:03:11.000Z</time>
      </trkpt>
      <trkpt lat="44.40434" lon="6.38588">
        <ele>2443</ele>
        <time>2021-09-01T12:03:12.000Z</time>
      </trkpt>
      <trkpt lat="44.40434" lon="6.38587">
        <ele>2443</ele>
        <time>2021-09-01T12:03:13.000Z</time>
      </trkpt>
      <trkpt lat="44.40434" lon="6.38587">
        <ele>2443</ele>
        <time>2021-09-01T12:03:14.000Z</time>
      </trkpt>
      <trkpt lat="44.40434" lon="6.38587">
        <ele>2443</ele>
        <time>2021-09-01T12:03:15.000Z</time>
      </trkpt>
      <trkpt lat="44.40433" lon="6.38587">
        <ele>2442</ele>
        <time>2021-09-01T12:03:16.000Z</time>
      </trkpt>
      <trkpt lat="44.40433" lon="6.38587">
        <ele>2443</ele>
        <time>2021-09-01T12:03:17.000Z</time>
      </trkpt>
      <trkpt lat="44.40434" lon="6.38586">
        <ele>2443</ele>
        <time>2021-09-01T12:03:18.000Z</time>
      </trkpt>
      <trkpt lat="44.40434" lon="6.38586">
        <ele>2443</ele>
        <time>2021-09-01T12:03:19.000Z</time>
      </trkpt>
      <trkpt lat="44.40434" lon="6.38586">
        <ele>2443</ele>
        <time>2021-09-01T12:03:20.000Z</time>
      </trkpt>
      <trkpt lat="44.40434" lon="6.38586">
        <ele>2443</ele>
        <time>2021-09-01T12:03:21.000Z</time>
      </trkpt>
      <trkpt lat="44.40434" lon="6.38587">
        <ele>2442</ele>
        <time>2021-09-01T12:03:22.000Z</time>
      </trkpt>
      <trkpt lat="44.40434" lon="6.38587">
        <ele>2442</ele>
        <time>2021-09-01T12:03:23.000Z</time>
      </trkpt>
      <trkpt lat="44.40434" lon="6.38587">
        <ele>2442</ele>
        <time>2021-09-01T12:03:24.000Z</time>
      </trkpt>
      <trkpt lat="44.40434" lon="6.38586">
        <ele>2442</ele>
        <time>2021-09-01T12:03:25.000Z</time>
      </trkpt>
      <trkpt lat="44.40434" lon="6.38587">
        <ele>2442</ele>
        <time>2021-09-01T12:03:26.000Z</time>
      </trkpt>
      <trkpt lat="44.40434" lon="6.38587">
        <ele>2441</ele>
        <time>2021-09-01T12:03:27.000Z</time>
      </trkpt>
      <trkpt lat="44.40434" lon="6.38587">
        <ele>2440</ele>
        <time>2021-09-01T12:03:28.000Z</time>
      </trkpt>
      <trkpt lat="44.40434" lon="6.38587">
        <ele>2440</ele>
        <time>2021-09-01T12:03:29.000Z</time>
      </trkpt>
      <trkpt lat="44.40434" lon="6.38587">
        <ele>2440</ele>
        <time>2021-09-01T12:03:30.000Z</time>
      </trkpt>
      <trkpt lat="44.40434" lon="6.38587">
        <ele>2440</ele>
        <time>2021-09-01T12:03:31.000Z</time>
      </trkpt>
      <trkpt lat="44.40434" lon="6.38587">
        <ele>2440</ele>
        <time>2021-09-01T12:03:32.000Z</time>
      </trkpt>
      <trkpt lat="44.40434" lon="6.38587">
        <ele>2440</ele>
        <time>2021-09-01T12:03:33.000Z</time>
      </trkpt>
      <trkpt lat="44.40434" lon="6.38587">
        <ele>2440</ele>
        <time>2021-09-01T12:03:34.000Z</time>
      </trkpt>
      <trkpt lat="44.40434" lon="6.38587">
        <ele>2440</ele>
        <time>2021-09-01T12:03:35.000Z</time>
      </trkpt>
      <trkpt lat="44.40434" lon="6.38587">
        <ele>2440</ele>
        <time>2021-09-01T12:03:36.000Z</time>
      </trkpt>
      <trkpt lat="44.40434" lon="6.38586">
        <ele>2440</ele>
        <time>2021-09-01T12:03:37.000Z</time>
      </trkpt>
      <trkpt lat="44.40434" lon="6.38586">
        <ele>2440</ele>
        <time>2021-09-01T12:03:38.000Z</time>
      </trkpt>
      <trkpt lat="44.40435" lon="6.38586">
        <ele>2440</ele>
        <time>2021-09-01T12:03:39.000Z</time>
      </trkpt>
      <trkpt lat="44.40435" lon="6.38586">
        <ele>2439</ele>
        <time>2021-09-01T12:03:40.000Z</time>
      </trkpt>
      <trkpt lat="44.40435" lon="6.38586">
        <ele>2439</ele>
        <time>2021-09-01T12:03:41.000Z</time>
      </trkpt>
      <trkpt lat="44.40435" lon="6.38585">
        <ele>2439</ele>
        <time>2021-09-01T12:03:42.000Z</time>
      </trkpt>
      <trkpt lat="44.40435" lon="6.38585">
        <ele>2439</ele>
        <time>2021-09-01T12:03:43.000Z</time>
      </trkpt>
      <trkpt lat="44.40435" lon="6.38585">
        <ele>2439</ele>
        <time>2021-09-01T12:03:44.000Z</time>
      </trkpt>
      <trkpt lat="44.40436" lon="6.38585">
        <ele>2439</ele>
        <time>2021-09-01T12:03:45.000Z</time>
      </trkpt>
      <trkpt lat="44.40436" lon="6.38585">
        <ele>2440</ele>
        <time>2021-09-01T12:03:46.000Z</time>
      </trkpt>
      <trkpt lat="44.40436" lon="6.38585">
        <ele>2440</ele>
        <time>2021-09-01T12:03:47.000Z</time>
      </trkpt>
      <trkpt lat="44.40436" lon="6.38584">
        <ele>2440</ele>
        <time>2021-09-01T12:03:48.000Z</time>
      </trkpt>
      <trkpt lat="44.40436" lon="6.38584">
        <ele>2439</ele>
        <time>2021-09-01T12:03:49.000Z</time>
      </trkpt>
      <trkpt lat="44.40436" lon="6.38584">
        <ele>2439</ele>
        <time>2021-09-01T12:03:50.000Z</time>
      </trkpt>
      <trkpt lat="44.40436" lon="6.38583">
        <ele>2439</ele>
        <time>2021-09-01T12:03:51.000Z</time>
      </trkpt>
      <trkpt lat="44.40436" lon="6.38583">
        <ele>2439</ele>
        <time>2021-09-01T12:03:52.000Z</time>
      </trkpt>
      <trkpt lat="44.40436" lon="6.38583">
        <ele>2439</ele>
        <time>2021-09-01T12:03:53.000Z</time>
      </trkpt>
      <trkpt lat="44.40437" lon="6.38583">
        <ele>2439</ele>
        <time>2021-09-01T12:03:54.000Z</time>
      </trkpt>
      <trkpt lat="44.40437" lon="6.38582">
        <ele>2439</ele>
        <time>2021-09-01T12:03:55.000Z</time>
      </trkpt>
      <trkpt lat="44.40437" lon="6.38582">
        <ele>2439</ele>
        <time>2021-09-01T12:03:56.000Z</time>
      </trkpt>
      <trkpt lat="44.40437" lon="6.38582">
        <ele>2439</ele>
        <time>2021-09-01T12:03:57.000Z</time>
      </trkpt>
      <trkpt lat="44.40436" lon="6.38581">
        <ele>2438</ele>
        <time>2021-09-01T12:03:58.000Z</time>
      </trkpt>
      <trkpt lat="44.40436" lon="6.38581">
        <ele>2438</ele>
        <time>2021-09-01T12:03:59.000Z</time>
      </trkpt>
      <trkpt lat="44.40436" lon="6.38581">
        <ele>2438</ele>
        <time>2021-09-01T12:04:00.000Z</time>
      </trkpt>
      <trkpt lat="44.40436" lon="6.38581">
        <ele>2438</ele>
        <time>2021-09-01T12:04:01.000Z</time>
      </trkpt>
      <trkpt lat="44.40436" lon="6.38581">
        <ele>2438</ele>
        <time>2021-09-01T12:04:02.000Z</time>
      </trkpt>
      <trkpt lat="44.40436" lon="6.3858">
        <ele>2438</ele>
        <time>2021-09-01T12:04:03.000Z</time>
      </trkpt>
      <trkpt lat="44.40436" lon="6.3858">
        <ele>2438</ele>
        <time>2021-09-01T12:04:04.000Z</time>
      </trkpt>
      <trkpt lat="44.40436" lon="6.3858">
        <ele>2438</ele>
        <time>2021-09-01T12:04:05.000Z</time>
      </trkpt>
      <trkpt lat="44.40436" lon="6.38579">
        <ele>2438</ele>
        <time>2021-09-01T12:04:06.000Z</time>
      </trkpt>
      <trkpt lat="44.40436" lon="6.38579">
        <ele>2437</ele>
        <time>2021-09-01T12:04:07.000Z</time>
      </trkpt>
      <trkpt lat="44.40436" lon="6.38579">
        <ele>2437</ele>
        <time>2021-09-01T12:04:08.000Z</time>
      </trkpt>
      <trkpt lat="44.40436" lon="6.38578">
        <ele>2437</ele>
        <time>2021-09-01T12:04:09.000Z</time>
      </trkpt>
      <trkpt lat="44.40436" lon="6.38578">
        <ele>2437</ele>
        <time>2021-09-01T12:04:10.000Z</time>
      </trkpt>
      <trkpt lat="44.40436" lon="6.38578">
        <ele>2437</ele>
        <time>2021-09-01T12:04:11.000Z</time>
      </trkpt>
      <trkpt lat="44.40437" lon="6.38577">
        <ele>2436</ele>
        <time>2021-09-01T12:04:12.000Z</time>
      </trkpt>
      <trkpt lat="44.40437" lon="6.38577">
        <ele>2436</ele>
        <time>2021-09-01T12:04:13.000Z</time>
      </trkpt>
      <trkpt lat="44.40437" lon="6.38576">
        <ele>2436</ele>
        <time>2021-09-01T12:04:14.000Z</time>
      </trkpt>
      <trkpt lat="44.40437" lon="6.38575">
        <ele>2436</ele>
        <time>2021-09-01T12:04:15.000Z</time>
      </trkpt>
      <trkpt lat="44.40437" lon="6.38574">
        <ele>2436</ele>
        <time>2021-09-01T12:04:16.000Z</time>
      </trkpt>
      <trkpt lat="44.40437" lon="6.38574">
        <ele>2436</ele>
        <time>2021-09-01T12:04:17.000Z</time>
      </trkpt>
      <trkpt lat="44.40437" lon="6.38573">
        <ele>2436</ele>
        <time>2021-09-01T12:04:18.000Z</time>
      </trkpt>
      <trkpt lat="44.40437" lon="6.38573">
        <ele>2437</ele>
        <time>2021-09-01T12:04:19.000Z</time>
      </trkpt>
      <trkpt lat="44.40437" lon="6.38572">
        <ele>2436</ele>
        <time>2021-09-01T12:04:20.000Z</time>
      </trkpt>
      <trkpt lat="44.40437" lon="6.38572">
        <ele>2436</ele>
        <time>2021-09-01T12:04:21.000Z</time>
      </trkpt>
      <trkpt lat="44.40437" lon="6.38571">
        <ele>2436</ele>
        <time>2021-09-01T12:04:22.000Z</time>
      </trkpt>
      <trkpt lat="44.40437" lon="6.38571">
        <ele>2435</ele>
        <time>2021-09-01T12:04:23.000Z</time>
      </trkpt>
      <trkpt lat="44.40437" lon="6.38571">
        <ele>2435</ele>
        <time>2021-09-01T12:04:24.000Z</time>
      </trkpt>
      <trkpt lat="44.40437" lon="6.3857">
        <ele>2435</ele>
        <time>2021-09-01T12:04:25.000Z</time>
      </trkpt>
      <trkpt lat="44.40437" lon="6.38569">
        <ele>2436</ele>
        <time>2021-09-01T12:04:26.000Z</time>
      </trkpt>
      <trkpt lat="44.40437" lon="6.38568">
        <ele>2435</ele>
        <time>2021-09-01T12:04:27.000Z</time>
      </trkpt>
      <trkpt lat="44.40438" lon="6.38568">
        <ele>2435</ele>
        <time>2021-09-01T12:04:28.000Z</time>
      </trkpt>
      <trkpt lat="44.40438" lon="6.38567">
        <ele>2435</ele>
        <time>2021-09-01T12:04:29.000Z</time>
      </trkpt>
      <trkpt lat="44.40438" lon="6.38566">
        <ele>2435</ele>
        <time>2021-09-01T12:04:30.000Z</time>
      </trkpt>
      <trkpt lat="44.40439" lon="6.38566">
        <ele>2435</ele>
        <time>2021-09-01T12:04:31.000Z</time>
      </trkpt>
      <trkpt lat="44.40439" lon="6.38566">
        <ele>2435</ele>
        <time>2021-09-01T12:04:32.000Z</time>
      </trkpt>
      <trkpt lat="44.40439" lon="6.38565">
        <ele>2435</ele>
        <time>2021-09-01T12:04:33.000Z</time>
      </trkpt>
      <trkpt lat="44.40439" lon="6.38565">
        <ele>2435</ele>
        <time>2021-09-01T12:04:34.000Z</time>
      </trkpt>
      <trkpt lat="44.40439" lon="6.38565">
        <ele>2435</ele>
        <time>2021-09-01T12:04:35.000Z</time>
      </trkpt>
      <trkpt lat="44.40439" lon="6.38565">
        <ele>2436</ele>
        <time>2021-09-01T12:04:36.000Z</time>
      </trkpt>
      <trkpt lat="44.4044" lon="6.38564">
        <ele>2436</ele>
        <time>2021-09-01T12:04:37.000Z</time>
      </trkpt>
      <trkpt lat="44.4044" lon="6.38564">
        <ele>2436</ele>
        <time>2021-09-01T12:04:38.000Z</time>
      </trkpt>
      <trkpt lat="44.4044" lon="6.38563">
        <ele>2435</ele>
        <time>2021-09-01T12:04:39.000Z</time>
      </trkpt>
      <trkpt lat="44.4044" lon="6.38563">
        <ele>2435</ele>
        <time>2021-09-01T12:04:40.000Z</time>
      </trkpt>
      <trkpt lat="44.4044" lon="6.38562">
        <ele>2435</ele>
        <time>2021-09-01T12:04:41.000Z</time>
      </trkpt>
      <trkpt lat="44.4044" lon="6.38562">
        <ele>2435</ele>
        <time>2021-09-01T12:04:42.000Z</time>
      </trkpt>
      <trkpt lat="44.4044" lon="6.38561">
        <ele>2435</ele>
        <time>2021-09-01T12:04:43.000Z</time>
      </trkpt>
      <trkpt lat="44.40439" lon="6.38561">
        <ele>2435</ele>
        <time>2021-09-01T12:04:44.000Z</time>
      </trkpt>
      <trkpt lat="44.40439" lon="6.38561">
        <ele>2435</ele>
        <time>2021-09-01T12:04:45.000Z</time>
      </trkpt>
      <trkpt lat="44.40439" lon="6.3856">
        <ele>2434</ele>
        <time>2021-09-01T12:04:46.000Z</time>
      </trkpt>
      <trkpt lat="44.40438" lon="6.3856">
        <ele>2434</ele>
        <time>2021-09-01T12:04:47.000Z</time>
      </trkpt>
      <trkpt lat="44.40438" lon="6.3856">
        <ele>2434</ele>
        <time>2021-09-01T12:04:48.000Z</time>
      </trkpt>
      <trkpt lat="44.40438" lon="6.38559">
        <ele>2434</ele>
        <time>2021-09-01T12:04:49.000Z</time>
      </trkpt>
      <trkpt lat="44.40439" lon="6.38559">
        <ele>2434</ele>
        <time>2021-09-01T12:04:50.000Z</time>
      </trkpt>
      <trkpt lat="44.40439" lon="6.3856">
        <ele>2434</ele>
        <time>2021-09-01T12:04:51.000Z</time>
      </trkpt>
      <trkpt lat="44.40438" lon="6.3856">
        <ele>2434</ele>
        <time>2021-09-01T12:04:52.000Z</time>
      </trkpt>
      <trkpt lat="44.40438" lon="6.3856">
        <ele>2434</ele>
        <time>2021-09-01T12:04:53.000Z</time>
      </trkpt>
      <trkpt lat="44.40438" lon="6.3856">
        <ele>2434</ele>
        <time>2021-09-01T12:04:54.000Z</time>
      </trkpt>
      <trkpt lat="44.40438" lon="6.3856">
        <ele>2434</ele>
        <time>2021-09-01T12:04:55.000Z</time>
      </trkpt>
      <trkpt lat="44.40438" lon="6.3856">
        <ele>2435</ele>
        <time>2021-09-01T12:04:56.000Z</time>
      </trkpt>
      <trkpt lat="44.40438" lon="6.3856">
        <ele>2434</ele>
        <time>2021-09-01T12:04:57.000Z</time>
      </trkpt>
      <trkpt lat="44.40438" lon="6.3856">
        <ele>2434</ele>
        <time>2021-09-01T12:04:58.000Z</time>
      </trkpt>
      <trkpt lat="44.40437" lon="6.3856">
        <ele>2434</ele>
        <time>2021-09-01T12:04:59.000Z</time>
      </trkpt>
      <trkpt lat="44.40437" lon="6.3856">
        <ele>2434</ele>
        <time>2021-09-01T12:05:00.000Z</time>
      </trkpt>
      <trkpt lat="44.40437" lon="6.3856">
        <ele>2434</ele>
        <time>2021-09-01T12:05:01.000Z</time>
      </trkpt>
      <trkpt lat="44.40437" lon="6.38561">
        <ele>2433</ele>
        <time>2021-09-01T12:05:02.000Z</time>
      </trkpt>
      <trkpt lat="44.40437" lon="6.3856">
        <ele>2433</ele>
        <time>2021-09-01T12:05:03.000Z</time>
      </trkpt>
      <trkpt lat="44.40437" lon="6.3856">
        <ele>2433</ele>
        <time>2021-09-01T12:05:04.000Z</time>
      </trkpt>
      <trkpt lat="44.40437" lon="6.3856">
        <ele>2433</ele>
        <time>2021-09-01T12:05:05.000Z</time>
      </trkpt>
      <trkpt lat="44.40437" lon="6.3856">
        <ele>2433</ele>
        <time>2021-09-01T12:05:06.000Z</time>
      </trkpt>
      <trkpt lat="44.40436" lon="6.3856">
        <ele>2433</ele>
        <time>2021-09-01T12:05:07.000Z</time>
      </trkpt>
      <trkpt lat="44.40436" lon="6.3856">
        <ele>2432</ele>
        <time>2021-09-01T12:05:08.000Z</time>
      </trkpt>
      <trkpt lat="44.40436" lon="6.3856">
        <ele>2432</ele>
        <time>2021-09-01T12:05:09.000Z</time>
      </trkpt>
      <trkpt lat="44.40436" lon="6.3856">
        <ele>2432</ele>
        <time>2021-09-01T12:05:10.000Z</time>
      </trkpt>
      <trkpt lat="44.40436" lon="6.3856">
        <ele>2432</ele>
        <time>2021-09-01T12:05:11.000Z</time>
      </trkpt>
      <trkpt lat="44.40436" lon="6.38561">
        <ele>2432</ele>
        <time>2021-09-01T12:05:12.000Z</time>
      </trkpt>
      <trkpt lat="44.40435" lon="6.38561">
        <ele>2432</ele>
        <time>2021-09-01T12:05:13.000Z</time>
      </trkpt>
      <trkpt lat="44.40435" lon="6.38561">
        <ele>2431</ele>
        <time>2021-09-01T12:05:14.000Z</time>
      </trkpt>
      <trkpt lat="44.40435" lon="6.3856">
        <ele>2431</ele>
        <time>2021-09-01T12:05:15.000Z</time>
      </trkpt>
      <trkpt lat="44.40435" lon="6.3856">
        <ele>2431</ele>
        <time>2021-09-01T12:05:16.000Z</time>
      </trkpt>
      <trkpt lat="44.40435" lon="6.38561">
        <ele>2431</ele>
        <time>2021-09-01T12:05:17.000Z</time>
      </trkpt>
      <trkpt lat="44.40435" lon="6.38561">
        <ele>2431</ele>
        <time>2021-09-01T12:05:18.000Z</time>
      </trkpt>
      <trkpt lat="44.40435" lon="6.38561">
        <ele>2431</ele>
        <time>2021-09-01T12:05:19.000Z</time>
      </trkpt>
      <trkpt lat="44.40435" lon="6.38561">
        <ele>2431</ele>
        <time>2021-09-01T12:05:20.000Z</time>
      </trkpt>
      <trkpt lat="44.40435" lon="6.38561">
        <ele>2431</ele>
        <time>2021-09-01T12:05:21.000Z</time>
      </trkpt>
      <trkpt lat="44.40435" lon="6.38561">
        <ele>2431</ele>
        <time>2021-09-01T12:05:22.000Z</time>
      </trkpt>
      <trkpt lat="44.40435" lon="6.38561">
        <ele>2431</ele>
        <time>2021-09-01T12:05:23.000Z</time>
      </trkpt>
      <trkpt lat="44.40434" lon="6.38561">
        <ele>2430</ele>
        <time>2021-09-01T12:05:24.000Z</time>
      </trkpt>
      <trkpt lat="44.40434" lon="6.38561">
        <ele>2430</ele>
        <time>2021-09-01T12:05:25.000Z</time>
      </trkpt>
      <trkpt lat="44.40434" lon="6.38561">
        <ele>2431</ele>
        <time>2021-09-01T12:05:26.000Z</time>
      </trkpt>
      <trkpt lat="44.40434" lon="6.38561">
        <ele>2431</ele>
        <time>2021-09-01T12:05:27.000Z</time>
      </trkpt>
      <trkpt lat="44.40433" lon="6.38561">
        <ele>2430</ele>
        <time>2021-09-01T12:05:28.000Z</time>
      </trkpt>
      <trkpt lat="44.40433" lon="6.38561">
        <ele>2430</ele>
        <time>2021-09-01T12:05:29.000Z</time>
      </trkpt>
      <trkpt lat="44.40433" lon="6.38561">
        <ele>2430</ele>
        <time>2021-09-01T12:05:30.000Z</time>
      </trkpt>
      <trkpt lat="44.40432" lon="6.38561">
        <ele>2430</ele>
        <time>2021-09-01T12:05:31.000Z</time>
      </trkpt>
      <trkpt lat="44.40432" lon="6.38561">
        <ele>2430</ele>
        <time>2021-09-01T12:05:32.000Z</time>
      </trkpt>
      <trkpt lat="44.40432" lon="6.38561">
        <ele>2430</ele>
        <time>2021-09-01T12:05:33.000Z</time>
      </trkpt>
      <trkpt lat="44.40431" lon="6.38561">
        <ele>2430</ele>
        <time>2021-09-01T12:05:34.000Z</time>
      </trkpt>
      <trkpt lat="44.40431" lon="6.38561">
        <ele>2430</ele>
        <time>2021-09-01T12:05:35.000Z</time>
      </trkpt>
      <trkpt lat="44.40431" lon="6.38561">
        <ele>2430</ele>
        <time>2021-09-01T12:05:36.000Z</time>
      </trkpt>
      <trkpt lat="44.40431" lon="6.38561">
        <ele>2430</ele>
        <time>2021-09-01T12:05:37.000Z</time>
      </trkpt>
      <trkpt lat="44.4043" lon="6.38561">
        <ele>2430</ele>
        <time>2021-09-01T12:05:38.000Z</time>
      </trkpt>
      <trkpt lat="44.4043" lon="6.38562">
        <ele>2430</ele>
        <time>2021-09-01T12:05:39.000Z</time>
      </trkpt>
      <trkpt lat="44.4043" lon="6.38562">
        <ele>2430</ele>
        <time>2021-09-01T12:05:40.000Z</time>
      </trkpt>
      <trkpt lat="44.4043" lon="6.38562">
        <ele>2430</ele>
        <time>2021-09-01T12:05:41.000Z</time>
      </trkpt>
      <trkpt lat="44.4043" lon="6.38562">
        <ele>2430</ele>
        <time>2021-09-01T12:05:42.000Z</time>
      </trkpt>
      <trkpt lat="44.40429" lon="6.38563">
        <ele>2429</ele>
        <time>2021-09-01T12:05:43.000Z</time>
      </trkpt>
      <trkpt lat="44.40429" lon="6.38564">
        <ele>2429</ele>
        <time>2021-09-01T12:05:44.000Z</time>
      </trkpt>
      <trkpt lat="44.40429" lon="6.38564">
        <ele>2429</ele>
        <time>2021-09-01T12:05:45.000Z</time>
      </trkpt>
      <trkpt lat="44.40429" lon="6.38564">
        <ele>2428</ele>
        <time>2021-09-01T12:05:46.000Z</time>
      </trkpt>
      <trkpt lat="44.40429" lon="6.38564">
        <ele>2428</ele>
        <time>2021-09-01T12:05:47.000Z</time>
      </trkpt>
      <trkpt lat="44.40429" lon="6.38564">
        <ele>2428</ele>
        <time>2021-09-01T12:05:48.000Z</time>
      </trkpt>
      <trkpt lat="44.40428" lon="6.38564">
        <ele>2429</ele>
        <time>2021-09-01T12:05:49.000Z</time>
      </trkpt>
      <trkpt lat="44.40428" lon="6.38564">
        <ele>2429</ele>
        <time>2021-09-01T12:05:50.000Z</time>
      </trkpt>
      <trkpt lat="44.40428" lon="6.38564">
        <ele>2429</ele>
        <time>2021-09-01T12:05:51.000Z</time>
      </trkpt>
      <trkpt lat="44.40428" lon="6.38564">
        <ele>2428</ele>
        <time>2021-09-01T12:05:52.000Z</time>
      </trkpt>
      <trkpt lat="44.40428" lon="6.38564">
        <ele>2429</ele>
        <time>2021-09-01T12:05:53.000Z</time>
      </trkpt>
      <trkpt lat="44.40427" lon="6.38564">
        <ele>2428</ele>
        <time>2021-09-01T12:05:54.000Z</time>
      </trkpt>
      <trkpt lat="44.40427" lon="6.38564">
        <ele>2428</ele>
        <time>2021-09-01T12:05:55.000Z</time>
      </trkpt>
      <trkpt lat="44.40427" lon="6.38564">
        <ele>2428</ele>
        <time>2021-09-01T12:05:56.000Z</time>
      </trkpt>
      <trkpt lat="44.40426" lon="6.38564">
        <ele>2428</ele>
        <time>2021-09-01T12:05:57.000Z</time>
      </trkpt>
      <trkpt lat="44.40426" lon="6.38563">
        <ele>2428</ele>
        <time>2021-09-01T12:05:58.000Z</time>
      </trkpt>
      <trkpt lat="44.40426" lon="6.38563">
        <ele>2428</ele>
        <time>2021-09-01T12:05:59.000Z</time>
      </trkpt>
      <trkpt lat="44.40426" lon="6.38563">
        <ele>2428</ele>
        <time>2021-09-01T12:06:00.000Z</time>
      </trkpt>
      <trkpt lat="44.40425" lon="6.38563">
        <ele>2428</ele>
        <time>2021-09-01T12:06:01.000Z</time>
      </trkpt>
      <trkpt lat="44.40425" lon="6.38564">
        <ele>2427</ele>
        <time>2021-09-01T12:06:02.000Z</time>
      </trkpt>
      <trkpt lat="44.40425" lon="6.38564">
        <ele>2427</ele>
        <time>2021-09-01T12:06:03.000Z</time>
      </trkpt>
      <trkpt lat="44.40424" lon="6.38564">
        <ele>2427</ele>
        <time>2021-09-01T12:06:04.000Z</time>
      </trkpt>
      <trkpt lat="44.40424" lon="6.38564">
        <ele>2427</ele>
        <time>2021-09-01T12:06:05.000Z</time>
      </trkpt>
      <trkpt lat="44.40423" lon="6.38565">
        <ele>2427</ele>
        <time>2021-09-01T12:06:06.000Z</time>
      </trkpt>
      <trkpt lat="44.40423" lon="6.38565">
        <ele>2427</ele>
        <time>2021-09-01T12:06:07.000Z</time>
      </trkpt>
      <trkpt lat="44.40422" lon="6.38565">
        <ele>2427</ele>
        <time>2021-09-01T12:06:08.000Z</time>
      </trkpt>
      <trkpt lat="44.40422" lon="6.38566">
        <ele>2426</ele>
        <time>2021-09-01T12:06:09.000Z</time>
      </trkpt>
      <trkpt lat="44.40422" lon="6.38566">
        <ele>2426</ele>
        <time>2021-09-01T12:06:10.000Z</time>
      </trkpt>
      <trkpt lat="44.40422" lon="6.38566">
        <ele>2426</ele>
        <time>2021-09-01T12:06:11.000Z</time>
      </trkpt>
      <trkpt lat="44.40422" lon="6.38566">
        <ele>2426</ele>
        <time>2021-09-01T12:06:12.000Z</time>
      </trkpt>
      <trkpt lat="44.40422" lon="6.38566">
        <ele>2426</ele>
        <time>2021-09-01T12:06:13.000Z</time>
      </trkpt>
      <trkpt lat="44.40422" lon="6.38566">
        <ele>2426</ele>
        <time>2021-09-01T12:06:14.000Z</time>
      </trkpt>
      <trkpt lat="44.40421" lon="6.38566">
        <ele>2426</ele>
        <time>2021-09-01T12:06:15.000Z</time>
      </trkpt>
      <trkpt lat="44.40421" lon="6.38566">
        <ele>2426</ele>
        <time>2021-09-01T12:06:16.000Z</time>
      </trkpt>
      <trkpt lat="44.40421" lon="6.38566">
        <ele>2426</ele>
        <time>2021-09-01T12:06:17.000Z</time>
      </trkpt>
      <trkpt lat="44.40421" lon="6.38566">
        <ele>2426</ele>
        <time>2021-09-01T12:06:18.000Z</time>
      </trkpt>
      <trkpt lat="44.40421" lon="6.38566">
        <ele>2426</ele>
        <time>2021-09-01T12:06:19.000Z</time>
      </trkpt>
      <trkpt lat="44.40421" lon="6.38566">
        <ele>2426</ele>
        <time>2021-09-01T12:06:20.000Z</time>
      </trkpt>
      <trkpt lat="44.40421" lon="6.38565">
        <ele>2426</ele>
        <time>2021-09-01T12:06:21.000Z</time>
      </trkpt>
      <trkpt lat="44.40421" lon="6.38565">
        <ele>2426</ele>
        <time>2021-09-01T12:06:22.000Z</time>
      </trkpt>
      <trkpt lat="44.4042" lon="6.38566">
        <ele>2426</ele>
        <time>2021-09-01T12:06:23.000Z</time>
      </trkpt>
      <trkpt lat="44.40419" lon="6.38565">
        <ele>2426</ele>
        <time>2021-09-01T12:06:24.000Z</time>
      </trkpt>
      <trkpt lat="44.40419" lon="6.38566">
        <ele>2426</ele>
        <time>2021-09-01T12:06:25.000Z</time>
      </trkpt>
      <trkpt lat="44.40419" lon="6.38566">
        <ele>2426</ele>
        <time>2021-09-01T12:06:26.000Z</time>
      </trkpt>
      <trkpt lat="44.40419" lon="6.38566">
        <ele>2425</ele>
        <time>2021-09-01T12:06:27.000Z</time>
      </trkpt>
      <trkpt lat="44.40419" lon="6.38566">
        <ele>2425</ele>
        <time>2021-09-01T12:06:28.000Z</time>
      </trkpt>
      <trkpt lat="44.40419" lon="6.38567">
        <ele>2424</ele>
        <time>2021-09-01T12:06:29.000Z</time>
      </trkpt>
      <trkpt lat="44.40419" lon="6.38567">
        <ele>2424</ele>
        <time>2021-09-01T12:06:30.000Z</time>
      </trkpt>
      <trkpt lat="44.40419" lon="6.38567">
        <ele>2424</ele>
        <time>2021-09-01T12:06:31.000Z</time>
      </trkpt>
      <trkpt lat="44.40419" lon="6.38567">
        <ele>2423</ele>
        <time>2021-09-01T12:06:32.000Z</time>
      </trkpt>
      <trkpt lat="44.40419" lon="6.38567">
        <ele>2424</ele>
        <time>2021-09-01T12:06:33.000Z</time>
      </trkpt>
      <trkpt lat="44.40419" lon="6.38568">
        <ele>2423</ele>
        <time>2021-09-01T12:06:34.000Z</time>
      </trkpt>
      <trkpt lat="44.40418" lon="6.38568">
        <ele>2423</ele>
        <time>2021-09-01T12:06:35.000Z</time>
      </trkpt>
      <trkpt lat="44.40418" lon="6.38568">
        <ele>2423</ele>
        <time>2021-09-01T12:06:36.000Z</time>
      </trkpt>
      <trkpt lat="44.40417" lon="6.38568">
        <ele>2423</ele>
        <time>2021-09-01T12:06:37.000Z</time>
      </trkpt>
      <trkpt lat="44.40417" lon="6.38569">
        <ele>2422</ele>
        <time>2021-09-01T12:06:38.000Z</time>
      </trkpt>
      <trkpt lat="44.40416" lon="6.38569">
        <ele>2422</ele>
        <time>2021-09-01T12:06:39.000Z</time>
      </trkpt>
      <trkpt lat="44.40416" lon="6.3857">
        <ele>2422</ele>
        <time>2021-09-01T12:06:40.000Z</time>
      </trkpt>
      <trkpt lat="44.40415" lon="6.3857">
        <ele>2422</ele>
        <time>2021-09-01T12:06:41.000Z</time>
      </trkpt>
      <trkpt lat="44.40415" lon="6.38571">
        <ele>2422</ele>
        <time>2021-09-01T12:06:42.000Z</time>
      </trkpt>
      <trkpt lat="44.40414" lon="6.38571">
        <ele>2422</ele>
        <time>2021-09-01T12:06:43.000Z</time>
      </trkpt>
      <trkpt lat="44.40414" lon="6.38571">
        <ele>2421</ele>
        <time>2021-09-01T12:06:44.000Z</time>
      </trkpt>
      <trkpt lat="44.40413" lon="6.38571">
        <ele>2421</ele>
        <time>2021-09-01T12:06:45.000Z</time>
      </trkpt>
      <trkpt lat="44.40413" lon="6.38572">
        <ele>2421</ele>
        <time>2021-09-01T12:06:46.000Z</time>
      </trkpt>
      <trkpt lat="44.40412" lon="6.38572">
        <ele>2421</ele>
        <time>2021-09-01T12:06:47.000Z</time>
      </trkpt>
      <trkpt lat="44.40412" lon="6.38572">
        <ele>2421</ele>
        <time>2021-09-01T12:06:48.000Z</time>
      </trkpt>
      <trkpt lat="44.40411" lon="6.38572">
        <ele>2421</ele>
        <time>2021-09-01T12:06:49.000Z</time>
      </trkpt>
      <trkpt lat="44.40411" lon="6.38573">
        <ele>2420</ele>
        <time>2021-09-01T12:06:50.000Z</time>
      </trkpt>
      <trkpt lat="44.40411" lon="6.38573">
        <ele>2420</ele>
        <time>2021-09-01T12:06:51.000Z</time>
      </trkpt>
      <trkpt lat="44.4041" lon="6.38573">
        <ele>2420</ele>
        <time>2021-09-01T12:06:52.000Z</time>
      </trkpt>
      <trkpt lat="44.4041" lon="6.38573">
        <ele>2420</ele>
        <time>2021-09-01T12:06:53.000Z</time>
      </trkpt>
      <trkpt lat="44.4041" lon="6.38573">
        <ele>2420</ele>
        <time>2021-09-01T12:06:54.000Z</time>
      </trkpt>
      <trkpt lat="44.40409" lon="6.38573">
        <ele>2420</ele>
        <time>2021-09-01T12:06:55.000Z</time>
      </trkpt>
      <trkpt lat="44.40409" lon="6.38574">
        <ele>2420</ele>
        <time>2021-09-01T12:06:56.000Z</time>
      </trkpt>
      <trkpt lat="44.40409" lon="6.38574">
        <ele>2420</ele>
        <time>2021-09-01T12:06:57.000Z</time>
      </trkpt>
      <trkpt lat="44.40409" lon="6.38574">
        <ele>2420</ele>
        <time>2021-09-01T12:06:58.000Z</time>
      </trkpt>
      <trkpt lat="44.40409" lon="6.38574">
        <ele>2419</ele>
        <time>2021-09-01T12:06:59.000Z</time>
      </trkpt>
      <trkpt lat="44.40409" lon="6.38574">
        <ele>2419</ele>
        <time>2021-09-01T12:07:00.000Z</time>
      </trkpt>
      <trkpt lat="44.40409" lon="6.38574">
        <ele>2419</ele>
        <time>2021-09-01T12:07:01.000Z</time>
      </trkpt>
      <trkpt lat="44.40409" lon="6.38574">
        <ele>2419</ele>
        <time>2021-09-01T12:07:02.000Z</time>
      </trkpt>
      <trkpt lat="44.40409" lon="6.38574">
        <ele>2419</ele>
        <time>2021-09-01T12:07:03.000Z</time>
      </trkpt>
      <trkpt lat="44.40408" lon="6.38574">
        <ele>2418</ele>
        <time>2021-09-01T12:07:04.000Z</time>
      </trkpt>
      <trkpt lat="44.40408" lon="6.38573">
        <ele>2418</ele>
        <time>2021-09-01T12:07:05.000Z</time>
      </trkpt>
      <trkpt lat="44.40408" lon="6.38573">
        <ele>2418</ele>
        <time>2021-09-01T12:07:06.000Z</time>
      </trkpt>
      <trkpt lat="44.40407" lon="6.38573">
        <ele>2418</ele>
        <time>2021-09-01T12:07:07.000Z</time>
      </trkpt>
      <trkpt lat="44.40407" lon="6.38573">
        <ele>2418</ele>
        <time>2021-09-01T12:07:08.000Z</time>
      </trkpt>
      <trkpt lat="44.40406" lon="6.38573">
        <ele>2418</ele>
        <time>2021-09-01T12:07:09.000Z</time>
      </trkpt>
      <trkpt lat="44.40406" lon="6.38573">
        <ele>2418</ele>
        <time>2021-09-01T12:07:10.000Z</time>
      </trkpt>
      <trkpt lat="44.40405" lon="6.38573">
        <ele>2418</ele>
        <time>2021-09-01T12:07:11.000Z</time>
      </trkpt>
      <trkpt lat="44.40404" lon="6.38573">
        <ele>2418</ele>
        <time>2021-09-01T12:07:12.000Z</time>
      </trkpt>
      <trkpt lat="44.40404" lon="6.38573">
        <ele>2417</ele>
        <time>2021-09-01T12:07:13.000Z</time>
      </trkpt>
      <trkpt lat="44.40403" lon="6.38573">
        <ele>2417</ele>
        <time>2021-09-01T12:07:14.000Z</time>
      </trkpt>
      <trkpt lat="44.40403" lon="6.38574">
        <ele>2417</ele>
        <time>2021-09-01T12:07:15.000Z</time>
      </trkpt>
      <trkpt lat="44.40402" lon="6.38574">
        <ele>2417</ele>
        <time>2021-09-01T12:07:16.000Z</time>
      </trkpt>
      <trkpt lat="44.40401" lon="6.38574">
        <ele>2417</ele>
        <time>2021-09-01T12:07:17.000Z</time>
      </trkpt>
      <trkpt lat="44.40401" lon="6.38574">
        <ele>2417</ele>
        <time>2021-09-01T12:07:18.000Z</time>
      </trkpt>
      <trkpt lat="44.40401" lon="6.38574">
        <ele>2417</ele>
        <time>2021-09-01T12:07:19.000Z</time>
      </trkpt>
      <trkpt lat="44.404" lon="6.38574">
        <ele>2416</ele>
        <time>2021-09-01T12:07:20.000Z</time>
      </trkpt>
      <trkpt lat="44.404" lon="6.38575">
        <ele>2416</ele>
        <time>2021-09-01T12:07:21.000Z</time>
      </trkpt>
      <trkpt lat="44.404" lon="6.38575">
        <ele>2416</ele>
        <time>2021-09-01T12:07:22.000Z</time>
      </trkpt>
      <trkpt lat="44.40398" lon="6.38577">
        <ele>2416</ele>
        <time>2021-09-01T12:07:23.000Z</time>
      </trkpt>
      <trkpt lat="44.40395" lon="6.38578">
        <ele>2416</ele>
        <time>2021-09-01T12:07:24.000Z</time>
      </trkpt>
      <trkpt lat="44.40392" lon="6.38579">
        <ele>2416</ele>
        <time>2021-09-01T12:07:25.000Z</time>
      </trkpt>
      <trkpt lat="44.40391" lon="6.38579">
        <ele>2416</ele>
        <time>2021-09-01T12:07:26.000Z</time>
      </trkpt>
      <trkpt lat="44.4039" lon="6.38579">
        <ele>2416</ele>
        <time>2021-09-01T12:07:27.000Z</time>
      </trkpt>
      <trkpt lat="44.4039" lon="6.38579">
        <ele>2416</ele>
        <time>2021-09-01T12:07:28.000Z</time>
      </trkpt>
      <trkpt lat="44.4039" lon="6.38579">
        <ele>2415</ele>
        <time>2021-09-01T12:07:29.000Z</time>
      </trkpt>
      <trkpt lat="44.4039" lon="6.38579">
        <ele>2416</ele>
        <time>2021-09-01T12:07:30.000Z</time>
      </trkpt>
      <trkpt lat="44.4039" lon="6.38579">
        <ele>2416</ele>
        <time>2021-09-01T12:07:31.000Z</time>
      </trkpt>
      <trkpt lat="44.4039" lon="6.38579">
        <ele>2416</ele>
        <time>2021-09-01T12:07:32.000Z</time>
      </trkpt>
      <trkpt lat="44.4039" lon="6.38579">
        <ele>2416</ele>
        <time>2021-09-01T12:07:33.000Z</time>
      </trkpt>
      <trkpt lat="44.4039" lon="6.38579">
        <ele>2416</ele>
        <time>2021-09-01T12:07:34.000Z</time>
      </trkpt>
      <trkpt lat="44.4039" lon="6.38579">
        <ele>2416</ele>
        <time>2021-09-01T12:07:35.000Z</time>
      </trkpt>
      <trkpt lat="44.4039" lon="6.38579">
        <ele>2415</ele>
        <time>2021-09-01T12:07:36.000Z</time>
      </trkpt>
      <trkpt lat="44.4039" lon="6.38579">
        <ele>2415</ele>
        <time>2021-09-01T12:07:37.000Z</time>
      </trkpt>
      <trkpt lat="44.4039" lon="6.38579">
        <ele>2415</ele>
        <time>2021-09-01T12:07:38.000Z</time>
      </trkpt>
      <trkpt lat="44.4039" lon="6.38579">
        <ele>2415</ele>
        <time>2021-09-01T12:07:39.000Z</time>
      </trkpt>
      <trkpt lat="44.40389" lon="6.38578">
        <ele>2415</ele>
        <time>2021-09-01T12:07:40.000Z</time>
      </trkpt>
      <trkpt lat="44.40388" lon="6.38578">
        <ele>2415</ele>
        <time>2021-09-01T12:07:41.000Z</time>
      </trkpt>
      <trkpt lat="44.40388" lon="6.38577">
        <ele>2415</ele>
        <time>2021-09-01T12:07:42.000Z</time>
      </trkpt>
      <trkpt lat="44.40387" lon="6.38577">
        <ele>2416</ele>
        <time>2021-09-01T12:07:43.000Z</time>
      </trkpt>
      <trkpt lat="44.40387" lon="6.38577">
        <ele>2415</ele>
        <time>2021-09-01T12:07:44.000Z</time>
      </trkpt>
      <trkpt lat="44.40387" lon="6.38577">
        <ele>2415</ele>
        <time>2021-09-01T12:07:45.000Z</time>
      </trkpt>
      <trkpt lat="44.40386" lon="6.38577">
        <ele>2415</ele>
        <time>2021-09-01T12:07:46.000Z</time>
      </trkpt>
      <trkpt lat="44.40386" lon="6.38577">
        <ele>2415</ele>
        <time>2021-09-01T12:07:47.000Z</time>
      </trkpt>
      <trkpt lat="44.40385" lon="6.38577">
        <ele>2415</ele>
        <time>2021-09-01T12:07:48.000Z</time>
      </trkpt>
      <trkpt lat="44.40385" lon="6.38576">
        <ele>2416</ele>
        <time>2021-09-01T12:07:49.000Z</time>
      </trkpt>
      <trkpt lat="44.40385" lon="6.38576">
        <ele>2416</ele>
        <time>2021-09-01T12:07:50.000Z</time>
      </trkpt>
      <trkpt lat="44.40385" lon="6.38576">
        <ele>2416</ele>
        <time>2021-09-01T12:07:51.000Z</time>
      </trkpt>
      <trkpt lat="44.40385" lon="6.38576">
        <ele>2416</ele>
        <time>2021-09-01T12:07:52.000Z</time>
      </trkpt>
      <trkpt lat="44.40384" lon="6.38575">
        <ele>2416</ele>
        <time>2021-09-01T12:07:53.000Z</time>
      </trkpt>
      <trkpt lat="44.40384" lon="6.38576">
        <ele>2416</ele>
        <time>2021-09-01T12:07:54.000Z</time>
      </trkpt>
      <trkpt lat="44.40384" lon="6.38576">
        <ele>2416</ele>
        <time>2021-09-01T12:07:55.000Z</time>
      </trkpt>
      <trkpt lat="44.40384" lon="6.38576">
        <ele>2416</ele>
        <time>2021-09-01T12:07:56.000Z</time>
      </trkpt>
      <trkpt lat="44.40384" lon="6.38575">
        <ele>2416</ele>
        <time>2021-09-01T12:07:57.000Z</time>
      </trkpt>
      <trkpt lat="44.40384" lon="6.38575">
        <ele>2416</ele>
        <time>2021-09-01T12:07:58.000Z</time>
      </trkpt>
      <trkpt lat="44.40384" lon="6.38574">
        <ele>2416</ele>
        <time>2021-09-01T12:07:59.000Z</time>
      </trkpt>
      <trkpt lat="44.40384" lon="6.38574">
        <ele>2416</ele>
        <time>2021-09-01T12:08:00.000Z</time>
      </trkpt>
      <trkpt lat="44.40384" lon="6.38574">
        <ele>2416</ele>
        <time>2021-09-01T12:08:01.000Z</time>
      </trkpt>
      <trkpt lat="44.40384" lon="6.38574">
        <ele>2415</ele>
        <time>2021-09-01T12:08:02.000Z</time>
      </trkpt>
      <trkpt lat="44.40384" lon="6.38574">
        <ele>2415</ele>
        <time>2021-09-01T12:08:03.000Z</time>
      </trkpt>
      <trkpt lat="44.40384" lon="6.38574">
        <ele>2415</ele>
        <time>2021-09-01T12:08:04.000Z</time>
      </trkpt>
      <trkpt lat="44.40384" lon="6.38574">
        <ele>2415</ele>
        <time>2021-09-01T12:08:05.000Z</time>
      </trkpt>
      <trkpt lat="44.40384" lon="6.38574">
        <ele>2415</ele>
        <time>2021-09-01T12:08:06.000Z</time>
      </trkpt>
      <trkpt lat="44.40384" lon="6.38574">
        <ele>2415</ele>
        <time>2021-09-01T12:08:07.000Z</time>
      </trkpt>
      <trkpt lat="44.40384" lon="6.38574">
        <ele>2415</ele>
        <time>2021-09-01T12:08:08.000Z</time>
      </trkpt>
      <trkpt lat="44.40384" lon="6.38574">
        <ele>2415</ele>
        <time>2021-09-01T12:08:09.000Z</time>
      </trkpt>
      <trkpt lat="44.40384" lon="6.38574">
        <ele>2415</ele>
        <time>2021-09-01T12:08:10.000Z</time>
      </trkpt>
      <trkpt lat="44.40383" lon="6.38573">
        <ele>2415</ele>
        <time>2021-09-01T12:08:11.000Z</time>
      </trkpt>
      <trkpt lat="44.40383" lon="6.38573">
        <ele>2416</ele>
        <time>2021-09-01T12:08:12.000Z</time>
      </trkpt>
      <trkpt lat="44.40383" lon="6.38573">
        <ele>2416</ele>
        <time>2021-09-01T12:08:13.000Z</time>
      </trkpt>
      <trkpt lat="44.40383" lon="6.38573">
        <ele>2416</ele>
        <time>2021-09-01T12:08:14.000Z</time>
      </trkpt>
      <trkpt lat="44.40382" lon="6.38573">
        <ele>2416</ele>
        <time>2021-09-01T12:08:15.000Z</time>
      </trkpt>
      <trkpt lat="44.40382" lon="6.38573">
        <ele>2416</ele>
        <time>2021-09-01T12:08:16.000Z</time>
      </trkpt>
      <trkpt lat="44.40382" lon="6.38573">
        <ele>2416</ele>
        <time>2021-09-01T12:08:17.000Z</time>
      </trkpt>
      <trkpt lat="44.40382" lon="6.38573">
        <ele>2416</ele>
        <time>2021-09-01T12:08:18.000Z</time>
      </trkpt>
      <trkpt lat="44.40382" lon="6.38573">
        <ele>2416</ele>
        <time>2021-09-01T12:08:19.000Z</time>
      </trkpt>
      <trkpt lat="44.40381" lon="6.38573">
        <ele>2416</ele>
        <time>2021-09-01T12:08:20.000Z</time>
      </trkpt>
      <trkpt lat="44.40381" lon="6.38572">
        <ele>2415</ele>
        <time>2021-09-01T12:08:21.000Z</time>
      </trkpt>
      <trkpt lat="44.40381" lon="6.38572">
        <ele>2415</ele>
        <time>2021-09-01T12:08:22.000Z</time>
      </trkpt>
      <trkpt lat="44.40381" lon="6.38572">
        <ele>2415</ele>
        <time>2021-09-01T12:08:23.000Z</time>
      </trkpt>
      <trkpt lat="44.40381" lon="6.38572">
        <ele>2415</ele>
        <time>2021-09-01T12:08:24.000Z</time>
      </trkpt>
      <trkpt lat="44.40381" lon="6.38572">
        <ele>2415</ele>
        <time>2021-09-01T12:08:25.000Z</time>
      </trkpt>
      <trkpt lat="44.40381" lon="6.38572">
        <ele>2415</ele>
        <time>2021-09-01T12:08:26.000Z</time>
      </trkpt>
      <trkpt lat="44.4038" lon="6.38573">
        <ele>2415</ele>
        <time>2021-09-01T12:08:27.000Z</time>
      </trkpt>
      <trkpt lat="44.4038" lon="6.38573">
        <ele>2415</ele>
        <time>2021-09-01T12:08:28.000Z</time>
      </trkpt>
      <trkpt lat="44.4038" lon="6.38573">
        <ele>2415</ele>
        <time>2021-09-01T12:08:29.000Z</time>
      </trkpt>
      <trkpt lat="44.4038" lon="6.38573">
        <ele>2415</ele>
        <time>2021-09-01T12:08:30.000Z</time>
      </trkpt>
      <trkpt lat="44.4038" lon="6.38573">
        <ele>2414</ele>
        <time>2021-09-01T12:08:31.000Z</time>
      </trkpt>
      <trkpt lat="44.40379" lon="6.38574">
        <ele>2414</ele>
        <time>2021-09-01T12:08:32.000Z</time>
      </trkpt>
      <trkpt lat="44.40379" lon="6.38574">
        <ele>2414</ele>
        <time>2021-09-01T12:08:33.000Z</time>
      </trkpt>
      <trkpt lat="44.40379" lon="6.38574">
        <ele>2414</ele>
        <time>2021-09-01T12:08:34.000Z</time>
      </trkpt>
      <trkpt lat="44.40379" lon="6.38574">
        <ele>2414</ele>
        <time>2021-09-01T12:08:35.000Z</time>
      </trkpt>
      <trkpt lat="44.40379" lon="6.38574">
        <ele>2414</ele>
        <time>2021-09-01T12:08:36.000Z</time>
      </trkpt>
      <trkpt lat="44.40379" lon="6.38574">
        <ele>2414</ele>
        <time>2021-09-01T12:08:37.000Z</time>
      </trkpt>
      <trkpt lat="44.40379" lon="6.38574">
        <ele>2414</ele>
        <time>2021-09-01T12:08:38.000Z</time>
      </trkpt>
      <trkpt lat="44.40379" lon="6.38574">
        <ele>2414</ele>
        <time>2021-09-01T12:08:39.000Z</time>
      </trkpt>
      <trkpt lat="44.40379" lon="6.38574">
        <ele>2413</ele>
        <time>2021-09-01T12:08:40.000Z</time>
      </trkpt>
      <trkpt lat="44.40379" lon="6.38574">
        <ele>2413</ele>
        <time>2021-09-01T12:08:41.000Z</time>
      </trkpt>
      <trkpt lat="44.40379" lon="6.38574">
        <ele>2413</ele>
        <time>2021-09-01T12:08:42.000Z</time>
      </trkpt>
      <trkpt lat="44.40379" lon="6.38574">
        <ele>2412</ele>
        <time>2021-09-01T12:08:43.000Z</time>
      </trkpt>
      <trkpt lat="44.40379" lon="6.38575">
        <ele>2412</ele>
        <time>2021-09-01T12:08:44.000Z</time>
      </trkpt>
      <trkpt lat="44.40379" lon="6.38575">
        <ele>2412</ele>
        <time>2021-09-01T12:08:45.000Z</time>
      </trkpt>
      <trkpt lat="44.40379" lon="6.38575">
        <ele>2412</ele>
        <time>2021-09-01T12:08:46.000Z</time>
      </trkpt>
      <trkpt lat="44.40379" lon="6.38575">
        <ele>2412</ele>
        <time>2021-09-01T12:08:47.000Z</time>
      </trkpt>
      <trkpt lat="44.40379" lon="6.38575">
        <ele>2412</ele>
        <time>2021-09-01T12:08:48.000Z</time>
      </trkpt>
      <trkpt lat="44.40379" lon="6.38575">
        <ele>2412</ele>
        <time>2021-09-01T12:08:49.000Z</time>
      </trkpt>
      <trkpt lat="44.40379" lon="6.38575">
        <ele>2412</ele>
        <time>2021-09-01T12:08:50.000Z</time>
      </trkpt>
      <trkpt lat="44.40379" lon="6.38575">
        <ele>2411</ele>
        <time>2021-09-01T12:08:51.000Z</time>
      </trkpt>
      <trkpt lat="44.40379" lon="6.38575">
        <ele>2411</ele>
        <time>2021-09-01T12:08:52.000Z</time>
      </trkpt>
      <trkpt lat="44.40379" lon="6.38575">
        <ele>2411</ele>
        <time>2021-09-01T12:08:53.000Z</time>
      </trkpt>
      <trkpt lat="44.40379" lon="6.38575">
        <ele>2411</ele>
        <time>2021-09-01T12:08:54.000Z</time>
      </trkpt>
      <trkpt lat="44.40379" lon="6.38575">
        <ele>2411</ele>
        <time>2021-09-01T12:08:55.000Z</time>
      </trkpt>
      <trkpt lat="44.40379" lon="6.38575">
        <ele>2411</ele>
        <time>2021-09-01T12:08:56.000Z</time>
      </trkpt>
      <trkpt lat="44.40379" lon="6.38575">
        <ele>2410</ele>
        <time>2021-09-01T12:08:57.000Z</time>
      </trkpt>
      <trkpt lat="44.40379" lon="6.38575">
        <ele>2410</ele>
        <time>2021-09-01T12:08:58.000Z</time>
      </trkpt>
      <trkpt lat="44.40379" lon="6.38575">
        <ele>2410</ele>
        <time>2021-09-01T12:08:59.000Z</time>
      </trkpt>
      <trkpt lat="44.40379" lon="6.38575">
        <ele>2410</ele>
        <time>2021-09-01T12:09:00.000Z</time>
      </trkpt>
      <trkpt lat="44.40379" lon="6.38575">
        <ele>2410</ele>
        <time>2021-09-01T12:09:01.000Z</time>
      </trkpt>
      <trkpt lat="44.40379" lon="6.38575">
        <ele>2410</ele>
        <time>2021-09-01T12:09:02.000Z</time>
      </trkpt>
      <trkpt lat="44.40379" lon="6.38576">
        <ele>2411</ele>
        <time>2021-09-01T12:09:03.000Z</time>
      </trkpt>
      <trkpt lat="44.40379" lon="6.38576">
        <ele>2410</ele>
        <time>2021-09-01T12:09:04.000Z</time>
      </trkpt>
      <trkpt lat="44.40378" lon="6.38576">
        <ele>2410</ele>
        <time>2021-09-01T12:09:05.000Z</time>
      </trkpt>
      <trkpt lat="44.40378" lon="6.38576">
        <ele>2410</ele>
        <time>2021-09-01T12:09:06.000Z</time>
      </trkpt>
      <trkpt lat="44.40378" lon="6.38575">
        <ele>2410</ele>
        <time>2021-09-01T12:09:07.000Z</time>
      </trkpt>
      <trkpt lat="44.40378" lon="6.38575">
        <ele>2410</ele>
        <time>2021-09-01T12:09:08.000Z</time>
      </trkpt>
      <trkpt lat="44.40378" lon="6.38575">
        <ele>2410</ele>
        <time>2021-09-01T12:09:09.000Z</time>
      </trkpt>
      <trkpt lat="44.40378" lon="6.38575">
        <ele>2410</ele>
        <time>2021-09-01T12:09:10.000Z</time>
      </trkpt>
      <trkpt lat="44.40378" lon="6.38575">
        <ele>2410</ele>
        <time>2021-09-01T12:09:11.000Z</time>
      </trkpt>
      <trkpt lat="44.40378" lon="6.38575">
        <ele>2410</ele>
        <time>2021-09-01T12:09:12.000Z</time>
      </trkpt>
      <trkpt lat="44.40378" lon="6.38575">
        <ele>2410</ele>
        <time>2021-09-01T12:09:13.000Z</time>
      </trkpt>
      <trkpt lat="44.40377" lon="6.38575">
        <ele>2410</ele>
        <time>2021-09-01T12:09:14.000Z</time>
      </trkpt>
      <trkpt lat="44.40377" lon="6.38575">
        <ele>2410</ele>
        <time>2021-09-01T12:09:15.000Z</time>
      </trkpt>
      <trkpt lat="44.40377" lon="6.38575">
        <ele>2410</ele>
        <time>2021-09-01T12:09:16.000Z</time>
      </trkpt>
      <trkpt lat="44.40377" lon="6.38575">
        <ele>2410</ele>
        <time>2021-09-01T12:09:17.000Z</time>
      </trkpt>
      <trkpt lat="44.40377" lon="6.38575">
        <ele>2410</ele>
        <time>2021-09-01T12:09:18.000Z</time>
      </trkpt>
      <trkpt lat="44.40377" lon="6.38575">
        <ele>2410</ele>
        <time>2021-09-01T12:09:19.000Z</time>
      </trkpt>
      <trkpt lat="44.40377" lon="6.38575">
        <ele>2410</ele>
        <time>2021-09-01T12:09:20.000Z</time>
      </trkpt>
      <trkpt lat="44.40377" lon="6.38575">
        <ele>2410</ele>
        <time>2021-09-01T12:09:21.000Z</time>
      </trkpt>
      <trkpt lat="44.40377" lon="6.38575">
        <ele>2410</ele>
        <time>2021-09-01T12:09:22.000Z</time>
      </trkpt>
      <trkpt lat="44.40377" lon="6.38575">
        <ele>2410</ele>
        <time>2021-09-01T12:09:23.000Z</time>
      </trkpt>
      <trkpt lat="44.40377" lon="6.38575">
        <ele>2410</ele>
        <time>2021-09-01T12:09:24.000Z</time>
      </trkpt>
      <trkpt lat="44.40377" lon="6.38575">
        <ele>2410</ele>
        <time>2021-09-01T12:09:25.000Z</time>
      </trkpt>
      <trkpt lat="44.40377" lon="6.38575">
        <ele>2411</ele>
        <time>2021-09-01T12:09:26.000Z</time>
      </trkpt>
      <trkpt lat="44.40377" lon="6.38574">
        <ele>2411</ele>
        <time>2021-09-01T12:09:27.000Z</time>
      </trkpt>
      <trkpt lat="44.40376" lon="6.38574">
        <ele>2411</ele>
        <time>2021-09-01T12:09:28.000Z</time>
      </trkpt>
      <trkpt lat="44.40376" lon="6.38574">
        <ele>2411</ele>
        <time>2021-09-01T12:09:29.000Z</time>
      </trkpt>
      <trkpt lat="44.40376" lon="6.38574">
        <ele>2411</ele>
        <time>2021-09-01T12:09:30.000Z</time>
      </trkpt>
      <trkpt lat="44.40376" lon="6.38573">
        <ele>2410</ele>
        <time>2021-09-01T12:09:31.000Z</time>
      </trkpt>
      <trkpt lat="44.40375" lon="6.38572">
        <ele>2410</ele>
        <time>2021-09-01T12:09:32.000Z</time>
      </trkpt>
      <trkpt lat="44.40375" lon="6.38571">
        <ele>2410</ele>
        <time>2021-09-01T12:09:33.000Z</time>
      </trkpt>
      <trkpt lat="44.40374" lon="6.38571">
        <ele>2410</ele>
        <time>2021-09-01T12:09:34.000Z</time>
      </trkpt>
      <trkpt lat="44.40374" lon="6.3857">
        <ele>2410</ele>
        <time>2021-09-01T12:09:35.000Z</time>
      </trkpt>
      <trkpt lat="44.40374" lon="6.38569">
        <ele>2410</ele>
        <time>2021-09-01T12:09:36.000Z</time>
      </trkpt>
      <trkpt lat="44.40374" lon="6.38569">
        <ele>2411</ele>
        <time>2021-09-01T12:09:37.000Z</time>
      </trkpt>
      <trkpt lat="44.40373" lon="6.38568">
        <ele>2411</ele>
        <time>2021-09-01T12:09:38.000Z</time>
      </trkpt>
      <trkpt lat="44.40373" lon="6.38568">
        <ele>2412</ele>
        <time>2021-09-01T12:09:39.000Z</time>
      </trkpt>
      <trkpt lat="44.40373" lon="6.38568">
        <ele>2412</ele>
        <time>2021-09-01T12:09:40.000Z</time>
      </trkpt>
      <trkpt lat="44.40372" lon="6.38567">
        <ele>2412</ele>
        <time>2021-09-01T12:09:41.000Z</time>
      </trkpt>
      <trkpt lat="44.40372" lon="6.38567">
        <ele>2412</ele>
        <time>2021-09-01T12:09:42.000Z</time>
      </trkpt>
      <trkpt lat="44.40372" lon="6.38567">
        <ele>2412</ele>
        <time>2021-09-01T12:09:43.000Z</time>
      </trkpt>
      <trkpt lat="44.40372" lon="6.38568">
        <ele>2411</ele>
        <time>2021-09-01T12:09:44.000Z</time>
      </trkpt>
      <trkpt lat="44.40372" lon="6.38568">
        <ele>2412</ele>
        <time>2021-09-01T12:09:45.000Z</time>
      </trkpt>
      <trkpt lat="44.40372" lon="6.38568">
        <ele>2412</ele>
        <time>2021-09-01T12:09:46.000Z</time>
      </trkpt>
      <trkpt lat="44.40372" lon="6.38568">
        <ele>2412</ele>
        <time>2021-09-01T12:09:47.000Z</time>
      </trkpt>
      <trkpt lat="44.40372" lon="6.38569">
        <ele>2412</ele>
        <time>2021-09-01T12:09:48.000Z</time>
      </trkpt>
      <trkpt lat="44.40372" lon="6.38569">
        <ele>2412</ele>
        <time>2021-09-01T12:09:49.000Z</time>
      </trkpt>
      <trkpt lat="44.40372" lon="6.38569">
        <ele>2412</ele>
        <time>2021-09-01T12:09:50.000Z</time>
      </trkpt>
      <trkpt lat="44.40371" lon="6.38568">
        <ele>2412</ele>
        <time>2021-09-01T12:09:51.000Z</time>
      </trkpt>
      <trkpt lat="44.40371" lon="6.38568">
        <ele>2411</ele>
        <time>2021-09-01T12:09:52.000Z</time>
      </trkpt>
      <trkpt lat="44.4037" lon="6.38568">
        <ele>2411</ele>
        <time>2021-09-01T12:09:53.000Z</time>
      </trkpt>
      <trkpt lat="44.4037" lon="6.38568">
        <ele>2411</ele>
        <time>2021-09-01T12:09:54.000Z</time>
      </trkpt>
      <trkpt lat="44.40369" lon="6.38568">
        <ele>2411</ele>
        <time>2021-09-01T12:09:55.000Z</time>
      </trkpt>
      <trkpt lat="44.40369" lon="6.38568">
        <ele>2411</ele>
        <time>2021-09-01T12:09:56.000Z</time>
      </trkpt>
      <trkpt lat="44.40369" lon="6.38568">
        <ele>2411</ele>
        <time>2021-09-01T12:09:57.000Z</time>
      </trkpt>
      <trkpt lat="44.40368" lon="6.38567">
        <ele>2411</ele>
        <time>2021-09-01T12:09:58.000Z</time>
      </trkpt>
      <trkpt lat="44.40368" lon="6.38567">
        <ele>2411</ele>
        <time>2021-09-01T12:09:59.000Z</time>
      </trkpt>
      <trkpt lat="44.40368" lon="6.38566">
        <ele>2411</ele>
        <time>2021-09-01T12:10:00.000Z</time>
      </trkpt>
      <trkpt lat="44.40367" lon="6.38566">
        <ele>2410</ele>
        <time>2021-09-01T12:10:01.000Z</time>
      </trkpt>
      <trkpt lat="44.40366" lon="6.38566">
        <ele>2411</ele>
        <time>2021-09-01T12:10:02.000Z</time>
      </trkpt>
      <trkpt lat="44.40366" lon="6.38566">
        <ele>2411</ele>
        <time>2021-09-01T12:10:03.000Z</time>
      </trkpt>
      <trkpt lat="44.40365" lon="6.38566">
        <ele>2411</ele>
        <time>2021-09-01T12:10:04.000Z</time>
      </trkpt>
      <trkpt lat="44.40365" lon="6.38566">
        <ele>2411</ele>
        <time>2021-09-01T12:10:05.000Z</time>
      </trkpt>
      <trkpt lat="44.40365" lon="6.38566">
        <ele>2411</ele>
        <time>2021-09-01T12:10:06.000Z</time>
      </trkpt>
      <trkpt lat="44.40365" lon="6.38566">
        <ele>2411</ele>
        <time>2021-09-01T12:10:07.000Z</time>
      </trkpt>
      <trkpt lat="44.40365" lon="6.38566">
        <ele>2411</ele>
        <time>2021-09-01T12:10:08.000Z</time>
      </trkpt>
      <trkpt lat="44.40365" lon="6.38567">
        <ele>2410</ele>
        <time>2021-09-01T12:10:09.000Z</time>
      </trkpt>
      <trkpt lat="44.40365" lon="6.38567">
        <ele>2410</ele>
        <time>2021-09-01T12:10:10.000Z</time>
      </trkpt>
      <trkpt lat="44.40365" lon="6.38567">
        <ele>2410</ele>
        <time>2021-09-01T12:10:11.000Z</time>
      </trkpt>
      <trkpt lat="44.40364" lon="6.38567">
        <ele>2410</ele>
        <time>2021-09-01T12:10:12.000Z</time>
      </trkpt>
      <trkpt lat="44.40364" lon="6.38567">
        <ele>2410</ele>
        <time>2021-09-01T12:10:13.000Z</time>
      </trkpt>
      <trkpt lat="44.40363" lon="6.38567">
        <ele>2410</ele>
        <time>2021-09-01T12:10:14.000Z</time>
      </trkpt>
      <trkpt lat="44.40363" lon="6.38568">
        <ele>2410</ele>
        <time>2021-09-01T12:10:15.000Z</time>
      </trkpt>
      <trkpt lat="44.40362" lon="6.38568">
        <ele>2410</ele>
        <time>2021-09-01T12:10:16.000Z</time>
      </trkpt>
      <trkpt lat="44.40362" lon="6.38568">
        <ele>2410</ele>
        <time>2021-09-01T12:10:17.000Z</time>
      </trkpt>
      <trkpt lat="44.40361" lon="6.38568">
        <ele>2410</ele>
        <time>2021-09-01T12:10:18.000Z</time>
      </trkpt>
      <trkpt lat="44.40361" lon="6.38568">
        <ele>2410</ele>
        <time>2021-09-01T12:10:19.000Z</time>
      </trkpt>
      <trkpt lat="44.40361" lon="6.38568">
        <ele>2410</ele>
        <time>2021-09-01T12:10:20.000Z</time>
      </trkpt>
      <trkpt lat="44.4036" lon="6.38568">
        <ele>2409</ele>
        <time>2021-09-01T12:10:21.000Z</time>
      </trkpt>
      <trkpt lat="44.4036" lon="6.38568">
        <ele>2409</ele>
        <time>2021-09-01T12:10:22.000Z</time>
      </trkpt>
      <trkpt lat="44.40359" lon="6.38568">
        <ele>2409</ele>
        <time>2021-09-01T12:10:23.000Z</time>
      </trkpt>
      <trkpt lat="44.40358" lon="6.38567">
        <ele>2409</ele>
        <time>2021-09-01T12:10:24.000Z</time>
      </trkpt>
      <trkpt lat="44.40357" lon="6.38567">
        <ele>2409</ele>
        <time>2021-09-01T12:10:25.000Z</time>
      </trkpt>
      <trkpt lat="44.40357" lon="6.38567">
        <ele>2409</ele>
        <time>2021-09-01T12:10:26.000Z</time>
      </trkpt>
      <trkpt lat="44.40356" lon="6.38566">
        <ele>2410</ele>
        <time>2021-09-01T12:10:27.000Z</time>
      </trkpt>
      <trkpt lat="44.40356" lon="6.38566">
        <ele>2410</ele>
        <time>2021-09-01T12:10:28.000Z</time>
      </trkpt>
      <trkpt lat="44.40356" lon="6.38566">
        <ele>2410</ele>
        <time>2021-09-01T12:10:29.000Z</time>
      </trkpt>
      <trkpt lat="44.40356" lon="6.38565">
        <ele>2410</ele>
        <time>2021-09-01T12:10:30.000Z</time>
      </trkpt>
      <trkpt lat="44.40356" lon="6.38564">
        <ele>2410</ele>
        <time>2021-09-01T12:10:31.000Z</time>
      </trkpt>
      <trkpt lat="44.40355" lon="6.38564">
        <ele>2411</ele>
        <time>2021-09-01T12:10:32.000Z</time>
      </trkpt>
      <trkpt lat="44.40355" lon="6.38564">
        <ele>2411</ele>
        <time>2021-09-01T12:10:33.000Z</time>
      </trkpt>
      <trkpt lat="44.40355" lon="6.38563">
        <ele>2412</ele>
        <time>2021-09-01T12:10:34.000Z</time>
      </trkpt>
      <trkpt lat="44.40355" lon="6.38563">
        <ele>2412</ele>
        <time>2021-09-01T12:10:35.000Z</time>
      </trkpt>
      <trkpt lat="44.40354" lon="6.38563">
        <ele>2412</ele>
        <time>2021-09-01T12:10:36.000Z</time>
      </trkpt>
      <trkpt lat="44.40354" lon="6.38563">
        <ele>2413</ele>
        <time>2021-09-01T12:10:37.000Z</time>
      </trkpt>
      <trkpt lat="44.40354" lon="6.38563">
        <ele>2413</ele>
        <time>2021-09-01T12:10:38.000Z</time>
      </trkpt>
      <trkpt lat="44.40354" lon="6.38563">
        <ele>2413</ele>
        <time>2021-09-01T12:10:39.000Z</time>
      </trkpt>
      <trkpt lat="44.40354" lon="6.38563">
        <ele>2413</ele>
        <time>2021-09-01T12:10:40.000Z</time>
      </trkpt>
      <trkpt lat="44.40354" lon="6.38563">
        <ele>2413</ele>
        <time>2021-09-01T12:10:41.000Z</time>
      </trkpt>
      <trkpt lat="44.40354" lon="6.38563">
        <ele>2413</ele>
        <time>2021-09-01T12:10:42.000Z</time>
      </trkpt>
      <trkpt lat="44.40354" lon="6.38563">
        <ele>2413</ele>
        <time>2021-09-01T12:10:43.000Z</time>
      </trkpt>
      <trkpt lat="44.40354" lon="6.38563">
        <ele>2413</ele>
        <time>2021-09-01T12:10:44.000Z</time>
      </trkpt>
      <trkpt lat="44.40354" lon="6.38563">
        <ele>2413</ele>
        <time>2021-09-01T12:10:45.000Z</time>
      </trkpt>
      <trkpt lat="44.40354" lon="6.38563">
        <ele>2413</ele>
        <time>2021-09-01T12:10:46.000Z</time>
      </trkpt>
      <trkpt lat="44.40354" lon="6.38564">
        <ele>2413</ele>
        <time>2021-09-01T12:10:47.000Z</time>
      </trkpt>
      <trkpt lat="44.40354" lon="6.38563">
        <ele>2412</ele>
        <time>2021-09-01T12:10:48.000Z</time>
      </trkpt>
      <trkpt lat="44.40355" lon="6.38564">
        <ele>2412</ele>
        <time>2021-09-01T12:10:49.000Z</time>
      </trkpt>
      <trkpt lat="44.40355" lon="6.38564">
        <ele>2412</ele>
        <time>2021-09-01T12:10:50.000Z</time>
      </trkpt>
      <trkpt lat="44.40355" lon="6.38564">
        <ele>2411</ele>
        <time>2021-09-01T12:10:51.000Z</time>
      </trkpt>
      <trkpt lat="44.40356" lon="6.38565">
        <ele>2411</ele>
        <time>2021-09-01T12:10:52.000Z</time>
      </trkpt>
      <trkpt lat="44.40356" lon="6.38565">
        <ele>2411</ele>
        <time>2021-09-01T12:10:53.000Z</time>
      </trkpt>
      <trkpt lat="44.40356" lon="6.38564">
        <ele>2411</ele>
        <time>2021-09-01T12:10:54.000Z</time>
      </trkpt>
      <trkpt lat="44.40357" lon="6.38564">
        <ele>2411</ele>
        <time>2021-09-01T12:10:55.000Z</time>
      </trkpt>
      <trkpt lat="44.40358" lon="6.38565">
        <ele>2411</ele>
        <time>2021-09-01T12:10:56.000Z</time>
      </trkpt>
      <trkpt lat="44.40358" lon="6.38564">
        <ele>2410</ele>
        <time>2021-09-01T12:10:57.000Z</time>
      </trkpt>
      <trkpt lat="44.40358" lon="6.38565">
        <ele>2410</ele>
        <time>2021-09-01T12:10:58.000Z</time>
      </trkpt>
      <trkpt lat="44.40358" lon="6.38565">
        <ele>2410</ele>
        <time>2021-09-01T12:10:59.000Z</time>
      </trkpt>
      <trkpt lat="44.40359" lon="6.38566">
        <ele>2410</ele>
        <time>2021-09-01T12:11:00.000Z</time>
      </trkpt>
      <trkpt lat="44.4036" lon="6.38566">
        <ele>2411</ele>
        <time>2021-09-01T12:11:01.000Z</time>
      </trkpt>
      <trkpt lat="44.40361" lon="6.38565">
        <ele>2411</ele>
        <time>2021-09-01T12:11:02.000Z</time>
      </trkpt>
      <trkpt lat="44.40361" lon="6.38565">
        <ele>2411</ele>
        <time>2021-09-01T12:11:03.000Z</time>
      </trkpt>
      <trkpt lat="44.40362" lon="6.38565">
        <ele>2411</ele>
        <time>2021-09-01T12:11:04.000Z</time>
      </trkpt>
      <trkpt lat="44.40363" lon="6.38565">
        <ele>2410</ele>
        <time>2021-09-01T12:11:05.000Z</time>
      </trkpt>
      <trkpt lat="44.40363" lon="6.38565">
        <ele>2410</ele>
        <time>2021-09-01T12:11:06.000Z</time>
      </trkpt>
      <trkpt lat="44.40363" lon="6.38565">
        <ele>2411</ele>
        <time>2021-09-01T12:11:07.000Z</time>
      </trkpt>
      <trkpt lat="44.40364" lon="6.38564">
        <ele>2411</ele>
        <time>2021-09-01T12:11:08.000Z</time>
      </trkpt>
      <trkpt lat="44.40365" lon="6.38563">
        <ele>2411</ele>
        <time>2021-09-01T12:11:09.000Z</time>
      </trkpt>
      <trkpt lat="44.40365" lon="6.38563">
        <ele>2410</ele>
        <time>2021-09-01T12:11:10.000Z</time>
      </trkpt>
      <trkpt lat="44.40366" lon="6.38562">
        <ele>2410</ele>
        <time>2021-09-01T12:11:11.000Z</time>
      </trkpt>
      <trkpt lat="44.40366" lon="6.38562">
        <ele>2410</ele>
        <time>2021-09-01T12:11:12.000Z</time>
      </trkpt>
      <trkpt lat="44.40367" lon="6.38561">
        <ele>2410</ele>
        <time>2021-09-01T12:11:13.000Z</time>
      </trkpt>
      <trkpt lat="44.40367" lon="6.38561">
        <ele>2409</ele>
        <time>2021-09-01T12:11:14.000Z</time>
      </trkpt>
      <trkpt lat="44.40367" lon="6.38561">
        <ele>2409</ele>
        <time>2021-09-01T12:11:15.000Z</time>
      </trkpt>
      <trkpt lat="44.40367" lon="6.38561">
        <ele>2409</ele>
        <time>2021-09-01T12:11:16.000Z</time>
      </trkpt>
      <trkpt lat="44.40368" lon="6.3856">
        <ele>2409</ele>
        <time>2021-09-01T12:11:17.000Z</time>
      </trkpt>
      <trkpt lat="44.40368" lon="6.3856">
        <ele>2409</ele>
        <time>2021-09-01T12:11:18.000Z</time>
      </trkpt>
      <trkpt lat="44.40369" lon="6.3856">
        <ele>2409</ele>
        <time>2021-09-01T12:11:19.000Z</time>
      </trkpt>
      <trkpt lat="44.40369" lon="6.3856">
        <ele>2408</ele>
        <time>2021-09-01T12:11:20.000Z</time>
      </trkpt>
      <trkpt lat="44.40369" lon="6.38559">
        <ele>2408</ele>
        <time>2021-09-01T12:11:21.000Z</time>
      </trkpt>
      <trkpt lat="44.40369" lon="6.38558">
        <ele>2408</ele>
        <time>2021-09-01T12:11:22.000Z</time>
      </trkpt>
      <trkpt lat="44.40369" lon="6.38558">
        <ele>2408</ele>
        <time>2021-09-01T12:11:23.000Z</time>
      </trkpt>
      <trkpt lat="44.40369" lon="6.38558">
        <ele>2407</ele>
        <time>2021-09-01T12:11:24.000Z</time>
      </trkpt>
      <trkpt lat="44.40368" lon="6.38557">
        <ele>2407</ele>
        <time>2021-09-01T12:11:25.000Z</time>
      </trkpt>
      <trkpt lat="44.40368" lon="6.38556">
        <ele>2407</ele>
        <time>2021-09-01T12:11:26.000Z</time>
      </trkpt>
      <trkpt lat="44.40368" lon="6.38556">
        <ele>2407</ele>
        <time>2021-09-01T12:11:27.000Z</time>
      </trkpt>
      <trkpt lat="44.40367" lon="6.38555">
        <ele>2406</ele>
        <time>2021-09-01T12:11:28.000Z</time>
      </trkpt>
      <trkpt lat="44.40367" lon="6.38554">
        <ele>2406</ele>
        <time>2021-09-01T12:11:29.000Z</time>
      </trkpt>
      <trkpt lat="44.40367" lon="6.38554">
        <ele>2406</ele>
        <time>2021-09-01T12:11:30.000Z</time>
      </trkpt>
      <trkpt lat="44.40366" lon="6.38553">
        <ele>2406</ele>
        <time>2021-09-01T12:11:31.000Z</time>
      </trkpt>
      <trkpt lat="44.40366" lon="6.38553">
        <ele>2406</ele>
        <time>2021-09-01T12:11:32.000Z</time>
      </trkpt>
      <trkpt lat="44.40365" lon="6.38552">
        <ele>2406</ele>
        <time>2021-09-01T12:11:33.000Z</time>
      </trkpt>
      <trkpt lat="44.40365" lon="6.38552">
        <ele>2405</ele>
        <time>2021-09-01T12:11:34.000Z</time>
      </trkpt>
      <trkpt lat="44.40364" lon="6.38552">
        <ele>2405</ele>
        <time>2021-09-01T12:11:35.000Z</time>
      </trkpt>
      <trkpt lat="44.40364" lon="6.38551">
        <ele>2405</ele>
        <time>2021-09-01T12:11:36.000Z</time>
      </trkpt>
      <trkpt lat="44.40364" lon="6.38551">
        <ele>2405</ele>
        <time>2021-09-01T12:11:37.000Z</time>
      </trkpt>
      <trkpt lat="44.40363" lon="6.3855">
        <ele>2405</ele>
        <time>2021-09-01T12:11:38.000Z</time>
      </trkpt>
      <trkpt lat="44.40363" lon="6.3855">
        <ele>2405</ele>
        <time>2021-09-01T12:11:39.000Z</time>
      </trkpt>
      <trkpt lat="44.40362" lon="6.38549">
        <ele>2405</ele>
        <time>2021-09-01T12:11:40.000Z</time>
      </trkpt>
      <trkpt lat="44.40361" lon="6.38549">
        <ele>2405</ele>
        <time>2021-09-01T12:11:41.000Z</time>
      </trkpt>
      <trkpt lat="44.4036" lon="6.38547">
        <ele>2405</ele>
        <time>2021-09-01T12:11:42.000Z</time>
      </trkpt>
      <trkpt lat="44.4036" lon="6.38547">
        <ele>2405</ele>
        <time>2021-09-01T12:11:43.000Z</time>
      </trkpt>
      <trkpt lat="44.40359" lon="6.38547">
        <ele>2405</ele>
        <time>2021-09-01T12:11:44.000Z</time>
      </trkpt>
      <trkpt lat="44.40358" lon="6.38547">
        <ele>2405</ele>
        <time>2021-09-01T12:11:45.000Z</time>
      </trkpt>
      <trkpt lat="44.40357" lon="6.38547">
        <ele>2405</ele>
        <time>2021-09-01T12:11:46.000Z</time>
      </trkpt>
      <trkpt lat="44.40357" lon="6.38547">
        <ele>2405</ele>
        <time>2021-09-01T12:11:47.000Z</time>
      </trkpt>
      <trkpt lat="44.40356" lon="6.38547">
        <ele>2405</ele>
        <time>2021-09-01T12:11:48.000Z</time>
      </trkpt>
      <trkpt lat="44.40355" lon="6.38547">
        <ele>2406</ele>
        <time>2021-09-01T12:11:49.000Z</time>
      </trkpt>
      <trkpt lat="44.40355" lon="6.38547">
        <ele>2406</ele>
        <time>2021-09-01T12:11:50.000Z</time>
      </trkpt>
      <trkpt lat="44.40355" lon="6.38548">
        <ele>2406</ele>
        <time>2021-09-01T12:11:51.000Z</time>
      </trkpt>
      <trkpt lat="44.40355" lon="6.38548">
        <ele>2406</ele>
        <time>2021-09-01T12:11:52.000Z</time>
      </trkpt>
      <trkpt lat="44.40354" lon="6.38549">
        <ele>2406</ele>
        <time>2021-09-01T12:11:53.000Z</time>
      </trkpt>
      <trkpt lat="44.40354" lon="6.38549">
        <ele>2406</ele>
        <time>2021-09-01T12:11:54.000Z</time>
      </trkpt>
      <trkpt lat="44.40353" lon="6.3855">
        <ele>2406</ele>
        <time>2021-09-01T12:11:55.000Z</time>
      </trkpt>
      <trkpt lat="44.40352" lon="6.3855">
        <ele>2406</ele>
        <time>2021-09-01T12:11:56.000Z</time>
      </trkpt>
      <trkpt lat="44.40352" lon="6.38551">
        <ele>2405</ele>
        <time>2021-09-01T12:11:57.000Z</time>
      </trkpt>
      <trkpt lat="44.40351" lon="6.38552">
        <ele>2405</ele>
        <time>2021-09-01T12:11:58.000Z</time>
      </trkpt>
      <trkpt lat="44.4035" lon="6.38552">
        <ele>2405</ele>
        <time>2021-09-01T12:11:59.000Z</time>
      </trkpt>
      <trkpt lat="44.4035" lon="6.38552">
        <ele>2405</ele>
        <time>2021-09-01T12:12:00.000Z</time>
      </trkpt>
      <trkpt lat="44.40349" lon="6.38552">
        <ele>2405</ele>
        <time>2021-09-01T12:12:01.000Z</time>
      </trkpt>
      <trkpt lat="44.40348" lon="6.38552">
        <ele>2405</ele>
        <time>2021-09-01T12:12:02.000Z</time>
      </trkpt>
      <trkpt lat="44.40348" lon="6.38552">
        <ele>2405</ele>
        <time>2021-09-01T12:12:03.000Z</time>
      </trkpt>
      <trkpt lat="44.40347" lon="6.38553">
        <ele>2405</ele>
        <time>2021-09-01T12:12:04.000Z</time>
      </trkpt>
      <trkpt lat="44.40347" lon="6.38553">
        <ele>2405</ele>
        <time>2021-09-01T12:12:05.000Z</time>
      </trkpt>
      <trkpt lat="44.40346" lon="6.38553">
        <ele>2404</ele>
        <time>2021-09-01T12:12:06.000Z</time>
      </trkpt>
      <trkpt lat="44.40346" lon="6.38554">
        <ele>2404</ele>
        <time>2021-09-01T12:12:07.000Z</time>
      </trkpt>
      <trkpt lat="44.40345" lon="6.38554">
        <ele>2404</ele>
        <time>2021-09-01T12:12:08.000Z</time>
      </trkpt>
      <trkpt lat="44.40345" lon="6.38555">
        <ele>2403</ele>
        <time>2021-09-01T12:12:09.000Z</time>
      </trkpt>
      <trkpt lat="44.40344" lon="6.38555">
        <ele>2403</ele>
        <time>2021-09-01T12:12:10.000Z</time>
      </trkpt>
      <trkpt lat="44.40344" lon="6.38555">
        <ele>2403</ele>
        <time>2021-09-01T12:12:11.000Z</time>
      </trkpt>
      <trkpt lat="44.40343" lon="6.38556">
        <ele>2403</ele>
        <time>2021-09-01T12:12:12.000Z</time>
      </trkpt>
      <trkpt lat="44.40343" lon="6.38556">
        <ele>2402</ele>
        <time>2021-09-01T12:12:13.000Z</time>
      </trkpt>
      <trkpt lat="44.40343" lon="6.38557">
        <ele>2402</ele>
        <time>2021-09-01T12:12:14.000Z</time>
      </trkpt>
      <trkpt lat="44.40342" lon="6.38557">
        <ele>2402</ele>
        <time>2021-09-01T12:12:15.000Z</time>
      </trkpt>
      <trkpt lat="44.40342" lon="6.38557">
        <ele>2401</ele>
        <time>2021-09-01T12:12:16.000Z</time>
      </trkpt>
      <trkpt lat="44.40342" lon="6.38557">
        <ele>2401</ele>
        <time>2021-09-01T12:12:17.000Z</time>
      </trkpt>
      <trkpt lat="44.40342" lon="6.38557">
        <ele>2401</ele>
        <time>2021-09-01T12:12:18.000Z</time>
      </trkpt>
      <trkpt lat="44.40341" lon="6.38557">
        <ele>2400</ele>
        <time>2021-09-01T12:12:19.000Z</time>
      </trkpt>
      <trkpt lat="44.40341" lon="6.38557">
        <ele>2400</ele>
        <time>2021-09-01T12:12:20.000Z</time>
      </trkpt>
      <trkpt lat="44.4034" lon="6.38557">
        <ele>2400</ele>
        <time>2021-09-01T12:12:21.000Z</time>
      </trkpt>
      <trkpt lat="44.4034" lon="6.38557">
        <ele>2400</ele>
        <time>2021-09-01T12:12:22.000Z</time>
      </trkpt>
      <trkpt lat="44.4034" lon="6.38558">
        <ele>2400</ele>
        <time>2021-09-01T12:12:23.000Z</time>
      </trkpt>
      <trkpt lat="44.40339" lon="6.38558">
        <ele>2399</ele>
        <time>2021-09-01T12:12:24.000Z</time>
      </trkpt>
      <trkpt lat="44.40339" lon="6.38559">
        <ele>2399</ele>
        <time>2021-09-01T12:12:25.000Z</time>
      </trkpt>
      <trkpt lat="44.40338" lon="6.38559">
        <ele>2399</ele>
        <time>2021-09-01T12:12:26.000Z</time>
      </trkpt>
      <trkpt lat="44.40338" lon="6.3856">
        <ele>2398</ele>
        <time>2021-09-01T12:12:27.000Z</time>
      </trkpt>
      <trkpt lat="44.40337" lon="6.3856">
        <ele>2398</ele>
        <time>2021-09-01T12:12:28.000Z</time>
      </trkpt>
      <trkpt lat="44.40337" lon="6.3856">
        <ele>2397</ele>
        <time>2021-09-01T12:12:29.000Z</time>
      </trkpt>
      <trkpt lat="44.40336" lon="6.38561">
        <ele>2397</ele>
        <time>2021-09-01T12:12:30.000Z</time>
      </trkpt>
      <trkpt lat="44.40336" lon="6.38561">
        <ele>2397</ele>
        <time>2021-09-01T12:12:31.000Z</time>
      </trkpt>
      <trkpt lat="44.40335" lon="6.38561">
        <ele>2396</ele>
        <time>2021-09-01T12:12:32.000Z</time>
      </trkpt>
      <trkpt lat="44.40335" lon="6.38561">
        <ele>2396</ele>
        <time>2021-09-01T12:12:33.000Z</time>
      </trkpt>
      <trkpt lat="44.40334" lon="6.38562">
        <ele>2396</ele>
        <time>2021-09-01T12:12:34.000Z</time>
      </trkpt>
      <trkpt lat="44.40334" lon="6.38563">
        <ele>2396</ele>
        <time>2021-09-01T12:12:35.000Z</time>
      </trkpt>
      <trkpt lat="44.40333" lon="6.38563">
        <ele>2396</ele>
        <time>2021-09-01T12:12:36.000Z</time>
      </trkpt>
      <trkpt lat="44.40332" lon="6.38564">
        <ele>2396</ele>
        <time>2021-09-01T12:12:37.000Z</time>
      </trkpt>
      <trkpt lat="44.40331" lon="6.38564">
        <ele>2396</ele>
        <time>2021-09-01T12:12:38.000Z</time>
      </trkpt>
      <trkpt lat="44.40331" lon="6.38565">
        <ele>2396</ele>
        <time>2021-09-01T12:12:39.000Z</time>
      </trkpt>
      <trkpt lat="44.4033" lon="6.38565">
        <ele>2396</ele>
        <time>2021-09-01T12:12:40.000Z</time>
      </trkpt>
      <trkpt lat="44.40329" lon="6.38566">
        <ele>2395</ele>
        <time>2021-09-01T12:12:41.000Z</time>
      </trkpt>
      <trkpt lat="44.40329" lon="6.38567">
        <ele>2395</ele>
        <time>2021-09-01T12:12:42.000Z</time>
      </trkpt>
      <trkpt lat="44.40328" lon="6.38567">
        <ele>2395</ele>
        <time>2021-09-01T12:12:43.000Z</time>
      </trkpt>
      <trkpt lat="44.40328" lon="6.38567">
        <ele>2394</ele>
        <time>2021-09-01T12:12:44.000Z</time>
      </trkpt>
      <trkpt lat="44.40327" lon="6.38567">
        <ele>2394</ele>
        <time>2021-09-01T12:12:45.000Z</time>
      </trkpt>
      <trkpt lat="44.40326" lon="6.38567">
        <ele>2394</ele>
        <time>2021-09-01T12:12:46.000Z</time>
      </trkpt>
      <trkpt lat="44.40326" lon="6.38567">
        <ele>2394</ele>
        <time>2021-09-01T12:12:47.000Z</time>
      </trkpt>
      <trkpt lat="44.40325" lon="6.38567">
        <ele>2393</ele>
        <time>2021-09-01T12:12:48.000Z</time>
      </trkpt>
      <trkpt lat="44.40324" lon="6.38568">
        <ele>2393</ele>
        <time>2021-09-01T12:12:49.000Z</time>
      </trkpt>
      <trkpt lat="44.40323" lon="6.38568">
        <ele>2392</ele>
        <time>2021-09-01T12:12:50.000Z</time>
      </trkpt>
      <trkpt lat="44.40322" lon="6.38569">
        <ele>2392</ele>
        <time>2021-09-01T12:12:51.000Z</time>
      </trkpt>
      <trkpt lat="44.40322" lon="6.38569">
        <ele>2392</ele>
        <time>2021-09-01T12:12:52.000Z</time>
      </trkpt>
      <trkpt lat="44.40321" lon="6.38569">
        <ele>2392</ele>
        <time>2021-09-01T12:12:53.000Z</time>
      </trkpt>
      <trkpt lat="44.4032" lon="6.3857">
        <ele>2392</ele>
        <time>2021-09-01T12:12:54.000Z</time>
      </trkpt>
      <trkpt lat="44.40319" lon="6.38569">
        <ele>2392</ele>
        <time>2021-09-01T12:12:55.000Z</time>
      </trkpt>
      <trkpt lat="44.40319" lon="6.3857">
        <ele>2392</ele>
        <time>2021-09-01T12:12:56.000Z</time>
      </trkpt>
      <trkpt lat="44.40319" lon="6.3857">
        <ele>2392</ele>
        <time>2021-09-01T12:12:57.000Z</time>
      </trkpt>
      <trkpt lat="44.40319" lon="6.38569">
        <ele>2392</ele>
        <time>2021-09-01T12:12:58.000Z</time>
      </trkpt>
      <trkpt lat="44.40319" lon="6.38569">
        <ele>2392</ele>
        <time>2021-09-01T12:12:59.000Z</time>
      </trkpt>
      <trkpt lat="44.40319" lon="6.38569">
        <ele>2392</ele>
        <time>2021-09-01T12:13:00.000Z</time>
      </trkpt>
      <trkpt lat="44.40319" lon="6.38569">
        <ele>2392</ele>
        <time>2021-09-01T12:13:01.000Z</time>
      </trkpt>
      <trkpt lat="44.40318" lon="6.38569">
        <ele>2392</ele>
        <time>2021-09-01T12:13:02.000Z</time>
      </trkpt>
      <trkpt lat="44.40317" lon="6.3857">
        <ele>2391</ele>
        <time>2021-09-01T12:13:03.000Z</time>
      </trkpt>
      <trkpt lat="44.40316" lon="6.38571">
        <ele>2391</ele>
        <time>2021-09-01T12:13:04.000Z</time>
      </trkpt>
      <trkpt lat="44.40314" lon="6.38572">
        <ele>2390</ele>
        <time>2021-09-01T12:13:05.000Z</time>
      </trkpt>
      <trkpt lat="44.40313" lon="6.38574">
        <ele>2390</ele>
        <time>2021-09-01T12:13:06.000Z</time>
      </trkpt>
      <trkpt lat="44.40311" lon="6.38576">
        <ele>2389</ele>
        <time>2021-09-01T12:13:07.000Z</time>
      </trkpt>
      <trkpt lat="44.4031" lon="6.38577">
        <ele>2388</ele>
        <time>2021-09-01T12:13:08.000Z</time>
      </trkpt>
      <trkpt lat="44.4031" lon="6.38576">
        <ele>2387</ele>
        <time>2021-09-01T12:13:09.000Z</time>
      </trkpt>
      <trkpt lat="44.4031" lon="6.38576">
        <ele>2387</ele>
        <time>2021-09-01T12:13:10.000Z</time>
      </trkpt>
      <trkpt lat="44.40309" lon="6.38576">
        <ele>2386</ele>
        <time>2021-09-01T12:13:11.000Z</time>
      </trkpt>
      <trkpt lat="44.40309" lon="6.38576">
        <ele>2386</ele>
        <time>2021-09-01T12:13:12.000Z</time>
      </trkpt>
      <trkpt lat="44.40308" lon="6.38576">
        <ele>2387</ele>
        <time>2021-09-01T12:13:13.000Z</time>
      </trkpt>
      <trkpt lat="44.40308" lon="6.38576">
        <ele>2386</ele>
        <time>2021-09-01T12:13:14.000Z</time>
      </trkpt>
      <trkpt lat="44.40308" lon="6.38576">
        <ele>2386</ele>
        <time>2021-09-01T12:13:15.000Z</time>
      </trkpt>
      <trkpt lat="44.40308" lon="6.38577">
        <ele>2386</ele>
        <time>2021-09-01T12:13:16.000Z</time>
      </trkpt>
      <trkpt lat="44.40308" lon="6.38577">
        <ele>2386</ele>
        <time>2021-09-01T12:13:17.000Z</time>
      </trkpt>
      <trkpt lat="44.40307" lon="6.38577">
        <ele>2386</ele>
        <time>2021-09-01T12:13:18.000Z</time>
      </trkpt>
      <trkpt lat="44.40307" lon="6.38577">
        <ele>2385</ele>
        <time>2021-09-01T12:13:19.000Z</time>
      </trkpt>
      <trkpt lat="44.40306" lon="6.38577">
        <ele>2385</ele>
        <time>2021-09-01T12:13:20.000Z</time>
      </trkpt>
      <trkpt lat="44.40306" lon="6.38578">
        <ele>2386</ele>
        <time>2021-09-01T12:13:21.000Z</time>
      </trkpt>
      <trkpt lat="44.40306" lon="6.38578">
        <ele>2386</ele>
        <time>2021-09-01T12:13:22.000Z</time>
      </trkpt>
      <trkpt lat="44.40305" lon="6.38578">
        <ele>2385</ele>
        <time>2021-09-01T12:13:23.000Z</time>
      </trkpt>
      <trkpt lat="44.40305" lon="6.38578">
        <ele>2385</ele>
        <time>2021-09-01T12:13:24.000Z</time>
      </trkpt>
      <trkpt lat="44.40305" lon="6.38578">
        <ele>2384</ele>
        <time>2021-09-01T12:13:25.000Z</time>
      </trkpt>
      <trkpt lat="44.40304" lon="6.38578">
        <ele>2384</ele>
        <time>2021-09-01T12:13:26.000Z</time>
      </trkpt>
      <trkpt lat="44.40304" lon="6.38578">
        <ele>2384</ele>
        <time>2021-09-01T12:13:27.000Z</time>
      </trkpt>
      <trkpt lat="44.40304" lon="6.38578">
        <ele>2384</ele>
        <time>2021-09-01T12:13:28.000Z</time>
      </trkpt>
      <trkpt lat="44.40303" lon="6.38577">
        <ele>2384</ele>
        <time>2021-09-01T12:13:29.000Z</time>
      </trkpt>
      <trkpt lat="44.40303" lon="6.38577">
        <ele>2383</ele>
        <time>2021-09-01T12:13:30.000Z</time>
      </trkpt>
      <trkpt lat="44.40303" lon="6.38577">
        <ele>2383</ele>
        <time>2021-09-01T12:13:31.000Z</time>
      </trkpt>
      <trkpt lat="44.40302" lon="6.38577">
        <ele>2383</ele>
        <time>2021-09-01T12:13:32.000Z</time>
      </trkpt>
      <trkpt lat="44.40301" lon="6.38576">
        <ele>2383</ele>
        <time>2021-09-01T12:13:33.000Z</time>
      </trkpt>
      <trkpt lat="44.40301" lon="6.38575">
        <ele>2383</ele>
        <time>2021-09-01T12:13:34.000Z</time>
      </trkpt>
      <trkpt lat="44.403" lon="6.38575">
        <ele>2383</ele>
        <time>2021-09-01T12:13:35.000Z</time>
      </trkpt>
      <trkpt lat="44.403" lon="6.38575">
        <ele>2383</ele>
        <time>2021-09-01T12:13:36.000Z</time>
      </trkpt>
      <trkpt lat="44.40299" lon="6.38574">
        <ele>2383</ele>
        <time>2021-09-01T12:13:37.000Z</time>
      </trkpt>
      <trkpt lat="44.40299" lon="6.38574">
        <ele>2383</ele>
        <time>2021-09-01T12:13:38.000Z</time>
      </trkpt>
      <trkpt lat="44.40298" lon="6.38575">
        <ele>2383</ele>
        <time>2021-09-01T12:13:39.000Z</time>
      </trkpt>
      <trkpt lat="44.40296" lon="6.38576">
        <ele>2382</ele>
        <time>2021-09-01T12:13:40.000Z</time>
      </trkpt>
      <trkpt lat="44.40294" lon="6.38576">
        <ele>2382</ele>
        <time>2021-09-01T12:13:41.000Z</time>
      </trkpt>
      <trkpt lat="44.40292" lon="6.38575">
        <ele>2382</ele>
        <time>2021-09-01T12:13:42.000Z</time>
      </trkpt>
      <trkpt lat="44.4029" lon="6.38576">
        <ele>2382</ele>
        <time>2021-09-01T12:13:43.000Z</time>
      </trkpt>
      <trkpt lat="44.40288" lon="6.38577">
        <ele>2381</ele>
        <time>2021-09-01T12:13:44.000Z</time>
      </trkpt>
      <trkpt lat="44.40286" lon="6.38578">
        <ele>2381</ele>
        <time>2021-09-01T12:13:45.000Z</time>
      </trkpt>
      <trkpt lat="44.40284" lon="6.38579">
        <ele>2381</ele>
        <time>2021-09-01T12:13:46.000Z</time>
      </trkpt>
      <trkpt lat="44.40282" lon="6.3858">
        <ele>2381</ele>
        <time>2021-09-01T12:13:47.000Z</time>
      </trkpt>
      <trkpt lat="44.40281" lon="6.38581">
        <ele>2380</ele>
        <time>2021-09-01T12:13:48.000Z</time>
      </trkpt>
      <trkpt lat="44.40279" lon="6.38582">
        <ele>2380</ele>
        <time>2021-09-01T12:13:49.000Z</time>
      </trkpt>
      <trkpt lat="44.40277" lon="6.38583">
        <ele>2379</ele>
        <time>2021-09-01T12:13:50.000Z</time>
      </trkpt>
      <trkpt lat="44.40275" lon="6.38584">
        <ele>2379</ele>
        <time>2021-09-01T12:13:51.000Z</time>
      </trkpt>
      <trkpt lat="44.40273" lon="6.38586">
        <ele>2379</ele>
        <time>2021-09-01T12:13:52.000Z</time>
      </trkpt>
      <trkpt lat="44.40271" lon="6.38587">
        <ele>2379</ele>
        <time>2021-09-01T12:13:53.000Z</time>
      </trkpt>
      <trkpt lat="44.4027" lon="6.38588">
        <ele>2378</ele>
        <time>2021-09-01T12:13:54.000Z</time>
      </trkpt>
      <trkpt lat="44.40269" lon="6.38588">
        <ele>2379</ele>
        <time>2021-09-01T12:13:55.000Z</time>
      </trkpt>
      <trkpt lat="44.40268" lon="6.38588">
        <ele>2380</ele>
        <time>2021-09-01T12:13:56.000Z</time>
      </trkpt>
      <trkpt lat="44.40268" lon="6.38589">
        <ele>2379</ele>
        <time>2021-09-01T12:13:57.000Z</time>
      </trkpt>
      <trkpt lat="44.40268" lon="6.38589">
        <ele>2378</ele>
        <time>2021-09-01T12:13:58.000Z</time>
      </trkpt>
      <trkpt lat="44.40267" lon="6.38589">
        <ele>2378</ele>
        <time>2021-09-01T12:13:59.000Z</time>
      </trkpt>
      <trkpt lat="44.40267" lon="6.38589">
        <ele>2378</ele>
        <time>2021-09-01T12:14:00.000Z</time>
      </trkpt>
      <trkpt lat="44.40266" lon="6.38589">
        <ele>2379</ele>
        <time>2021-09-01T12:14:01.000Z</time>
      </trkpt>
      <trkpt lat="44.40265" lon="6.38588">
        <ele>2379</ele>
        <time>2021-09-01T12:14:02.000Z</time>
      </trkpt>
      <trkpt lat="44.40265" lon="6.38589">
        <ele>2379</ele>
        <time>2021-09-01T12:14:03.000Z</time>
      </trkpt>
      <trkpt lat="44.40265" lon="6.38588">
        <ele>2380</ele>
        <time>2021-09-01T12:14:04.000Z</time>
      </trkpt>
      <trkpt lat="44.40264" lon="6.38588">
        <ele>2379</ele>
        <time>2021-09-01T12:14:05.000Z</time>
      </trkpt>
      <trkpt lat="44.40263" lon="6.38587">
        <ele>2379</ele>
        <time>2021-09-01T12:14:06.000Z</time>
      </trkpt>
      <trkpt lat="44.40262" lon="6.38587">
        <ele>2379</ele>
        <time>2021-09-01T12:14:07.000Z</time>
      </trkpt>
      <trkpt lat="44.40261" lon="6.38587">
        <ele>2379</ele>
        <time>2021-09-01T12:14:08.000Z</time>
      </trkpt>
      <trkpt lat="44.4026" lon="6.38587">
        <ele>2379</ele>
        <time>2021-09-01T12:14:09.000Z</time>
      </trkpt>
      <trkpt lat="44.40259" lon="6.38587">
        <ele>2379</ele>
        <time>2021-09-01T12:14:10.000Z</time>
      </trkpt>
      <trkpt lat="44.40258" lon="6.38587">
        <ele>2379</ele>
        <time>2021-09-01T12:14:11.000Z</time>
      </trkpt>
      <trkpt lat="44.40258" lon="6.38588">
        <ele>2379</ele>
        <time>2021-09-01T12:14:12.000Z</time>
      </trkpt>
      <trkpt lat="44.40257" lon="6.38588">
        <ele>2378</ele>
        <time>2021-09-01T12:14:13.000Z</time>
      </trkpt>
      <trkpt lat="44.40256" lon="6.38588">
        <ele>2378</ele>
        <time>2021-09-01T12:14:14.000Z</time>
      </trkpt>
      <trkpt lat="44.40256" lon="6.38588">
        <ele>2378</ele>
        <time>2021-09-01T12:14:15.000Z</time>
      </trkpt>
      <trkpt lat="44.40255" lon="6.38588">
        <ele>2378</ele>
        <time>2021-09-01T12:14:16.000Z</time>
      </trkpt>
      <trkpt lat="44.40254" lon="6.38588">
        <ele>2378</ele>
        <time>2021-09-01T12:14:17.000Z</time>
      </trkpt>
      <trkpt lat="44.40254" lon="6.38587">
        <ele>2378</ele>
        <time>2021-09-01T12:14:18.000Z</time>
      </trkpt>
      <trkpt lat="44.40254" lon="6.38587">
        <ele>2378</ele>
        <time>2021-09-01T12:14:19.000Z</time>
      </trkpt>
      <trkpt lat="44.40253" lon="6.38586">
        <ele>2379</ele>
        <time>2021-09-01T12:14:20.000Z</time>
      </trkpt>
      <trkpt lat="44.40253" lon="6.38586">
        <ele>2378</ele>
        <time>2021-09-01T12:14:21.000Z</time>
      </trkpt>
      <trkpt lat="44.40252" lon="6.38585">
        <ele>2377</ele>
        <time>2021-09-01T12:14:22.000Z</time>
      </trkpt>
      <trkpt lat="44.40251" lon="6.38586">
        <ele>2378</ele>
        <time>2021-09-01T12:14:23.000Z</time>
      </trkpt>
      <trkpt lat="44.4025" lon="6.38586">
        <ele>2378</ele>
        <time>2021-09-01T12:14:24.000Z</time>
      </trkpt>
      <trkpt lat="44.40249" lon="6.38586">
        <ele>2378</ele>
        <time>2021-09-01T12:14:25.000Z</time>
      </trkpt>
      <trkpt lat="44.40248" lon="6.38586">
        <ele>2377</ele>
        <time>2021-09-01T12:14:26.000Z</time>
      </trkpt>
      <trkpt lat="44.40248" lon="6.38586">
        <ele>2377</ele>
        <time>2021-09-01T12:14:27.000Z</time>
      </trkpt>
      <trkpt lat="44.40247" lon="6.38587">
        <ele>2377</ele>
        <time>2021-09-01T12:14:28.000Z</time>
      </trkpt>
      <trkpt lat="44.40246" lon="6.38587">
        <ele>2377</ele>
        <time>2021-09-01T12:14:29.000Z</time>
      </trkpt>
      <trkpt lat="44.40246" lon="6.38587">
        <ele>2377</ele>
        <time>2021-09-01T12:14:30.000Z</time>
      </trkpt>
      <trkpt lat="44.40246" lon="6.38587">
        <ele>2378</ele>
        <time>2021-09-01T12:14:31.000Z</time>
      </trkpt>
      <trkpt lat="44.40246" lon="6.38588">
        <ele>2378</ele>
        <time>2021-09-01T12:14:32.000Z</time>
      </trkpt>
      <trkpt lat="44.40246" lon="6.38588">
        <ele>2378</ele>
        <time>2021-09-01T12:14:33.000Z</time>
      </trkpt>
      <trkpt lat="44.40246" lon="6.38587">
        <ele>2378</ele>
        <time>2021-09-01T12:14:34.000Z</time>
      </trkpt>
      <trkpt lat="44.40246" lon="6.38587">
        <ele>2378</ele>
        <time>2021-09-01T12:14:35.000Z</time>
      </trkpt>
      <trkpt lat="44.40246" lon="6.38587">
        <ele>2378</ele>
        <time>2021-09-01T12:14:36.000Z</time>
      </trkpt>
      <trkpt lat="44.40246" lon="6.38587">
        <ele>2378</ele>
        <time>2021-09-01T12:14:37.000Z</time>
      </trkpt>
      <trkpt lat="44.40245" lon="6.38588">
        <ele>2378</ele>
        <time>2021-09-01T12:14:38.000Z</time>
      </trkpt>
      <trkpt lat="44.40244" lon="6.38589">
        <ele>2378</ele>
        <time>2021-09-01T12:14:39.000Z</time>
      </trkpt>
      <trkpt lat="44.40241" lon="6.3859">
        <ele>2379</ele>
        <time>2021-09-01T12:14:40.000Z</time>
      </trkpt>
      <trkpt lat="44.40237" lon="6.3859">
        <ele>2378</ele>
        <time>2021-09-01T12:14:41.000Z</time>
      </trkpt>
      <trkpt lat="44.40234" lon="6.38591">
        <ele>2377</ele>
        <time>2021-09-01T12:14:42.000Z</time>
      </trkpt>
      <trkpt lat="44.4023" lon="6.38591">
        <ele>2378</ele>
        <time>2021-09-01T12:14:43.000Z</time>
      </trkpt>
      <trkpt lat="44.40227" lon="6.38592">
        <ele>2378</ele>
        <time>2021-09-01T12:14:44.000Z</time>
      </trkpt>
      <trkpt lat="44.40224" lon="6.38593">
        <ele>2378</ele>
        <time>2021-09-01T12:14:45.000Z</time>
      </trkpt>
      <trkpt lat="44.40222" lon="6.38593">
        <ele>2378</ele>
        <time>2021-09-01T12:14:46.000Z</time>
      </trkpt>
      <trkpt lat="44.40219" lon="6.38594">
        <ele>2378</ele>
        <time>2021-09-01T12:14:47.000Z</time>
      </trkpt>
      <trkpt lat="44.40217" lon="6.38594">
        <ele>2378</ele>
        <time>2021-09-01T12:14:48.000Z</time>
      </trkpt>
      <trkpt lat="44.40214" lon="6.38595">
        <ele>2378</ele>
        <time>2021-09-01T12:14:49.000Z</time>
      </trkpt>
      <trkpt lat="44.40211" lon="6.38595">
        <ele>2378</ele>
        <time>2021-09-01T12:14:50.000Z</time>
      </trkpt>
      <trkpt lat="44.40209" lon="6.38596">
        <ele>2378</ele>
        <time>2021-09-01T12:14:51.000Z</time>
      </trkpt>
      <trkpt lat="44.40207" lon="6.38597">
        <ele>2377</ele>
        <time>2021-09-01T12:14:52.000Z</time>
      </trkpt>
      <trkpt lat="44.40205" lon="6.38598">
        <ele>2377</ele>
        <time>2021-09-01T12:14:53.000Z</time>
      </trkpt>
      <trkpt lat="44.40204" lon="6.38599">
        <ele>2376</ele>
        <time>2021-09-01T12:14:54.000Z</time>
      </trkpt>
      <trkpt lat="44.40203" lon="6.38599">
        <ele>2376</ele>
        <time>2021-09-01T12:14:55.000Z</time>
      </trkpt>
      <trkpt lat="44.40201" lon="6.386">
        <ele>2375</ele>
        <time>2021-09-01T12:14:56.000Z</time>
      </trkpt>
      <trkpt lat="44.402" lon="6.38601">
        <ele>2375</ele>
        <time>2021-09-01T12:14:57.000Z</time>
      </trkpt>
      <trkpt lat="44.40199" lon="6.38601">
        <ele>2374</ele>
        <time>2021-09-01T12:14:58.000Z</time>
      </trkpt>
      <trkpt lat="44.40197" lon="6.38602">
        <ele>2374</ele>
        <time>2021-09-01T12:14:59.000Z</time>
      </trkpt>
      <trkpt lat="44.40196" lon="6.38601">
        <ele>2374</ele>
        <time>2021-09-01T12:15:00.000Z</time>
      </trkpt>
      <trkpt lat="44.40195" lon="6.38601">
        <ele>2374</ele>
        <time>2021-09-01T12:15:01.000Z</time>
      </trkpt>
      <trkpt lat="44.40194" lon="6.386">
        <ele>2374</ele>
        <time>2021-09-01T12:15:02.000Z</time>
      </trkpt>
      <trkpt lat="44.40193" lon="6.38601">
        <ele>2374</ele>
        <time>2021-09-01T12:15:03.000Z</time>
      </trkpt>
      <trkpt lat="44.40193" lon="6.38601">
        <ele>2373</ele>
        <time>2021-09-01T12:15:04.000Z</time>
      </trkpt>
      <trkpt lat="44.40192" lon="6.38601">
        <ele>2373</ele>
        <time>2021-09-01T12:15:05.000Z</time>
      </trkpt>
      <trkpt lat="44.40192" lon="6.38601">
        <ele>2373</ele>
        <time>2021-09-01T12:15:06.000Z</time>
      </trkpt>
      <trkpt lat="44.4019" lon="6.38601">
        <ele>2372</ele>
        <time>2021-09-01T12:15:07.000Z</time>
      </trkpt>
      <trkpt lat="44.40189" lon="6.386">
        <ele>2373</ele>
        <time>2021-09-01T12:15:08.000Z</time>
      </trkpt>
      <trkpt lat="44.40187" lon="6.38601">
        <ele>2372</ele>
        <time>2021-09-01T12:15:09.000Z</time>
      </trkpt>
      <trkpt lat="44.40183" lon="6.38602">
        <ele>2372</ele>
        <time>2021-09-01T12:15:10.000Z</time>
      </trkpt>
      <trkpt lat="44.4018" lon="6.38602">
        <ele>2373</ele>
        <time>2021-09-01T12:15:11.000Z</time>
      </trkpt>
      <trkpt lat="44.40179" lon="6.38602">
        <ele>2372</ele>
        <time>2021-09-01T12:15:12.000Z</time>
      </trkpt>
      <trkpt lat="44.40177" lon="6.38602">
        <ele>2372</ele>
        <time>2021-09-01T12:15:13.000Z</time>
      </trkpt>
      <trkpt lat="44.40175" lon="6.38602">
        <ele>2372</ele>
        <time>2021-09-01T12:15:14.000Z</time>
      </trkpt>
      <trkpt lat="44.40173" lon="6.38603">
        <ele>2372</ele>
        <time>2021-09-01T12:15:15.000Z</time>
      </trkpt>
      <trkpt lat="44.40171" lon="6.38605">
        <ele>2371</ele>
        <time>2021-09-01T12:15:16.000Z</time>
      </trkpt>
      <trkpt lat="44.40169" lon="6.38606">
        <ele>2371</ele>
        <time>2021-09-01T12:15:17.000Z</time>
      </trkpt>
      <trkpt lat="44.40167" lon="6.38607">
        <ele>2371</ele>
        <time>2021-09-01T12:15:18.000Z</time>
      </trkpt>
      <trkpt lat="44.40165" lon="6.38608">
        <ele>2371</ele>
        <time>2021-09-01T12:15:19.000Z</time>
      </trkpt>
      <trkpt lat="44.40163" lon="6.38608">
        <ele>2371</ele>
        <time>2021-09-01T12:15:20.000Z</time>
      </trkpt>
      <trkpt lat="44.40161" lon="6.38609">
        <ele>2371</ele>
        <time>2021-09-01T12:15:21.000Z</time>
      </trkpt>
      <trkpt lat="44.40158" lon="6.3861">
        <ele>2371</ele>
        <time>2021-09-01T12:15:22.000Z</time>
      </trkpt>
      <trkpt lat="44.40156" lon="6.3861">
        <ele>2370</ele>
        <time>2021-09-01T12:15:23.000Z</time>
      </trkpt>
      <trkpt lat="44.40154" lon="6.38611">
        <ele>2371</ele>
        <time>2021-09-01T12:15:24.000Z</time>
      </trkpt>
      <trkpt lat="44.40152" lon="6.38612">
        <ele>2371</ele>
        <time>2021-09-01T12:15:25.000Z</time>
      </trkpt>
      <trkpt lat="44.4015" lon="6.38613">
        <ele>2370</ele>
        <time>2021-09-01T12:15:26.000Z</time>
      </trkpt>
      <trkpt lat="44.40147" lon="6.38615">
        <ele>2370</ele>
        <time>2021-09-01T12:15:27.000Z</time>
      </trkpt>
      <trkpt lat="44.40144" lon="6.38617">
        <ele>2370</ele>
        <time>2021-09-01T12:15:28.000Z</time>
      </trkpt>
      <trkpt lat="44.40141" lon="6.38619">
        <ele>2371</ele>
        <time>2021-09-01T12:15:29.000Z</time>
      </trkpt>
      <trkpt lat="44.40138" lon="6.38621">
        <ele>2371</ele>
        <time>2021-09-01T12:15:30.000Z</time>
      </trkpt>
      <trkpt lat="44.40135" lon="6.38622">
        <ele>2371</ele>
        <time>2021-09-01T12:15:31.000Z</time>
      </trkpt>
      <trkpt lat="44.40133" lon="6.38624">
        <ele>2372</ele>
        <time>2021-09-01T12:15:32.000Z</time>
      </trkpt>
      <trkpt lat="44.40132" lon="6.38625">
        <ele>2372</ele>
        <time>2021-09-01T12:15:33.000Z</time>
      </trkpt>
      <trkpt lat="44.4013" lon="6.38627">
        <ele>2372</ele>
        <time>2021-09-01T12:15:34.000Z</time>
      </trkpt>
      <trkpt lat="44.40129" lon="6.38627">
        <ele>2371</ele>
        <time>2021-09-01T12:15:35.000Z</time>
      </trkpt>
      <trkpt lat="44.40129" lon="6.38628">
        <ele>2371</ele>
        <time>2021-09-01T12:15:36.000Z</time>
      </trkpt>
      <trkpt lat="44.40128" lon="6.38628">
        <ele>2371</ele>
        <time>2021-09-01T12:15:37.000Z</time>
      </trkpt>
      <trkpt lat="44.40128" lon="6.38628">
        <ele>2371</ele>
        <time>2021-09-01T12:15:38.000Z</time>
      </trkpt>
      <trkpt lat="44.40128" lon="6.38628">
        <ele>2371</ele>
        <time>2021-09-01T12:15:39.000Z</time>
      </trkpt>
      <trkpt lat="44.40127" lon="6.38629">
        <ele>2371</ele>
        <time>2021-09-01T12:15:40.000Z</time>
      </trkpt>
      <trkpt lat="44.40126" lon="6.38629">
        <ele>2372</ele>
        <time>2021-09-01T12:15:41.000Z</time>
      </trkpt>
      <trkpt lat="44.40126" lon="6.38629">
        <ele>2371</ele>
        <time>2021-09-01T12:15:42.000Z</time>
      </trkpt>
      <trkpt lat="44.40125" lon="6.3863">
        <ele>2371</ele>
        <time>2021-09-01T12:15:43.000Z</time>
      </trkpt>
      <trkpt lat="44.40125" lon="6.3863">
        <ele>2371</ele>
        <time>2021-09-01T12:15:44.000Z</time>
      </trkpt>
      <trkpt lat="44.40124" lon="6.3863">
        <ele>2371</ele>
        <time>2021-09-01T12:15:45.000Z</time>
      </trkpt>
      <trkpt lat="44.40124" lon="6.3863">
        <ele>2370</ele>
        <time>2021-09-01T12:15:46.000Z</time>
      </trkpt>
      <trkpt lat="44.40124" lon="6.3863">
        <ele>2370</ele>
        <time>2021-09-01T12:15:47.000Z</time>
      </trkpt>
      <trkpt lat="44.40123" lon="6.38631">
        <ele>2370</ele>
        <time>2021-09-01T12:15:48.000Z</time>
      </trkpt>
      <trkpt lat="44.40121" lon="6.38632">
        <ele>2371</ele>
        <time>2021-09-01T12:15:49.000Z</time>
      </trkpt>
      <trkpt lat="44.4012" lon="6.38632">
        <ele>2371</ele>
        <time>2021-09-01T12:15:50.000Z</time>
      </trkpt>
      <trkpt lat="44.40119" lon="6.38633">
        <ele>2371</ele>
        <time>2021-09-01T12:15:51.000Z</time>
      </trkpt>
      <trkpt lat="44.40117" lon="6.38634">
        <ele>2370</ele>
        <time>2021-09-01T12:15:52.000Z</time>
      </trkpt>
      <trkpt lat="44.40115" lon="6.38634">
        <ele>2370</ele>
        <time>2021-09-01T12:15:53.000Z</time>
      </trkpt>
      <trkpt lat="44.40114" lon="6.38635">
        <ele>2369</ele>
        <time>2021-09-01T12:15:54.000Z</time>
      </trkpt>
      <trkpt lat="44.40112" lon="6.38635">
        <ele>2369</ele>
        <time>2021-09-01T12:15:55.000Z</time>
      </trkpt>
      <trkpt lat="44.40109" lon="6.38636">
        <ele>2368</ele>
        <time>2021-09-01T12:15:56.000Z</time>
      </trkpt>
      <trkpt lat="44.40107" lon="6.38636">
        <ele>2367</ele>
        <time>2021-09-01T12:15:57.000Z</time>
      </trkpt>
      <trkpt lat="44.40104" lon="6.38636">
        <ele>2366</ele>
        <time>2021-09-01T12:15:58.000Z</time>
      </trkpt>
      <trkpt lat="44.401" lon="6.38637">
        <ele>2365</ele>
        <time>2021-09-01T12:15:59.000Z</time>
      </trkpt>
      <trkpt lat="44.40097" lon="6.38637">
        <ele>2364</ele>
        <time>2021-09-01T12:16:00.000Z</time>
      </trkpt>
      <trkpt lat="44.40092" lon="6.38637">
        <ele>2363</ele>
        <time>2021-09-01T12:16:01.000Z</time>
      </trkpt>
      <trkpt lat="44.40088" lon="6.38638">
        <ele>2361</ele>
        <time>2021-09-01T12:16:02.000Z</time>
      </trkpt>
      <trkpt lat="44.40083" lon="6.38638">
        <ele>2361</ele>
        <time>2021-09-01T12:16:03.000Z</time>
      </trkpt>
      <trkpt lat="44.40078" lon="6.38637">
        <ele>2361</ele>
        <time>2021-09-01T12:16:04.000Z</time>
      </trkpt>
      <trkpt lat="44.40073" lon="6.38637">
        <ele>2360</ele>
        <time>2021-09-01T12:16:05.000Z</time>
      </trkpt>
      <trkpt lat="44.40069" lon="6.38637">
        <ele>2360</ele>
        <time>2021-09-01T12:16:06.000Z</time>
      </trkpt>
      <trkpt lat="44.40065" lon="6.38638">
        <ele>2359</ele>
        <time>2021-09-01T12:16:07.000Z</time>
      </trkpt>
      <trkpt lat="44.40061" lon="6.38638">
        <ele>2358</ele>
        <time>2021-09-01T12:16:08.000Z</time>
      </trkpt>
      <trkpt lat="44.40058" lon="6.38638">
        <ele>2358</ele>
        <time>2021-09-01T12:16:09.000Z</time>
      </trkpt>
      <trkpt lat="44.40054" lon="6.38638">
        <ele>2358</ele>
        <time>2021-09-01T12:16:10.000Z</time>
      </trkpt>
      <trkpt lat="44.4005" lon="6.38639">
        <ele>2357</ele>
        <time>2021-09-01T12:16:11.000Z</time>
      </trkpt>
      <trkpt lat="44.40046" lon="6.38639">
        <ele>2357</ele>
        <time>2021-09-01T12:16:12.000Z</time>
      </trkpt>
      <trkpt lat="44.40042" lon="6.38639">
        <ele>2356</ele>
        <time>2021-09-01T12:16:13.000Z</time>
      </trkpt>
      <trkpt lat="44.40037" lon="6.38639">
        <ele>2355</ele>
        <time>2021-09-01T12:16:14.000Z</time>
      </trkpt>
      <trkpt lat="44.40033" lon="6.38639">
        <ele>2354</ele>
        <time>2021-09-01T12:16:15.000Z</time>
      </trkpt>
      <trkpt lat="44.40029" lon="6.3864">
        <ele>2353</ele>
        <time>2021-09-01T12:16:16.000Z</time>
      </trkpt>
      <trkpt lat="44.40025" lon="6.3864">
        <ele>2353</ele>
        <time>2021-09-01T12:16:17.000Z</time>
      </trkpt>
      <trkpt lat="44.40021" lon="6.3864">
        <ele>2352</ele>
        <time>2021-09-01T12:16:18.000Z</time>
      </trkpt>
      <trkpt lat="44.40017" lon="6.38641">
        <ele>2352</ele>
        <time>2021-09-01T12:16:19.000Z</time>
      </trkpt>
      <trkpt lat="44.40015" lon="6.38642">
        <ele>2351</ele>
        <time>2021-09-01T12:16:20.000Z</time>
      </trkpt>
      <trkpt lat="44.40012" lon="6.38643">
        <ele>2350</ele>
        <time>2021-09-01T12:16:21.000Z</time>
      </trkpt>
      <trkpt lat="44.40009" lon="6.38643">
        <ele>2349</ele>
        <time>2021-09-01T12:16:22.000Z</time>
      </trkpt>
      <trkpt lat="44.40008" lon="6.38644">
        <ele>2348</ele>
        <time>2021-09-01T12:16:23.000Z</time>
      </trkpt>
      <trkpt lat="44.40006" lon="6.38644">
        <ele>2347</ele>
        <time>2021-09-01T12:16:24.000Z</time>
      </trkpt>
      <trkpt lat="44.40005" lon="6.38645">
        <ele>2347</ele>
        <time>2021-09-01T12:16:25.000Z</time>
      </trkpt>
      <trkpt lat="44.40003" lon="6.38645">
        <ele>2346</ele>
        <time>2021-09-01T12:16:26.000Z</time>
      </trkpt>
      <trkpt lat="44.40001" lon="6.38646">
        <ele>2346</ele>
        <time>2021-09-01T12:16:27.000Z</time>
      </trkpt>
      <trkpt lat="44.39998" lon="6.38647">
        <ele>2346</ele>
        <time>2021-09-01T12:16:28.000Z</time>
      </trkpt>
      <trkpt lat="44.39995" lon="6.38648">
        <ele>2346</ele>
        <time>2021-09-01T12:16:29.000Z</time>
      </trkpt>
      <trkpt lat="44.39992" lon="6.38648">
        <ele>2345</ele>
        <time>2021-09-01T12:16:30.000Z</time>
      </trkpt>
      <trkpt lat="44.39989" lon="6.38649">
        <ele>2345</ele>
        <time>2021-09-01T12:16:31.000Z</time>
      </trkpt>
      <trkpt lat="44.39987" lon="6.3865">
        <ele>2344</ele>
        <time>2021-09-01T12:16:32.000Z</time>
      </trkpt>
      <trkpt lat="44.39985" lon="6.3865">
        <ele>2343</ele>
        <time>2021-09-01T12:16:33.000Z</time>
      </trkpt>
      <trkpt lat="44.39982" lon="6.38652">
        <ele>2342</ele>
        <time>2021-09-01T12:16:34.000Z</time>
      </trkpt>
      <trkpt lat="44.3998" lon="6.38653">
        <ele>2341</ele>
        <time>2021-09-01T12:16:35.000Z</time>
      </trkpt>
      <trkpt lat="44.39979" lon="6.38653">
        <ele>2340</ele>
        <time>2021-09-01T12:16:36.000Z</time>
      </trkpt>
      <trkpt lat="44.39977" lon="6.38653">
        <ele>2339</ele>
        <time>2021-09-01T12:16:37.000Z</time>
      </trkpt>
      <trkpt lat="44.39976" lon="6.38654">
        <ele>2338</ele>
        <time>2021-09-01T12:16:38.000Z</time>
      </trkpt>
      <trkpt lat="44.39974" lon="6.38655">
        <ele>2338</ele>
        <time>2021-09-01T12:16:39.000Z</time>
      </trkpt>
      <trkpt lat="44.39973" lon="6.38655">
        <ele>2337</ele>
        <time>2021-09-01T12:16:40.000Z</time>
      </trkpt>
      <trkpt lat="44.39972" lon="6.38655">
        <ele>2336</ele>
        <time>2021-09-01T12:16:41.000Z</time>
      </trkpt>
      <trkpt lat="44.39968" lon="6.38657">
        <ele>2336</ele>
        <time>2021-09-01T12:16:42.000Z</time>
      </trkpt>
      <trkpt lat="44.39965" lon="6.38658">
        <ele>2335</ele>
        <time>2021-09-01T12:16:43.000Z</time>
      </trkpt>
      <trkpt lat="44.39963" lon="6.38659">
        <ele>2334</ele>
        <time>2021-09-01T12:16:44.000Z</time>
      </trkpt>
      <trkpt lat="44.39961" lon="6.38661">
        <ele>2333</ele>
        <time>2021-09-01T12:16:45.000Z</time>
      </trkpt>
      <trkpt lat="44.39958" lon="6.38662">
        <ele>2332</ele>
        <time>2021-09-01T12:16:46.000Z</time>
      </trkpt>
      <trkpt lat="44.39955" lon="6.38663">
        <ele>2332</ele>
        <time>2021-09-01T12:16:47.000Z</time>
      </trkpt>
      <trkpt lat="44.39952" lon="6.38664">
        <ele>2333</ele>
        <time>2021-09-01T12:16:48.000Z</time>
      </trkpt>
      <trkpt lat="44.3995" lon="6.38665">
        <ele>2332</ele>
        <time>2021-09-01T12:16:49.000Z</time>
      </trkpt>
      <trkpt lat="44.39948" lon="6.38666">
        <ele>2333</ele>
        <time>2021-09-01T12:16:50.000Z</time>
      </trkpt>
      <trkpt lat="44.39946" lon="6.38668">
        <ele>2333</ele>
        <time>2021-09-01T12:16:51.000Z</time>
      </trkpt>
      <trkpt lat="44.39944" lon="6.38669">
        <ele>2333</ele>
        <time>2021-09-01T12:16:52.000Z</time>
      </trkpt>
      <trkpt lat="44.39943" lon="6.3867">
        <ele>2332</ele>
        <time>2021-09-01T12:16:53.000Z</time>
      </trkpt>
      <trkpt lat="44.39941" lon="6.3867">
        <ele>2332</ele>
        <time>2021-09-01T12:16:54.000Z</time>
      </trkpt>
      <trkpt lat="44.39939" lon="6.38671">
        <ele>2332</ele>
        <time>2021-09-01T12:16:55.000Z</time>
      </trkpt>
      <trkpt lat="44.39937" lon="6.38672">
        <ele>2332</ele>
        <time>2021-09-01T12:16:56.000Z</time>
      </trkpt>
      <trkpt lat="44.39934" lon="6.38674">
        <ele>2330</ele>
        <time>2021-09-01T12:16:57.000Z</time>
      </trkpt>
      <trkpt lat="44.39932" lon="6.38675">
        <ele>2329</ele>
        <time>2021-09-01T12:16:58.000Z</time>
      </trkpt>
      <trkpt lat="44.39931" lon="6.38676">
        <ele>2329</ele>
        <time>2021-09-01T12:16:59.000Z</time>
      </trkpt>
      <trkpt lat="44.39929" lon="6.38677">
        <ele>2329</ele>
        <time>2021-09-01T12:17:00.000Z</time>
      </trkpt>
      <trkpt lat="44.39929" lon="6.38676">
        <ele>2329</ele>
        <time>2021-09-01T12:17:01.000Z</time>
      </trkpt>
      <trkpt lat="44.39929" lon="6.38676">
        <ele>2329</ele>
        <time>2021-09-01T12:17:02.000Z</time>
      </trkpt>
      <trkpt lat="44.39928" lon="6.38676">
        <ele>2328</ele>
        <time>2021-09-01T12:17:03.000Z</time>
      </trkpt>
      <trkpt lat="44.39928" lon="6.38676">
        <ele>2328</ele>
        <time>2021-09-01T12:17:04.000Z</time>
      </trkpt>
      <trkpt lat="44.39928" lon="6.38676">
        <ele>2328</ele>
        <time>2021-09-01T12:17:05.000Z</time>
      </trkpt>
      <trkpt lat="44.39928" lon="6.38676">
        <ele>2328</ele>
        <time>2021-09-01T12:17:06.000Z</time>
      </trkpt>
      <trkpt lat="44.39928" lon="6.38676">
        <ele>2328</ele>
        <time>2021-09-01T12:17:07.000Z</time>
      </trkpt>
      <trkpt lat="44.39927" lon="6.38676">
        <ele>2327</ele>
        <time>2021-09-01T12:17:08.000Z</time>
      </trkpt>
      <trkpt lat="44.39925" lon="6.38677">
        <ele>2327</ele>
        <time>2021-09-01T12:17:09.000Z</time>
      </trkpt>
      <trkpt lat="44.39922" lon="6.38677">
        <ele>2326</ele>
        <time>2021-09-01T12:17:10.000Z</time>
      </trkpt>
      <trkpt lat="44.39918" lon="6.38677">
        <ele>2326</ele>
        <time>2021-09-01T12:17:11.000Z</time>
      </trkpt>
      <trkpt lat="44.39914" lon="6.38678">
        <ele>2326</ele>
        <time>2021-09-01T12:17:12.000Z</time>
      </trkpt>
      <trkpt lat="44.39908" lon="6.38681">
        <ele>2326</ele>
        <time>2021-09-01T12:17:13.000Z</time>
      </trkpt>
      <trkpt lat="44.39904" lon="6.38683">
        <ele>2325</ele>
        <time>2021-09-01T12:17:14.000Z</time>
      </trkpt>
      <trkpt lat="44.39901" lon="6.38685">
        <ele>2325</ele>
        <time>2021-09-01T12:17:15.000Z</time>
      </trkpt>
      <trkpt lat="44.39897" lon="6.38688">
        <ele>2324</ele>
        <time>2021-09-01T12:17:16.000Z</time>
      </trkpt>
      <trkpt lat="44.39894" lon="6.3869">
        <ele>2324</ele>
        <time>2021-09-01T12:17:17.000Z</time>
      </trkpt>
      <trkpt lat="44.39891" lon="6.38692">
        <ele>2323</ele>
        <time>2021-09-01T12:17:18.000Z</time>
      </trkpt>
      <trkpt lat="44.39887" lon="6.38694">
        <ele>2323</ele>
        <time>2021-09-01T12:17:19.000Z</time>
      </trkpt>
      <trkpt lat="44.39882" lon="6.38696">
        <ele>2321</ele>
        <time>2021-09-01T12:17:20.000Z</time>
      </trkpt>
      <trkpt lat="44.39878" lon="6.38698">
        <ele>2321</ele>
        <time>2021-09-01T12:17:21.000Z</time>
      </trkpt>
      <trkpt lat="44.39873" lon="6.38699">
        <ele>2321</ele>
        <time>2021-09-01T12:17:22.000Z</time>
      </trkpt>
      <trkpt lat="44.39868" lon="6.387">
        <ele>2320</ele>
        <time>2021-09-01T12:17:23.000Z</time>
      </trkpt>
      <trkpt lat="44.39863" lon="6.38701">
        <ele>2321</ele>
        <time>2021-09-01T12:17:24.000Z</time>
      </trkpt>
      <trkpt lat="44.39859" lon="6.38704">
        <ele>2319</ele>
        <time>2021-09-01T12:17:25.000Z</time>
      </trkpt>
      <trkpt lat="44.39856" lon="6.38706">
        <ele>2318</ele>
        <time>2021-09-01T12:17:26.000Z</time>
      </trkpt>
      <trkpt lat="44.39853" lon="6.38708">
        <ele>2319</ele>
        <time>2021-09-01T12:17:27.000Z</time>
      </trkpt>
      <trkpt lat="44.3985" lon="6.38709">
        <ele>2319</ele>
        <time>2021-09-01T12:17:28.000Z</time>
      </trkpt>
      <trkpt lat="44.39848" lon="6.3871">
        <ele>2319</ele>
        <time>2021-09-01T12:17:29.000Z</time>
      </trkpt>
      <trkpt lat="44.39845" lon="6.38711">
        <ele>2319</ele>
        <time>2021-09-01T12:17:30.000Z</time>
      </trkpt>
      <trkpt lat="44.39843" lon="6.38712">
        <ele>2319</ele>
        <time>2021-09-01T12:17:31.000Z</time>
      </trkpt>
      <trkpt lat="44.3984" lon="6.38712">
        <ele>2318</ele>
        <time>2021-09-01T12:17:32.000Z</time>
      </trkpt>
      <trkpt lat="44.39838" lon="6.38713">
        <ele>2317</ele>
        <time>2021-09-01T12:17:33.000Z</time>
      </trkpt>
      <trkpt lat="44.39835" lon="6.38714">
        <ele>2316</ele>
        <time>2021-09-01T12:17:34.000Z</time>
      </trkpt>
      <trkpt lat="44.3983" lon="6.38715">
        <ele>2315</ele>
        <time>2021-09-01T12:17:35.000Z</time>
      </trkpt>
      <trkpt lat="44.39826" lon="6.38716">
        <ele>2314</ele>
        <time>2021-09-01T12:17:36.000Z</time>
      </trkpt>
      <trkpt lat="44.39822" lon="6.38717">
        <ele>2314</ele>
        <time>2021-09-01T12:17:37.000Z</time>
      </trkpt>
      <trkpt lat="44.39819" lon="6.38717">
        <ele>2313</ele>
        <time>2021-09-01T12:17:38.000Z</time>
      </trkpt>
      <trkpt lat="44.39816" lon="6.38718">
        <ele>2312</ele>
        <time>2021-09-01T12:17:39.000Z</time>
      </trkpt>
      <trkpt lat="44.39813" lon="6.38719">
        <ele>2311</ele>
        <time>2021-09-01T12:17:40.000Z</time>
      </trkpt>
      <trkpt lat="44.3981" lon="6.3872">
        <ele>2310</ele>
        <time>2021-09-01T12:17:41.000Z</time>
      </trkpt>
      <trkpt lat="44.39807" lon="6.38721">
        <ele>2309</ele>
        <time>2021-09-01T12:17:42.000Z</time>
      </trkpt>
      <trkpt lat="44.39804" lon="6.38722">
        <ele>2308</ele>
        <time>2021-09-01T12:17:43.000Z</time>
      </trkpt>
      <trkpt lat="44.398" lon="6.38723">
        <ele>2308</ele>
        <time>2021-09-01T12:17:44.000Z</time>
      </trkpt>
      <trkpt lat="44.39797" lon="6.38725">
        <ele>2307</ele>
        <time>2021-09-01T12:17:45.000Z</time>
      </trkpt>
      <trkpt lat="44.39794" lon="6.38728">
        <ele>2306</ele>
        <time>2021-09-01T12:17:46.000Z</time>
      </trkpt>
      <trkpt lat="44.39791" lon="6.3873">
        <ele>2305</ele>
        <time>2021-09-01T12:17:47.000Z</time>
      </trkpt>
      <trkpt lat="44.39787" lon="6.38731">
        <ele>2305</ele>
        <time>2021-09-01T12:17:48.000Z</time>
      </trkpt>
      <trkpt lat="44.39783" lon="6.38732">
        <ele>2304</ele>
        <time>2021-09-01T12:17:49.000Z</time>
      </trkpt>
      <trkpt lat="44.39778" lon="6.3873">
        <ele>2303</ele>
        <time>2021-09-01T12:17:50.000Z</time>
      </trkpt>
      <trkpt lat="44.39774" lon="6.3873">
        <ele>2303</ele>
        <time>2021-09-01T12:17:51.000Z</time>
      </trkpt>
      <trkpt lat="44.39771" lon="6.3873">
        <ele>2303</ele>
        <time>2021-09-01T12:17:52.000Z</time>
      </trkpt>
      <trkpt lat="44.39769" lon="6.38729">
        <ele>2302</ele>
        <time>2021-09-01T12:17:53.000Z</time>
      </trkpt>
      <trkpt lat="44.39768" lon="6.38729">
        <ele>2302</ele>
        <time>2021-09-01T12:17:54.000Z</time>
      </trkpt>
      <trkpt lat="44.39766" lon="6.38728">
        <ele>2303</ele>
        <time>2021-09-01T12:17:55.000Z</time>
      </trkpt>
      <trkpt lat="44.39765" lon="6.38727">
        <ele>2302</ele>
        <time>2021-09-01T12:17:56.000Z</time>
      </trkpt>
      <trkpt lat="44.39764" lon="6.38727">
        <ele>2303</ele>
        <time>2021-09-01T12:17:57.000Z</time>
      </trkpt>
      <trkpt lat="44.39762" lon="6.38727">
        <ele>2303</ele>
        <time>2021-09-01T12:17:58.000Z</time>
      </trkpt>
      <trkpt lat="44.3976" lon="6.38726">
        <ele>2301</ele>
        <time>2021-09-01T12:17:59.000Z</time>
      </trkpt>
      <trkpt lat="44.39758" lon="6.38726">
        <ele>2300</ele>
        <time>2021-09-01T12:18:00.000Z</time>
      </trkpt>
      <trkpt lat="44.39756" lon="6.38726">
        <ele>2300</ele>
        <time>2021-09-01T12:18:01.000Z</time>
      </trkpt>
      <trkpt lat="44.39754" lon="6.38726">
        <ele>2300</ele>
        <time>2021-09-01T12:18:02.000Z</time>
      </trkpt>
      <trkpt lat="44.39751" lon="6.38726">
        <ele>2299</ele>
        <time>2021-09-01T12:18:03.000Z</time>
      </trkpt>
      <trkpt lat="44.39748" lon="6.38728">
        <ele>2300</ele>
        <time>2021-09-01T12:18:04.000Z</time>
      </trkpt>
      <trkpt lat="44.39746" lon="6.38729">
        <ele>2300</ele>
        <time>2021-09-01T12:18:05.000Z</time>
      </trkpt>
      <trkpt lat="44.39744" lon="6.3873">
        <ele>2299</ele>
        <time>2021-09-01T12:18:06.000Z</time>
      </trkpt>
      <trkpt lat="44.39742" lon="6.38732">
        <ele>2299</ele>
        <time>2021-09-01T12:18:07.000Z</time>
      </trkpt>
      <trkpt lat="44.39742" lon="6.38735">
        <ele>2296</ele>
        <time>2021-09-01T12:18:08.000Z</time>
      </trkpt>
      <trkpt lat="44.39741" lon="6.38738">
        <ele>2296</ele>
        <time>2021-09-01T12:18:09.000Z</time>
      </trkpt>
      <trkpt lat="44.3974" lon="6.38742">
        <ele>2295</ele>
        <time>2021-09-01T12:18:10.000Z</time>
      </trkpt>
      <trkpt lat="44.39739" lon="6.38745">
        <ele>2295</ele>
        <time>2021-09-01T12:18:11.000Z</time>
      </trkpt>
      <trkpt lat="44.39736" lon="6.38747">
        <ele>2295</ele>
        <time>2021-09-01T12:18:12.000Z</time>
      </trkpt>
      <trkpt lat="44.39733" lon="6.38748">
        <ele>2295</ele>
        <time>2021-09-01T12:18:13.000Z</time>
      </trkpt>
      <trkpt lat="44.39729" lon="6.38749">
        <ele>2295</ele>
        <time>2021-09-01T12:18:14.000Z</time>
      </trkpt>
      <trkpt lat="44.39726" lon="6.38751">
        <ele>2295</ele>
        <time>2021-09-01T12:18:15.000Z</time>
      </trkpt>
      <trkpt lat="44.39723" lon="6.38753">
        <ele>2295</ele>
        <time>2021-09-01T12:18:16.000Z</time>
      </trkpt>
      <trkpt lat="44.3972" lon="6.38754">
        <ele>2296</ele>
        <time>2021-09-01T12:18:17.000Z</time>
      </trkpt>
      <trkpt lat="44.39717" lon="6.38755">
        <ele>2295</ele>
        <time>2021-09-01T12:18:18.000Z</time>
      </trkpt>
      <trkpt lat="44.39715" lon="6.38756">
        <ele>2295</ele>
        <time>2021-09-01T12:18:19.000Z</time>
      </trkpt>
      <trkpt lat="44.39712" lon="6.38755">
        <ele>2295</ele>
        <time>2021-09-01T12:18:20.000Z</time>
      </trkpt>
      <trkpt lat="44.39709" lon="6.38755">
        <ele>2295</ele>
        <time>2021-09-01T12:18:21.000Z</time>
      </trkpt>
      <trkpt lat="44.39706" lon="6.38756">
        <ele>2295</ele>
        <time>2021-09-01T12:18:22.000Z</time>
      </trkpt>
      <trkpt lat="44.39703" lon="6.38757">
        <ele>2295</ele>
        <time>2021-09-01T12:18:23.000Z</time>
      </trkpt>
      <trkpt lat="44.397" lon="6.38758">
        <ele>2296</ele>
        <time>2021-09-01T12:18:24.000Z</time>
      </trkpt>
      <trkpt lat="44.39696" lon="6.38759">
        <ele>2296</ele>
        <time>2021-09-01T12:18:25.000Z</time>
      </trkpt>
      <trkpt lat="44.39692" lon="6.38761">
        <ele>2296</ele>
        <time>2021-09-01T12:18:26.000Z</time>
      </trkpt>
      <trkpt lat="44.39689" lon="6.38763">
        <ele>2297</ele>
        <time>2021-09-01T12:18:27.000Z</time>
      </trkpt>
      <trkpt lat="44.39685" lon="6.38763">
        <ele>2296</ele>
        <time>2021-09-01T12:18:28.000Z</time>
      </trkpt>
      <trkpt lat="44.39674" lon="6.38775">
        <ele>2303</ele>
        <time>2021-09-01T12:19:30.000Z</time>
      </trkpt>
      <trkpt lat="44.39673" lon="6.38778">
        <ele>2303</ele>
        <time>2021-09-01T12:19:31.000Z</time>
      </trkpt>
      <trkpt lat="44.39672" lon="6.3878">
        <ele>2303</ele>
        <time>2021-09-01T12:19:32.000Z</time>
      </trkpt>
      <trkpt lat="44.3967" lon="6.38782">
        <ele>2303</ele>
        <time>2021-09-01T12:19:33.000Z</time>
      </trkpt>
      <trkpt lat="44.39668" lon="6.38784">
        <ele>2303</ele>
        <time>2021-09-01T12:19:34.000Z</time>
      </trkpt>
      <trkpt lat="44.39666" lon="6.38787">
        <ele>2303</ele>
        <time>2021-09-01T12:19:35.000Z</time>
      </trkpt>
      <trkpt lat="44.39665" lon="6.3879">
        <ele>2303</ele>
        <time>2021-09-01T12:19:36.000Z</time>
      </trkpt>
      <trkpt lat="44.39663" lon="6.38793">
        <ele>2303</ele>
        <time>2021-09-01T12:19:37.000Z</time>
      </trkpt>
      <trkpt lat="44.39662" lon="6.38796">
        <ele>2303</ele>
        <time>2021-09-01T12:19:38.000Z</time>
      </trkpt>
      <trkpt lat="44.3966" lon="6.38798">
        <ele>2303</ele>
        <time>2021-09-01T12:19:39.000Z</time>
      </trkpt>
      <trkpt lat="44.39658" lon="6.388">
        <ele>2303</ele>
        <time>2021-09-01T12:19:40.000Z</time>
      </trkpt>
      <trkpt lat="44.39656" lon="6.38802">
        <ele>2302</ele>
        <time>2021-09-01T12:19:41.000Z</time>
      </trkpt>
      <trkpt lat="44.39654" lon="6.38804">
        <ele>2302</ele>
        <time>2021-09-01T12:19:42.000Z</time>
      </trkpt>
      <trkpt lat="44.39652" lon="6.38806">
        <ele>2302</ele>
        <time>2021-09-01T12:19:43.000Z</time>
      </trkpt>
      <trkpt lat="44.39649" lon="6.38808">
        <ele>2302</ele>
        <time>2021-09-01T12:19:44.000Z</time>
      </trkpt>
      <trkpt lat="44.39647" lon="6.38811">
        <ele>2301</ele>
        <time>2021-09-01T12:19:45.000Z</time>
      </trkpt>
      <trkpt lat="44.39645" lon="6.38813">
        <ele>2301</ele>
        <time>2021-09-01T12:19:46.000Z</time>
      </trkpt>
      <trkpt lat="44.39641" lon="6.38814">
        <ele>2300</ele>
        <time>2021-09-01T12:19:47.000Z</time>
      </trkpt>
      <trkpt lat="44.39636" lon="6.38816">
        <ele>2298</ele>
        <time>2021-09-01T12:19:48.000Z</time>
      </trkpt>
      <trkpt lat="44.39632" lon="6.38818">
        <ele>2299</ele>
        <time>2021-09-01T12:19:49.000Z</time>
      </trkpt>
      <trkpt lat="44.39628" lon="6.38819">
        <ele>2300</ele>
        <time>2021-09-01T12:19:50.000Z</time>
      </trkpt>
      <trkpt lat="44.39622" lon="6.38819">
        <ele>2300</ele>
        <time>2021-09-01T12:19:51.000Z</time>
      </trkpt>
      <trkpt lat="44.39617" lon="6.3882">
        <ele>2300</ele>
        <time>2021-09-01T12:19:52.000Z</time>
      </trkpt>
      <trkpt lat="44.39611" lon="6.38821">
        <ele>2299</ele>
        <time>2021-09-01T12:19:53.000Z</time>
      </trkpt>
      <trkpt lat="44.39606" lon="6.38823">
        <ele>2299</ele>
        <time>2021-09-01T12:19:54.000Z</time>
      </trkpt>
      <trkpt lat="44.39601" lon="6.38827">
        <ele>2299</ele>
        <time>2021-09-01T12:19:55.000Z</time>
      </trkpt>
      <trkpt lat="44.39595" lon="6.3883">
        <ele>2299</ele>
        <time>2021-09-01T12:19:56.000Z</time>
      </trkpt>
      <trkpt lat="44.3959" lon="6.38834">
        <ele>2298</ele>
        <time>2021-09-01T12:19:57.000Z</time>
      </trkpt>
      <trkpt lat="44.39585" lon="6.38838">
        <ele>2298</ele>
        <time>2021-09-01T12:19:58.000Z</time>
      </trkpt>
      <trkpt lat="44.39579" lon="6.38842">
        <ele>2298</ele>
        <time>2021-09-01T12:19:59.000Z</time>
      </trkpt>
      <trkpt lat="44.39574" lon="6.38847">
        <ele>2298</ele>
        <time>2021-09-01T12:20:00.000Z</time>
      </trkpt>
      <trkpt lat="44.39568" lon="6.38852">
        <ele>2298</ele>
        <time>2021-09-01T12:20:01.000Z</time>
      </trkpt>
      <trkpt lat="44.39563" lon="6.38857">
        <ele>2297</ele>
        <time>2021-09-01T12:20:02.000Z</time>
      </trkpt>
      <trkpt lat="44.39557" lon="6.38861">
        <ele>2297</ele>
        <time>2021-09-01T12:20:03.000Z</time>
      </trkpt>
      <trkpt lat="44.39552" lon="6.38865">
        <ele>2297</ele>
        <time>2021-09-01T12:20:04.000Z</time>
      </trkpt>
      <trkpt lat="44.39546" lon="6.38869">
        <ele>2297</ele>
        <time>2021-09-01T12:20:05.000Z</time>
      </trkpt>
      <trkpt lat="44.39541" lon="6.38873">
        <ele>2297</ele>
        <time>2021-09-01T12:20:06.000Z</time>
      </trkpt>
      <trkpt lat="44.39536" lon="6.38877">
        <ele>2296</ele>
        <time>2021-09-01T12:20:07.000Z</time>
      </trkpt>
      <trkpt lat="44.39531" lon="6.3888">
        <ele>2297</ele>
        <time>2021-09-01T12:20:08.000Z</time>
      </trkpt>
      <trkpt lat="44.39528" lon="6.38885">
        <ele>2297</ele>
        <time>2021-09-01T12:20:09.000Z</time>
      </trkpt>
      <trkpt lat="44.39525" lon="6.38889">
        <ele>2296</ele>
        <time>2021-09-01T12:20:10.000Z</time>
      </trkpt>
      <trkpt lat="44.39523" lon="6.38893">
        <ele>2296</ele>
        <time>2021-09-01T12:20:11.000Z</time>
      </trkpt>
      <trkpt lat="44.39521" lon="6.38897">
        <ele>2297</ele>
        <time>2021-09-01T12:20:12.000Z</time>
      </trkpt>
      <trkpt lat="44.39519" lon="6.38901">
        <ele>2297</ele>
        <time>2021-09-01T12:20:13.000Z</time>
      </trkpt>
      <trkpt lat="44.39519" lon="6.38906">
        <ele>2297</ele>
        <time>2021-09-01T12:20:14.000Z</time>
      </trkpt>
      <trkpt lat="44.3952" lon="6.38912">
        <ele>2296</ele>
        <time>2021-09-01T12:20:15.000Z</time>
      </trkpt>
      <trkpt lat="44.3952" lon="6.38917">
        <ele>2296</ele>
        <time>2021-09-01T12:20:16.000Z</time>
      </trkpt>
      <trkpt lat="44.3952" lon="6.38921">
        <ele>2296</ele>
        <time>2021-09-01T12:20:17.000Z</time>
      </trkpt>
      <trkpt lat="44.39521" lon="6.38926">
        <ele>2296</ele>
        <time>2021-09-01T12:20:18.000Z</time>
      </trkpt>
      <trkpt lat="44.39521" lon="6.3893">
        <ele>2296</ele>
        <time>2021-09-01T12:20:19.000Z</time>
      </trkpt>
      <trkpt lat="44.39521" lon="6.38935">
        <ele>2296</ele>
        <time>2021-09-01T12:20:20.000Z</time>
      </trkpt>
      <trkpt lat="44.39521" lon="6.38939">
        <ele>2296</ele>
        <time>2021-09-01T12:20:21.000Z</time>
      </trkpt>
      <trkpt lat="44.39521" lon="6.38943">
        <ele>2296</ele>
        <time>2021-09-01T12:20:22.000Z</time>
      </trkpt>
      <trkpt lat="44.39521" lon="6.38948">
        <ele>2295</ele>
        <time>2021-09-01T12:20:23.000Z</time>
      </trkpt>
      <trkpt lat="44.39521" lon="6.38953">
        <ele>2295</ele>
        <time>2021-09-01T12:20:24.000Z</time>
      </trkpt>
      <trkpt lat="44.3952" lon="6.38957">
        <ele>2294</ele>
        <time>2021-09-01T12:20:25.000Z</time>
      </trkpt>
      <trkpt lat="44.3952" lon="6.38962">
        <ele>2294</ele>
        <time>2021-09-01T12:20:26.000Z</time>
      </trkpt>
      <trkpt lat="44.39519" lon="6.38967">
        <ele>2294</ele>
        <time>2021-09-01T12:20:27.000Z</time>
      </trkpt>
      <trkpt lat="44.39519" lon="6.38971">
        <ele>2293</ele>
        <time>2021-09-01T12:20:28.000Z</time>
      </trkpt>
      <trkpt lat="44.39519" lon="6.38976">
        <ele>2293</ele>
        <time>2021-09-01T12:20:29.000Z</time>
      </trkpt>
      <trkpt lat="44.39519" lon="6.38981">
        <ele>2294</ele>
        <time>2021-09-01T12:20:30.000Z</time>
      </trkpt>
      <trkpt lat="44.39519" lon="6.38985">
        <ele>2294</ele>
        <time>2021-09-01T12:20:31.000Z</time>
      </trkpt>
      <trkpt lat="44.39519" lon="6.3899">
        <ele>2295</ele>
        <time>2021-09-01T12:20:32.000Z</time>
      </trkpt>
      <trkpt lat="44.39519" lon="6.38996">
        <ele>2295</ele>
        <time>2021-09-01T12:20:33.000Z</time>
      </trkpt>
      <trkpt lat="44.39519" lon="6.39001">
        <ele>2295</ele>
        <time>2021-09-01T12:20:34.000Z</time>
      </trkpt>
      <trkpt lat="44.3952" lon="6.39005">
        <ele>2295</ele>
        <time>2021-09-01T12:20:35.000Z</time>
      </trkpt>
      <trkpt lat="44.3952" lon="6.3901">
        <ele>2295</ele>
        <time>2021-09-01T12:20:36.000Z</time>
      </trkpt>
      <trkpt lat="44.3952" lon="6.39014">
        <ele>2296</ele>
        <time>2021-09-01T12:20:37.000Z</time>
      </trkpt>
      <trkpt lat="44.3952" lon="6.3902">
        <ele>2296</ele>
        <time>2021-09-01T12:20:38.000Z</time>
      </trkpt>
      <trkpt lat="44.39521" lon="6.39024">
        <ele>2296</ele>
        <time>2021-09-01T12:20:39.000Z</time>
      </trkpt>
      <trkpt lat="44.39521" lon="6.39029">
        <ele>2296</ele>
        <time>2021-09-01T12:20:40.000Z</time>
      </trkpt>
      <trkpt lat="44.39521" lon="6.39034">
        <ele>2296</ele>
        <time>2021-09-01T12:20:41.000Z</time>
      </trkpt>
      <trkpt lat="44.39521" lon="6.39039">
        <ele>2296</ele>
        <time>2021-09-01T12:20:42.000Z</time>
      </trkpt>
      <trkpt lat="44.39521" lon="6.39044">
        <ele>2296</ele>
        <time>2021-09-01T12:20:43.000Z</time>
      </trkpt>
      <trkpt lat="44.39522" lon="6.39048">
        <ele>2296</ele>
        <time>2021-09-01T12:20:44.000Z</time>
      </trkpt>
      <trkpt lat="44.39522" lon="6.39052">
        <ele>2296</ele>
        <time>2021-09-01T12:20:45.000Z</time>
      </trkpt>
      <trkpt lat="44.39522" lon="6.39057">
        <ele>2296</ele>
        <time>2021-09-01T12:20:46.000Z</time>
      </trkpt>
      <trkpt lat="44.39522" lon="6.39061">
        <ele>2296</ele>
        <time>2021-09-01T12:20:47.000Z</time>
      </trkpt>
      <trkpt lat="44.39522" lon="6.39067">
        <ele>2296</ele>
        <time>2021-09-01T12:20:48.000Z</time>
      </trkpt>
      <trkpt lat="44.39522" lon="6.39072">
        <ele>2296</ele>
        <time>2021-09-01T12:20:49.000Z</time>
      </trkpt>
      <trkpt lat="44.39522" lon="6.39077">
        <ele>2296</ele>
        <time>2021-09-01T12:20:50.000Z</time>
      </trkpt>
      <trkpt lat="44.39522" lon="6.39082">
        <ele>2297</ele>
        <time>2021-09-01T12:20:51.000Z</time>
      </trkpt>
      <trkpt lat="44.39523" lon="6.39086">
        <ele>2297</ele>
        <time>2021-09-01T12:20:52.000Z</time>
      </trkpt>
      <trkpt lat="44.39523" lon="6.39089">
        <ele>2297</ele>
        <time>2021-09-01T12:20:53.000Z</time>
      </trkpt>
      <trkpt lat="44.39524" lon="6.39093">
        <ele>2298</ele>
        <time>2021-09-01T12:20:54.000Z</time>
      </trkpt>
      <trkpt lat="44.39525" lon="6.39096">
        <ele>2298</ele>
        <time>2021-09-01T12:20:55.000Z</time>
      </trkpt>
      <trkpt lat="44.39525" lon="6.391">
        <ele>2298</ele>
        <time>2021-09-01T12:20:56.000Z</time>
      </trkpt>
      <trkpt lat="44.39526" lon="6.39103">
        <ele>2298</ele>
        <time>2021-09-01T12:20:57.000Z</time>
      </trkpt>
      <trkpt lat="44.39526" lon="6.39106">
        <ele>2298</ele>
        <time>2021-09-01T12:20:58.000Z</time>
      </trkpt>
      <trkpt lat="44.39526" lon="6.3911">
        <ele>2298</ele>
        <time>2021-09-01T12:20:59.000Z</time>
      </trkpt>
      <trkpt lat="44.39526" lon="6.39113">
        <ele>2298</ele>
        <time>2021-09-01T12:21:00.000Z</time>
      </trkpt>
      <trkpt lat="44.39527" lon="6.39116">
        <ele>2298</ele>
        <time>2021-09-01T12:21:01.000Z</time>
      </trkpt>
      <trkpt lat="44.39527" lon="6.39117">
        <ele>2298</ele>
        <time>2021-09-01T12:21:02.000Z</time>
      </trkpt>
      <trkpt lat="44.39528" lon="6.39119">
        <ele>2299</ele>
        <time>2021-09-01T12:21:03.000Z</time>
      </trkpt>
      <trkpt lat="44.39528" lon="6.3912">
        <ele>2299</ele>
        <time>2021-09-01T12:21:04.000Z</time>
      </trkpt>
      <trkpt lat="44.39529" lon="6.39121">
        <ele>2298</ele>
        <time>2021-09-01T12:21:05.000Z</time>
      </trkpt>
      <trkpt lat="44.3953" lon="6.3912">
        <ele>2298</ele>
        <time>2021-09-01T12:21:06.000Z</time>
      </trkpt>
      <trkpt lat="44.3953" lon="6.3912">
        <ele>2298</ele>
        <time>2021-09-01T12:21:07.000Z</time>
      </trkpt>
      <trkpt lat="44.39529" lon="6.3912">
        <ele>2298</ele>
        <time>2021-09-01T12:21:08.000Z</time>
      </trkpt>
      <trkpt lat="44.3953" lon="6.3912">
        <ele>2298</ele>
        <time>2021-09-01T12:21:09.000Z</time>
      </trkpt>
      <trkpt lat="44.3953" lon="6.3912">
        <ele>2298</ele>
        <time>2021-09-01T12:21:10.000Z</time>
      </trkpt>
      <trkpt lat="44.3953" lon="6.3912">
        <ele>2297</ele>
        <time>2021-09-01T12:21:11.000Z</time>
      </trkpt>
      <trkpt lat="44.3953" lon="6.3912">
        <ele>2298</ele>
        <time>2021-09-01T12:21:12.000Z</time>
      </trkpt>
      <trkpt lat="44.3953" lon="6.3912">
        <ele>2298</ele>
        <time>2021-09-01T12:21:13.000Z</time>
      </trkpt>
      <trkpt lat="44.3953" lon="6.3912">
        <ele>2298</ele>
        <time>2021-09-01T12:21:14.000Z</time>
      </trkpt>
      <trkpt lat="44.3953" lon="6.3912">
        <ele>2298</ele>
        <time>2021-09-01T12:21:15.000Z</time>
      </trkpt>
      <trkpt lat="44.3953" lon="6.3912">
        <ele>2298</ele>
        <time>2021-09-01T12:21:16.000Z</time>
      </trkpt>
      <trkpt lat="44.3953" lon="6.3912">
        <ele>2299</ele>
        <time>2021-09-01T12:21:17.000Z</time>
      </trkpt>
      <trkpt lat="44.3953" lon="6.3912">
        <ele>2298</ele>
        <time>2021-09-01T12:21:18.000Z</time>
      </trkpt>
      <trkpt lat="44.3953" lon="6.3912">
        <ele>2298</ele>
        <time>2021-09-01T12:21:19.000Z</time>
      </trkpt>
      <trkpt lat="44.3953" lon="6.3912">
        <ele>2299</ele>
        <time>2021-09-01T12:21:20.000Z</time>
      </trkpt>
      <trkpt lat="44.3953" lon="6.3912">
        <ele>2299</ele>
        <time>2021-09-01T12:21:21.000Z</time>
      </trkpt>
      <trkpt lat="44.3953" lon="6.3912">
        <ele>2299</ele>
        <time>2021-09-01T12:21:22.000Z</time>
      </trkpt>
      <trkpt lat="44.3953" lon="6.3912">
        <ele>2299</ele>
        <time>2021-09-01T12:21:23.000Z</time>
      </trkpt>
      <trkpt lat="44.39531" lon="6.39121">
        <ele>2299</ele>
        <time>2021-09-01T12:21:24.000Z</time>
      </trkpt>
      <trkpt lat="44.39531" lon="6.39121">
        <ele>2300</ele>
        <time>2021-09-01T12:21:25.000Z</time>
      </trkpt>
      <trkpt lat="44.39531" lon="6.39121">
        <ele>2300</ele>
        <time>2021-09-01T12:21:26.000Z</time>
      </trkpt>
      <trkpt lat="44.39531" lon="6.39121">
        <ele>2300</ele>
        <time>2021-09-01T12:21:27.000Z</time>
      </trkpt>
      <trkpt lat="44.3953" lon="6.39122">
        <ele>2301</ele>
        <time>2021-09-01T12:21:28.000Z</time>
      </trkpt>
      <trkpt lat="44.3953" lon="6.39122">
        <ele>2301</ele>
        <time>2021-09-01T12:21:29.000Z</time>
      </trkpt>
      <trkpt lat="44.3953" lon="6.39122">
        <ele>2301</ele>
        <time>2021-09-01T12:21:30.000Z</time>
      </trkpt>
      <trkpt lat="44.3953" lon="6.39122">
        <ele>2302</ele>
        <time>2021-09-01T12:21:31.000Z</time>
      </trkpt>
      <trkpt lat="44.3953" lon="6.39122">
        <ele>2302</ele>
        <time>2021-09-01T12:21:32.000Z</time>
      </trkpt>
      <trkpt lat="44.3953" lon="6.39122">
        <ele>2302</ele>
        <time>2021-09-01T12:21:33.000Z</time>
      </trkpt>
      <trkpt lat="44.3953" lon="6.39122">
        <ele>2302</ele>
        <time>2021-09-01T12:21:34.000Z</time>
      </trkpt>
      <trkpt lat="44.3953" lon="6.39122">
        <ele>2302</ele>
        <time>2021-09-01T12:21:35.000Z</time>
      </trkpt>
      <trkpt lat="44.3953" lon="6.39122">
        <ele>2302</ele>
        <time>2021-09-01T12:21:36.000Z</time>
      </trkpt>
      <trkpt lat="44.3953" lon="6.39123">
        <ele>2302</ele>
        <time>2021-09-01T12:21:37.000Z</time>
      </trkpt>
      <trkpt lat="44.3953" lon="6.39122">
        <ele>2302</ele>
        <time>2021-09-01T12:21:38.000Z</time>
      </trkpt>
      <trkpt lat="44.3953" lon="6.39122">
        <ele>2303</ele>
        <time>2021-09-01T12:21:39.000Z</time>
      </trkpt>
      <trkpt lat="44.3953" lon="6.39122">
        <ele>2303</ele>
        <time>2021-09-01T12:21:40.000Z</time>
      </trkpt>
      <trkpt lat="44.3953" lon="6.39123">
        <ele>2303</ele>
        <time>2021-09-01T12:21:41.000Z</time>
      </trkpt>
      <trkpt lat="44.3953" lon="6.39123">
        <ele>2303</ele>
        <time>2021-09-01T12:21:42.000Z</time>
      </trkpt>
      <trkpt lat="44.3953" lon="6.39123">
        <ele>2303</ele>
        <time>2021-09-01T12:21:43.000Z</time>
      </trkpt>
      <trkpt lat="44.3953" lon="6.39123">
        <ele>2303</ele>
        <time>2021-09-01T12:21:44.000Z</time>
      </trkpt>
      <trkpt lat="44.3953" lon="6.39123">
        <ele>2303</ele>
        <time>2021-09-01T12:21:45.000Z</time>
      </trkpt>
      <trkpt lat="44.3953" lon="6.39123">
        <ele>2303</ele>
        <time>2021-09-01T12:21:46.000Z</time>
      </trkpt>
      <trkpt lat="44.3953" lon="6.39123">
        <ele>2303</ele>
        <time>2021-09-01T12:21:47.000Z</time>
      </trkpt>
      <trkpt lat="44.3953" lon="6.39123">
        <ele>2303</ele>
        <time>2021-09-01T12:21:48.000Z</time>
      </trkpt>
      <trkpt lat="44.3953" lon="6.39123">
        <ele>2303</ele>
        <time>2021-09-01T12:21:49.000Z</time>
      </trkpt>
      <trkpt lat="44.3953" lon="6.39123">
        <ele>2303</ele>
        <time>2021-09-01T12:21:50.000Z</time>
      </trkpt>
      <trkpt lat="44.3953" lon="6.39123">
        <ele>2303</ele>
        <time>2021-09-01T12:21:51.000Z</time>
      </trkpt>
      <trkpt lat="44.3953" lon="6.39123">
        <ele>2303</ele>
        <time>2021-09-01T12:21:52.000Z</time>
      </trkpt>
      <trkpt lat="44.3953" lon="6.39123">
        <ele>2303</ele>
        <time>2021-09-01T12:21:53.000Z</time>
      </trkpt>
      <trkpt lat="44.3953" lon="6.39123">
        <ele>2303</ele>
        <time>2021-09-01T12:21:54.000Z</time>
      </trkpt>
      <trkpt lat="44.3953" lon="6.39123">
        <ele>2303</ele>
        <time>2021-09-01T12:21:55.000Z</time>
      </trkpt>
      <trkpt lat="44.3953" lon="6.39123">
        <ele>2303</ele>
        <time>2021-09-01T12:21:56.000Z</time>
      </trkpt>
      <trkpt lat="44.3953" lon="6.39123">
        <ele>2303</ele>
        <time>2021-09-01T12:21:57.000Z</time>
      </trkpt>
      <trkpt lat="44.3953" lon="6.39123">
        <ele>2303</ele>
        <time>2021-09-01T12:21:58.000Z</time>
      </trkpt>
      <trkpt lat="44.3953" lon="6.39123">
        <ele>2303</ele>
        <time>2021-09-01T12:21:59.000Z</time>
      </trkpt>
      <trkpt lat="44.3953" lon="6.39123">
        <ele>2303</ele>
        <time>2021-09-01T12:22:00.000Z</time>
      </trkpt>
      <trkpt lat="44.39529" lon="6.39123">
        <ele>2303</ele>
        <time>2021-09-01T12:22:01.000Z</time>
      </trkpt>
      <trkpt lat="44.39529" lon="6.39123">
        <ele>2303</ele>
        <time>2021-09-01T12:22:02.000Z</time>
      </trkpt>
      <trkpt lat="44.39529" lon="6.39123">
        <ele>2303</ele>
        <time>2021-09-01T12:22:03.000Z</time>
      </trkpt>
      <trkpt lat="44.39529" lon="6.39124">
        <ele>2303</ele>
        <time>2021-09-01T12:22:04.000Z</time>
      </trkpt>
      <trkpt lat="44.39529" lon="6.39124">
        <ele>2303</ele>
        <time>2021-09-01T12:22:05.000Z</time>
      </trkpt>
      <trkpt lat="44.39529" lon="6.39124">
        <ele>2303</ele>
        <time>2021-09-01T12:22:06.000Z</time>
      </trkpt>
      <trkpt lat="44.39529" lon="6.39125">
        <ele>2303</ele>
        <time>2021-09-01T12:22:07.000Z</time>
      </trkpt>
      <trkpt lat="44.39529" lon="6.39127">
        <ele>2303</ele>
        <time>2021-09-01T12:22:08.000Z</time>
      </trkpt>
      <trkpt lat="44.39528" lon="6.39128">
        <ele>2303</ele>
        <time>2021-09-01T12:22:09.000Z</time>
      </trkpt>
      <trkpt lat="44.39528" lon="6.39129">
        <ele>2303</ele>
        <time>2021-09-01T12:22:10.000Z</time>
      </trkpt>
      <trkpt lat="44.39526" lon="6.39129">
        <ele>2304</ele>
        <time>2021-09-01T12:22:11.000Z</time>
      </trkpt>
      <trkpt lat="44.39525" lon="6.3913">
        <ele>2304</ele>
        <time>2021-09-01T12:22:12.000Z</time>
      </trkpt>
      <trkpt lat="44.39524" lon="6.3913">
        <ele>2302</ele>
        <time>2021-09-01T12:25:00.000Z</time>
      </trkpt>
      <trkpt lat="44.3951" lon="6.39153">
        <ele>2301</ele>
        <time>2021-09-01T12:29:28.000Z</time>
      </trkpt>
      <trkpt lat="44.39508" lon="6.39152">
        <ele>2301</ele>
        <time>2021-09-01T12:29:29.000Z</time>
      </trkpt>
      <trkpt lat="44.39507" lon="6.3915">
        <ele>2301</ele>
        <time>2021-09-01T12:29:30.000Z</time>
      </trkpt>
      <trkpt lat="44.39505" lon="6.39148">
        <ele>2301</ele>
        <time>2021-09-01T12:29:31.000Z</time>
      </trkpt>
      <trkpt lat="44.39504" lon="6.39147">
        <ele>2301</ele>
        <time>2021-09-01T12:29:32.000Z</time>
      </trkpt>
      <trkpt lat="44.39502" lon="6.39146">
        <ele>2300</ele>
        <time>2021-09-01T12:29:33.000Z</time>
      </trkpt>
      <trkpt lat="44.395" lon="6.39144">
        <ele>2300</ele>
        <time>2021-09-01T12:29:34.000Z</time>
      </trkpt>
      <trkpt lat="44.39497" lon="6.39144">
        <ele>2300</ele>
        <time>2021-09-01T12:29:35.000Z</time>
      </trkpt>
      <trkpt lat="44.39495" lon="6.39143">
        <ele>2300</ele>
        <time>2021-09-01T12:29:36.000Z</time>
      </trkpt>
      <trkpt lat="44.39493" lon="6.39145">
        <ele>2299</ele>
        <time>2021-09-01T12:29:37.000Z</time>
      </trkpt>
      <trkpt lat="44.39491" lon="6.39145">
        <ele>2298</ele>
        <time>2021-09-01T12:29:38.000Z</time>
      </trkpt>
      <trkpt lat="44.39488" lon="6.39145">
        <ele>2298</ele>
        <time>2021-09-01T12:29:39.000Z</time>
      </trkpt>
      <trkpt lat="44.39485" lon="6.39146">
        <ele>2297</ele>
        <time>2021-09-01T12:29:40.000Z</time>
      </trkpt>
      <trkpt lat="44.39482" lon="6.39146">
        <ele>2297</ele>
        <time>2021-09-01T12:29:41.000Z</time>
      </trkpt>
      <trkpt lat="44.39479" lon="6.39146">
        <ele>2296</ele>
        <time>2021-09-01T12:29:42.000Z</time>
      </trkpt>
      <trkpt lat="44.39475" lon="6.39147">
        <ele>2297</ele>
        <time>2021-09-01T12:29:43.000Z</time>
      </trkpt>
      <trkpt lat="44.39472" lon="6.39147">
        <ele>2297</ele>
        <time>2021-09-01T12:29:44.000Z</time>
      </trkpt>
      <trkpt lat="44.39469" lon="6.39147">
        <ele>2297</ele>
        <time>2021-09-01T12:29:45.000Z</time>
      </trkpt>
      <trkpt lat="44.39467" lon="6.39147">
        <ele>2297</ele>
        <time>2021-09-01T12:29:46.000Z</time>
      </trkpt>
      <trkpt lat="44.39466" lon="6.39147">
        <ele>2297</ele>
        <time>2021-09-01T12:29:47.000Z</time>
      </trkpt>
      <trkpt lat="44.39463" lon="6.39148">
        <ele>2297</ele>
        <time>2021-09-01T12:29:48.000Z</time>
      </trkpt>
      <trkpt lat="44.39461" lon="6.39148">
        <ele>2297</ele>
        <time>2021-09-01T12:29:49.000Z</time>
      </trkpt>
      <trkpt lat="44.39458" lon="6.39148">
        <ele>2297</ele>
        <time>2021-09-01T12:29:50.000Z</time>
      </trkpt>
      <trkpt lat="44.39455" lon="6.39148">
        <ele>2296</ele>
        <time>2021-09-01T12:29:51.000Z</time>
      </trkpt>
      <trkpt lat="44.39452" lon="6.39148">
        <ele>2296</ele>
        <time>2021-09-01T12:29:52.000Z</time>
      </trkpt>
      <trkpt lat="44.3945" lon="6.39148">
        <ele>2296</ele>
        <time>2021-09-01T12:29:53.000Z</time>
      </trkpt>
      <trkpt lat="44.39447" lon="6.39148">
        <ele>2295</ele>
        <time>2021-09-01T12:29:54.000Z</time>
      </trkpt>
      <trkpt lat="44.39443" lon="6.39148">
        <ele>2295</ele>
        <time>2021-09-01T12:29:55.000Z</time>
      </trkpt>
      <trkpt lat="44.3944" lon="6.39148">
        <ele>2295</ele>
        <time>2021-09-01T12:29:56.000Z</time>
      </trkpt>
      <trkpt lat="44.39436" lon="6.39147">
        <ele>2295</ele>
        <time>2021-09-01T12:29:57.000Z</time>
      </trkpt>
      <trkpt lat="44.39433" lon="6.39148">
        <ele>2294</ele>
        <time>2021-09-01T12:29:58.000Z</time>
      </trkpt>
      <trkpt lat="44.3943" lon="6.39148">
        <ele>2294</ele>
        <time>2021-09-01T12:29:59.000Z</time>
      </trkpt>
      <trkpt lat="44.39427" lon="6.39148">
        <ele>2293</ele>
        <time>2021-09-01T12:30:00.000Z</time>
      </trkpt>
      <trkpt lat="44.39424" lon="6.39148">
        <ele>2293</ele>
        <time>2021-09-01T12:30:01.000Z</time>
      </trkpt>
      <trkpt lat="44.39421" lon="6.39148">
        <ele>2292</ele>
        <time>2021-09-01T12:30:02.000Z</time>
      </trkpt>
      <trkpt lat="44.39417" lon="6.39148">
        <ele>2292</ele>
        <time>2021-09-01T12:30:03.000Z</time>
      </trkpt>
      <trkpt lat="44.39414" lon="6.39148">
        <ele>2291</ele>
        <time>2021-09-01T12:30:04.000Z</time>
      </trkpt>
      <trkpt lat="44.3941" lon="6.39148">
        <ele>2290</ele>
        <time>2021-09-01T12:30:05.000Z</time>
      </trkpt>
      <trkpt lat="44.39405" lon="6.39149">
        <ele>2289</ele>
        <time>2021-09-01T12:30:06.000Z</time>
      </trkpt>
      <trkpt lat="44.39401" lon="6.39149">
        <ele>2288</ele>
        <time>2021-09-01T12:30:07.000Z</time>
      </trkpt>
      <trkpt lat="44.39397" lon="6.3915">
        <ele>2287</ele>
        <time>2021-09-01T12:30:08.000Z</time>
      </trkpt>
      <trkpt lat="44.39393" lon="6.39151">
        <ele>2287</ele>
        <time>2021-09-01T12:30:09.000Z</time>
      </trkpt>
      <trkpt lat="44.39389" lon="6.39151">
        <ele>2287</ele>
        <time>2021-09-01T12:30:10.000Z</time>
      </trkpt>
      <trkpt lat="44.39386" lon="6.39152">
        <ele>2286</ele>
        <time>2021-09-01T12:30:11.000Z</time>
      </trkpt>
      <trkpt lat="44.39383" lon="6.39152">
        <ele>2285</ele>
        <time>2021-09-01T12:30:12.000Z</time>
      </trkpt>
      <trkpt lat="44.3938" lon="6.39153">
        <ele>2285</ele>
        <time>2021-09-01T12:30:13.000Z</time>
      </trkpt>
      <trkpt lat="44.39376" lon="6.39154">
        <ele>2284</ele>
        <time>2021-09-01T12:30:14.000Z</time>
      </trkpt>
      <trkpt lat="44.39373" lon="6.39155">
        <ele>2283</ele>
        <time>2021-09-01T12:30:15.000Z</time>
      </trkpt>
      <trkpt lat="44.3937" lon="6.39156">
        <ele>2283</ele>
        <time>2021-09-01T12:30:16.000Z</time>
      </trkpt>
      <trkpt lat="44.39367" lon="6.39157">
        <ele>2283</ele>
        <time>2021-09-01T12:30:17.000Z</time>
      </trkpt>
      <trkpt lat="44.39364" lon="6.39159">
        <ele>2282</ele>
        <time>2021-09-01T12:30:18.000Z</time>
      </trkpt>
      <trkpt lat="44.39361" lon="6.3916">
        <ele>2282</ele>
        <time>2021-09-01T12:30:19.000Z</time>
      </trkpt>
      <trkpt lat="44.39357" lon="6.39161">
        <ele>2281</ele>
        <time>2021-09-01T12:30:20.000Z</time>
      </trkpt>
      <trkpt lat="44.39352" lon="6.39162">
        <ele>2280</ele>
        <time>2021-09-01T12:30:21.000Z</time>
      </trkpt>
      <trkpt lat="44.39348" lon="6.39163">
        <ele>2279</ele>
        <time>2021-09-01T12:30:22.000Z</time>
      </trkpt>
      <trkpt lat="44.39344" lon="6.39165">
        <ele>2278</ele>
        <time>2021-09-01T12:30:23.000Z</time>
      </trkpt>
      <trkpt lat="44.3934" lon="6.39167">
        <ele>2278</ele>
        <time>2021-09-01T12:30:24.000Z</time>
      </trkpt>
      <trkpt lat="44.39336" lon="6.39168">
        <ele>2277</ele>
        <time>2021-09-01T12:30:25.000Z</time>
      </trkpt>
      <trkpt lat="44.39332" lon="6.3917">
        <ele>2276</ele>
        <time>2021-09-01T12:30:26.000Z</time>
      </trkpt>
      <trkpt lat="44.39328" lon="6.39172">
        <ele>2275</ele>
        <time>2021-09-01T12:30:27.000Z</time>
      </trkpt>
      <trkpt lat="44.39325" lon="6.39174">
        <ele>2275</ele>
        <time>2021-09-01T12:30:28.000Z</time>
      </trkpt>
      <trkpt lat="44.39321" lon="6.39176">
        <ele>2274</ele>
        <time>2021-09-01T12:30:29.000Z</time>
      </trkpt>
      <trkpt lat="44.39317" lon="6.39177">
        <ele>2273</ele>
        <time>2021-09-01T12:30:30.000Z</time>
      </trkpt>
      <trkpt lat="44.39313" lon="6.39178">
        <ele>2273</ele>
        <time>2021-09-01T12:30:31.000Z</time>
      </trkpt>
      <trkpt lat="44.3931" lon="6.39179">
        <ele>2273</ele>
        <time>2021-09-01T12:30:32.000Z</time>
      </trkpt>
      <trkpt lat="44.39307" lon="6.39181">
        <ele>2273</ele>
        <time>2021-09-01T12:30:33.000Z</time>
      </trkpt>
      <trkpt lat="44.39304" lon="6.39181">
        <ele>2272</ele>
        <time>2021-09-01T12:30:34.000Z</time>
      </trkpt>
      <trkpt lat="44.393" lon="6.39181">
        <ele>2271</ele>
        <time>2021-09-01T12:30:35.000Z</time>
      </trkpt>
      <trkpt lat="44.39296" lon="6.39181">
        <ele>2272</ele>
        <time>2021-09-01T12:30:36.000Z</time>
      </trkpt>
      <trkpt lat="44.39291" lon="6.3918">
        <ele>2271</ele>
        <time>2021-09-01T12:30:37.000Z</time>
      </trkpt>
      <trkpt lat="44.39287" lon="6.39178">
        <ele>2271</ele>
        <time>2021-09-01T12:30:38.000Z</time>
      </trkpt>
      <trkpt lat="44.39282" lon="6.39177">
        <ele>2270</ele>
        <time>2021-09-01T12:30:39.000Z</time>
      </trkpt>
      <trkpt lat="44.39278" lon="6.39176">
        <ele>2270</ele>
        <time>2021-09-01T12:30:40.000Z</time>
      </trkpt>
      <trkpt lat="44.39273" lon="6.39174">
        <ele>2269</ele>
        <time>2021-09-01T12:30:41.000Z</time>
      </trkpt>
      <trkpt lat="44.39269" lon="6.39172">
        <ele>2269</ele>
        <time>2021-09-01T12:30:42.000Z</time>
      </trkpt>
      <trkpt lat="44.39265" lon="6.3917">
        <ele>2269</ele>
        <time>2021-09-01T12:30:43.000Z</time>
      </trkpt>
      <trkpt lat="44.39261" lon="6.39169">
        <ele>2269</ele>
        <time>2021-09-01T12:30:44.000Z</time>
      </trkpt>
      <trkpt lat="44.39257" lon="6.39169">
        <ele>2269</ele>
        <time>2021-09-01T12:30:45.000Z</time>
      </trkpt>
      <trkpt lat="44.39252" lon="6.3917">
        <ele>2269</ele>
        <time>2021-09-01T12:30:46.000Z</time>
      </trkpt>
      <trkpt lat="44.39249" lon="6.39174">
        <ele>2266</ele>
        <time>2021-09-01T12:30:47.000Z</time>
      </trkpt>
      <trkpt lat="44.39245" lon="6.39176">
        <ele>2266</ele>
        <time>2021-09-01T12:30:48.000Z</time>
      </trkpt>
      <trkpt lat="44.3924" lon="6.39177">
        <ele>2265</ele>
        <time>2021-09-01T12:30:49.000Z</time>
      </trkpt>
      <trkpt lat="44.39236" lon="6.39179">
        <ele>2265</ele>
        <time>2021-09-01T12:30:50.000Z</time>
      </trkpt>
      <trkpt lat="44.39231" lon="6.39181">
        <ele>2264</ele>
        <time>2021-09-01T12:30:51.000Z</time>
      </trkpt>
      <trkpt lat="44.39227" lon="6.39182">
        <ele>2264</ele>
        <time>2021-09-01T12:30:52.000Z</time>
      </trkpt>
      <trkpt lat="44.39222" lon="6.39184">
        <ele>2263</ele>
        <time>2021-09-01T12:30:53.000Z</time>
      </trkpt>
      <trkpt lat="44.39218" lon="6.39186">
        <ele>2262</ele>
        <time>2021-09-01T12:30:54.000Z</time>
      </trkpt>
      <trkpt lat="44.39213" lon="6.39187">
        <ele>2261</ele>
        <time>2021-09-01T12:30:55.000Z</time>
      </trkpt>
      <trkpt lat="44.39209" lon="6.39188">
        <ele>2261</ele>
        <time>2021-09-01T12:30:56.000Z</time>
      </trkpt>
      <trkpt lat="44.39204" lon="6.39188">
        <ele>2260</ele>
        <time>2021-09-01T12:30:57.000Z</time>
      </trkpt>
      <trkpt lat="44.392" lon="6.39189">
        <ele>2259</ele>
        <time>2021-09-01T12:30:58.000Z</time>
      </trkpt>
      <trkpt lat="44.39195" lon="6.3919">
        <ele>2259</ele>
        <time>2021-09-01T12:30:59.000Z</time>
      </trkpt>
      <trkpt lat="44.39191" lon="6.39191">
        <ele>2258</ele>
        <time>2021-09-01T12:31:00.000Z</time>
      </trkpt>
      <trkpt lat="44.39186" lon="6.39192">
        <ele>2257</ele>
        <time>2021-09-01T12:31:01.000Z</time>
      </trkpt>
      <trkpt lat="44.39181" lon="6.39194">
        <ele>2256</ele>
        <time>2021-09-01T12:31:02.000Z</time>
      </trkpt>
      <trkpt lat="44.39176" lon="6.39195">
        <ele>2255</ele>
        <time>2021-09-01T12:31:03.000Z</time>
      </trkpt>
      <trkpt lat="44.39172" lon="6.39196">
        <ele>2254</ele>
        <time>2021-09-01T12:31:04.000Z</time>
      </trkpt>
      <trkpt lat="44.39167" lon="6.39197">
        <ele>2253</ele>
        <time>2021-09-01T12:31:05.000Z</time>
      </trkpt>
      <trkpt lat="44.39163" lon="6.39198">
        <ele>2252</ele>
        <time>2021-09-01T12:31:06.000Z</time>
      </trkpt>
      <trkpt lat="44.39159" lon="6.39198">
        <ele>2252</ele>
        <time>2021-09-01T12:31:07.000Z</time>
      </trkpt>
      <trkpt lat="44.39155" lon="6.39199">
        <ele>2251</ele>
        <time>2021-09-01T12:31:08.000Z</time>
      </trkpt>
      <trkpt lat="44.39152" lon="6.392">
        <ele>2251</ele>
        <time>2021-09-01T12:31:09.000Z</time>
      </trkpt>
      <trkpt lat="44.39148" lon="6.39202">
        <ele>2250</ele>
        <time>2021-09-01T12:31:10.000Z</time>
      </trkpt>
      <trkpt lat="44.39144" lon="6.39203">
        <ele>2249</ele>
        <time>2021-09-01T12:31:11.000Z</time>
      </trkpt>
      <trkpt lat="44.39141" lon="6.39205">
        <ele>2248</ele>
        <time>2021-09-01T12:31:12.000Z</time>
      </trkpt>
      <trkpt lat="44.39137" lon="6.39206">
        <ele>2247</ele>
        <time>2021-09-01T12:31:13.000Z</time>
      </trkpt>
      <trkpt lat="44.39133" lon="6.39207">
        <ele>2246</ele>
        <time>2021-09-01T12:31:14.000Z</time>
      </trkpt>
      <trkpt lat="44.3913" lon="6.39209">
        <ele>2245</ele>
        <time>2021-09-01T12:31:15.000Z</time>
      </trkpt>
      <trkpt lat="44.39126" lon="6.3921">
        <ele>2244</ele>
        <time>2021-09-01T12:31:16.000Z</time>
      </trkpt>
      <trkpt lat="44.39122" lon="6.39211">
        <ele>2243</ele>
        <time>2021-09-01T12:31:17.000Z</time>
      </trkpt>
      <trkpt lat="44.39118" lon="6.39214">
        <ele>2242</ele>
        <time>2021-09-01T12:31:18.000Z</time>
      </trkpt>
      <trkpt lat="44.39114" lon="6.39215">
        <ele>2241</ele>
        <time>2021-09-01T12:31:19.000Z</time>
      </trkpt>
      <trkpt lat="44.39109" lon="6.39218">
        <ele>2239</ele>
        <time>2021-09-01T12:31:20.000Z</time>
      </trkpt>
      <trkpt lat="44.39104" lon="6.39219">
        <ele>2238</ele>
        <time>2021-09-01T12:31:21.000Z</time>
      </trkpt>
      <trkpt lat="44.391" lon="6.39221">
        <ele>2238</ele>
        <time>2021-09-01T12:31:22.000Z</time>
      </trkpt>
      <trkpt lat="44.39096" lon="6.39222">
        <ele>2237</ele>
        <time>2021-09-01T12:31:23.000Z</time>
      </trkpt>
      <trkpt lat="44.39093" lon="6.39224">
        <ele>2236</ele>
        <time>2021-09-01T12:31:24.000Z</time>
      </trkpt>
      <trkpt lat="44.39089" lon="6.39224">
        <ele>2235</ele>
        <time>2021-09-01T12:31:25.000Z</time>
      </trkpt>
      <trkpt lat="44.39086" lon="6.39225">
        <ele>2235</ele>
        <time>2021-09-01T12:31:26.000Z</time>
      </trkpt>
      <trkpt lat="44.39083" lon="6.39227">
        <ele>2233</ele>
        <time>2021-09-01T12:31:27.000Z</time>
      </trkpt>
      <trkpt lat="44.39079" lon="6.3923">
        <ele>2233</ele>
        <time>2021-09-01T12:31:28.000Z</time>
      </trkpt>
      <trkpt lat="44.39076" lon="6.39233">
        <ele>2231</ele>
        <time>2021-09-01T12:31:29.000Z</time>
      </trkpt>
      <trkpt lat="44.39074" lon="6.39239">
        <ele>2229</ele>
        <time>2021-09-01T12:31:30.000Z</time>
      </trkpt>
      <trkpt lat="44.39071" lon="6.39243">
        <ele>2228</ele>
        <time>2021-09-01T12:31:31.000Z</time>
      </trkpt>
      <trkpt lat="44.39071" lon="6.39245">
        <ele>2228</ele>
        <time>2021-09-01T12:31:32.000Z</time>
      </trkpt>
      <trkpt lat="44.39072" lon="6.39249">
        <ele>2228</ele>
        <time>2021-09-01T12:31:33.000Z</time>
      </trkpt>
      <trkpt lat="44.39072" lon="6.39252">
        <ele>2229</ele>
        <time>2021-09-01T12:31:34.000Z</time>
      </trkpt>
      <trkpt lat="44.39074" lon="6.39253">
        <ele>2228</ele>
        <time>2021-09-01T12:31:35.000Z</time>
      </trkpt>
      <trkpt lat="44.39076" lon="6.39254">
        <ele>2227</ele>
        <time>2021-09-01T12:31:36.000Z</time>
      </trkpt>
      <trkpt lat="44.39076" lon="6.39255">
        <ele>2226</ele>
        <time>2021-09-01T12:31:37.000Z</time>
      </trkpt>
      <trkpt lat="44.39078" lon="6.39257">
        <ele>2225</ele>
        <time>2021-09-01T12:31:38.000Z</time>
      </trkpt>
      <trkpt lat="44.39083" lon="6.39259">
        <ele>2224</ele>
        <time>2021-09-01T12:31:39.000Z</time>
      </trkpt>
      <trkpt lat="44.39088" lon="6.39263">
        <ele>2225</ele>
        <time>2021-09-01T12:31:40.000Z</time>
      </trkpt>
      <trkpt lat="44.39092" lon="6.39266">
        <ele>2226</ele>
        <time>2021-09-01T12:31:41.000Z</time>
      </trkpt>
      <trkpt lat="44.39095" lon="6.39269">
        <ele>2224</ele>
        <time>2021-09-01T12:31:42.000Z</time>
      </trkpt>
      <trkpt lat="44.39099" lon="6.39272">
        <ele>2223</ele>
        <time>2021-09-01T12:31:43.000Z</time>
      </trkpt>
      <trkpt lat="44.39103" lon="6.39274">
        <ele>2222</ele>
        <time>2021-09-01T12:31:44.000Z</time>
      </trkpt>
      <trkpt lat="44.39106" lon="6.39277">
        <ele>2221</ele>
        <time>2021-09-01T12:31:45.000Z</time>
      </trkpt>
      <trkpt lat="44.3911" lon="6.3928">
        <ele>2219</ele>
        <time>2021-09-01T12:31:46.000Z</time>
      </trkpt>
      <trkpt lat="44.39113" lon="6.39282">
        <ele>2219</ele>
        <time>2021-09-01T12:31:47.000Z</time>
      </trkpt>
      <trkpt lat="44.39116" lon="6.39284">
        <ele>2218</ele>
        <time>2021-09-01T12:31:48.000Z</time>
      </trkpt>
      <trkpt lat="44.39118" lon="6.39287">
        <ele>2217</ele>
        <time>2021-09-01T12:31:49.000Z</time>
      </trkpt>
      <trkpt lat="44.39118" lon="6.3929">
        <ele>2214</ele>
        <time>2021-09-01T12:31:50.000Z</time>
      </trkpt>
      <trkpt lat="44.39116" lon="6.39296">
        <ele>2213</ele>
        <time>2021-09-01T12:31:51.000Z</time>
      </trkpt>
      <trkpt lat="44.39115" lon="6.39299">
        <ele>2213</ele>
        <time>2021-09-01T12:31:52.000Z</time>
      </trkpt>
      <trkpt lat="44.39112" lon="6.39302">
        <ele>2211</ele>
        <time>2021-09-01T12:31:53.000Z</time>
      </trkpt>
      <trkpt lat="44.39107" lon="6.39304">
        <ele>2208</ele>
        <time>2021-09-01T12:31:54.000Z</time>
      </trkpt>
      <trkpt lat="44.39099" lon="6.39304">
        <ele>2212</ele>
        <time>2021-09-01T12:31:55.000Z</time>
      </trkpt>
      <trkpt lat="44.3909" lon="6.39305">
        <ele>2214</ele>
        <time>2021-09-01T12:31:56.000Z</time>
      </trkpt>
      <trkpt lat="44.39083" lon="6.39306">
        <ele>2213</ele>
        <time>2021-09-01T12:31:57.000Z</time>
      </trkpt>
      <trkpt lat="44.39075" lon="6.39308">
        <ele>2213</ele>
        <time>2021-09-01T12:31:58.000Z</time>
      </trkpt>
      <trkpt lat="44.39069" lon="6.39309">
        <ele>2211</ele>
        <time>2021-09-01T12:31:59.000Z</time>
      </trkpt>
      <trkpt lat="44.39062" lon="6.3931">
        <ele>2210</ele>
        <time>2021-09-01T12:32:00.000Z</time>
      </trkpt>
      <trkpt lat="44.39056" lon="6.39311">
        <ele>2209</ele>
        <time>2021-09-01T12:32:01.000Z</time>
      </trkpt>
      <trkpt lat="44.3905" lon="6.39312">
        <ele>2209</ele>
        <time>2021-09-01T12:32:02.000Z</time>
      </trkpt>
      <trkpt lat="44.39045" lon="6.39313">
        <ele>2208</ele>
        <time>2021-09-01T12:32:03.000Z</time>
      </trkpt>
      <trkpt lat="44.39039" lon="6.39313">
        <ele>2207</ele>
        <time>2021-09-01T12:32:04.000Z</time>
      </trkpt>
      <trkpt lat="44.39035" lon="6.39315">
        <ele>2206</ele>
        <time>2021-09-01T12:32:05.000Z</time>
      </trkpt>
      <trkpt lat="44.3903" lon="6.39317">
        <ele>2205</ele>
        <time>2021-09-01T12:32:06.000Z</time>
      </trkpt>
      <trkpt lat="44.39028" lon="6.39319">
        <ele>2203</ele>
        <time>2021-09-01T12:32:07.000Z</time>
      </trkpt>
      <trkpt lat="44.39024" lon="6.39322">
        <ele>2202</ele>
        <time>2021-09-01T12:32:08.000Z</time>
      </trkpt>
      <trkpt lat="44.3902" lon="6.39324">
        <ele>2202</ele>
        <time>2021-09-01T12:32:09.000Z</time>
      </trkpt>
      <trkpt lat="44.39017" lon="6.39326">
        <ele>2202</ele>
        <time>2021-09-01T12:32:10.000Z</time>
      </trkpt>
      <trkpt lat="44.39013" lon="6.39328">
        <ele>2201</ele>
        <time>2021-09-01T12:32:11.000Z</time>
      </trkpt>
      <trkpt lat="44.39008" lon="6.39331">
        <ele>2201</ele>
        <time>2021-09-01T12:32:12.000Z</time>
      </trkpt>
      <trkpt lat="44.39004" lon="6.39333">
        <ele>2200</ele>
        <time>2021-09-01T12:32:13.000Z</time>
      </trkpt>
      <trkpt lat="44.39001" lon="6.39337">
        <ele>2200</ele>
        <time>2021-09-01T12:32:14.000Z</time>
      </trkpt>
      <trkpt lat="44.38997" lon="6.3934">
        <ele>2200</ele>
        <time>2021-09-01T12:32:15.000Z</time>
      </trkpt>
      <trkpt lat="44.38993" lon="6.39344">
        <ele>2199</ele>
        <time>2021-09-01T12:32:16.000Z</time>
      </trkpt>
      <trkpt lat="44.38989" lon="6.39348">
        <ele>2198</ele>
        <time>2021-09-01T12:32:17.000Z</time>
      </trkpt>
      <trkpt lat="44.38985" lon="6.39352">
        <ele>2196</ele>
        <time>2021-09-01T12:32:18.000Z</time>
      </trkpt>
      <trkpt lat="44.38981" lon="6.39358">
        <ele>2195</ele>
        <time>2021-09-01T12:32:19.000Z</time>
      </trkpt>
      <trkpt lat="44.38977" lon="6.39363">
        <ele>2194</ele>
        <time>2021-09-01T12:32:20.000Z</time>
      </trkpt>
      <trkpt lat="44.38974" lon="6.39369">
        <ele>2192</ele>
        <time>2021-09-01T12:32:21.000Z</time>
      </trkpt>
      <trkpt lat="44.38971" lon="6.39374">
        <ele>2192</ele>
        <time>2021-09-01T12:32:22.000Z</time>
      </trkpt>
      <trkpt lat="44.38967" lon="6.39379">
        <ele>2191</ele>
        <time>2021-09-01T12:32:23.000Z</time>
      </trkpt>
      <trkpt lat="44.38964" lon="6.39384">
        <ele>2190</ele>
        <time>2021-09-01T12:32:24.000Z</time>
      </trkpt>
      <trkpt lat="44.38962" lon="6.3939">
        <ele>2189</ele>
        <time>2021-09-01T12:32:25.000Z</time>
      </trkpt>
      <trkpt lat="44.38961" lon="6.39395">
        <ele>2191</ele>
        <time>2021-09-01T12:32:26.000Z</time>
      </trkpt>
      <trkpt lat="44.38959" lon="6.394">
        <ele>2193</ele>
        <time>2021-09-01T12:32:27.000Z</time>
      </trkpt>
      <trkpt lat="44.38958" lon="6.39402">
        <ele>2192</ele>
        <time>2021-09-01T12:32:28.000Z</time>
      </trkpt>
      <trkpt lat="44.38957" lon="6.39405">
        <ele>2193</ele>
        <time>2021-09-01T12:32:29.000Z</time>
      </trkpt>
      <trkpt lat="44.38957" lon="6.39407">
        <ele>2192</ele>
        <time>2021-09-01T12:32:30.000Z</time>
      </trkpt>
      <trkpt lat="44.38957" lon="6.3941">
        <ele>2192</ele>
        <time>2021-09-01T12:32:31.000Z</time>
      </trkpt>
      <trkpt lat="44.38957" lon="6.39413">
        <ele>2192</ele>
        <time>2021-09-01T12:32:32.000Z</time>
      </trkpt>
      <trkpt lat="44.38959" lon="6.39415">
        <ele>2192</ele>
        <time>2021-09-01T12:32:33.000Z</time>
      </trkpt>
      <trkpt lat="44.38961" lon="6.39414">
        <ele>2191</ele>
        <time>2021-09-01T12:32:34.000Z</time>
      </trkpt>
      <trkpt lat="44.38963" lon="6.39415">
        <ele>2190</ele>
        <time>2021-09-01T12:32:35.000Z</time>
      </trkpt>
      <trkpt lat="44.38966" lon="6.39418">
        <ele>2190</ele>
        <time>2021-09-01T12:32:36.000Z</time>
      </trkpt>
      <trkpt lat="44.38968" lon="6.3942">
        <ele>2190</ele>
        <time>2021-09-01T12:32:37.000Z</time>
      </trkpt>
      <trkpt lat="44.38971" lon="6.39422">
        <ele>2189</ele>
        <time>2021-09-01T12:32:38.000Z</time>
      </trkpt>
      <trkpt lat="44.38974" lon="6.39424">
        <ele>2189</ele>
        <time>2021-09-01T12:32:39.000Z</time>
      </trkpt>
      <trkpt lat="44.38978" lon="6.39426">
        <ele>2188</ele>
        <time>2021-09-01T12:32:40.000Z</time>
      </trkpt>
      <trkpt lat="44.38982" lon="6.39427">
        <ele>2188</ele>
        <time>2021-09-01T12:32:41.000Z</time>
      </trkpt>
      <trkpt lat="44.38985" lon="6.39429">
        <ele>2187</ele>
        <time>2021-09-01T12:32:42.000Z</time>
      </trkpt>
      <trkpt lat="44.38989" lon="6.3943">
        <ele>2186</ele>
        <time>2021-09-01T12:32:43.000Z</time>
      </trkpt>
      <trkpt lat="44.38992" lon="6.39431">
        <ele>2186</ele>
        <time>2021-09-01T12:32:44.000Z</time>
      </trkpt>
      <trkpt lat="44.38996" lon="6.39433">
        <ele>2185</ele>
        <time>2021-09-01T12:32:45.000Z</time>
      </trkpt>
      <trkpt lat="44.38999" lon="6.39434">
        <ele>2185</ele>
        <time>2021-09-01T12:32:46.000Z</time>
      </trkpt>
      <trkpt lat="44.39002" lon="6.39436">
        <ele>2184</ele>
        <time>2021-09-01T12:32:47.000Z</time>
      </trkpt>
      <trkpt lat="44.39006" lon="6.39438">
        <ele>2183</ele>
        <time>2021-09-01T12:32:48.000Z</time>
      </trkpt>
      <trkpt lat="44.39009" lon="6.39439">
        <ele>2182</ele>
        <time>2021-09-01T12:32:49.000Z</time>
      </trkpt>
      <trkpt lat="44.39012" lon="6.39441">
        <ele>2182</ele>
        <time>2021-09-01T12:32:50.000Z</time>
      </trkpt>
      <trkpt lat="44.39016" lon="6.39443">
        <ele>2181</ele>
        <time>2021-09-01T12:32:51.000Z</time>
      </trkpt>
      <trkpt lat="44.39019" lon="6.39444">
        <ele>2181</ele>
        <time>2021-09-01T12:32:52.000Z</time>
      </trkpt>
      <trkpt lat="44.39022" lon="6.39445">
        <ele>2180</ele>
        <time>2021-09-01T12:32:53.000Z</time>
      </trkpt>
      <trkpt lat="44.39026" lon="6.39446">
        <ele>2180</ele>
        <time>2021-09-01T12:32:54.000Z</time>
      </trkpt>
      <trkpt lat="44.39029" lon="6.39446">
        <ele>2180</ele>
        <time>2021-09-01T12:32:55.000Z</time>
      </trkpt>
      <trkpt lat="44.39032" lon="6.39446">
        <ele>2179</ele>
        <time>2021-09-01T12:32:56.000Z</time>
      </trkpt>
      <trkpt lat="44.39036" lon="6.39445">
        <ele>2178</ele>
        <time>2021-09-01T12:32:57.000Z</time>
      </trkpt>
      <trkpt lat="44.39039" lon="6.39445">
        <ele>2178</ele>
        <time>2021-09-01T12:32:58.000Z</time>
      </trkpt>
      <trkpt lat="44.39043" lon="6.39446">
        <ele>2177</ele>
        <time>2021-09-01T12:32:59.000Z</time>
      </trkpt>
      <trkpt lat="44.39046" lon="6.39446">
        <ele>2176</ele>
        <time>2021-09-01T12:33:00.000Z</time>
      </trkpt>
      <trkpt lat="44.3905" lon="6.39447">
        <ele>2175</ele>
        <time>2021-09-01T12:33:01.000Z</time>
      </trkpt>
      <trkpt lat="44.39054" lon="6.39448">
        <ele>2174</ele>
        <time>2021-09-01T12:33:02.000Z</time>
      </trkpt>
      <trkpt lat="44.39057" lon="6.3945">
        <ele>2173</ele>
        <time>2021-09-01T12:33:03.000Z</time>
      </trkpt>
      <trkpt lat="44.39062" lon="6.39452">
        <ele>2172</ele>
        <time>2021-09-01T12:33:04.000Z</time>
      </trkpt>
      <trkpt lat="44.39066" lon="6.39455">
        <ele>2171</ele>
        <time>2021-09-01T12:33:05.000Z</time>
      </trkpt>
      <trkpt lat="44.39071" lon="6.39457">
        <ele>2170</ele>
        <time>2021-09-01T12:33:06.000Z</time>
      </trkpt>
      <trkpt lat="44.39076" lon="6.3946">
        <ele>2169</ele>
        <time>2021-09-01T12:33:07.000Z</time>
      </trkpt>
      <trkpt lat="44.39081" lon="6.39464">
        <ele>2168</ele>
        <time>2021-09-01T12:33:08.000Z</time>
      </trkpt>
      <trkpt lat="44.39085" lon="6.39468">
        <ele>2167</ele>
        <time>2021-09-01T12:33:09.000Z</time>
      </trkpt>
      <trkpt lat="44.39088" lon="6.39472">
        <ele>2164</ele>
        <time>2021-09-01T12:33:10.000Z</time>
      </trkpt>
      <trkpt lat="44.39091" lon="6.39478">
        <ele>2164</ele>
        <time>2021-09-01T12:33:11.000Z</time>
      </trkpt>
      <trkpt lat="44.39091" lon="6.39487">
        <ele>2163</ele>
        <time>2021-09-01T12:33:12.000Z</time>
      </trkpt>
      <trkpt lat="44.39088" lon="6.39497">
        <ele>2163</ele>
        <time>2021-09-01T12:33:13.000Z</time>
      </trkpt>
      <trkpt lat="44.39086" lon="6.39507">
        <ele>2162</ele>
        <time>2021-09-01T12:33:14.000Z</time>
      </trkpt>
      <trkpt lat="44.39085" lon="6.39516">
        <ele>2162</ele>
        <time>2021-09-01T12:33:15.000Z</time>
      </trkpt>
      <trkpt lat="44.39084" lon="6.39524">
        <ele>2162</ele>
        <time>2021-09-01T12:33:16.000Z</time>
      </trkpt>
      <trkpt lat="44.39082" lon="6.39531">
        <ele>2162</ele>
        <time>2021-09-01T12:33:17.000Z</time>
      </trkpt>
      <trkpt lat="44.3908" lon="6.39538">
        <ele>2163</ele>
        <time>2021-09-01T12:33:18.000Z</time>
      </trkpt>
      <trkpt lat="44.3908" lon="6.39543">
        <ele>2162</ele>
        <time>2021-09-01T12:33:19.000Z</time>
      </trkpt>
      <trkpt lat="44.39079" lon="6.39547">
        <ele>2163</ele>
        <time>2021-09-01T12:33:20.000Z</time>
      </trkpt>
      <trkpt lat="44.39078" lon="6.39552">
        <ele>2163</ele>
        <time>2021-09-01T12:33:21.000Z</time>
      </trkpt>
      <trkpt lat="44.39077" lon="6.39557">
        <ele>2163</ele>
        <time>2021-09-01T12:33:22.000Z</time>
      </trkpt>
      <trkpt lat="44.39075" lon="6.39561">
        <ele>2162</ele>
        <time>2021-09-01T12:33:23.000Z</time>
      </trkpt>
      <trkpt lat="44.39073" lon="6.39566">
        <ele>2162</ele>
        <time>2021-09-01T12:33:24.000Z</time>
      </trkpt>
      <trkpt lat="44.39071" lon="6.39572">
        <ele>2161</ele>
        <time>2021-09-01T12:33:25.000Z</time>
      </trkpt>
      <trkpt lat="44.39069" lon="6.39578">
        <ele>2160</ele>
        <time>2021-09-01T12:33:26.000Z</time>
      </trkpt>
      <trkpt lat="44.39066" lon="6.39584">
        <ele>2160</ele>
        <time>2021-09-01T12:33:27.000Z</time>
      </trkpt>
      <trkpt lat="44.39064" lon="6.39591">
        <ele>2160</ele>
        <time>2021-09-01T12:33:28.000Z</time>
      </trkpt>
      <trkpt lat="44.39063" lon="6.39598">
        <ele>2160</ele>
        <time>2021-09-01T12:33:29.000Z</time>
      </trkpt>
      <trkpt lat="44.39062" lon="6.39605">
        <ele>2160</ele>
        <time>2021-09-01T12:33:30.000Z</time>
      </trkpt>
      <trkpt lat="44.39062" lon="6.39612">
        <ele>2160</ele>
        <time>2021-09-01T12:33:31.000Z</time>
      </trkpt>
      <trkpt lat="44.39063" lon="6.39618">
        <ele>2160</ele>
        <time>2021-09-01T12:33:32.000Z</time>
      </trkpt>
      <trkpt lat="44.39064" lon="6.39624">
        <ele>2159</ele>
        <time>2021-09-01T12:33:33.000Z</time>
      </trkpt>
      <trkpt lat="44.39065" lon="6.39631">
        <ele>2159</ele>
        <time>2021-09-01T12:33:34.000Z</time>
      </trkpt>
      <trkpt lat="44.39066" lon="6.39636">
        <ele>2159</ele>
        <time>2021-09-01T12:33:35.000Z</time>
      </trkpt>
      <trkpt lat="44.39068" lon="6.39641">
        <ele>2159</ele>
        <time>2021-09-01T12:33:36.000Z</time>
      </trkpt>
      <trkpt lat="44.3907" lon="6.39645">
        <ele>2159</ele>
        <time>2021-09-01T12:33:37.000Z</time>
      </trkpt>
      <trkpt lat="44.39072" lon="6.39651">
        <ele>2159</ele>
        <time>2021-09-01T12:33:38.000Z</time>
      </trkpt>
      <trkpt lat="44.39074" lon="6.39656">
        <ele>2159</ele>
        <time>2021-09-01T12:33:39.000Z</time>
      </trkpt>
      <trkpt lat="44.39075" lon="6.39662">
        <ele>2159</ele>
        <time>2021-09-01T12:33:40.000Z</time>
      </trkpt>
      <trkpt lat="44.39077" lon="6.39667">
        <ele>2159</ele>
        <time>2021-09-01T12:33:41.000Z</time>
      </trkpt>
      <trkpt lat="44.39079" lon="6.39672">
        <ele>2158</ele>
        <time>2021-09-01T12:33:42.000Z</time>
      </trkpt>
      <trkpt lat="44.39081" lon="6.39678">
        <ele>2157</ele>
        <time>2021-09-01T12:33:43.000Z</time>
      </trkpt>
      <trkpt lat="44.39083" lon="6.39684">
        <ele>2156</ele>
        <time>2021-09-01T12:33:44.000Z</time>
      </trkpt>
      <trkpt lat="44.39087" lon="6.3969">
        <ele>2155</ele>
        <time>2021-09-01T12:33:45.000Z</time>
      </trkpt>
      <trkpt lat="44.3909" lon="6.39696">
        <ele>2153</ele>
        <time>2021-09-01T12:33:46.000Z</time>
      </trkpt>
      <trkpt lat="44.39094" lon="6.39703">
        <ele>2152</ele>
        <time>2021-09-01T12:33:47.000Z</time>
      </trkpt>
      <trkpt lat="44.391" lon="6.39708">
        <ele>2151</ele>
        <time>2021-09-01T12:33:48.000Z</time>
      </trkpt>
      <trkpt lat="44.39109" lon="6.3971">
        <ele>2149</ele>
        <time>2021-09-01T12:33:49.000Z</time>
      </trkpt>
      <trkpt lat="44.39118" lon="6.39714">
        <ele>2149</ele>
        <time>2021-09-01T12:33:50.000Z</time>
      </trkpt>
      <trkpt lat="44.39127" lon="6.39716">
        <ele>2147</ele>
        <time>2021-09-01T12:33:51.000Z</time>
      </trkpt>
      <trkpt lat="44.39137" lon="6.39716">
        <ele>2146</ele>
        <time>2021-09-01T12:33:52.000Z</time>
      </trkpt>
      <trkpt lat="44.39145" lon="6.39717">
        <ele>2146</ele>
        <time>2021-09-01T12:33:53.000Z</time>
      </trkpt>
      <trkpt lat="44.39153" lon="6.39718">
        <ele>2146</ele>
        <time>2021-09-01T12:33:54.000Z</time>
      </trkpt>
      <trkpt lat="44.39161" lon="6.39719">
        <ele>2145</ele>
        <time>2021-09-01T12:33:55.000Z</time>
      </trkpt>
      <trkpt lat="44.39168" lon="6.39721">
        <ele>2144</ele>
        <time>2021-09-01T12:33:56.000Z</time>
      </trkpt>
      <trkpt lat="44.39174" lon="6.39725">
        <ele>2144</ele>
        <time>2021-09-01T12:33:57.000Z</time>
      </trkpt>
      <trkpt lat="44.3918" lon="6.3973">
        <ele>2143</ele>
        <time>2021-09-01T12:33:58.000Z</time>
      </trkpt>
      <trkpt lat="44.39185" lon="6.39735">
        <ele>2142</ele>
        <time>2021-09-01T12:33:59.000Z</time>
      </trkpt>
      <trkpt lat="44.39191" lon="6.39742">
        <ele>2141</ele>
        <time>2021-09-01T12:34:00.000Z</time>
      </trkpt>
      <trkpt lat="44.39197" lon="6.39747">
        <ele>2140</ele>
        <time>2021-09-01T12:34:01.000Z</time>
      </trkpt>
      <trkpt lat="44.39202" lon="6.39752">
        <ele>2139</ele>
        <time>2021-09-01T12:34:02.000Z</time>
      </trkpt>
      <trkpt lat="44.39207" lon="6.39756">
        <ele>2138</ele>
        <time>2021-09-01T12:34:03.000Z</time>
      </trkpt>
      <trkpt lat="44.39212" lon="6.39761">
        <ele>2137</ele>
        <time>2021-09-01T12:34:04.000Z</time>
      </trkpt>
      <trkpt lat="44.39216" lon="6.39764">
        <ele>2137</ele>
        <time>2021-09-01T12:34:05.000Z</time>
      </trkpt>
      <trkpt lat="44.39219" lon="6.39769">
        <ele>2137</ele>
        <time>2021-09-01T12:34:06.000Z</time>
      </trkpt>
      <trkpt lat="44.39222" lon="6.39775">
        <ele>2135</ele>
        <time>2021-09-01T12:34:07.000Z</time>
      </trkpt>
      <trkpt lat="44.39225" lon="6.39779">
        <ele>2134</ele>
        <time>2021-09-01T12:34:08.000Z</time>
      </trkpt>
      <trkpt lat="44.39228" lon="6.39784">
        <ele>2133</ele>
        <time>2021-09-01T12:34:09.000Z</time>
      </trkpt>
      <trkpt lat="44.39231" lon="6.39789">
        <ele>2132</ele>
        <time>2021-09-01T12:34:10.000Z</time>
      </trkpt>
      <trkpt lat="44.39234" lon="6.39793">
        <ele>2132</ele>
        <time>2021-09-01T12:34:11.000Z</time>
      </trkpt>
      <trkpt lat="44.39237" lon="6.39798">
        <ele>2131</ele>
        <time>2021-09-01T12:34:12.000Z</time>
      </trkpt>
      <trkpt lat="44.3924" lon="6.39803">
        <ele>2130</ele>
        <time>2021-09-01T12:34:13.000Z</time>
      </trkpt>
      <trkpt lat="44.39241" lon="6.39809">
        <ele>2129</ele>
        <time>2021-09-01T12:34:14.000Z</time>
      </trkpt>
      <trkpt lat="44.39242" lon="6.39814">
        <ele>2128</ele>
        <time>2021-09-01T12:34:15.000Z</time>
      </trkpt>
      <trkpt lat="44.39242" lon="6.3982">
        <ele>2127</ele>
        <time>2021-09-01T12:34:16.000Z</time>
      </trkpt>
      <trkpt lat="44.39243" lon="6.39826">
        <ele>2126</ele>
        <time>2021-09-01T12:34:17.000Z</time>
      </trkpt>
      <trkpt lat="44.39244" lon="6.39832">
        <ele>2125</ele>
        <time>2021-09-01T12:34:18.000Z</time>
      </trkpt>
      <trkpt lat="44.39245" lon="6.39841">
        <ele>2124</ele>
        <time>2021-09-01T12:34:19.000Z</time>
      </trkpt>
      <trkpt lat="44.39247" lon="6.39849">
        <ele>2124</ele>
        <time>2021-09-01T12:34:20.000Z</time>
      </trkpt>
      <trkpt lat="44.39248" lon="6.39858">
        <ele>2123</ele>
        <time>2021-09-01T12:34:21.000Z</time>
      </trkpt>
      <trkpt lat="44.39251" lon="6.39866">
        <ele>2123</ele>
        <time>2021-09-01T12:34:22.000Z</time>
      </trkpt>
      <trkpt lat="44.39254" lon="6.39874">
        <ele>2123</ele>
        <time>2021-09-01T12:34:23.000Z</time>
      </trkpt>
      <trkpt lat="44.39258" lon="6.39881">
        <ele>2123</ele>
        <time>2021-09-01T12:34:24.000Z</time>
      </trkpt>
      <trkpt lat="44.39261" lon="6.39887">
        <ele>2123</ele>
        <time>2021-09-01T12:34:25.000Z</time>
      </trkpt>
      <trkpt lat="44.39265" lon="6.39891">
        <ele>2123</ele>
        <time>2021-09-01T12:34:26.000Z</time>
      </trkpt>
      <trkpt lat="44.39268" lon="6.39896">
        <ele>2123</ele>
        <time>2021-09-01T12:34:27.000Z</time>
      </trkpt>
      <trkpt lat="44.39269" lon="6.39901">
        <ele>2122</ele>
        <time>2021-09-01T12:34:28.000Z</time>
      </trkpt>
      <trkpt lat="44.39269" lon="6.39907">
        <ele>2123</ele>
        <time>2021-09-01T12:34:29.000Z</time>
      </trkpt>
      <trkpt lat="44.39268" lon="6.39914">
        <ele>2122</ele>
        <time>2021-09-01T12:34:30.000Z</time>
      </trkpt>
      <trkpt lat="44.39266" lon="6.39922">
        <ele>2121</ele>
        <time>2021-09-01T12:34:31.000Z</time>
      </trkpt>
      <trkpt lat="44.39265" lon="6.39929">
        <ele>2120</ele>
        <time>2021-09-01T12:34:32.000Z</time>
      </trkpt>
      <trkpt lat="44.39264" lon="6.39935">
        <ele>2120</ele>
        <time>2021-09-01T12:34:33.000Z</time>
      </trkpt>
      <trkpt lat="44.39263" lon="6.39939">
        <ele>2121</ele>
        <time>2021-09-01T12:34:34.000Z</time>
      </trkpt>
      <trkpt lat="44.39262" lon="6.39944">
        <ele>2121</ele>
        <time>2021-09-01T12:34:35.000Z</time>
      </trkpt>
      <trkpt lat="44.39263" lon="6.39948">
        <ele>2122</ele>
        <time>2021-09-01T12:34:36.000Z</time>
      </trkpt>
      <trkpt lat="44.39266" lon="6.39948">
        <ele>2122</ele>
        <time>2021-09-01T12:34:37.000Z</time>
      </trkpt>
      <trkpt lat="44.39268" lon="6.39949">
        <ele>2122</ele>
        <time>2021-09-01T12:34:38.000Z</time>
      </trkpt>
      <trkpt lat="44.39267" lon="6.3995">
        <ele>2122</ele>
        <time>2021-09-01T12:34:39.000Z</time>
      </trkpt>
      <trkpt lat="44.39267" lon="6.39949">
        <ele>2122</ele>
        <time>2021-09-01T12:34:40.000Z</time>
      </trkpt>
      <trkpt lat="44.39267" lon="6.3995">
        <ele>2122</ele>
        <time>2021-09-01T12:34:41.000Z</time>
      </trkpt>
      <trkpt lat="44.39267" lon="6.3995">
        <ele>2122</ele>
        <time>2021-09-01T12:34:42.000Z</time>
      </trkpt>
      <trkpt lat="44.39267" lon="6.3995">
        <ele>2121</ele>
        <time>2021-09-01T12:34:43.000Z</time>
      </trkpt>
      <trkpt lat="44.39267" lon="6.3995">
        <ele>2121</ele>
        <time>2021-09-01T12:34:44.000Z</time>
      </trkpt>
      <trkpt lat="44.39267" lon="6.39951">
        <ele>2121</ele>
        <time>2021-09-01T12:34:45.000Z</time>
      </trkpt>
      <trkpt lat="44.39267" lon="6.39951">
        <ele>2121</ele>
        <time>2021-09-01T12:34:46.000Z</time>
      </trkpt>
      <trkpt lat="44.39267" lon="6.39951">
        <ele>2121</ele>
        <time>2021-09-01T12:34:47.000Z</time>
      </trkpt>
      <trkpt lat="44.39267" lon="6.39951">
        <ele>2121</ele>
        <time>2021-09-01T12:34:48.000Z</time>
      </trkpt>
      <trkpt lat="44.39267" lon="6.39951">
        <ele>2121</ele>
        <time>2021-09-01T12:34:49.000Z</time>
      </trkpt>
      <trkpt lat="44.39266" lon="6.39951">
        <ele>2121</ele>
        <time>2021-09-01T12:34:50.000Z</time>
      </trkpt>
      <trkpt lat="44.39266" lon="6.39951">
        <ele>2121</ele>
        <time>2021-09-01T12:34:51.000Z</time>
      </trkpt>
      <trkpt lat="44.39266" lon="6.39952">
        <ele>2121</ele>
        <time>2021-09-01T12:34:52.000Z</time>
      </trkpt>
      <trkpt lat="44.39266" lon="6.39952">
        <ele>2121</ele>
        <time>2021-09-01T12:34:53.000Z</time>
      </trkpt>
      <trkpt lat="44.39266" lon="6.39952">
        <ele>2121</ele>
        <time>2021-09-01T12:34:54.000Z</time>
      </trkpt>
      <trkpt lat="44.39266" lon="6.39952">
        <ele>2121</ele>
        <time>2021-09-01T12:34:55.000Z</time>
      </trkpt>
      <trkpt lat="44.39266" lon="6.39952">
        <ele>2121</ele>
        <time>2021-09-01T12:34:56.000Z</time>
      </trkpt>
      <trkpt lat="44.39266" lon="6.39952">
        <ele>2121</ele>
        <time>2021-09-01T12:34:57.000Z</time>
      </trkpt>
      <trkpt lat="44.39266" lon="6.39952">
        <ele>2121</ele>
        <time>2021-09-01T12:34:58.000Z</time>
      </trkpt>
      <trkpt lat="44.39266" lon="6.39952">
        <ele>2121</ele>
        <time>2021-09-01T12:34:59.000Z</time>
      </trkpt>
      <trkpt lat="44.39266" lon="6.39953">
        <ele>2121</ele>
        <time>2021-09-01T12:35:00.000Z</time>
      </trkpt>
      <trkpt lat="44.39266" lon="6.39952">
        <ele>2121</ele>
        <time>2021-09-01T12:35:01.000Z</time>
      </trkpt>
      <trkpt lat="44.39266" lon="6.39953">
        <ele>2121</ele>
        <time>2021-09-01T12:35:02.000Z</time>
      </trkpt>
      <trkpt lat="44.39266" lon="6.39952">
        <ele>2121</ele>
        <time>2021-09-01T12:35:03.000Z</time>
      </trkpt>
      <trkpt lat="44.39266" lon="6.39952">
        <ele>2122</ele>
        <time>2021-09-01T12:35:04.000Z</time>
      </trkpt>
      <trkpt lat="44.39266" lon="6.39952">
        <ele>2122</ele>
        <time>2021-09-01T12:35:05.000Z</time>
      </trkpt>
      <trkpt lat="44.39266" lon="6.39953">
        <ele>2122</ele>
        <time>2021-09-01T12:35:06.000Z</time>
      </trkpt>
      <trkpt lat="44.39266" lon="6.39953">
        <ele>2122</ele>
        <time>2021-09-01T12:35:07.000Z</time>
      </trkpt>
      <trkpt lat="44.39266" lon="6.39953">
        <ele>2122</ele>
        <time>2021-09-01T12:35:08.000Z</time>
      </trkpt>
      <trkpt lat="44.39266" lon="6.39953">
        <ele>2122</ele>
        <time>2021-09-01T12:35:09.000Z</time>
      </trkpt>
      <trkpt lat="44.39266" lon="6.39953">
        <ele>2122</ele>
        <time>2021-09-01T12:35:10.000Z</time>
      </trkpt>
      <trkpt lat="44.39266" lon="6.39953">
        <ele>2122</ele>
        <time>2021-09-01T12:35:11.000Z</time>
      </trkpt>
      <trkpt lat="44.39266" lon="6.39953">
        <ele>2121</ele>
        <time>2021-09-01T12:35:12.000Z</time>
      </trkpt>
      <trkpt lat="44.39266" lon="6.39953">
        <ele>2121</ele>
        <time>2021-09-01T12:35:13.000Z</time>
      </trkpt>
      <trkpt lat="44.39266" lon="6.39953">
        <ele>2122</ele>
        <time>2021-09-01T12:35:14.000Z</time>
      </trkpt>
      <trkpt lat="44.39266" lon="6.39953">
        <ele>2122</ele>
        <time>2021-09-01T12:35:15.000Z</time>
      </trkpt>
      <trkpt lat="44.39266" lon="6.39953">
        <ele>2122</ele>
        <time>2021-09-01T12:35:16.000Z</time>
      </trkpt>
      <trkpt lat="44.39266" lon="6.39953">
        <ele>2122</ele>
        <time>2021-09-01T12:35:17.000Z</time>
      </trkpt>
      <trkpt lat="44.39266" lon="6.39953">
        <ele>2122</ele>
        <time>2021-09-01T12:35:18.000Z</time>
      </trkpt>
      <trkpt lat="44.39266" lon="6.39952">
        <ele>2122</ele>
        <time>2021-09-01T12:35:19.000Z</time>
      </trkpt>
      <trkpt lat="44.39266" lon="6.39952">
        <ele>2122</ele>
        <time>2021-09-01T12:35:20.000Z</time>
      </trkpt>
      <trkpt lat="44.39266" lon="6.39952">
        <ele>2122</ele>
        <time>2021-09-01T12:35:21.000Z</time>
      </trkpt>
      <trkpt lat="44.39265" lon="6.39952">
        <ele>2122</ele>
        <time>2021-09-01T12:35:22.000Z</time>
      </trkpt>
      <trkpt lat="44.39265" lon="6.39952">
        <ele>2122</ele>
        <time>2021-09-01T12:35:23.000Z</time>
      </trkpt>
      <trkpt lat="44.39266" lon="6.39952">
        <ele>2122</ele>
        <time>2021-09-01T12:35:24.000Z</time>
      </trkpt>
      <trkpt lat="44.39266" lon="6.39952">
        <ele>2122</ele>
        <time>2021-09-01T12:35:25.000Z</time>
      </trkpt>
      <trkpt lat="44.39266" lon="6.39952">
        <ele>2122</ele>
        <time>2021-09-01T12:35:26.000Z</time>
      </trkpt>
      <trkpt lat="44.39266" lon="6.39952">
        <ele>2123</ele>
        <time>2021-09-01T12:35:27.000Z</time>
      </trkpt>
      <trkpt lat="44.39266" lon="6.39952">
        <ele>2122</ele>
        <time>2021-09-01T12:35:28.000Z</time>
      </trkpt>
      <trkpt lat="44.39266" lon="6.39952">
        <ele>2122</ele>
        <time>2021-09-01T12:35:29.000Z</time>
      </trkpt>
      <trkpt lat="44.39266" lon="6.39952">
        <ele>2122</ele>
        <time>2021-09-01T12:35:30.000Z</time>
      </trkpt>
      <trkpt lat="44.39266" lon="6.39952">
        <ele>2122</ele>
        <time>2021-09-01T12:35:31.000Z</time>
      </trkpt>
      <trkpt lat="44.39266" lon="6.39952">
        <ele>2122</ele>
        <time>2021-09-01T12:35:32.000Z</time>
      </trkpt>
      <trkpt lat="44.39266" lon="6.39952">
        <ele>2122</ele>
        <time>2021-09-01T12:35:33.000Z</time>
      </trkpt>
      <trkpt lat="44.39266" lon="6.39952">
        <ele>2122</ele>
        <time>2021-09-01T12:35:34.000Z</time>
      </trkpt>
      <trkpt lat="44.39266" lon="6.39952">
        <ele>2122</ele>
        <time>2021-09-01T12:35:35.000Z</time>
      </trkpt>
      <trkpt lat="44.39267" lon="6.39952">
        <ele>2122</ele>
        <time>2021-09-01T12:35:36.000Z</time>
      </trkpt>
      <trkpt lat="44.39267" lon="6.39951">
        <ele>2122</ele>
        <time>2021-09-01T12:35:37.000Z</time>
      </trkpt>
      <trkpt lat="44.39267" lon="6.39951">
        <ele>2122</ele>
        <time>2021-09-01T12:35:38.000Z</time>
      </trkpt>
      <trkpt lat="44.39267" lon="6.39951">
        <ele>2122</ele>
        <time>2021-09-01T12:35:39.000Z</time>
      </trkpt>
      <trkpt lat="44.39267" lon="6.39951">
        <ele>2122</ele>
        <time>2021-09-01T12:35:40.000Z</time>
      </trkpt>
      <trkpt lat="44.39267" lon="6.39952">
        <ele>2122</ele>
        <time>2021-09-01T12:35:41.000Z</time>
      </trkpt>
      <trkpt lat="44.39267" lon="6.39952">
        <ele>2121</ele>
        <time>2021-09-01T12:35:42.000Z</time>
      </trkpt>
      <trkpt lat="44.39267" lon="6.39952">
        <ele>2121</ele>
        <time>2021-09-01T12:35:43.000Z</time>
      </trkpt>
      <trkpt lat="44.39267" lon="6.39952">
        <ele>2121</ele>
        <time>2021-09-01T12:35:44.000Z</time>
      </trkpt>
      <trkpt lat="44.39267" lon="6.39952">
        <ele>2121</ele>
        <time>2021-09-01T12:35:45.000Z</time>
      </trkpt>
      <trkpt lat="44.39268" lon="6.39951">
        <ele>2120</ele>
        <time>2021-09-01T12:35:46.000Z</time>
      </trkpt>
      <trkpt lat="44.3927" lon="6.39951">
        <ele>2118</ele>
        <time>2021-09-01T12:35:47.000Z</time>
      </trkpt>
      <trkpt lat="44.39272" lon="6.39951">
        <ele>2117</ele>
        <time>2021-09-01T12:35:48.000Z</time>
      </trkpt>
      <trkpt lat="44.39276" lon="6.3995">
        <ele>2115</ele>
        <time>2021-09-01T12:35:49.000Z</time>
      </trkpt>
      <trkpt lat="44.39279" lon="6.39949">
        <ele>2115</ele>
        <time>2021-09-01T12:35:50.000Z</time>
      </trkpt>
      <trkpt lat="44.39285" lon="6.3995">
        <ele>2112</ele>
        <time>2021-09-01T12:35:51.000Z</time>
      </trkpt>
      <trkpt lat="44.39289" lon="6.3995">
        <ele>2112</ele>
        <time>2021-09-01T12:35:52.000Z</time>
      </trkpt>
      <trkpt lat="44.39293" lon="6.3995">
        <ele>2112</ele>
        <time>2021-09-01T12:35:53.000Z</time>
      </trkpt>
      <trkpt lat="44.39296" lon="6.39951">
        <ele>2112</ele>
        <time>2021-09-01T12:35:54.000Z</time>
      </trkpt>
      <trkpt lat="44.39299" lon="6.39951">
        <ele>2111</ele>
        <time>2021-09-01T12:35:55.000Z</time>
      </trkpt>
      <trkpt lat="44.39301" lon="6.39951">
        <ele>2111</ele>
        <time>2021-09-01T12:35:56.000Z</time>
      </trkpt>
      <trkpt lat="44.39303" lon="6.39952">
        <ele>2110</ele>
        <time>2021-09-01T12:35:57.000Z</time>
      </trkpt>
      <trkpt lat="44.39306" lon="6.39952">
        <ele>2110</ele>
        <time>2021-09-01T12:35:58.000Z</time>
      </trkpt>
      <trkpt lat="44.39308" lon="6.39951">
        <ele>2109</ele>
        <time>2021-09-01T12:35:59.000Z</time>
      </trkpt>
      <trkpt lat="44.39311" lon="6.39951">
        <ele>2109</ele>
        <time>2021-09-01T12:36:00.000Z</time>
      </trkpt>
      <trkpt lat="44.39315" lon="6.39951">
        <ele>2109</ele>
        <time>2021-09-01T12:36:01.000Z</time>
      </trkpt>
      <trkpt lat="44.39319" lon="6.39951">
        <ele>2108</ele>
        <time>2021-09-01T12:36:02.000Z</time>
      </trkpt>
      <trkpt lat="44.39323" lon="6.39952">
        <ele>2108</ele>
        <time>2021-09-01T12:36:03.000Z</time>
      </trkpt>
      <trkpt lat="44.39327" lon="6.39952">
        <ele>2108</ele>
        <time>2021-09-01T12:36:04.000Z</time>
      </trkpt>
      <trkpt lat="44.39333" lon="6.39954">
        <ele>2109</ele>
        <time>2021-09-01T12:36:05.000Z</time>
      </trkpt>
      <trkpt lat="44.39339" lon="6.39955">
        <ele>2109</ele>
        <time>2021-09-01T12:36:06.000Z</time>
      </trkpt>
      <trkpt lat="44.39345" lon="6.39956">
        <ele>2108</ele>
        <time>2021-09-01T12:36:07.000Z</time>
      </trkpt>
      <trkpt lat="44.3935" lon="6.39957">
        <ele>2108</ele>
        <time>2021-09-01T12:36:08.000Z</time>
      </trkpt>
      <trkpt lat="44.39357" lon="6.39961">
        <ele>2106</ele>
        <time>2021-09-01T12:36:09.000Z</time>
      </trkpt>
      <trkpt lat="44.39364" lon="6.39963">
        <ele>2104</ele>
        <time>2021-09-01T12:36:10.000Z</time>
      </trkpt>
      <trkpt lat="44.3937" lon="6.39965">
        <ele>2104</ele>
        <time>2021-09-01T12:36:11.000Z</time>
      </trkpt>
      <trkpt lat="44.39374" lon="6.39968">
        <ele>2105</ele>
        <time>2021-09-01T12:36:12.000Z</time>
      </trkpt>
      <trkpt lat="44.39379" lon="6.39968">
        <ele>2104</ele>
        <time>2021-09-01T12:36:13.000Z</time>
      </trkpt>
      <trkpt lat="44.39383" lon="6.39969">
        <ele>2104</ele>
        <time>2021-09-01T12:36:14.000Z</time>
      </trkpt>
      <trkpt lat="44.39388" lon="6.39969">
        <ele>2103</ele>
        <time>2021-09-01T12:36:15.000Z</time>
      </trkpt>
      <trkpt lat="44.39392" lon="6.39969">
        <ele>2103</ele>
        <time>2021-09-01T12:36:16.000Z</time>
      </trkpt>
      <trkpt lat="44.39396" lon="6.39969">
        <ele>2102</ele>
        <time>2021-09-01T12:36:17.000Z</time>
      </trkpt>
      <trkpt lat="44.39401" lon="6.39969">
        <ele>2101</ele>
        <time>2021-09-01T12:36:18.000Z</time>
      </trkpt>
      <trkpt lat="44.39407" lon="6.39971">
        <ele>2100</ele>
        <time>2021-09-01T12:36:19.000Z</time>
      </trkpt>
      <trkpt lat="44.39414" lon="6.39971">
        <ele>2100</ele>
        <time>2021-09-01T12:36:20.000Z</time>
      </trkpt>
      <trkpt lat="44.39419" lon="6.39972">
        <ele>2100</ele>
        <time>2021-09-01T12:36:21.000Z</time>
      </trkpt>
      <trkpt lat="44.39424" lon="6.39974">
        <ele>2101</ele>
        <time>2021-09-01T12:36:22.000Z</time>
      </trkpt>
      <trkpt lat="44.39429" lon="6.39975">
        <ele>2102</ele>
        <time>2021-09-01T12:36:23.000Z</time>
      </trkpt>
      <trkpt lat="44.39434" lon="6.39976">
        <ele>2102</ele>
        <time>2021-09-01T12:36:24.000Z</time>
      </trkpt>
      <trkpt lat="44.39438" lon="6.39978">
        <ele>2103</ele>
        <time>2021-09-01T12:36:25.000Z</time>
      </trkpt>
      <trkpt lat="44.39442" lon="6.39979">
        <ele>2102</ele>
        <time>2021-09-01T12:36:26.000Z</time>
      </trkpt>
      <trkpt lat="44.39446" lon="6.3998">
        <ele>2101</ele>
        <time>2021-09-01T12:36:27.000Z</time>
      </trkpt>
      <trkpt lat="44.3945" lon="6.39981">
        <ele>2101</ele>
        <time>2021-09-01T12:36:28.000Z</time>
      </trkpt>
      <trkpt lat="44.39454" lon="6.39983">
        <ele>2101</ele>
        <time>2021-09-01T12:36:29.000Z</time>
      </trkpt>
      <trkpt lat="44.39458" lon="6.39984">
        <ele>2101</ele>
        <time>2021-09-01T12:36:30.000Z</time>
      </trkpt>
      <trkpt lat="44.39463" lon="6.39986">
        <ele>2101</ele>
        <time>2021-09-01T12:36:31.000Z</time>
      </trkpt>
      <trkpt lat="44.39467" lon="6.39988">
        <ele>2101</ele>
        <time>2021-09-01T12:36:32.000Z</time>
      </trkpt>
      <trkpt lat="44.39471" lon="6.3999">
        <ele>2100</ele>
        <time>2021-09-01T12:36:33.000Z</time>
      </trkpt>
      <trkpt lat="44.39475" lon="6.39994">
        <ele>2099</ele>
        <time>2021-09-01T12:36:34.000Z</time>
      </trkpt>
      <trkpt lat="44.3948" lon="6.39997">
        <ele>2099</ele>
        <time>2021-09-01T12:36:35.000Z</time>
      </trkpt>
      <trkpt lat="44.39483" lon="6.40001">
        <ele>2099</ele>
        <time>2021-09-01T12:36:36.000Z</time>
      </trkpt>
      <trkpt lat="44.39487" lon="6.40004">
        <ele>2098</ele>
        <time>2021-09-01T12:36:37.000Z</time>
      </trkpt>
      <trkpt lat="44.3949" lon="6.40008">
        <ele>2099</ele>
        <time>2021-09-01T12:36:38.000Z</time>
      </trkpt>
      <trkpt lat="44.39494" lon="6.40011">
        <ele>2100</ele>
        <time>2021-09-01T12:36:39.000Z</time>
      </trkpt>
      <trkpt lat="44.39497" lon="6.40014">
        <ele>2099</ele>
        <time>2021-09-01T12:36:40.000Z</time>
      </trkpt>
      <trkpt lat="44.39501" lon="6.40017">
        <ele>2100</ele>
        <time>2021-09-01T12:36:41.000Z</time>
      </trkpt>
      <trkpt lat="44.39504" lon="6.4002">
        <ele>2100</ele>
        <time>2021-09-01T12:36:42.000Z</time>
      </trkpt>
      <trkpt lat="44.39507" lon="6.40022">
        <ele>2100</ele>
        <time>2021-09-01T12:36:43.000Z</time>
      </trkpt>
      <trkpt lat="44.39509" lon="6.40023">
        <ele>2099</ele>
        <time>2021-09-01T12:36:44.000Z</time>
      </trkpt>
      <trkpt lat="44.3951" lon="6.40024">
        <ele>2099</ele>
        <time>2021-09-01T12:36:45.000Z</time>
      </trkpt>
      <trkpt lat="44.39512" lon="6.40026">
        <ele>2099</ele>
        <time>2021-09-01T12:36:46.000Z</time>
      </trkpt>
      <trkpt lat="44.39515" lon="6.40027">
        <ele>2099</ele>
        <time>2021-09-01T12:36:47.000Z</time>
      </trkpt>
      <trkpt lat="44.39516" lon="6.40028">
        <ele>2099</ele>
        <time>2021-09-01T12:36:48.000Z</time>
      </trkpt>
      <trkpt lat="44.39518" lon="6.40029">
        <ele>2099</ele>
        <time>2021-09-01T12:36:49.000Z</time>
      </trkpt>
      <trkpt lat="44.3952" lon="6.40031">
        <ele>2099</ele>
        <time>2021-09-01T12:36:50.000Z</time>
      </trkpt>
      <trkpt lat="44.39523" lon="6.40033">
        <ele>2100</ele>
        <time>2021-09-01T12:36:51.000Z</time>
      </trkpt>
      <trkpt lat="44.39526" lon="6.40035">
        <ele>2099</ele>
        <time>2021-09-01T12:36:52.000Z</time>
      </trkpt>
      <trkpt lat="44.39528" lon="6.40036">
        <ele>2098</ele>
        <time>2021-09-01T12:36:53.000Z</time>
      </trkpt>
      <trkpt lat="44.39529" lon="6.40039">
        <ele>2097</ele>
        <time>2021-09-01T12:36:54.000Z</time>
      </trkpt>
      <trkpt lat="44.39531" lon="6.40041">
        <ele>2097</ele>
        <time>2021-09-01T12:36:55.000Z</time>
      </trkpt>
      <trkpt lat="44.39533" lon="6.40043">
        <ele>2096</ele>
        <time>2021-09-01T12:36:56.000Z</time>
      </trkpt>
      <trkpt lat="44.39535" lon="6.40044">
        <ele>2095</ele>
        <time>2021-09-01T12:36:57.000Z</time>
      </trkpt>
      <trkpt lat="44.39537" lon="6.40046">
        <ele>2094</ele>
        <time>2021-09-01T12:36:58.000Z</time>
      </trkpt>
      <trkpt lat="44.39538" lon="6.40047">
        <ele>2092</ele>
        <time>2021-09-01T12:36:59.000Z</time>
      </trkpt>
      <trkpt lat="44.39539" lon="6.4005">
        <ele>2090</ele>
        <time>2021-09-01T12:37:00.000Z</time>
      </trkpt>
      <trkpt lat="44.39541" lon="6.40052">
        <ele>2089</ele>
        <time>2021-09-01T12:37:01.000Z</time>
      </trkpt>
      <trkpt lat="44.39543" lon="6.40055">
        <ele>2088</ele>
        <time>2021-09-01T12:37:02.000Z</time>
      </trkpt>
      <trkpt lat="44.39544" lon="6.40057">
        <ele>2086</ele>
        <time>2021-09-01T12:37:03.000Z</time>
      </trkpt>
      <trkpt lat="44.39545" lon="6.40059">
        <ele>2085</ele>
        <time>2021-09-01T12:37:04.000Z</time>
      </trkpt>
      <trkpt lat="44.39547" lon="6.40061">
        <ele>2084</ele>
        <time>2021-09-01T12:37:05.000Z</time>
      </trkpt>
      <trkpt lat="44.39548" lon="6.40063">
        <ele>2083</ele>
        <time>2021-09-01T12:37:06.000Z</time>
      </trkpt>
      <trkpt lat="44.39549" lon="6.40065">
        <ele>2082</ele>
        <time>2021-09-01T12:37:07.000Z</time>
      </trkpt>
      <trkpt lat="44.39551" lon="6.40067">
        <ele>2080</ele>
        <time>2021-09-01T12:37:08.000Z</time>
      </trkpt>
      <trkpt lat="44.39552" lon="6.40071">
        <ele>2080</ele>
        <time>2021-09-01T12:37:09.000Z</time>
      </trkpt>
      <trkpt lat="44.39554" lon="6.40073">
        <ele>2079</ele>
        <time>2021-09-01T12:37:10.000Z</time>
      </trkpt>
      <trkpt lat="44.39556" lon="6.40075">
        <ele>2077</ele>
        <time>2021-09-01T12:37:11.000Z</time>
      </trkpt>
      <trkpt lat="44.39559" lon="6.40078">
        <ele>2076</ele>
        <time>2021-09-01T12:37:12.000Z</time>
      </trkpt>
      <trkpt lat="44.39561" lon="6.40081">
        <ele>2074</ele>
        <time>2021-09-01T12:37:13.000Z</time>
      </trkpt>
      <trkpt lat="44.39564" lon="6.40086">
        <ele>2074</ele>
        <time>2021-09-01T12:37:14.000Z</time>
      </trkpt>
      <trkpt lat="44.39568" lon="6.40088">
        <ele>2073</ele>
        <time>2021-09-01T12:37:15.000Z</time>
      </trkpt>
      <trkpt lat="44.39572" lon="6.40089">
        <ele>2072</ele>
        <time>2021-09-01T12:37:16.000Z</time>
      </trkpt>
      <trkpt lat="44.39575" lon="6.40092">
        <ele>2071</ele>
        <time>2021-09-01T12:37:17.000Z</time>
      </trkpt>
      <trkpt lat="44.39577" lon="6.40094">
        <ele>2069</ele>
        <time>2021-09-01T12:37:18.000Z</time>
      </trkpt>
      <trkpt lat="44.3958" lon="6.40097">
        <ele>2069</ele>
        <time>2021-09-01T12:37:19.000Z</time>
      </trkpt>
      <trkpt lat="44.39583" lon="6.40099">
        <ele>2069</ele>
        <time>2021-09-01T12:37:20.000Z</time>
      </trkpt>
      <trkpt lat="44.39586" lon="6.401">
        <ele>2067</ele>
        <time>2021-09-01T12:37:21.000Z</time>
      </trkpt>
      <trkpt lat="44.39589" lon="6.40102">
        <ele>2066</ele>
        <time>2021-09-01T12:37:22.000Z</time>
      </trkpt>
      <trkpt lat="44.39592" lon="6.40104">
        <ele>2065</ele>
        <time>2021-09-01T12:37:23.000Z</time>
      </trkpt>
      <trkpt lat="44.39596" lon="6.40106">
        <ele>2066</ele>
        <time>2021-09-01T12:37:24.000Z</time>
      </trkpt>
      <trkpt lat="44.396" lon="6.4011">
        <ele>2067</ele>
        <time>2021-09-01T12:37:25.000Z</time>
      </trkpt>
      <trkpt lat="44.39603" lon="6.40113">
        <ele>2067</ele>
        <time>2021-09-01T12:37:26.000Z</time>
      </trkpt>
      <trkpt lat="44.39606" lon="6.40115">
        <ele>2066</ele>
        <time>2021-09-01T12:37:27.000Z</time>
      </trkpt>
      <trkpt lat="44.3961" lon="6.40118">
        <ele>2066</ele>
        <time>2021-09-01T12:37:28.000Z</time>
      </trkpt>
      <trkpt lat="44.39612" lon="6.4012">
        <ele>2067</ele>
        <time>2021-09-01T12:37:29.000Z</time>
      </trkpt>
      <trkpt lat="44.39615" lon="6.40123">
        <ele>2067</ele>
        <time>2021-09-01T12:37:30.000Z</time>
      </trkpt>
      <trkpt lat="44.39616" lon="6.40126">
        <ele>2066</ele>
        <time>2021-09-01T12:37:31.000Z</time>
      </trkpt>
      <trkpt lat="44.39619" lon="6.40128">
        <ele>2065</ele>
        <time>2021-09-01T12:37:32.000Z</time>
      </trkpt>
      <trkpt lat="44.39622" lon="6.4013">
        <ele>2064</ele>
        <time>2021-09-01T12:37:33.000Z</time>
      </trkpt>
      <trkpt lat="44.39625" lon="6.40131">
        <ele>2063</ele>
        <time>2021-09-01T12:37:34.000Z</time>
      </trkpt>
      <trkpt lat="44.3963" lon="6.40132">
        <ele>2063</ele>
        <time>2021-09-01T12:37:35.000Z</time>
      </trkpt>
      <trkpt lat="44.39633" lon="6.40135">
        <ele>2063</ele>
        <time>2021-09-01T12:37:36.000Z</time>
      </trkpt>
      <trkpt lat="44.39636" lon="6.40137">
        <ele>2063</ele>
        <time>2021-09-01T12:37:37.000Z</time>
      </trkpt>
      <trkpt lat="44.39641" lon="6.40139">
        <ele>2062</ele>
        <time>2021-09-01T12:37:38.000Z</time>
      </trkpt>
      <trkpt lat="44.39646" lon="6.40143">
        <ele>2063</ele>
        <time>2021-09-01T12:37:39.000Z</time>
      </trkpt>
      <trkpt lat="44.39652" lon="6.40145">
        <ele>2062</ele>
        <time>2021-09-01T12:37:40.000Z</time>
      </trkpt>
      <trkpt lat="44.39657" lon="6.40146">
        <ele>2061</ele>
        <time>2021-09-01T12:37:41.000Z</time>
      </trkpt>
      <trkpt lat="44.39662" lon="6.40148">
        <ele>2060</ele>
        <time>2021-09-01T12:37:42.000Z</time>
      </trkpt>
      <trkpt lat="44.39667" lon="6.40152">
        <ele>2059</ele>
        <time>2021-09-01T12:37:43.000Z</time>
      </trkpt>
      <trkpt lat="44.39671" lon="6.40157">
        <ele>2057</ele>
        <time>2021-09-01T12:37:44.000Z</time>
      </trkpt>
      <trkpt lat="44.39675" lon="6.40162">
        <ele>2059</ele>
        <time>2021-09-01T12:37:45.000Z</time>
      </trkpt>
      <trkpt lat="44.3968" lon="6.40164">
        <ele>2058</ele>
        <time>2021-09-01T12:37:46.000Z</time>
      </trkpt>
      <trkpt lat="44.39684" lon="6.40167">
        <ele>2058</ele>
        <time>2021-09-01T12:37:47.000Z</time>
      </trkpt>
      <trkpt lat="44.39687" lon="6.40169">
        <ele>2058</ele>
        <time>2021-09-01T12:37:48.000Z</time>
      </trkpt>
      <trkpt lat="44.39691" lon="6.40173">
        <ele>2058</ele>
        <time>2021-09-01T12:37:49.000Z</time>
      </trkpt>
      <trkpt lat="44.39695" lon="6.40177">
        <ele>2057</ele>
        <time>2021-09-01T12:37:50.000Z</time>
      </trkpt>
      <trkpt lat="44.39699" lon="6.40179">
        <ele>2056</ele>
        <time>2021-09-01T12:37:51.000Z</time>
      </trkpt>
      <trkpt lat="44.39703" lon="6.40182">
        <ele>2056</ele>
        <time>2021-09-01T12:37:52.000Z</time>
      </trkpt>
      <trkpt lat="44.39708" lon="6.40185">
        <ele>2056</ele>
        <time>2021-09-01T12:37:53.000Z</time>
      </trkpt>
      <trkpt lat="44.39713" lon="6.40189">
        <ele>2056</ele>
        <time>2021-09-01T12:37:54.000Z</time>
      </trkpt>
      <trkpt lat="44.39716" lon="6.40193">
        <ele>2057</ele>
        <time>2021-09-01T12:37:55.000Z</time>
      </trkpt>
      <trkpt lat="44.39719" lon="6.40196">
        <ele>2058</ele>
        <time>2021-09-01T12:37:56.000Z</time>
      </trkpt>
      <trkpt lat="44.39722" lon="6.40199">
        <ele>2058</ele>
        <time>2021-09-01T12:37:57.000Z</time>
      </trkpt>
      <trkpt lat="44.39725" lon="6.40202">
        <ele>2057</ele>
        <time>2021-09-01T12:37:58.000Z</time>
      </trkpt>
      <trkpt lat="44.39727" lon="6.40205">
        <ele>2057</ele>
        <time>2021-09-01T12:37:59.000Z</time>
      </trkpt>
      <trkpt lat="44.39728" lon="6.40209">
        <ele>2058</ele>
        <time>2021-09-01T12:38:00.000Z</time>
      </trkpt>
      <trkpt lat="44.39729" lon="6.40214">
        <ele>2057</ele>
        <time>2021-09-01T12:38:01.000Z</time>
      </trkpt>
      <trkpt lat="44.39731" lon="6.40217">
        <ele>2057</ele>
        <time>2021-09-01T12:38:02.000Z</time>
      </trkpt>
      <trkpt lat="44.39734" lon="6.40221">
        <ele>2057</ele>
        <time>2021-09-01T12:38:03.000Z</time>
      </trkpt>
      <trkpt lat="44.39736" lon="6.40225">
        <ele>2056</ele>
        <time>2021-09-01T12:38:04.000Z</time>
      </trkpt>
      <trkpt lat="44.39738" lon="6.40228">
        <ele>2056</ele>
        <time>2021-09-01T12:38:05.000Z</time>
      </trkpt>
      <trkpt lat="44.3974" lon="6.40233">
        <ele>2056</ele>
        <time>2021-09-01T12:38:06.000Z</time>
      </trkpt>
      <trkpt lat="44.39743" lon="6.40237">
        <ele>2055</ele>
        <time>2021-09-01T12:38:07.000Z</time>
      </trkpt>
      <trkpt lat="44.39745" lon="6.40242">
        <ele>2054</ele>
        <time>2021-09-01T12:38:08.000Z</time>
      </trkpt>
      <trkpt lat="44.39746" lon="6.40247">
        <ele>2052</ele>
        <time>2021-09-01T12:38:09.000Z</time>
      </trkpt>
      <trkpt lat="44.39747" lon="6.40252">
        <ele>2051</ele>
        <time>2021-09-01T12:38:10.000Z</time>
      </trkpt>
      <trkpt lat="44.39749" lon="6.40258">
        <ele>2049</ele>
        <time>2021-09-01T12:38:11.000Z</time>
      </trkpt>
      <trkpt lat="44.3975" lon="6.40263">
        <ele>2048</ele>
        <time>2021-09-01T12:38:12.000Z</time>
      </trkpt>
      <trkpt lat="44.39751" lon="6.40269">
        <ele>2046</ele>
        <time>2021-09-01T12:38:13.000Z</time>
      </trkpt>
      <trkpt lat="44.39753" lon="6.40274">
        <ele>2045</ele>
        <time>2021-09-01T12:38:14.000Z</time>
      </trkpt>
      <trkpt lat="44.39755" lon="6.40279">
        <ele>2044</ele>
        <time>2021-09-01T12:38:15.000Z</time>
      </trkpt>
      <trkpt lat="44.39757" lon="6.40283">
        <ele>2044</ele>
        <time>2021-09-01T12:38:16.000Z</time>
      </trkpt>
      <trkpt lat="44.3976" lon="6.40287">
        <ele>2043</ele>
        <time>2021-09-01T12:38:17.000Z</time>
      </trkpt>
      <trkpt lat="44.39761" lon="6.40291">
        <ele>2043</ele>
        <time>2021-09-01T12:38:18.000Z</time>
      </trkpt>
      <trkpt lat="44.39762" lon="6.40295">
        <ele>2042</ele>
        <time>2021-09-01T12:38:19.000Z</time>
      </trkpt>
      <trkpt lat="44.39764" lon="6.40298">
        <ele>2041</ele>
        <time>2021-09-01T12:38:20.000Z</time>
      </trkpt>
      <trkpt lat="44.39766" lon="6.403">
        <ele>2040</ele>
        <time>2021-09-01T12:38:21.000Z</time>
      </trkpt>
      <trkpt lat="44.39768" lon="6.40302">
        <ele>2039</ele>
        <time>2021-09-01T12:38:22.000Z</time>
      </trkpt>
      <trkpt lat="44.3977" lon="6.40305">
        <ele>2038</ele>
        <time>2021-09-01T12:38:23.000Z</time>
      </trkpt>
      <trkpt lat="44.39771" lon="6.40307">
        <ele>2038</ele>
        <time>2021-09-01T12:38:24.000Z</time>
      </trkpt>
      <trkpt lat="44.39775" lon="6.40307">
        <ele>2038</ele>
        <time>2021-09-01T12:38:25.000Z</time>
      </trkpt>
      <trkpt lat="44.39778" lon="6.40308">
        <ele>2038</ele>
        <time>2021-09-01T12:38:26.000Z</time>
      </trkpt>
      <trkpt lat="44.39781" lon="6.40309">
        <ele>2038</ele>
        <time>2021-09-01T12:38:27.000Z</time>
      </trkpt>
      <trkpt lat="44.39783" lon="6.40309">
        <ele>2037</ele>
        <time>2021-09-01T12:38:28.000Z</time>
      </trkpt>
      <trkpt lat="44.39786" lon="6.4031">
        <ele>2036</ele>
        <time>2021-09-01T12:38:29.000Z</time>
      </trkpt>
      <trkpt lat="44.39788" lon="6.40311">
        <ele>2035</ele>
        <time>2021-09-01T12:38:30.000Z</time>
      </trkpt>
      <trkpt lat="44.39789" lon="6.40312">
        <ele>2034</ele>
        <time>2021-09-01T12:38:31.000Z</time>
      </trkpt>
      <trkpt lat="44.39791" lon="6.40314">
        <ele>2034</ele>
        <time>2021-09-01T12:38:32.000Z</time>
      </trkpt>
      <trkpt lat="44.39792" lon="6.40316">
        <ele>2032</ele>
        <time>2021-09-01T12:38:33.000Z</time>
      </trkpt>
      <trkpt lat="44.39793" lon="6.40317">
        <ele>2031</ele>
        <time>2021-09-01T12:38:34.000Z</time>
      </trkpt>
      <trkpt lat="44.39794" lon="6.40319">
        <ele>2029</ele>
        <time>2021-09-01T12:38:35.000Z</time>
      </trkpt>
      <trkpt lat="44.39795" lon="6.40321">
        <ele>2029</ele>
        <time>2021-09-01T12:38:36.000Z</time>
      </trkpt>
      <trkpt lat="44.39797" lon="6.40322">
        <ele>2028</ele>
        <time>2021-09-01T12:38:37.000Z</time>
      </trkpt>
      <trkpt lat="44.39798" lon="6.40323">
        <ele>2027</ele>
        <time>2021-09-01T12:38:38.000Z</time>
      </trkpt>
      <trkpt lat="44.398" lon="6.40326">
        <ele>2027</ele>
        <time>2021-09-01T12:38:39.000Z</time>
      </trkpt>
      <trkpt lat="44.39801" lon="6.40328">
        <ele>2027</ele>
        <time>2021-09-01T12:38:40.000Z</time>
      </trkpt>
      <trkpt lat="44.39803" lon="6.4033">
        <ele>2027</ele>
        <time>2021-09-01T12:38:41.000Z</time>
      </trkpt>
      <trkpt lat="44.39805" lon="6.40332">
        <ele>2026</ele>
        <time>2021-09-01T12:38:42.000Z</time>
      </trkpt>
      <trkpt lat="44.39806" lon="6.40335">
        <ele>2027</ele>
        <time>2021-09-01T12:38:43.000Z</time>
      </trkpt>
      <trkpt lat="44.39807" lon="6.40338">
        <ele>2027</ele>
        <time>2021-09-01T12:38:44.000Z</time>
      </trkpt>
      <trkpt lat="44.39808" lon="6.4034">
        <ele>2027</ele>
        <time>2021-09-01T12:38:45.000Z</time>
      </trkpt>
      <trkpt lat="44.39809" lon="6.40343">
        <ele>2027</ele>
        <time>2021-09-01T12:38:46.000Z</time>
      </trkpt>
      <trkpt lat="44.3981" lon="6.40346">
        <ele>2027</ele>
        <time>2021-09-01T12:38:47.000Z</time>
      </trkpt>
      <trkpt lat="44.39811" lon="6.40349">
        <ele>2027</ele>
        <time>2021-09-01T12:38:48.000Z</time>
      </trkpt>
      <trkpt lat="44.39812" lon="6.40353">
        <ele>2026</ele>
        <time>2021-09-01T12:38:49.000Z</time>
      </trkpt>
      <trkpt lat="44.39813" lon="6.40357">
        <ele>2027</ele>
        <time>2021-09-01T12:38:50.000Z</time>
      </trkpt>
      <trkpt lat="44.39812" lon="6.40359">
        <ele>2037</ele>
        <time>2021-09-01T12:40:38.000Z</time>
      </trkpt>
      <trkpt lat="44.39812" lon="6.40359">
        <ele>2038</ele>
        <time>2021-09-01T12:40:39.000Z</time>
      </trkpt>
      <trkpt lat="44.39809" lon="6.40361">
        <ele>2036</ele>
        <time>2021-09-01T12:46:14.000Z</time>
      </trkpt>
      <trkpt lat="44.39809" lon="6.40361">
        <ele>2036</ele>
        <time>2021-09-01T12:46:15.000Z</time>
      </trkpt>
      <trkpt lat="44.39808" lon="6.40361">
        <ele>2036</ele>
        <time>2021-09-01T12:46:16.000Z</time>
      </trkpt>
      <trkpt lat="44.39808" lon="6.40361">
        <ele>2036</ele>
        <time>2021-09-01T12:46:17.000Z</time>
      </trkpt>
      <trkpt lat="44.39808" lon="6.40361">
        <ele>2036</ele>
        <time>2021-09-01T12:46:18.000Z</time>
      </trkpt>
      <trkpt lat="44.39808" lon="6.40361">
        <ele>2036</ele>
        <time>2021-09-01T12:46:19.000Z</time>
      </trkpt>
      <trkpt lat="44.39808" lon="6.40361">
        <ele>2036</ele>
        <time>2021-09-01T12:46:20.000Z</time>
      </trkpt>
      <trkpt lat="44.39808" lon="6.40361">
        <ele>2036</ele>
        <time>2021-09-01T12:46:21.000Z</time>
      </trkpt>
      <trkpt lat="44.39808" lon="6.40361">
        <ele>2036</ele>
        <time>2021-09-01T12:46:22.000Z</time>
      </trkpt>
      <trkpt lat="44.39808" lon="6.40361">
        <ele>2036</ele>
        <time>2021-09-01T12:46:23.000Z</time>
      </trkpt>
      <trkpt lat="44.39808" lon="6.4036">
        <ele>2036</ele>
        <time>2021-09-01T12:46:24.000Z</time>
      </trkpt>
      <trkpt lat="44.39808" lon="6.4036">
        <ele>2035</ele>
        <time>2021-09-01T12:46:25.000Z</time>
      </trkpt>
      <trkpt lat="44.39807" lon="6.40358">
        <ele>2035</ele>
        <time>2021-09-01T12:46:26.000Z</time>
      </trkpt>
      <trkpt lat="44.39806" lon="6.40356">
        <ele>2035</ele>
        <time>2021-09-01T12:46:27.000Z</time>
      </trkpt>
      <trkpt lat="44.39806" lon="6.40354">
        <ele>2035</ele>
        <time>2021-09-01T12:46:28.000Z</time>
      </trkpt>
      <trkpt lat="44.39805" lon="6.40353">
        <ele>2035</ele>
        <time>2021-09-01T12:46:29.000Z</time>
      </trkpt>
      <trkpt lat="44.39804" lon="6.40351">
        <ele>2035</ele>
        <time>2021-09-01T12:46:30.000Z</time>
      </trkpt>
      <trkpt lat="44.39803" lon="6.40349">
        <ele>2034</ele>
        <time>2021-09-01T12:46:31.000Z</time>
      </trkpt>
      <trkpt lat="44.39803" lon="6.40347">
        <ele>2034</ele>
        <time>2021-09-01T12:46:32.000Z</time>
      </trkpt>
      <trkpt lat="44.39802" lon="6.40345">
        <ele>2034</ele>
        <time>2021-09-01T12:46:33.000Z</time>
      </trkpt>
      <trkpt lat="44.39801" lon="6.40343">
        <ele>2034</ele>
        <time>2021-09-01T12:46:34.000Z</time>
      </trkpt>
      <trkpt lat="44.39801" lon="6.40341">
        <ele>2034</ele>
        <time>2021-09-01T12:46:35.000Z</time>
      </trkpt>
      <trkpt lat="44.398" lon="6.40339">
        <ele>2034</ele>
        <time>2021-09-01T12:46:36.000Z</time>
      </trkpt>
      <trkpt lat="44.39799" lon="6.40337">
        <ele>2034</ele>
        <time>2021-09-01T12:46:37.000Z</time>
      </trkpt>
      <trkpt lat="44.39798" lon="6.40335">
        <ele>2034</ele>
        <time>2021-09-01T12:46:38.000Z</time>
      </trkpt>
      <trkpt lat="44.39798" lon="6.40333">
        <ele>2034</ele>
        <time>2021-09-01T12:46:39.000Z</time>
      </trkpt>
      <trkpt lat="44.39797" lon="6.40331">
        <ele>2034</ele>
        <time>2021-09-01T12:46:40.000Z</time>
      </trkpt>
      <trkpt lat="44.39797" lon="6.40329">
        <ele>2035</ele>
        <time>2021-09-01T12:46:41.000Z</time>
      </trkpt>
      <trkpt lat="44.39796" lon="6.40327">
        <ele>2036</ele>
        <time>2021-09-01T12:46:42.000Z</time>
      </trkpt>
      <trkpt lat="44.39795" lon="6.40325">
        <ele>2036</ele>
        <time>2021-09-01T12:46:43.000Z</time>
      </trkpt>
      <trkpt lat="44.39795" lon="6.40322">
        <ele>2036</ele>
        <time>2021-09-01T12:46:44.000Z</time>
      </trkpt>
      <trkpt lat="44.39794" lon="6.40319">
        <ele>2037</ele>
        <time>2021-09-01T12:46:45.000Z</time>
      </trkpt>
      <trkpt lat="44.39793" lon="6.40317">
        <ele>2038</ele>
        <time>2021-09-01T12:46:46.000Z</time>
      </trkpt>
      <trkpt lat="44.39792" lon="6.40314">
        <ele>2038</ele>
        <time>2021-09-01T12:46:47.000Z</time>
      </trkpt>
      <trkpt lat="44.39792" lon="6.40312">
        <ele>2038</ele>
        <time>2021-09-01T12:46:48.000Z</time>
      </trkpt>
      <trkpt lat="44.39791" lon="6.4031">
        <ele>2039</ele>
        <time>2021-09-01T12:46:49.000Z</time>
      </trkpt>
      <trkpt lat="44.3979" lon="6.40308">
        <ele>2039</ele>
        <time>2021-09-01T12:46:50.000Z</time>
      </trkpt>
      <trkpt lat="44.3979" lon="6.40306">
        <ele>2040</ele>
        <time>2021-09-01T12:46:51.000Z</time>
      </trkpt>
      <trkpt lat="44.39789" lon="6.40304">
        <ele>2040</ele>
        <time>2021-09-01T12:46:52.000Z</time>
      </trkpt>
      <trkpt lat="44.39788" lon="6.40302">
        <ele>2041</ele>
        <time>2021-09-01T12:46:53.000Z</time>
      </trkpt>
      <trkpt lat="44.39788" lon="6.403">
        <ele>2041</ele>
        <time>2021-09-01T12:46:54.000Z</time>
      </trkpt>
      <trkpt lat="44.39787" lon="6.40298">
        <ele>2041</ele>
        <time>2021-09-01T12:46:55.000Z</time>
      </trkpt>
      <trkpt lat="44.39786" lon="6.40296">
        <ele>2041</ele>
        <time>2021-09-01T12:46:56.000Z</time>
      </trkpt>
      <trkpt lat="44.39785" lon="6.40294">
        <ele>2042</ele>
        <time>2021-09-01T12:46:57.000Z</time>
      </trkpt>
      <trkpt lat="44.39784" lon="6.40292">
        <ele>2042</ele>
        <time>2021-09-01T12:46:58.000Z</time>
      </trkpt>
      <trkpt lat="44.39784" lon="6.4029">
        <ele>2042</ele>
        <time>2021-09-01T12:46:59.000Z</time>
      </trkpt>
      <trkpt lat="44.39783" lon="6.40287">
        <ele>2042</ele>
        <time>2021-09-01T12:47:00.000Z</time>
      </trkpt>
      <trkpt lat="44.39782" lon="6.40285">
        <ele>2043</ele>
        <time>2021-09-01T12:47:01.000Z</time>
      </trkpt>
      <trkpt lat="44.39782" lon="6.40282">
        <ele>2044</ele>
        <time>2021-09-01T12:47:02.000Z</time>
      </trkpt>
      <trkpt lat="44.39781" lon="6.4028">
        <ele>2043</ele>
        <time>2021-09-01T12:47:03.000Z</time>
      </trkpt>
      <trkpt lat="44.3978" lon="6.40278">
        <ele>2044</ele>
        <time>2021-09-01T12:47:04.000Z</time>
      </trkpt>
      <trkpt lat="44.39779" lon="6.40276">
        <ele>2044</ele>
        <time>2021-09-01T12:47:05.000Z</time>
      </trkpt>
      <trkpt lat="44.39777" lon="6.40274">
        <ele>2044</ele>
        <time>2021-09-01T12:47:06.000Z</time>
      </trkpt>
      <trkpt lat="44.39776" lon="6.40272">
        <ele>2045</ele>
        <time>2021-09-01T12:47:07.000Z</time>
      </trkpt>
      <trkpt lat="44.39776" lon="6.4027">
        <ele>2045</ele>
        <time>2021-09-01T12:47:08.000Z</time>
      </trkpt>
      <trkpt lat="44.39775" lon="6.40267">
        <ele>2045</ele>
        <time>2021-09-01T12:47:09.000Z</time>
      </trkpt>
      <trkpt lat="44.39774" lon="6.40264">
        <ele>2045</ele>
        <time>2021-09-01T12:47:10.000Z</time>
      </trkpt>
      <trkpt lat="44.39774" lon="6.40262">
        <ele>2045</ele>
        <time>2021-09-01T12:47:11.000Z</time>
      </trkpt>
      <trkpt lat="44.39773" lon="6.4026">
        <ele>2045</ele>
        <time>2021-09-01T12:47:12.000Z</time>
      </trkpt>
      <trkpt lat="44.39772" lon="6.40257">
        <ele>2046</ele>
        <time>2021-09-01T12:47:13.000Z</time>
      </trkpt>
      <trkpt lat="44.39771" lon="6.40255">
        <ele>2047</ele>
        <time>2021-09-01T12:47:14.000Z</time>
      </trkpt>
      <trkpt lat="44.39771" lon="6.40253">
        <ele>2047</ele>
        <time>2021-09-01T12:47:15.000Z</time>
      </trkpt>
      <trkpt lat="44.3977" lon="6.4025">
        <ele>2047</ele>
        <time>2021-09-01T12:47:16.000Z</time>
      </trkpt>
      <trkpt lat="44.39769" lon="6.40248">
        <ele>2047</ele>
        <time>2021-09-01T12:47:17.000Z</time>
      </trkpt>
      <trkpt lat="44.39768" lon="6.40246">
        <ele>2047</ele>
        <time>2021-09-01T12:47:18.000Z</time>
      </trkpt>
      <trkpt lat="44.39767" lon="6.40243">
        <ele>2048</ele>
        <time>2021-09-01T12:47:19.000Z</time>
      </trkpt>
      <trkpt lat="44.39767" lon="6.40241">
        <ele>2049</ele>
        <time>2021-09-01T12:47:20.000Z</time>
      </trkpt>
      <trkpt lat="44.39766" lon="6.40239">
        <ele>2049</ele>
        <time>2021-09-01T12:47:21.000Z</time>
      </trkpt>
      <trkpt lat="44.39766" lon="6.40237">
        <ele>2049</ele>
        <time>2021-09-01T12:47:22.000Z</time>
      </trkpt>
      <trkpt lat="44.39765" lon="6.40235">
        <ele>2049</ele>
        <time>2021-09-01T12:47:23.000Z</time>
      </trkpt>
      <trkpt lat="44.39765" lon="6.40233">
        <ele>2049</ele>
        <time>2021-09-01T12:47:24.000Z</time>
      </trkpt>
      <trkpt lat="44.39764" lon="6.40231">
        <ele>2050</ele>
        <time>2021-09-01T12:47:25.000Z</time>
      </trkpt>
      <trkpt lat="44.39764" lon="6.40229">
        <ele>2050</ele>
        <time>2021-09-01T12:47:26.000Z</time>
      </trkpt>
      <trkpt lat="44.39764" lon="6.40227">
        <ele>2050</ele>
        <time>2021-09-01T12:47:27.000Z</time>
      </trkpt>
      <trkpt lat="44.39763" lon="6.40225">
        <ele>2051</ele>
        <time>2021-09-01T12:47:28.000Z</time>
      </trkpt>
      <trkpt lat="44.39763" lon="6.40222">
        <ele>2051</ele>
        <time>2021-09-01T12:47:29.000Z</time>
      </trkpt>
      <trkpt lat="44.39762" lon="6.4022">
        <ele>2051</ele>
        <time>2021-09-01T12:47:30.000Z</time>
      </trkpt>
      <trkpt lat="44.39763" lon="6.40218">
        <ele>2052</ele>
        <time>2021-09-01T12:47:31.000Z</time>
      </trkpt>
      <trkpt lat="44.39762" lon="6.40215">
        <ele>2052</ele>
        <time>2021-09-01T12:47:32.000Z</time>
      </trkpt>
      <trkpt lat="44.39763" lon="6.40213">
        <ele>2052</ele>
        <time>2021-09-01T12:47:33.000Z</time>
      </trkpt>
      <trkpt lat="44.39763" lon="6.4021">
        <ele>2052</ele>
        <time>2021-09-01T12:47:34.000Z</time>
      </trkpt>
      <trkpt lat="44.39763" lon="6.40208">
        <ele>2052</ele>
        <time>2021-09-01T12:47:35.000Z</time>
      </trkpt>
      <trkpt lat="44.39763" lon="6.40206">
        <ele>2052</ele>
        <time>2021-09-01T12:47:36.000Z</time>
      </trkpt>
      <trkpt lat="44.39763" lon="6.40203">
        <ele>2052</ele>
        <time>2021-09-01T12:47:37.000Z</time>
      </trkpt>
      <trkpt lat="44.39763" lon="6.40201">
        <ele>2052</ele>
        <time>2021-09-01T12:47:38.000Z</time>
      </trkpt>
      <trkpt lat="44.39764" lon="6.40199">
        <ele>2052</ele>
        <time>2021-09-01T12:47:39.000Z</time>
      </trkpt>
      <trkpt lat="44.39764" lon="6.40197">
        <ele>2052</ele>
        <time>2021-09-01T12:47:40.000Z</time>
      </trkpt>
      <trkpt lat="44.39764" lon="6.40195">
        <ele>2051</ele>
        <time>2021-09-01T12:47:41.000Z</time>
      </trkpt>
      <trkpt lat="44.39764" lon="6.40192">
        <ele>2051</ele>
        <time>2021-09-01T12:47:42.000Z</time>
      </trkpt>
      <trkpt lat="44.39765" lon="6.4019">
        <ele>2050</ele>
        <time>2021-09-01T12:47:43.000Z</time>
      </trkpt>
      <trkpt lat="44.39766" lon="6.40188">
        <ele>2049</ele>
        <time>2021-09-01T12:47:44.000Z</time>
      </trkpt>
      <trkpt lat="44.39766" lon="6.40186">
        <ele>2048</ele>
        <time>2021-09-01T12:47:45.000Z</time>
      </trkpt>
      <trkpt lat="44.39767" lon="6.40184">
        <ele>2049</ele>
        <time>2021-09-01T12:47:46.000Z</time>
      </trkpt>
      <trkpt lat="44.39767" lon="6.40182">
        <ele>2050</ele>
        <time>2021-09-01T12:47:47.000Z</time>
      </trkpt>
      <trkpt lat="44.39767" lon="6.40179">
        <ele>2052</ele>
        <time>2021-09-01T12:47:48.000Z</time>
      </trkpt>
      <trkpt lat="44.39768" lon="6.40177">
        <ele>2053</ele>
        <time>2021-09-01T12:47:49.000Z</time>
      </trkpt>
      <trkpt lat="44.39768" lon="6.40175">
        <ele>2053</ele>
        <time>2021-09-01T12:47:50.000Z</time>
      </trkpt>
      <trkpt lat="44.39768" lon="6.40172">
        <ele>2053</ele>
        <time>2021-09-01T12:47:51.000Z</time>
      </trkpt>
      <trkpt lat="44.39768" lon="6.4017">
        <ele>2053</ele>
        <time>2021-09-01T12:47:52.000Z</time>
      </trkpt>
      <trkpt lat="44.39768" lon="6.40167">
        <ele>2053</ele>
        <time>2021-09-01T12:47:53.000Z</time>
      </trkpt>
      <trkpt lat="44.39769" lon="6.40165">
        <ele>2054</ele>
        <time>2021-09-01T12:47:54.000Z</time>
      </trkpt>
      <trkpt lat="44.3977" lon="6.40162">
        <ele>2054</ele>
        <time>2021-09-01T12:47:55.000Z</time>
      </trkpt>
      <trkpt lat="44.39771" lon="6.4016">
        <ele>2054</ele>
        <time>2021-09-01T12:47:56.000Z</time>
      </trkpt>
      <trkpt lat="44.39771" lon="6.40158">
        <ele>2054</ele>
        <time>2021-09-01T12:47:57.000Z</time>
      </trkpt>
      <trkpt lat="44.39772" lon="6.40156">
        <ele>2054</ele>
        <time>2021-09-01T12:47:58.000Z</time>
      </trkpt>
      <trkpt lat="44.39773" lon="6.40154">
        <ele>2054</ele>
        <time>2021-09-01T12:47:59.000Z</time>
      </trkpt>
      <trkpt lat="44.39774" lon="6.40153">
        <ele>2054</ele>
        <time>2021-09-01T12:48:00.000Z</time>
      </trkpt>
      <trkpt lat="44.39775" lon="6.40151">
        <ele>2054</ele>
        <time>2021-09-01T12:48:01.000Z</time>
      </trkpt>
      <trkpt lat="44.39777" lon="6.4015">
        <ele>2055</ele>
        <time>2021-09-01T12:48:02.000Z</time>
      </trkpt>
      <trkpt lat="44.39779" lon="6.40148">
        <ele>2057</ele>
        <time>2021-09-01T12:48:03.000Z</time>
      </trkpt>
      <trkpt lat="44.3978" lon="6.40147">
        <ele>2058</ele>
        <time>2021-09-01T12:48:04.000Z</time>
      </trkpt>
      <trkpt lat="44.39782" lon="6.40145">
        <ele>2059</ele>
        <time>2021-09-01T12:48:05.000Z</time>
      </trkpt>
      <trkpt lat="44.39784" lon="6.40144">
        <ele>2060</ele>
        <time>2021-09-01T12:48:06.000Z</time>
      </trkpt>
      <trkpt lat="44.39785" lon="6.40144">
        <ele>2061</ele>
        <time>2021-09-01T12:48:07.000Z</time>
      </trkpt>
      <trkpt lat="44.39787" lon="6.40143">
        <ele>2061</ele>
        <time>2021-09-01T12:48:08.000Z</time>
      </trkpt>
      <trkpt lat="44.39789" lon="6.40143">
        <ele>2061</ele>
        <time>2021-09-01T12:48:09.000Z</time>
      </trkpt>
      <trkpt lat="44.39791" lon="6.40143">
        <ele>2060</ele>
        <time>2021-09-01T12:48:10.000Z</time>
      </trkpt>
      <trkpt lat="44.39793" lon="6.40143">
        <ele>2061</ele>
        <time>2021-09-01T12:48:11.000Z</time>
      </trkpt>
      <trkpt lat="44.39795" lon="6.4014">
        <ele>2061</ele>
        <time>2021-09-01T12:48:12.000Z</time>
      </trkpt>
      <trkpt lat="44.39797" lon="6.40139">
        <ele>2061</ele>
        <time>2021-09-01T12:48:13.000Z</time>
      </trkpt>
      <trkpt lat="44.39799" lon="6.40138">
        <ele>2061</ele>
        <time>2021-09-01T12:48:14.000Z</time>
      </trkpt>
      <trkpt lat="44.39801" lon="6.40137">
        <ele>2062</ele>
        <time>2021-09-01T12:48:15.000Z</time>
      </trkpt>
      <trkpt lat="44.39803" lon="6.40136">
        <ele>2062</ele>
        <time>2021-09-01T12:48:16.000Z</time>
      </trkpt>
      <trkpt lat="44.39806" lon="6.40136">
        <ele>2063</ele>
        <time>2021-09-01T12:48:17.000Z</time>
      </trkpt>
      <trkpt lat="44.39807" lon="6.40134">
        <ele>2063</ele>
        <time>2021-09-01T12:48:18.000Z</time>
      </trkpt>
      <trkpt lat="44.39809" lon="6.40133">
        <ele>2062</ele>
        <time>2021-09-01T12:48:19.000Z</time>
      </trkpt>
      <trkpt lat="44.3981" lon="6.40132">
        <ele>2062</ele>
        <time>2021-09-01T12:48:20.000Z</time>
      </trkpt>
      <trkpt lat="44.39812" lon="6.40131">
        <ele>2062</ele>
        <time>2021-09-01T12:48:21.000Z</time>
      </trkpt>
      <trkpt lat="44.39814" lon="6.4013">
        <ele>2063</ele>
        <time>2021-09-01T12:48:22.000Z</time>
      </trkpt>
      <trkpt lat="44.39815" lon="6.40129">
        <ele>2063</ele>
        <time>2021-09-01T12:48:23.000Z</time>
      </trkpt>
      <trkpt lat="44.39817" lon="6.40127">
        <ele>2062</ele>
        <time>2021-09-01T12:48:24.000Z</time>
      </trkpt>
      <trkpt lat="44.39819" lon="6.40126">
        <ele>2062</ele>
        <time>2021-09-01T12:48:25.000Z</time>
      </trkpt>
      <trkpt lat="44.39821" lon="6.40125">
        <ele>2062</ele>
        <time>2021-09-01T12:48:26.000Z</time>
      </trkpt>
      <trkpt lat="44.39823" lon="6.40123">
        <ele>2063</ele>
        <time>2021-09-01T12:48:27.000Z</time>
      </trkpt>
      <trkpt lat="44.39825" lon="6.40122">
        <ele>2063</ele>
        <time>2021-09-01T12:48:28.000Z</time>
      </trkpt>
      <trkpt lat="44.39826" lon="6.40121">
        <ele>2063</ele>
        <time>2021-09-01T12:48:29.000Z</time>
      </trkpt>
      <trkpt lat="44.39828" lon="6.4012">
        <ele>2064</ele>
        <time>2021-09-01T12:48:30.000Z</time>
      </trkpt>
      <trkpt lat="44.3983" lon="6.40119">
        <ele>2064</ele>
        <time>2021-09-01T12:48:31.000Z</time>
      </trkpt>
      <trkpt lat="44.39832" lon="6.40118">
        <ele>2064</ele>
        <time>2021-09-01T12:48:32.000Z</time>
      </trkpt>
      <trkpt lat="44.39835" lon="6.40118">
        <ele>2064</ele>
        <time>2021-09-01T12:48:33.000Z</time>
      </trkpt>
      <trkpt lat="44.39837" lon="6.40118">
        <ele>2064</ele>
        <time>2021-09-01T12:48:34.000Z</time>
      </trkpt>
      <trkpt lat="44.39839" lon="6.40117">
        <ele>2064</ele>
        <time>2021-09-01T12:48:35.000Z</time>
      </trkpt>
      <trkpt lat="44.39841" lon="6.40116">
        <ele>2064</ele>
        <time>2021-09-01T12:48:36.000Z</time>
      </trkpt>
      <trkpt lat="44.39843" lon="6.40116">
        <ele>2064</ele>
        <time>2021-09-01T12:48:37.000Z</time>
      </trkpt>
      <trkpt lat="44.39845" lon="6.40115">
        <ele>2064</ele>
        <time>2021-09-01T12:48:38.000Z</time>
      </trkpt>
      <trkpt lat="44.39846" lon="6.40114">
        <ele>2065</ele>
        <time>2021-09-01T12:48:39.000Z</time>
      </trkpt>
      <trkpt lat="44.39848" lon="6.40114">
        <ele>2065</ele>
        <time>2021-09-01T12:48:40.000Z</time>
      </trkpt>
      <trkpt lat="44.3985" lon="6.40113">
        <ele>2065</ele>
        <time>2021-09-01T12:48:41.000Z</time>
      </trkpt>
      <trkpt lat="44.39852" lon="6.40112">
        <ele>2065</ele>
        <time>2021-09-01T12:48:42.000Z</time>
      </trkpt>
      <trkpt lat="44.39854" lon="6.40111">
        <ele>2065</ele>
        <time>2021-09-01T12:48:43.000Z</time>
      </trkpt>
      <trkpt lat="44.39856" lon="6.40111">
        <ele>2066</ele>
        <time>2021-09-01T12:48:44.000Z</time>
      </trkpt>
      <trkpt lat="44.39858" lon="6.4011">
        <ele>2066</ele>
        <time>2021-09-01T12:48:45.000Z</time>
      </trkpt>
      <trkpt lat="44.3986" lon="6.4011">
        <ele>2067</ele>
        <time>2021-09-01T12:48:46.000Z</time>
      </trkpt>
      <trkpt lat="44.39862" lon="6.40109">
        <ele>2067</ele>
        <time>2021-09-01T12:48:47.000Z</time>
      </trkpt>
      <trkpt lat="44.39863" lon="6.40108">
        <ele>2068</ele>
        <time>2021-09-01T12:48:48.000Z</time>
      </trkpt>
      <trkpt lat="44.39865" lon="6.40108">
        <ele>2068</ele>
        <time>2021-09-01T12:48:49.000Z</time>
      </trkpt>
      <trkpt lat="44.39867" lon="6.40107">
        <ele>2068</ele>
        <time>2021-09-01T12:48:50.000Z</time>
      </trkpt>
      <trkpt lat="44.39869" lon="6.40106">
        <ele>2068</ele>
        <time>2021-09-01T12:48:51.000Z</time>
      </trkpt>
      <trkpt lat="44.39871" lon="6.40105">
        <ele>2068</ele>
        <time>2021-09-01T12:48:52.000Z</time>
      </trkpt>
      <trkpt lat="44.39873" lon="6.40105">
        <ele>2069</ele>
        <time>2021-09-01T12:48:53.000Z</time>
      </trkpt>
      <trkpt lat="44.39875" lon="6.40105">
        <ele>2068</ele>
        <time>2021-09-01T12:48:54.000Z</time>
      </trkpt>
      <trkpt lat="44.39877" lon="6.40104">
        <ele>2069</ele>
        <time>2021-09-01T12:48:55.000Z</time>
      </trkpt>
      <trkpt lat="44.39878" lon="6.40104">
        <ele>2069</ele>
        <time>2021-09-01T12:48:56.000Z</time>
      </trkpt>
      <trkpt lat="44.3988" lon="6.40103">
        <ele>2069</ele>
        <time>2021-09-01T12:48:57.000Z</time>
      </trkpt>
      <trkpt lat="44.39882" lon="6.40103">
        <ele>2069</ele>
        <time>2021-09-01T12:48:58.000Z</time>
      </trkpt>
      <trkpt lat="44.39884" lon="6.40102">
        <ele>2070</ele>
        <time>2021-09-01T12:48:59.000Z</time>
      </trkpt>
      <trkpt lat="44.39885" lon="6.40101">
        <ele>2070</ele>
        <time>2021-09-01T12:49:00.000Z</time>
      </trkpt>
      <trkpt lat="44.39887" lon="6.40101">
        <ele>2071</ele>
        <time>2021-09-01T12:49:01.000Z</time>
      </trkpt>
      <trkpt lat="44.39888" lon="6.401">
        <ele>2071</ele>
        <time>2021-09-01T12:49:02.000Z</time>
      </trkpt>
      <trkpt lat="44.3989" lon="6.40099">
        <ele>2071</ele>
        <time>2021-09-01T12:49:03.000Z</time>
      </trkpt>
      <trkpt lat="44.39892" lon="6.40099">
        <ele>2071</ele>
        <time>2021-09-01T12:49:04.000Z</time>
      </trkpt>
      <trkpt lat="44.39893" lon="6.40098">
        <ele>2071</ele>
        <time>2021-09-01T12:49:05.000Z</time>
      </trkpt>
      <trkpt lat="44.39895" lon="6.40098">
        <ele>2071</ele>
        <time>2021-09-01T12:49:06.000Z</time>
      </trkpt>
      <trkpt lat="44.39896" lon="6.40097">
        <ele>2071</ele>
        <time>2021-09-01T12:49:07.000Z</time>
      </trkpt>
      <trkpt lat="44.39898" lon="6.40096">
        <ele>2072</ele>
        <time>2021-09-01T12:49:08.000Z</time>
      </trkpt>
      <trkpt lat="44.399" lon="6.40095">
        <ele>2072</ele>
        <time>2021-09-01T12:49:09.000Z</time>
      </trkpt>
      <trkpt lat="44.39901" lon="6.40095">
        <ele>2071</ele>
        <time>2021-09-01T12:49:10.000Z</time>
      </trkpt>
      <trkpt lat="44.39903" lon="6.40094">
        <ele>2071</ele>
        <time>2021-09-01T12:49:11.000Z</time>
      </trkpt>
      <trkpt lat="44.39905" lon="6.40094">
        <ele>2071</ele>
        <time>2021-09-01T12:49:12.000Z</time>
      </trkpt>
      <trkpt lat="44.39906" lon="6.40093">
        <ele>2071</ele>
        <time>2021-09-01T12:49:13.000Z</time>
      </trkpt>
      <trkpt lat="44.39907" lon="6.40092">
        <ele>2071</ele>
        <time>2021-09-01T12:49:14.000Z</time>
      </trkpt>
      <trkpt lat="44.39908" lon="6.4009">
        <ele>2071</ele>
        <time>2021-09-01T12:49:15.000Z</time>
      </trkpt>
      <trkpt lat="44.39909" lon="6.40088">
        <ele>2072</ele>
        <time>2021-09-01T12:49:16.000Z</time>
      </trkpt>
      <trkpt lat="44.39909" lon="6.40086">
        <ele>2072</ele>
        <time>2021-09-01T12:49:17.000Z</time>
      </trkpt>
      <trkpt lat="44.39909" lon="6.40084">
        <ele>2072</ele>
        <time>2021-09-01T12:49:18.000Z</time>
      </trkpt>
      <trkpt lat="44.39908" lon="6.40081">
        <ele>2071</ele>
        <time>2021-09-01T12:49:19.000Z</time>
      </trkpt>
      <trkpt lat="44.39907" lon="6.40079">
        <ele>2071</ele>
        <time>2021-09-01T12:49:20.000Z</time>
      </trkpt>
      <trkpt lat="44.39906" lon="6.40076">
        <ele>2071</ele>
        <time>2021-09-01T12:49:21.000Z</time>
      </trkpt>
      <trkpt lat="44.39906" lon="6.40073">
        <ele>2071</ele>
        <time>2021-09-01T12:49:22.000Z</time>
      </trkpt>
      <trkpt lat="44.39906" lon="6.40071">
        <ele>2071</ele>
        <time>2021-09-01T12:49:23.000Z</time>
      </trkpt>
      <trkpt lat="44.39906" lon="6.40069">
        <ele>2071</ele>
        <time>2021-09-01T12:49:24.000Z</time>
      </trkpt>
      <trkpt lat="44.39906" lon="6.40066">
        <ele>2071</ele>
        <time>2021-09-01T12:49:25.000Z</time>
      </trkpt>
      <trkpt lat="44.39905" lon="6.40064">
        <ele>2071</ele>
        <time>2021-09-01T12:49:26.000Z</time>
      </trkpt>
      <trkpt lat="44.39905" lon="6.40061">
        <ele>2071</ele>
        <time>2021-09-01T12:49:27.000Z</time>
      </trkpt>
      <trkpt lat="44.39905" lon="6.40058">
        <ele>2070</ele>
        <time>2021-09-01T12:49:28.000Z</time>
      </trkpt>
      <trkpt lat="44.39904" lon="6.40055">
        <ele>2070</ele>
        <time>2021-09-01T12:49:29.000Z</time>
      </trkpt>
      <trkpt lat="44.39904" lon="6.40053">
        <ele>2071</ele>
        <time>2021-09-01T12:49:30.000Z</time>
      </trkpt>
      <trkpt lat="44.39903" lon="6.4005">
        <ele>2070</ele>
        <time>2021-09-01T12:49:31.000Z</time>
      </trkpt>
      <trkpt lat="44.39903" lon="6.40048">
        <ele>2070</ele>
        <time>2021-09-01T12:49:32.000Z</time>
      </trkpt>
      <trkpt lat="44.39902" lon="6.40045">
        <ele>2070</ele>
        <time>2021-09-01T12:49:33.000Z</time>
      </trkpt>
      <trkpt lat="44.39902" lon="6.40042">
        <ele>2071</ele>
        <time>2021-09-01T12:49:34.000Z</time>
      </trkpt>
      <trkpt lat="44.39901" lon="6.40039">
        <ele>2071</ele>
        <time>2021-09-01T12:49:35.000Z</time>
      </trkpt>
      <trkpt lat="44.39901" lon="6.40037">
        <ele>2071</ele>
        <time>2021-09-01T12:49:36.000Z</time>
      </trkpt>
      <trkpt lat="44.399" lon="6.40034">
        <ele>2072</ele>
        <time>2021-09-01T12:49:37.000Z</time>
      </trkpt>
      <trkpt lat="44.39899" lon="6.40031">
        <ele>2072</ele>
        <time>2021-09-01T12:49:38.000Z</time>
      </trkpt>
      <trkpt lat="44.39898" lon="6.40029">
        <ele>2073</ele>
        <time>2021-09-01T12:49:39.000Z</time>
      </trkpt>
      <trkpt lat="44.39898" lon="6.40026">
        <ele>2073</ele>
        <time>2021-09-01T12:49:40.000Z</time>
      </trkpt>
      <trkpt lat="44.39897" lon="6.40023">
        <ele>2074</ele>
        <time>2021-09-01T12:49:41.000Z</time>
      </trkpt>
      <trkpt lat="44.39897" lon="6.4002">
        <ele>2074</ele>
        <time>2021-09-01T12:49:42.000Z</time>
      </trkpt>
      <trkpt lat="44.39896" lon="6.40017">
        <ele>2074</ele>
        <time>2021-09-01T12:49:43.000Z</time>
      </trkpt>
      <trkpt lat="44.39896" lon="6.40014">
        <ele>2074</ele>
        <time>2021-09-01T12:49:44.000Z</time>
      </trkpt>
      <trkpt lat="44.39895" lon="6.40011">
        <ele>2074</ele>
        <time>2021-09-01T12:49:45.000Z</time>
      </trkpt>
      <trkpt lat="44.39895" lon="6.40008">
        <ele>2074</ele>
        <time>2021-09-01T12:49:46.000Z</time>
      </trkpt>
      <trkpt lat="44.39894" lon="6.40005">
        <ele>2075</ele>
        <time>2021-09-01T12:49:47.000Z</time>
      </trkpt>
      <trkpt lat="44.39894" lon="6.40002">
        <ele>2075</ele>
        <time>2021-09-01T12:49:48.000Z</time>
      </trkpt>
      <trkpt lat="44.39893" lon="6.39999">
        <ele>2076</ele>
        <time>2021-09-01T12:49:49.000Z</time>
      </trkpt>
      <trkpt lat="44.39892" lon="6.39997">
        <ele>2076</ele>
        <time>2021-09-01T12:49:50.000Z</time>
      </trkpt>
      <trkpt lat="44.39891" lon="6.39995">
        <ele>2076</ele>
        <time>2021-09-01T12:49:51.000Z</time>
      </trkpt>
      <trkpt lat="44.39891" lon="6.39992">
        <ele>2076</ele>
        <time>2021-09-01T12:49:52.000Z</time>
      </trkpt>
      <trkpt lat="44.3989" lon="6.39989">
        <ele>2076</ele>
        <time>2021-09-01T12:49:53.000Z</time>
      </trkpt>
      <trkpt lat="44.3989" lon="6.39986">
        <ele>2076</ele>
        <time>2021-09-01T12:49:54.000Z</time>
      </trkpt>
      <trkpt lat="44.39889" lon="6.39984">
        <ele>2077</ele>
        <time>2021-09-01T12:49:55.000Z</time>
      </trkpt>
      <trkpt lat="44.39888" lon="6.39981">
        <ele>2077</ele>
        <time>2021-09-01T12:49:56.000Z</time>
      </trkpt>
      <trkpt lat="44.39887" lon="6.39978">
        <ele>2077</ele>
        <time>2021-09-01T12:49:57.000Z</time>
      </trkpt>
      <trkpt lat="44.39886" lon="6.39975">
        <ele>2077</ele>
        <time>2021-09-01T12:49:58.000Z</time>
      </trkpt>
      <trkpt lat="44.39885" lon="6.39973">
        <ele>2078</ele>
        <time>2021-09-01T12:49:59.000Z</time>
      </trkpt>
      <trkpt lat="44.39885" lon="6.3997">
        <ele>2079</ele>
        <time>2021-09-01T12:50:00.000Z</time>
      </trkpt>
      <trkpt lat="44.39884" lon="6.39968">
        <ele>2079</ele>
        <time>2021-09-01T12:50:01.000Z</time>
      </trkpt>
      <trkpt lat="44.39884" lon="6.39965">
        <ele>2080</ele>
        <time>2021-09-01T12:50:02.000Z</time>
      </trkpt>
      <trkpt lat="44.39883" lon="6.39962">
        <ele>2081</ele>
        <time>2021-09-01T12:50:03.000Z</time>
      </trkpt>
      <trkpt lat="44.39882" lon="6.39959">
        <ele>2081</ele>
        <time>2021-09-01T12:50:04.000Z</time>
      </trkpt>
      <trkpt lat="44.39882" lon="6.39956">
        <ele>2082</ele>
        <time>2021-09-01T12:50:05.000Z</time>
      </trkpt>
      <trkpt lat="44.39882" lon="6.39953">
        <ele>2082</ele>
        <time>2021-09-01T12:50:06.000Z</time>
      </trkpt>
      <trkpt lat="44.39883" lon="6.3995">
        <ele>2083</ele>
        <time>2021-09-01T12:50:07.000Z</time>
      </trkpt>
      <trkpt lat="44.39883" lon="6.39948">
        <ele>2083</ele>
        <time>2021-09-01T12:50:08.000Z</time>
      </trkpt>
      <trkpt lat="44.39883" lon="6.39945">
        <ele>2083</ele>
        <time>2021-09-01T12:50:09.000Z</time>
      </trkpt>
      <trkpt lat="44.39883" lon="6.39942">
        <ele>2083</ele>
        <time>2021-09-01T12:50:10.000Z</time>
      </trkpt>
      <trkpt lat="44.39883" lon="6.39939">
        <ele>2083</ele>
        <time>2021-09-01T12:50:11.000Z</time>
      </trkpt>
      <trkpt lat="44.39882" lon="6.39936">
        <ele>2083</ele>
        <time>2021-09-01T12:50:12.000Z</time>
      </trkpt>
      <trkpt lat="44.39882" lon="6.39933">
        <ele>2083</ele>
        <time>2021-09-01T12:50:13.000Z</time>
      </trkpt>
      <trkpt lat="44.39881" lon="6.39931">
        <ele>2084</ele>
        <time>2021-09-01T12:50:14.000Z</time>
      </trkpt>
      <trkpt lat="44.39881" lon="6.39928">
        <ele>2084</ele>
        <time>2021-09-01T12:50:15.000Z</time>
      </trkpt>
      <trkpt lat="44.39882" lon="6.39925">
        <ele>2085</ele>
        <time>2021-09-01T12:50:16.000Z</time>
      </trkpt>
      <trkpt lat="44.39882" lon="6.39923">
        <ele>2085</ele>
        <time>2021-09-01T12:50:17.000Z</time>
      </trkpt>
      <trkpt lat="44.39882" lon="6.3992">
        <ele>2085</ele>
        <time>2021-09-01T12:50:18.000Z</time>
      </trkpt>
      <trkpt lat="44.39882" lon="6.39918">
        <ele>2086</ele>
        <time>2021-09-01T12:50:19.000Z</time>
      </trkpt>
      <trkpt lat="44.39882" lon="6.39915">
        <ele>2086</ele>
        <time>2021-09-01T12:50:20.000Z</time>
      </trkpt>
      <trkpt lat="44.39883" lon="6.39912">
        <ele>2086</ele>
        <time>2021-09-01T12:50:21.000Z</time>
      </trkpt>
      <trkpt lat="44.39883" lon="6.3991">
        <ele>2086</ele>
        <time>2021-09-01T12:50:22.000Z</time>
      </trkpt>
      <trkpt lat="44.39883" lon="6.39907">
        <ele>2086</ele>
        <time>2021-09-01T12:50:23.000Z</time>
      </trkpt>
      <trkpt lat="44.39883" lon="6.39905">
        <ele>2087</ele>
        <time>2021-09-01T12:50:24.000Z</time>
      </trkpt>
      <trkpt lat="44.39883" lon="6.39903">
        <ele>2088</ele>
        <time>2021-09-01T12:50:25.000Z</time>
      </trkpt>
      <trkpt lat="44.39884" lon="6.399">
        <ele>2088</ele>
        <time>2021-09-01T12:50:26.000Z</time>
      </trkpt>
      <trkpt lat="44.39884" lon="6.39897">
        <ele>2088</ele>
        <time>2021-09-01T12:50:27.000Z</time>
      </trkpt>
      <trkpt lat="44.39885" lon="6.39895">
        <ele>2088</ele>
        <time>2021-09-01T12:50:28.000Z</time>
      </trkpt>
      <trkpt lat="44.39885" lon="6.39893">
        <ele>2088</ele>
        <time>2021-09-01T12:50:29.000Z</time>
      </trkpt>
      <trkpt lat="44.39886" lon="6.3989">
        <ele>2088</ele>
        <time>2021-09-01T12:50:30.000Z</time>
      </trkpt>
      <trkpt lat="44.39887" lon="6.39888">
        <ele>2088</ele>
        <time>2021-09-01T12:50:31.000Z</time>
      </trkpt>
      <trkpt lat="44.39887" lon="6.39886">
        <ele>2088</ele>
        <time>2021-09-01T12:50:32.000Z</time>
      </trkpt>
      <trkpt lat="44.39888" lon="6.39884">
        <ele>2088</ele>
        <time>2021-09-01T12:50:33.000Z</time>
      </trkpt>
      <trkpt lat="44.39889" lon="6.39882">
        <ele>2089</ele>
        <time>2021-09-01T12:50:34.000Z</time>
      </trkpt>
      <trkpt lat="44.3989" lon="6.3988">
        <ele>2089</ele>
        <time>2021-09-01T12:50:35.000Z</time>
      </trkpt>
      <trkpt lat="44.39892" lon="6.39878">
        <ele>2090</ele>
        <time>2021-09-01T12:50:36.000Z</time>
      </trkpt>
      <trkpt lat="44.39893" lon="6.39876">
        <ele>2090</ele>
        <time>2021-09-01T12:50:37.000Z</time>
      </trkpt>
      <trkpt lat="44.39894" lon="6.39874">
        <ele>2090</ele>
        <time>2021-09-01T12:50:38.000Z</time>
      </trkpt>
      <trkpt lat="44.39896" lon="6.39872">
        <ele>2091</ele>
        <time>2021-09-01T12:50:39.000Z</time>
      </trkpt>
      <trkpt lat="44.39897" lon="6.3987">
        <ele>2091</ele>
        <time>2021-09-01T12:50:40.000Z</time>
      </trkpt>
      <trkpt lat="44.39899" lon="6.39868">
        <ele>2092</ele>
        <time>2021-09-01T12:50:41.000Z</time>
      </trkpt>
      <trkpt lat="44.399" lon="6.39866">
        <ele>2092</ele>
        <time>2021-09-01T12:50:42.000Z</time>
      </trkpt>
      <trkpt lat="44.39902" lon="6.39865">
        <ele>2093</ele>
        <time>2021-09-01T12:50:43.000Z</time>
      </trkpt>
      <trkpt lat="44.39904" lon="6.39863">
        <ele>2094</ele>
        <time>2021-09-01T12:50:44.000Z</time>
      </trkpt>
      <trkpt lat="44.39905" lon="6.39861">
        <ele>2094</ele>
        <time>2021-09-01T12:50:45.000Z</time>
      </trkpt>
      <trkpt lat="44.39907" lon="6.3986">
        <ele>2095</ele>
        <time>2021-09-01T12:50:46.000Z</time>
      </trkpt>
      <trkpt lat="44.39908" lon="6.39858">
        <ele>2095</ele>
        <time>2021-09-01T12:50:47.000Z</time>
      </trkpt>
      <trkpt lat="44.3991" lon="6.39856">
        <ele>2095</ele>
        <time>2021-09-01T12:50:48.000Z</time>
      </trkpt>
      <trkpt lat="44.39911" lon="6.39855">
        <ele>2095</ele>
        <time>2021-09-01T12:50:49.000Z</time>
      </trkpt>
      <trkpt lat="44.39913" lon="6.39853">
        <ele>2095</ele>
        <time>2021-09-01T12:50:50.000Z</time>
      </trkpt>
      <trkpt lat="44.39914" lon="6.39851">
        <ele>2096</ele>
        <time>2021-09-01T12:50:51.000Z</time>
      </trkpt>
      <trkpt lat="44.39915" lon="6.39849">
        <ele>2096</ele>
        <time>2021-09-01T12:50:52.000Z</time>
      </trkpt>
      <trkpt lat="44.39917" lon="6.39848">
        <ele>2096</ele>
        <time>2021-09-01T12:50:53.000Z</time>
      </trkpt>
      <trkpt lat="44.39918" lon="6.39846">
        <ele>2096</ele>
        <time>2021-09-01T12:50:54.000Z</time>
      </trkpt>
      <trkpt lat="44.3992" lon="6.39844">
        <ele>2097</ele>
        <time>2021-09-01T12:50:55.000Z</time>
      </trkpt>
      <trkpt lat="44.39922" lon="6.39842">
        <ele>2097</ele>
        <time>2021-09-01T12:50:56.000Z</time>
      </trkpt>
      <trkpt lat="44.39923" lon="6.3984">
        <ele>2098</ele>
        <time>2021-09-01T12:50:57.000Z</time>
      </trkpt>
      <trkpt lat="44.39925" lon="6.39838">
        <ele>2098</ele>
        <time>2021-09-01T12:50:58.000Z</time>
      </trkpt>
      <trkpt lat="44.39926" lon="6.39836">
        <ele>2098</ele>
        <time>2021-09-01T12:50:59.000Z</time>
      </trkpt>
      <trkpt lat="44.39927" lon="6.39834">
        <ele>2099</ele>
        <time>2021-09-01T12:51:00.000Z</time>
      </trkpt>
      <trkpt lat="44.39928" lon="6.39832">
        <ele>2099</ele>
        <time>2021-09-01T12:51:01.000Z</time>
      </trkpt>
      <trkpt lat="44.39929" lon="6.3983">
        <ele>2099</ele>
        <time>2021-09-01T12:51:02.000Z</time>
      </trkpt>
      <trkpt lat="44.3993" lon="6.39828">
        <ele>2099</ele>
        <time>2021-09-01T12:51:03.000Z</time>
      </trkpt>
      <trkpt lat="44.39931" lon="6.39826">
        <ele>2099</ele>
        <time>2021-09-01T12:51:04.000Z</time>
      </trkpt>
      <trkpt lat="44.39932" lon="6.39824">
        <ele>2099</ele>
        <time>2021-09-01T12:51:05.000Z</time>
      </trkpt>
      <trkpt lat="44.39933" lon="6.39822">
        <ele>2100</ele>
        <time>2021-09-01T12:51:06.000Z</time>
      </trkpt>
      <trkpt lat="44.39934" lon="6.3982">
        <ele>2100</ele>
        <time>2021-09-01T12:51:07.000Z</time>
      </trkpt>
      <trkpt lat="44.39935" lon="6.39818">
        <ele>2100</ele>
        <time>2021-09-01T12:51:08.000Z</time>
      </trkpt>
      <trkpt lat="44.39936" lon="6.39817">
        <ele>2100</ele>
        <time>2021-09-01T12:51:09.000Z</time>
      </trkpt>
      <trkpt lat="44.39937" lon="6.39815">
        <ele>2101</ele>
        <time>2021-09-01T12:51:10.000Z</time>
      </trkpt>
      <trkpt lat="44.39938" lon="6.39813">
        <ele>2101</ele>
        <time>2021-09-01T12:51:11.000Z</time>
      </trkpt>
      <trkpt lat="44.39939" lon="6.39812">
        <ele>2101</ele>
        <time>2021-09-01T12:51:12.000Z</time>
      </trkpt>
      <trkpt lat="44.3994" lon="6.39809">
        <ele>2101</ele>
        <time>2021-09-01T12:51:13.000Z</time>
      </trkpt>
      <trkpt lat="44.3994" lon="6.39807">
        <ele>2100</ele>
        <time>2021-09-01T12:51:14.000Z</time>
      </trkpt>
      <trkpt lat="44.39941" lon="6.39805">
        <ele>2100</ele>
        <time>2021-09-01T12:51:15.000Z</time>
      </trkpt>
      <trkpt lat="44.39942" lon="6.39803">
        <ele>2100</ele>
        <time>2021-09-01T12:51:16.000Z</time>
      </trkpt>
      <trkpt lat="44.39942" lon="6.398">
        <ele>2100</ele>
        <time>2021-09-01T12:51:17.000Z</time>
      </trkpt>
      <trkpt lat="44.39941" lon="6.39798">
        <ele>2100</ele>
        <time>2021-09-01T12:51:18.000Z</time>
      </trkpt>
      <trkpt lat="44.39941" lon="6.39796">
        <ele>2100</ele>
        <time>2021-09-01T12:51:19.000Z</time>
      </trkpt>
      <trkpt lat="44.39942" lon="6.39793">
        <ele>2100</ele>
        <time>2021-09-01T12:51:20.000Z</time>
      </trkpt>
      <trkpt lat="44.39942" lon="6.39791">
        <ele>2100</ele>
        <time>2021-09-01T12:51:21.000Z</time>
      </trkpt>
      <trkpt lat="44.39942" lon="6.39788">
        <ele>2100</ele>
        <time>2021-09-01T12:51:22.000Z</time>
      </trkpt>
      <trkpt lat="44.39943" lon="6.39786">
        <ele>2101</ele>
        <time>2021-09-01T12:51:23.000Z</time>
      </trkpt>
      <trkpt lat="44.39943" lon="6.39784">
        <ele>2101</ele>
        <time>2021-09-01T12:51:24.000Z</time>
      </trkpt>
      <trkpt lat="44.39944" lon="6.39781">
        <ele>2101</ele>
        <time>2021-09-01T12:51:25.000Z</time>
      </trkpt>
      <trkpt lat="44.39944" lon="6.39779">
        <ele>2101</ele>
        <time>2021-09-01T12:51:26.000Z</time>
      </trkpt>
      <trkpt lat="44.39944" lon="6.39776">
        <ele>2101</ele>
        <time>2021-09-01T12:51:27.000Z</time>
      </trkpt>
      <trkpt lat="44.39944" lon="6.39774">
        <ele>2101</ele>
        <time>2021-09-01T12:51:28.000Z</time>
      </trkpt>
      <trkpt lat="44.39944" lon="6.39771">
        <ele>2100</ele>
        <time>2021-09-01T12:51:29.000Z</time>
      </trkpt>
      <trkpt lat="44.39944" lon="6.39769">
        <ele>2101</ele>
        <time>2021-09-01T12:51:30.000Z</time>
      </trkpt>
      <trkpt lat="44.39945" lon="6.39767">
        <ele>2101</ele>
        <time>2021-09-01T12:51:31.000Z</time>
      </trkpt>
      <trkpt lat="44.39945" lon="6.39765">
        <ele>2101</ele>
        <time>2021-09-01T12:51:32.000Z</time>
      </trkpt>
      <trkpt lat="44.39944" lon="6.39763">
        <ele>2101</ele>
        <time>2021-09-01T12:51:33.000Z</time>
      </trkpt>
      <trkpt lat="44.39944" lon="6.39761">
        <ele>2102</ele>
        <time>2021-09-01T12:51:34.000Z</time>
      </trkpt>
      <trkpt lat="44.39944" lon="6.39759">
        <ele>2102</ele>
        <time>2021-09-01T12:51:35.000Z</time>
      </trkpt>
      <trkpt lat="44.39945" lon="6.39757">
        <ele>2102</ele>
        <time>2021-09-01T12:51:36.000Z</time>
      </trkpt>
      <trkpt lat="44.39945" lon="6.39755">
        <ele>2103</ele>
        <time>2021-09-01T12:51:37.000Z</time>
      </trkpt>
      <trkpt lat="44.39945" lon="6.39753">
        <ele>2103</ele>
        <time>2021-09-01T12:51:38.000Z</time>
      </trkpt>
      <trkpt lat="44.39946" lon="6.3975">
        <ele>2103</ele>
        <time>2021-09-01T12:51:39.000Z</time>
      </trkpt>
      <trkpt lat="44.39946" lon="6.39747">
        <ele>2103</ele>
        <time>2021-09-01T12:51:40.000Z</time>
      </trkpt>
      <trkpt lat="44.39946" lon="6.39745">
        <ele>2104</ele>
        <time>2021-09-01T12:51:41.000Z</time>
      </trkpt>
      <trkpt lat="44.39947" lon="6.39742">
        <ele>2105</ele>
        <time>2021-09-01T12:51:42.000Z</time>
      </trkpt>
      <trkpt lat="44.39948" lon="6.3974">
        <ele>2106</ele>
        <time>2021-09-01T12:51:43.000Z</time>
      </trkpt>
      <trkpt lat="44.39948" lon="6.39738">
        <ele>2106</ele>
        <time>2021-09-01T12:51:44.000Z</time>
      </trkpt>
      <trkpt lat="44.39949" lon="6.39736">
        <ele>2106</ele>
        <time>2021-09-01T12:51:45.000Z</time>
      </trkpt>
      <trkpt lat="44.39949" lon="6.39733">
        <ele>2106</ele>
        <time>2021-09-01T12:51:46.000Z</time>
      </trkpt>
      <trkpt lat="44.3995" lon="6.39731">
        <ele>2106</ele>
        <time>2021-09-01T12:51:47.000Z</time>
      </trkpt>
      <trkpt lat="44.39951" lon="6.39728">
        <ele>2106</ele>
        <time>2021-09-01T12:51:48.000Z</time>
      </trkpt>
      <trkpt lat="44.39952" lon="6.39726">
        <ele>2106</ele>
        <time>2021-09-01T12:51:49.000Z</time>
      </trkpt>
      <trkpt lat="44.39953" lon="6.39723">
        <ele>2107</ele>
        <time>2021-09-01T12:51:50.000Z</time>
      </trkpt>
      <trkpt lat="44.39953" lon="6.3972">
        <ele>2107</ele>
        <time>2021-09-01T12:51:51.000Z</time>
      </trkpt>
      <trkpt lat="44.39954" lon="6.39717">
        <ele>2107</ele>
        <time>2021-09-01T12:51:52.000Z</time>
      </trkpt>
      <trkpt lat="44.39954" lon="6.39715">
        <ele>2109</ele>
        <time>2021-09-01T12:51:53.000Z</time>
      </trkpt>
      <trkpt lat="44.39954" lon="6.39712">
        <ele>2109</ele>
        <time>2021-09-01T12:51:54.000Z</time>
      </trkpt>
      <trkpt lat="44.39954" lon="6.39709">
        <ele>2109</ele>
        <time>2021-09-01T12:51:55.000Z</time>
      </trkpt>
      <trkpt lat="44.39954" lon="6.39706">
        <ele>2110</ele>
        <time>2021-09-01T12:51:56.000Z</time>
      </trkpt>
      <trkpt lat="44.39954" lon="6.39704">
        <ele>2110</ele>
        <time>2021-09-01T12:51:57.000Z</time>
      </trkpt>
      <trkpt lat="44.39953" lon="6.39701">
        <ele>2111</ele>
        <time>2021-09-01T12:51:58.000Z</time>
      </trkpt>
      <trkpt lat="44.39952" lon="6.39699">
        <ele>2113</ele>
        <time>2021-09-01T12:51:59.000Z</time>
      </trkpt>
      <trkpt lat="44.39952" lon="6.39696">
        <ele>2113</ele>
        <time>2021-09-01T12:52:00.000Z</time>
      </trkpt>
      <trkpt lat="44.39951" lon="6.39693">
        <ele>2115</ele>
        <time>2021-09-01T12:52:01.000Z</time>
      </trkpt>
      <trkpt lat="44.39951" lon="6.39691">
        <ele>2116</ele>
        <time>2021-09-01T12:52:02.000Z</time>
      </trkpt>
      <trkpt lat="44.39951" lon="6.39688">
        <ele>2116</ele>
        <time>2021-09-01T12:52:03.000Z</time>
      </trkpt>
      <trkpt lat="44.3995" lon="6.39685">
        <ele>2116</ele>
        <time>2021-09-01T12:52:04.000Z</time>
      </trkpt>
      <trkpt lat="44.3995" lon="6.39683">
        <ele>2117</ele>
        <time>2021-09-01T12:52:05.000Z</time>
      </trkpt>
      <trkpt lat="44.3995" lon="6.39681">
        <ele>2117</ele>
        <time>2021-09-01T12:52:06.000Z</time>
      </trkpt>
      <trkpt lat="44.3995" lon="6.39679">
        <ele>2117</ele>
        <time>2021-09-01T12:52:07.000Z</time>
      </trkpt>
      <trkpt lat="44.39949" lon="6.39677">
        <ele>2118</ele>
        <time>2021-09-01T12:52:08.000Z</time>
      </trkpt>
      <trkpt lat="44.39949" lon="6.39674">
        <ele>2117</ele>
        <time>2021-09-01T12:52:09.000Z</time>
      </trkpt>
      <trkpt lat="44.39948" lon="6.39672">
        <ele>2118</ele>
        <time>2021-09-01T12:52:10.000Z</time>
      </trkpt>
      <trkpt lat="44.39948" lon="6.39669">
        <ele>2118</ele>
        <time>2021-09-01T12:52:11.000Z</time>
      </trkpt>
      <trkpt lat="44.39948" lon="6.39667">
        <ele>2119</ele>
        <time>2021-09-01T12:52:12.000Z</time>
      </trkpt>
      <trkpt lat="44.39947" lon="6.39665">
        <ele>2120</ele>
        <time>2021-09-01T12:52:13.000Z</time>
      </trkpt>
      <trkpt lat="44.39947" lon="6.39663">
        <ele>2121</ele>
        <time>2021-09-01T12:52:14.000Z</time>
      </trkpt>
      <trkpt lat="44.39947" lon="6.39662">
        <ele>2121</ele>
        <time>2021-09-01T12:52:15.000Z</time>
      </trkpt>
      <trkpt lat="44.39947" lon="6.3966">
        <ele>2121</ele>
        <time>2021-09-01T12:52:16.000Z</time>
      </trkpt>
      <trkpt lat="44.39947" lon="6.39658">
        <ele>2122</ele>
        <time>2021-09-01T12:52:17.000Z</time>
      </trkpt>
      <trkpt lat="44.39947" lon="6.39655">
        <ele>2122</ele>
        <time>2021-09-01T12:52:18.000Z</time>
      </trkpt>
      <trkpt lat="44.39947" lon="6.39652">
        <ele>2123</ele>
        <time>2021-09-01T12:52:19.000Z</time>
      </trkpt>
      <trkpt lat="44.39946" lon="6.3965">
        <ele>2123</ele>
        <time>2021-09-01T12:52:20.000Z</time>
      </trkpt>
      <trkpt lat="44.39947" lon="6.39648">
        <ele>2123</ele>
        <time>2021-09-01T12:52:21.000Z</time>
      </trkpt>
      <trkpt lat="44.39947" lon="6.39645">
        <ele>2124</ele>
        <time>2021-09-01T12:52:22.000Z</time>
      </trkpt>
      <trkpt lat="44.39947" lon="6.39643">
        <ele>2124</ele>
        <time>2021-09-01T12:52:23.000Z</time>
      </trkpt>
      <trkpt lat="44.39946" lon="6.39641">
        <ele>2124</ele>
        <time>2021-09-01T12:52:24.000Z</time>
      </trkpt>
      <trkpt lat="44.39946" lon="6.39638">
        <ele>2124</ele>
        <time>2021-09-01T12:52:25.000Z</time>
      </trkpt>
      <trkpt lat="44.39946" lon="6.39636">
        <ele>2125</ele>
        <time>2021-09-01T12:52:26.000Z</time>
      </trkpt>
      <trkpt lat="44.39946" lon="6.39634">
        <ele>2125</ele>
        <time>2021-09-01T12:52:27.000Z</time>
      </trkpt>
      <trkpt lat="44.39947" lon="6.39631">
        <ele>2125</ele>
        <time>2021-09-01T12:52:28.000Z</time>
      </trkpt>
      <trkpt lat="44.39947" lon="6.39629">
        <ele>2126</ele>
        <time>2021-09-01T12:52:29.000Z</time>
      </trkpt>
      <trkpt lat="44.39948" lon="6.39627">
        <ele>2126</ele>
        <time>2021-09-01T12:52:30.000Z</time>
      </trkpt>
      <trkpt lat="44.39949" lon="6.39625">
        <ele>2125</ele>
        <time>2021-09-01T12:52:31.000Z</time>
      </trkpt>
      <trkpt lat="44.3995" lon="6.39623">
        <ele>2126</ele>
        <time>2021-09-01T12:52:32.000Z</time>
      </trkpt>
      <trkpt lat="44.3995" lon="6.39621">
        <ele>2127</ele>
        <time>2021-09-01T12:52:33.000Z</time>
      </trkpt>
      <trkpt lat="44.39951" lon="6.39619">
        <ele>2126</ele>
        <time>2021-09-01T12:52:34.000Z</time>
      </trkpt>
      <trkpt lat="44.39951" lon="6.39617">
        <ele>2127</ele>
        <time>2021-09-01T12:52:35.000Z</time>
      </trkpt>
      <trkpt lat="44.39952" lon="6.39615">
        <ele>2127</ele>
        <time>2021-09-01T12:52:36.000Z</time>
      </trkpt>
      <trkpt lat="44.39953" lon="6.39613">
        <ele>2127</ele>
        <time>2021-09-01T12:52:37.000Z</time>
      </trkpt>
      <trkpt lat="44.39953" lon="6.3961">
        <ele>2126</ele>
        <time>2021-09-01T12:52:38.000Z</time>
      </trkpt>
      <trkpt lat="44.39952" lon="6.39608">
        <ele>2127</ele>
        <time>2021-09-01T12:52:39.000Z</time>
      </trkpt>
      <trkpt lat="44.39952" lon="6.39605">
        <ele>2128</ele>
        <time>2021-09-01T12:52:40.000Z</time>
      </trkpt>
      <trkpt lat="44.39953" lon="6.39603">
        <ele>2128</ele>
        <time>2021-09-01T12:52:41.000Z</time>
      </trkpt>
      <trkpt lat="44.39953" lon="6.39601">
        <ele>2128</ele>
        <time>2021-09-01T12:52:42.000Z</time>
      </trkpt>
      <trkpt lat="44.39953" lon="6.39599">
        <ele>2129</ele>
        <time>2021-09-01T12:52:43.000Z</time>
      </trkpt>
      <trkpt lat="44.39953" lon="6.39596">
        <ele>2129</ele>
        <time>2021-09-01T12:52:44.000Z</time>
      </trkpt>
      <trkpt lat="44.39954" lon="6.39593">
        <ele>2129</ele>
        <time>2021-09-01T12:52:45.000Z</time>
      </trkpt>
      <trkpt lat="44.39954" lon="6.3959">
        <ele>2129</ele>
        <time>2021-09-01T12:52:46.000Z</time>
      </trkpt>
      <trkpt lat="44.39954" lon="6.39588">
        <ele>2130</ele>
        <time>2021-09-01T12:52:47.000Z</time>
      </trkpt>
      <trkpt lat="44.39955" lon="6.39586">
        <ele>2130</ele>
        <time>2021-09-01T12:52:48.000Z</time>
      </trkpt>
      <trkpt lat="44.39955" lon="6.39582">
        <ele>2131</ele>
        <time>2021-09-01T12:52:49.000Z</time>
      </trkpt>
      <trkpt lat="44.39955" lon="6.39579">
        <ele>2130</ele>
        <time>2021-09-01T12:52:50.000Z</time>
      </trkpt>
      <trkpt lat="44.39955" lon="6.39576">
        <ele>2131</ele>
        <time>2021-09-01T12:52:51.000Z</time>
      </trkpt>
      <trkpt lat="44.39955" lon="6.39574">
        <ele>2131</ele>
        <time>2021-09-01T12:52:52.000Z</time>
      </trkpt>
      <trkpt lat="44.39955" lon="6.39571">
        <ele>2132</ele>
        <time>2021-09-01T12:52:53.000Z</time>
      </trkpt>
      <trkpt lat="44.39955" lon="6.39568">
        <ele>2132</ele>
        <time>2021-09-01T12:52:54.000Z</time>
      </trkpt>
      <trkpt lat="44.39955" lon="6.39565">
        <ele>2132</ele>
        <time>2021-09-01T12:52:55.000Z</time>
      </trkpt>
      <trkpt lat="44.39955" lon="6.39563">
        <ele>2133</ele>
        <time>2021-09-01T12:52:56.000Z</time>
      </trkpt>
      <trkpt lat="44.39956" lon="6.3956">
        <ele>2133</ele>
        <time>2021-09-01T12:52:57.000Z</time>
      </trkpt>
      <trkpt lat="44.39956" lon="6.39557">
        <ele>2132</ele>
        <time>2021-09-01T12:52:58.000Z</time>
      </trkpt>
      <trkpt lat="44.39956" lon="6.39554">
        <ele>2132</ele>
        <time>2021-09-01T12:52:59.000Z</time>
      </trkpt>
      <trkpt lat="44.39957" lon="6.39551">
        <ele>2132</ele>
        <time>2021-09-01T12:53:00.000Z</time>
      </trkpt>
      <trkpt lat="44.39957" lon="6.39548">
        <ele>2132</ele>
        <time>2021-09-01T12:53:01.000Z</time>
      </trkpt>
      <trkpt lat="44.39958" lon="6.39545">
        <ele>2132</ele>
        <time>2021-09-01T12:53:02.000Z</time>
      </trkpt>
      <trkpt lat="44.39958" lon="6.39542">
        <ele>2133</ele>
        <time>2021-09-01T12:53:03.000Z</time>
      </trkpt>
      <trkpt lat="44.39958" lon="6.39539">
        <ele>2134</ele>
        <time>2021-09-01T12:53:04.000Z</time>
      </trkpt>
      <trkpt lat="44.39958" lon="6.39536">
        <ele>2134</ele>
        <time>2021-09-01T12:53:05.000Z</time>
      </trkpt>
      <trkpt lat="44.39958" lon="6.39534">
        <ele>2134</ele>
        <time>2021-09-01T12:53:06.000Z</time>
      </trkpt>
      <trkpt lat="44.39959" lon="6.39531">
        <ele>2134</ele>
        <time>2021-09-01T12:53:07.000Z</time>
      </trkpt>
      <trkpt lat="44.39959" lon="6.39528">
        <ele>2135</ele>
        <time>2021-09-01T12:53:08.000Z</time>
      </trkpt>
      <trkpt lat="44.39959" lon="6.39525">
        <ele>2135</ele>
        <time>2021-09-01T12:53:09.000Z</time>
      </trkpt>
      <trkpt lat="44.39959" lon="6.39521">
        <ele>2136</ele>
        <time>2021-09-01T12:53:10.000Z</time>
      </trkpt>
      <trkpt lat="44.39959" lon="6.39518">
        <ele>2136</ele>
        <time>2021-09-01T12:53:11.000Z</time>
      </trkpt>
      <trkpt lat="44.39959" lon="6.39516">
        <ele>2137</ele>
        <time>2021-09-01T12:53:12.000Z</time>
      </trkpt>
      <trkpt lat="44.39959" lon="6.39513">
        <ele>2137</ele>
        <time>2021-09-01T12:53:13.000Z</time>
      </trkpt>
      <trkpt lat="44.3996" lon="6.39511">
        <ele>2137</ele>
        <time>2021-09-01T12:53:14.000Z</time>
      </trkpt>
      <trkpt lat="44.3996" lon="6.39509">
        <ele>2137</ele>
        <time>2021-09-01T12:53:15.000Z</time>
      </trkpt>
      <trkpt lat="44.3996" lon="6.39506">
        <ele>2137</ele>
        <time>2021-09-01T12:53:16.000Z</time>
      </trkpt>
      <trkpt lat="44.39961" lon="6.39503">
        <ele>2136</ele>
        <time>2021-09-01T12:53:17.000Z</time>
      </trkpt>
      <trkpt lat="44.39961" lon="6.395">
        <ele>2136</ele>
        <time>2021-09-01T12:53:18.000Z</time>
      </trkpt>
      <trkpt lat="44.39962" lon="6.39498">
        <ele>2136</ele>
        <time>2021-09-01T12:53:19.000Z</time>
      </trkpt>
      <trkpt lat="44.39962" lon="6.39496">
        <ele>2136</ele>
        <time>2021-09-01T12:53:20.000Z</time>
      </trkpt>
      <trkpt lat="44.39963" lon="6.39494">
        <ele>2137</ele>
        <time>2021-09-01T12:53:21.000Z</time>
      </trkpt>
      <trkpt lat="44.39963" lon="6.39492">
        <ele>2137</ele>
        <time>2021-09-01T12:53:22.000Z</time>
      </trkpt>
      <trkpt lat="44.39964" lon="6.3949">
        <ele>2136</ele>
        <time>2021-09-01T12:53:23.000Z</time>
      </trkpt>
      <trkpt lat="44.39964" lon="6.39489">
        <ele>2136</ele>
        <time>2021-09-01T12:53:24.000Z</time>
      </trkpt>
      <trkpt lat="44.39965" lon="6.39488">
        <ele>2136</ele>
        <time>2021-09-01T12:53:25.000Z</time>
      </trkpt>
      <trkpt lat="44.39966" lon="6.39486">
        <ele>2136</ele>
        <time>2021-09-01T12:53:26.000Z</time>
      </trkpt>
      <trkpt lat="44.39975" lon="6.39478">
        <ele>2141</ele>
        <time>2021-09-01T12:55:32.000Z</time>
      </trkpt>
      <trkpt lat="44.39976" lon="6.39476">
        <ele>2140</ele>
        <time>2021-09-01T12:55:33.000Z</time>
      </trkpt>
      <trkpt lat="44.39978" lon="6.39475">
        <ele>2140</ele>
        <time>2021-09-01T12:55:34.000Z</time>
      </trkpt>
      <trkpt lat="44.39979" lon="6.39474">
        <ele>2140</ele>
        <time>2021-09-01T12:55:35.000Z</time>
      </trkpt>
      <trkpt lat="44.39981" lon="6.39472">
        <ele>2139</ele>
        <time>2021-09-01T12:55:36.000Z</time>
      </trkpt>
      <trkpt lat="44.39982" lon="6.39471">
        <ele>2139</ele>
        <time>2021-09-01T12:55:37.000Z</time>
      </trkpt>
      <trkpt lat="44.39983" lon="6.39469">
        <ele>2139</ele>
        <time>2021-09-01T12:55:38.000Z</time>
      </trkpt>
      <trkpt lat="44.39984" lon="6.39468">
        <ele>2139</ele>
        <time>2021-09-01T12:55:39.000Z</time>
      </trkpt>
      <trkpt lat="44.39986" lon="6.39467">
        <ele>2139</ele>
        <time>2021-09-01T12:55:40.000Z</time>
      </trkpt>
      <trkpt lat="44.39987" lon="6.39466">
        <ele>2138</ele>
        <time>2021-09-01T12:55:41.000Z</time>
      </trkpt>
      <trkpt lat="44.39989" lon="6.39465">
        <ele>2138</ele>
        <time>2021-09-01T12:55:42.000Z</time>
      </trkpt>
      <trkpt lat="44.39991" lon="6.39463">
        <ele>2137</ele>
        <time>2021-09-01T12:55:43.000Z</time>
      </trkpt>
      <trkpt lat="44.39993" lon="6.39462">
        <ele>2137</ele>
        <time>2021-09-01T12:55:44.000Z</time>
      </trkpt>
      <trkpt lat="44.39994" lon="6.3946">
        <ele>2137</ele>
        <time>2021-09-01T12:55:45.000Z</time>
      </trkpt>
      <trkpt lat="44.39996" lon="6.39459">
        <ele>2137</ele>
        <time>2021-09-01T12:55:46.000Z</time>
      </trkpt>
      <trkpt lat="44.39997" lon="6.39458">
        <ele>2136</ele>
        <time>2021-09-01T12:55:47.000Z</time>
      </trkpt>
      <trkpt lat="44.39998" lon="6.39456">
        <ele>2136</ele>
        <time>2021-09-01T12:55:48.000Z</time>
      </trkpt>
      <trkpt lat="44.4" lon="6.39455">
        <ele>2136</ele>
        <time>2021-09-01T12:55:49.000Z</time>
      </trkpt>
      <trkpt lat="44.40002" lon="6.39454">
        <ele>2136</ele>
        <time>2021-09-01T12:55:50.000Z</time>
      </trkpt>
      <trkpt lat="44.40004" lon="6.39452">
        <ele>2136</ele>
        <time>2021-09-01T12:55:51.000Z</time>
      </trkpt>
      <trkpt lat="44.40006" lon="6.3945">
        <ele>2136</ele>
        <time>2021-09-01T12:55:52.000Z</time>
      </trkpt>
      <trkpt lat="44.40009" lon="6.39449">
        <ele>2136</ele>
        <time>2021-09-01T12:55:53.000Z</time>
      </trkpt>
      <trkpt lat="44.40011" lon="6.39447">
        <ele>2136</ele>
        <time>2021-09-01T12:55:54.000Z</time>
      </trkpt>
      <trkpt lat="44.40013" lon="6.39447">
        <ele>2136</ele>
        <time>2021-09-01T12:55:55.000Z</time>
      </trkpt>
      <trkpt lat="44.40014" lon="6.39445">
        <ele>2136</ele>
        <time>2021-09-01T12:55:56.000Z</time>
      </trkpt>
      <trkpt lat="44.40016" lon="6.39445">
        <ele>2136</ele>
        <time>2021-09-01T12:55:57.000Z</time>
      </trkpt>
      <trkpt lat="44.40017" lon="6.39444">
        <ele>2137</ele>
        <time>2021-09-01T12:55:58.000Z</time>
      </trkpt>
      <trkpt lat="44.40019" lon="6.39442">
        <ele>2137</ele>
        <time>2021-09-01T12:55:59.000Z</time>
      </trkpt>
      <trkpt lat="44.4002" lon="6.39441">
        <ele>2136</ele>
        <time>2021-09-01T12:56:00.000Z</time>
      </trkpt>
      <trkpt lat="44.40021" lon="6.39439">
        <ele>2136</ele>
        <time>2021-09-01T12:56:01.000Z</time>
      </trkpt>
      <trkpt lat="44.40022" lon="6.39438">
        <ele>2136</ele>
        <time>2021-09-01T12:56:02.000Z</time>
      </trkpt>
      <trkpt lat="44.40024" lon="6.39436">
        <ele>2136</ele>
        <time>2021-09-01T12:56:03.000Z</time>
      </trkpt>
      <trkpt lat="44.40025" lon="6.39435">
        <ele>2136</ele>
        <time>2021-09-01T12:56:04.000Z</time>
      </trkpt>
      <trkpt lat="44.40026" lon="6.39433">
        <ele>2136</ele>
        <time>2021-09-01T12:56:05.000Z</time>
      </trkpt>
      <trkpt lat="44.40028" lon="6.3943">
        <ele>2136</ele>
        <time>2021-09-01T12:56:06.000Z</time>
      </trkpt>
      <trkpt lat="44.40029" lon="6.39428">
        <ele>2136</ele>
        <time>2021-09-01T12:56:07.000Z</time>
      </trkpt>
      <trkpt lat="44.40031" lon="6.39427">
        <ele>2137</ele>
        <time>2021-09-01T12:56:08.000Z</time>
      </trkpt>
      <trkpt lat="44.40033" lon="6.39427">
        <ele>2137</ele>
        <time>2021-09-01T12:56:09.000Z</time>
      </trkpt>
      <trkpt lat="44.40035" lon="6.39427">
        <ele>2138</ele>
        <time>2021-09-01T12:56:10.000Z</time>
      </trkpt>
      <trkpt lat="44.40037" lon="6.39427">
        <ele>2138</ele>
        <time>2021-09-01T12:56:11.000Z</time>
      </trkpt>
      <trkpt lat="44.40039" lon="6.39426">
        <ele>2138</ele>
        <time>2021-09-01T12:56:12.000Z</time>
      </trkpt>
      <trkpt lat="44.40042" lon="6.39424">
        <ele>2138</ele>
        <time>2021-09-01T12:56:13.000Z</time>
      </trkpt>
      <trkpt lat="44.40044" lon="6.39423">
        <ele>2138</ele>
        <time>2021-09-01T12:56:14.000Z</time>
      </trkpt>
      <trkpt lat="44.40046" lon="6.39422">
        <ele>2138</ele>
        <time>2021-09-01T12:56:15.000Z</time>
      </trkpt>
      <trkpt lat="44.40048" lon="6.3942">
        <ele>2139</ele>
        <time>2021-09-01T12:56:16.000Z</time>
      </trkpt>
      <trkpt lat="44.4005" lon="6.39419">
        <ele>2139</ele>
        <time>2021-09-01T12:56:17.000Z</time>
      </trkpt>
      <trkpt lat="44.40052" lon="6.39417">
        <ele>2140</ele>
        <time>2021-09-01T12:56:18.000Z</time>
      </trkpt>
      <trkpt lat="44.40054" lon="6.39416">
        <ele>2140</ele>
        <time>2021-09-01T12:56:19.000Z</time>
      </trkpt>
      <trkpt lat="44.40056" lon="6.39415">
        <ele>2141</ele>
        <time>2021-09-01T12:56:20.000Z</time>
      </trkpt>
      <trkpt lat="44.40058" lon="6.39414">
        <ele>2141</ele>
        <time>2021-09-01T12:56:21.000Z</time>
      </trkpt>
      <trkpt lat="44.40059" lon="6.39413">
        <ele>2141</ele>
        <time>2021-09-01T12:56:22.000Z</time>
      </trkpt>
      <trkpt lat="44.40061" lon="6.39412">
        <ele>2142</ele>
        <time>2021-09-01T12:56:23.000Z</time>
      </trkpt>
      <trkpt lat="44.40061" lon="6.3941">
        <ele>2143</ele>
        <time>2021-09-01T12:56:24.000Z</time>
      </trkpt>
      <trkpt lat="44.40062" lon="6.39409">
        <ele>2143</ele>
        <time>2021-09-01T12:56:25.000Z</time>
      </trkpt>
      <trkpt lat="44.40064" lon="6.39407">
        <ele>2144</ele>
        <time>2021-09-01T12:56:26.000Z</time>
      </trkpt>
      <trkpt lat="44.40065" lon="6.39405">
        <ele>2144</ele>
        <time>2021-09-01T12:56:27.000Z</time>
      </trkpt>
      <trkpt lat="44.40067" lon="6.39403">
        <ele>2144</ele>
        <time>2021-09-01T12:56:28.000Z</time>
      </trkpt>
      <trkpt lat="44.40068" lon="6.39402">
        <ele>2144</ele>
        <time>2021-09-01T12:56:29.000Z</time>
      </trkpt>
      <trkpt lat="44.40068" lon="6.394">
        <ele>2145</ele>
        <time>2021-09-01T12:56:30.000Z</time>
      </trkpt>
      <trkpt lat="44.40069" lon="6.39398">
        <ele>2145</ele>
        <time>2021-09-01T12:56:31.000Z</time>
      </trkpt>
      <trkpt lat="44.40069" lon="6.39399">
        <ele>2139</ele>
        <time>2021-09-01T13:04:39.000Z</time>
      </trkpt>
      <trkpt lat="44.40069" lon="6.394">
        <ele>2139</ele>
        <time>2021-09-01T13:04:40.000Z</time>
      </trkpt>
      <trkpt lat="44.40068" lon="6.394">
        <ele>2141</ele>
        <time>2021-09-01T13:04:41.000Z</time>
      </trkpt>
      <trkpt lat="44.40069" lon="6.39399">
        <ele>2143</ele>
        <time>2021-09-01T13:04:42.000Z</time>
      </trkpt>
      <trkpt lat="44.40069" lon="6.39398">
        <ele>2143</ele>
        <time>2021-09-01T13:04:43.000Z</time>
      </trkpt>
      <trkpt lat="44.40075" lon="6.39399">
        <ele>2147</ele>
        <time>2021-09-01T13:07:17.000Z</time>
      </trkpt>
      <trkpt lat="44.40077" lon="6.39401">
        <ele>2147</ele>
        <time>2021-09-01T13:07:18.000Z</time>
      </trkpt>
      <trkpt lat="44.40079" lon="6.39403">
        <ele>2146</ele>
        <time>2021-09-01T13:07:19.000Z</time>
      </trkpt>
      <trkpt lat="44.40081" lon="6.39404">
        <ele>2146</ele>
        <time>2021-09-01T13:07:20.000Z</time>
      </trkpt>
      <trkpt lat="44.40083" lon="6.39405">
        <ele>2145</ele>
        <time>2021-09-01T13:07:21.000Z</time>
      </trkpt>
      <trkpt lat="44.40085" lon="6.39407">
        <ele>2144</ele>
        <time>2021-09-01T13:07:22.000Z</time>
      </trkpt>
      <trkpt lat="44.40088" lon="6.39408">
        <ele>2144</ele>
        <time>2021-09-01T13:07:23.000Z</time>
      </trkpt>
      <trkpt lat="44.4009" lon="6.39412">
        <ele>2143</ele>
        <time>2021-09-01T13:07:24.000Z</time>
      </trkpt>
      <trkpt lat="44.40091" lon="6.39419">
        <ele>2141</ele>
        <time>2021-09-01T13:07:25.000Z</time>
      </trkpt>
      <trkpt lat="44.40094" lon="6.39423">
        <ele>2141</ele>
        <time>2021-09-01T13:07:26.000Z</time>
      </trkpt>
      <trkpt lat="44.40096" lon="6.39428">
        <ele>2140</ele>
        <time>2021-09-01T13:07:27.000Z</time>
      </trkpt>
      <trkpt lat="44.40097" lon="6.39433">
        <ele>2139</ele>
        <time>2021-09-01T13:07:28.000Z</time>
      </trkpt>
      <trkpt lat="44.40099" lon="6.39438">
        <ele>2138</ele>
        <time>2021-09-01T13:07:29.000Z</time>
      </trkpt>
      <trkpt lat="44.40102" lon="6.39443">
        <ele>2137</ele>
        <time>2021-09-01T13:07:30.000Z</time>
      </trkpt>
      <trkpt lat="44.40104" lon="6.39447">
        <ele>2136</ele>
        <time>2021-09-01T13:07:31.000Z</time>
      </trkpt>
      <trkpt lat="44.40106" lon="6.39451">
        <ele>2135</ele>
        <time>2021-09-01T13:07:32.000Z</time>
      </trkpt>
      <trkpt lat="44.40108" lon="6.39454">
        <ele>2134</ele>
        <time>2021-09-01T13:07:33.000Z</time>
      </trkpt>
      <trkpt lat="44.40109" lon="6.39458">
        <ele>2134</ele>
        <time>2021-09-01T13:07:34.000Z</time>
      </trkpt>
      <trkpt lat="44.4011" lon="6.39463">
        <ele>2131</ele>
        <time>2021-09-01T13:07:35.000Z</time>
      </trkpt>
      <trkpt lat="44.4011" lon="6.39469">
        <ele>2131</ele>
        <time>2021-09-01T13:07:36.000Z</time>
      </trkpt>
      <trkpt lat="44.40109" lon="6.39475">
        <ele>2131</ele>
        <time>2021-09-01T13:07:37.000Z</time>
      </trkpt>
      <trkpt lat="44.40108" lon="6.3948">
        <ele>2131</ele>
        <time>2021-09-01T13:07:38.000Z</time>
      </trkpt>
      <trkpt lat="44.40107" lon="6.39485">
        <ele>2130</ele>
        <time>2021-09-01T13:07:39.000Z</time>
      </trkpt>
      <trkpt lat="44.40107" lon="6.39489">
        <ele>2130</ele>
        <time>2021-09-01T13:07:40.000Z</time>
      </trkpt>
      <trkpt lat="44.40106" lon="6.39494">
        <ele>2130</ele>
        <time>2021-09-01T13:07:41.000Z</time>
      </trkpt>
      <trkpt lat="44.40104" lon="6.395">
        <ele>2127</ele>
        <time>2021-09-01T13:07:42.000Z</time>
      </trkpt>
      <trkpt lat="44.40102" lon="6.39506">
        <ele>2125</ele>
        <time>2021-09-01T13:07:43.000Z</time>
      </trkpt>
      <trkpt lat="44.401" lon="6.39512">
        <ele>2125</ele>
        <time>2021-09-01T13:07:44.000Z</time>
      </trkpt>
      <trkpt lat="44.40099" lon="6.39517">
        <ele>2124</ele>
        <time>2021-09-01T13:07:45.000Z</time>
      </trkpt>
      <trkpt lat="44.40098" lon="6.39522">
        <ele>2123</ele>
        <time>2021-09-01T13:07:46.000Z</time>
      </trkpt>
      <trkpt lat="44.40097" lon="6.39527">
        <ele>2122</ele>
        <time>2021-09-01T13:07:47.000Z</time>
      </trkpt>
      <trkpt lat="44.40097" lon="6.39533">
        <ele>2119</ele>
        <time>2021-09-01T13:07:48.000Z</time>
      </trkpt>
      <trkpt lat="44.40098" lon="6.39539">
        <ele>2118</ele>
        <time>2021-09-01T13:07:49.000Z</time>
      </trkpt>
      <trkpt lat="44.40098" lon="6.39546">
        <ele>2117</ele>
        <time>2021-09-01T13:07:50.000Z</time>
      </trkpt>
      <trkpt lat="44.401" lon="6.39553">
        <ele>2117</ele>
        <time>2021-09-01T13:07:51.000Z</time>
      </trkpt>
      <trkpt lat="44.401" lon="6.3956">
        <ele>2115</ele>
        <time>2021-09-01T13:07:52.000Z</time>
      </trkpt>
      <trkpt lat="44.401" lon="6.39567">
        <ele>2114</ele>
        <time>2021-09-01T13:07:53.000Z</time>
      </trkpt>
      <trkpt lat="44.401" lon="6.39575">
        <ele>2112</ele>
        <time>2021-09-01T13:07:54.000Z</time>
      </trkpt>
      <trkpt lat="44.40099" lon="6.39584">
        <ele>2110</ele>
        <time>2021-09-01T13:07:55.000Z</time>
      </trkpt>
      <trkpt lat="44.40099" lon="6.39593">
        <ele>2109</ele>
        <time>2021-09-01T13:07:56.000Z</time>
      </trkpt>
      <trkpt lat="44.40098" lon="6.39602">
        <ele>2107</ele>
        <time>2021-09-01T13:07:57.000Z</time>
      </trkpt>
      <trkpt lat="44.40097" lon="6.3961">
        <ele>2105</ele>
        <time>2021-09-01T13:07:58.000Z</time>
      </trkpt>
      <trkpt lat="44.40096" lon="6.39617">
        <ele>2104</ele>
        <time>2021-09-01T13:07:59.000Z</time>
      </trkpt>
      <trkpt lat="44.40094" lon="6.39625">
        <ele>2103</ele>
        <time>2021-09-01T13:08:00.000Z</time>
      </trkpt>
      <trkpt lat="44.40093" lon="6.39632">
        <ele>2102</ele>
        <time>2021-09-01T13:08:01.000Z</time>
      </trkpt>
      <trkpt lat="44.40093" lon="6.39638">
        <ele>2101</ele>
        <time>2021-09-01T13:08:02.000Z</time>
      </trkpt>
      <trkpt lat="44.40093" lon="6.39645">
        <ele>2100</ele>
        <time>2021-09-01T13:08:03.000Z</time>
      </trkpt>
      <trkpt lat="44.40093" lon="6.39651">
        <ele>2099</ele>
        <time>2021-09-01T13:08:04.000Z</time>
      </trkpt>
      <trkpt lat="44.40093" lon="6.39657">
        <ele>2098</ele>
        <time>2021-09-01T13:08:05.000Z</time>
      </trkpt>
      <trkpt lat="44.40092" lon="6.39662">
        <ele>2097</ele>
        <time>2021-09-01T13:08:06.000Z</time>
      </trkpt>
      <trkpt lat="44.40091" lon="6.39666">
        <ele>2096</ele>
        <time>2021-09-01T13:08:07.000Z</time>
      </trkpt>
      <trkpt lat="44.40089" lon="6.39669">
        <ele>2095</ele>
        <time>2021-09-01T13:08:08.000Z</time>
      </trkpt>
      <trkpt lat="44.40088" lon="6.39673">
        <ele>2094</ele>
        <time>2021-09-01T13:08:09.000Z</time>
      </trkpt>
      <trkpt lat="44.40087" lon="6.39677">
        <ele>2093</ele>
        <time>2021-09-01T13:08:10.000Z</time>
      </trkpt>
      <trkpt lat="44.40086" lon="6.39681">
        <ele>2091</ele>
        <time>2021-09-01T13:08:11.000Z</time>
      </trkpt>
      <trkpt lat="44.40086" lon="6.39684">
        <ele>2090</ele>
        <time>2021-09-01T13:08:12.000Z</time>
      </trkpt>
      <trkpt lat="44.40086" lon="6.39688">
        <ele>2090</ele>
        <time>2021-09-01T13:08:13.000Z</time>
      </trkpt>
      <trkpt lat="44.40085" lon="6.39691">
        <ele>2089</ele>
        <time>2021-09-01T13:08:14.000Z</time>
      </trkpt>
      <trkpt lat="44.40085" lon="6.39694">
        <ele>2088</ele>
        <time>2021-09-01T13:08:15.000Z</time>
      </trkpt>
      <trkpt lat="44.40084" lon="6.39698">
        <ele>2088</ele>
        <time>2021-09-01T13:08:16.000Z</time>
      </trkpt>
      <trkpt lat="44.40084" lon="6.39701">
        <ele>2087</ele>
        <time>2021-09-01T13:08:17.000Z</time>
      </trkpt>
      <trkpt lat="44.40084" lon="6.39704">
        <ele>2088</ele>
        <time>2021-09-01T13:08:18.000Z</time>
      </trkpt>
      <trkpt lat="44.40083" lon="6.39708">
        <ele>2087</ele>
        <time>2021-09-01T13:08:19.000Z</time>
      </trkpt>
      <trkpt lat="44.40081" lon="6.39711">
        <ele>2087</ele>
        <time>2021-09-01T13:08:20.000Z</time>
      </trkpt>
      <trkpt lat="44.40079" lon="6.39715">
        <ele>2086</ele>
        <time>2021-09-01T13:08:21.000Z</time>
      </trkpt>
      <trkpt lat="44.40078" lon="6.39718">
        <ele>2086</ele>
        <time>2021-09-01T13:08:22.000Z</time>
      </trkpt>
      <trkpt lat="44.40077" lon="6.39722">
        <ele>2087</ele>
        <time>2021-09-01T13:08:23.000Z</time>
      </trkpt>
      <trkpt lat="44.40077" lon="6.39726">
        <ele>2087</ele>
        <time>2021-09-01T13:08:24.000Z</time>
      </trkpt>
      <trkpt lat="44.40076" lon="6.3973">
        <ele>2086</ele>
        <time>2021-09-01T13:08:25.000Z</time>
      </trkpt>
      <trkpt lat="44.40075" lon="6.39733">
        <ele>2086</ele>
        <time>2021-09-01T13:08:26.000Z</time>
      </trkpt>
      <trkpt lat="44.40075" lon="6.39738">
        <ele>2086</ele>
        <time>2021-09-01T13:08:27.000Z</time>
      </trkpt>
      <trkpt lat="44.40076" lon="6.39743">
        <ele>2085</ele>
        <time>2021-09-01T13:08:28.000Z</time>
      </trkpt>
      <trkpt lat="44.40077" lon="6.39748">
        <ele>2084</ele>
        <time>2021-09-01T13:08:29.000Z</time>
      </trkpt>
      <trkpt lat="44.40078" lon="6.39755">
        <ele>2085</ele>
        <time>2021-09-01T13:08:30.000Z</time>
      </trkpt>
      <trkpt lat="44.40078" lon="6.39762">
        <ele>2086</ele>
        <time>2021-09-01T13:08:31.000Z</time>
      </trkpt>
      <trkpt lat="44.40077" lon="6.39769">
        <ele>2085</ele>
        <time>2021-09-01T13:08:32.000Z</time>
      </trkpt>
      <trkpt lat="44.40075" lon="6.39777">
        <ele>2085</ele>
        <time>2021-09-01T13:08:33.000Z</time>
      </trkpt>
      <trkpt lat="44.40074" lon="6.39784">
        <ele>2084</ele>
        <time>2021-09-01T13:08:34.000Z</time>
      </trkpt>
      <trkpt lat="44.40073" lon="6.39792">
        <ele>2083</ele>
        <time>2021-09-01T13:08:35.000Z</time>
      </trkpt>
      <trkpt lat="44.40072" lon="6.398">
        <ele>2083</ele>
        <time>2021-09-01T13:08:36.000Z</time>
      </trkpt>
      <trkpt lat="44.40071" lon="6.39808">
        <ele>2083</ele>
        <time>2021-09-01T13:08:37.000Z</time>
      </trkpt>
      <trkpt lat="44.4007" lon="6.39816">
        <ele>2083</ele>
        <time>2021-09-01T13:08:38.000Z</time>
      </trkpt>
      <trkpt lat="44.40069" lon="6.39823">
        <ele>2083</ele>
        <time>2021-09-01T13:08:39.000Z</time>
      </trkpt>
      <trkpt lat="44.40067" lon="6.39829">
        <ele>2082</ele>
        <time>2021-09-01T13:08:40.000Z</time>
      </trkpt>
      <trkpt lat="44.40067" lon="6.39834">
        <ele>2082</ele>
        <time>2021-09-01T13:08:41.000Z</time>
      </trkpt>
      <trkpt lat="44.40066" lon="6.39839">
        <ele>2082</ele>
        <time>2021-09-01T13:08:42.000Z</time>
      </trkpt>
      <trkpt lat="44.40066" lon="6.39843">
        <ele>2082</ele>
        <time>2021-09-01T13:08:43.000Z</time>
      </trkpt>
      <trkpt lat="44.40065" lon="6.39848">
        <ele>2081</ele>
        <time>2021-09-01T13:08:44.000Z</time>
      </trkpt>
      <trkpt lat="44.40066" lon="6.39852">
        <ele>2081</ele>
        <time>2021-09-01T13:08:45.000Z</time>
      </trkpt>
      <trkpt lat="44.40066" lon="6.39857">
        <ele>2080</ele>
        <time>2021-09-01T13:08:46.000Z</time>
      </trkpt>
      <trkpt lat="44.40066" lon="6.39861">
        <ele>2080</ele>
        <time>2021-09-01T13:08:47.000Z</time>
      </trkpt>
      <trkpt lat="44.40066" lon="6.39866">
        <ele>2080</ele>
        <time>2021-09-01T13:08:48.000Z</time>
      </trkpt>
      <trkpt lat="44.40067" lon="6.39871">
        <ele>2079</ele>
        <time>2021-09-01T13:08:49.000Z</time>
      </trkpt>
      <trkpt lat="44.40067" lon="6.39875">
        <ele>2078</ele>
        <time>2021-09-01T13:08:50.000Z</time>
      </trkpt>
      <trkpt lat="44.40066" lon="6.39879">
        <ele>2078</ele>
        <time>2021-09-01T13:08:51.000Z</time>
      </trkpt>
      <trkpt lat="44.40066" lon="6.39884">
        <ele>2077</ele>
        <time>2021-09-01T13:08:52.000Z</time>
      </trkpt>
      <trkpt lat="44.40066" lon="6.39888">
        <ele>2077</ele>
        <time>2021-09-01T13:08:53.000Z</time>
      </trkpt>
      <trkpt lat="44.40065" lon="6.39894">
        <ele>2075</ele>
        <time>2021-09-01T13:08:54.000Z</time>
      </trkpt>
      <trkpt lat="44.40063" lon="6.399">
        <ele>2074</ele>
        <time>2021-09-01T13:08:55.000Z</time>
      </trkpt>
      <trkpt lat="44.40062" lon="6.39905">
        <ele>2075</ele>
        <time>2021-09-01T13:08:56.000Z</time>
      </trkpt>
      <trkpt lat="44.40062" lon="6.39904">
        <ele>2076</ele>
        <time>2021-09-01T13:08:57.000Z</time>
      </trkpt>
      <trkpt lat="44.40062" lon="6.39906">
        <ele>2076</ele>
        <time>2021-09-01T13:08:58.000Z</time>
      </trkpt>
      <trkpt lat="44.40062" lon="6.39908">
        <ele>2075</ele>
        <time>2021-09-01T13:08:59.000Z</time>
      </trkpt>
      <trkpt lat="44.40062" lon="6.39912">
        <ele>2075</ele>
        <time>2021-09-01T13:09:00.000Z</time>
      </trkpt>
      <trkpt lat="44.40061" lon="6.39915">
        <ele>2076</ele>
        <time>2021-09-01T13:09:01.000Z</time>
      </trkpt>
      <trkpt lat="44.40059" lon="6.39918">
        <ele>2075</ele>
        <time>2021-09-01T13:09:02.000Z</time>
      </trkpt>
      <trkpt lat="44.40058" lon="6.3992">
        <ele>2075</ele>
        <time>2021-09-01T13:09:03.000Z</time>
      </trkpt>
      <trkpt lat="44.40058" lon="6.39922">
        <ele>2075</ele>
        <time>2021-09-01T13:09:04.000Z</time>
      </trkpt>
      <trkpt lat="44.40057" lon="6.39924">
        <ele>2075</ele>
        <time>2021-09-01T13:09:05.000Z</time>
      </trkpt>
      <trkpt lat="44.40056" lon="6.39926">
        <ele>2075</ele>
        <time>2021-09-01T13:09:06.000Z</time>
      </trkpt>
      <trkpt lat="44.40055" lon="6.39928">
        <ele>2075</ele>
        <time>2021-09-01T13:09:07.000Z</time>
      </trkpt>
      <trkpt lat="44.40054" lon="6.3993">
        <ele>2076</ele>
        <time>2021-09-01T13:09:08.000Z</time>
      </trkpt>
      <trkpt lat="44.40053" lon="6.39932">
        <ele>2075</ele>
        <time>2021-09-01T13:09:09.000Z</time>
      </trkpt>
      <trkpt lat="44.40052" lon="6.39934">
        <ele>2075</ele>
        <time>2021-09-01T13:09:10.000Z</time>
      </trkpt>
      <trkpt lat="44.40051" lon="6.39936">
        <ele>2076</ele>
        <time>2021-09-01T13:09:11.000Z</time>
      </trkpt>
      <trkpt lat="44.40051" lon="6.39938">
        <ele>2076</ele>
        <time>2021-09-01T13:09:12.000Z</time>
      </trkpt>
      <trkpt lat="44.4005" lon="6.3994">
        <ele>2075</ele>
        <time>2021-09-01T13:09:13.000Z</time>
      </trkpt>
      <trkpt lat="44.40049" lon="6.39942">
        <ele>2076</ele>
        <time>2021-09-01T13:09:14.000Z</time>
      </trkpt>
      <trkpt lat="44.40047" lon="6.39944">
        <ele>2075</ele>
        <time>2021-09-01T13:09:15.000Z</time>
      </trkpt>
      <trkpt lat="44.40046" lon="6.39946">
        <ele>2074</ele>
        <time>2021-09-01T13:09:16.000Z</time>
      </trkpt>
      <trkpt lat="44.40045" lon="6.39948">
        <ele>2074</ele>
        <time>2021-09-01T13:09:17.000Z</time>
      </trkpt>
      <trkpt lat="44.40044" lon="6.3995">
        <ele>2074</ele>
        <time>2021-09-01T13:09:18.000Z</time>
      </trkpt>
      <trkpt lat="44.40043" lon="6.39952">
        <ele>2074</ele>
        <time>2021-09-01T13:09:19.000Z</time>
      </trkpt>
      <trkpt lat="44.40042" lon="6.39954">
        <ele>2074</ele>
        <time>2021-09-01T13:09:20.000Z</time>
      </trkpt>
      <trkpt lat="44.40041" lon="6.39956">
        <ele>2074</ele>
        <time>2021-09-01T13:09:21.000Z</time>
      </trkpt>
      <trkpt lat="44.40039" lon="6.39958">
        <ele>2074</ele>
        <time>2021-09-01T13:09:22.000Z</time>
      </trkpt>
      <trkpt lat="44.40038" lon="6.3996">
        <ele>2073</ele>
        <time>2021-09-01T13:09:23.000Z</time>
      </trkpt>
      <trkpt lat="44.40038" lon="6.39962">
        <ele>2074</ele>
        <time>2021-09-01T13:09:24.000Z</time>
      </trkpt>
      <trkpt lat="44.40037" lon="6.39963">
        <ele>2073</ele>
        <time>2021-09-01T13:09:25.000Z</time>
      </trkpt>
      <trkpt lat="44.40036" lon="6.39965">
        <ele>2073</ele>
        <time>2021-09-01T13:09:26.000Z</time>
      </trkpt>
      <trkpt lat="44.40035" lon="6.39966">
        <ele>2073</ele>
        <time>2021-09-01T13:09:27.000Z</time>
      </trkpt>
      <trkpt lat="44.40034" lon="6.39968">
        <ele>2073</ele>
        <time>2021-09-01T13:09:28.000Z</time>
      </trkpt>
      <trkpt lat="44.40033" lon="6.39969">
        <ele>2073</ele>
        <time>2021-09-01T13:09:29.000Z</time>
      </trkpt>
      <trkpt lat="44.40032" lon="6.39971">
        <ele>2073</ele>
        <time>2021-09-01T13:09:30.000Z</time>
      </trkpt>
      <trkpt lat="44.40031" lon="6.39973">
        <ele>2073</ele>
        <time>2021-09-01T13:09:31.000Z</time>
      </trkpt>
      <trkpt lat="44.4003" lon="6.39975">
        <ele>2073</ele>
        <time>2021-09-01T13:09:32.000Z</time>
      </trkpt>
      <trkpt lat="44.40029" lon="6.39977">
        <ele>2073</ele>
        <time>2021-09-01T13:09:33.000Z</time>
      </trkpt>
      <trkpt lat="44.40028" lon="6.39979">
        <ele>2073</ele>
        <time>2021-09-01T13:09:34.000Z</time>
      </trkpt>
      <trkpt lat="44.40027" lon="6.39981">
        <ele>2073</ele>
        <time>2021-09-01T13:09:35.000Z</time>
      </trkpt>
      <trkpt lat="44.40026" lon="6.39983">
        <ele>2072</ele>
        <time>2021-09-01T13:09:36.000Z</time>
      </trkpt>
      <trkpt lat="44.40025" lon="6.39985">
        <ele>2072</ele>
        <time>2021-09-01T13:09:37.000Z</time>
      </trkpt>
      <trkpt lat="44.40024" lon="6.39988">
        <ele>2072</ele>
        <time>2021-09-01T13:09:38.000Z</time>
      </trkpt>
      <trkpt lat="44.40022" lon="6.39991">
        <ele>2071</ele>
        <time>2021-09-01T13:09:39.000Z</time>
      </trkpt>
      <trkpt lat="44.40021" lon="6.39993">
        <ele>2071</ele>
        <time>2021-09-01T13:09:40.000Z</time>
      </trkpt>
      <trkpt lat="44.4002" lon="6.39996">
        <ele>2071</ele>
        <time>2021-09-01T13:09:41.000Z</time>
      </trkpt>
      <trkpt lat="44.40018" lon="6.39999">
        <ele>2071</ele>
        <time>2021-09-01T13:09:42.000Z</time>
      </trkpt>
      <trkpt lat="44.40017" lon="6.4">
        <ele>2071</ele>
        <time>2021-09-01T13:09:43.000Z</time>
      </trkpt>
      <trkpt lat="44.40015" lon="6.40002">
        <ele>2070</ele>
        <time>2021-09-01T13:09:44.000Z</time>
      </trkpt>
      <trkpt lat="44.40013" lon="6.40004">
        <ele>2070</ele>
        <time>2021-09-01T13:09:45.000Z</time>
      </trkpt>
      <trkpt lat="44.40012" lon="6.40006">
        <ele>2070</ele>
        <time>2021-09-01T13:09:46.000Z</time>
      </trkpt>
      <trkpt lat="44.4001" lon="6.40007">
        <ele>2070</ele>
        <time>2021-09-01T13:09:47.000Z</time>
      </trkpt>
      <trkpt lat="44.40008" lon="6.40009">
        <ele>2070</ele>
        <time>2021-09-01T13:09:48.000Z</time>
      </trkpt>
      <trkpt lat="44.40007" lon="6.40011">
        <ele>2070</ele>
        <time>2021-09-01T13:09:49.000Z</time>
      </trkpt>
      <trkpt lat="44.40006" lon="6.40013">
        <ele>2069</ele>
        <time>2021-09-01T13:09:50.000Z</time>
      </trkpt>
      <trkpt lat="44.40004" lon="6.40016">
        <ele>2069</ele>
        <time>2021-09-01T13:09:51.000Z</time>
      </trkpt>
      <trkpt lat="44.40003" lon="6.40018">
        <ele>2069</ele>
        <time>2021-09-01T13:09:52.000Z</time>
      </trkpt>
      <trkpt lat="44.40002" lon="6.4002">
        <ele>2069</ele>
        <time>2021-09-01T13:09:53.000Z</time>
      </trkpt>
      <trkpt lat="44.40001" lon="6.40022">
        <ele>2069</ele>
        <time>2021-09-01T13:09:54.000Z</time>
      </trkpt>
      <trkpt lat="44.4" lon="6.40025">
        <ele>2069</ele>
        <time>2021-09-01T13:09:55.000Z</time>
      </trkpt>
      <trkpt lat="44.39999" lon="6.40028">
        <ele>2069</ele>
        <time>2021-09-01T13:09:56.000Z</time>
      </trkpt>
      <trkpt lat="44.39998" lon="6.4003">
        <ele>2069</ele>
        <time>2021-09-01T13:09:57.000Z</time>
      </trkpt>
      <trkpt lat="44.39996" lon="6.40032">
        <ele>2069</ele>
        <time>2021-09-01T13:09:58.000Z</time>
      </trkpt>
      <trkpt lat="44.39994" lon="6.40034">
        <ele>2069</ele>
        <time>2021-09-01T13:09:59.000Z</time>
      </trkpt>
      <trkpt lat="44.39993" lon="6.40036">
        <ele>2069</ele>
        <time>2021-09-01T13:10:00.000Z</time>
      </trkpt>
      <trkpt lat="44.39991" lon="6.40038">
        <ele>2069</ele>
        <time>2021-09-01T13:10:01.000Z</time>
      </trkpt>
      <trkpt lat="44.39988" lon="6.4004">
        <ele>2069</ele>
        <time>2021-09-01T13:10:02.000Z</time>
      </trkpt>
      <trkpt lat="44.39986" lon="6.40042">
        <ele>2069</ele>
        <time>2021-09-01T13:10:03.000Z</time>
      </trkpt>
      <trkpt lat="44.39984" lon="6.40044">
        <ele>2069</ele>
        <time>2021-09-01T13:10:04.000Z</time>
      </trkpt>
      <trkpt lat="44.39982" lon="6.40046">
        <ele>2069</ele>
        <time>2021-09-01T13:10:05.000Z</time>
      </trkpt>
      <trkpt lat="44.39979" lon="6.40048">
        <ele>2069</ele>
        <time>2021-09-01T13:10:06.000Z</time>
      </trkpt>
      <trkpt lat="44.39977" lon="6.4005">
        <ele>2070</ele>
        <time>2021-09-01T13:10:07.000Z</time>
      </trkpt>
      <trkpt lat="44.39975" lon="6.40052">
        <ele>2070</ele>
        <time>2021-09-01T13:10:08.000Z</time>
      </trkpt>
      <trkpt lat="44.39973" lon="6.40054">
        <ele>2070</ele>
        <time>2021-09-01T13:10:09.000Z</time>
      </trkpt>
      <trkpt lat="44.39971" lon="6.40056">
        <ele>2070</ele>
        <time>2021-09-01T13:10:10.000Z</time>
      </trkpt>
      <trkpt lat="44.39969" lon="6.40057">
        <ele>2070</ele>
        <time>2021-09-01T13:10:11.000Z</time>
      </trkpt>
      <trkpt lat="44.39968" lon="6.40059">
        <ele>2070</ele>
        <time>2021-09-01T13:10:12.000Z</time>
      </trkpt>
      <trkpt lat="44.39966" lon="6.40061">
        <ele>2070</ele>
        <time>2021-09-01T13:10:13.000Z</time>
      </trkpt>
      <trkpt lat="44.39964" lon="6.40062">
        <ele>2070</ele>
        <time>2021-09-01T13:10:14.000Z</time>
      </trkpt>
      <trkpt lat="44.39962" lon="6.40064">
        <ele>2070</ele>
        <time>2021-09-01T13:10:15.000Z</time>
      </trkpt>
      <trkpt lat="44.3996" lon="6.40066">
        <ele>2071</ele>
        <time>2021-09-01T13:10:16.000Z</time>
      </trkpt>
      <trkpt lat="44.39957" lon="6.40068">
        <ele>2071</ele>
        <time>2021-09-01T13:10:17.000Z</time>
      </trkpt>
      <trkpt lat="44.39955" lon="6.40069">
        <ele>2071</ele>
        <time>2021-09-01T13:10:18.000Z</time>
      </trkpt>
      <trkpt lat="44.39953" lon="6.40071">
        <ele>2071</ele>
        <time>2021-09-01T13:10:19.000Z</time>
      </trkpt>
      <trkpt lat="44.3995" lon="6.40073">
        <ele>2071</ele>
        <time>2021-09-01T13:10:20.000Z</time>
      </trkpt>
      <trkpt lat="44.39948" lon="6.40074">
        <ele>2071</ele>
        <time>2021-09-01T13:10:21.000Z</time>
      </trkpt>
      <trkpt lat="44.39945" lon="6.40076">
        <ele>2072</ele>
        <time>2021-09-01T13:10:22.000Z</time>
      </trkpt>
      <trkpt lat="44.39943" lon="6.40078">
        <ele>2071</ele>
        <time>2021-09-01T13:10:23.000Z</time>
      </trkpt>
      <trkpt lat="44.39941" lon="6.40079">
        <ele>2072</ele>
        <time>2021-09-01T13:10:24.000Z</time>
      </trkpt>
      <trkpt lat="44.3994" lon="6.40082">
        <ele>2071</ele>
        <time>2021-09-01T13:10:25.000Z</time>
      </trkpt>
      <trkpt lat="44.39938" lon="6.40083">
        <ele>2072</ele>
        <time>2021-09-01T13:10:26.000Z</time>
      </trkpt>
      <trkpt lat="44.39937" lon="6.40084">
        <ele>2072</ele>
        <time>2021-09-01T13:10:27.000Z</time>
      </trkpt>
      <trkpt lat="44.39935" lon="6.40085">
        <ele>2072</ele>
        <time>2021-09-01T13:10:28.000Z</time>
      </trkpt>
      <trkpt lat="44.39933" lon="6.40085">
        <ele>2072</ele>
        <time>2021-09-01T13:10:29.000Z</time>
      </trkpt>
      <trkpt lat="44.39931" lon="6.40086">
        <ele>2072</ele>
        <time>2021-09-01T13:10:30.000Z</time>
      </trkpt>
      <trkpt lat="44.39929" lon="6.40087">
        <ele>2072</ele>
        <time>2021-09-01T13:10:31.000Z</time>
      </trkpt>
      <trkpt lat="44.39927" lon="6.40088">
        <ele>2072</ele>
        <time>2021-09-01T13:10:32.000Z</time>
      </trkpt>
      <trkpt lat="44.39924" lon="6.40089">
        <ele>2072</ele>
        <time>2021-09-01T13:10:33.000Z</time>
      </trkpt>
      <trkpt lat="44.39922" lon="6.4009">
        <ele>2072</ele>
        <time>2021-09-01T13:10:34.000Z</time>
      </trkpt>
      <trkpt lat="44.3992" lon="6.40091">
        <ele>2072</ele>
        <time>2021-09-01T13:10:35.000Z</time>
      </trkpt>
      <trkpt lat="44.39918" lon="6.40092">
        <ele>2072</ele>
        <time>2021-09-01T13:10:36.000Z</time>
      </trkpt>
      <trkpt lat="44.39916" lon="6.40092">
        <ele>2072</ele>
        <time>2021-09-01T13:10:37.000Z</time>
      </trkpt>
      <trkpt lat="44.39914" lon="6.40093">
        <ele>2072</ele>
        <time>2021-09-01T13:10:38.000Z</time>
      </trkpt>
      <trkpt lat="44.39912" lon="6.40093">
        <ele>2072</ele>
        <time>2021-09-01T13:10:39.000Z</time>
      </trkpt>
      <trkpt lat="44.3991" lon="6.40094">
        <ele>2072</ele>
        <time>2021-09-01T13:10:40.000Z</time>
      </trkpt>
      <trkpt lat="44.39907" lon="6.40095">
        <ele>2073</ele>
        <time>2021-09-01T13:10:41.000Z</time>
      </trkpt>
      <trkpt lat="44.39905" lon="6.40096">
        <ele>2072</ele>
        <time>2021-09-01T13:10:42.000Z</time>
      </trkpt>
      <trkpt lat="44.39903" lon="6.40096">
        <ele>2072</ele>
        <time>2021-09-01T13:10:43.000Z</time>
      </trkpt>
      <trkpt lat="44.39901" lon="6.40097">
        <ele>2072</ele>
        <time>2021-09-01T13:10:44.000Z</time>
      </trkpt>
      <trkpt lat="44.39899" lon="6.40098">
        <ele>2072</ele>
        <time>2021-09-01T13:10:45.000Z</time>
      </trkpt>
      <trkpt lat="44.39897" lon="6.40099">
        <ele>2072</ele>
        <time>2021-09-01T13:10:46.000Z</time>
      </trkpt>
      <trkpt lat="44.39895" lon="6.401">
        <ele>2072</ele>
        <time>2021-09-01T13:10:47.000Z</time>
      </trkpt>
      <trkpt lat="44.39894" lon="6.401">
        <ele>2072</ele>
        <time>2021-09-01T13:10:48.000Z</time>
      </trkpt>
      <trkpt lat="44.39892" lon="6.401">
        <ele>2071</ele>
        <time>2021-09-01T13:10:49.000Z</time>
      </trkpt>
      <trkpt lat="44.39892" lon="6.401">
        <ele>2071</ele>
        <time>2021-09-01T13:10:50.000Z</time>
      </trkpt>
      <trkpt lat="44.39892" lon="6.401">
        <ele>2070</ele>
        <time>2021-09-01T13:10:51.000Z</time>
      </trkpt>
      <trkpt lat="44.39892" lon="6.40101">
        <ele>2070</ele>
        <time>2021-09-01T13:10:52.000Z</time>
      </trkpt>
      <trkpt lat="44.39892" lon="6.40101">
        <ele>2069</ele>
        <time>2021-09-01T13:10:53.000Z</time>
      </trkpt>
      <trkpt lat="44.39892" lon="6.40101">
        <ele>2069</ele>
        <time>2021-09-01T13:10:54.000Z</time>
      </trkpt>
      <trkpt lat="44.39892" lon="6.401">
        <ele>2069</ele>
        <time>2021-09-01T13:10:55.000Z</time>
      </trkpt>
      <trkpt lat="44.39892" lon="6.401">
        <ele>2069</ele>
        <time>2021-09-01T13:10:56.000Z</time>
      </trkpt>
      <trkpt lat="44.39892" lon="6.401">
        <ele>2069</ele>
        <time>2021-09-01T13:10:57.000Z</time>
      </trkpt>
      <trkpt lat="44.39892" lon="6.401">
        <ele>2069</ele>
        <time>2021-09-01T13:10:58.000Z</time>
      </trkpt>
      <trkpt lat="44.39892" lon="6.401">
        <ele>2069</ele>
        <time>2021-09-01T13:10:59.000Z</time>
      </trkpt>
      <trkpt lat="44.39892" lon="6.401">
        <ele>2069</ele>
        <time>2021-09-01T13:11:00.000Z</time>
      </trkpt>
      <trkpt lat="44.39892" lon="6.401">
        <ele>2069</ele>
        <time>2021-09-01T13:11:01.000Z</time>
      </trkpt>
      <trkpt lat="44.39892" lon="6.401">
        <ele>2070</ele>
        <time>2021-09-01T13:11:02.000Z</time>
      </trkpt>
      <trkpt lat="44.39892" lon="6.401">
        <ele>2070</ele>
        <time>2021-09-01T13:11:03.000Z</time>
      </trkpt>
      <trkpt lat="44.39892" lon="6.401">
        <ele>2070</ele>
        <time>2021-09-01T13:11:04.000Z</time>
      </trkpt>
      <trkpt lat="44.39892" lon="6.401">
        <ele>2070</ele>
        <time>2021-09-01T13:11:05.000Z</time>
      </trkpt>
      <trkpt lat="44.39892" lon="6.401">
        <ele>2070</ele>
        <time>2021-09-01T13:11:06.000Z</time>
      </trkpt>
      <trkpt lat="44.39892" lon="6.401">
        <ele>2070</ele>
        <time>2021-09-01T13:11:07.000Z</time>
      </trkpt>
      <trkpt lat="44.39892" lon="6.401">
        <ele>2070</ele>
        <time>2021-09-01T13:11:08.000Z</time>
      </trkpt>
      <trkpt lat="44.39892" lon="6.401">
        <ele>2070</ele>
        <time>2021-09-01T13:11:09.000Z</time>
      </trkpt>
      <trkpt lat="44.39892" lon="6.401">
        <ele>2070</ele>
        <time>2021-09-01T13:11:10.000Z</time>
      </trkpt>
      <trkpt lat="44.39892" lon="6.401">
        <ele>2070</ele>
        <time>2021-09-01T13:11:11.000Z</time>
      </trkpt>
      <trkpt lat="44.39892" lon="6.401">
        <ele>2070</ele>
        <time>2021-09-01T13:11:12.000Z</time>
      </trkpt>
      <trkpt lat="44.39892" lon="6.401">
        <ele>2070</ele>
        <time>2021-09-01T13:11:13.000Z</time>
      </trkpt>
      <trkpt lat="44.39892" lon="6.401">
        <ele>2070</ele>
        <time>2021-09-01T13:11:14.000Z</time>
      </trkpt>
      <trkpt lat="44.39892" lon="6.401">
        <ele>2070</ele>
        <time>2021-09-01T13:11:15.000Z</time>
      </trkpt>
      <trkpt lat="44.39892" lon="6.401">
        <ele>2070</ele>
        <time>2021-09-01T13:11:16.000Z</time>
      </trkpt>
      <trkpt lat="44.39892" lon="6.401">
        <ele>2070</ele>
        <time>2021-09-01T13:11:17.000Z</time>
      </trkpt>
      <trkpt lat="44.39892" lon="6.401">
        <ele>2070</ele>
        <time>2021-09-01T13:11:18.000Z</time>
      </trkpt>
      <trkpt lat="44.39892" lon="6.401">
        <ele>2070</ele>
        <time>2021-09-01T13:11:19.000Z</time>
      </trkpt>
      <trkpt lat="44.39892" lon="6.401">
        <ele>2070</ele>
        <time>2021-09-01T13:11:20.000Z</time>
      </trkpt>
      <trkpt lat="44.39892" lon="6.401">
        <ele>2070</ele>
        <time>2021-09-01T13:11:21.000Z</time>
      </trkpt>
      <trkpt lat="44.39892" lon="6.401">
        <ele>2070</ele>
        <time>2021-09-01T13:11:22.000Z</time>
      </trkpt>
      <trkpt lat="44.39892" lon="6.401">
        <ele>2071</ele>
        <time>2021-09-01T13:11:23.000Z</time>
      </trkpt>
      <trkpt lat="44.39892" lon="6.401">
        <ele>2071</ele>
        <time>2021-09-01T13:11:24.000Z</time>
      </trkpt>
      <trkpt lat="44.39892" lon="6.401">
        <ele>2071</ele>
        <time>2021-09-01T13:11:25.000Z</time>
      </trkpt>
      <trkpt lat="44.39892" lon="6.401">
        <ele>2071</ele>
        <time>2021-09-01T13:11:26.000Z</time>
      </trkpt>
      <trkpt lat="44.39892" lon="6.401">
        <ele>2071</ele>
        <time>2021-09-01T13:11:27.000Z</time>
      </trkpt>
      <trkpt lat="44.39892" lon="6.401">
        <ele>2071</ele>
        <time>2021-09-01T13:11:28.000Z</time>
      </trkpt>
      <trkpt lat="44.39892" lon="6.401">
        <ele>2071</ele>
        <time>2021-09-01T13:11:29.000Z</time>
      </trkpt>
      <trkpt lat="44.39892" lon="6.401">
        <ele>2071</ele>
        <time>2021-09-01T13:11:30.000Z</time>
      </trkpt>
      <trkpt lat="44.39892" lon="6.401">
        <ele>2071</ele>
        <time>2021-09-01T13:11:31.000Z</time>
      </trkpt>
      <trkpt lat="44.39892" lon="6.401">
        <ele>2071</ele>
        <time>2021-09-01T13:11:32.000Z</time>
      </trkpt>
      <trkpt lat="44.39892" lon="6.401">
        <ele>2071</ele>
        <time>2021-09-01T13:11:33.000Z</time>
      </trkpt>
      <trkpt lat="44.39892" lon="6.401">
        <ele>2071</ele>
        <time>2021-09-01T13:11:34.000Z</time>
      </trkpt>
      <trkpt lat="44.39892" lon="6.401">
        <ele>2071</ele>
        <time>2021-09-01T13:11:35.000Z</time>
      </trkpt>
      <trkpt lat="44.39891" lon="6.401">
        <ele>2071</ele>
        <time>2021-09-01T13:11:36.000Z</time>
      </trkpt>
      <trkpt lat="44.39891" lon="6.401">
        <ele>2071</ele>
        <time>2021-09-01T13:11:37.000Z</time>
      </trkpt>
      <trkpt lat="44.39891" lon="6.401">
        <ele>2071</ele>
        <time>2021-09-01T13:11:38.000Z</time>
      </trkpt>
      <trkpt lat="44.39891" lon="6.401">
        <ele>2070</ele>
        <time>2021-09-01T13:11:39.000Z</time>
      </trkpt>
      <trkpt lat="44.39891" lon="6.401">
        <ele>2071</ele>
        <time>2021-09-01T13:11:40.000Z</time>
      </trkpt>
      <trkpt lat="44.39891" lon="6.401">
        <ele>2071</ele>
        <time>2021-09-01T13:11:41.000Z</time>
      </trkpt>
      <trkpt lat="44.39892" lon="6.401">
        <ele>2071</ele>
        <time>2021-09-01T13:11:42.000Z</time>
      </trkpt>
      <trkpt lat="44.39892" lon="6.401">
        <ele>2071</ele>
        <time>2021-09-01T13:11:43.000Z</time>
      </trkpt>
      <trkpt lat="44.39892" lon="6.401">
        <ele>2071</ele>
        <time>2021-09-01T13:11:44.000Z</time>
      </trkpt>
      <trkpt lat="44.39892" lon="6.401">
        <ele>2071</ele>
        <time>2021-09-01T13:11:45.000Z</time>
      </trkpt>
      <trkpt lat="44.39892" lon="6.40099">
        <ele>2071</ele>
        <time>2021-09-01T13:11:46.000Z</time>
      </trkpt>
      <trkpt lat="44.39892" lon="6.40099">
        <ele>2071</ele>
        <time>2021-09-01T13:11:47.000Z</time>
      </trkpt>
      <trkpt lat="44.39892" lon="6.40099">
        <ele>2071</ele>
        <time>2021-09-01T13:11:48.000Z</time>
      </trkpt>
      <trkpt lat="44.39892" lon="6.40099">
        <ele>2071</ele>
        <time>2021-09-01T13:11:49.000Z</time>
      </trkpt>
      <trkpt lat="44.39892" lon="6.40099">
        <ele>2071</ele>
        <time>2021-09-01T13:11:50.000Z</time>
      </trkpt>
      <trkpt lat="44.39892" lon="6.40099">
        <ele>2071</ele>
        <time>2021-09-01T13:11:51.000Z</time>
      </trkpt>
      <trkpt lat="44.39892" lon="6.40099">
        <ele>2070</ele>
        <time>2021-09-01T13:11:52.000Z</time>
      </trkpt>
      <trkpt lat="44.39892" lon="6.40099">
        <ele>2070</ele>
        <time>2021-09-01T13:11:53.000Z</time>
      </trkpt>
      <trkpt lat="44.39892" lon="6.40099">
        <ele>2070</ele>
        <time>2021-09-01T13:11:54.000Z</time>
      </trkpt>
      <trkpt lat="44.39892" lon="6.40099">
        <ele>2070</ele>
        <time>2021-09-01T13:11:55.000Z</time>
      </trkpt>
      <trkpt lat="44.39892" lon="6.40099">
        <ele>2070</ele>
        <time>2021-09-01T13:11:56.000Z</time>
      </trkpt>
      <trkpt lat="44.39892" lon="6.40099">
        <ele>2070</ele>
        <time>2021-09-01T13:11:57.000Z</time>
      </trkpt>
      <trkpt lat="44.39891" lon="6.401">
        <ele>2070</ele>
        <time>2021-09-01T13:11:58.000Z</time>
      </trkpt>
      <trkpt lat="44.39889" lon="6.40101">
        <ele>2071</ele>
        <time>2021-09-01T13:11:59.000Z</time>
      </trkpt>
      <trkpt lat="44.39887" lon="6.40101">
        <ele>2071</ele>
        <time>2021-09-01T13:12:00.000Z</time>
      </trkpt>
      <trkpt lat="44.39885" lon="6.40101">
        <ele>2071</ele>
        <time>2021-09-01T13:12:01.000Z</time>
      </trkpt>
      <trkpt lat="44.39883" lon="6.40102">
        <ele>2071</ele>
        <time>2021-09-01T13:12:02.000Z</time>
      </trkpt>
      <trkpt lat="44.39881" lon="6.40103">
        <ele>2070</ele>
        <time>2021-09-01T13:12:03.000Z</time>
      </trkpt>
      <trkpt lat="44.39878" lon="6.40105">
        <ele>2070</ele>
        <time>2021-09-01T13:12:04.000Z</time>
      </trkpt>
      <trkpt lat="44.39874" lon="6.40106">
        <ele>2069</ele>
        <time>2021-09-01T13:12:05.000Z</time>
      </trkpt>
      <trkpt lat="44.39871" lon="6.40108">
        <ele>2068</ele>
        <time>2021-09-01T13:12:06.000Z</time>
      </trkpt>
      <trkpt lat="44.39867" lon="6.40108">
        <ele>2068</ele>
        <time>2021-09-01T13:12:07.000Z</time>
      </trkpt>
      <trkpt lat="44.39863" lon="6.4011">
        <ele>2067</ele>
        <time>2021-09-01T13:12:08.000Z</time>
      </trkpt>
      <trkpt lat="44.3986" lon="6.40111">
        <ele>2066</ele>
        <time>2021-09-01T13:12:09.000Z</time>
      </trkpt>
      <trkpt lat="44.39856" lon="6.40113">
        <ele>2064</ele>
        <time>2021-09-01T13:12:10.000Z</time>
      </trkpt>
      <trkpt lat="44.39851" lon="6.40115">
        <ele>2063</ele>
        <time>2021-09-01T13:12:11.000Z</time>
      </trkpt>
      <trkpt lat="44.39844" lon="6.40116">
        <ele>2064</ele>
        <time>2021-09-01T13:12:12.000Z</time>
      </trkpt>
      <trkpt lat="44.39838" lon="6.40119">
        <ele>2063</ele>
        <time>2021-09-01T13:12:13.000Z</time>
      </trkpt>
      <trkpt lat="44.39833" lon="6.40121">
        <ele>2063</ele>
        <time>2021-09-01T13:12:14.000Z</time>
      </trkpt>
      <trkpt lat="44.39828" lon="6.40123">
        <ele>2063</ele>
        <time>2021-09-01T13:12:15.000Z</time>
      </trkpt>
      <trkpt lat="44.39823" lon="6.40126">
        <ele>2063</ele>
        <time>2021-09-01T13:12:16.000Z</time>
      </trkpt>
      <trkpt lat="44.39819" lon="6.4013">
        <ele>2062</ele>
        <time>2021-09-01T13:12:17.000Z</time>
      </trkpt>
      <trkpt lat="44.39815" lon="6.40135">
        <ele>2061</ele>
        <time>2021-09-01T13:12:18.000Z</time>
      </trkpt>
      <trkpt lat="44.3981" lon="6.40139">
        <ele>2061</ele>
        <time>2021-09-01T13:12:19.000Z</time>
      </trkpt>
      <trkpt lat="44.39806" lon="6.40142">
        <ele>2060</ele>
        <time>2021-09-01T13:12:20.000Z</time>
      </trkpt>
      <trkpt lat="44.39801" lon="6.40144">
        <ele>2059</ele>
        <time>2021-09-01T13:12:21.000Z</time>
      </trkpt>
      <trkpt lat="44.39796" lon="6.40146">
        <ele>2059</ele>
        <time>2021-09-01T13:12:22.000Z</time>
      </trkpt>
      <trkpt lat="44.39793" lon="6.40148">
        <ele>2060</ele>
        <time>2021-09-01T13:12:23.000Z</time>
      </trkpt>
      <trkpt lat="44.3979" lon="6.40149">
        <ele>2060</ele>
        <time>2021-09-01T13:12:24.000Z</time>
      </trkpt>
      <trkpt lat="44.39787" lon="6.4015">
        <ele>2060</ele>
        <time>2021-09-01T13:12:25.000Z</time>
      </trkpt>
      <trkpt lat="44.39784" lon="6.4015">
        <ele>2060</ele>
        <time>2021-09-01T13:12:26.000Z</time>
      </trkpt>
      <trkpt lat="44.39783" lon="6.40154">
        <ele>2059</ele>
        <time>2021-09-01T13:12:27.000Z</time>
      </trkpt>
      <trkpt lat="44.3978" lon="6.40156">
        <ele>2058</ele>
        <time>2021-09-01T13:12:28.000Z</time>
      </trkpt>
      <trkpt lat="44.39777" lon="6.4016">
        <ele>2058</ele>
        <time>2021-09-01T13:12:29.000Z</time>
      </trkpt>
      <trkpt lat="44.39775" lon="6.40164">
        <ele>2057</ele>
        <time>2021-09-01T13:12:30.000Z</time>
      </trkpt>
      <trkpt lat="44.39775" lon="6.40171">
        <ele>2057</ele>
        <time>2021-09-01T13:12:31.000Z</time>
      </trkpt>
      <trkpt lat="44.39774" lon="6.40176">
        <ele>2056</ele>
        <time>2021-09-01T13:12:32.000Z</time>
      </trkpt>
      <trkpt lat="44.39773" lon="6.4018">
        <ele>2055</ele>
        <time>2021-09-01T13:12:33.000Z</time>
      </trkpt>
      <trkpt lat="44.39772" lon="6.40185">
        <ele>2055</ele>
        <time>2021-09-01T13:12:34.000Z</time>
      </trkpt>
      <trkpt lat="44.39771" lon="6.40189">
        <ele>2055</ele>
        <time>2021-09-01T13:12:35.000Z</time>
      </trkpt>
      <trkpt lat="44.3977" lon="6.40193">
        <ele>2054</ele>
        <time>2021-09-01T13:12:36.000Z</time>
      </trkpt>
      <trkpt lat="44.39769" lon="6.40197">
        <ele>2054</ele>
        <time>2021-09-01T13:12:37.000Z</time>
      </trkpt>
      <trkpt lat="44.39768" lon="6.40202">
        <ele>2053</ele>
        <time>2021-09-01T13:12:38.000Z</time>
      </trkpt>
      <trkpt lat="44.39767" lon="6.40206">
        <ele>2053</ele>
        <time>2021-09-01T13:12:39.000Z</time>
      </trkpt>
      <trkpt lat="44.39766" lon="6.4021">
        <ele>2053</ele>
        <time>2021-09-01T13:12:40.000Z</time>
      </trkpt>
      <trkpt lat="44.39765" lon="6.40215">
        <ele>2052</ele>
        <time>2021-09-01T13:12:41.000Z</time>
      </trkpt>
      <trkpt lat="44.39764" lon="6.40219">
        <ele>2051</ele>
        <time>2021-09-01T13:12:42.000Z</time>
      </trkpt>
      <trkpt lat="44.39764" lon="6.40224">
        <ele>2050</ele>
        <time>2021-09-01T13:12:43.000Z</time>
      </trkpt>
      <trkpt lat="44.39764" lon="6.40228">
        <ele>2047</ele>
        <time>2021-09-01T13:12:44.000Z</time>
      </trkpt>
      <trkpt lat="44.39764" lon="6.40233">
        <ele>2045</ele>
        <time>2021-09-01T13:12:45.000Z</time>
      </trkpt>
      <trkpt lat="44.39765" lon="6.40237">
        <ele>2045</ele>
        <time>2021-09-01T13:12:46.000Z</time>
      </trkpt>
      <trkpt lat="44.39765" lon="6.40242">
        <ele>2045</ele>
        <time>2021-09-01T13:12:47.000Z</time>
      </trkpt>
      <trkpt lat="44.39765" lon="6.40247">
        <ele>2045</ele>
        <time>2021-09-01T13:12:48.000Z</time>
      </trkpt>
      <trkpt lat="44.39766" lon="6.4025">
        <ele>2044</ele>
        <time>2021-09-01T13:12:49.000Z</time>
      </trkpt>
      <trkpt lat="44.39767" lon="6.40255">
        <ele>2044</ele>
        <time>2021-09-01T13:12:50.000Z</time>
      </trkpt>
      <trkpt lat="44.39769" lon="6.40261">
        <ele>2044</ele>
        <time>2021-09-01T13:12:51.000Z</time>
      </trkpt>
      <trkpt lat="44.39771" lon="6.40266">
        <ele>2043</ele>
        <time>2021-09-01T13:12:52.000Z</time>
      </trkpt>
      <trkpt lat="44.39773" lon="6.40271">
        <ele>2043</ele>
        <time>2021-09-01T13:12:53.000Z</time>
      </trkpt>
      <trkpt lat="44.39774" lon="6.40276">
        <ele>2041</ele>
        <time>2021-09-01T13:12:54.000Z</time>
      </trkpt>
      <trkpt lat="44.39776" lon="6.4028">
        <ele>2040</ele>
        <time>2021-09-01T13:12:55.000Z</time>
      </trkpt>
      <trkpt lat="44.39778" lon="6.40285">
        <ele>2038</ele>
        <time>2021-09-01T13:12:56.000Z</time>
      </trkpt>
      <trkpt lat="44.3978" lon="6.4029">
        <ele>2037</ele>
        <time>2021-09-01T13:12:57.000Z</time>
      </trkpt>
      <trkpt lat="44.39782" lon="6.40294">
        <ele>2035</ele>
        <time>2021-09-01T13:12:58.000Z</time>
      </trkpt>
      <trkpt lat="44.39784" lon="6.40297">
        <ele>2034</ele>
        <time>2021-09-01T13:12:59.000Z</time>
      </trkpt>
      <trkpt lat="44.39786" lon="6.40301">
        <ele>2033</ele>
        <time>2021-09-01T13:13:00.000Z</time>
      </trkpt>
      <trkpt lat="44.39787" lon="6.40305">
        <ele>2033</ele>
        <time>2021-09-01T13:13:01.000Z</time>
      </trkpt>
      <trkpt lat="44.39789" lon="6.40309">
        <ele>2032</ele>
        <time>2021-09-01T13:13:02.000Z</time>
      </trkpt>
      <trkpt lat="44.39791" lon="6.40313">
        <ele>2032</ele>
        <time>2021-09-01T13:13:03.000Z</time>
      </trkpt>
      <trkpt lat="44.39793" lon="6.40317">
        <ele>2031</ele>
        <time>2021-09-01T13:13:04.000Z</time>
      </trkpt>
      <trkpt lat="44.39796" lon="6.4032">
        <ele>2031</ele>
        <time>2021-09-01T13:13:05.000Z</time>
      </trkpt>
      <trkpt lat="44.39798" lon="6.40325">
        <ele>2031</ele>
        <time>2021-09-01T13:13:06.000Z</time>
      </trkpt>
      <trkpt lat="44.398" lon="6.4033">
        <ele>2032</ele>
        <time>2021-09-01T13:13:07.000Z</time>
      </trkpt>
      <trkpt lat="44.39802" lon="6.40335">
        <ele>2032</ele>
        <time>2021-09-01T13:13:08.000Z</time>
      </trkpt>
      <trkpt lat="44.39803" lon="6.4034">
        <ele>2031</ele>
        <time>2021-09-01T13:13:09.000Z</time>
      </trkpt>
      <trkpt lat="44.39805" lon="6.40344">
        <ele>2031</ele>
        <time>2021-09-01T13:13:10.000Z</time>
      </trkpt>
      <trkpt lat="44.39807" lon="6.40349">
        <ele>2031</ele>
        <time>2021-09-01T13:13:11.000Z</time>
      </trkpt>
      <trkpt lat="44.39809" lon="6.40354">
        <ele>2030</ele>
        <time>2021-09-01T13:13:12.000Z</time>
      </trkpt>
      <trkpt lat="44.3981" lon="6.40359">
        <ele>2030</ele>
        <time>2021-09-01T13:13:13.000Z</time>
      </trkpt>
      <trkpt lat="44.39813" lon="6.40385">
        <ele>2029</ele>
        <time>2021-09-01T13:14:01.000Z</time>
      </trkpt>
      <trkpt lat="44.39813" lon="6.40388">
        <ele>2029</ele>
        <time>2021-09-01T13:14:02.000Z</time>
      </trkpt>
      <trkpt lat="44.39813" lon="6.40391">
        <ele>2029</ele>
        <time>2021-09-01T13:14:03.000Z</time>
      </trkpt>
      <trkpt lat="44.39814" lon="6.40394">
        <ele>2029</ele>
        <time>2021-09-01T13:14:04.000Z</time>
      </trkpt>
      <trkpt lat="44.39814" lon="6.40397">
        <ele>2029</ele>
        <time>2021-09-01T13:14:05.000Z</time>
      </trkpt>
      <trkpt lat="44.39815" lon="6.40399">
        <ele>2029</ele>
        <time>2021-09-01T13:14:06.000Z</time>
      </trkpt>
      <trkpt lat="44.39815" lon="6.40402">
        <ele>2029</ele>
        <time>2021-09-01T13:14:07.000Z</time>
      </trkpt>
      <trkpt lat="44.39815" lon="6.40405">
        <ele>2029</ele>
        <time>2021-09-01T13:14:08.000Z</time>
      </trkpt>
      <trkpt lat="44.39815" lon="6.40407">
        <ele>2029</ele>
        <time>2021-09-01T13:14:09.000Z</time>
      </trkpt>
      <trkpt lat="44.39816" lon="6.4041">
        <ele>2028</ele>
        <time>2021-09-01T13:14:10.000Z</time>
      </trkpt>
      <trkpt lat="44.39816" lon="6.40413">
        <ele>2028</ele>
        <time>2021-09-01T13:14:11.000Z</time>
      </trkpt>
      <trkpt lat="44.39817" lon="6.40417">
        <ele>2028</ele>
        <time>2021-09-01T13:14:12.000Z</time>
      </trkpt>
      <trkpt lat="44.39818" lon="6.4042">
        <ele>2027</ele>
        <time>2021-09-01T13:14:13.000Z</time>
      </trkpt>
      <trkpt lat="44.3982" lon="6.40424">
        <ele>2027</ele>
        <time>2021-09-01T13:14:14.000Z</time>
      </trkpt>
      <trkpt lat="44.39821" lon="6.40428">
        <ele>2027</ele>
        <time>2021-09-01T13:14:15.000Z</time>
      </trkpt>
      <trkpt lat="44.39823" lon="6.40432">
        <ele>2026</ele>
        <time>2021-09-01T13:14:16.000Z</time>
      </trkpt>
      <trkpt lat="44.39824" lon="6.40437">
        <ele>2026</ele>
        <time>2021-09-01T13:14:17.000Z</time>
      </trkpt>
      <trkpt lat="44.39825" lon="6.40442">
        <ele>2025</ele>
        <time>2021-09-01T13:14:18.000Z</time>
      </trkpt>
      <trkpt lat="44.39826" lon="6.40447">
        <ele>2025</ele>
        <time>2021-09-01T13:14:19.000Z</time>
      </trkpt>
      <trkpt lat="44.39827" lon="6.40452">
        <ele>2024</ele>
        <time>2021-09-01T13:14:20.000Z</time>
      </trkpt>
      <trkpt lat="44.39828" lon="6.40458">
        <ele>2025</ele>
        <time>2021-09-01T13:14:21.000Z</time>
      </trkpt>
      <trkpt lat="44.3983" lon="6.40464">
        <ele>2024</ele>
        <time>2021-09-01T13:14:22.000Z</time>
      </trkpt>
      <trkpt lat="44.39831" lon="6.4047">
        <ele>2024</ele>
        <time>2021-09-01T13:14:23.000Z</time>
      </trkpt>
      <trkpt lat="44.39832" lon="6.40476">
        <ele>2024</ele>
        <time>2021-09-01T13:14:24.000Z</time>
      </trkpt>
      <trkpt lat="44.39832" lon="6.40482">
        <ele>2023</ele>
        <time>2021-09-01T13:14:25.000Z</time>
      </trkpt>
      <trkpt lat="44.39832" lon="6.40487">
        <ele>2022</ele>
        <time>2021-09-01T13:14:26.000Z</time>
      </trkpt>
      <trkpt lat="44.39832" lon="6.40492">
        <ele>2022</ele>
        <time>2021-09-01T13:14:27.000Z</time>
      </trkpt>
      <trkpt lat="44.39833" lon="6.40497">
        <ele>2021</ele>
        <time>2021-09-01T13:14:28.000Z</time>
      </trkpt>
      <trkpt lat="44.39834" lon="6.40503">
        <ele>2021</ele>
        <time>2021-09-01T13:14:29.000Z</time>
      </trkpt>
      <trkpt lat="44.39835" lon="6.40508">
        <ele>2021</ele>
        <time>2021-09-01T13:14:30.000Z</time>
      </trkpt>
      <trkpt lat="44.39836" lon="6.40513">
        <ele>2021</ele>
        <time>2021-09-01T13:14:31.000Z</time>
      </trkpt>
      <trkpt lat="44.39837" lon="6.40518">
        <ele>2021</ele>
        <time>2021-09-01T13:14:32.000Z</time>
      </trkpt>
      <trkpt lat="44.39837" lon="6.40523">
        <ele>2020</ele>
        <time>2021-09-01T13:14:33.000Z</time>
      </trkpt>
      <trkpt lat="44.39837" lon="6.40529">
        <ele>2019</ele>
        <time>2021-09-01T13:14:34.000Z</time>
      </trkpt>
      <trkpt lat="44.39837" lon="6.40534">
        <ele>2019</ele>
        <time>2021-09-01T13:14:35.000Z</time>
      </trkpt>
      <trkpt lat="44.39837" lon="6.40539">
        <ele>2019</ele>
        <time>2021-09-01T13:14:36.000Z</time>
      </trkpt>
      <trkpt lat="44.39837" lon="6.40544">
        <ele>2019</ele>
        <time>2021-09-01T13:14:37.000Z</time>
      </trkpt>
      <trkpt lat="44.39837" lon="6.40548">
        <ele>2018</ele>
        <time>2021-09-01T13:14:38.000Z</time>
      </trkpt>
      <trkpt lat="44.39838" lon="6.40553">
        <ele>2017</ele>
        <time>2021-09-01T13:14:39.000Z</time>
      </trkpt>
      <trkpt lat="44.39838" lon="6.40558">
        <ele>2017</ele>
        <time>2021-09-01T13:14:40.000Z</time>
      </trkpt>
      <trkpt lat="44.39839" lon="6.40563">
        <ele>2017</ele>
        <time>2021-09-01T13:14:41.000Z</time>
      </trkpt>
      <trkpt lat="44.39839" lon="6.40568">
        <ele>2016</ele>
        <time>2021-09-01T13:14:42.000Z</time>
      </trkpt>
      <trkpt lat="44.39839" lon="6.40573">
        <ele>2015</ele>
        <time>2021-09-01T13:14:43.000Z</time>
      </trkpt>
      <trkpt lat="44.3984" lon="6.40579">
        <ele>2015</ele>
        <time>2021-09-01T13:14:44.000Z</time>
      </trkpt>
      <trkpt lat="44.39841" lon="6.40585">
        <ele>2014</ele>
        <time>2021-09-01T13:14:45.000Z</time>
      </trkpt>
      <trkpt lat="44.39843" lon="6.40591">
        <ele>2014</ele>
        <time>2021-09-01T13:14:46.000Z</time>
      </trkpt>
      <trkpt lat="44.39845" lon="6.40598">
        <ele>2013</ele>
        <time>2021-09-01T13:14:47.000Z</time>
      </trkpt>
      <trkpt lat="44.39847" lon="6.40605">
        <ele>2013</ele>
        <time>2021-09-01T13:14:48.000Z</time>
      </trkpt>
      <trkpt lat="44.39848" lon="6.40612">
        <ele>2012</ele>
        <time>2021-09-01T13:14:49.000Z</time>
      </trkpt>
      <trkpt lat="44.3985" lon="6.40618">
        <ele>2012</ele>
        <time>2021-09-01T13:14:50.000Z</time>
      </trkpt>
      <trkpt lat="44.39851" lon="6.40623">
        <ele>2012</ele>
        <time>2021-09-01T13:14:51.000Z</time>
      </trkpt>
      <trkpt lat="44.39852" lon="6.40629">
        <ele>2011</ele>
        <time>2021-09-01T13:14:52.000Z</time>
      </trkpt>
      <trkpt lat="44.39854" lon="6.40634">
        <ele>2010</ele>
        <time>2021-09-01T13:14:53.000Z</time>
      </trkpt>
      <trkpt lat="44.39856" lon="6.40639">
        <ele>2010</ele>
        <time>2021-09-01T13:14:54.000Z</time>
      </trkpt>
      <trkpt lat="44.39857" lon="6.40644">
        <ele>2009</ele>
        <time>2021-09-01T13:14:55.000Z</time>
      </trkpt>
      <trkpt lat="44.39859" lon="6.40649">
        <ele>2009</ele>
        <time>2021-09-01T13:14:56.000Z</time>
      </trkpt>
      <trkpt lat="44.39858" lon="6.40655">
        <ele>2007</ele>
        <time>2021-09-01T13:14:57.000Z</time>
      </trkpt>
      <trkpt lat="44.39856" lon="6.40659">
        <ele>2005</ele>
        <time>2021-09-01T13:14:58.000Z</time>
      </trkpt>
      <trkpt lat="44.39855" lon="6.40664">
        <ele>2005</ele>
        <time>2021-09-01T13:14:59.000Z</time>
      </trkpt>
      <trkpt lat="44.39855" lon="6.40669">
        <ele>2004</ele>
        <time>2021-09-01T13:15:00.000Z</time>
      </trkpt>
      <trkpt lat="44.39854" lon="6.40672">
        <ele>2004</ele>
        <time>2021-09-01T13:15:01.000Z</time>
      </trkpt>
      <trkpt lat="44.39853" lon="6.40676">
        <ele>2004</ele>
        <time>2021-09-01T13:15:02.000Z</time>
      </trkpt>
      <trkpt lat="44.39853" lon="6.4068">
        <ele>2004</ele>
        <time>2021-09-01T13:15:03.000Z</time>
      </trkpt>
      <trkpt lat="44.39852" lon="6.40682">
        <ele>2003</ele>
        <time>2021-09-01T13:15:04.000Z</time>
      </trkpt>
      <trkpt lat="44.39852" lon="6.40682">
        <ele>2003</ele>
        <time>2021-09-01T13:15:05.000Z</time>
      </trkpt>
      <trkpt lat="44.39852" lon="6.40682">
        <ele>2003</ele>
        <time>2021-09-01T13:15:06.000Z</time>
      </trkpt>
      <trkpt lat="44.39852" lon="6.40683">
        <ele>2003</ele>
        <time>2021-09-01T13:15:07.000Z</time>
      </trkpt>
      <trkpt lat="44.39852" lon="6.40682">
        <ele>2003</ele>
        <time>2021-09-01T13:15:08.000Z</time>
      </trkpt>
      <trkpt lat="44.39852" lon="6.40682">
        <ele>2004</ele>
        <time>2021-09-01T13:15:09.000Z</time>
      </trkpt>
      <trkpt lat="44.39852" lon="6.40683">
        <ele>2004</ele>
        <time>2021-09-01T13:15:10.000Z</time>
      </trkpt>
      <trkpt lat="44.39852" lon="6.40683">
        <ele>2004</ele>
        <time>2021-09-01T13:15:11.000Z</time>
      </trkpt>
      <trkpt lat="44.39852" lon="6.40683">
        <ele>2004</ele>
        <time>2021-09-01T13:15:12.000Z</time>
      </trkpt>
      <trkpt lat="44.39852" lon="6.40683">
        <ele>2004</ele>
        <time>2021-09-01T13:15:13.000Z</time>
      </trkpt>
      <trkpt lat="44.39852" lon="6.40683">
        <ele>2004</ele>
        <time>2021-09-01T13:15:14.000Z</time>
      </trkpt>
      <trkpt lat="44.39853" lon="6.40683">
        <ele>2004</ele>
        <time>2021-09-01T13:15:15.000Z</time>
      </trkpt>
      <trkpt lat="44.39853" lon="6.40683">
        <ele>2004</ele>
        <time>2021-09-01T13:15:16.000Z</time>
      </trkpt>
      <trkpt lat="44.39853" lon="6.40683">
        <ele>2004</ele>
        <time>2021-09-01T13:15:17.000Z</time>
      </trkpt>
      <trkpt lat="44.39853" lon="6.40682">
        <ele>2004</ele>
        <time>2021-09-01T13:15:18.000Z</time>
      </trkpt>
      <trkpt lat="44.39853" lon="6.40682">
        <ele>2004</ele>
        <time>2021-09-01T13:15:19.000Z</time>
      </trkpt>
      <trkpt lat="44.39853" lon="6.40682">
        <ele>2004</ele>
        <time>2021-09-01T13:15:20.000Z</time>
      </trkpt>
      <trkpt lat="44.39853" lon="6.40682">
        <ele>2004</ele>
        <time>2021-09-01T13:15:21.000Z</time>
      </trkpt>
      <trkpt lat="44.39853" lon="6.40682">
        <ele>2004</ele>
        <time>2021-09-01T13:15:22.000Z</time>
      </trkpt>
      <trkpt lat="44.39853" lon="6.40682">
        <ele>2004</ele>
        <time>2021-09-01T13:15:23.000Z</time>
      </trkpt>
      <trkpt lat="44.39853" lon="6.40682">
        <ele>2004</ele>
        <time>2021-09-01T13:15:24.000Z</time>
      </trkpt>
      <trkpt lat="44.39853" lon="6.40683">
        <ele>2005</ele>
        <time>2021-09-01T13:15:25.000Z</time>
      </trkpt>
      <trkpt lat="44.39853" lon="6.40683">
        <ele>2005</ele>
        <time>2021-09-01T13:15:26.000Z</time>
      </trkpt>
      <trkpt lat="44.39853" lon="6.40683">
        <ele>2005</ele>
        <time>2021-09-01T13:15:27.000Z</time>
      </trkpt>
      <trkpt lat="44.39853" lon="6.40683">
        <ele>2005</ele>
        <time>2021-09-01T13:15:28.000Z</time>
      </trkpt>
      <trkpt lat="44.39853" lon="6.40683">
        <ele>2005</ele>
        <time>2021-09-01T13:15:29.000Z</time>
      </trkpt>
      <trkpt lat="44.39853" lon="6.40683">
        <ele>2005</ele>
        <time>2021-09-01T13:15:30.000Z</time>
      </trkpt>
      <trkpt lat="44.39853" lon="6.40683">
        <ele>2006</ele>
        <time>2021-09-01T13:15:31.000Z</time>
      </trkpt>
      <trkpt lat="44.39853" lon="6.40683">
        <ele>2006</ele>
        <time>2021-09-01T13:15:32.000Z</time>
      </trkpt>
      <trkpt lat="44.39853" lon="6.40683">
        <ele>2006</ele>
        <time>2021-09-01T13:15:33.000Z</time>
      </trkpt>
      <trkpt lat="44.39853" lon="6.40683">
        <ele>2006</ele>
        <time>2021-09-01T13:15:34.000Z</time>
      </trkpt>
      <trkpt lat="44.39853" lon="6.40683">
        <ele>2006</ele>
        <time>2021-09-01T13:15:35.000Z</time>
      </trkpt>
      <trkpt lat="44.39853" lon="6.40683">
        <ele>2006</ele>
        <time>2021-09-01T13:15:36.000Z</time>
      </trkpt>
      <trkpt lat="44.39853" lon="6.40684">
        <ele>2006</ele>
        <time>2021-09-01T13:15:37.000Z</time>
      </trkpt>
      <trkpt lat="44.39852" lon="6.40684">
        <ele>2006</ele>
        <time>2021-09-01T13:15:38.000Z</time>
      </trkpt>
      <trkpt lat="44.39853" lon="6.40684">
        <ele>2006</ele>
        <time>2021-09-01T13:15:39.000Z</time>
      </trkpt>
      <trkpt lat="44.39853" lon="6.40684">
        <ele>2006</ele>
        <time>2021-09-01T13:15:40.000Z</time>
      </trkpt>
      <trkpt lat="44.39852" lon="6.40684">
        <ele>2007</ele>
        <time>2021-09-01T13:15:41.000Z</time>
      </trkpt>
      <trkpt lat="44.39852" lon="6.40684">
        <ele>2006</ele>
        <time>2021-09-01T13:15:42.000Z</time>
      </trkpt>
      <trkpt lat="44.39852" lon="6.40684">
        <ele>2006</ele>
        <time>2021-09-01T13:15:43.000Z</time>
      </trkpt>
      <trkpt lat="44.39852" lon="6.40685">
        <ele>2006</ele>
        <time>2021-09-01T13:15:44.000Z</time>
      </trkpt>
      <trkpt lat="44.39851" lon="6.40687">
        <ele>2006</ele>
        <time>2021-09-01T13:15:45.000Z</time>
      </trkpt>
      <trkpt lat="44.3985" lon="6.40689">
        <ele>2006</ele>
        <time>2021-09-01T13:15:46.000Z</time>
      </trkpt>
      <trkpt lat="44.39848" lon="6.40691">
        <ele>2006</ele>
        <time>2021-09-01T13:15:47.000Z</time>
      </trkpt>
      <trkpt lat="44.39847" lon="6.40692">
        <ele>2006</ele>
        <time>2021-09-01T13:15:48.000Z</time>
      </trkpt>
      <trkpt lat="44.39845" lon="6.40694">
        <ele>2006</ele>
        <time>2021-09-01T13:15:49.000Z</time>
      </trkpt>
      <trkpt lat="44.39843" lon="6.40696">
        <ele>2006</ele>
        <time>2021-09-01T13:15:50.000Z</time>
      </trkpt>
      <trkpt lat="44.39841" lon="6.40696">
        <ele>2005</ele>
        <time>2021-09-01T13:15:51.000Z</time>
      </trkpt>
      <trkpt lat="44.39838" lon="6.40697">
        <ele>2005</ele>
        <time>2021-09-01T13:15:52.000Z</time>
      </trkpt>
      <trkpt lat="44.39836" lon="6.40698">
        <ele>2006</ele>
        <time>2021-09-01T13:15:53.000Z</time>
      </trkpt>
      <trkpt lat="44.39835" lon="6.40699">
        <ele>2006</ele>
        <time>2021-09-01T13:15:54.000Z</time>
      </trkpt>
      <trkpt lat="44.39832" lon="6.40701">
        <ele>2006</ele>
        <time>2021-09-01T13:15:55.000Z</time>
      </trkpt>
      <trkpt lat="44.3983" lon="6.40703">
        <ele>2006</ele>
        <time>2021-09-01T13:15:56.000Z</time>
      </trkpt>
      <trkpt lat="44.39829" lon="6.40705">
        <ele>2007</ele>
        <time>2021-09-01T13:15:57.000Z</time>
      </trkpt>
      <trkpt lat="44.39827" lon="6.40707">
        <ele>2007</ele>
        <time>2021-09-01T13:15:58.000Z</time>
      </trkpt>
      <trkpt lat="44.39825" lon="6.40709">
        <ele>2007</ele>
        <time>2021-09-01T13:15:59.000Z</time>
      </trkpt>
      <trkpt lat="44.39823" lon="6.4071">
        <ele>2008</ele>
        <time>2021-09-01T13:16:00.000Z</time>
      </trkpt>
      <trkpt lat="44.39821" lon="6.40712">
        <ele>2008</ele>
        <time>2021-09-01T13:16:01.000Z</time>
      </trkpt>
      <trkpt lat="44.39819" lon="6.40713">
        <ele>2008</ele>
        <time>2021-09-01T13:16:02.000Z</time>
      </trkpt>
      <trkpt lat="44.39817" lon="6.40715">
        <ele>2007</ele>
        <time>2021-09-01T13:16:03.000Z</time>
      </trkpt>
      <trkpt lat="44.39815" lon="6.40716">
        <ele>2007</ele>
        <time>2021-09-01T13:16:04.000Z</time>
      </trkpt>
      <trkpt lat="44.39813" lon="6.40717">
        <ele>2007</ele>
        <time>2021-09-01T13:16:05.000Z</time>
      </trkpt>
      <trkpt lat="44.39811" lon="6.40718">
        <ele>2007</ele>
        <time>2021-09-01T13:16:06.000Z</time>
      </trkpt>
      <trkpt lat="44.39808" lon="6.40719">
        <ele>2007</ele>
        <time>2021-09-01T13:16:07.000Z</time>
      </trkpt>
      <trkpt lat="44.39806" lon="6.4072">
        <ele>2007</ele>
        <time>2021-09-01T13:16:08.000Z</time>
      </trkpt>
      <trkpt lat="44.39804" lon="6.40722">
        <ele>2007</ele>
        <time>2021-09-01T13:16:09.000Z</time>
      </trkpt>
      <trkpt lat="44.39802" lon="6.40724">
        <ele>2007</ele>
        <time>2021-09-01T13:16:10.000Z</time>
      </trkpt>
      <trkpt lat="44.398" lon="6.40725">
        <ele>2007</ele>
        <time>2021-09-01T13:16:11.000Z</time>
      </trkpt>
      <trkpt lat="44.39798" lon="6.40727">
        <ele>2006</ele>
        <time>2021-09-01T13:16:12.000Z</time>
      </trkpt>
      <trkpt lat="44.39797" lon="6.40729">
        <ele>2006</ele>
        <time>2021-09-01T13:16:13.000Z</time>
      </trkpt>
      <trkpt lat="44.39795" lon="6.40732">
        <ele>2006</ele>
        <time>2021-09-01T13:16:14.000Z</time>
      </trkpt>
      <trkpt lat="44.39793" lon="6.40733">
        <ele>2006</ele>
        <time>2021-09-01T13:16:15.000Z</time>
      </trkpt>
      <trkpt lat="44.39791" lon="6.40734">
        <ele>2007</ele>
        <time>2021-09-01T13:16:16.000Z</time>
      </trkpt>
      <trkpt lat="44.39789" lon="6.40735">
        <ele>2007</ele>
        <time>2021-09-01T13:16:17.000Z</time>
      </trkpt>
      <trkpt lat="44.39786" lon="6.40735">
        <ele>2007</ele>
        <time>2021-09-01T13:16:18.000Z</time>
      </trkpt>
      <trkpt lat="44.39783" lon="6.40735">
        <ele>2008</ele>
        <time>2021-09-01T13:16:19.000Z</time>
      </trkpt>
      <trkpt lat="44.3978" lon="6.40736">
        <ele>2008</ele>
        <time>2021-09-01T13:16:20.000Z</time>
      </trkpt>
      <trkpt lat="44.39778" lon="6.40736">
        <ele>2008</ele>
        <time>2021-09-01T13:16:21.000Z</time>
      </trkpt>
      <trkpt lat="44.39775" lon="6.40737">
        <ele>2008</ele>
        <time>2021-09-01T13:16:22.000Z</time>
      </trkpt>
      <trkpt lat="44.39773" lon="6.40738">
        <ele>2009</ele>
        <time>2021-09-01T13:16:23.000Z</time>
      </trkpt>
      <trkpt lat="44.3977" lon="6.40739">
        <ele>2008</ele>
        <time>2021-09-01T13:16:24.000Z</time>
      </trkpt>
      <trkpt lat="44.39768" lon="6.40739">
        <ele>2008</ele>
        <time>2021-09-01T13:16:25.000Z</time>
      </trkpt>
      <trkpt lat="44.39766" lon="6.4074">
        <ele>2008</ele>
        <time>2021-09-01T13:16:26.000Z</time>
      </trkpt>
      <trkpt lat="44.39764" lon="6.40741">
        <ele>2009</ele>
        <time>2021-09-01T13:16:27.000Z</time>
      </trkpt>
      <trkpt lat="44.39761" lon="6.40743">
        <ele>2009</ele>
        <time>2021-09-01T13:16:28.000Z</time>
      </trkpt>
      <trkpt lat="44.39759" lon="6.40744">
        <ele>2009</ele>
        <time>2021-09-01T13:16:29.000Z</time>
      </trkpt>
      <trkpt lat="44.39756" lon="6.40745">
        <ele>2008</ele>
        <time>2021-09-01T13:16:30.000Z</time>
      </trkpt>
      <trkpt lat="44.39754" lon="6.40747">
        <ele>2008</ele>
        <time>2021-09-01T13:16:31.000Z</time>
      </trkpt>
      <trkpt lat="44.39752" lon="6.40748">
        <ele>2008</ele>
        <time>2021-09-01T13:16:32.000Z</time>
      </trkpt>
      <trkpt lat="44.3975" lon="6.40749">
        <ele>2008</ele>
        <time>2021-09-01T13:16:33.000Z</time>
      </trkpt>
      <trkpt lat="44.39748" lon="6.4075">
        <ele>2009</ele>
        <time>2021-09-01T13:16:34.000Z</time>
      </trkpt>
      <trkpt lat="44.39746" lon="6.40752">
        <ele>2009</ele>
        <time>2021-09-01T13:16:35.000Z</time>
      </trkpt>
      <trkpt lat="44.39744" lon="6.40753">
        <ele>2009</ele>
        <time>2021-09-01T13:16:36.000Z</time>
      </trkpt>
      <trkpt lat="44.39741" lon="6.40755">
        <ele>2009</ele>
        <time>2021-09-01T13:16:37.000Z</time>
      </trkpt>
      <trkpt lat="44.39739" lon="6.40757">
        <ele>2009</ele>
        <time>2021-09-01T13:16:38.000Z</time>
      </trkpt>
      <trkpt lat="44.39737" lon="6.40757">
        <ele>2009</ele>
        <time>2021-09-01T13:16:39.000Z</time>
      </trkpt>
      <trkpt lat="44.39735" lon="6.40758">
        <ele>2009</ele>
        <time>2021-09-01T13:16:40.000Z</time>
      </trkpt>
      <trkpt lat="44.39732" lon="6.40758">
        <ele>2009</ele>
        <time>2021-09-01T13:16:41.000Z</time>
      </trkpt>
      <trkpt lat="44.3973" lon="6.4076">
        <ele>2009</ele>
        <time>2021-09-01T13:16:42.000Z</time>
      </trkpt>
      <trkpt lat="44.39727" lon="6.4076">
        <ele>2010</ele>
        <time>2021-09-01T13:16:43.000Z</time>
      </trkpt>
      <trkpt lat="44.39725" lon="6.4076">
        <ele>2010</ele>
        <time>2021-09-01T13:16:44.000Z</time>
      </trkpt>
      <trkpt lat="44.39722" lon="6.4076">
        <ele>2010</ele>
        <time>2021-09-01T13:16:45.000Z</time>
      </trkpt>
      <trkpt lat="44.3972" lon="6.4076">
        <ele>2010</ele>
        <time>2021-09-01T13:16:46.000Z</time>
      </trkpt>
      <trkpt lat="44.39717" lon="6.40761">
        <ele>2010</ele>
        <time>2021-09-01T13:16:47.000Z</time>
      </trkpt>
      <trkpt lat="44.39713" lon="6.40762">
        <ele>2010</ele>
        <time>2021-09-01T13:16:48.000Z</time>
      </trkpt>
      <trkpt lat="44.3971" lon="6.40765">
        <ele>2010</ele>
        <time>2021-09-01T13:16:49.000Z</time>
      </trkpt>
      <trkpt lat="44.39708" lon="6.40768">
        <ele>2010</ele>
        <time>2021-09-01T13:16:50.000Z</time>
      </trkpt>
      <trkpt lat="44.39705" lon="6.40771">
        <ele>2010</ele>
        <time>2021-09-01T13:16:51.000Z</time>
      </trkpt>
      <trkpt lat="44.39703" lon="6.40774">
        <ele>2011</ele>
        <time>2021-09-01T13:16:52.000Z</time>
      </trkpt>
      <trkpt lat="44.39701" lon="6.40778">
        <ele>2011</ele>
        <time>2021-09-01T13:16:53.000Z</time>
      </trkpt>
      <trkpt lat="44.39698" lon="6.4078">
        <ele>2011</ele>
        <time>2021-09-01T13:16:54.000Z</time>
      </trkpt>
      <trkpt lat="44.39697" lon="6.40781">
        <ele>2011</ele>
        <time>2021-09-01T13:16:55.000Z</time>
      </trkpt>
      <trkpt lat="44.39695" lon="6.40782">
        <ele>2011</ele>
        <time>2021-09-01T13:16:56.000Z</time>
      </trkpt>
      <trkpt lat="44.39693" lon="6.40783">
        <ele>2011</ele>
        <time>2021-09-01T13:16:57.000Z</time>
      </trkpt>
      <trkpt lat="44.3969" lon="6.40784">
        <ele>2011</ele>
        <time>2021-09-01T13:16:58.000Z</time>
      </trkpt>
      <trkpt lat="44.39688" lon="6.40785">
        <ele>2012</ele>
        <time>2021-09-01T13:16:59.000Z</time>
      </trkpt>
      <trkpt lat="44.39686" lon="6.40787">
        <ele>2012</ele>
        <time>2021-09-01T13:17:00.000Z</time>
      </trkpt>
      <trkpt lat="44.39684" lon="6.40788">
        <ele>2012</ele>
        <time>2021-09-01T13:17:01.000Z</time>
      </trkpt>
      <trkpt lat="44.39681" lon="6.40788">
        <ele>2012</ele>
        <time>2021-09-01T13:17:02.000Z</time>
      </trkpt>
      <trkpt lat="44.39679" lon="6.40788">
        <ele>2012</ele>
        <time>2021-09-01T13:17:03.000Z</time>
      </trkpt>
      <trkpt lat="44.39677" lon="6.40788">
        <ele>2012</ele>
        <time>2021-09-01T13:17:04.000Z</time>
      </trkpt>
      <trkpt lat="44.39675" lon="6.40788">
        <ele>2012</ele>
        <time>2021-09-01T13:17:05.000Z</time>
      </trkpt>
      <trkpt lat="44.39672" lon="6.40787">
        <ele>2011</ele>
        <time>2021-09-01T13:17:06.000Z</time>
      </trkpt>
      <trkpt lat="44.39669" lon="6.40788">
        <ele>2011</ele>
        <time>2021-09-01T13:17:07.000Z</time>
      </trkpt>
      <trkpt lat="44.39666" lon="6.40789">
        <ele>2012</ele>
        <time>2021-09-01T13:17:08.000Z</time>
      </trkpt>
      <trkpt lat="44.39663" lon="6.40789">
        <ele>2011</ele>
        <time>2021-09-01T13:17:09.000Z</time>
      </trkpt>
      <trkpt lat="44.3966" lon="6.4079">
        <ele>2011</ele>
        <time>2021-09-01T13:17:10.000Z</time>
      </trkpt>
      <trkpt lat="44.39658" lon="6.40791">
        <ele>2011</ele>
        <time>2021-09-01T13:17:11.000Z</time>
      </trkpt>
      <trkpt lat="44.39655" lon="6.40791">
        <ele>2012</ele>
        <time>2021-09-01T13:17:12.000Z</time>
      </trkpt>
      <trkpt lat="44.39653" lon="6.40792">
        <ele>2011</ele>
        <time>2021-09-01T13:17:13.000Z</time>
      </trkpt>
      <trkpt lat="44.3965" lon="6.40793">
        <ele>2012</ele>
        <time>2021-09-01T13:17:14.000Z</time>
      </trkpt>
      <trkpt lat="44.39648" lon="6.40794">
        <ele>2012</ele>
        <time>2021-09-01T13:17:15.000Z</time>
      </trkpt>
      <trkpt lat="44.39646" lon="6.40796">
        <ele>2012</ele>
        <time>2021-09-01T13:17:16.000Z</time>
      </trkpt>
      <trkpt lat="44.39644" lon="6.40797">
        <ele>2012</ele>
        <time>2021-09-01T13:17:17.000Z</time>
      </trkpt>
      <trkpt lat="44.39643" lon="6.40799">
        <ele>2012</ele>
        <time>2021-09-01T13:17:18.000Z</time>
      </trkpt>
      <trkpt lat="44.39641" lon="6.40801">
        <ele>2012</ele>
        <time>2021-09-01T13:17:19.000Z</time>
      </trkpt>
      <trkpt lat="44.39639" lon="6.40803">
        <ele>2012</ele>
        <time>2021-09-01T13:17:20.000Z</time>
      </trkpt>
      <trkpt lat="44.39637" lon="6.40805">
        <ele>2012</ele>
        <time>2021-09-01T13:17:21.000Z</time>
      </trkpt>
      <trkpt lat="44.39635" lon="6.40807">
        <ele>2013</ele>
        <time>2021-09-01T13:17:22.000Z</time>
      </trkpt>
      <trkpt lat="44.39634" lon="6.4081">
        <ele>2013</ele>
        <time>2021-09-01T13:17:23.000Z</time>
      </trkpt>
      <trkpt lat="44.39632" lon="6.40812">
        <ele>2013</ele>
        <time>2021-09-01T13:17:24.000Z</time>
      </trkpt>
      <trkpt lat="44.39631" lon="6.40815">
        <ele>2014</ele>
        <time>2021-09-01T13:17:25.000Z</time>
      </trkpt>
      <trkpt lat="44.39629" lon="6.40817">
        <ele>2014</ele>
        <time>2021-09-01T13:17:26.000Z</time>
      </trkpt>
      <trkpt lat="44.39627" lon="6.40819">
        <ele>2014</ele>
        <time>2021-09-01T13:17:27.000Z</time>
      </trkpt>
      <trkpt lat="44.39626" lon="6.40821">
        <ele>2014</ele>
        <time>2021-09-01T13:17:28.000Z</time>
      </trkpt>
      <trkpt lat="44.39624" lon="6.40822">
        <ele>2014</ele>
        <time>2021-09-01T13:17:29.000Z</time>
      </trkpt>
      <trkpt lat="44.39622" lon="6.40823">
        <ele>2014</ele>
        <time>2021-09-01T13:17:30.000Z</time>
      </trkpt>
      <trkpt lat="44.3962" lon="6.40825">
        <ele>2014</ele>
        <time>2021-09-01T13:17:31.000Z</time>
      </trkpt>
      <trkpt lat="44.39618" lon="6.40826">
        <ele>2014</ele>
        <time>2021-09-01T13:17:32.000Z</time>
      </trkpt>
      <trkpt lat="44.39617" lon="6.40827">
        <ele>2014</ele>
        <time>2021-09-01T13:17:33.000Z</time>
      </trkpt>
      <trkpt lat="44.39615" lon="6.40827">
        <ele>2014</ele>
        <time>2021-09-01T13:17:34.000Z</time>
      </trkpt>
      <trkpt lat="44.39612" lon="6.40828">
        <ele>2015</ele>
        <time>2021-09-01T13:17:35.000Z</time>
      </trkpt>
      <trkpt lat="44.3961" lon="6.40829">
        <ele>2016</ele>
        <time>2021-09-01T13:17:36.000Z</time>
      </trkpt>
      <trkpt lat="44.39608" lon="6.4083">
        <ele>2016</ele>
        <time>2021-09-01T13:17:37.000Z</time>
      </trkpt>
      <trkpt lat="44.39606" lon="6.40832">
        <ele>2016</ele>
        <time>2021-09-01T13:17:38.000Z</time>
      </trkpt>
      <trkpt lat="44.39604" lon="6.40833">
        <ele>2016</ele>
        <time>2021-09-01T13:17:39.000Z</time>
      </trkpt>
      <trkpt lat="44.39603" lon="6.40835">
        <ele>2017</ele>
        <time>2021-09-01T13:17:40.000Z</time>
      </trkpt>
      <trkpt lat="44.39601" lon="6.40837">
        <ele>2017</ele>
        <time>2021-09-01T13:17:41.000Z</time>
      </trkpt>
      <trkpt lat="44.39599" lon="6.40839">
        <ele>2017</ele>
        <time>2021-09-01T13:17:42.000Z</time>
      </trkpt>
      <trkpt lat="44.39598" lon="6.4084">
        <ele>2017</ele>
        <time>2021-09-01T13:17:43.000Z</time>
      </trkpt>
      <trkpt lat="44.39597" lon="6.40842">
        <ele>2018</ele>
        <time>2021-09-01T13:17:44.000Z</time>
      </trkpt>
      <trkpt lat="44.39596" lon="6.40844">
        <ele>2018</ele>
        <time>2021-09-01T13:17:45.000Z</time>
      </trkpt>
      <trkpt lat="44.39594" lon="6.40846">
        <ele>2018</ele>
        <time>2021-09-01T13:17:46.000Z</time>
      </trkpt>
      <trkpt lat="44.39592" lon="6.40848">
        <ele>2019</ele>
        <time>2021-09-01T13:17:47.000Z</time>
      </trkpt>
      <trkpt lat="44.39591" lon="6.4085">
        <ele>2019</ele>
        <time>2021-09-01T13:17:48.000Z</time>
      </trkpt>
      <trkpt lat="44.39589" lon="6.40853">
        <ele>2019</ele>
        <time>2021-09-01T13:17:49.000Z</time>
      </trkpt>
      <trkpt lat="44.39588" lon="6.40855">
        <ele>2019</ele>
        <time>2021-09-01T13:17:50.000Z</time>
      </trkpt>
      <trkpt lat="44.39587" lon="6.40858">
        <ele>2019</ele>
        <time>2021-09-01T13:17:51.000Z</time>
      </trkpt>
      <trkpt lat="44.39585" lon="6.40862">
        <ele>2020</ele>
        <time>2021-09-01T13:17:52.000Z</time>
      </trkpt>
      <trkpt lat="44.39584" lon="6.40865">
        <ele>2021</ele>
        <time>2021-09-01T13:17:53.000Z</time>
      </trkpt>
      <trkpt lat="44.39583" lon="6.40867">
        <ele>2020</ele>
        <time>2021-09-01T13:17:54.000Z</time>
      </trkpt>
      <trkpt lat="44.39582" lon="6.4087">
        <ele>2020</ele>
        <time>2021-09-01T13:17:55.000Z</time>
      </trkpt>
      <trkpt lat="44.3958" lon="6.40873">
        <ele>2020</ele>
        <time>2021-09-01T13:17:56.000Z</time>
      </trkpt>
      <trkpt lat="44.39579" lon="6.40876">
        <ele>2020</ele>
        <time>2021-09-01T13:17:57.000Z</time>
      </trkpt>
      <trkpt lat="44.39577" lon="6.40879">
        <ele>2021</ele>
        <time>2021-09-01T13:17:58.000Z</time>
      </trkpt>
      <trkpt lat="44.39576" lon="6.40882">
        <ele>2021</ele>
        <time>2021-09-01T13:17:59.000Z</time>
      </trkpt>
      <trkpt lat="44.39575" lon="6.40884">
        <ele>2021</ele>
        <time>2021-09-01T13:18:00.000Z</time>
      </trkpt>
      <trkpt lat="44.39574" lon="6.40887">
        <ele>2022</ele>
        <time>2021-09-01T13:18:01.000Z</time>
      </trkpt>
      <trkpt lat="44.39573" lon="6.40889">
        <ele>2021</ele>
        <time>2021-09-01T13:18:02.000Z</time>
      </trkpt>
      <trkpt lat="44.39572" lon="6.40893">
        <ele>2020</ele>
        <time>2021-09-01T13:18:03.000Z</time>
      </trkpt>
      <trkpt lat="44.39571" lon="6.40895">
        <ele>2019</ele>
        <time>2021-09-01T13:18:04.000Z</time>
      </trkpt>
      <trkpt lat="44.3957" lon="6.40898">
        <ele>2019</ele>
        <time>2021-09-01T13:18:05.000Z</time>
      </trkpt>
      <trkpt lat="44.39569" lon="6.40901">
        <ele>2020</ele>
        <time>2021-09-01T13:18:06.000Z</time>
      </trkpt>
      <trkpt lat="44.39569" lon="6.40903">
        <ele>2019</ele>
        <time>2021-09-01T13:18:07.000Z</time>
      </trkpt>
      <trkpt lat="44.39568" lon="6.40906">
        <ele>2019</ele>
        <time>2021-09-01T13:18:08.000Z</time>
      </trkpt>
      <trkpt lat="44.39567" lon="6.40909">
        <ele>2019</ele>
        <time>2021-09-01T13:18:09.000Z</time>
      </trkpt>
      <trkpt lat="44.39567" lon="6.40913">
        <ele>2019</ele>
        <time>2021-09-01T13:18:10.000Z</time>
      </trkpt>
      <trkpt lat="44.39567" lon="6.40916">
        <ele>2018</ele>
        <time>2021-09-01T13:18:11.000Z</time>
      </trkpt>
      <trkpt lat="44.3957" lon="6.40919">
        <ele>2020</ele>
        <time>2021-09-01T13:18:12.000Z</time>
      </trkpt>
      <trkpt lat="44.3957" lon="6.40922">
        <ele>2020</ele>
        <time>2021-09-01T13:18:13.000Z</time>
      </trkpt>
      <trkpt lat="44.39571" lon="6.40925">
        <ele>2019</ele>
        <time>2021-09-01T13:18:14.000Z</time>
      </trkpt>
      <trkpt lat="44.39572" lon="6.40928">
        <ele>2019</ele>
        <time>2021-09-01T13:18:15.000Z</time>
      </trkpt>
      <trkpt lat="44.39572" lon="6.40931">
        <ele>2019</ele>
        <time>2021-09-01T13:18:16.000Z</time>
      </trkpt>
      <trkpt lat="44.39573" lon="6.40934">
        <ele>2019</ele>
        <time>2021-09-01T13:18:17.000Z</time>
      </trkpt>
      <trkpt lat="44.39574" lon="6.40938">
        <ele>2018</ele>
        <time>2021-09-01T13:18:18.000Z</time>
      </trkpt>
      <trkpt lat="44.39574" lon="6.40942">
        <ele>2018</ele>
        <time>2021-09-01T13:18:19.000Z</time>
      </trkpt>
      <trkpt lat="44.39574" lon="6.40945">
        <ele>2017</ele>
        <time>2021-09-01T13:18:20.000Z</time>
      </trkpt>
      <trkpt lat="44.39574" lon="6.4095">
        <ele>2017</ele>
        <time>2021-09-01T13:18:21.000Z</time>
      </trkpt>
      <trkpt lat="44.39572" lon="6.40956">
        <ele>2018</ele>
        <time>2021-09-01T13:18:22.000Z</time>
      </trkpt>
      <trkpt lat="44.3957" lon="6.40961">
        <ele>2019</ele>
        <time>2021-09-01T13:18:23.000Z</time>
      </trkpt>
      <trkpt lat="44.39568" lon="6.40967">
        <ele>2020</ele>
        <time>2021-09-01T13:18:24.000Z</time>
      </trkpt>
      <trkpt lat="44.39567" lon="6.40972">
        <ele>2020</ele>
        <time>2021-09-01T13:18:25.000Z</time>
      </trkpt>
      <trkpt lat="44.39566" lon="6.40975">
        <ele>2020</ele>
        <time>2021-09-01T13:18:26.000Z</time>
      </trkpt>
      <trkpt lat="44.39565" lon="6.40979">
        <ele>2019</ele>
        <time>2021-09-01T13:18:27.000Z</time>
      </trkpt>
      <trkpt lat="44.39563" lon="6.40983">
        <ele>2018</ele>
        <time>2021-09-01T13:18:28.000Z</time>
      </trkpt>
      <trkpt lat="44.39561" lon="6.40986">
        <ele>2019</ele>
        <time>2021-09-01T13:18:29.000Z</time>
      </trkpt>
      <trkpt lat="44.39559" lon="6.4099">
        <ele>2019</ele>
        <time>2021-09-01T13:18:30.000Z</time>
      </trkpt>
      <trkpt lat="44.39557" lon="6.40993">
        <ele>2019</ele>
        <time>2021-09-01T13:18:31.000Z</time>
      </trkpt>
      <trkpt lat="44.39555" lon="6.40997">
        <ele>2016</ele>
        <time>2021-09-01T13:18:32.000Z</time>
      </trkpt>
      <trkpt lat="44.39554" lon="6.41">
        <ele>2015</ele>
        <time>2021-09-01T13:18:33.000Z</time>
      </trkpt>
      <trkpt lat="44.39552" lon="6.41005">
        <ele>2017</ele>
        <time>2021-09-01T13:18:34.000Z</time>
      </trkpt>
      <trkpt lat="44.3955" lon="6.41011">
        <ele>2018</ele>
        <time>2021-09-01T13:18:35.000Z</time>
      </trkpt>
      <trkpt lat="44.3955" lon="6.41014">
        <ele>2020</ele>
        <time>2021-09-01T13:18:36.000Z</time>
      </trkpt>
      <trkpt lat="44.39548" lon="6.41019">
        <ele>2021</ele>
        <time>2021-09-01T13:18:37.000Z</time>
      </trkpt>
      <trkpt lat="44.39547" lon="6.41022">
        <ele>2021</ele>
        <time>2021-09-01T13:18:38.000Z</time>
      </trkpt>
      <trkpt lat="44.39546" lon="6.41024">
        <ele>2022</ele>
        <time>2021-09-01T13:18:39.000Z</time>
      </trkpt>
      <trkpt lat="44.39545" lon="6.41028">
        <ele>2022</ele>
        <time>2021-09-01T13:18:40.000Z</time>
      </trkpt>
      <trkpt lat="44.39544" lon="6.41031">
        <ele>2022</ele>
        <time>2021-09-01T13:18:41.000Z</time>
      </trkpt>
      <trkpt lat="44.39542" lon="6.41035">
        <ele>2021</ele>
        <time>2021-09-01T13:18:42.000Z</time>
      </trkpt>
      <trkpt lat="44.39541" lon="6.41038">
        <ele>2021</ele>
        <time>2021-09-01T13:18:43.000Z</time>
      </trkpt>
      <trkpt lat="44.39539" lon="6.41041">
        <ele>2019</ele>
        <time>2021-09-01T13:18:44.000Z</time>
      </trkpt>
      <trkpt lat="44.39537" lon="6.41044">
        <ele>2018</ele>
        <time>2021-09-01T13:18:45.000Z</time>
      </trkpt>
      <trkpt lat="44.39535" lon="6.41047">
        <ele>2017</ele>
        <time>2021-09-01T13:18:46.000Z</time>
      </trkpt>
      <trkpt lat="44.39534" lon="6.4105">
        <ele>2015</ele>
        <time>2021-09-01T13:18:47.000Z</time>
      </trkpt>
      <trkpt lat="44.39533" lon="6.41053">
        <ele>2014</ele>
        <time>2021-09-01T13:18:48.000Z</time>
      </trkpt>
      <trkpt lat="44.39531" lon="6.41056">
        <ele>2013</ele>
        <time>2021-09-01T13:18:49.000Z</time>
      </trkpt>
      <trkpt lat="44.3953" lon="6.41058">
        <ele>2011</ele>
        <time>2021-09-01T13:18:50.000Z</time>
      </trkpt>
      <trkpt lat="44.39528" lon="6.41062">
        <ele>2010</ele>
        <time>2021-09-01T13:18:51.000Z</time>
      </trkpt>
      <trkpt lat="44.39527" lon="6.41066">
        <ele>2009</ele>
        <time>2021-09-01T13:18:52.000Z</time>
      </trkpt>
      <trkpt lat="44.39525" lon="6.4107">
        <ele>2006</ele>
        <time>2021-09-01T13:18:53.000Z</time>
      </trkpt>
      <trkpt lat="44.39523" lon="6.41075">
        <ele>2004</ele>
        <time>2021-09-01T13:18:54.000Z</time>
      </trkpt>
      <trkpt lat="44.39522" lon="6.41079">
        <ele>2004</ele>
        <time>2021-09-01T13:18:55.000Z</time>
      </trkpt>
      <trkpt lat="44.3952" lon="6.41083">
        <ele>2002</ele>
        <time>2021-09-01T13:18:56.000Z</time>
      </trkpt>
      <trkpt lat="44.39519" lon="6.41087">
        <ele>2001</ele>
        <time>2021-09-01T13:18:57.000Z</time>
      </trkpt>
      <trkpt lat="44.39518" lon="6.41091">
        <ele>2000</ele>
        <time>2021-09-01T13:18:58.000Z</time>
      </trkpt>
      <trkpt lat="44.39516" lon="6.41095">
        <ele>1998</ele>
        <time>2021-09-01T13:18:59.000Z</time>
      </trkpt>
      <trkpt lat="44.39514" lon="6.411">
        <ele>1998</ele>
        <time>2021-09-01T13:19:00.000Z</time>
      </trkpt>
      <trkpt lat="44.39513" lon="6.41106">
        <ele>1997</ele>
        <time>2021-09-01T13:19:01.000Z</time>
      </trkpt>
      <trkpt lat="44.39511" lon="6.41111">
        <ele>1997</ele>
        <time>2021-09-01T13:19:02.000Z</time>
      </trkpt>
      <trkpt lat="44.39509" lon="6.41115">
        <ele>1996</ele>
        <time>2021-09-01T13:19:03.000Z</time>
      </trkpt>
      <trkpt lat="44.39508" lon="6.4112">
        <ele>1995</ele>
        <time>2021-09-01T13:19:04.000Z</time>
      </trkpt>
      <trkpt lat="44.39506" lon="6.41126">
        <ele>1994</ele>
        <time>2021-09-01T13:19:05.000Z</time>
      </trkpt>
      <trkpt lat="44.39505" lon="6.41132">
        <ele>1993</ele>
        <time>2021-09-01T13:19:06.000Z</time>
      </trkpt>
      <trkpt lat="44.39504" lon="6.41139">
        <ele>1994</ele>
        <time>2021-09-01T13:19:07.000Z</time>
      </trkpt>
      <trkpt lat="44.39502" lon="6.41145">
        <ele>1994</ele>
        <time>2021-09-01T13:19:08.000Z</time>
      </trkpt>
      <trkpt lat="44.395" lon="6.41151">
        <ele>1993</ele>
        <time>2021-09-01T13:19:09.000Z</time>
      </trkpt>
      <trkpt lat="44.39499" lon="6.41156">
        <ele>1992</ele>
        <time>2021-09-01T13:19:10.000Z</time>
      </trkpt>
      <trkpt lat="44.39496" lon="6.41163">
        <ele>1993</ele>
        <time>2021-09-01T13:19:11.000Z</time>
      </trkpt>
      <trkpt lat="44.39494" lon="6.41172">
        <ele>1994</ele>
        <time>2021-09-01T13:19:12.000Z</time>
      </trkpt>
      <trkpt lat="44.39493" lon="6.41177">
        <ele>1993</ele>
        <time>2021-09-01T13:19:13.000Z</time>
      </trkpt>
      <trkpt lat="44.39492" lon="6.41183">
        <ele>1993</ele>
        <time>2021-09-01T13:19:14.000Z</time>
      </trkpt>
      <trkpt lat="44.39489" lon="6.41191">
        <ele>1993</ele>
        <time>2021-09-01T13:19:15.000Z</time>
      </trkpt>
      <trkpt lat="44.39487" lon="6.41198">
        <ele>1993</ele>
        <time>2021-09-01T13:19:16.000Z</time>
      </trkpt>
      <trkpt lat="44.39485" lon="6.41204">
        <ele>1991</ele>
        <time>2021-09-01T13:19:17.000Z</time>
      </trkpt>
      <trkpt lat="44.39484" lon="6.4121">
        <ele>1991</ele>
        <time>2021-09-01T13:19:18.000Z</time>
      </trkpt>
      <trkpt lat="44.39483" lon="6.41217">
        <ele>1985</ele>
        <time>2021-09-01T13:19:19.000Z</time>
      </trkpt>
      <trkpt lat="44.39481" lon="6.41224">
        <ele>1981</ele>
        <time>2021-09-01T13:19:20.000Z</time>
      </trkpt>
      <trkpt lat="44.39478" lon="6.41235">
        <ele>1981</ele>
        <time>2021-09-01T13:19:21.000Z</time>
      </trkpt>
      <trkpt lat="44.39478" lon="6.41244">
        <ele>1980</ele>
        <time>2021-09-01T13:19:22.000Z</time>
      </trkpt>
      <trkpt lat="44.39478" lon="6.41253">
        <ele>1977</ele>
        <time>2021-09-01T13:19:23.000Z</time>
      </trkpt>
      <trkpt lat="44.39477" lon="6.41261">
        <ele>1976</ele>
        <time>2021-09-01T13:19:24.000Z</time>
      </trkpt>
      <trkpt lat="44.39477" lon="6.41268">
        <ele>1975</ele>
        <time>2021-09-01T13:19:25.000Z</time>
      </trkpt>
      <trkpt lat="44.39477" lon="6.41275">
        <ele>1974</ele>
        <time>2021-09-01T13:19:26.000Z</time>
      </trkpt>
      <trkpt lat="44.39478" lon="6.41283">
        <ele>1972</ele>
        <time>2021-09-01T13:19:27.000Z</time>
      </trkpt>
      <trkpt lat="44.39477" lon="6.4129">
        <ele>1973</ele>
        <time>2021-09-01T13:19:28.000Z</time>
      </trkpt>
      <trkpt lat="44.39477" lon="6.41297">
        <ele>1974</ele>
        <time>2021-09-01T13:19:29.000Z</time>
      </trkpt>
      <trkpt lat="44.39477" lon="6.41304">
        <ele>1974</ele>
        <time>2021-09-01T13:19:30.000Z</time>
      </trkpt>
      <trkpt lat="44.39477" lon="6.4131">
        <ele>1972</ele>
        <time>2021-09-01T13:19:31.000Z</time>
      </trkpt>
      <trkpt lat="44.39477" lon="6.41319">
        <ele>1970</ele>
        <time>2021-09-01T13:19:32.000Z</time>
      </trkpt>
      <trkpt lat="44.39477" lon="6.41327">
        <ele>1969</ele>
        <time>2021-09-01T13:19:33.000Z</time>
      </trkpt>
      <trkpt lat="44.39476" lon="6.41334">
        <ele>1968</ele>
        <time>2021-09-01T13:19:34.000Z</time>
      </trkpt>
      <trkpt lat="44.39474" lon="6.41342">
        <ele>1968</ele>
        <time>2021-09-01T13:19:35.000Z</time>
      </trkpt>
      <trkpt lat="44.39471" lon="6.41348">
        <ele>1968</ele>
        <time>2021-09-01T13:19:36.000Z</time>
      </trkpt>
      <trkpt lat="44.39466" lon="6.41354">
        <ele>1969</ele>
        <time>2021-09-01T13:19:37.000Z</time>
      </trkpt>
      <trkpt lat="44.39461" lon="6.41362">
        <ele>1969</ele>
        <time>2021-09-01T13:19:38.000Z</time>
      </trkpt>
      <trkpt lat="44.39456" lon="6.41367">
        <ele>1969</ele>
        <time>2021-09-01T13:19:39.000Z</time>
      </trkpt>
      <trkpt lat="44.39452" lon="6.41374">
        <ele>1968</ele>
        <time>2021-09-01T13:19:40.000Z</time>
      </trkpt>
      <trkpt lat="44.39447" lon="6.4138">
        <ele>1967</ele>
        <time>2021-09-01T13:19:41.000Z</time>
      </trkpt>
      <trkpt lat="44.39443" lon="6.41388">
        <ele>1967</ele>
        <time>2021-09-01T13:19:42.000Z</time>
      </trkpt>
      <trkpt lat="44.39439" lon="6.41395">
        <ele>1966</ele>
        <time>2021-09-01T13:19:43.000Z</time>
      </trkpt>
      <trkpt lat="44.39435" lon="6.41402">
        <ele>1965</ele>
        <time>2021-09-01T13:19:44.000Z</time>
      </trkpt>
      <trkpt lat="44.39431" lon="6.41408">
        <ele>1964</ele>
        <time>2021-09-01T13:19:45.000Z</time>
      </trkpt>
      <trkpt lat="44.39427" lon="6.41412">
        <ele>1963</ele>
        <time>2021-09-01T13:19:46.000Z</time>
      </trkpt>
      <trkpt lat="44.39424" lon="6.41415">
        <ele>1962</ele>
        <time>2021-09-01T13:19:47.000Z</time>
      </trkpt>
      <trkpt lat="44.3942" lon="6.41419">
        <ele>1961</ele>
        <time>2021-09-01T13:19:48.000Z</time>
      </trkpt>
      <trkpt lat="44.39417" lon="6.41422">
        <ele>1960</ele>
        <time>2021-09-01T13:19:49.000Z</time>
      </trkpt>
      <trkpt lat="44.39415" lon="6.41425">
        <ele>1959</ele>
        <time>2021-09-01T13:19:50.000Z</time>
      </trkpt>
      <trkpt lat="44.39412" lon="6.41426">
        <ele>1958</ele>
        <time>2021-09-01T13:19:51.000Z</time>
      </trkpt>
      <trkpt lat="44.3941" lon="6.41429">
        <ele>1959</ele>
        <time>2021-09-01T13:19:52.000Z</time>
      </trkpt>
      <trkpt lat="44.39408" lon="6.41432">
        <ele>1958</ele>
        <time>2021-09-01T13:19:53.000Z</time>
      </trkpt>
      <trkpt lat="44.39405" lon="6.41436">
        <ele>1958</ele>
        <time>2021-09-01T13:19:54.000Z</time>
      </trkpt>
      <trkpt lat="44.39403" lon="6.41439">
        <ele>1957</ele>
        <time>2021-09-01T13:19:55.000Z</time>
      </trkpt>
      <trkpt lat="44.394" lon="6.41441">
        <ele>1957</ele>
        <time>2021-09-01T13:19:56.000Z</time>
      </trkpt>
      <trkpt lat="44.39398" lon="6.41442">
        <ele>1957</ele>
        <time>2021-09-01T13:19:57.000Z</time>
      </trkpt>
      <trkpt lat="44.39395" lon="6.41443">
        <ele>1956</ele>
        <time>2021-09-01T13:19:58.000Z</time>
      </trkpt>
      <trkpt lat="44.39392" lon="6.41446">
        <ele>1957</ele>
        <time>2021-09-01T13:19:59.000Z</time>
      </trkpt>
      <trkpt lat="44.39389" lon="6.41449">
        <ele>1957</ele>
        <time>2021-09-01T13:20:00.000Z</time>
      </trkpt>
      <trkpt lat="44.39386" lon="6.41453">
        <ele>1957</ele>
        <time>2021-09-01T13:20:01.000Z</time>
      </trkpt>
      <trkpt lat="44.39384" lon="6.41456">
        <ele>1957</ele>
        <time>2021-09-01T13:20:02.000Z</time>
      </trkpt>
      <trkpt lat="44.39381" lon="6.4146">
        <ele>1957</ele>
        <time>2021-09-01T13:20:03.000Z</time>
      </trkpt>
      <trkpt lat="44.39378" lon="6.41465">
        <ele>1956</ele>
        <time>2021-09-01T13:20:04.000Z</time>
      </trkpt>
      <trkpt lat="44.39376" lon="6.41469">
        <ele>1956</ele>
        <time>2021-09-01T13:20:05.000Z</time>
      </trkpt>
      <trkpt lat="44.39373" lon="6.41474">
        <ele>1957</ele>
        <time>2021-09-01T13:20:06.000Z</time>
      </trkpt>
      <trkpt lat="44.39371" lon="6.41478">
        <ele>1958</ele>
        <time>2021-09-01T13:20:07.000Z</time>
      </trkpt>
      <trkpt lat="44.3937" lon="6.41482">
        <ele>1958</ele>
        <time>2021-09-01T13:20:08.000Z</time>
      </trkpt>
      <trkpt lat="44.39368" lon="6.41486">
        <ele>1958</ele>
        <time>2021-09-01T13:20:09.000Z</time>
      </trkpt>
      <trkpt lat="44.39366" lon="6.41491">
        <ele>1958</ele>
        <time>2021-09-01T13:20:10.000Z</time>
      </trkpt>
      <trkpt lat="44.39364" lon="6.41495">
        <ele>1959</ele>
        <time>2021-09-01T13:20:11.000Z</time>
      </trkpt>
      <trkpt lat="44.39362" lon="6.41499">
        <ele>1959</ele>
        <time>2021-09-01T13:20:12.000Z</time>
      </trkpt>
      <trkpt lat="44.39359" lon="6.41504">
        <ele>1959</ele>
        <time>2021-09-01T13:20:13.000Z</time>
      </trkpt>
      <trkpt lat="44.39358" lon="6.41509">
        <ele>1959</ele>
        <time>2021-09-01T13:20:14.000Z</time>
      </trkpt>
      <trkpt lat="44.39357" lon="6.41513">
        <ele>1959</ele>
        <time>2021-09-01T13:20:15.000Z</time>
      </trkpt>
      <trkpt lat="44.39357" lon="6.41517">
        <ele>1958</ele>
        <time>2021-09-01T13:20:16.000Z</time>
      </trkpt>
      <trkpt lat="44.39356" lon="6.41524">
        <ele>1958</ele>
        <time>2021-09-01T13:20:17.000Z</time>
      </trkpt>
      <trkpt lat="44.39355" lon="6.41529">
        <ele>1958</ele>
        <time>2021-09-01T13:20:18.000Z</time>
      </trkpt>
      <trkpt lat="44.39355" lon="6.41532">
        <ele>1958</ele>
        <time>2021-09-01T13:20:19.000Z</time>
      </trkpt>
      <trkpt lat="44.39355" lon="6.41536">
        <ele>1958</ele>
        <time>2021-09-01T13:20:20.000Z</time>
      </trkpt>
      <trkpt lat="44.39355" lon="6.41542">
        <ele>1957</ele>
        <time>2021-09-01T13:20:21.000Z</time>
      </trkpt>
      <trkpt lat="44.39355" lon="6.41548">
        <ele>1956</ele>
        <time>2021-09-01T13:20:22.000Z</time>
      </trkpt>
      <trkpt lat="44.39354" lon="6.41555">
        <ele>1956</ele>
        <time>2021-09-01T13:20:23.000Z</time>
      </trkpt>
      <trkpt lat="44.39353" lon="6.41562">
        <ele>1954</ele>
        <time>2021-09-01T13:20:24.000Z</time>
      </trkpt>
      <trkpt lat="44.3935" lon="6.41569">
        <ele>1955</ele>
        <time>2021-09-01T13:20:25.000Z</time>
      </trkpt>
      <trkpt lat="44.39348" lon="6.41577">
        <ele>1954</ele>
        <time>2021-09-01T13:20:26.000Z</time>
      </trkpt>
      <trkpt lat="44.39345" lon="6.41584">
        <ele>1954</ele>
        <time>2021-09-01T13:20:27.000Z</time>
      </trkpt>
      <trkpt lat="44.39343" lon="6.41592">
        <ele>1954</ele>
        <time>2021-09-01T13:20:28.000Z</time>
      </trkpt>
      <trkpt lat="44.39341" lon="6.416">
        <ele>1954</ele>
        <time>2021-09-01T13:20:29.000Z</time>
      </trkpt>
      <trkpt lat="44.39341" lon="6.41607">
        <ele>1953</ele>
        <time>2021-09-01T13:20:30.000Z</time>
      </trkpt>
      <trkpt lat="44.39342" lon="6.41615">
        <ele>1952</ele>
        <time>2021-09-01T13:20:31.000Z</time>
      </trkpt>
      <trkpt lat="44.39344" lon="6.41622">
        <ele>1950</ele>
        <time>2021-09-01T13:20:32.000Z</time>
      </trkpt>
      <trkpt lat="44.39345" lon="6.41628">
        <ele>1950</ele>
        <time>2021-09-01T13:20:33.000Z</time>
      </trkpt>
      <trkpt lat="44.39345" lon="6.41635">
        <ele>1950</ele>
        <time>2021-09-01T13:20:34.000Z</time>
      </trkpt>
      <trkpt lat="44.39345" lon="6.41643">
        <ele>1950</ele>
        <time>2021-09-01T13:20:35.000Z</time>
      </trkpt>
      <trkpt lat="44.39343" lon="6.41651">
        <ele>1950</ele>
        <time>2021-09-01T13:20:36.000Z</time>
      </trkpt>
      <trkpt lat="44.39342" lon="6.41658">
        <ele>1950</ele>
        <time>2021-09-01T13:20:37.000Z</time>
      </trkpt>
      <trkpt lat="44.39341" lon="6.41665">
        <ele>1951</ele>
        <time>2021-09-01T13:20:38.000Z</time>
      </trkpt>
      <trkpt lat="44.39339" lon="6.4167">
        <ele>1950</ele>
        <time>2021-09-01T13:20:39.000Z</time>
      </trkpt>
      <trkpt lat="44.39337" lon="6.41675">
        <ele>1949</ele>
        <time>2021-09-01T13:20:40.000Z</time>
      </trkpt>
      <trkpt lat="44.39334" lon="6.41679">
        <ele>1948</ele>
        <time>2021-09-01T13:20:41.000Z</time>
      </trkpt>
      <trkpt lat="44.39331" lon="6.41683">
        <ele>1948</ele>
        <time>2021-09-01T13:20:42.000Z</time>
      </trkpt>
      <trkpt lat="44.39329" lon="6.4169">
        <ele>1948</ele>
        <time>2021-09-01T13:20:43.000Z</time>
      </trkpt>
      <trkpt lat="44.39326" lon="6.41696">
        <ele>1948</ele>
        <time>2021-09-01T13:20:44.000Z</time>
      </trkpt>
      <trkpt lat="44.39324" lon="6.41701">
        <ele>1947</ele>
        <time>2021-09-01T13:20:45.000Z</time>
      </trkpt>
      <trkpt lat="44.39321" lon="6.41704">
        <ele>1946</ele>
        <time>2021-09-01T13:20:46.000Z</time>
      </trkpt>
      <trkpt lat="44.39319" lon="6.41708">
        <ele>1947</ele>
        <time>2021-09-01T13:20:47.000Z</time>
      </trkpt>
      <trkpt lat="44.39318" lon="6.41711">
        <ele>1946</ele>
        <time>2021-09-01T13:20:48.000Z</time>
      </trkpt>
      <trkpt lat="44.39316" lon="6.41713">
        <ele>1946</ele>
        <time>2021-09-01T13:20:49.000Z</time>
      </trkpt>
      <trkpt lat="44.39314" lon="6.41716">
        <ele>1945</ele>
        <time>2021-09-01T13:20:50.000Z</time>
      </trkpt>
      <trkpt lat="44.39312" lon="6.41718">
        <ele>1945</ele>
        <time>2021-09-01T13:20:51.000Z</time>
      </trkpt>
      <trkpt lat="44.3931" lon="6.41721">
        <ele>1945</ele>
        <time>2021-09-01T13:20:52.000Z</time>
      </trkpt>
      <trkpt lat="44.39307" lon="6.41725">
        <ele>1944</ele>
        <time>2021-09-01T13:20:53.000Z</time>
      </trkpt>
      <trkpt lat="44.39304" lon="6.41728">
        <ele>1944</ele>
        <time>2021-09-01T13:20:54.000Z</time>
      </trkpt>
      <trkpt lat="44.39301" lon="6.41733">
        <ele>1945</ele>
        <time>2021-09-01T13:20:55.000Z</time>
      </trkpt>
      <trkpt lat="44.39299" lon="6.41739">
        <ele>1945</ele>
        <time>2021-09-01T13:20:56.000Z</time>
      </trkpt>
      <trkpt lat="44.39298" lon="6.41745">
        <ele>1944</ele>
        <time>2021-09-01T13:20:57.000Z</time>
      </trkpt>
      <trkpt lat="44.39297" lon="6.41749">
        <ele>1944</ele>
        <time>2021-09-01T13:20:58.000Z</time>
      </trkpt>
      <trkpt lat="44.39297" lon="6.41755">
        <ele>1943</ele>
        <time>2021-09-01T13:20:59.000Z</time>
      </trkpt>
      <trkpt lat="44.39296" lon="6.41759">
        <ele>1943</ele>
        <time>2021-09-01T13:21:00.000Z</time>
      </trkpt>
      <trkpt lat="44.39295" lon="6.41765">
        <ele>1943</ele>
        <time>2021-09-01T13:21:01.000Z</time>
      </trkpt>
      <trkpt lat="44.39293" lon="6.4177">
        <ele>1943</ele>
        <time>2021-09-01T13:21:02.000Z</time>
      </trkpt>
      <trkpt lat="44.39291" lon="6.41774">
        <ele>1943</ele>
        <time>2021-09-01T13:21:03.000Z</time>
      </trkpt>
      <trkpt lat="44.39289" lon="6.4178">
        <ele>1943</ele>
        <time>2021-09-01T13:21:04.000Z</time>
      </trkpt>
      <trkpt lat="44.39287" lon="6.41786">
        <ele>1943</ele>
        <time>2021-09-01T13:21:05.000Z</time>
      </trkpt>
      <trkpt lat="44.39285" lon="6.41791">
        <ele>1943</ele>
        <time>2021-09-01T13:21:06.000Z</time>
      </trkpt>
      <trkpt lat="44.39283" lon="6.41796">
        <ele>1943</ele>
        <time>2021-09-01T13:21:07.000Z</time>
      </trkpt>
      <trkpt lat="44.39282" lon="6.41801">
        <ele>1942</ele>
        <time>2021-09-01T13:21:08.000Z</time>
      </trkpt>
      <trkpt lat="44.39281" lon="6.41802">
        <ele>1942</ele>
        <time>2021-09-01T13:21:09.000Z</time>
      </trkpt>
      <trkpt lat="44.39281" lon="6.41805">
        <ele>1941</ele>
        <time>2021-09-01T13:21:10.000Z</time>
      </trkpt>
      <trkpt lat="44.39281" lon="6.41809">
        <ele>1941</ele>
        <time>2021-09-01T13:21:11.000Z</time>
      </trkpt>
      <trkpt lat="44.39282" lon="6.41814">
        <ele>1940</ele>
        <time>2021-09-01T13:21:12.000Z</time>
      </trkpt>
      <trkpt lat="44.39284" lon="6.41818">
        <ele>1938</ele>
        <time>2021-09-01T13:21:13.000Z</time>
      </trkpt>
      <trkpt lat="44.39286" lon="6.41822">
        <ele>1938</ele>
        <time>2021-09-01T13:21:14.000Z</time>
      </trkpt>
      <trkpt lat="44.39287" lon="6.41827">
        <ele>1937</ele>
        <time>2021-09-01T13:21:15.000Z</time>
      </trkpt>
      <trkpt lat="44.39287" lon="6.41833">
        <ele>1936</ele>
        <time>2021-09-01T13:21:16.000Z</time>
      </trkpt>
      <trkpt lat="44.39287" lon="6.41838">
        <ele>1935</ele>
        <time>2021-09-01T13:21:17.000Z</time>
      </trkpt>
      <trkpt lat="44.39287" lon="6.41844">
        <ele>1935</ele>
        <time>2021-09-01T13:21:18.000Z</time>
      </trkpt>
      <trkpt lat="44.39286" lon="6.41852">
        <ele>1935</ele>
        <time>2021-09-01T13:21:19.000Z</time>
      </trkpt>
      <trkpt lat="44.39285" lon="6.41857">
        <ele>1934</ele>
        <time>2021-09-01T13:21:20.000Z</time>
      </trkpt>
      <trkpt lat="44.39285" lon="6.41862">
        <ele>1934</ele>
        <time>2021-09-01T13:21:21.000Z</time>
      </trkpt>
      <trkpt lat="44.39284" lon="6.41866">
        <ele>1934</ele>
        <time>2021-09-01T13:21:22.000Z</time>
      </trkpt>
      <trkpt lat="44.39283" lon="6.4187">
        <ele>1934</ele>
        <time>2021-09-01T13:21:23.000Z</time>
      </trkpt>
      <trkpt lat="44.39283" lon="6.41874">
        <ele>1933</ele>
        <time>2021-09-01T13:21:24.000Z</time>
      </trkpt>
      <trkpt lat="44.39282" lon="6.41878">
        <ele>1932</ele>
        <time>2021-09-01T13:21:25.000Z</time>
      </trkpt>
      <trkpt lat="44.39282" lon="6.41883">
        <ele>1931</ele>
        <time>2021-09-01T13:21:26.000Z</time>
      </trkpt>
      <trkpt lat="44.39282" lon="6.41887">
        <ele>1931</ele>
        <time>2021-09-01T13:21:27.000Z</time>
      </trkpt>
      <trkpt lat="44.39282" lon="6.41892">
        <ele>1930</ele>
        <time>2021-09-01T13:21:28.000Z</time>
      </trkpt>
      <trkpt lat="44.39281" lon="6.41897">
        <ele>1930</ele>
        <time>2021-09-01T13:21:29.000Z</time>
      </trkpt>
      <trkpt lat="44.3928" lon="6.41902">
        <ele>1930</ele>
        <time>2021-09-01T13:21:30.000Z</time>
      </trkpt>
      <trkpt lat="44.39278" lon="6.41907">
        <ele>1928</ele>
        <time>2021-09-01T13:21:31.000Z</time>
      </trkpt>
      <trkpt lat="44.39276" lon="6.41913">
        <ele>1927</ele>
        <time>2021-09-01T13:21:32.000Z</time>
      </trkpt>
      <trkpt lat="44.39274" lon="6.41919">
        <ele>1926</ele>
        <time>2021-09-01T13:21:33.000Z</time>
      </trkpt>
      <trkpt lat="44.39271" lon="6.41924">
        <ele>1926</ele>
        <time>2021-09-01T13:21:34.000Z</time>
      </trkpt>
      <trkpt lat="44.39266" lon="6.41931">
        <ele>1927</ele>
        <time>2021-09-01T13:21:35.000Z</time>
      </trkpt>
      <trkpt lat="44.39262" lon="6.41936">
        <ele>1927</ele>
        <time>2021-09-01T13:21:36.000Z</time>
      </trkpt>
      <trkpt lat="44.39259" lon="6.41942">
        <ele>1926</ele>
        <time>2021-09-01T13:21:37.000Z</time>
      </trkpt>
      <trkpt lat="44.39256" lon="6.41948">
        <ele>1926</ele>
        <time>2021-09-01T13:21:38.000Z</time>
      </trkpt>
      <trkpt lat="44.39254" lon="6.41954">
        <ele>1925</ele>
        <time>2021-09-01T13:21:39.000Z</time>
      </trkpt>
      <trkpt lat="44.39251" lon="6.41959">
        <ele>1923</ele>
        <time>2021-09-01T13:21:40.000Z</time>
      </trkpt>
      <trkpt lat="44.39248" lon="6.41963">
        <ele>1923</ele>
        <time>2021-09-01T13:21:41.000Z</time>
      </trkpt>
      <trkpt lat="44.39244" lon="6.41966">
        <ele>1922</ele>
        <time>2021-09-01T13:21:42.000Z</time>
      </trkpt>
      <trkpt lat="44.39241" lon="6.4197">
        <ele>1922</ele>
        <time>2021-09-01T13:21:43.000Z</time>
      </trkpt>
      <trkpt lat="44.39238" lon="6.41974">
        <ele>1922</ele>
        <time>2021-09-01T13:21:44.000Z</time>
      </trkpt>
      <trkpt lat="44.39234" lon="6.4198">
        <ele>1923</ele>
        <time>2021-09-01T13:21:45.000Z</time>
      </trkpt>
      <trkpt lat="44.39231" lon="6.41985">
        <ele>1923</ele>
        <time>2021-09-01T13:21:46.000Z</time>
      </trkpt>
      <trkpt lat="44.39229" lon="6.41989">
        <ele>1923</ele>
        <time>2021-09-01T13:21:47.000Z</time>
      </trkpt>
      <trkpt lat="44.39226" lon="6.41993">
        <ele>1923</ele>
        <time>2021-09-01T13:21:48.000Z</time>
      </trkpt>
      <trkpt lat="44.39224" lon="6.41996">
        <ele>1922</ele>
        <time>2021-09-01T13:21:49.000Z</time>
      </trkpt>
      <trkpt lat="44.39222" lon="6.41999">
        <ele>1922</ele>
        <time>2021-09-01T13:21:50.000Z</time>
      </trkpt>
      <trkpt lat="44.39219" lon="6.42005">
        <ele>1922</ele>
        <time>2021-09-01T13:21:51.000Z</time>
      </trkpt>
      <trkpt lat="44.39217" lon="6.42009">
        <ele>1921</ele>
        <time>2021-09-01T13:21:52.000Z</time>
      </trkpt>
      <trkpt lat="44.39214" lon="6.42013">
        <ele>1920</ele>
        <time>2021-09-01T13:21:53.000Z</time>
      </trkpt>
      <trkpt lat="44.39211" lon="6.42016">
        <ele>1920</ele>
        <time>2021-09-01T13:21:54.000Z</time>
      </trkpt>
      <trkpt lat="44.39208" lon="6.4202">
        <ele>1920</ele>
        <time>2021-09-01T13:21:55.000Z</time>
      </trkpt>
      <trkpt lat="44.39205" lon="6.42022">
        <ele>1920</ele>
        <time>2021-09-01T13:21:56.000Z</time>
      </trkpt>
      <trkpt lat="44.39202" lon="6.42025">
        <ele>1919</ele>
        <time>2021-09-01T13:21:57.000Z</time>
      </trkpt>
      <trkpt lat="44.39201" lon="6.42027">
        <ele>1918</ele>
        <time>2021-09-01T13:21:58.000Z</time>
      </trkpt>
      <trkpt lat="44.39199" lon="6.4203">
        <ele>1918</ele>
        <time>2021-09-01T13:21:59.000Z</time>
      </trkpt>
      <trkpt lat="44.39198" lon="6.42031">
        <ele>1917</ele>
        <time>2021-09-01T13:22:00.000Z</time>
      </trkpt>
      <trkpt lat="44.39196" lon="6.42033">
        <ele>1916</ele>
        <time>2021-09-01T13:22:01.000Z</time>
      </trkpt>
      <trkpt lat="44.39194" lon="6.42034">
        <ele>1915</ele>
        <time>2021-09-01T13:22:02.000Z</time>
      </trkpt>
      <trkpt lat="44.39193" lon="6.42035">
        <ele>1915</ele>
        <time>2021-09-01T13:22:03.000Z</time>
      </trkpt>
      <trkpt lat="44.39191" lon="6.42037">
        <ele>1914</ele>
        <time>2021-09-01T13:22:04.000Z</time>
      </trkpt>
      <trkpt lat="44.3919" lon="6.42038">
        <ele>1914</ele>
        <time>2021-09-01T13:22:05.000Z</time>
      </trkpt>
      <trkpt lat="44.39189" lon="6.4204">
        <ele>1913</ele>
        <time>2021-09-01T13:22:06.000Z</time>
      </trkpt>
      <trkpt lat="44.39188" lon="6.42042">
        <ele>1913</ele>
        <time>2021-09-01T13:22:07.000Z</time>
      </trkpt>
      <trkpt lat="44.39187" lon="6.42044">
        <ele>1912</ele>
        <time>2021-09-01T13:22:08.000Z</time>
      </trkpt>
      <trkpt lat="44.39186" lon="6.42047">
        <ele>1911</ele>
        <time>2021-09-01T13:22:09.000Z</time>
      </trkpt>
      <trkpt lat="44.39187" lon="6.4205">
        <ele>1910</ele>
        <time>2021-09-01T13:22:10.000Z</time>
      </trkpt>
      <trkpt lat="44.39185" lon="6.42055">
        <ele>1910</ele>
        <time>2021-09-01T13:22:11.000Z</time>
      </trkpt>
      <trkpt lat="44.39184" lon="6.42059">
        <ele>1909</ele>
        <time>2021-09-01T13:22:12.000Z</time>
      </trkpt>
      <trkpt lat="44.39182" lon="6.42062">
        <ele>1908</ele>
        <time>2021-09-01T13:22:13.000Z</time>
      </trkpt>
      <trkpt lat="44.39179" lon="6.42067">
        <ele>1907</ele>
        <time>2021-09-01T13:22:14.000Z</time>
      </trkpt>
      <trkpt lat="44.39177" lon="6.42071">
        <ele>1907</ele>
        <time>2021-09-01T13:22:15.000Z</time>
      </trkpt>
      <trkpt lat="44.39175" lon="6.42074">
        <ele>1907</ele>
        <time>2021-09-01T13:22:16.000Z</time>
      </trkpt>
      <trkpt lat="44.39172" lon="6.42078">
        <ele>1906</ele>
        <time>2021-09-01T13:22:17.000Z</time>
      </trkpt>
      <trkpt lat="44.39171" lon="6.42082">
        <ele>1904</ele>
        <time>2021-09-01T13:22:18.000Z</time>
      </trkpt>
      <trkpt lat="44.3917" lon="6.42088">
        <ele>1904</ele>
        <time>2021-09-01T13:22:19.000Z</time>
      </trkpt>
      <trkpt lat="44.3917" lon="6.42092">
        <ele>1903</ele>
        <time>2021-09-01T13:22:20.000Z</time>
      </trkpt>
      <trkpt lat="44.39171" lon="6.42097">
        <ele>1903</ele>
        <time>2021-09-01T13:22:21.000Z</time>
      </trkpt>
      <trkpt lat="44.39171" lon="6.421">
        <ele>1903</ele>
        <time>2021-09-01T13:22:22.000Z</time>
      </trkpt>
      <trkpt lat="44.39173" lon="6.42103">
        <ele>1903</ele>
        <time>2021-09-01T13:22:23.000Z</time>
      </trkpt>
      <trkpt lat="44.39174" lon="6.42106">
        <ele>1902</ele>
        <time>2021-09-01T13:22:24.000Z</time>
      </trkpt>
      <trkpt lat="44.39175" lon="6.42111">
        <ele>1901</ele>
        <time>2021-09-01T13:22:25.000Z</time>
      </trkpt>
      <trkpt lat="44.39176" lon="6.42117">
        <ele>1901</ele>
        <time>2021-09-01T13:22:26.000Z</time>
      </trkpt>
      <trkpt lat="44.39176" lon="6.42123">
        <ele>1900</ele>
        <time>2021-09-01T13:22:27.000Z</time>
      </trkpt>
      <trkpt lat="44.39175" lon="6.42129">
        <ele>1898</ele>
        <time>2021-09-01T13:22:28.000Z</time>
      </trkpt>
      <trkpt lat="44.39174" lon="6.42134">
        <ele>1896</ele>
        <time>2021-09-01T13:22:29.000Z</time>
      </trkpt>
      <trkpt lat="44.39172" lon="6.4214">
        <ele>1896</ele>
        <time>2021-09-01T13:22:30.000Z</time>
      </trkpt>
      <trkpt lat="44.3917" lon="6.42145">
        <ele>1895</ele>
        <time>2021-09-01T13:22:31.000Z</time>
      </trkpt>
      <trkpt lat="44.39168" lon="6.42148">
        <ele>1893</ele>
        <time>2021-09-01T13:22:32.000Z</time>
      </trkpt>
      <trkpt lat="44.39165" lon="6.42151">
        <ele>1891</ele>
        <time>2021-09-01T13:22:33.000Z</time>
      </trkpt>
      <trkpt lat="44.39162" lon="6.42152">
        <ele>1890</ele>
        <time>2021-09-01T13:22:34.000Z</time>
      </trkpt>
      <trkpt lat="44.39157" lon="6.42154">
        <ele>1889</ele>
        <time>2021-09-01T13:22:35.000Z</time>
      </trkpt>
      <trkpt lat="44.39153" lon="6.42155">
        <ele>1889</ele>
        <time>2021-09-01T13:22:36.000Z</time>
      </trkpt>
      <trkpt lat="44.3915" lon="6.42154">
        <ele>1888</ele>
        <time>2021-09-01T13:22:37.000Z</time>
      </trkpt>
      <trkpt lat="44.39147" lon="6.42154">
        <ele>1888</ele>
        <time>2021-09-01T13:22:38.000Z</time>
      </trkpt>
      <trkpt lat="44.39144" lon="6.42153">
        <ele>1887</ele>
        <time>2021-09-01T13:22:39.000Z</time>
      </trkpt>
      <trkpt lat="44.39141" lon="6.42151">
        <ele>1886</ele>
        <time>2021-09-01T13:22:40.000Z</time>
      </trkpt>
      <trkpt lat="44.39139" lon="6.4215">
        <ele>1886</ele>
        <time>2021-09-01T13:22:41.000Z</time>
      </trkpt>
      <trkpt lat="44.39136" lon="6.42151">
        <ele>1884</ele>
        <time>2021-09-01T13:22:42.000Z</time>
      </trkpt>
      <trkpt lat="44.39133" lon="6.42154">
        <ele>1883</ele>
        <time>2021-09-01T13:22:43.000Z</time>
      </trkpt>
      <trkpt lat="44.3913" lon="6.42154">
        <ele>1882</ele>
        <time>2021-09-01T13:22:44.000Z</time>
      </trkpt>
      <trkpt lat="44.39127" lon="6.42155">
        <ele>1882</ele>
        <time>2021-09-01T13:22:45.000Z</time>
      </trkpt>
      <trkpt lat="44.39122" lon="6.42157">
        <ele>1880</ele>
        <time>2021-09-01T13:22:46.000Z</time>
      </trkpt>
      <trkpt lat="44.39119" lon="6.42157">
        <ele>1878</ele>
        <time>2021-09-01T13:22:47.000Z</time>
      </trkpt>
      <trkpt lat="44.39115" lon="6.42158">
        <ele>1876</ele>
        <time>2021-09-01T13:22:48.000Z</time>
      </trkpt>
      <trkpt lat="44.3911" lon="6.42162">
        <ele>1876</ele>
        <time>2021-09-01T13:22:49.000Z</time>
      </trkpt>
      <trkpt lat="44.39106" lon="6.42164">
        <ele>1875</ele>
        <time>2021-09-01T13:22:50.000Z</time>
      </trkpt>
      <trkpt lat="44.39102" lon="6.42164">
        <ele>1874</ele>
        <time>2021-09-01T13:22:51.000Z</time>
      </trkpt>
      <trkpt lat="44.39098" lon="6.42166">
        <ele>1872</ele>
        <time>2021-09-01T13:22:52.000Z</time>
      </trkpt>
      <trkpt lat="44.39094" lon="6.42167">
        <ele>1872</ele>
        <time>2021-09-01T13:22:53.000Z</time>
      </trkpt>
      <trkpt lat="44.39089" lon="6.42168">
        <ele>1871</ele>
        <time>2021-09-01T13:22:54.000Z</time>
      </trkpt>
      <trkpt lat="44.39084" lon="6.42168">
        <ele>1870</ele>
        <time>2021-09-01T13:22:55.000Z</time>
      </trkpt>
      <trkpt lat="44.3908" lon="6.42167">
        <ele>1868</ele>
        <time>2021-09-01T13:22:56.000Z</time>
      </trkpt>
      <trkpt lat="44.39076" lon="6.42168">
        <ele>1868</ele>
        <time>2021-09-01T13:22:57.000Z</time>
      </trkpt>
      <trkpt lat="44.39072" lon="6.4217">
        <ele>1866</ele>
        <time>2021-09-01T13:22:58.000Z</time>
      </trkpt>
      <trkpt lat="44.39068" lon="6.42172">
        <ele>1865</ele>
        <time>2021-09-01T13:22:59.000Z</time>
      </trkpt>
      <trkpt lat="44.39065" lon="6.42174">
        <ele>1863</ele>
        <time>2021-09-01T13:23:00.000Z</time>
      </trkpt>
      <trkpt lat="44.39063" lon="6.42176">
        <ele>1862</ele>
        <time>2021-09-01T13:23:01.000Z</time>
      </trkpt>
      <trkpt lat="44.39059" lon="6.42178">
        <ele>1861</ele>
        <time>2021-09-01T13:23:02.000Z</time>
      </trkpt>
      <trkpt lat="44.39055" lon="6.4218">
        <ele>1861</ele>
        <time>2021-09-01T13:23:03.000Z</time>
      </trkpt>
      <trkpt lat="44.39052" lon="6.42183">
        <ele>1860</ele>
        <time>2021-09-01T13:23:04.000Z</time>
      </trkpt>
      <trkpt lat="44.39049" lon="6.42187">
        <ele>1858</ele>
        <time>2021-09-01T13:23:05.000Z</time>
      </trkpt>
      <trkpt lat="44.39045" lon="6.4219">
        <ele>1857</ele>
        <time>2021-09-01T13:23:06.000Z</time>
      </trkpt>
      <trkpt lat="44.39042" lon="6.42194">
        <ele>1856</ele>
        <time>2021-09-01T13:23:07.000Z</time>
      </trkpt>
      <trkpt lat="44.39039" lon="6.42198">
        <ele>1856</ele>
        <time>2021-09-01T13:23:08.000Z</time>
      </trkpt>
      <trkpt lat="44.39036" lon="6.42201">
        <ele>1855</ele>
        <time>2021-09-01T13:23:09.000Z</time>
      </trkpt>
      <trkpt lat="44.39033" lon="6.42205">
        <ele>1854</ele>
        <time>2021-09-01T13:23:10.000Z</time>
      </trkpt>
      <trkpt lat="44.3903" lon="6.42209">
        <ele>1853</ele>
        <time>2021-09-01T13:23:11.000Z</time>
      </trkpt>
      <trkpt lat="44.39025" lon="6.42212">
        <ele>1853</ele>
        <time>2021-09-01T13:23:12.000Z</time>
      </trkpt>
      <trkpt lat="44.39022" lon="6.42215">
        <ele>1852</ele>
        <time>2021-09-01T13:23:13.000Z</time>
      </trkpt>
      <trkpt lat="44.39019" lon="6.42218">
        <ele>1851</ele>
        <time>2021-09-01T13:23:14.000Z</time>
      </trkpt>
      <trkpt lat="44.39015" lon="6.42223">
        <ele>1851</ele>
        <time>2021-09-01T13:23:15.000Z</time>
      </trkpt>
      <trkpt lat="44.39011" lon="6.42226">
        <ele>1850</ele>
        <time>2021-09-01T13:23:16.000Z</time>
      </trkpt>
      <trkpt lat="44.39008" lon="6.42232">
        <ele>1851</ele>
        <time>2021-09-01T13:23:17.000Z</time>
      </trkpt>
      <trkpt lat="44.39005" lon="6.42239">
        <ele>1852</ele>
        <time>2021-09-01T13:23:18.000Z</time>
      </trkpt>
      <trkpt lat="44.39003" lon="6.42243">
        <ele>1851</ele>
        <time>2021-09-01T13:23:19.000Z</time>
      </trkpt>
      <trkpt lat="44.39005" lon="6.42249">
        <ele>1849</ele>
        <time>2021-09-01T13:23:20.000Z</time>
      </trkpt>
      <trkpt lat="44.39008" lon="6.42255">
        <ele>1848</ele>
        <time>2021-09-01T13:23:21.000Z</time>
      </trkpt>
      <trkpt lat="44.3901" lon="6.4226">
        <ele>1848</ele>
        <time>2021-09-01T13:23:22.000Z</time>
      </trkpt>
      <trkpt lat="44.39012" lon="6.42264">
        <ele>1848</ele>
        <time>2021-09-01T13:23:23.000Z</time>
      </trkpt>
      <trkpt lat="44.39014" lon="6.42267">
        <ele>1847</ele>
        <time>2021-09-01T13:23:24.000Z</time>
      </trkpt>
      <trkpt lat="44.39016" lon="6.4227">
        <ele>1848</ele>
        <time>2021-09-01T13:23:25.000Z</time>
      </trkpt>
      <trkpt lat="44.39018" lon="6.42271">
        <ele>1848</ele>
        <time>2021-09-01T13:23:26.000Z</time>
      </trkpt>
      <trkpt lat="44.3902" lon="6.42272">
        <ele>1847</ele>
        <time>2021-09-01T13:23:27.000Z</time>
      </trkpt>
      <trkpt lat="44.39022" lon="6.42273">
        <ele>1847</ele>
        <time>2021-09-01T13:23:28.000Z</time>
      </trkpt>
      <trkpt lat="44.39023" lon="6.42276">
        <ele>1846</ele>
        <time>2021-09-01T13:23:29.000Z</time>
      </trkpt>
      <trkpt lat="44.39022" lon="6.4228">
        <ele>1846</ele>
        <time>2021-09-01T13:23:30.000Z</time>
      </trkpt>
      <trkpt lat="44.39022" lon="6.42284">
        <ele>1845</ele>
        <time>2021-09-01T13:23:31.000Z</time>
      </trkpt>
      <trkpt lat="44.3902" lon="6.42288">
        <ele>1845</ele>
        <time>2021-09-01T13:23:32.000Z</time>
      </trkpt>
      <trkpt lat="44.39018" lon="6.42291">
        <ele>1844</ele>
        <time>2021-09-01T13:23:33.000Z</time>
      </trkpt>
      <trkpt lat="44.39016" lon="6.42294">
        <ele>1843</ele>
        <time>2021-09-01T13:23:34.000Z</time>
      </trkpt>
      <trkpt lat="44.39012" lon="6.42297">
        <ele>1843</ele>
        <time>2021-09-01T13:23:35.000Z</time>
      </trkpt>
      <trkpt lat="44.39009" lon="6.42299">
        <ele>1843</ele>
        <time>2021-09-01T13:23:36.000Z</time>
      </trkpt>
      <trkpt lat="44.39007" lon="6.42301">
        <ele>1842</ele>
        <time>2021-09-01T13:23:37.000Z</time>
      </trkpt>
      <trkpt lat="44.39004" lon="6.42301">
        <ele>1840</ele>
        <time>2021-09-01T13:23:38.000Z</time>
      </trkpt>
      <trkpt lat="44.39002" lon="6.42302">
        <ele>1840</ele>
        <time>2021-09-01T13:23:39.000Z</time>
      </trkpt>
      <trkpt lat="44.38999" lon="6.42301">
        <ele>1839</ele>
        <time>2021-09-01T13:23:40.000Z</time>
      </trkpt>
      <trkpt lat="44.38997" lon="6.42301">
        <ele>1839</ele>
        <time>2021-09-01T13:23:41.000Z</time>
      </trkpt>
      <trkpt lat="44.38996" lon="6.42301">
        <ele>1838</ele>
        <time>2021-09-01T13:23:42.000Z</time>
      </trkpt>
      <trkpt lat="44.38993" lon="6.42301">
        <ele>1837</ele>
        <time>2021-09-01T13:23:43.000Z</time>
      </trkpt>
      <trkpt lat="44.38991" lon="6.42301">
        <ele>1835</ele>
        <time>2021-09-01T13:23:44.000Z</time>
      </trkpt>
      <trkpt lat="44.38988" lon="6.42301">
        <ele>1834</ele>
        <time>2021-09-01T13:23:45.000Z</time>
      </trkpt>
      <trkpt lat="44.38985" lon="6.42303">
        <ele>1834</ele>
        <time>2021-09-01T13:23:46.000Z</time>
      </trkpt>
      <trkpt lat="44.38982" lon="6.42305">
        <ele>1834</ele>
        <time>2021-09-01T13:23:47.000Z</time>
      </trkpt>
      <trkpt lat="44.38981" lon="6.42307">
        <ele>1833</ele>
        <time>2021-09-01T13:23:48.000Z</time>
      </trkpt>
      <trkpt lat="44.38979" lon="6.42309">
        <ele>1832</ele>
        <time>2021-09-01T13:23:49.000Z</time>
      </trkpt>
      <trkpt lat="44.38977" lon="6.42309">
        <ele>1831</ele>
        <time>2021-09-01T13:23:50.000Z</time>
      </trkpt>
      <trkpt lat="44.38975" lon="6.42312">
        <ele>1830</ele>
        <time>2021-09-01T13:23:51.000Z</time>
      </trkpt>
      <trkpt lat="44.38973" lon="6.42315">
        <ele>1829</ele>
        <time>2021-09-01T13:23:52.000Z</time>
      </trkpt>
      <trkpt lat="44.38971" lon="6.42318">
        <ele>1828</ele>
        <time>2021-09-01T13:23:53.000Z</time>
      </trkpt>
      <trkpt lat="44.38969" lon="6.42322">
        <ele>1827</ele>
        <time>2021-09-01T13:23:54.000Z</time>
      </trkpt>
      <trkpt lat="44.38965" lon="6.42328">
        <ele>1826</ele>
        <time>2021-09-01T13:23:55.000Z</time>
      </trkpt>
      <trkpt lat="44.38961" lon="6.42333">
        <ele>1825</ele>
        <time>2021-09-01T13:23:56.000Z</time>
      </trkpt>
      <trkpt lat="44.38958" lon="6.42336">
        <ele>1824</ele>
        <time>2021-09-01T13:23:57.000Z</time>
      </trkpt>
      <trkpt lat="44.38954" lon="6.42339">
        <ele>1823</ele>
        <time>2021-09-01T13:23:58.000Z</time>
      </trkpt>
      <trkpt lat="44.38951" lon="6.42344">
        <ele>1823</ele>
        <time>2021-09-01T13:23:59.000Z</time>
      </trkpt>
      <trkpt lat="44.38947" lon="6.42348">
        <ele>1822</ele>
        <time>2021-09-01T13:24:00.000Z</time>
      </trkpt>
      <trkpt lat="44.38941" lon="6.42354">
        <ele>1822</ele>
        <time>2021-09-01T13:24:01.000Z</time>
      </trkpt>
      <trkpt lat="44.38935" lon="6.42359">
        <ele>1822</ele>
        <time>2021-09-01T13:24:02.000Z</time>
      </trkpt>
      <trkpt lat="44.3893" lon="6.42364">
        <ele>1821</ele>
        <time>2021-09-01T13:24:03.000Z</time>
      </trkpt>
      <trkpt lat="44.38926" lon="6.42368">
        <ele>1820</ele>
        <time>2021-09-01T13:24:04.000Z</time>
      </trkpt>
      <trkpt lat="44.38922" lon="6.42372">
        <ele>1819</ele>
        <time>2021-09-01T13:24:05.000Z</time>
      </trkpt>
      <trkpt lat="44.38918" lon="6.42376">
        <ele>1819</ele>
        <time>2021-09-01T13:24:06.000Z</time>
      </trkpt>
      <trkpt lat="44.38914" lon="6.4238">
        <ele>1818</ele>
        <time>2021-09-01T13:24:07.000Z</time>
      </trkpt>
      <trkpt lat="44.3891" lon="6.42383">
        <ele>1817</ele>
        <time>2021-09-01T13:24:08.000Z</time>
      </trkpt>
      <trkpt lat="44.38906" lon="6.42385">
        <ele>1815</ele>
        <time>2021-09-01T13:24:09.000Z</time>
      </trkpt>
      <trkpt lat="44.38903" lon="6.42386">
        <ele>1813</ele>
        <time>2021-09-01T13:24:10.000Z</time>
      </trkpt>
      <trkpt lat="44.389" lon="6.42388">
        <ele>1812</ele>
        <time>2021-09-01T13:24:11.000Z</time>
      </trkpt>
      <trkpt lat="44.38898" lon="6.42389">
        <ele>1810</ele>
        <time>2021-09-01T13:24:12.000Z</time>
      </trkpt>
      <trkpt lat="44.38895" lon="6.42391">
        <ele>1809</ele>
        <time>2021-09-01T13:24:13.000Z</time>
      </trkpt>
      <trkpt lat="44.38893" lon="6.42393">
        <ele>1809</ele>
        <time>2021-09-01T13:24:14.000Z</time>
      </trkpt>
      <trkpt lat="44.38892" lon="6.42394">
        <ele>1807</ele>
        <time>2021-09-01T13:24:15.000Z</time>
      </trkpt>
      <trkpt lat="44.3889" lon="6.42397">
        <ele>1807</ele>
        <time>2021-09-01T13:24:16.000Z</time>
      </trkpt>
      <trkpt lat="44.38889" lon="6.42399">
        <ele>1806</ele>
        <time>2021-09-01T13:24:17.000Z</time>
      </trkpt>
      <trkpt lat="44.38888" lon="6.424">
        <ele>1806</ele>
        <time>2021-09-01T13:24:18.000Z</time>
      </trkpt>
      <trkpt lat="44.38886" lon="6.42403">
        <ele>1806</ele>
        <time>2021-09-01T13:24:19.000Z</time>
      </trkpt>
      <trkpt lat="44.38885" lon="6.42405">
        <ele>1805</ele>
        <time>2021-09-01T13:24:20.000Z</time>
      </trkpt>
      <trkpt lat="44.38883" lon="6.42408">
        <ele>1804</ele>
        <time>2021-09-01T13:24:21.000Z</time>
      </trkpt>
      <trkpt lat="44.38881" lon="6.42411">
        <ele>1803</ele>
        <time>2021-09-01T13:24:22.000Z</time>
      </trkpt>
      <trkpt lat="44.3888" lon="6.42413">
        <ele>1802</ele>
        <time>2021-09-01T13:24:23.000Z</time>
      </trkpt>
      <trkpt lat="44.38878" lon="6.42416">
        <ele>1803</ele>
        <time>2021-09-01T13:24:24.000Z</time>
      </trkpt>
      <trkpt lat="44.38877" lon="6.42418">
        <ele>1803</ele>
        <time>2021-09-01T13:24:25.000Z</time>
      </trkpt>
      <trkpt lat="44.38874" lon="6.42418">
        <ele>1805</ele>
        <time>2021-09-01T13:24:26.000Z</time>
      </trkpt>
      <trkpt lat="44.38871" lon="6.4242">
        <ele>1807</ele>
        <time>2021-09-01T13:24:27.000Z</time>
      </trkpt>
      <trkpt lat="44.38869" lon="6.42421">
        <ele>1806</ele>
        <time>2021-09-01T13:24:28.000Z</time>
      </trkpt>
      <trkpt lat="44.38867" lon="6.42422">
        <ele>1806</ele>
        <time>2021-09-01T13:24:29.000Z</time>
      </trkpt>
      <trkpt lat="44.38866" lon="6.42423">
        <ele>1807</ele>
        <time>2021-09-01T13:24:30.000Z</time>
      </trkpt>
      <trkpt lat="44.38865" lon="6.42424">
        <ele>1807</ele>
        <time>2021-09-01T13:24:31.000Z</time>
      </trkpt>
      <trkpt lat="44.38864" lon="6.42424">
        <ele>1808</ele>
        <time>2021-09-01T13:24:32.000Z</time>
      </trkpt>
      <trkpt lat="44.38863" lon="6.42425">
        <ele>1808</ele>
        <time>2021-09-01T13:24:33.000Z</time>
      </trkpt>
      <trkpt lat="44.38862" lon="6.42427">
        <ele>1807</ele>
        <time>2021-09-01T13:24:34.000Z</time>
      </trkpt>
      <trkpt lat="44.38861" lon="6.42428">
        <ele>1807</ele>
        <time>2021-09-01T13:24:35.000Z</time>
      </trkpt>
      <trkpt lat="44.3886" lon="6.42429">
        <ele>1807</ele>
        <time>2021-09-01T13:24:36.000Z</time>
      </trkpt>
      <trkpt lat="44.3886" lon="6.4243">
        <ele>1807</ele>
        <time>2021-09-01T13:24:37.000Z</time>
      </trkpt>
      <trkpt lat="44.38859" lon="6.42431">
        <ele>1807</ele>
        <time>2021-09-01T13:24:38.000Z</time>
      </trkpt>
      <trkpt lat="44.38858" lon="6.42431">
        <ele>1806</ele>
        <time>2021-09-01T13:24:39.000Z</time>
      </trkpt>
      <trkpt lat="44.38858" lon="6.42431">
        <ele>1806</ele>
        <time>2021-09-01T13:24:40.000Z</time>
      </trkpt>
      <trkpt lat="44.38857" lon="6.42432">
        <ele>1806</ele>
        <time>2021-09-01T13:24:41.000Z</time>
      </trkpt>
      <trkpt lat="44.38857" lon="6.42433">
        <ele>1805</ele>
        <time>2021-09-01T13:24:42.000Z</time>
      </trkpt>
      <trkpt lat="44.38856" lon="6.42433">
        <ele>1805</ele>
        <time>2021-09-01T13:24:43.000Z</time>
      </trkpt>
      <trkpt lat="44.38856" lon="6.42434">
        <ele>1805</ele>
        <time>2021-09-01T13:24:44.000Z</time>
      </trkpt>
      <trkpt lat="44.38856" lon="6.42435">
        <ele>1805</ele>
        <time>2021-09-01T13:24:45.000Z</time>
      </trkpt>
      <trkpt lat="44.38856" lon="6.42436">
        <ele>1805</ele>
        <time>2021-09-01T13:24:46.000Z</time>
      </trkpt>
      <trkpt lat="44.38856" lon="6.42437">
        <ele>1806</ele>
        <time>2021-09-01T13:24:47.000Z</time>
      </trkpt>
      <trkpt lat="44.38856" lon="6.42438">
        <ele>1807</ele>
        <time>2021-09-01T13:24:48.000Z</time>
      </trkpt>
      <trkpt lat="44.38857" lon="6.42439">
        <ele>1808</ele>
        <time>2021-09-01T13:24:49.000Z</time>
      </trkpt>
      <trkpt lat="44.38857" lon="6.4244">
        <ele>1809</ele>
        <time>2021-09-01T13:24:50.000Z</time>
      </trkpt>
      <trkpt lat="44.38858" lon="6.42441">
        <ele>1810</ele>
        <time>2021-09-01T13:24:51.000Z</time>
      </trkpt>
      <trkpt lat="44.38858" lon="6.42442">
        <ele>1810</ele>
        <time>2021-09-01T13:24:52.000Z</time>
      </trkpt>
      <trkpt lat="44.38858" lon="6.42443">
        <ele>1811</ele>
        <time>2021-09-01T13:24:53.000Z</time>
      </trkpt>
      <trkpt lat="44.38859" lon="6.42443">
        <ele>1813</ele>
        <time>2021-09-01T13:24:54.000Z</time>
      </trkpt>
      <trkpt lat="44.38859" lon="6.42444">
        <ele>1814</ele>
        <time>2021-09-01T13:24:55.000Z</time>
      </trkpt>
      <trkpt lat="44.3886" lon="6.42445">
        <ele>1815</ele>
        <time>2021-09-01T13:24:56.000Z</time>
      </trkpt>
      <trkpt lat="44.3886" lon="6.42445">
        <ele>1816</ele>
        <time>2021-09-01T13:24:57.000Z</time>
      </trkpt>
      <trkpt lat="44.38861" lon="6.42446">
        <ele>1816</ele>
        <time>2021-09-01T13:24:58.000Z</time>
      </trkpt>
      <trkpt lat="44.38861" lon="6.42446">
        <ele>1817</ele>
        <time>2021-09-01T13:24:59.000Z</time>
      </trkpt>
      <trkpt lat="44.38861" lon="6.42447">
        <ele>1817</ele>
        <time>2021-09-01T13:25:00.000Z</time>
      </trkpt>
      <trkpt lat="44.38862" lon="6.42448">
        <ele>1818</ele>
        <time>2021-09-01T13:25:01.000Z</time>
      </trkpt>
      <trkpt lat="44.38863" lon="6.42449">
        <ele>1818</ele>
        <time>2021-09-01T13:25:02.000Z</time>
      </trkpt>
      <trkpt lat="44.38864" lon="6.42451">
        <ele>1817</ele>
        <time>2021-09-01T13:25:03.000Z</time>
      </trkpt>
      <trkpt lat="44.38866" lon="6.42453">
        <ele>1818</ele>
        <time>2021-09-01T13:25:04.000Z</time>
      </trkpt>
      <trkpt lat="44.38868" lon="6.42454">
        <ele>1818</ele>
        <time>2021-09-01T13:25:05.000Z</time>
      </trkpt>
      <trkpt lat="44.38869" lon="6.42456">
        <ele>1817</ele>
        <time>2021-09-01T13:25:06.000Z</time>
      </trkpt>
      <trkpt lat="44.38871" lon="6.42458">
        <ele>1817</ele>
        <time>2021-09-01T13:25:07.000Z</time>
      </trkpt>
      <trkpt lat="44.38871" lon="6.42459">
        <ele>1817</ele>
        <time>2021-09-01T13:25:08.000Z</time>
      </trkpt>
      <trkpt lat="44.38873" lon="6.4246">
        <ele>1817</ele>
        <time>2021-09-01T13:25:09.000Z</time>
      </trkpt>
      <trkpt lat="44.38874" lon="6.42461">
        <ele>1817</ele>
        <time>2021-09-01T13:25:10.000Z</time>
      </trkpt>
      <trkpt lat="44.38875" lon="6.42462">
        <ele>1817</ele>
        <time>2021-09-01T13:25:11.000Z</time>
      </trkpt>
      <trkpt lat="44.38876" lon="6.42462">
        <ele>1817</ele>
        <time>2021-09-01T13:25:12.000Z</time>
      </trkpt>
      <trkpt lat="44.38878" lon="6.42462">
        <ele>1817</ele>
        <time>2021-09-01T13:25:13.000Z</time>
      </trkpt>
      <trkpt lat="44.3888" lon="6.4246">
        <ele>1817</ele>
        <time>2021-09-01T13:25:14.000Z</time>
      </trkpt>
      <trkpt lat="44.38882" lon="6.4246">
        <ele>1817</ele>
        <time>2021-09-01T13:25:15.000Z</time>
      </trkpt>
      <trkpt lat="44.38885" lon="6.42461">
        <ele>1817</ele>
        <time>2021-09-01T13:25:16.000Z</time>
      </trkpt>
      <trkpt lat="44.38886" lon="6.42462">
        <ele>1816</ele>
        <time>2021-09-01T13:25:17.000Z</time>
      </trkpt>
      <trkpt lat="44.38887" lon="6.42462">
        <ele>1816</ele>
        <time>2021-09-01T13:25:18.000Z</time>
      </trkpt>
      <trkpt lat="44.3889" lon="6.42464">
        <ele>1816</ele>
        <time>2021-09-01T13:25:19.000Z</time>
      </trkpt>
      <trkpt lat="44.38892" lon="6.42466">
        <ele>1816</ele>
        <time>2021-09-01T13:25:20.000Z</time>
      </trkpt>
      <trkpt lat="44.38895" lon="6.42467">
        <ele>1816</ele>
        <time>2021-09-01T13:25:21.000Z</time>
      </trkpt>
      <trkpt lat="44.38897" lon="6.42469">
        <ele>1816</ele>
        <time>2021-09-01T13:25:22.000Z</time>
      </trkpt>
      <trkpt lat="44.38899" lon="6.4247">
        <ele>1815</ele>
        <time>2021-09-01T13:25:23.000Z</time>
      </trkpt>
      <trkpt lat="44.389" lon="6.4247">
        <ele>1814</ele>
        <time>2021-09-01T13:25:24.000Z</time>
      </trkpt>
      <trkpt lat="44.38903" lon="6.42472">
        <ele>1814</ele>
        <time>2021-09-01T13:25:25.000Z</time>
      </trkpt>
      <trkpt lat="44.38906" lon="6.42473">
        <ele>1813</ele>
        <time>2021-09-01T13:25:26.000Z</time>
      </trkpt>
      <trkpt lat="44.38909" lon="6.42474">
        <ele>1812</ele>
        <time>2021-09-01T13:25:27.000Z</time>
      </trkpt>
      <trkpt lat="44.38911" lon="6.42475">
        <ele>1812</ele>
        <time>2021-09-01T13:25:28.000Z</time>
      </trkpt>
      <trkpt lat="44.38914" lon="6.42477">
        <ele>1811</ele>
        <time>2021-09-01T13:25:29.000Z</time>
      </trkpt>
      <trkpt lat="44.38917" lon="6.42479">
        <ele>1810</ele>
        <time>2021-09-01T13:25:30.000Z</time>
      </trkpt>
      <trkpt lat="44.3892" lon="6.4248">
        <ele>1809</ele>
        <time>2021-09-01T13:25:31.000Z</time>
      </trkpt>
      <trkpt lat="44.38923" lon="6.42481">
        <ele>1809</ele>
        <time>2021-09-01T13:25:32.000Z</time>
      </trkpt>
      <trkpt lat="44.38927" lon="6.4248">
        <ele>1809</ele>
        <time>2021-09-01T13:25:33.000Z</time>
      </trkpt>
      <trkpt lat="44.3893" lon="6.42479">
        <ele>1808</ele>
        <time>2021-09-01T13:25:34.000Z</time>
      </trkpt>
      <trkpt lat="44.38934" lon="6.42478">
        <ele>1807</ele>
        <time>2021-09-01T13:25:35.000Z</time>
      </trkpt>
      <trkpt lat="44.38937" lon="6.42477">
        <ele>1807</ele>
        <time>2021-09-01T13:25:36.000Z</time>
      </trkpt>
      <trkpt lat="44.38941" lon="6.42479">
        <ele>1806</ele>
        <time>2021-09-01T13:25:37.000Z</time>
      </trkpt>
      <trkpt lat="44.38945" lon="6.42481">
        <ele>1806</ele>
        <time>2021-09-01T13:25:38.000Z</time>
      </trkpt>
      <trkpt lat="44.38949" lon="6.42484">
        <ele>1806</ele>
        <time>2021-09-01T13:25:39.000Z</time>
      </trkpt>
      <trkpt lat="44.38955" lon="6.42485">
        <ele>1806</ele>
        <time>2021-09-01T13:25:40.000Z</time>
      </trkpt>
      <trkpt lat="44.3896" lon="6.42488">
        <ele>1807</ele>
        <time>2021-09-01T13:25:41.000Z</time>
      </trkpt>
      <trkpt lat="44.38966" lon="6.42489">
        <ele>1807</ele>
        <time>2021-09-01T13:25:42.000Z</time>
      </trkpt>
      <trkpt lat="44.3897" lon="6.4249">
        <ele>1807</ele>
        <time>2021-09-01T13:25:43.000Z</time>
      </trkpt>
      <trkpt lat="44.38975" lon="6.4249">
        <ele>1807</ele>
        <time>2021-09-01T13:25:44.000Z</time>
      </trkpt>
      <trkpt lat="44.38981" lon="6.4249">
        <ele>1806</ele>
        <time>2021-09-01T13:25:45.000Z</time>
      </trkpt>
      <trkpt lat="44.38985" lon="6.4249">
        <ele>1805</ele>
        <time>2021-09-01T13:25:46.000Z</time>
      </trkpt>
      <trkpt lat="44.38991" lon="6.42489">
        <ele>1806</ele>
        <time>2021-09-01T13:25:47.000Z</time>
      </trkpt>
      <trkpt lat="44.38995" lon="6.42487">
        <ele>1806</ele>
        <time>2021-09-01T13:25:48.000Z</time>
      </trkpt>
      <trkpt lat="44.38999" lon="6.42484">
        <ele>1805</ele>
        <time>2021-09-01T13:25:49.000Z</time>
      </trkpt>
      <trkpt lat="44.39004" lon="6.42482">
        <ele>1805</ele>
        <time>2021-09-01T13:25:50.000Z</time>
      </trkpt>
      <trkpt lat="44.39006" lon="6.42481">
        <ele>1804</ele>
        <time>2021-09-01T13:25:51.000Z</time>
      </trkpt>
      <trkpt lat="44.39008" lon="6.4248">
        <ele>1804</ele>
        <time>2021-09-01T13:25:52.000Z</time>
      </trkpt>
      <trkpt lat="44.3901" lon="6.42479">
        <ele>1803</ele>
        <time>2021-09-01T13:25:53.000Z</time>
      </trkpt>
      <trkpt lat="44.39011" lon="6.42479">
        <ele>1803</ele>
        <time>2021-09-01T13:25:54.000Z</time>
      </trkpt>
      <trkpt lat="44.39015" lon="6.42478">
        <ele>1803</ele>
        <time>2021-09-01T13:25:55.000Z</time>
      </trkpt>
      <trkpt lat="44.39017" lon="6.42477">
        <ele>1803</ele>
        <time>2021-09-01T13:25:56.000Z</time>
      </trkpt>
      <trkpt lat="44.3902" lon="6.42475">
        <ele>1804</ele>
        <time>2021-09-01T13:25:57.000Z</time>
      </trkpt>
      <trkpt lat="44.39021" lon="6.42474">
        <ele>1803</ele>
        <time>2021-09-01T13:25:58.000Z</time>
      </trkpt>
      <trkpt lat="44.39023" lon="6.42474">
        <ele>1803</ele>
        <time>2021-09-01T13:25:59.000Z</time>
      </trkpt>
      <trkpt lat="44.39025" lon="6.42474">
        <ele>1803</ele>
        <time>2021-09-01T13:26:00.000Z</time>
      </trkpt>
      <trkpt lat="44.39027" lon="6.42472">
        <ele>1803</ele>
        <time>2021-09-01T13:26:01.000Z</time>
      </trkpt>
      <trkpt lat="44.39029" lon="6.42472">
        <ele>1804</ele>
        <time>2021-09-01T13:26:02.000Z</time>
      </trkpt>
      <trkpt lat="44.39031" lon="6.42471">
        <ele>1804</ele>
        <time>2021-09-01T13:26:03.000Z</time>
      </trkpt>
      <trkpt lat="44.39034" lon="6.42471">
        <ele>1804</ele>
        <time>2021-09-01T13:26:04.000Z</time>
      </trkpt>
      <trkpt lat="44.39036" lon="6.42471">
        <ele>1804</ele>
        <time>2021-09-01T13:26:05.000Z</time>
      </trkpt>
      <trkpt lat="44.39038" lon="6.42471">
        <ele>1804</ele>
        <time>2021-09-01T13:26:06.000Z</time>
      </trkpt>
      <trkpt lat="44.3904" lon="6.42472">
        <ele>1803</ele>
        <time>2021-09-01T13:26:07.000Z</time>
      </trkpt>
      <trkpt lat="44.39042" lon="6.42472">
        <ele>1803</ele>
        <time>2021-09-01T13:26:08.000Z</time>
      </trkpt>
      <trkpt lat="44.39044" lon="6.42472">
        <ele>1802</ele>
        <time>2021-09-01T13:26:09.000Z</time>
      </trkpt>
      <trkpt lat="44.39046" lon="6.42473">
        <ele>1802</ele>
        <time>2021-09-01T13:26:10.000Z</time>
      </trkpt>
      <trkpt lat="44.39048" lon="6.42472">
        <ele>1802</ele>
        <time>2021-09-01T13:26:11.000Z</time>
      </trkpt>
      <trkpt lat="44.3905" lon="6.42471">
        <ele>1802</ele>
        <time>2021-09-01T13:26:12.000Z</time>
      </trkpt>
      <trkpt lat="44.39052" lon="6.42471">
        <ele>1801</ele>
        <time>2021-09-01T13:26:13.000Z</time>
      </trkpt>
      <trkpt lat="44.39054" lon="6.42472">
        <ele>1801</ele>
        <time>2021-09-01T13:26:14.000Z</time>
      </trkpt>
      <trkpt lat="44.39057" lon="6.42471">
        <ele>1801</ele>
        <time>2021-09-01T13:26:15.000Z</time>
      </trkpt>
      <trkpt lat="44.3906" lon="6.42472">
        <ele>1800</ele>
        <time>2021-09-01T13:26:16.000Z</time>
      </trkpt>
      <trkpt lat="44.39064" lon="6.42472">
        <ele>1799</ele>
        <time>2021-09-01T13:26:17.000Z</time>
      </trkpt>
      <trkpt lat="44.39069" lon="6.42471">
        <ele>1797</ele>
        <time>2021-09-01T13:26:18.000Z</time>
      </trkpt>
      <trkpt lat="44.39073" lon="6.42472">
        <ele>1796</ele>
        <time>2021-09-01T13:26:19.000Z</time>
      </trkpt>
      <trkpt lat="44.39076" lon="6.42472">
        <ele>1795</ele>
        <time>2021-09-01T13:26:20.000Z</time>
      </trkpt>
      <trkpt lat="44.3908" lon="6.42473">
        <ele>1793</ele>
        <time>2021-09-01T13:26:21.000Z</time>
      </trkpt>
      <trkpt lat="44.39083" lon="6.42475">
        <ele>1792</ele>
        <time>2021-09-01T13:26:22.000Z</time>
      </trkpt>
      <trkpt lat="44.39086" lon="6.42476">
        <ele>1792</ele>
        <time>2021-09-01T13:26:23.000Z</time>
      </trkpt>
      <trkpt lat="44.3909" lon="6.42475">
        <ele>1791</ele>
        <time>2021-09-01T13:26:24.000Z</time>
      </trkpt>
      <trkpt lat="44.39094" lon="6.42475">
        <ele>1791</ele>
        <time>2021-09-01T13:26:25.000Z</time>
      </trkpt>
      <trkpt lat="44.39098" lon="6.42475">
        <ele>1791</ele>
        <time>2021-09-01T13:26:26.000Z</time>
      </trkpt>
      <trkpt lat="44.39102" lon="6.42477">
        <ele>1789</ele>
        <time>2021-09-01T13:26:27.000Z</time>
      </trkpt>
      <trkpt lat="44.39106" lon="6.42478">
        <ele>1788</ele>
        <time>2021-09-01T13:26:28.000Z</time>
      </trkpt>
      <trkpt lat="44.39109" lon="6.42479">
        <ele>1787</ele>
        <time>2021-09-01T13:26:29.000Z</time>
      </trkpt>
      <trkpt lat="44.39114" lon="6.4248">
        <ele>1786</ele>
        <time>2021-09-01T13:26:30.000Z</time>
      </trkpt>
      <trkpt lat="44.39117" lon="6.42482">
        <ele>1784</ele>
        <time>2021-09-01T13:26:31.000Z</time>
      </trkpt>
      <trkpt lat="44.39121" lon="6.42483">
        <ele>1783</ele>
        <time>2021-09-01T13:26:32.000Z</time>
      </trkpt>
      <trkpt lat="44.39124" lon="6.42485">
        <ele>1783</ele>
        <time>2021-09-01T13:26:33.000Z</time>
      </trkpt>
      <trkpt lat="44.39128" lon="6.42486">
        <ele>1782</ele>
        <time>2021-09-01T13:26:34.000Z</time>
      </trkpt>
      <trkpt lat="44.39132" lon="6.42489">
        <ele>1782</ele>
        <time>2021-09-01T13:26:35.000Z</time>
      </trkpt>
      <trkpt lat="44.39136" lon="6.42491">
        <ele>1782</ele>
        <time>2021-09-01T13:26:36.000Z</time>
      </trkpt>
      <trkpt lat="44.3914" lon="6.42493">
        <ele>1781</ele>
        <time>2021-09-01T13:26:37.000Z</time>
      </trkpt>
      <trkpt lat="44.39146" lon="6.42495">
        <ele>1780</ele>
        <time>2021-09-01T13:26:38.000Z</time>
      </trkpt>
      <trkpt lat="44.39151" lon="6.42495">
        <ele>1779</ele>
        <time>2021-09-01T13:26:39.000Z</time>
      </trkpt>
      <trkpt lat="44.39155" lon="6.42495">
        <ele>1779</ele>
        <time>2021-09-01T13:26:40.000Z</time>
      </trkpt>
      <trkpt lat="44.39158" lon="6.42496">
        <ele>1779</ele>
        <time>2021-09-01T13:26:41.000Z</time>
      </trkpt>
      <trkpt lat="44.39161" lon="6.42497">
        <ele>1778</ele>
        <time>2021-09-01T13:26:42.000Z</time>
      </trkpt>
      <trkpt lat="44.39164" lon="6.42497">
        <ele>1778</ele>
        <time>2021-09-01T13:26:43.000Z</time>
      </trkpt>
      <trkpt lat="44.39166" lon="6.42498">
        <ele>1776</ele>
        <time>2021-09-01T13:26:44.000Z</time>
      </trkpt>
      <trkpt lat="44.39171" lon="6.42499">
        <ele>1776</ele>
        <time>2021-09-01T13:26:45.000Z</time>
      </trkpt>
      <trkpt lat="44.39174" lon="6.425">
        <ele>1774</ele>
        <time>2021-09-01T13:26:46.000Z</time>
      </trkpt>
      <trkpt lat="44.39178" lon="6.42501">
        <ele>1773</ele>
        <time>2021-09-01T13:26:47.000Z</time>
      </trkpt>
      <trkpt lat="44.39183" lon="6.42502">
        <ele>1772</ele>
        <time>2021-09-01T13:26:48.000Z</time>
      </trkpt>
      <trkpt lat="44.39188" lon="6.42503">
        <ele>1771</ele>
        <time>2021-09-01T13:26:49.000Z</time>
      </trkpt>
      <trkpt lat="44.39193" lon="6.42503">
        <ele>1770</ele>
        <time>2021-09-01T13:26:50.000Z</time>
      </trkpt>
      <trkpt lat="44.39198" lon="6.42505">
        <ele>1769</ele>
        <time>2021-09-01T13:26:51.000Z</time>
      </trkpt>
      <trkpt lat="44.39205" lon="6.42507">
        <ele>1769</ele>
        <time>2021-09-01T13:26:52.000Z</time>
      </trkpt>
      <trkpt lat="44.3921" lon="6.42508">
        <ele>1767</ele>
        <time>2021-09-01T13:26:53.000Z</time>
      </trkpt>
      <trkpt lat="44.39215" lon="6.4251">
        <ele>1766</ele>
        <time>2021-09-01T13:26:54.000Z</time>
      </trkpt>
      <trkpt lat="44.39221" lon="6.42509">
        <ele>1764</ele>
        <time>2021-09-01T13:26:55.000Z</time>
      </trkpt>
      <trkpt lat="44.39226" lon="6.42509">
        <ele>1763</ele>
        <time>2021-09-01T13:26:56.000Z</time>
      </trkpt>
      <trkpt lat="44.39229" lon="6.42511">
        <ele>1762</ele>
        <time>2021-09-01T13:26:57.000Z</time>
      </trkpt>
      <trkpt lat="44.39232" lon="6.42512">
        <ele>1761</ele>
        <time>2021-09-01T13:26:58.000Z</time>
      </trkpt>
      <trkpt lat="44.39237" lon="6.42514">
        <ele>1759</ele>
        <time>2021-09-01T13:26:59.000Z</time>
      </trkpt>
      <trkpt lat="44.3924" lon="6.42513">
        <ele>1757</ele>
        <time>2021-09-01T13:27:00.000Z</time>
      </trkpt>
      <trkpt lat="44.39244" lon="6.42516">
        <ele>1757</ele>
        <time>2021-09-01T13:27:01.000Z</time>
      </trkpt>
      <trkpt lat="44.39248" lon="6.42518">
        <ele>1756</ele>
        <time>2021-09-01T13:27:02.000Z</time>
      </trkpt>
      <trkpt lat="44.39253" lon="6.4252">
        <ele>1754</ele>
        <time>2021-09-01T13:27:03.000Z</time>
      </trkpt>
      <trkpt lat="44.39257" lon="6.42523">
        <ele>1753</ele>
        <time>2021-09-01T13:27:04.000Z</time>
      </trkpt>
      <trkpt lat="44.3926" lon="6.42523">
        <ele>1752</ele>
        <time>2021-09-01T13:27:05.000Z</time>
      </trkpt>
      <trkpt lat="44.39265" lon="6.42524">
        <ele>1751</ele>
        <time>2021-09-01T13:27:06.000Z</time>
      </trkpt>
      <trkpt lat="44.3927" lon="6.42524">
        <ele>1749</ele>
        <time>2021-09-01T13:27:07.000Z</time>
      </trkpt>
      <trkpt lat="44.39276" lon="6.42524">
        <ele>1748</ele>
        <time>2021-09-01T13:27:08.000Z</time>
      </trkpt>
      <trkpt lat="44.39281" lon="6.42524">
        <ele>1747</ele>
        <time>2021-09-01T13:27:09.000Z</time>
      </trkpt>
      <trkpt lat="44.39286" lon="6.42524">
        <ele>1746</ele>
        <time>2021-09-01T13:27:10.000Z</time>
      </trkpt>
      <trkpt lat="44.39291" lon="6.42525">
        <ele>1745</ele>
        <time>2021-09-01T13:27:11.000Z</time>
      </trkpt>
      <trkpt lat="44.39298" lon="6.42525">
        <ele>1741</ele>
        <time>2021-09-01T13:27:12.000Z</time>
      </trkpt>
      <trkpt lat="44.39303" lon="6.42526">
        <ele>1740</ele>
        <time>2021-09-01T13:27:13.000Z</time>
      </trkpt>
      <trkpt lat="44.3931" lon="6.42528">
        <ele>1738</ele>
        <time>2021-09-01T13:27:14.000Z</time>
      </trkpt>
      <trkpt lat="44.39315" lon="6.42531">
        <ele>1736</ele>
        <time>2021-09-01T13:27:15.000Z</time>
      </trkpt>
      <trkpt lat="44.3932" lon="6.42532">
        <ele>1734</ele>
        <time>2021-09-01T13:27:16.000Z</time>
      </trkpt>
      <trkpt lat="44.39325" lon="6.42534">
        <ele>1734</ele>
        <time>2021-09-01T13:27:17.000Z</time>
      </trkpt>
      <trkpt lat="44.3933" lon="6.42536">
        <ele>1733</ele>
        <time>2021-09-01T13:27:18.000Z</time>
      </trkpt>
      <trkpt lat="44.39335" lon="6.42539">
        <ele>1731</ele>
        <time>2021-09-01T13:27:19.000Z</time>
      </trkpt>
      <trkpt lat="44.39341" lon="6.42542">
        <ele>1731</ele>
        <time>2021-09-01T13:27:20.000Z</time>
      </trkpt>
      <trkpt lat="44.39346" lon="6.42545">
        <ele>1731</ele>
        <time>2021-09-01T13:27:21.000Z</time>
      </trkpt>
      <trkpt lat="44.39351" lon="6.4255">
        <ele>1731</ele>
        <time>2021-09-01T13:27:22.000Z</time>
      </trkpt>
      <trkpt lat="44.39354" lon="6.42555">
        <ele>1731</ele>
        <time>2021-09-01T13:27:23.000Z</time>
      </trkpt>
      <trkpt lat="44.39358" lon="6.42561">
        <ele>1730</ele>
        <time>2021-09-01T13:27:24.000Z</time>
      </trkpt>
      <trkpt lat="44.39361" lon="6.42564">
        <ele>1730</ele>
        <time>2021-09-01T13:27:25.000Z</time>
      </trkpt>
      <trkpt lat="44.39365" lon="6.42567">
        <ele>1729</ele>
        <time>2021-09-01T13:27:26.000Z</time>
      </trkpt>
      <trkpt lat="44.3937" lon="6.42571">
        <ele>1729</ele>
        <time>2021-09-01T13:27:27.000Z</time>
      </trkpt>
      <trkpt lat="44.39375" lon="6.42572">
        <ele>1730</ele>
        <time>2021-09-01T13:27:28.000Z</time>
      </trkpt>
      <trkpt lat="44.39379" lon="6.42574">
        <ele>1729</ele>
        <time>2021-09-01T13:27:29.000Z</time>
      </trkpt>
      <trkpt lat="44.39382" lon="6.42577">
        <ele>1729</ele>
        <time>2021-09-01T13:27:30.000Z</time>
      </trkpt>
      <trkpt lat="44.39385" lon="6.42579">
        <ele>1729</ele>
        <time>2021-09-01T13:27:31.000Z</time>
      </trkpt>
      <trkpt lat="44.39388" lon="6.4258">
        <ele>1729</ele>
        <time>2021-09-01T13:27:32.000Z</time>
      </trkpt>
      <trkpt lat="44.39392" lon="6.42579">
        <ele>1728</ele>
        <time>2021-09-01T13:27:33.000Z</time>
      </trkpt>
      <trkpt lat="44.39394" lon="6.42578">
        <ele>1728</ele>
        <time>2021-09-01T13:27:34.000Z</time>
      </trkpt>
      <trkpt lat="44.39395" lon="6.42578">
        <ele>1728</ele>
        <time>2021-09-01T13:27:35.000Z</time>
      </trkpt>
      <trkpt lat="44.39397" lon="6.42578">
        <ele>1728</ele>
        <time>2021-09-01T13:27:36.000Z</time>
      </trkpt>
      <trkpt lat="44.39398" lon="6.4258">
        <ele>1728</ele>
        <time>2021-09-01T13:27:37.000Z</time>
      </trkpt>
      <trkpt lat="44.394" lon="6.42581">
        <ele>1730</ele>
        <time>2021-09-01T13:27:38.000Z</time>
      </trkpt>
      <trkpt lat="44.39402" lon="6.42582">
        <ele>1731</ele>
        <time>2021-09-01T13:27:39.000Z</time>
      </trkpt>
      <trkpt lat="44.39403" lon="6.42583">
        <ele>1732</ele>
        <time>2021-09-01T13:27:40.000Z</time>
      </trkpt>
      <trkpt lat="44.39404" lon="6.42583">
        <ele>1732</ele>
        <time>2021-09-01T13:27:41.000Z</time>
      </trkpt>
      <trkpt lat="44.39404" lon="6.42584">
        <ele>1732</ele>
        <time>2021-09-01T13:27:42.000Z</time>
      </trkpt>
      <trkpt lat="44.39405" lon="6.42584">
        <ele>1732</ele>
        <time>2021-09-01T13:27:43.000Z</time>
      </trkpt>
      <trkpt lat="44.39405" lon="6.42584">
        <ele>1732</ele>
        <time>2021-09-01T13:27:44.000Z</time>
      </trkpt>
      <trkpt lat="44.39406" lon="6.42584">
        <ele>1732</ele>
        <time>2021-09-01T13:27:45.000Z</time>
      </trkpt>
      <trkpt lat="44.39406" lon="6.42584">
        <ele>1732</ele>
        <time>2021-09-01T13:27:46.000Z</time>
      </trkpt>
      <trkpt lat="44.39407" lon="6.42584">
        <ele>1732</ele>
        <time>2021-09-01T13:27:47.000Z</time>
      </trkpt>
      <trkpt lat="44.39408" lon="6.42584">
        <ele>1733</ele>
        <time>2021-09-01T13:27:48.000Z</time>
      </trkpt>
      <trkpt lat="44.39408" lon="6.42584">
        <ele>1733</ele>
        <time>2021-09-01T13:27:49.000Z</time>
      </trkpt>
      <trkpt lat="44.39409" lon="6.42584">
        <ele>1733</ele>
        <time>2021-09-01T13:27:50.000Z</time>
      </trkpt>
      <trkpt lat="44.39409" lon="6.42584">
        <ele>1732</ele>
        <time>2021-09-01T13:27:51.000Z</time>
      </trkpt>
      <trkpt lat="44.39409" lon="6.42584">
        <ele>1732</ele>
        <time>2021-09-01T13:27:52.000Z</time>
      </trkpt>
      <trkpt lat="44.39409" lon="6.42584">
        <ele>1732</ele>
        <time>2021-09-01T13:27:53.000Z</time>
      </trkpt>
      <trkpt lat="44.3941" lon="6.42584">
        <ele>1732</ele>
        <time>2021-09-01T13:27:54.000Z</time>
      </trkpt>
      <trkpt lat="44.3941" lon="6.42584">
        <ele>1732</ele>
        <time>2021-09-01T13:27:55.000Z</time>
      </trkpt>
      <trkpt lat="44.3941" lon="6.42584">
        <ele>1731</ele>
        <time>2021-09-01T13:27:56.000Z</time>
      </trkpt>
      <trkpt lat="44.3941" lon="6.42584">
        <ele>1731</ele>
        <time>2021-09-01T13:27:57.000Z</time>
      </trkpt>
      <trkpt lat="44.3941" lon="6.42584">
        <ele>1731</ele>
        <time>2021-09-01T13:27:58.000Z</time>
      </trkpt>
      <trkpt lat="44.3941" lon="6.42584">
        <ele>1731</ele>
        <time>2021-09-01T13:27:59.000Z</time>
      </trkpt>
      <trkpt lat="44.3941" lon="6.42584">
        <ele>1731</ele>
        <time>2021-09-01T13:28:00.000Z</time>
      </trkpt>
      <trkpt lat="44.3941" lon="6.42584">
        <ele>1731</ele>
        <time>2021-09-01T13:28:01.000Z</time>
      </trkpt>
      <trkpt lat="44.3941" lon="6.42584">
        <ele>1731</ele>
        <time>2021-09-01T13:28:02.000Z</time>
      </trkpt>
      <trkpt lat="44.3941" lon="6.42584">
        <ele>1730</ele>
        <time>2021-09-01T13:28:03.000Z</time>
      </trkpt>
      <trkpt lat="44.39411" lon="6.42583">
        <ele>1730</ele>
        <time>2021-09-01T13:28:04.000Z</time>
      </trkpt>
      <trkpt lat="44.39411" lon="6.42582">
        <ele>1730</ele>
        <time>2021-09-01T13:28:05.000Z</time>
      </trkpt>
      <trkpt lat="44.39412" lon="6.4258">
        <ele>1730</ele>
        <time>2021-09-01T13:28:06.000Z</time>
      </trkpt>
      <trkpt lat="44.39413" lon="6.42578">
        <ele>1730</ele>
        <time>2021-09-01T13:28:07.000Z</time>
      </trkpt>
      <trkpt lat="44.39414" lon="6.42576">
        <ele>1730</ele>
        <time>2021-09-01T13:28:08.000Z</time>
      </trkpt>
      <trkpt lat="44.39416" lon="6.42574">
        <ele>1730</ele>
        <time>2021-09-01T13:28:09.000Z</time>
      </trkpt>
      <trkpt lat="44.39418" lon="6.42572">
        <ele>1729</ele>
        <time>2021-09-01T13:28:10.000Z</time>
      </trkpt>
      <trkpt lat="44.3942" lon="6.42569">
        <ele>1729</ele>
        <time>2021-09-01T13:28:11.000Z</time>
      </trkpt>
      <trkpt lat="44.39422" lon="6.42566">
        <ele>1729</ele>
        <time>2021-09-01T13:28:12.000Z</time>
      </trkpt>
      <trkpt lat="44.39424" lon="6.42563">
        <ele>1729</ele>
        <time>2021-09-01T13:28:13.000Z</time>
      </trkpt>
      <trkpt lat="44.39426" lon="6.4256">
        <ele>1729</ele>
        <time>2021-09-01T13:28:14.000Z</time>
      </trkpt>
      <trkpt lat="44.39428" lon="6.42557">
        <ele>1729</ele>
        <time>2021-09-01T13:28:15.000Z</time>
      </trkpt>
      <trkpt lat="44.3943" lon="6.42554">
        <ele>1729</ele>
        <time>2021-09-01T13:28:16.000Z</time>
      </trkpt>
      <trkpt lat="44.39432" lon="6.42551">
        <ele>1728</ele>
        <time>2021-09-01T13:28:17.000Z</time>
      </trkpt>
      <trkpt lat="44.39433" lon="6.42547">
        <ele>1728</ele>
        <time>2021-09-01T13:28:18.000Z</time>
      </trkpt>
      <trkpt lat="44.39434" lon="6.42544">
        <ele>1728</ele>
        <time>2021-09-01T13:28:19.000Z</time>
      </trkpt>
      <trkpt lat="44.39436" lon="6.4254">
        <ele>1727</ele>
        <time>2021-09-01T13:28:20.000Z</time>
      </trkpt>
      <trkpt lat="44.39438" lon="6.42536">
        <ele>1727</ele>
        <time>2021-09-01T13:28:21.000Z</time>
      </trkpt>
      <trkpt lat="44.3944" lon="6.42533">
        <ele>1727</ele>
        <time>2021-09-01T13:28:22.000Z</time>
      </trkpt>
      <trkpt lat="44.39442" lon="6.42529">
        <ele>1726</ele>
        <time>2021-09-01T13:28:23.000Z</time>
      </trkpt>
      <trkpt lat="44.39444" lon="6.42526">
        <ele>1726</ele>
        <time>2021-09-01T13:28:24.000Z</time>
      </trkpt>
      <trkpt lat="44.39447" lon="6.42524">
        <ele>1726</ele>
        <time>2021-09-01T13:28:25.000Z</time>
      </trkpt>
      <trkpt lat="44.39449" lon="6.42521">
        <ele>1726</ele>
        <time>2021-09-01T13:28:26.000Z</time>
      </trkpt>
      <trkpt lat="44.39452" lon="6.42517">
        <ele>1726</ele>
        <time>2021-09-01T13:28:27.000Z</time>
      </trkpt>
      <trkpt lat="44.39454" lon="6.42514">
        <ele>1726</ele>
        <time>2021-09-01T13:28:28.000Z</time>
      </trkpt>
      <trkpt lat="44.39455" lon="6.42509">
        <ele>1726</ele>
        <time>2021-09-01T13:28:29.000Z</time>
      </trkpt>
      <trkpt lat="44.39456" lon="6.42506">
        <ele>1726</ele>
        <time>2021-09-01T13:28:30.000Z</time>
      </trkpt>
      <trkpt lat="44.39457" lon="6.42502">
        <ele>1726</ele>
        <time>2021-09-01T13:28:31.000Z</time>
      </trkpt>
      <trkpt lat="44.39458" lon="6.42499">
        <ele>1725</ele>
        <time>2021-09-01T13:28:32.000Z</time>
      </trkpt>
      <trkpt lat="44.39459" lon="6.42495">
        <ele>1725</ele>
        <time>2021-09-01T13:28:33.000Z</time>
      </trkpt>
      <trkpt lat="44.3946" lon="6.42493">
        <ele>1725</ele>
        <time>2021-09-01T13:28:34.000Z</time>
      </trkpt>
      <trkpt lat="44.39462" lon="6.42491">
        <ele>1725</ele>
        <time>2021-09-01T13:28:35.000Z</time>
      </trkpt>
      <trkpt lat="44.39466" lon="6.42489">
        <ele>1726</ele>
        <time>2021-09-01T13:28:36.000Z</time>
      </trkpt>
      <trkpt lat="44.39471" lon="6.42487">
        <ele>1726</ele>
        <time>2021-09-01T13:28:37.000Z</time>
      </trkpt>
      <trkpt lat="44.39473" lon="6.42485">
        <ele>1726</ele>
        <time>2021-09-01T13:28:38.000Z</time>
      </trkpt>
      <trkpt lat="44.39476" lon="6.42484">
        <ele>1726</ele>
        <time>2021-09-01T13:28:39.000Z</time>
      </trkpt>
      <trkpt lat="44.39479" lon="6.42483">
        <ele>1726</ele>
        <time>2021-09-01T13:28:40.000Z</time>
      </trkpt>
      <trkpt lat="44.39483" lon="6.42481">
        <ele>1726</ele>
        <time>2021-09-01T13:28:41.000Z</time>
      </trkpt>
      <trkpt lat="44.39486" lon="6.42478">
        <ele>1726</ele>
        <time>2021-09-01T13:28:42.000Z</time>
      </trkpt>
      <trkpt lat="44.39488" lon="6.42474">
        <ele>1726</ele>
        <time>2021-09-01T13:28:43.000Z</time>
      </trkpt>
      <trkpt lat="44.39491" lon="6.42471">
        <ele>1726</ele>
        <time>2021-09-01T13:28:44.000Z</time>
      </trkpt>
      <trkpt lat="44.39492" lon="6.42467">
        <ele>1726</ele>
        <time>2021-09-01T13:28:45.000Z</time>
      </trkpt>
      <trkpt lat="44.39493" lon="6.42464">
        <ele>1727</ele>
        <time>2021-09-01T13:28:46.000Z</time>
      </trkpt>
      <trkpt lat="44.39494" lon="6.42461">
        <ele>1727</ele>
        <time>2021-09-01T13:28:47.000Z</time>
      </trkpt>
      <trkpt lat="44.39495" lon="6.42458">
        <ele>1726</ele>
        <time>2021-09-01T13:28:48.000Z</time>
      </trkpt>
      <trkpt lat="44.39497" lon="6.42454">
        <ele>1726</ele>
        <time>2021-09-01T13:28:49.000Z</time>
      </trkpt>
      <trkpt lat="44.39499" lon="6.42451">
        <ele>1726</ele>
        <time>2021-09-01T13:28:50.000Z</time>
      </trkpt>
      <trkpt lat="44.39501" lon="6.42446">
        <ele>1726</ele>
        <time>2021-09-01T13:28:51.000Z</time>
      </trkpt>
      <trkpt lat="44.39501" lon="6.42441">
        <ele>1726</ele>
        <time>2021-09-01T13:28:52.000Z</time>
      </trkpt>
      <trkpt lat="44.39501" lon="6.42437">
        <ele>1727</ele>
        <time>2021-09-01T13:28:53.000Z</time>
      </trkpt>
      <trkpt lat="44.39501" lon="6.42433">
        <ele>1727</ele>
        <time>2021-09-01T13:28:54.000Z</time>
      </trkpt>
      <trkpt lat="44.39502" lon="6.42429">
        <ele>1727</ele>
        <time>2021-09-01T13:28:55.000Z</time>
      </trkpt>
      <trkpt lat="44.39503" lon="6.42427">
        <ele>1727</ele>
        <time>2021-09-01T13:28:56.000Z</time>
      </trkpt>
      <trkpt lat="44.39506" lon="6.42425">
        <ele>1727</ele>
        <time>2021-09-01T13:28:57.000Z</time>
      </trkpt>
      <trkpt lat="44.3951" lon="6.42422">
        <ele>1728</ele>
        <time>2021-09-01T13:28:58.000Z</time>
      </trkpt>
      <trkpt lat="44.39513" lon="6.42421">
        <ele>1728</ele>
        <time>2021-09-01T13:28:59.000Z</time>
      </trkpt>
      <trkpt lat="44.39516" lon="6.42419">
        <ele>1728</ele>
        <time>2021-09-01T13:29:00.000Z</time>
      </trkpt>
      <trkpt lat="44.3952" lon="6.4242">
        <ele>1728</ele>
        <time>2021-09-01T13:29:01.000Z</time>
      </trkpt>
      <trkpt lat="44.39523" lon="6.4242">
        <ele>1728</ele>
        <time>2021-09-01T13:29:02.000Z</time>
      </trkpt>
      <trkpt lat="44.39525" lon="6.42422">
        <ele>1728</ele>
        <time>2021-09-01T13:29:03.000Z</time>
      </trkpt>
      <trkpt lat="44.39528" lon="6.42424">
        <ele>1728</ele>
        <time>2021-09-01T13:29:04.000Z</time>
      </trkpt>
      <trkpt lat="44.39531" lon="6.42426">
        <ele>1729</ele>
        <time>2021-09-01T13:29:05.000Z</time>
      </trkpt>
      <trkpt lat="44.39534" lon="6.42429">
        <ele>1730</ele>
        <time>2021-09-01T13:29:06.000Z</time>
      </trkpt>
      <trkpt lat="44.39535" lon="6.42432">
        <ele>1730</ele>
        <time>2021-09-01T13:29:07.000Z</time>
      </trkpt>
      <trkpt lat="44.39536" lon="6.42435">
        <ele>1731</ele>
        <time>2021-09-01T13:29:08.000Z</time>
      </trkpt>
      <trkpt lat="44.39537" lon="6.42441">
        <ele>1733</ele>
        <time>2021-09-01T13:29:09.000Z</time>
      </trkpt>
      <trkpt lat="44.39539" lon="6.42445">
        <ele>1733</ele>
        <time>2021-09-01T13:29:10.000Z</time>
      </trkpt>
      <trkpt lat="44.39541" lon="6.42449">
        <ele>1734</ele>
        <time>2021-09-01T13:29:11.000Z</time>
      </trkpt>
      <trkpt lat="44.39545" lon="6.42453">
        <ele>1734</ele>
        <time>2021-09-01T13:29:12.000Z</time>
      </trkpt>
      <trkpt lat="44.39546" lon="6.42456">
        <ele>1733</ele>
        <time>2021-09-01T13:29:13.000Z</time>
      </trkpt>
      <trkpt lat="44.39548" lon="6.42461">
        <ele>1733</ele>
        <time>2021-09-01T13:29:14.000Z</time>
      </trkpt>
      <trkpt lat="44.39552" lon="6.42465">
        <ele>1733</ele>
        <time>2021-09-01T13:29:15.000Z</time>
      </trkpt>
      <trkpt lat="44.39555" lon="6.42468">
        <ele>1733</ele>
        <time>2021-09-01T13:29:16.000Z</time>
      </trkpt>
      <trkpt lat="44.39558" lon="6.42469">
        <ele>1732</ele>
        <time>2021-09-01T13:29:17.000Z</time>
      </trkpt>
      <trkpt lat="44.39563" lon="6.4247">
        <ele>1731</ele>
        <time>2021-09-01T13:29:18.000Z</time>
      </trkpt>
      <trkpt lat="44.39567" lon="6.42471">
        <ele>1729</ele>
        <time>2021-09-01T13:29:19.000Z</time>
      </trkpt>
      <trkpt lat="44.39571" lon="6.42472">
        <ele>1728</ele>
        <time>2021-09-01T13:29:20.000Z</time>
      </trkpt>
      <trkpt lat="44.39575" lon="6.42472">
        <ele>1728</ele>
        <time>2021-09-01T13:29:21.000Z</time>
      </trkpt>
      <trkpt lat="44.3958" lon="6.42471">
        <ele>1728</ele>
        <time>2021-09-01T13:29:22.000Z</time>
      </trkpt>
      <trkpt lat="44.39584" lon="6.42471">
        <ele>1727</ele>
        <time>2021-09-01T13:29:23.000Z</time>
      </trkpt>
      <trkpt lat="44.39589" lon="6.4247">
        <ele>1727</ele>
        <time>2021-09-01T13:29:24.000Z</time>
      </trkpt>
      <trkpt lat="44.39592" lon="6.4247">
        <ele>1727</ele>
        <time>2021-09-01T13:29:25.000Z</time>
      </trkpt>
      <trkpt lat="44.39597" lon="6.42469">
        <ele>1727</ele>
        <time>2021-09-01T13:29:26.000Z</time>
      </trkpt>
      <trkpt lat="44.39602" lon="6.42467">
        <ele>1727</ele>
        <time>2021-09-01T13:29:27.000Z</time>
      </trkpt>
      <trkpt lat="44.39606" lon="6.42467">
        <ele>1726</ele>
        <time>2021-09-01T13:29:28.000Z</time>
      </trkpt>
      <trkpt lat="44.3961" lon="6.42466">
        <ele>1726</ele>
        <time>2021-09-01T13:29:29.000Z</time>
      </trkpt>
      <trkpt lat="44.39613" lon="6.42465">
        <ele>1725</ele>
        <time>2021-09-01T13:29:30.000Z</time>
      </trkpt>
      <trkpt lat="44.39616" lon="6.42465">
        <ele>1724</ele>
        <time>2021-09-01T13:29:31.000Z</time>
      </trkpt>
      <trkpt lat="44.3962" lon="6.42463">
        <ele>1723</ele>
        <time>2021-09-01T13:29:32.000Z</time>
      </trkpt>
      <trkpt lat="44.39626" lon="6.42463">
        <ele>1723</ele>
        <time>2021-09-01T13:29:33.000Z</time>
      </trkpt>
      <trkpt lat="44.39632" lon="6.42463">
        <ele>1723</ele>
        <time>2021-09-01T13:29:34.000Z</time>
      </trkpt>
      <trkpt lat="44.39637" lon="6.42462">
        <ele>1723</ele>
        <time>2021-09-01T13:29:35.000Z</time>
      </trkpt>
      <trkpt lat="44.39643" lon="6.42461">
        <ele>1722</ele>
        <time>2021-09-01T13:29:36.000Z</time>
      </trkpt>
      <trkpt lat="44.39649" lon="6.4246">
        <ele>1722</ele>
        <time>2021-09-01T13:29:37.000Z</time>
      </trkpt>
      <trkpt lat="44.39655" lon="6.4246">
        <ele>1722</ele>
        <time>2021-09-01T13:29:38.000Z</time>
      </trkpt>
      <trkpt lat="44.3966" lon="6.42462">
        <ele>1722</ele>
        <time>2021-09-01T13:29:39.000Z</time>
      </trkpt>
      <trkpt lat="44.39665" lon="6.42461">
        <ele>1721</ele>
        <time>2021-09-01T13:29:40.000Z</time>
      </trkpt>
      <trkpt lat="44.3967" lon="6.42462">
        <ele>1721</ele>
        <time>2021-09-01T13:29:41.000Z</time>
      </trkpt>
      <trkpt lat="44.39675" lon="6.42463">
        <ele>1722</ele>
        <time>2021-09-01T13:29:42.000Z</time>
      </trkpt>
      <trkpt lat="44.39679" lon="6.42463">
        <ele>1723</ele>
        <time>2021-09-01T13:29:43.000Z</time>
      </trkpt>
      <trkpt lat="44.39684" lon="6.42461">
        <ele>1723</ele>
        <time>2021-09-01T13:29:44.000Z</time>
      </trkpt>
      <trkpt lat="44.39689" lon="6.42458">
        <ele>1724</ele>
        <time>2021-09-01T13:29:45.000Z</time>
      </trkpt>
      <trkpt lat="44.39693" lon="6.42453">
        <ele>1724</ele>
        <time>2021-09-01T13:29:46.000Z</time>
      </trkpt>
      <trkpt lat="44.39697" lon="6.4245">
        <ele>1725</ele>
        <time>2021-09-01T13:29:47.000Z</time>
      </trkpt>
      <trkpt lat="44.39701" lon="6.42448">
        <ele>1726</ele>
        <time>2021-09-01T13:29:48.000Z</time>
      </trkpt>
      <trkpt lat="44.39707" lon="6.42447">
        <ele>1726</ele>
        <time>2021-09-01T13:29:49.000Z</time>
      </trkpt>
      <trkpt lat="44.39712" lon="6.42446">
        <ele>1727</ele>
        <time>2021-09-01T13:29:50.000Z</time>
      </trkpt>
      <trkpt lat="44.39715" lon="6.42445">
        <ele>1727</ele>
        <time>2021-09-01T13:29:51.000Z</time>
      </trkpt>
      <trkpt lat="44.3972" lon="6.42442">
        <ele>1728</ele>
        <time>2021-09-01T13:29:52.000Z</time>
      </trkpt>
      <trkpt lat="44.39722" lon="6.42444">
        <ele>1728</ele>
        <time>2021-09-01T13:29:53.000Z</time>
      </trkpt>
      <trkpt lat="44.39725" lon="6.42445">
        <ele>1726</ele>
        <time>2021-09-01T13:29:54.000Z</time>
      </trkpt>
      <trkpt lat="44.39732" lon="6.42449">
        <ele>1725</ele>
        <time>2021-09-01T13:29:55.000Z</time>
      </trkpt>
      <trkpt lat="44.39736" lon="6.42451">
        <ele>1724</ele>
        <time>2021-09-01T13:29:56.000Z</time>
      </trkpt>
      <trkpt lat="44.3974" lon="6.42452">
        <ele>1724</ele>
        <time>2021-09-01T13:29:57.000Z</time>
      </trkpt>
      <trkpt lat="44.39742" lon="6.42457">
        <ele>1723</ele>
        <time>2021-09-01T13:29:58.000Z</time>
      </trkpt>
      <trkpt lat="44.39746" lon="6.42462">
        <ele>1723</ele>
        <time>2021-09-01T13:29:59.000Z</time>
      </trkpt>
      <trkpt lat="44.39748" lon="6.42465">
        <ele>1723</ele>
        <time>2021-09-01T13:30:00.000Z</time>
      </trkpt>
      <trkpt lat="44.39753" lon="6.42469">
        <ele>1723</ele>
        <time>2021-09-01T13:30:01.000Z</time>
      </trkpt>
      <trkpt lat="44.39758" lon="6.42471">
        <ele>1723</ele>
        <time>2021-09-01T13:30:02.000Z</time>
      </trkpt>
      <trkpt lat="44.3976" lon="6.42474">
        <ele>1723</ele>
        <time>2021-09-01T13:30:03.000Z</time>
      </trkpt>
      <trkpt lat="44.39763" lon="6.42478">
        <ele>1723</ele>
        <time>2021-09-01T13:30:04.000Z</time>
      </trkpt>
      <trkpt lat="44.39765" lon="6.42483">
        <ele>1723</ele>
        <time>2021-09-01T13:30:05.000Z</time>
      </trkpt>
      <trkpt lat="44.39769" lon="6.42487">
        <ele>1723</ele>
        <time>2021-09-01T13:30:06.000Z</time>
      </trkpt>
      <trkpt lat="44.39773" lon="6.42489">
        <ele>1723</ele>
        <time>2021-09-01T13:30:07.000Z</time>
      </trkpt>
      <trkpt lat="44.39776" lon="6.42495">
        <ele>1723</ele>
        <time>2021-09-01T13:30:08.000Z</time>
      </trkpt>
      <trkpt lat="44.3978" lon="6.42498">
        <ele>1723</ele>
        <time>2021-09-01T13:30:09.000Z</time>
      </trkpt>
      <trkpt lat="44.39783" lon="6.42502">
        <ele>1723</ele>
        <time>2021-09-01T13:30:10.000Z</time>
      </trkpt>
      <trkpt lat="44.39787" lon="6.42506">
        <ele>1722</ele>
        <time>2021-09-01T13:30:11.000Z</time>
      </trkpt>
      <trkpt lat="44.3979" lon="6.42511">
        <ele>1722</ele>
        <time>2021-09-01T13:30:12.000Z</time>
      </trkpt>
      <trkpt lat="44.39793" lon="6.42514">
        <ele>1721</ele>
        <time>2021-09-01T13:30:13.000Z</time>
      </trkpt>
      <trkpt lat="44.39797" lon="6.42516">
        <ele>1721</ele>
        <time>2021-09-01T13:30:14.000Z</time>
      </trkpt>
      <trkpt lat="44.398" lon="6.4252">
        <ele>1720</ele>
        <time>2021-09-01T13:30:15.000Z</time>
      </trkpt>
      <trkpt lat="44.39803" lon="6.42527">
        <ele>1720</ele>
        <time>2021-09-01T13:30:16.000Z</time>
      </trkpt>
      <trkpt lat="44.39806" lon="6.42532">
        <ele>1720</ele>
        <time>2021-09-01T13:30:17.000Z</time>
      </trkpt>
      <trkpt lat="44.39809" lon="6.42535">
        <ele>1720</ele>
        <time>2021-09-01T13:30:18.000Z</time>
      </trkpt>
      <trkpt lat="44.39812" lon="6.42538">
        <ele>1720</ele>
        <time>2021-09-01T13:30:19.000Z</time>
      </trkpt>
      <trkpt lat="44.39816" lon="6.42542">
        <ele>1720</ele>
        <time>2021-09-01T13:30:20.000Z</time>
      </trkpt>
      <trkpt lat="44.3982" lon="6.42545">
        <ele>1720</ele>
        <time>2021-09-01T13:30:21.000Z</time>
      </trkpt>
      <trkpt lat="44.39821" lon="6.42548">
        <ele>1719</ele>
        <time>2021-09-01T13:30:22.000Z</time>
      </trkpt>
      <trkpt lat="44.39823" lon="6.42551">
        <ele>1719</ele>
        <time>2021-09-01T13:30:23.000Z</time>
      </trkpt>
      <trkpt lat="44.39825" lon="6.42554">
        <ele>1719</ele>
        <time>2021-09-01T13:30:24.000Z</time>
      </trkpt>
      <trkpt lat="44.39829" lon="6.42556">
        <ele>1719</ele>
        <time>2021-09-01T13:30:25.000Z</time>
      </trkpt>
      <trkpt lat="44.39832" lon="6.42559">
        <ele>1718</ele>
        <time>2021-09-01T13:30:26.000Z</time>
      </trkpt>
      <trkpt lat="44.39835" lon="6.42562">
        <ele>1718</ele>
        <time>2021-09-01T13:30:27.000Z</time>
      </trkpt>
      <trkpt lat="44.39839" lon="6.42565">
        <ele>1717</ele>
        <time>2021-09-01T13:30:28.000Z</time>
      </trkpt>
      <trkpt lat="44.39842" lon="6.42567">
        <ele>1717</ele>
        <time>2021-09-01T13:30:29.000Z</time>
      </trkpt>
      <trkpt lat="44.39845" lon="6.42571">
        <ele>1716</ele>
        <time>2021-09-01T13:30:30.000Z</time>
      </trkpt>
      <trkpt lat="44.39849" lon="6.42571">
        <ele>1716</ele>
        <time>2021-09-01T13:30:31.000Z</time>
      </trkpt>
      <trkpt lat="44.39852" lon="6.42573">
        <ele>1715</ele>
        <time>2021-09-01T13:30:32.000Z</time>
      </trkpt>
      <trkpt lat="44.39855" lon="6.42573">
        <ele>1715</ele>
        <time>2021-09-01T13:30:33.000Z</time>
      </trkpt>
      <trkpt lat="44.3986" lon="6.42573">
        <ele>1715</ele>
        <time>2021-09-01T13:30:34.000Z</time>
      </trkpt>
      <trkpt lat="44.39865" lon="6.42573">
        <ele>1715</ele>
        <time>2021-09-01T13:30:35.000Z</time>
      </trkpt>
      <trkpt lat="44.39866" lon="6.42576">
        <ele>1715</ele>
        <time>2021-09-01T13:30:36.000Z</time>
      </trkpt>
      <trkpt lat="44.39869" lon="6.42578">
        <ele>1714</ele>
        <time>2021-09-01T13:30:37.000Z</time>
      </trkpt>
      <trkpt lat="44.39874" lon="6.42577">
        <ele>1715</ele>
        <time>2021-09-01T13:30:38.000Z</time>
      </trkpt>
      <trkpt lat="44.39877" lon="6.4258">
        <ele>1715</ele>
        <time>2021-09-01T13:30:39.000Z</time>
      </trkpt>
      <trkpt lat="44.39881" lon="6.42583">
        <ele>1715</ele>
        <time>2021-09-01T13:30:40.000Z</time>
      </trkpt>
      <trkpt lat="44.39886" lon="6.42586">
        <ele>1714</ele>
        <time>2021-09-01T13:30:41.000Z</time>
      </trkpt>
      <trkpt lat="44.3989" lon="6.4259">
        <ele>1713</ele>
        <time>2021-09-01T13:30:42.000Z</time>
      </trkpt>
      <trkpt lat="44.39895" lon="6.42595">
        <ele>1711</ele>
        <time>2021-09-01T13:30:43.000Z</time>
      </trkpt>
      <trkpt lat="44.39901" lon="6.42598">
        <ele>1711</ele>
        <time>2021-09-01T13:30:44.000Z</time>
      </trkpt>
      <trkpt lat="44.39905" lon="6.42601">
        <ele>1711</ele>
        <time>2021-09-01T13:30:45.000Z</time>
      </trkpt>
      <trkpt lat="44.39911" lon="6.42604">
        <ele>1711</ele>
        <time>2021-09-01T13:30:46.000Z</time>
      </trkpt>
      <trkpt lat="44.39915" lon="6.42605">
        <ele>1711</ele>
        <time>2021-09-01T13:30:47.000Z</time>
      </trkpt>
      <trkpt lat="44.39921" lon="6.42607">
        <ele>1711</ele>
        <time>2021-09-01T13:30:48.000Z</time>
      </trkpt>
      <trkpt lat="44.39927" lon="6.42607">
        <ele>1710</ele>
        <time>2021-09-01T13:30:49.000Z</time>
      </trkpt>
      <trkpt lat="44.39928" lon="6.42611">
        <ele>1711</ele>
        <time>2021-09-01T13:30:50.000Z</time>
      </trkpt>
      <trkpt lat="44.39928" lon="6.42616">
        <ele>1712</ele>
        <time>2021-09-01T13:30:51.000Z</time>
      </trkpt>
      <trkpt lat="44.39931" lon="6.42615">
        <ele>1712</ele>
        <time>2021-09-01T13:30:52.000Z</time>
      </trkpt>
      <trkpt lat="44.39936" lon="6.42613">
        <ele>1712</ele>
        <time>2021-09-01T13:30:53.000Z</time>
      </trkpt>
      <trkpt lat="44.3994" lon="6.42611">
        <ele>1711</ele>
        <time>2021-09-01T13:30:54.000Z</time>
      </trkpt>
      <trkpt lat="44.39943" lon="6.42608">
        <ele>1711</ele>
        <time>2021-09-01T13:30:55.000Z</time>
      </trkpt>
      <trkpt lat="44.39945" lon="6.42606">
        <ele>1711</ele>
        <time>2021-09-01T13:30:56.000Z</time>
      </trkpt>
      <trkpt lat="44.39951" lon="6.42601">
        <ele>1712</ele>
        <time>2021-09-01T13:30:57.000Z</time>
      </trkpt>
      <trkpt lat="44.39953" lon="6.426">
        <ele>1712</ele>
        <time>2021-09-01T13:30:58.000Z</time>
      </trkpt>
      <trkpt lat="44.39953" lon="6.42598">
        <ele>1712</ele>
        <time>2021-09-01T13:30:59.000Z</time>
      </trkpt>
      <trkpt lat="44.39955" lon="6.42596">
        <ele>1712</ele>
        <time>2021-09-01T13:31:00.000Z</time>
      </trkpt>
      <trkpt lat="44.39957" lon="6.42591">
        <ele>1711</ele>
        <time>2021-09-01T13:31:01.000Z</time>
      </trkpt>
      <trkpt lat="44.39958" lon="6.42587">
        <ele>1711</ele>
        <time>2021-09-01T13:31:02.000Z</time>
      </trkpt>
      <trkpt lat="44.39959" lon="6.42582">
        <ele>1710</ele>
        <time>2021-09-01T13:31:03.000Z</time>
      </trkpt>
      <trkpt lat="44.3996" lon="6.42577">
        <ele>1709</ele>
        <time>2021-09-01T13:31:04.000Z</time>
      </trkpt>
      <trkpt lat="44.39961" lon="6.42572">
        <ele>1709</ele>
        <time>2021-09-01T13:31:05.000Z</time>
      </trkpt>
      <trkpt lat="44.39962" lon="6.42566">
        <ele>1708</ele>
        <time>2021-09-01T13:31:06.000Z</time>
      </trkpt>
      <trkpt lat="44.39964" lon="6.42561">
        <ele>1708</ele>
        <time>2021-09-01T13:31:07.000Z</time>
      </trkpt>
      <trkpt lat="44.39965" lon="6.42555">
        <ele>1707</ele>
        <time>2021-09-01T13:31:08.000Z</time>
      </trkpt>
      <trkpt lat="44.39967" lon="6.4255">
        <ele>1707</ele>
        <time>2021-09-01T13:31:09.000Z</time>
      </trkpt>
      <trkpt lat="44.39968" lon="6.42545">
        <ele>1706</ele>
        <time>2021-09-01T13:31:10.000Z</time>
      </trkpt>
      <trkpt lat="44.39971" lon="6.42539">
        <ele>1706</ele>
        <time>2021-09-01T13:31:11.000Z</time>
      </trkpt>
      <trkpt lat="44.39974" lon="6.42533">
        <ele>1705</ele>
        <time>2021-09-01T13:31:12.000Z</time>
      </trkpt>
      <trkpt lat="44.39976" lon="6.42527">
        <ele>1704</ele>
        <time>2021-09-01T13:31:13.000Z</time>
      </trkpt>
      <trkpt lat="44.39978" lon="6.42522">
        <ele>1702</ele>
        <time>2021-09-01T13:31:14.000Z</time>
      </trkpt>
      <trkpt lat="44.3998" lon="6.42517">
        <ele>1702</ele>
        <time>2021-09-01T13:31:15.000Z</time>
      </trkpt>
      <trkpt lat="44.3998" lon="6.42511">
        <ele>1701</ele>
        <time>2021-09-01T13:31:16.000Z</time>
      </trkpt>
      <trkpt lat="44.39981" lon="6.42506">
        <ele>1700</ele>
        <time>2021-09-01T13:31:17.000Z</time>
      </trkpt>
      <trkpt lat="44.39984" lon="6.42499">
        <ele>1700</ele>
        <time>2021-09-01T13:31:18.000Z</time>
      </trkpt>
      <trkpt lat="44.39987" lon="6.42494">
        <ele>1700</ele>
        <time>2021-09-01T13:31:19.000Z</time>
      </trkpt>
      <trkpt lat="44.39991" lon="6.42489">
        <ele>1699</ele>
        <time>2021-09-01T13:31:20.000Z</time>
      </trkpt>
      <trkpt lat="44.39995" lon="6.42484">
        <ele>1699</ele>
        <time>2021-09-01T13:31:21.000Z</time>
      </trkpt>
      <trkpt lat="44.39998" lon="6.42478">
        <ele>1697</ele>
        <time>2021-09-01T13:31:22.000Z</time>
      </trkpt>
      <trkpt lat="44.4" lon="6.42471">
        <ele>1697</ele>
        <time>2021-09-01T13:31:23.000Z</time>
      </trkpt>
      <trkpt lat="44.40001" lon="6.42463">
        <ele>1696</ele>
        <time>2021-09-01T13:31:24.000Z</time>
      </trkpt>
      <trkpt lat="44.40002" lon="6.42455">
        <ele>1696</ele>
        <time>2021-09-01T13:31:25.000Z</time>
      </trkpt>
      <trkpt lat="44.40004" lon="6.42448">
        <ele>1696</ele>
        <time>2021-09-01T13:31:26.000Z</time>
      </trkpt>
      <trkpt lat="44.40005" lon="6.42441">
        <ele>1696</ele>
        <time>2021-09-01T13:31:27.000Z</time>
      </trkpt>
      <trkpt lat="44.40008" lon="6.42434">
        <ele>1696</ele>
        <time>2021-09-01T13:31:28.000Z</time>
      </trkpt>
      <trkpt lat="44.4001" lon="6.42426">
        <ele>1695</ele>
        <time>2021-09-01T13:31:29.000Z</time>
      </trkpt>
      <trkpt lat="44.40012" lon="6.42419">
        <ele>1696</ele>
        <time>2021-09-01T13:31:30.000Z</time>
      </trkpt>
      <trkpt lat="44.40015" lon="6.42413">
        <ele>1696</ele>
        <time>2021-09-01T13:31:31.000Z</time>
      </trkpt>
      <trkpt lat="44.40016" lon="6.42407">
        <ele>1696</ele>
        <time>2021-09-01T13:31:32.000Z</time>
      </trkpt>
      <trkpt lat="44.40019" lon="6.424">
        <ele>1696</ele>
        <time>2021-09-01T13:31:33.000Z</time>
      </trkpt>
      <trkpt lat="44.40021" lon="6.42394">
        <ele>1696</ele>
        <time>2021-09-01T13:31:34.000Z</time>
      </trkpt>
      <trkpt lat="44.40023" lon="6.42388">
        <ele>1696</ele>
        <time>2021-09-01T13:31:35.000Z</time>
      </trkpt>
      <trkpt lat="44.40026" lon="6.42382">
        <ele>1695</ele>
        <time>2021-09-01T13:31:36.000Z</time>
      </trkpt>
      <trkpt lat="44.40029" lon="6.42377">
        <ele>1696</ele>
        <time>2021-09-01T13:31:37.000Z</time>
      </trkpt>
      <trkpt lat="44.40031" lon="6.42371">
        <ele>1696</ele>
        <time>2021-09-01T13:31:38.000Z</time>
      </trkpt>
      <trkpt lat="44.40034" lon="6.42367">
        <ele>1697</ele>
        <time>2021-09-01T13:31:39.000Z</time>
      </trkpt>
      <trkpt lat="44.40036" lon="6.42361">
        <ele>1697</ele>
        <time>2021-09-01T13:31:40.000Z</time>
      </trkpt>
      <trkpt lat="44.40039" lon="6.42357">
        <ele>1697</ele>
        <time>2021-09-01T13:31:41.000Z</time>
      </trkpt>
      <trkpt lat="44.40042" lon="6.42354">
        <ele>1698</ele>
        <time>2021-09-01T13:31:42.000Z</time>
      </trkpt>
      <trkpt lat="44.40045" lon="6.4235">
        <ele>1699</ele>
        <time>2021-09-01T13:31:43.000Z</time>
      </trkpt>
      <trkpt lat="44.40049" lon="6.42345">
        <ele>1700</ele>
        <time>2021-09-01T13:31:44.000Z</time>
      </trkpt>
      <trkpt lat="44.40052" lon="6.4234">
        <ele>1701</ele>
        <time>2021-09-01T13:31:45.000Z</time>
      </trkpt>
      <trkpt lat="44.40055" lon="6.42336">
        <ele>1702</ele>
        <time>2021-09-01T13:31:46.000Z</time>
      </trkpt>
      <trkpt lat="44.40059" lon="6.42333">
        <ele>1704</ele>
        <time>2021-09-01T13:31:47.000Z</time>
      </trkpt>
      <trkpt lat="44.40061" lon="6.42328">
        <ele>1705</ele>
        <time>2021-09-01T13:31:48.000Z</time>
      </trkpt>
      <trkpt lat="44.40063" lon="6.42324">
        <ele>1706</ele>
        <time>2021-09-01T13:31:49.000Z</time>
      </trkpt>
      <trkpt lat="44.40064" lon="6.42316">
        <ele>1708</ele>
        <time>2021-09-01T13:31:50.000Z</time>
      </trkpt>
      <trkpt lat="44.40065" lon="6.42308">
        <ele>1708</ele>
        <time>2021-09-01T13:31:51.000Z</time>
      </trkpt>
      <trkpt lat="44.40066" lon="6.42302">
        <ele>1709</ele>
        <time>2021-09-01T13:31:52.000Z</time>
      </trkpt>
      <trkpt lat="44.40068" lon="6.42294">
        <ele>1708</ele>
        <time>2021-09-01T13:31:53.000Z</time>
      </trkpt>
      <trkpt lat="44.40069" lon="6.42287">
        <ele>1707</ele>
        <time>2021-09-01T13:31:54.000Z</time>
      </trkpt>
      <trkpt lat="44.4007" lon="6.42281">
        <ele>1706</ele>
        <time>2021-09-01T13:31:55.000Z</time>
      </trkpt>
      <trkpt lat="44.40072" lon="6.42274">
        <ele>1705</ele>
        <time>2021-09-01T13:31:56.000Z</time>
      </trkpt>
      <trkpt lat="44.40075" lon="6.42266">
        <ele>1705</ele>
        <time>2021-09-01T13:31:57.000Z</time>
      </trkpt>
      <trkpt lat="44.40079" lon="6.4226">
        <ele>1705</ele>
        <time>2021-09-01T13:31:58.000Z</time>
      </trkpt>
      <trkpt lat="44.40083" lon="6.42253">
        <ele>1705</ele>
        <time>2021-09-01T13:31:59.000Z</time>
      </trkpt>
      <trkpt lat="44.40087" lon="6.42247">
        <ele>1704</ele>
        <time>2021-09-01T13:32:00.000Z</time>
      </trkpt>
      <trkpt lat="44.40094" lon="6.42242">
        <ele>1704</ele>
        <time>2021-09-01T13:32:01.000Z</time>
      </trkpt>
      <trkpt lat="44.40102" lon="6.42238">
        <ele>1704</ele>
        <time>2021-09-01T13:32:02.000Z</time>
      </trkpt>
      <trkpt lat="44.40108" lon="6.42234">
        <ele>1705</ele>
        <time>2021-09-01T13:32:03.000Z</time>
      </trkpt>
      <trkpt lat="44.40115" lon="6.4223">
        <ele>1706</ele>
        <time>2021-09-01T13:32:04.000Z</time>
      </trkpt>
      <trkpt lat="44.40123" lon="6.42225">
        <ele>1707</ele>
        <time>2021-09-01T13:32:05.000Z</time>
      </trkpt>
      <trkpt lat="44.4013" lon="6.4222">
        <ele>1705</ele>
        <time>2021-09-01T13:32:06.000Z</time>
      </trkpt>
      <trkpt lat="44.40136" lon="6.42215">
        <ele>1707</ele>
        <time>2021-09-01T13:32:07.000Z</time>
      </trkpt>
      <trkpt lat="44.40142" lon="6.42209">
        <ele>1705</ele>
        <time>2021-09-01T13:32:08.000Z</time>
      </trkpt>
      <trkpt lat="44.40148" lon="6.42205">
        <ele>1705</ele>
        <time>2021-09-01T13:32:09.000Z</time>
      </trkpt>
      <trkpt lat="44.40154" lon="6.42199">
        <ele>1703</ele>
        <time>2021-09-01T13:32:10.000Z</time>
      </trkpt>
      <trkpt lat="44.40162" lon="6.42195">
        <ele>1704</ele>
        <time>2021-09-01T13:32:11.000Z</time>
      </trkpt>
      <trkpt lat="44.40169" lon="6.42189">
        <ele>1705</ele>
        <time>2021-09-01T13:32:12.000Z</time>
      </trkpt>
      <trkpt lat="44.40176" lon="6.42184">
        <ele>1707</ele>
        <time>2021-09-01T13:32:13.000Z</time>
      </trkpt>
      <trkpt lat="44.40182" lon="6.42177">
        <ele>1708</ele>
        <time>2021-09-01T13:32:14.000Z</time>
      </trkpt>
      <trkpt lat="44.40189" lon="6.42171">
        <ele>1709</ele>
        <time>2021-09-01T13:32:15.000Z</time>
      </trkpt>
      <trkpt lat="44.40194" lon="6.42164">
        <ele>1709</ele>
        <time>2021-09-01T13:32:16.000Z</time>
      </trkpt>
      <trkpt lat="44.40199" lon="6.42159">
        <ele>1709</ele>
        <time>2021-09-01T13:32:17.000Z</time>
      </trkpt>
      <trkpt lat="44.40202" lon="6.42153">
        <ele>1709</ele>
        <time>2021-09-01T13:32:18.000Z</time>
      </trkpt>
      <trkpt lat="44.40203" lon="6.42148">
        <ele>1710</ele>
        <time>2021-09-01T13:32:19.000Z</time>
      </trkpt>
      <trkpt lat="44.40204" lon="6.42143">
        <ele>1710</ele>
        <time>2021-09-01T13:32:20.000Z</time>
      </trkpt>
      <trkpt lat="44.40207" lon="6.42141">
        <ele>1709</ele>
        <time>2021-09-01T13:32:21.000Z</time>
      </trkpt>
      <trkpt lat="44.40213" lon="6.42138">
        <ele>1708</ele>
        <time>2021-09-01T13:32:22.000Z</time>
      </trkpt>
      <trkpt lat="44.40219" lon="6.42136">
        <ele>1708</ele>
        <time>2021-09-01T13:32:23.000Z</time>
      </trkpt>
      <trkpt lat="44.40222" lon="6.42136">
        <ele>1707</ele>
        <time>2021-09-01T13:32:24.000Z</time>
      </trkpt>
      <trkpt lat="44.40225" lon="6.42138">
        <ele>1707</ele>
        <time>2021-09-01T13:32:25.000Z</time>
      </trkpt>
      <trkpt lat="44.40227" lon="6.4214">
        <ele>1706</ele>
        <time>2021-09-01T13:32:26.000Z</time>
      </trkpt>
      <trkpt lat="44.4023" lon="6.42143">
        <ele>1706</ele>
        <time>2021-09-01T13:32:27.000Z</time>
      </trkpt>
      <trkpt lat="44.40233" lon="6.42146">
        <ele>1705</ele>
        <time>2021-09-01T13:32:28.000Z</time>
      </trkpt>
      <trkpt lat="44.40236" lon="6.42151">
        <ele>1706</ele>
        <time>2021-09-01T13:32:29.000Z</time>
      </trkpt>
      <trkpt lat="44.40237" lon="6.42156">
        <ele>1706</ele>
        <time>2021-09-01T13:32:30.000Z</time>
      </trkpt>
      <trkpt lat="44.4024" lon="6.42159">
        <ele>1706</ele>
        <time>2021-09-01T13:32:31.000Z</time>
      </trkpt>
      <trkpt lat="44.40241" lon="6.42164">
        <ele>1706</ele>
        <time>2021-09-01T13:32:32.000Z</time>
      </trkpt>
      <trkpt lat="44.40242" lon="6.42167">
        <ele>1706</ele>
        <time>2021-09-01T13:32:33.000Z</time>
      </trkpt>
      <trkpt lat="44.40243" lon="6.42172">
        <ele>1706</ele>
        <time>2021-09-01T13:32:34.000Z</time>
      </trkpt>
      <trkpt lat="44.40244" lon="6.42177">
        <ele>1706</ele>
        <time>2021-09-01T13:32:35.000Z</time>
      </trkpt>
      <trkpt lat="44.40244" lon="6.42181">
        <ele>1706</ele>
        <time>2021-09-01T13:32:36.000Z</time>
      </trkpt>
      <trkpt lat="44.40246" lon="6.42187">
        <ele>1705</ele>
        <time>2021-09-01T13:32:37.000Z</time>
      </trkpt>
      <trkpt lat="44.40246" lon="6.42193">
        <ele>1704</ele>
        <time>2021-09-01T13:32:38.000Z</time>
      </trkpt>
      <trkpt lat="44.40247" lon="6.42199">
        <ele>1703</ele>
        <time>2021-09-01T13:32:39.000Z</time>
      </trkpt>
      <trkpt lat="44.40249" lon="6.42205">
        <ele>1702</ele>
        <time>2021-09-01T13:32:40.000Z</time>
      </trkpt>
      <trkpt lat="44.40251" lon="6.42211">
        <ele>1702</ele>
        <time>2021-09-01T13:32:41.000Z</time>
      </trkpt>
      <trkpt lat="44.40253" lon="6.42217">
        <ele>1701</ele>
        <time>2021-09-01T13:32:42.000Z</time>
      </trkpt>
      <trkpt lat="44.40256" lon="6.42222">
        <ele>1701</ele>
        <time>2021-09-01T13:32:43.000Z</time>
      </trkpt>
      <trkpt lat="44.40259" lon="6.42225">
        <ele>1699</ele>
        <time>2021-09-01T13:32:44.000Z</time>
      </trkpt>
      <trkpt lat="44.40261" lon="6.42233">
        <ele>1699</ele>
        <time>2021-09-01T13:32:45.000Z</time>
      </trkpt>
      <trkpt lat="44.40264" lon="6.42236">
        <ele>1698</ele>
        <time>2021-09-01T13:32:46.000Z</time>
      </trkpt>
      <trkpt lat="44.40267" lon="6.42241">
        <ele>1696</ele>
        <time>2021-09-01T13:32:47.000Z</time>
      </trkpt>
      <trkpt lat="44.4027" lon="6.42245">
        <ele>1695</ele>
        <time>2021-09-01T13:32:48.000Z</time>
      </trkpt>
      <trkpt lat="44.40272" lon="6.42251">
        <ele>1694</ele>
        <time>2021-09-01T13:32:49.000Z</time>
      </trkpt>
      <trkpt lat="44.40274" lon="6.42257">
        <ele>1694</ele>
        <time>2021-09-01T13:32:50.000Z</time>
      </trkpt>
      <trkpt lat="44.40275" lon="6.42264">
        <ele>1694</ele>
        <time>2021-09-01T13:32:51.000Z</time>
      </trkpt>
      <trkpt lat="44.40275" lon="6.4227">
        <ele>1694</ele>
        <time>2021-09-01T13:32:52.000Z</time>
      </trkpt>
      <trkpt lat="44.40276" lon="6.42276">
        <ele>1693</ele>
        <time>2021-09-01T13:32:53.000Z</time>
      </trkpt>
      <trkpt lat="44.40277" lon="6.42282">
        <ele>1693</ele>
        <time>2021-09-01T13:32:54.000Z</time>
      </trkpt>
      <trkpt lat="44.40278" lon="6.42287">
        <ele>1693</ele>
        <time>2021-09-01T13:32:55.000Z</time>
      </trkpt>
      <trkpt lat="44.40278" lon="6.42292">
        <ele>1692</ele>
        <time>2021-09-01T13:32:56.000Z</time>
      </trkpt>
      <trkpt lat="44.40279" lon="6.42297">
        <ele>1692</ele>
        <time>2021-09-01T13:32:57.000Z</time>
      </trkpt>
      <trkpt lat="44.40278" lon="6.42303">
        <ele>1692</ele>
        <time>2021-09-01T13:32:58.000Z</time>
      </trkpt>
      <trkpt lat="44.40278" lon="6.42309">
        <ele>1692</ele>
        <time>2021-09-01T13:32:59.000Z</time>
      </trkpt>
      <trkpt lat="44.40278" lon="6.42316">
        <ele>1692</ele>
        <time>2021-09-01T13:33:00.000Z</time>
      </trkpt>
      <trkpt lat="44.40278" lon="6.42321">
        <ele>1692</ele>
        <time>2021-09-01T13:33:01.000Z</time>
      </trkpt>
      <trkpt lat="44.40279" lon="6.42328">
        <ele>1691</ele>
        <time>2021-09-01T13:33:02.000Z</time>
      </trkpt>
      <trkpt lat="44.40279" lon="6.42334">
        <ele>1691</ele>
        <time>2021-09-01T13:33:03.000Z</time>
      </trkpt>
      <trkpt lat="44.40279" lon="6.4234">
        <ele>1691</ele>
        <time>2021-09-01T13:33:04.000Z</time>
      </trkpt>
      <trkpt lat="44.40279" lon="6.42346">
        <ele>1691</ele>
        <time>2021-09-01T13:33:05.000Z</time>
      </trkpt>
      <trkpt lat="44.4028" lon="6.42353">
        <ele>1690</ele>
        <time>2021-09-01T13:33:06.000Z</time>
      </trkpt>
      <trkpt lat="44.4028" lon="6.4236">
        <ele>1690</ele>
        <time>2021-09-01T13:33:07.000Z</time>
      </trkpt>
      <trkpt lat="44.4028" lon="6.42367">
        <ele>1691</ele>
        <time>2021-09-01T13:33:08.000Z</time>
      </trkpt>
      <trkpt lat="44.4028" lon="6.42375">
        <ele>1691</ele>
        <time>2021-09-01T13:33:09.000Z</time>
      </trkpt>
      <trkpt lat="44.4028" lon="6.42383">
        <ele>1692</ele>
        <time>2021-09-01T13:33:10.000Z</time>
      </trkpt>
      <trkpt lat="44.4028" lon="6.4239">
        <ele>1692</ele>
        <time>2021-09-01T13:33:11.000Z</time>
      </trkpt>
      <trkpt lat="44.4028" lon="6.42398">
        <ele>1692</ele>
        <time>2021-09-01T13:33:12.000Z</time>
      </trkpt>
      <trkpt lat="44.4028" lon="6.42407">
        <ele>1692</ele>
        <time>2021-09-01T13:33:13.000Z</time>
      </trkpt>
      <trkpt lat="44.40279" lon="6.42415">
        <ele>1693</ele>
        <time>2021-09-01T13:33:14.000Z</time>
      </trkpt>
      <trkpt lat="44.40279" lon="6.42423">
        <ele>1693</ele>
        <time>2021-09-01T13:33:15.000Z</time>
      </trkpt>
      <trkpt lat="44.40279" lon="6.42433">
        <ele>1694</ele>
        <time>2021-09-01T13:33:16.000Z</time>
      </trkpt>
      <trkpt lat="44.4028" lon="6.42442">
        <ele>1694</ele>
        <time>2021-09-01T13:33:17.000Z</time>
      </trkpt>
      <trkpt lat="44.4028" lon="6.42451">
        <ele>1694</ele>
        <time>2021-09-01T13:33:18.000Z</time>
      </trkpt>
      <trkpt lat="44.4028" lon="6.42462">
        <ele>1694</ele>
        <time>2021-09-01T13:33:19.000Z</time>
      </trkpt>
      <trkpt lat="44.40281" lon="6.42472">
        <ele>1694</ele>
        <time>2021-09-01T13:33:20.000Z</time>
      </trkpt>
      <trkpt lat="44.40282" lon="6.42483">
        <ele>1694</ele>
        <time>2021-09-01T13:33:21.000Z</time>
      </trkpt>
      <trkpt lat="44.40282" lon="6.42495">
        <ele>1694</ele>
        <time>2021-09-01T13:33:22.000Z</time>
      </trkpt>
      <trkpt lat="44.40281" lon="6.42507">
        <ele>1694</ele>
        <time>2021-09-01T13:33:23.000Z</time>
      </trkpt>
      <trkpt lat="44.40282" lon="6.42518">
        <ele>1694</ele>
        <time>2021-09-01T13:33:24.000Z</time>
      </trkpt>
      <trkpt lat="44.40285" lon="6.42529">
        <ele>1693</ele>
        <time>2021-09-01T13:33:25.000Z</time>
      </trkpt>
      <trkpt lat="44.40287" lon="6.4254">
        <ele>1693</ele>
        <time>2021-09-01T13:33:26.000Z</time>
      </trkpt>
      <trkpt lat="44.4029" lon="6.4255">
        <ele>1692</ele>
        <time>2021-09-01T13:33:27.000Z</time>
      </trkpt>
      <trkpt lat="44.40293" lon="6.4256">
        <ele>1693</ele>
        <time>2021-09-01T13:33:28.000Z</time>
      </trkpt>
      <trkpt lat="44.40294" lon="6.42571">
        <ele>1693</ele>
        <time>2021-09-01T13:33:29.000Z</time>
      </trkpt>
      <trkpt lat="44.40297" lon="6.42582">
        <ele>1694</ele>
        <time>2021-09-01T13:33:30.000Z</time>
      </trkpt>
      <trkpt lat="44.40301" lon="6.42591">
        <ele>1694</ele>
        <time>2021-09-01T13:33:31.000Z</time>
      </trkpt>
      <trkpt lat="44.40303" lon="6.42601">
        <ele>1695</ele>
        <time>2021-09-01T13:33:32.000Z</time>
      </trkpt>
      <trkpt lat="44.40306" lon="6.4261">
        <ele>1694</ele>
        <time>2021-09-01T13:33:33.000Z</time>
      </trkpt>
      <trkpt lat="44.4031" lon="6.42618">
        <ele>1693</ele>
        <time>2021-09-01T13:33:34.000Z</time>
      </trkpt>
      <trkpt lat="44.40315" lon="6.42626">
        <ele>1692</ele>
        <time>2021-09-01T13:33:35.000Z</time>
      </trkpt>
      <trkpt lat="44.4032" lon="6.42632">
        <ele>1692</ele>
        <time>2021-09-01T13:33:36.000Z</time>
      </trkpt>
      <trkpt lat="44.40325" lon="6.42638">
        <ele>1690</ele>
        <time>2021-09-01T13:33:37.000Z</time>
      </trkpt>
      <trkpt lat="44.4033" lon="6.42642">
        <ele>1691</ele>
        <time>2021-09-01T13:33:38.000Z</time>
      </trkpt>
      <trkpt lat="44.40335" lon="6.42644">
        <ele>1690</ele>
        <time>2021-09-01T13:33:39.000Z</time>
      </trkpt>
      <trkpt lat="44.4034" lon="6.42647">
        <ele>1689</ele>
        <time>2021-09-01T13:33:40.000Z</time>
      </trkpt>
      <trkpt lat="44.40346" lon="6.42647">
        <ele>1687</ele>
        <time>2021-09-01T13:33:41.000Z</time>
      </trkpt>
      <trkpt lat="44.40353" lon="6.42644">
        <ele>1686</ele>
        <time>2021-09-01T13:33:42.000Z</time>
      </trkpt>
      <trkpt lat="44.40359" lon="6.42643">
        <ele>1685</ele>
        <time>2021-09-01T13:33:43.000Z</time>
      </trkpt>
      <trkpt lat="44.40365" lon="6.42642">
        <ele>1684</ele>
        <time>2021-09-01T13:33:44.000Z</time>
      </trkpt>
      <trkpt lat="44.40371" lon="6.4264">
        <ele>1683</ele>
        <time>2021-09-01T13:33:45.000Z</time>
      </trkpt>
      <trkpt lat="44.40378" lon="6.42642">
        <ele>1682</ele>
        <time>2021-09-01T13:33:46.000Z</time>
      </trkpt>
      <trkpt lat="44.40383" lon="6.42646">
        <ele>1680</ele>
        <time>2021-09-01T13:33:47.000Z</time>
      </trkpt>
      <trkpt lat="44.40388" lon="6.42647">
        <ele>1679</ele>
        <time>2021-09-01T13:33:48.000Z</time>
      </trkpt>
      <trkpt lat="44.40393" lon="6.42647">
        <ele>1678</ele>
        <time>2021-09-01T13:33:49.000Z</time>
      </trkpt>
      <trkpt lat="44.40398" lon="6.42647">
        <ele>1677</ele>
        <time>2021-09-01T13:33:50.000Z</time>
      </trkpt>
      <trkpt lat="44.404" lon="6.42651">
        <ele>1676</ele>
        <time>2021-09-01T13:33:51.000Z</time>
      </trkpt>
      <trkpt lat="44.40404" lon="6.42654">
        <ele>1675</ele>
        <time>2021-09-01T13:33:52.000Z</time>
      </trkpt>
      <trkpt lat="44.40409" lon="6.42657">
        <ele>1674</ele>
        <time>2021-09-01T13:33:53.000Z</time>
      </trkpt>
      <trkpt lat="44.40413" lon="6.42659">
        <ele>1673</ele>
        <time>2021-09-01T13:33:54.000Z</time>
      </trkpt>
      <trkpt lat="44.40417" lon="6.42662">
        <ele>1672</ele>
        <time>2021-09-01T13:33:55.000Z</time>
      </trkpt>
      <trkpt lat="44.40421" lon="6.42667">
        <ele>1672</ele>
        <time>2021-09-01T13:33:56.000Z</time>
      </trkpt>
      <trkpt lat="44.40425" lon="6.42671">
        <ele>1672</ele>
        <time>2021-09-01T13:33:57.000Z</time>
      </trkpt>
      <trkpt lat="44.40429" lon="6.42678">
        <ele>1672</ele>
        <time>2021-09-01T13:33:58.000Z</time>
      </trkpt>
      <trkpt lat="44.40434" lon="6.42688">
        <ele>1672</ele>
        <time>2021-09-01T13:33:59.000Z</time>
      </trkpt>
      <trkpt lat="44.40439" lon="6.42697">
        <ele>1672</ele>
        <time>2021-09-01T13:34:00.000Z</time>
      </trkpt>
      <trkpt lat="44.40443" lon="6.42706">
        <ele>1673</ele>
        <time>2021-09-01T13:34:01.000Z</time>
      </trkpt>
      <trkpt lat="44.40447" lon="6.42715">
        <ele>1673</ele>
        <time>2021-09-01T13:34:02.000Z</time>
      </trkpt>
      <trkpt lat="44.40452" lon="6.42722">
        <ele>1672</ele>
        <time>2021-09-01T13:34:03.000Z</time>
      </trkpt>
      <trkpt lat="44.40456" lon="6.42729">
        <ele>1672</ele>
        <time>2021-09-01T13:34:04.000Z</time>
      </trkpt>
      <trkpt lat="44.40461" lon="6.42736">
        <ele>1672</ele>
        <time>2021-09-01T13:34:05.000Z</time>
      </trkpt>
      <trkpt lat="44.40464" lon="6.42742">
        <ele>1672</ele>
        <time>2021-09-01T13:34:06.000Z</time>
      </trkpt>
      <trkpt lat="44.40468" lon="6.42746">
        <ele>1672</ele>
        <time>2021-09-01T13:34:07.000Z</time>
      </trkpt>
      <trkpt lat="44.40472" lon="6.42753">
        <ele>1671</ele>
        <time>2021-09-01T13:34:08.000Z</time>
      </trkpt>
      <trkpt lat="44.40477" lon="6.42758">
        <ele>1670</ele>
        <time>2021-09-01T13:34:09.000Z</time>
      </trkpt>
      <trkpt lat="44.4048" lon="6.42766">
        <ele>1669</ele>
        <time>2021-09-01T13:34:10.000Z</time>
      </trkpt>
      <trkpt lat="44.40484" lon="6.42772">
        <ele>1668</ele>
        <time>2021-09-01T13:34:11.000Z</time>
      </trkpt>
      <trkpt lat="44.40489" lon="6.42775">
        <ele>1668</ele>
        <time>2021-09-01T13:34:12.000Z</time>
      </trkpt>
      <trkpt lat="44.40495" lon="6.4278">
        <ele>1668</ele>
        <time>2021-09-01T13:34:13.000Z</time>
      </trkpt>
      <trkpt lat="44.405" lon="6.42785">
        <ele>1667</ele>
        <time>2021-09-01T13:34:14.000Z</time>
      </trkpt>
      <trkpt lat="44.40506" lon="6.42787">
        <ele>1667</ele>
        <time>2021-09-01T13:34:15.000Z</time>
      </trkpt>
      <trkpt lat="44.40511" lon="6.42789">
        <ele>1666</ele>
        <time>2021-09-01T13:34:16.000Z</time>
      </trkpt>
      <trkpt lat="44.40517" lon="6.42791">
        <ele>1665</ele>
        <time>2021-09-01T13:34:17.000Z</time>
      </trkpt>
      <trkpt lat="44.40523" lon="6.42793">
        <ele>1663</ele>
        <time>2021-09-01T13:34:18.000Z</time>
      </trkpt>
      <trkpt lat="44.40529" lon="6.42794">
        <ele>1662</ele>
        <time>2021-09-01T13:34:19.000Z</time>
      </trkpt>
      <trkpt lat="44.40533" lon="6.42793">
        <ele>1661</ele>
        <time>2021-09-01T13:34:20.000Z</time>
      </trkpt>
      <trkpt lat="44.4054" lon="6.42792">
        <ele>1660</ele>
        <time>2021-09-01T13:34:21.000Z</time>
      </trkpt>
      <trkpt lat="44.40547" lon="6.42788">
        <ele>1659</ele>
        <time>2021-09-01T13:34:22.000Z</time>
      </trkpt>
      <trkpt lat="44.40555" lon="6.42785">
        <ele>1658</ele>
        <time>2021-09-01T13:34:23.000Z</time>
      </trkpt>
      <trkpt lat="44.40562" lon="6.42783">
        <ele>1658</ele>
        <time>2021-09-01T13:34:24.000Z</time>
      </trkpt>
      <trkpt lat="44.40569" lon="6.42781">
        <ele>1657</ele>
        <time>2021-09-01T13:34:25.000Z</time>
      </trkpt>
      <trkpt lat="44.40577" lon="6.42778">
        <ele>1656</ele>
        <time>2021-09-01T13:34:26.000Z</time>
      </trkpt>
      <trkpt lat="44.40586" lon="6.42774">
        <ele>1656</ele>
        <time>2021-09-01T13:34:27.000Z</time>
      </trkpt>
      <trkpt lat="44.40592" lon="6.42771">
        <ele>1656</ele>
        <time>2021-09-01T13:34:28.000Z</time>
      </trkpt>
      <trkpt lat="44.40597" lon="6.42769">
        <ele>1655</ele>
        <time>2021-09-01T13:34:29.000Z</time>
      </trkpt>
      <trkpt lat="44.40605" lon="6.42765">
        <ele>1655</ele>
        <time>2021-09-01T13:34:30.000Z</time>
      </trkpt>
      <trkpt lat="44.40613" lon="6.4276">
        <ele>1655</ele>
        <time>2021-09-01T13:34:31.000Z</time>
      </trkpt>
      <trkpt lat="44.40621" lon="6.42754">
        <ele>1655</ele>
        <time>2021-09-01T13:34:32.000Z</time>
      </trkpt>
      <trkpt lat="44.4063" lon="6.4275">
        <ele>1654</ele>
        <time>2021-09-01T13:34:33.000Z</time>
      </trkpt>
      <trkpt lat="44.40639" lon="6.42744">
        <ele>1655</ele>
        <time>2021-09-01T13:34:34.000Z</time>
      </trkpt>
      <trkpt lat="44.40648" lon="6.42739">
        <ele>1655</ele>
        <time>2021-09-01T13:34:35.000Z</time>
      </trkpt>
      <trkpt lat="44.40656" lon="6.42737">
        <ele>1655</ele>
        <time>2021-09-01T13:34:36.000Z</time>
      </trkpt>
      <trkpt lat="44.40665" lon="6.42733">
        <ele>1655</ele>
        <time>2021-09-01T13:34:37.000Z</time>
      </trkpt>
      <trkpt lat="44.40672" lon="6.42727">
        <ele>1655</ele>
        <time>2021-09-01T13:34:38.000Z</time>
      </trkpt>
      <trkpt lat="44.40679" lon="6.42721">
        <ele>1656</ele>
        <time>2021-09-01T13:34:39.000Z</time>
      </trkpt>
      <trkpt lat="44.40687" lon="6.42715">
        <ele>1656</ele>
        <time>2021-09-01T13:34:40.000Z</time>
      </trkpt>
      <trkpt lat="44.40695" lon="6.42711">
        <ele>1656</ele>
        <time>2021-09-01T13:34:41.000Z</time>
      </trkpt>
      <trkpt lat="44.40702" lon="6.42707">
        <ele>1656</ele>
        <time>2021-09-01T13:34:42.000Z</time>
      </trkpt>
      <trkpt lat="44.4071" lon="6.42702">
        <ele>1655</ele>
        <time>2021-09-01T13:34:43.000Z</time>
      </trkpt>
      <trkpt lat="44.40717" lon="6.42696">
        <ele>1655</ele>
        <time>2021-09-01T13:34:44.000Z</time>
      </trkpt>
      <trkpt lat="44.40724" lon="6.4269">
        <ele>1654</ele>
        <time>2021-09-01T13:34:45.000Z</time>
      </trkpt>
      <trkpt lat="44.40731" lon="6.42685">
        <ele>1655</ele>
        <time>2021-09-01T13:34:46.000Z</time>
      </trkpt>
      <trkpt lat="44.40738" lon="6.42683">
        <ele>1656</ele>
        <time>2021-09-01T13:34:47.000Z</time>
      </trkpt>
      <trkpt lat="44.40744" lon="6.4268">
        <ele>1656</ele>
        <time>2021-09-01T13:34:48.000Z</time>
      </trkpt>
      <trkpt lat="44.40749" lon="6.42677">
        <ele>1657</ele>
        <time>2021-09-01T13:34:49.000Z</time>
      </trkpt>
      <trkpt lat="44.40754" lon="6.42674">
        <ele>1657</ele>
        <time>2021-09-01T13:34:50.000Z</time>
      </trkpt>
      <trkpt lat="44.40758" lon="6.4267">
        <ele>1657</ele>
        <time>2021-09-01T13:34:51.000Z</time>
      </trkpt>
      <trkpt lat="44.40759" lon="6.42663">
        <ele>1656</ele>
        <time>2021-09-01T13:34:52.000Z</time>
      </trkpt>
      <trkpt lat="44.40759" lon="6.42657">
        <ele>1655</ele>
        <time>2021-09-01T13:34:53.000Z</time>
      </trkpt>
      <trkpt lat="44.40761" lon="6.42651">
        <ele>1654</ele>
        <time>2021-09-01T13:34:54.000Z</time>
      </trkpt>
      <trkpt lat="44.40763" lon="6.42645">
        <ele>1653</ele>
        <time>2021-09-01T13:34:55.000Z</time>
      </trkpt>
      <trkpt lat="44.40764" lon="6.4264">
        <ele>1652</ele>
        <time>2021-09-01T13:34:56.000Z</time>
      </trkpt>
      <trkpt lat="44.40767" lon="6.42636">
        <ele>1651</ele>
        <time>2021-09-01T13:34:57.000Z</time>
      </trkpt>
      <trkpt lat="44.40774" lon="6.42631">
        <ele>1650</ele>
        <time>2021-09-01T13:34:58.000Z</time>
      </trkpt>
      <trkpt lat="44.40777" lon="6.42625">
        <ele>1649</ele>
        <time>2021-09-01T13:34:59.000Z</time>
      </trkpt>
      <trkpt lat="44.40782" lon="6.42619">
        <ele>1648</ele>
        <time>2021-09-01T13:35:00.000Z</time>
      </trkpt>
      <trkpt lat="44.40788" lon="6.42615">
        <ele>1649</ele>
        <time>2021-09-01T13:35:01.000Z</time>
      </trkpt>
      <trkpt lat="44.40796" lon="6.42611">
        <ele>1649</ele>
        <time>2021-09-01T13:35:02.000Z</time>
      </trkpt>
      <trkpt lat="44.40803" lon="6.42607">
        <ele>1650</ele>
        <time>2021-09-01T13:35:03.000Z</time>
      </trkpt>
      <trkpt lat="44.40809" lon="6.42603">
        <ele>1650</ele>
        <time>2021-09-01T13:35:04.000Z</time>
      </trkpt>
      <trkpt lat="44.40815" lon="6.42599">
        <ele>1650</ele>
        <time>2021-09-01T13:35:05.000Z</time>
      </trkpt>
      <trkpt lat="44.4082" lon="6.42592">
        <ele>1650</ele>
        <time>2021-09-01T13:35:06.000Z</time>
      </trkpt>
      <trkpt lat="44.40823" lon="6.42586">
        <ele>1649</ele>
        <time>2021-09-01T13:35:07.000Z</time>
      </trkpt>
      <trkpt lat="44.40824" lon="6.42577">
        <ele>1649</ele>
        <time>2021-09-01T13:35:08.000Z</time>
      </trkpt>
      <trkpt lat="44.40826" lon="6.4257">
        <ele>1648</ele>
        <time>2021-09-01T13:35:09.000Z</time>
      </trkpt>
      <trkpt lat="44.40828" lon="6.42562">
        <ele>1648</ele>
        <time>2021-09-01T13:35:10.000Z</time>
      </trkpt>
      <trkpt lat="44.40829" lon="6.42552">
        <ele>1648</ele>
        <time>2021-09-01T13:35:11.000Z</time>
      </trkpt>
      <trkpt lat="44.4083" lon="6.42542">
        <ele>1647</ele>
        <time>2021-09-01T13:35:12.000Z</time>
      </trkpt>
      <trkpt lat="44.40831" lon="6.42534">
        <ele>1647</ele>
        <time>2021-09-01T13:35:13.000Z</time>
      </trkpt>
      <trkpt lat="44.40832" lon="6.42525">
        <ele>1646</ele>
        <time>2021-09-01T13:35:14.000Z</time>
      </trkpt>
      <trkpt lat="44.40835" lon="6.42518">
        <ele>1645</ele>
        <time>2021-09-01T13:35:15.000Z</time>
      </trkpt>
      <trkpt lat="44.40838" lon="6.42512">
        <ele>1645</ele>
        <time>2021-09-01T13:35:16.000Z</time>
      </trkpt>
      <trkpt lat="44.40839" lon="6.42506">
        <ele>1644</ele>
        <time>2021-09-01T13:35:17.000Z</time>
      </trkpt>
      <trkpt lat="44.4084" lon="6.42502">
        <ele>1644</ele>
        <time>2021-09-01T13:35:18.000Z</time>
      </trkpt>
      <trkpt lat="44.4084" lon="6.42496">
        <ele>1644</ele>
        <time>2021-09-01T13:35:19.000Z</time>
      </trkpt>
      <trkpt lat="44.4084" lon="6.4249">
        <ele>1644</ele>
        <time>2021-09-01T13:35:20.000Z</time>
      </trkpt>
      <trkpt lat="44.40839" lon="6.42485">
        <ele>1643</ele>
        <time>2021-09-01T13:35:21.000Z</time>
      </trkpt>
      <trkpt lat="44.40839" lon="6.4248">
        <ele>1643</ele>
        <time>2021-09-01T13:35:22.000Z</time>
      </trkpt>
      <trkpt lat="44.4084" lon="6.42476">
        <ele>1642</ele>
        <time>2021-09-01T13:35:23.000Z</time>
      </trkpt>
      <trkpt lat="44.40841" lon="6.4247">
        <ele>1642</ele>
        <time>2021-09-01T13:35:24.000Z</time>
      </trkpt>
      <trkpt lat="44.40841" lon="6.42464">
        <ele>1642</ele>
        <time>2021-09-01T13:35:25.000Z</time>
      </trkpt>
      <trkpt lat="44.40844" lon="6.42459">
        <ele>1641</ele>
        <time>2021-09-01T13:35:26.000Z</time>
      </trkpt>
      <trkpt lat="44.40845" lon="6.42457">
        <ele>1641</ele>
        <time>2021-09-01T13:35:27.000Z</time>
      </trkpt>
      <trkpt lat="44.40849" lon="6.42454">
        <ele>1640</ele>
        <time>2021-09-01T13:35:28.000Z</time>
      </trkpt>
      <trkpt lat="44.40853" lon="6.4245">
        <ele>1638</ele>
        <time>2021-09-01T13:35:29.000Z</time>
      </trkpt>
      <trkpt lat="44.40855" lon="6.42447">
        <ele>1636</ele>
        <time>2021-09-01T13:35:30.000Z</time>
      </trkpt>
      <trkpt lat="44.40857" lon="6.42445">
        <ele>1635</ele>
        <time>2021-09-01T13:35:31.000Z</time>
      </trkpt>
      <trkpt lat="44.40858" lon="6.42443">
        <ele>1634</ele>
        <time>2021-09-01T13:35:32.000Z</time>
      </trkpt>
      <trkpt lat="44.40861" lon="6.42441">
        <ele>1635</ele>
        <time>2021-09-01T13:35:33.000Z</time>
      </trkpt>
      <trkpt lat="44.40863" lon="6.4244">
        <ele>1635</ele>
        <time>2021-09-01T13:35:34.000Z</time>
      </trkpt>
      <trkpt lat="44.40864" lon="6.4244">
        <ele>1636</ele>
        <time>2021-09-01T13:35:35.000Z</time>
      </trkpt>
      <trkpt lat="44.40865" lon="6.42439">
        <ele>1636</ele>
        <time>2021-09-01T13:35:36.000Z</time>
      </trkpt>
      <trkpt lat="44.40866" lon="6.42438">
        <ele>1637</ele>
        <time>2021-09-01T13:35:37.000Z</time>
      </trkpt>
      <trkpt lat="44.40867" lon="6.42438">
        <ele>1637</ele>
        <time>2021-09-01T13:35:38.000Z</time>
      </trkpt>
      <trkpt lat="44.40868" lon="6.42437">
        <ele>1637</ele>
        <time>2021-09-01T13:35:39.000Z</time>
      </trkpt>
      <trkpt lat="44.40869" lon="6.42437">
        <ele>1637</ele>
        <time>2021-09-01T13:35:40.000Z</time>
      </trkpt>
      <trkpt lat="44.40869" lon="6.42437">
        <ele>1637</ele>
        <time>2021-09-01T13:35:41.000Z</time>
      </trkpt>
      <trkpt lat="44.40869" lon="6.42437">
        <ele>1636</ele>
        <time>2021-09-01T13:35:42.000Z</time>
      </trkpt>
      <trkpt lat="44.40869" lon="6.42437">
        <ele>1636</ele>
        <time>2021-09-01T13:35:43.000Z</time>
      </trkpt>
      <trkpt lat="44.40869" lon="6.42437">
        <ele>1635</ele>
        <time>2021-09-01T13:35:44.000Z</time>
      </trkpt>
      <trkpt lat="44.40869" lon="6.42437">
        <ele>1635</ele>
        <time>2021-09-01T13:35:45.000Z</time>
      </trkpt>
      <trkpt lat="44.4087" lon="6.42437">
        <ele>1634</ele>
        <time>2021-09-01T13:35:46.000Z</time>
      </trkpt>
      <trkpt lat="44.4087" lon="6.42437">
        <ele>1634</ele>
        <time>2021-09-01T13:35:47.000Z</time>
      </trkpt>
      <trkpt lat="44.4087" lon="6.42437">
        <ele>1634</ele>
        <time>2021-09-01T13:35:48.000Z</time>
      </trkpt>
      <trkpt lat="44.40871" lon="6.42437">
        <ele>1633</ele>
        <time>2021-09-01T13:35:49.000Z</time>
      </trkpt>
      <trkpt lat="44.40871" lon="6.42437">
        <ele>1633</ele>
        <time>2021-09-01T13:35:50.000Z</time>
      </trkpt>
      <trkpt lat="44.40871" lon="6.42437">
        <ele>1632</ele>
        <time>2021-09-01T13:35:51.000Z</time>
      </trkpt>
      <trkpt lat="44.40871" lon="6.42437">
        <ele>1632</ele>
        <time>2021-09-01T13:35:52.000Z</time>
      </trkpt>
      <trkpt lat="44.40871" lon="6.42436">
        <ele>1632</ele>
        <time>2021-09-01T13:35:53.000Z</time>
      </trkpt>
      <trkpt lat="44.40871" lon="6.42436">
        <ele>1631</ele>
        <time>2021-09-01T13:35:54.000Z</time>
      </trkpt>
      <trkpt lat="44.40871" lon="6.42435">
        <ele>1631</ele>
        <time>2021-09-01T13:35:55.000Z</time>
      </trkpt>
      <trkpt lat="44.40872" lon="6.42435">
        <ele>1631</ele>
        <time>2021-09-01T13:35:56.000Z</time>
      </trkpt>
      <trkpt lat="44.40872" lon="6.42434">
        <ele>1631</ele>
        <time>2021-09-01T13:35:57.000Z</time>
      </trkpt>
      <trkpt lat="44.40873" lon="6.42434">
        <ele>1632</ele>
        <time>2021-09-01T13:35:58.000Z</time>
      </trkpt>
      <trkpt lat="44.40873" lon="6.42434">
        <ele>1632</ele>
        <time>2021-09-01T13:35:59.000Z</time>
      </trkpt>
      <trkpt lat="44.40874" lon="6.42434">
        <ele>1633</ele>
        <time>2021-09-01T13:36:00.000Z</time>
      </trkpt>
      <trkpt lat="44.40875" lon="6.42435">
        <ele>1634</ele>
        <time>2021-09-01T13:36:01.000Z</time>
      </trkpt>
      <trkpt lat="44.40876" lon="6.42434">
        <ele>1635</ele>
        <time>2021-09-01T13:36:02.000Z</time>
      </trkpt>
      <trkpt lat="44.40876" lon="6.42434">
        <ele>1636</ele>
        <time>2021-09-01T13:36:03.000Z</time>
      </trkpt>
      <trkpt lat="44.40877" lon="6.42434">
        <ele>1637</ele>
        <time>2021-09-01T13:36:04.000Z</time>
      </trkpt>
      <trkpt lat="44.40877" lon="6.42434">
        <ele>1638</ele>
        <time>2021-09-01T13:36:05.000Z</time>
      </trkpt>
      <trkpt lat="44.40878" lon="6.42433">
        <ele>1639</ele>
        <time>2021-09-01T13:36:06.000Z</time>
      </trkpt>
      <trkpt lat="44.40878" lon="6.42433">
        <ele>1640</ele>
        <time>2021-09-01T13:36:07.000Z</time>
      </trkpt>
      <trkpt lat="44.40878" lon="6.42433">
        <ele>1641</ele>
        <time>2021-09-01T13:36:08.000Z</time>
      </trkpt>
      <trkpt lat="44.40878" lon="6.42432">
        <ele>1642</ele>
        <time>2021-09-01T13:36:09.000Z</time>
      </trkpt>
      <trkpt lat="44.40879" lon="6.42432">
        <ele>1643</ele>
        <time>2021-09-01T13:36:10.000Z</time>
      </trkpt>
      <trkpt lat="44.4088" lon="6.42432">
        <ele>1644</ele>
        <time>2021-09-01T13:36:11.000Z</time>
      </trkpt>
      <trkpt lat="44.4088" lon="6.42431">
        <ele>1645</ele>
        <time>2021-09-01T13:36:12.000Z</time>
      </trkpt>
      <trkpt lat="44.40882" lon="6.42432">
        <ele>1646</ele>
        <time>2021-09-01T13:36:13.000Z</time>
      </trkpt>
      <trkpt lat="44.40883" lon="6.42432">
        <ele>1648</ele>
        <time>2021-09-01T13:36:14.000Z</time>
      </trkpt>
      <trkpt lat="44.40883" lon="6.42433">
        <ele>1648</ele>
        <time>2021-09-01T13:36:15.000Z</time>
      </trkpt>
      <trkpt lat="44.40884" lon="6.42433">
        <ele>1649</ele>
        <time>2021-09-01T13:36:16.000Z</time>
      </trkpt>
      <trkpt lat="44.40884" lon="6.42433">
        <ele>1649</ele>
        <time>2021-09-01T13:36:17.000Z</time>
      </trkpt>
      <trkpt lat="44.40884" lon="6.42434">
        <ele>1650</ele>
        <time>2021-09-01T13:36:18.000Z</time>
      </trkpt>
      <trkpt lat="44.40885" lon="6.42434">
        <ele>1651</ele>
        <time>2021-09-01T13:36:19.000Z</time>
      </trkpt>
      <trkpt lat="44.40885" lon="6.42434">
        <ele>1651</ele>
        <time>2021-09-01T13:36:20.000Z</time>
      </trkpt>
      <trkpt lat="44.40885" lon="6.42435">
        <ele>1652</ele>
        <time>2021-09-01T13:36:21.000Z</time>
      </trkpt>
      <trkpt lat="44.40886" lon="6.42435">
        <ele>1653</ele>
        <time>2021-09-01T13:36:22.000Z</time>
      </trkpt>
      <trkpt lat="44.40886" lon="6.42435">
        <ele>1653</ele>
        <time>2021-09-01T13:36:23.000Z</time>
      </trkpt>
      <trkpt lat="44.40886" lon="6.42435">
        <ele>1653</ele>
        <time>2021-09-01T13:36:24.000Z</time>
      </trkpt>
      <trkpt lat="44.40887" lon="6.42435">
        <ele>1654</ele>
        <time>2021-09-01T13:36:25.000Z</time>
      </trkpt>
      <trkpt lat="44.40887" lon="6.42435">
        <ele>1655</ele>
        <time>2021-09-01T13:36:26.000Z</time>
      </trkpt>
      <trkpt lat="44.40887" lon="6.42435">
        <ele>1655</ele>
        <time>2021-09-01T13:36:27.000Z</time>
      </trkpt>
      <trkpt lat="44.40887" lon="6.42435">
        <ele>1656</ele>
        <time>2021-09-01T13:36:28.000Z</time>
      </trkpt>
      <trkpt lat="44.40888" lon="6.42435">
        <ele>1656</ele>
        <time>2021-09-01T13:36:29.000Z</time>
      </trkpt>
      <trkpt lat="44.40888" lon="6.42436">
        <ele>1657</ele>
        <time>2021-09-01T13:36:30.000Z</time>
      </trkpt>
      <trkpt lat="44.40888" lon="6.42436">
        <ele>1658</ele>
        <time>2021-09-01T13:36:31.000Z</time>
      </trkpt>
      <trkpt lat="44.40888" lon="6.42436">
        <ele>1658</ele>
        <time>2021-09-01T13:36:32.000Z</time>
      </trkpt>
      <trkpt lat="44.40888" lon="6.42436">
        <ele>1659</ele>
        <time>2021-09-01T13:36:33.000Z</time>
      </trkpt>
      <trkpt lat="44.40888" lon="6.42436">
        <ele>1660</ele>
        <time>2021-09-01T13:36:34.000Z</time>
      </trkpt>
      <trkpt lat="44.40889" lon="6.42436">
        <ele>1660</ele>
        <time>2021-09-01T13:36:35.000Z</time>
      </trkpt>
      <trkpt lat="44.40889" lon="6.42436">
        <ele>1661</ele>
        <time>2021-09-01T13:36:36.000Z</time>
      </trkpt>
      <trkpt lat="44.40889" lon="6.42436">
        <ele>1661</ele>
        <time>2021-09-01T13:36:37.000Z</time>
      </trkpt>
      <trkpt lat="44.40889" lon="6.42436">
        <ele>1661</ele>
        <time>2021-09-01T13:36:38.000Z</time>
      </trkpt>
      <trkpt lat="44.40889" lon="6.42436">
        <ele>1662</ele>
        <time>2021-09-01T13:36:39.000Z</time>
      </trkpt>
      <trkpt lat="44.40889" lon="6.42436">
        <ele>1662</ele>
        <time>2021-09-01T13:36:40.000Z</time>
      </trkpt>
      <trkpt lat="44.40889" lon="6.42436">
        <ele>1662</ele>
        <time>2021-09-01T13:36:41.000Z</time>
      </trkpt>
      <trkpt lat="44.4089" lon="6.42437">
        <ele>1662</ele>
        <time>2021-09-01T13:36:42.000Z</time>
      </trkpt>
      <trkpt lat="44.4089" lon="6.42437">
        <ele>1662</ele>
        <time>2021-09-01T13:36:43.000Z</time>
      </trkpt>
      <trkpt lat="44.4089" lon="6.42437">
        <ele>1663</ele>
        <time>2021-09-01T13:36:44.000Z</time>
      </trkpt>
      <trkpt lat="44.4089" lon="6.42436">
        <ele>1662</ele>
        <time>2021-09-01T13:36:45.000Z</time>
      </trkpt>
      <trkpt lat="44.4089" lon="6.42436">
        <ele>1662</ele>
        <time>2021-09-01T13:36:46.000Z</time>
      </trkpt>
      <trkpt lat="44.4089" lon="6.42437">
        <ele>1662</ele>
        <time>2021-09-01T13:36:47.000Z</time>
      </trkpt>
      <trkpt lat="44.4089" lon="6.42437">
        <ele>1662</ele>
        <time>2021-09-01T13:36:48.000Z</time>
      </trkpt>
      <trkpt lat="44.4089" lon="6.42437">
        <ele>1662</ele>
        <time>2021-09-01T13:36:49.000Z</time>
      </trkpt>
      <trkpt lat="44.40889" lon="6.42437">
        <ele>1662</ele>
        <time>2021-09-01T13:36:50.000Z</time>
      </trkpt>
      <trkpt lat="44.40889" lon="6.42438">
        <ele>1662</ele>
        <time>2021-09-01T13:36:51.000Z</time>
      </trkpt>
      <trkpt lat="44.40889" lon="6.42438">
        <ele>1662</ele>
        <time>2021-09-01T13:36:52.000Z</time>
      </trkpt>
      <trkpt lat="44.40889" lon="6.42438">
        <ele>1662</ele>
        <time>2021-09-01T13:36:53.000Z</time>
      </trkpt>
      <trkpt lat="44.40889" lon="6.4244">
        <ele>1662</ele>
        <time>2021-09-01T13:36:54.000Z</time>
      </trkpt>
      <trkpt lat="44.40889" lon="6.4244">
        <ele>1663</ele>
        <time>2021-09-01T13:36:55.000Z</time>
      </trkpt>
      <trkpt lat="44.40889" lon="6.42439">
        <ele>1662</ele>
        <time>2021-09-01T13:36:56.000Z</time>
      </trkpt>
      <trkpt lat="44.40888" lon="6.42439">
        <ele>1662</ele>
        <time>2021-09-01T13:36:57.000Z</time>
      </trkpt>
      <trkpt lat="44.40889" lon="6.42439">
        <ele>1663</ele>
        <time>2021-09-01T13:36:58.000Z</time>
      </trkpt>
      <trkpt lat="44.40888" lon="6.42439">
        <ele>1663</ele>
        <time>2021-09-01T13:36:59.000Z</time>
      </trkpt>
      <trkpt lat="44.40888" lon="6.42439">
        <ele>1663</ele>
        <time>2021-09-01T13:37:00.000Z</time>
      </trkpt>
      <trkpt lat="44.40888" lon="6.42439">
        <ele>1663</ele>
        <time>2021-09-01T13:37:01.000Z</time>
      </trkpt>
      <trkpt lat="44.40888" lon="6.42439">
        <ele>1663</ele>
        <time>2021-09-01T13:37:02.000Z</time>
      </trkpt>
      <trkpt lat="44.40888" lon="6.42439">
        <ele>1663</ele>
        <time>2021-09-01T13:37:03.000Z</time>
      </trkpt>
      <trkpt lat="44.40888" lon="6.42439">
        <ele>1663</ele>
        <time>2021-09-01T13:37:04.000Z</time>
      </trkpt>
      <trkpt lat="44.40888" lon="6.42439">
        <ele>1662</ele>
        <time>2021-09-01T13:37:05.000Z</time>
      </trkpt>
      <trkpt lat="44.40888" lon="6.42438">
        <ele>1662</ele>
        <time>2021-09-01T13:37:06.000Z</time>
      </trkpt>
      <trkpt lat="44.40888" lon="6.42438">
        <ele>1662</ele>
        <time>2021-09-01T13:37:07.000Z</time>
      </trkpt>
      <trkpt lat="44.40887" lon="6.42437">
        <ele>1661</ele>
        <time>2021-09-01T13:37:08.000Z</time>
      </trkpt>
      <trkpt lat="44.40887" lon="6.42437">
        <ele>1661</ele>
        <time>2021-09-01T13:37:09.000Z</time>
      </trkpt>
      <trkpt lat="44.40887" lon="6.42437">
        <ele>1661</ele>
        <time>2021-09-01T13:37:10.000Z</time>
      </trkpt>
      <trkpt lat="44.40887" lon="6.42437">
        <ele>1660</ele>
        <time>2021-09-01T13:37:11.000Z</time>
      </trkpt>
      <trkpt lat="44.40886" lon="6.42436">
        <ele>1660</ele>
        <time>2021-09-01T13:37:12.000Z</time>
      </trkpt>
      <trkpt lat="44.40886" lon="6.42436">
        <ele>1660</ele>
        <time>2021-09-01T13:37:13.000Z</time>
      </trkpt>
      <trkpt lat="44.40886" lon="6.42436">
        <ele>1659</ele>
        <time>2021-09-01T13:37:14.000Z</time>
      </trkpt>
      <trkpt lat="44.40885" lon="6.42435">
        <ele>1659</ele>
        <time>2021-09-01T13:37:15.000Z</time>
      </trkpt>
      <trkpt lat="44.40885" lon="6.42435">
        <ele>1658</ele>
        <time>2021-09-01T13:37:16.000Z</time>
      </trkpt>
      <trkpt lat="44.40885" lon="6.42434">
        <ele>1657</ele>
        <time>2021-09-01T13:37:17.000Z</time>
      </trkpt>
      <trkpt lat="44.40885" lon="6.42434">
        <ele>1657</ele>
        <time>2021-09-01T13:37:18.000Z</time>
      </trkpt>
      <trkpt lat="44.40885" lon="6.42434">
        <ele>1657</ele>
        <time>2021-09-01T13:37:19.000Z</time>
      </trkpt>
      <trkpt lat="44.40885" lon="6.42433">
        <ele>1657</ele>
        <time>2021-09-01T13:37:20.000Z</time>
      </trkpt>
      <trkpt lat="44.40885" lon="6.42434">
        <ele>1657</ele>
        <time>2021-09-01T13:37:21.000Z</time>
      </trkpt>
      <trkpt lat="44.40886" lon="6.42432">
        <ele>1657</ele>
        <time>2021-09-01T13:37:22.000Z</time>
      </trkpt>
      <trkpt lat="44.40887" lon="6.42428">
        <ele>1657</ele>
        <time>2021-09-01T13:37:23.000Z</time>
      </trkpt>
      <trkpt lat="44.40889" lon="6.42425">
        <ele>1657</ele>
        <time>2021-09-01T13:37:24.000Z</time>
      </trkpt>
      <trkpt lat="44.40891" lon="6.42422">
        <ele>1657</ele>
        <time>2021-09-01T13:37:25.000Z</time>
      </trkpt>
      <trkpt lat="44.40895" lon="6.42418">
        <ele>1657</ele>
        <time>2021-09-01T13:37:26.000Z</time>
      </trkpt>
      <trkpt lat="44.40896" lon="6.42414">
        <ele>1655</ele>
        <time>2021-09-01T13:37:27.000Z</time>
      </trkpt>
      <trkpt lat="44.40899" lon="6.42411">
        <ele>1653</ele>
        <time>2021-09-01T13:37:28.000Z</time>
      </trkpt>
      <trkpt lat="44.40901" lon="6.42408">
        <ele>1653</ele>
        <time>2021-09-01T13:37:29.000Z</time>
      </trkpt>
      <trkpt lat="44.40903" lon="6.42403">
        <ele>1652</ele>
        <time>2021-09-01T13:37:30.000Z</time>
      </trkpt>
      <trkpt lat="44.40905" lon="6.42397">
        <ele>1651</ele>
        <time>2021-09-01T13:37:31.000Z</time>
      </trkpt>
      <trkpt lat="44.40906" lon="6.42392">
        <ele>1650</ele>
        <time>2021-09-01T13:37:32.000Z</time>
      </trkpt>
      <trkpt lat="44.40908" lon="6.42388">
        <ele>1648</ele>
        <time>2021-09-01T13:37:33.000Z</time>
      </trkpt>
      <trkpt lat="44.40909" lon="6.42383">
        <ele>1648</ele>
        <time>2021-09-01T13:37:34.000Z</time>
      </trkpt>
      <trkpt lat="44.40909" lon="6.42378">
        <ele>1648</ele>
        <time>2021-09-01T13:37:35.000Z</time>
      </trkpt>
      <trkpt lat="44.40909" lon="6.42373">
        <ele>1649</ele>
        <time>2021-09-01T13:37:36.000Z</time>
      </trkpt>
      <trkpt lat="44.4091" lon="6.42369">
        <ele>1649</ele>
        <time>2021-09-01T13:37:37.000Z</time>
      </trkpt>
      <trkpt lat="44.40911" lon="6.42365">
        <ele>1645</ele>
        <time>2021-09-01T13:37:38.000Z</time>
      </trkpt>
      <trkpt lat="44.40913" lon="6.42361">
        <ele>1641</ele>
        <time>2021-09-01T13:37:39.000Z</time>
      </trkpt>
      <trkpt lat="44.40914" lon="6.42359">
        <ele>1639</ele>
        <time>2021-09-01T13:37:40.000Z</time>
      </trkpt>
      <trkpt lat="44.40917" lon="6.42359">
        <ele>1639</ele>
        <time>2021-09-01T13:37:41.000Z</time>
      </trkpt>
      <trkpt lat="44.40927" lon="6.42353">
        <ele>1645</ele>
        <time>2021-09-01T13:37:42.000Z</time>
      </trkpt>
      <trkpt lat="44.40934" lon="6.42349">
        <ele>1649</ele>
        <time>2021-09-01T13:37:43.000Z</time>
      </trkpt>
      <trkpt lat="44.40939" lon="6.42344">
        <ele>1650</ele>
        <time>2021-09-01T13:37:44.000Z</time>
      </trkpt>
      <trkpt lat="44.40941" lon="6.42338">
        <ele>1649</ele>
        <time>2021-09-01T13:37:45.000Z</time>
      </trkpt>
      <trkpt lat="44.40943" lon="6.42332">
        <ele>1649</ele>
        <time>2021-09-01T13:37:46.000Z</time>
      </trkpt>
      <trkpt lat="44.40945" lon="6.42325">
        <ele>1648</ele>
        <time>2021-09-01T13:37:47.000Z</time>
      </trkpt>
      <trkpt lat="44.40946" lon="6.42319">
        <ele>1650</ele>
        <time>2021-09-01T13:37:48.000Z</time>
      </trkpt>
      <trkpt lat="44.40947" lon="6.42313">
        <ele>1649</ele>
        <time>2021-09-01T13:37:49.000Z</time>
      </trkpt>
      <trkpt lat="44.40949" lon="6.42308">
        <ele>1649</ele>
        <time>2021-09-01T13:37:50.000Z</time>
      </trkpt>
      <trkpt lat="44.4095" lon="6.42303">
        <ele>1647</ele>
        <time>2021-09-01T13:37:51.000Z</time>
      </trkpt>
      <trkpt lat="44.40952" lon="6.42298">
        <ele>1646</ele>
        <time>2021-09-01T13:37:52.000Z</time>
      </trkpt>
      <trkpt lat="44.40954" lon="6.42294">
        <ele>1642</ele>
        <time>2021-09-01T13:37:53.000Z</time>
      </trkpt>
      <trkpt lat="44.40955" lon="6.4229">
        <ele>1639</ele>
        <time>2021-09-01T13:37:54.000Z</time>
      </trkpt>
      <trkpt lat="44.40957" lon="6.42287">
        <ele>1638</ele>
        <time>2021-09-01T13:37:55.000Z</time>
      </trkpt>
      <trkpt lat="44.40959" lon="6.42285">
        <ele>1636</ele>
        <time>2021-09-01T13:37:56.000Z</time>
      </trkpt>
      <trkpt lat="44.40963" lon="6.42281">
        <ele>1637</ele>
        <time>2021-09-01T13:37:57.000Z</time>
      </trkpt>
      <trkpt lat="44.40971" lon="6.42277">
        <ele>1641</ele>
        <time>2021-09-01T13:37:58.000Z</time>
      </trkpt>
      <trkpt lat="44.40975" lon="6.42274">
        <ele>1641</ele>
        <time>2021-09-01T13:37:59.000Z</time>
      </trkpt>
      <trkpt lat="44.40979" lon="6.42272">
        <ele>1641</ele>
        <time>2021-09-01T13:38:00.000Z</time>
      </trkpt>
      <trkpt lat="44.40982" lon="6.4227">
        <ele>1641</ele>
        <time>2021-09-01T13:38:01.000Z</time>
      </trkpt>
      <trkpt lat="44.40986" lon="6.4227">
        <ele>1640</ele>
        <time>2021-09-01T13:38:02.000Z</time>
      </trkpt>
      <trkpt lat="44.40989" lon="6.42275">
        <ele>1634</ele>
        <time>2021-09-01T13:38:03.000Z</time>
      </trkpt>
      <trkpt lat="44.40992" lon="6.42285">
        <ele>1633</ele>
        <time>2021-09-01T13:38:04.000Z</time>
      </trkpt>
      <trkpt lat="44.40993" lon="6.42291">
        <ele>1631</ele>
        <time>2021-09-01T13:38:05.000Z</time>
      </trkpt>
      <trkpt lat="44.40997" lon="6.423">
        <ele>1630</ele>
        <time>2021-09-01T13:38:06.000Z</time>
      </trkpt>
      <trkpt lat="44.40998" lon="6.42309">
        <ele>1630</ele>
        <time>2021-09-01T13:38:07.000Z</time>
      </trkpt>
      <trkpt lat="44.40996" lon="6.4232">
        <ele>1634</ele>
        <time>2021-09-01T13:38:08.000Z</time>
      </trkpt>
      <trkpt lat="44.40998" lon="6.42329">
        <ele>1635</ele>
        <time>2021-09-01T13:38:09.000Z</time>
      </trkpt>
      <trkpt lat="44.41" lon="6.42339">
        <ele>1637</ele>
        <time>2021-09-01T13:38:10.000Z</time>
      </trkpt>
      <trkpt lat="44.41003" lon="6.42348">
        <ele>1637</ele>
        <time>2021-09-01T13:38:11.000Z</time>
      </trkpt>
      <trkpt lat="44.41007" lon="6.42358">
        <ele>1638</ele>
        <time>2021-09-01T13:38:12.000Z</time>
      </trkpt>
      <trkpt lat="44.41011" lon="6.42367">
        <ele>1638</ele>
        <time>2021-09-01T13:38:13.000Z</time>
      </trkpt>
      <trkpt lat="44.41015" lon="6.42375">
        <ele>1639</ele>
        <time>2021-09-01T13:38:14.000Z</time>
      </trkpt>
      <trkpt lat="44.41018" lon="6.42384">
        <ele>1639</ele>
        <time>2021-09-01T13:38:15.000Z</time>
      </trkpt>
      <trkpt lat="44.4102" lon="6.42393">
        <ele>1642</ele>
        <time>2021-09-01T13:38:16.000Z</time>
      </trkpt>
      <trkpt lat="44.41023" lon="6.42402">
        <ele>1643</ele>
        <time>2021-09-01T13:38:17.000Z</time>
      </trkpt>
      <trkpt lat="44.41027" lon="6.42409">
        <ele>1644</ele>
        <time>2021-09-01T13:38:18.000Z</time>
      </trkpt>
      <trkpt lat="44.41032" lon="6.42417">
        <ele>1644</ele>
        <time>2021-09-01T13:38:19.000Z</time>
      </trkpt>
      <trkpt lat="44.41033" lon="6.42426">
        <ele>1645</ele>
        <time>2021-09-01T13:38:20.000Z</time>
      </trkpt>
      <trkpt lat="44.41034" lon="6.42436">
        <ele>1644</ele>
        <time>2021-09-01T13:38:21.000Z</time>
      </trkpt>
      <trkpt lat="44.41035" lon="6.42445">
        <ele>1644</ele>
        <time>2021-09-01T13:38:22.000Z</time>
      </trkpt>
      <trkpt lat="44.41036" lon="6.42454">
        <ele>1643</ele>
        <time>2021-09-01T13:38:23.000Z</time>
      </trkpt>
      <trkpt lat="44.41038" lon="6.42463">
        <ele>1642</ele>
        <time>2021-09-01T13:38:24.000Z</time>
      </trkpt>
      <trkpt lat="44.41039" lon="6.42471">
        <ele>1641</ele>
        <time>2021-09-01T13:38:25.000Z</time>
      </trkpt>
      <trkpt lat="44.41042" lon="6.42476">
        <ele>1639</ele>
        <time>2021-09-01T13:38:26.000Z</time>
      </trkpt>
      <trkpt lat="44.41048" lon="6.4248">
        <ele>1638</ele>
        <time>2021-09-01T13:38:27.000Z</time>
      </trkpt>
      <trkpt lat="44.41054" lon="6.42482">
        <ele>1638</ele>
        <time>2021-09-01T13:38:28.000Z</time>
      </trkpt>
      <trkpt lat="44.41059" lon="6.42483">
        <ele>1638</ele>
        <time>2021-09-01T13:38:29.000Z</time>
      </trkpt>
      <trkpt lat="44.41067" lon="6.4248">
        <ele>1639</ele>
        <time>2021-09-01T13:38:30.000Z</time>
      </trkpt>
      <trkpt lat="44.41072" lon="6.42479">
        <ele>1638</ele>
        <time>2021-09-01T13:38:31.000Z</time>
      </trkpt>
      <trkpt lat="44.41077" lon="6.42479">
        <ele>1638</ele>
        <time>2021-09-01T13:38:32.000Z</time>
      </trkpt>
      <trkpt lat="44.41081" lon="6.42479">
        <ele>1637</ele>
        <time>2021-09-01T13:38:33.000Z</time>
      </trkpt>
      <trkpt lat="44.41084" lon="6.4248">
        <ele>1636</ele>
        <time>2021-09-01T13:38:34.000Z</time>
      </trkpt>
      <trkpt lat="44.41087" lon="6.42487">
        <ele>1634</ele>
        <time>2021-09-01T13:38:35.000Z</time>
      </trkpt>
      <trkpt lat="44.41092" lon="6.42496">
        <ele>1633</ele>
        <time>2021-09-01T13:38:36.000Z</time>
      </trkpt>
      <trkpt lat="44.41097" lon="6.42503">
        <ele>1631</ele>
        <time>2021-09-01T13:38:37.000Z</time>
      </trkpt>
      <trkpt lat="44.41102" lon="6.42508">
        <ele>1631</ele>
        <time>2021-09-01T13:38:38.000Z</time>
      </trkpt>
      <trkpt lat="44.41107" lon="6.42512">
        <ele>1629</ele>
        <time>2021-09-01T13:38:39.000Z</time>
      </trkpt>
      <trkpt lat="44.41111" lon="6.42517">
        <ele>1629</ele>
        <time>2021-09-01T13:38:40.000Z</time>
      </trkpt>
      <trkpt lat="44.41116" lon="6.42518">
        <ele>1628</ele>
        <time>2021-09-01T13:38:41.000Z</time>
      </trkpt>
      <trkpt lat="44.41123" lon="6.42522">
        <ele>1627</ele>
        <time>2021-09-01T13:38:42.000Z</time>
      </trkpt>
      <trkpt lat="44.41129" lon="6.42521">
        <ele>1625</ele>
        <time>2021-09-01T13:38:43.000Z</time>
      </trkpt>
      <trkpt lat="44.41134" lon="6.42521">
        <ele>1623</ele>
        <time>2021-09-01T13:38:44.000Z</time>
      </trkpt>
      <trkpt lat="44.41141" lon="6.42524">
        <ele>1623</ele>
        <time>2021-09-01T13:38:45.000Z</time>
      </trkpt>
      <trkpt lat="44.41147" lon="6.42526">
        <ele>1623</ele>
        <time>2021-09-01T13:38:46.000Z</time>
      </trkpt>
      <trkpt lat="44.41153" lon="6.42527">
        <ele>1623</ele>
        <time>2021-09-01T13:38:47.000Z</time>
      </trkpt>
      <trkpt lat="44.41158" lon="6.42531">
        <ele>1622</ele>
        <time>2021-09-01T13:38:48.000Z</time>
      </trkpt>
      <trkpt lat="44.41159" lon="6.42538">
        <ele>1620</ele>
        <time>2021-09-01T13:38:49.000Z</time>
      </trkpt>
      <trkpt lat="44.41159" lon="6.42545">
        <ele>1616</ele>
        <time>2021-09-01T13:38:50.000Z</time>
      </trkpt>
      <trkpt lat="44.41159" lon="6.42552">
        <ele>1614</ele>
        <time>2021-09-01T13:38:51.000Z</time>
      </trkpt>
      <trkpt lat="44.41161" lon="6.4256">
        <ele>1613</ele>
        <time>2021-09-01T13:38:52.000Z</time>
      </trkpt>
      <trkpt lat="44.41164" lon="6.42568">
        <ele>1612</ele>
        <time>2021-09-01T13:38:53.000Z</time>
      </trkpt>
      <trkpt lat="44.41167" lon="6.42577">
        <ele>1612</ele>
        <time>2021-09-01T13:38:54.000Z</time>
      </trkpt>
      <trkpt lat="44.41172" lon="6.42586">
        <ele>1612</ele>
        <time>2021-09-01T13:38:55.000Z</time>
      </trkpt>
      <trkpt lat="44.41177" lon="6.42594">
        <ele>1611</ele>
        <time>2021-09-01T13:38:56.000Z</time>
      </trkpt>
      <trkpt lat="44.41184" lon="6.42603">
        <ele>1611</ele>
        <time>2021-09-01T13:38:57.000Z</time>
      </trkpt>
      <trkpt lat="44.4119" lon="6.42609">
        <ele>1610</ele>
        <time>2021-09-01T13:38:58.000Z</time>
      </trkpt>
      <trkpt lat="44.41195" lon="6.42618">
        <ele>1610</ele>
        <time>2021-09-01T13:38:59.000Z</time>
      </trkpt>
      <trkpt lat="44.412" lon="6.42627">
        <ele>1609</ele>
        <time>2021-09-01T13:39:00.000Z</time>
      </trkpt>
      <trkpt lat="44.41203" lon="6.42635">
        <ele>1608</ele>
        <time>2021-09-01T13:39:01.000Z</time>
      </trkpt>
      <trkpt lat="44.41204" lon="6.42642">
        <ele>1606</ele>
        <time>2021-09-01T13:39:02.000Z</time>
      </trkpt>
      <trkpt lat="44.41206" lon="6.4265">
        <ele>1605</ele>
        <time>2021-09-01T13:39:03.000Z</time>
      </trkpt>
      <trkpt lat="44.41207" lon="6.4266">
        <ele>1605</ele>
        <time>2021-09-01T13:39:04.000Z</time>
      </trkpt>
      <trkpt lat="44.41208" lon="6.42671">
        <ele>1605</ele>
        <time>2021-09-01T13:39:05.000Z</time>
      </trkpt>
      <trkpt lat="44.41208" lon="6.42679">
        <ele>1604</ele>
        <time>2021-09-01T13:39:06.000Z</time>
      </trkpt>
      <trkpt lat="44.41211" lon="6.42686">
        <ele>1603</ele>
        <time>2021-09-01T13:39:07.000Z</time>
      </trkpt>
      <trkpt lat="44.41213" lon="6.42694">
        <ele>1601</ele>
        <time>2021-09-01T13:39:08.000Z</time>
      </trkpt>
      <trkpt lat="44.41215" lon="6.42701">
        <ele>1600</ele>
        <time>2021-09-01T13:39:09.000Z</time>
      </trkpt>
      <trkpt lat="44.41217" lon="6.42705">
        <ele>1599</ele>
        <time>2021-09-01T13:39:10.000Z</time>
      </trkpt>
      <trkpt lat="44.41218" lon="6.42711">
        <ele>1600</ele>
        <time>2021-09-01T13:39:11.000Z</time>
      </trkpt>
      <trkpt lat="44.41221" lon="6.42716">
        <ele>1600</ele>
        <time>2021-09-01T13:39:12.000Z</time>
      </trkpt>
      <trkpt lat="44.41224" lon="6.4272">
        <ele>1601</ele>
        <time>2021-09-01T13:39:13.000Z</time>
      </trkpt>
      <trkpt lat="44.41228" lon="6.42721">
        <ele>1600</ele>
        <time>2021-09-01T13:39:14.000Z</time>
      </trkpt>
      <trkpt lat="44.41231" lon="6.42722">
        <ele>1599</ele>
        <time>2021-09-01T13:39:15.000Z</time>
      </trkpt>
      <trkpt lat="44.41233" lon="6.42721">
        <ele>1599</ele>
        <time>2021-09-01T13:39:16.000Z</time>
      </trkpt>
      <trkpt lat="44.41235" lon="6.4272">
        <ele>1598</ele>
        <time>2021-09-01T13:39:17.000Z</time>
      </trkpt>
      <trkpt lat="44.41236" lon="6.42721">
        <ele>1598</ele>
        <time>2021-09-01T13:39:18.000Z</time>
      </trkpt>
      <trkpt lat="44.4124" lon="6.42721">
        <ele>1598</ele>
        <time>2021-09-01T13:39:19.000Z</time>
      </trkpt>
      <trkpt lat="44.41242" lon="6.42722">
        <ele>1599</ele>
        <time>2021-09-01T13:39:20.000Z</time>
      </trkpt>
      <trkpt lat="44.41244" lon="6.42725">
        <ele>1600</ele>
        <time>2021-09-01T13:39:21.000Z</time>
      </trkpt>
      <trkpt lat="44.41245" lon="6.42731">
        <ele>1603</ele>
        <time>2021-09-01T13:39:22.000Z</time>
      </trkpt>
      <trkpt lat="44.41246" lon="6.42735">
        <ele>1604</ele>
        <time>2021-09-01T13:39:23.000Z</time>
      </trkpt>
      <trkpt lat="44.41248" lon="6.42738">
        <ele>1604</ele>
        <time>2021-09-01T13:39:24.000Z</time>
      </trkpt>
      <trkpt lat="44.4125" lon="6.42737">
        <ele>1604</ele>
        <time>2021-09-01T13:39:25.000Z</time>
      </trkpt>
      <trkpt lat="44.41253" lon="6.42736">
        <ele>1604</ele>
        <time>2021-09-01T13:39:26.000Z</time>
      </trkpt>
      <trkpt lat="44.41257" lon="6.42734">
        <ele>1604</ele>
        <time>2021-09-01T13:39:27.000Z</time>
      </trkpt>
      <trkpt lat="44.4126" lon="6.4273">
        <ele>1604</ele>
        <time>2021-09-01T13:39:28.000Z</time>
      </trkpt>
      <trkpt lat="44.41263" lon="6.42725">
        <ele>1603</ele>
        <time>2021-09-01T13:39:29.000Z</time>
      </trkpt>
      <trkpt lat="44.41266" lon="6.4272">
        <ele>1602</ele>
        <time>2021-09-01T13:39:30.000Z</time>
      </trkpt>
      <trkpt lat="44.4127" lon="6.42714">
        <ele>1601</ele>
        <time>2021-09-01T13:39:31.000Z</time>
      </trkpt>
      <trkpt lat="44.41274" lon="6.42708">
        <ele>1601</ele>
        <time>2021-09-01T13:39:32.000Z</time>
      </trkpt>
      <trkpt lat="44.41278" lon="6.42702">
        <ele>1601</ele>
        <time>2021-09-01T13:39:33.000Z</time>
      </trkpt>
      <trkpt lat="44.41284" lon="6.42697">
        <ele>1600</ele>
        <time>2021-09-01T13:39:34.000Z</time>
      </trkpt>
      <trkpt lat="44.41289" lon="6.42693">
        <ele>1600</ele>
        <time>2021-09-01T13:39:35.000Z</time>
      </trkpt>
      <trkpt lat="44.41295" lon="6.4269">
        <ele>1599</ele>
        <time>2021-09-01T13:39:36.000Z</time>
      </trkpt>
      <trkpt lat="44.41301" lon="6.42686">
        <ele>1598</ele>
        <time>2021-09-01T13:39:37.000Z</time>
      </trkpt>
      <trkpt lat="44.41307" lon="6.42683">
        <ele>1599</ele>
        <time>2021-09-01T13:39:38.000Z</time>
      </trkpt>
      <trkpt lat="44.41313" lon="6.42679">
        <ele>1598</ele>
        <time>2021-09-01T13:39:39.000Z</time>
      </trkpt>
      <trkpt lat="44.41319" lon="6.42674">
        <ele>1598</ele>
        <time>2021-09-01T13:39:40.000Z</time>
      </trkpt>
      <trkpt lat="44.41323" lon="6.42667">
        <ele>1597</ele>
        <time>2021-09-01T13:39:41.000Z</time>
      </trkpt>
      <trkpt lat="44.41328" lon="6.42661">
        <ele>1597</ele>
        <time>2021-09-01T13:39:42.000Z</time>
      </trkpt>
      <trkpt lat="44.41333" lon="6.42655">
        <ele>1596</ele>
        <time>2021-09-01T13:39:43.000Z</time>
      </trkpt>
      <trkpt lat="44.41338" lon="6.42649">
        <ele>1595</ele>
        <time>2021-09-01T13:39:44.000Z</time>
      </trkpt>
      <trkpt lat="44.41345" lon="6.42644">
        <ele>1594</ele>
        <time>2021-09-01T13:39:45.000Z</time>
      </trkpt>
      <trkpt lat="44.41352" lon="6.42638">
        <ele>1594</ele>
        <time>2021-09-01T13:39:46.000Z</time>
      </trkpt>
      <trkpt lat="44.41359" lon="6.42632">
        <ele>1594</ele>
        <time>2021-09-01T13:39:47.000Z</time>
      </trkpt>
      <trkpt lat="44.41366" lon="6.42626">
        <ele>1592</ele>
        <time>2021-09-01T13:39:48.000Z</time>
      </trkpt>
      <trkpt lat="44.41374" lon="6.4262">
        <ele>1591</ele>
        <time>2021-09-01T13:39:49.000Z</time>
      </trkpt>
      <trkpt lat="44.41382" lon="6.42613">
        <ele>1590</ele>
        <time>2021-09-01T13:39:50.000Z</time>
      </trkpt>
      <trkpt lat="44.41389" lon="6.42605">
        <ele>1590</ele>
        <time>2021-09-01T13:39:51.000Z</time>
      </trkpt>
      <trkpt lat="44.41398" lon="6.42597">
        <ele>1589</ele>
        <time>2021-09-01T13:39:52.000Z</time>
      </trkpt>
      <trkpt lat="44.41406" lon="6.42592">
        <ele>1589</ele>
        <time>2021-09-01T13:39:53.000Z</time>
      </trkpt>
      <trkpt lat="44.41413" lon="6.42585">
        <ele>1588</ele>
        <time>2021-09-01T13:39:54.000Z</time>
      </trkpt>
      <trkpt lat="44.41419" lon="6.4258">
        <ele>1588</ele>
        <time>2021-09-01T13:39:55.000Z</time>
      </trkpt>
      <trkpt lat="44.41425" lon="6.42575">
        <ele>1588</ele>
        <time>2021-09-01T13:39:56.000Z</time>
      </trkpt>
      <trkpt lat="44.41431" lon="6.42571">
        <ele>1587</ele>
        <time>2021-09-01T13:39:57.000Z</time>
      </trkpt>
      <trkpt lat="44.41436" lon="6.42568">
        <ele>1587</ele>
        <time>2021-09-01T13:39:58.000Z</time>
      </trkpt>
      <trkpt lat="44.41439" lon="6.42563">
        <ele>1586</ele>
        <time>2021-09-01T13:39:59.000Z</time>
      </trkpt>
      <trkpt lat="44.41441" lon="6.42559">
        <ele>1585</ele>
        <time>2021-09-01T13:40:00.000Z</time>
      </trkpt>
      <trkpt lat="44.41442" lon="6.42555">
        <ele>1584</ele>
        <time>2021-09-01T13:40:01.000Z</time>
      </trkpt>
      <trkpt lat="44.41442" lon="6.42553">
        <ele>1583</ele>
        <time>2021-09-01T13:40:02.000Z</time>
      </trkpt>
      <trkpt lat="44.41443" lon="6.42552">
        <ele>1582</ele>
        <time>2021-09-01T13:40:03.000Z</time>
      </trkpt>
      <trkpt lat="44.41443" lon="6.42551">
        <ele>1582</ele>
        <time>2021-09-01T13:40:04.000Z</time>
      </trkpt>
      <trkpt lat="44.41443" lon="6.42551">
        <ele>1582</ele>
        <time>2021-09-01T13:40:05.000Z</time>
      </trkpt>
      <trkpt lat="44.41443" lon="6.42551">
        <ele>1581</ele>
        <time>2021-09-01T13:40:06.000Z</time>
      </trkpt>
      <trkpt lat="44.41443" lon="6.42551">
        <ele>1581</ele>
        <time>2021-09-01T13:40:07.000Z</time>
      </trkpt>
      <trkpt lat="44.41444" lon="6.42551">
        <ele>1581</ele>
        <time>2021-09-01T13:40:08.000Z</time>
      </trkpt>
      <trkpt lat="44.41444" lon="6.42551">
        <ele>1581</ele>
        <time>2021-09-01T13:40:09.000Z</time>
      </trkpt>
      <trkpt lat="44.41444" lon="6.42551">
        <ele>1580</ele>
        <time>2021-09-01T13:40:10.000Z</time>
      </trkpt>
      <trkpt lat="44.41444" lon="6.42551">
        <ele>1580</ele>
        <time>2021-09-01T13:40:11.000Z</time>
      </trkpt>
      <trkpt lat="44.41443" lon="6.4255">
        <ele>1580</ele>
        <time>2021-09-01T13:40:12.000Z</time>
      </trkpt>
      <trkpt lat="44.41444" lon="6.4255">
        <ele>1579</ele>
        <time>2021-09-01T13:40:13.000Z</time>
      </trkpt>
      <trkpt lat="44.41443" lon="6.4255">
        <ele>1577</ele>
        <time>2021-09-01T13:40:14.000Z</time>
      </trkpt>
      <trkpt lat="44.41443" lon="6.42549">
        <ele>1577</ele>
        <time>2021-09-01T13:40:15.000Z</time>
      </trkpt>
      <trkpt lat="44.41443" lon="6.42549">
        <ele>1576</ele>
        <time>2021-09-01T13:40:16.000Z</time>
      </trkpt>
      <trkpt lat="44.41444" lon="6.42549">
        <ele>1576</ele>
        <time>2021-09-01T13:40:17.000Z</time>
      </trkpt>
      <trkpt lat="44.41444" lon="6.42549">
        <ele>1575</ele>
        <time>2021-09-01T13:40:18.000Z</time>
      </trkpt>
      <trkpt lat="44.41444" lon="6.42549">
        <ele>1575</ele>
        <time>2021-09-01T13:40:19.000Z</time>
      </trkpt>
      <trkpt lat="44.41444" lon="6.42549">
        <ele>1575</ele>
        <time>2021-09-01T13:40:20.000Z</time>
      </trkpt>
      <trkpt lat="44.41445" lon="6.42549">
        <ele>1576</ele>
        <time>2021-09-01T13:40:21.000Z</time>
      </trkpt>
      <trkpt lat="44.41445" lon="6.42549">
        <ele>1576</ele>
        <time>2021-09-01T13:40:22.000Z</time>
      </trkpt>
      <trkpt lat="44.41446" lon="6.42549">
        <ele>1576</ele>
        <time>2021-09-01T13:40:23.000Z</time>
      </trkpt>
      <trkpt lat="44.41446" lon="6.42549">
        <ele>1576</ele>
        <time>2021-09-01T13:40:24.000Z</time>
      </trkpt>
      <trkpt lat="44.41447" lon="6.42549">
        <ele>1576</ele>
        <time>2021-09-01T13:40:25.000Z</time>
      </trkpt>
      <trkpt lat="44.41447" lon="6.42549">
        <ele>1576</ele>
        <time>2021-09-01T13:40:26.000Z</time>
      </trkpt>
      <trkpt lat="44.41447" lon="6.4255">
        <ele>1577</ele>
        <time>2021-09-01T13:40:27.000Z</time>
      </trkpt>
      <trkpt lat="44.41447" lon="6.4255">
        <ele>1577</ele>
        <time>2021-09-01T13:40:28.000Z</time>
      </trkpt>
      <trkpt lat="44.41448" lon="6.4255">
        <ele>1577</ele>
        <time>2021-09-01T13:40:29.000Z</time>
      </trkpt>
      <trkpt lat="44.41448" lon="6.4255">
        <ele>1577</ele>
        <time>2021-09-01T13:40:30.000Z</time>
      </trkpt>
      <trkpt lat="44.41448" lon="6.4255">
        <ele>1577</ele>
        <time>2021-09-01T13:40:31.000Z</time>
      </trkpt>
      <trkpt lat="44.41448" lon="6.4255">
        <ele>1577</ele>
        <time>2021-09-01T13:40:32.000Z</time>
      </trkpt>
      <trkpt lat="44.41448" lon="6.4255">
        <ele>1577</ele>
        <time>2021-09-01T13:40:33.000Z</time>
      </trkpt>
      <trkpt lat="44.41448" lon="6.4255">
        <ele>1577</ele>
        <time>2021-09-01T13:40:34.000Z</time>
      </trkpt>
      <trkpt lat="44.41448" lon="6.4255">
        <ele>1577</ele>
        <time>2021-09-01T13:40:35.000Z</time>
      </trkpt>
      <trkpt lat="44.41448" lon="6.4255">
        <ele>1577</ele>
        <time>2021-09-01T13:40:36.000Z</time>
      </trkpt>
      <trkpt lat="44.41448" lon="6.4255">
        <ele>1577</ele>
        <time>2021-09-01T13:40:37.000Z</time>
      </trkpt>
      <trkpt lat="44.41447" lon="6.4255">
        <ele>1578</ele>
        <time>2021-09-01T13:40:38.000Z</time>
      </trkpt>
      <trkpt lat="44.41447" lon="6.4255">
        <ele>1578</ele>
        <time>2021-09-01T13:40:39.000Z</time>
      </trkpt>
      <trkpt lat="44.41447" lon="6.4255">
        <ele>1578</ele>
        <time>2021-09-01T13:40:40.000Z</time>
      </trkpt>
      <trkpt lat="44.41447" lon="6.4255">
        <ele>1578</ele>
        <time>2021-09-01T13:40:41.000Z</time>
      </trkpt>
      <trkpt lat="44.41447" lon="6.4255">
        <ele>1578</ele>
        <time>2021-09-01T13:40:42.000Z</time>
      </trkpt>
      <trkpt lat="44.41447" lon="6.4255">
        <ele>1579</ele>
        <time>2021-09-01T13:40:43.000Z</time>
      </trkpt>
      <trkpt lat="44.41446" lon="6.4255">
        <ele>1579</ele>
        <time>2021-09-01T13:40:44.000Z</time>
      </trkpt>
      <trkpt lat="44.41446" lon="6.4255">
        <ele>1579</ele>
        <time>2021-09-01T13:40:45.000Z</time>
      </trkpt>
      <trkpt lat="44.41446" lon="6.4255">
        <ele>1579</ele>
        <time>2021-09-01T13:40:46.000Z</time>
      </trkpt>
      <trkpt lat="44.41446" lon="6.4255">
        <ele>1579</ele>
        <time>2021-09-01T13:40:47.000Z</time>
      </trkpt>
      <trkpt lat="44.41446" lon="6.4255">
        <ele>1580</ele>
        <time>2021-09-01T13:40:48.000Z</time>
      </trkpt>
      <trkpt lat="44.41445" lon="6.42549">
        <ele>1580</ele>
        <time>2021-09-01T13:40:49.000Z</time>
      </trkpt>
      <trkpt lat="44.41445" lon="6.42549">
        <ele>1580</ele>
        <time>2021-09-01T13:40:50.000Z</time>
      </trkpt>
      <trkpt lat="44.41445" lon="6.42549">
        <ele>1581</ele>
        <time>2021-09-01T13:40:51.000Z</time>
      </trkpt>
      <trkpt lat="44.41445" lon="6.42549">
        <ele>1581</ele>
        <time>2021-09-01T13:40:52.000Z</time>
      </trkpt>
      <trkpt lat="44.41445" lon="6.42549">
        <ele>1581</ele>
        <time>2021-09-01T13:40:53.000Z</time>
      </trkpt>
      <trkpt lat="44.41445" lon="6.42549">
        <ele>1581</ele>
        <time>2021-09-01T13:40:54.000Z</time>
      </trkpt>
      <trkpt lat="44.41445" lon="6.42549">
        <ele>1581</ele>
        <time>2021-09-01T13:40:55.000Z</time>
      </trkpt>
      <trkpt lat="44.41446" lon="6.42549">
        <ele>1583</ele>
        <time>2021-09-01T13:40:56.000Z</time>
      </trkpt>
      <trkpt lat="44.41447" lon="6.42549">
        <ele>1583</ele>
        <time>2021-09-01T13:40:57.000Z</time>
      </trkpt>
      <trkpt lat="44.41448" lon="6.42549">
        <ele>1584</ele>
        <time>2021-09-01T13:40:58.000Z</time>
      </trkpt>
      <trkpt lat="44.41449" lon="6.42549">
        <ele>1585</ele>
        <time>2021-09-01T13:40:59.000Z</time>
      </trkpt>
      <trkpt lat="44.4145" lon="6.42549">
        <ele>1587</ele>
        <time>2021-09-01T13:41:00.000Z</time>
      </trkpt>
      <trkpt lat="44.41451" lon="6.42549">
        <ele>1588</ele>
        <time>2021-09-01T13:41:01.000Z</time>
      </trkpt>
      <trkpt lat="44.41451" lon="6.42549">
        <ele>1589</ele>
        <time>2021-09-01T13:41:02.000Z</time>
      </trkpt>
      <trkpt lat="44.41452" lon="6.42549">
        <ele>1590</ele>
        <time>2021-09-01T13:41:03.000Z</time>
      </trkpt>
      <trkpt lat="44.41453" lon="6.42549">
        <ele>1591</ele>
        <time>2021-09-01T13:41:04.000Z</time>
      </trkpt>
      <trkpt lat="44.41453" lon="6.42549">
        <ele>1592</ele>
        <time>2021-09-01T13:41:05.000Z</time>
      </trkpt>
      <trkpt lat="44.41454" lon="6.42549">
        <ele>1592</ele>
        <time>2021-09-01T13:41:06.000Z</time>
      </trkpt>
      <trkpt lat="44.41454" lon="6.42549">
        <ele>1592</ele>
        <time>2021-09-01T13:41:07.000Z</time>
      </trkpt>
      <trkpt lat="44.41454" lon="6.42549">
        <ele>1593</ele>
        <time>2021-09-01T13:41:08.000Z</time>
      </trkpt>
      <trkpt lat="44.41455" lon="6.42549">
        <ele>1593</ele>
        <time>2021-09-01T13:41:09.000Z</time>
      </trkpt>
      <trkpt lat="44.41455" lon="6.42549">
        <ele>1594</ele>
        <time>2021-09-01T13:41:10.000Z</time>
      </trkpt>
      <trkpt lat="44.41456" lon="6.4255">
        <ele>1594</ele>
        <time>2021-09-01T13:41:11.000Z</time>
      </trkpt>
      <trkpt lat="44.41456" lon="6.4255">
        <ele>1594</ele>
        <time>2021-09-01T13:41:12.000Z</time>
      </trkpt>
      <trkpt lat="44.41456" lon="6.4255">
        <ele>1594</ele>
        <time>2021-09-01T13:41:13.000Z</time>
      </trkpt>
      <trkpt lat="44.41456" lon="6.4255">
        <ele>1595</ele>
        <time>2021-09-01T13:41:14.000Z</time>
      </trkpt>
      <trkpt lat="44.41456" lon="6.4255">
        <ele>1594</ele>
        <time>2021-09-01T13:41:15.000Z</time>
      </trkpt>
      <trkpt lat="44.41456" lon="6.4255">
        <ele>1594</ele>
        <time>2021-09-01T13:41:16.000Z</time>
      </trkpt>
      <trkpt lat="44.41456" lon="6.4255">
        <ele>1595</ele>
        <time>2021-09-01T13:41:17.000Z</time>
      </trkpt>
      <trkpt lat="44.41456" lon="6.4255">
        <ele>1595</ele>
        <time>2021-09-01T13:41:18.000Z</time>
      </trkpt>
      <trkpt lat="44.41456" lon="6.4255">
        <ele>1595</ele>
        <time>2021-09-01T13:41:19.000Z</time>
      </trkpt>
      <trkpt lat="44.41456" lon="6.4255">
        <ele>1595</ele>
        <time>2021-09-01T13:41:20.000Z</time>
      </trkpt>
      <trkpt lat="44.41456" lon="6.4255">
        <ele>1595</ele>
        <time>2021-09-01T13:41:21.000Z</time>
      </trkpt>
      <trkpt lat="44.41456" lon="6.4255">
        <ele>1595</ele>
        <time>2021-09-01T13:41:22.000Z</time>
      </trkpt>
      <trkpt lat="44.41457" lon="6.42551">
        <ele>1595</ele>
        <time>2021-09-01T13:41:23.000Z</time>
      </trkpt>
      <trkpt lat="44.41457" lon="6.42551">
        <ele>1595</ele>
        <time>2021-09-01T13:41:24.000Z</time>
      </trkpt>
      <trkpt lat="44.41457" lon="6.42551">
        <ele>1595</ele>
        <time>2021-09-01T13:41:25.000Z</time>
      </trkpt>
      <trkpt lat="44.41457" lon="6.42551">
        <ele>1596</ele>
        <time>2021-09-01T13:41:26.000Z</time>
      </trkpt>
      <trkpt lat="44.41457" lon="6.42552">
        <ele>1596</ele>
        <time>2021-09-01T13:41:27.000Z</time>
      </trkpt>
      <trkpt lat="44.41457" lon="6.42552">
        <ele>1596</ele>
        <time>2021-09-01T13:41:28.000Z</time>
      </trkpt>
      <trkpt lat="44.41457" lon="6.42552">
        <ele>1596</ele>
        <time>2021-09-01T13:41:29.000Z</time>
      </trkpt>
      <trkpt lat="44.41457" lon="6.42552">
        <ele>1596</ele>
        <time>2021-09-01T13:41:30.000Z</time>
      </trkpt>
      <trkpt lat="44.41457" lon="6.42552">
        <ele>1596</ele>
        <time>2021-09-01T13:41:31.000Z</time>
      </trkpt>
      <trkpt lat="44.41457" lon="6.42553">
        <ele>1596</ele>
        <time>2021-09-01T13:41:32.000Z</time>
      </trkpt>
      <trkpt lat="44.41456" lon="6.42553">
        <ele>1596</ele>
        <time>2021-09-01T13:41:33.000Z</time>
      </trkpt>
      <trkpt lat="44.41456" lon="6.42553">
        <ele>1596</ele>
        <time>2021-09-01T13:41:34.000Z</time>
      </trkpt>
      <trkpt lat="44.41456" lon="6.42553">
        <ele>1596</ele>
        <time>2021-09-01T13:41:35.000Z</time>
      </trkpt>
      <trkpt lat="44.41456" lon="6.42553">
        <ele>1596</ele>
        <time>2021-09-01T13:41:36.000Z</time>
      </trkpt>
      <trkpt lat="44.41456" lon="6.42553">
        <ele>1596</ele>
        <time>2021-09-01T13:41:37.000Z</time>
      </trkpt>
      <trkpt lat="44.41456" lon="6.42553">
        <ele>1597</ele>
        <time>2021-09-01T13:41:38.000Z</time>
      </trkpt>
      <trkpt lat="44.41456" lon="6.42553">
        <ele>1597</ele>
        <time>2021-09-01T13:41:39.000Z</time>
      </trkpt>
      <trkpt lat="44.41456" lon="6.42553">
        <ele>1597</ele>
        <time>2021-09-01T13:41:40.000Z</time>
      </trkpt>
      <trkpt lat="44.41456" lon="6.42553">
        <ele>1597</ele>
        <time>2021-09-01T13:41:41.000Z</time>
      </trkpt>
      <trkpt lat="44.41456" lon="6.42553">
        <ele>1598</ele>
        <time>2021-09-01T13:41:42.000Z</time>
      </trkpt>
      <trkpt lat="44.41456" lon="6.42553">
        <ele>1598</ele>
        <time>2021-09-01T13:41:43.000Z</time>
      </trkpt>
      <trkpt lat="44.41456" lon="6.42553">
        <ele>1598</ele>
        <time>2021-09-01T13:41:44.000Z</time>
      </trkpt>
      <trkpt lat="44.41456" lon="6.42552">
        <ele>1599</ele>
        <time>2021-09-01T13:41:45.000Z</time>
      </trkpt>
      <trkpt lat="44.41456" lon="6.42552">
        <ele>1599</ele>
        <time>2021-09-01T13:41:46.000Z</time>
      </trkpt>
      <trkpt lat="44.41456" lon="6.42552">
        <ele>1600</ele>
        <time>2021-09-01T13:41:47.000Z</time>
      </trkpt>
      <trkpt lat="44.41457" lon="6.42552">
        <ele>1600</ele>
        <time>2021-09-01T13:41:48.000Z</time>
      </trkpt>
      <trkpt lat="44.41457" lon="6.42552">
        <ele>1601</ele>
        <time>2021-09-01T13:41:49.000Z</time>
      </trkpt>
      <trkpt lat="44.41457" lon="6.42552">
        <ele>1602</ele>
        <time>2021-09-01T13:41:50.000Z</time>
      </trkpt>
      <trkpt lat="44.41457" lon="6.42552">
        <ele>1602</ele>
        <time>2021-09-01T13:41:51.000Z</time>
      </trkpt>
      <trkpt lat="44.41458" lon="6.42553">
        <ele>1603</ele>
        <time>2021-09-01T13:41:52.000Z</time>
      </trkpt>
      <trkpt lat="44.41459" lon="6.42553">
        <ele>1603</ele>
        <time>2021-09-01T13:41:53.000Z</time>
      </trkpt>
      <trkpt lat="44.41459" lon="6.42553">
        <ele>1604</ele>
        <time>2021-09-01T13:41:54.000Z</time>
      </trkpt>
      <trkpt lat="44.41459" lon="6.42553">
        <ele>1605</ele>
        <time>2021-09-01T13:41:55.000Z</time>
      </trkpt>
      <trkpt lat="44.4146" lon="6.42553">
        <ele>1606</ele>
        <time>2021-09-01T13:41:56.000Z</time>
      </trkpt>
      <trkpt lat="44.41461" lon="6.42554">
        <ele>1606</ele>
        <time>2021-09-01T13:41:57.000Z</time>
      </trkpt>
      <trkpt lat="44.41461" lon="6.42554">
        <ele>1607</ele>
        <time>2021-09-01T13:41:58.000Z</time>
      </trkpt>
      <trkpt lat="44.41462" lon="6.42554">
        <ele>1608</ele>
        <time>2021-09-01T13:41:59.000Z</time>
      </trkpt>
      <trkpt lat="44.41463" lon="6.42555">
        <ele>1609</ele>
        <time>2021-09-01T13:42:00.000Z</time>
      </trkpt>
      <trkpt lat="44.41465" lon="6.42556">
        <ele>1609</ele>
        <time>2021-09-01T13:42:01.000Z</time>
      </trkpt>
      <trkpt lat="44.41465" lon="6.42555">
        <ele>1610</ele>
        <time>2021-09-01T13:42:02.000Z</time>
      </trkpt>
      <trkpt lat="44.41465" lon="6.42555">
        <ele>1609</ele>
        <time>2021-09-01T13:42:03.000Z</time>
      </trkpt>
      <trkpt lat="44.41466" lon="6.42554">
        <ele>1609</ele>
        <time>2021-09-01T13:42:04.000Z</time>
      </trkpt>
      <trkpt lat="44.41467" lon="6.42552">
        <ele>1609</ele>
        <time>2021-09-01T13:42:05.000Z</time>
      </trkpt>
      <trkpt lat="44.41467" lon="6.4255">
        <ele>1608</ele>
        <time>2021-09-01T13:42:06.000Z</time>
      </trkpt>
      <trkpt lat="44.41468" lon="6.42549">
        <ele>1608</ele>
        <time>2021-09-01T13:42:07.000Z</time>
      </trkpt>
      <trkpt lat="44.41469" lon="6.42547">
        <ele>1608</ele>
        <time>2021-09-01T13:42:08.000Z</time>
      </trkpt>
      <trkpt lat="44.4147" lon="6.42546">
        <ele>1609</ele>
        <time>2021-09-01T13:42:09.000Z</time>
      </trkpt>
      <trkpt lat="44.41471" lon="6.42545">
        <ele>1609</ele>
        <time>2021-09-01T13:42:10.000Z</time>
      </trkpt>
      <trkpt lat="44.41473" lon="6.42544">
        <ele>1609</ele>
        <time>2021-09-01T13:42:11.000Z</time>
      </trkpt>
      <trkpt lat="44.41474" lon="6.42543">
        <ele>1609</ele>
        <time>2021-09-01T13:42:12.000Z</time>
      </trkpt>
      <trkpt lat="44.41475" lon="6.42542">
        <ele>1608</ele>
        <time>2021-09-01T13:42:13.000Z</time>
      </trkpt>
      <trkpt lat="44.41477" lon="6.42541">
        <ele>1608</ele>
        <time>2021-09-01T13:42:14.000Z</time>
      </trkpt>
      <trkpt lat="44.41479" lon="6.4254">
        <ele>1608</ele>
        <time>2021-09-01T13:42:15.000Z</time>
      </trkpt>
      <trkpt lat="44.41481" lon="6.42539">
        <ele>1607</ele>
        <time>2021-09-01T13:42:16.000Z</time>
      </trkpt>
      <trkpt lat="44.41483" lon="6.42538">
        <ele>1606</ele>
        <time>2021-09-01T13:42:17.000Z</time>
      </trkpt>
      <trkpt lat="44.41485" lon="6.42536">
        <ele>1606</ele>
        <time>2021-09-01T13:42:18.000Z</time>
      </trkpt>
      <trkpt lat="44.41487" lon="6.42534">
        <ele>1605</ele>
        <time>2021-09-01T13:42:19.000Z</time>
      </trkpt>
      <trkpt lat="44.41488" lon="6.42533">
        <ele>1605</ele>
        <time>2021-09-01T13:42:20.000Z</time>
      </trkpt>
      <trkpt lat="44.4149" lon="6.42531">
        <ele>1605</ele>
        <time>2021-09-01T13:42:21.000Z</time>
      </trkpt>
      <trkpt lat="44.41491" lon="6.42531">
        <ele>1605</ele>
        <time>2021-09-01T13:42:22.000Z</time>
      </trkpt>
      <trkpt lat="44.41493" lon="6.42529">
        <ele>1604</ele>
        <time>2021-09-01T13:42:23.000Z</time>
      </trkpt>
      <trkpt lat="44.41493" lon="6.42528">
        <ele>1604</ele>
        <time>2021-09-01T13:42:24.000Z</time>
      </trkpt>
      <trkpt lat="44.41495" lon="6.42526">
        <ele>1604</ele>
        <time>2021-09-01T13:42:25.000Z</time>
      </trkpt>
      <trkpt lat="44.41496" lon="6.42525">
        <ele>1604</ele>
        <time>2021-09-01T13:42:26.000Z</time>
      </trkpt>
      <trkpt lat="44.41497" lon="6.42525">
        <ele>1604</ele>
        <time>2021-09-01T13:42:27.000Z</time>
      </trkpt>
      <trkpt lat="44.41498" lon="6.42524">
        <ele>1603</ele>
        <time>2021-09-01T13:42:28.000Z</time>
      </trkpt>
      <trkpt lat="44.41499" lon="6.42523">
        <ele>1603</ele>
        <time>2021-09-01T13:42:29.000Z</time>
      </trkpt>
      <trkpt lat="44.41501" lon="6.42522">
        <ele>1602</ele>
        <time>2021-09-01T13:42:30.000Z</time>
      </trkpt>
      <trkpt lat="44.41502" lon="6.42522">
        <ele>1602</ele>
        <time>2021-09-01T13:42:31.000Z</time>
      </trkpt>
      <trkpt lat="44.41503" lon="6.42521">
        <ele>1602</ele>
        <time>2021-09-01T13:42:32.000Z</time>
      </trkpt>
      <trkpt lat="44.41505" lon="6.42521">
        <ele>1601</ele>
        <time>2021-09-01T13:42:33.000Z</time>
      </trkpt>
      <trkpt lat="44.41506" lon="6.4252">
        <ele>1601</ele>
        <time>2021-09-01T13:42:34.000Z</time>
      </trkpt>
      <trkpt lat="44.41508" lon="6.4252">
        <ele>1601</ele>
        <time>2021-09-01T13:42:35.000Z</time>
      </trkpt>
      <trkpt lat="44.41509" lon="6.42519">
        <ele>1601</ele>
        <time>2021-09-01T13:42:36.000Z</time>
      </trkpt>
      <trkpt lat="44.4151" lon="6.42519">
        <ele>1601</ele>
        <time>2021-09-01T13:42:37.000Z</time>
      </trkpt>
      <trkpt lat="44.41512" lon="6.42518">
        <ele>1600</ele>
        <time>2021-09-01T13:42:38.000Z</time>
      </trkpt>
      <trkpt lat="44.41514" lon="6.42518">
        <ele>1600</ele>
        <time>2021-09-01T13:42:39.000Z</time>
      </trkpt>
      <trkpt lat="44.41516" lon="6.42517">
        <ele>1600</ele>
        <time>2021-09-01T13:42:40.000Z</time>
      </trkpt>
      <trkpt lat="44.41519" lon="6.42517">
        <ele>1600</ele>
        <time>2021-09-01T13:42:41.000Z</time>
      </trkpt>
      <trkpt lat="44.41521" lon="6.42517">
        <ele>1598</ele>
        <time>2021-09-01T13:42:42.000Z</time>
      </trkpt>
      <trkpt lat="44.41523" lon="6.42517">
        <ele>1598</ele>
        <time>2021-09-01T13:42:43.000Z</time>
      </trkpt>
      <trkpt lat="44.41525" lon="6.42517">
        <ele>1598</ele>
        <time>2021-09-01T13:42:44.000Z</time>
      </trkpt>
      <trkpt lat="44.41527" lon="6.42516">
        <ele>1598</ele>
        <time>2021-09-01T13:42:45.000Z</time>
      </trkpt>
      <trkpt lat="44.4153" lon="6.42516">
        <ele>1598</ele>
        <time>2021-09-01T13:42:46.000Z</time>
      </trkpt>
      <trkpt lat="44.41532" lon="6.42516">
        <ele>1597</ele>
        <time>2021-09-01T13:42:47.000Z</time>
      </trkpt>
      <trkpt lat="44.41535" lon="6.42515">
        <ele>1597</ele>
        <time>2021-09-01T13:42:48.000Z</time>
      </trkpt>
      <trkpt lat="44.41537" lon="6.42515">
        <ele>1596</ele>
        <time>2021-09-01T13:42:49.000Z</time>
      </trkpt>
      <trkpt lat="44.4154" lon="6.42514">
        <ele>1597</ele>
        <time>2021-09-01T13:42:50.000Z</time>
      </trkpt>
      <trkpt lat="44.41542" lon="6.42514">
        <ele>1597</ele>
        <time>2021-09-01T13:42:51.000Z</time>
      </trkpt>
      <trkpt lat="44.41545" lon="6.42514">
        <ele>1596</ele>
        <time>2021-09-01T13:42:52.000Z</time>
      </trkpt>
      <trkpt lat="44.41547" lon="6.42513">
        <ele>1596</ele>
        <time>2021-09-01T13:42:53.000Z</time>
      </trkpt>
      <trkpt lat="44.41549" lon="6.42514">
        <ele>1597</ele>
        <time>2021-09-01T13:42:54.000Z</time>
      </trkpt>
      <trkpt lat="44.41551" lon="6.42514">
        <ele>1597</ele>
        <time>2021-09-01T13:42:55.000Z</time>
      </trkpt>
      <trkpt lat="44.41552" lon="6.42515">
        <ele>1598</ele>
        <time>2021-09-01T13:42:56.000Z</time>
      </trkpt>
      <trkpt lat="44.41554" lon="6.42515">
        <ele>1598</ele>
        <time>2021-09-01T13:42:57.000Z</time>
      </trkpt>
      <trkpt lat="44.41556" lon="6.42515">
        <ele>1599</ele>
        <time>2021-09-01T13:42:58.000Z</time>
      </trkpt>
      <trkpt lat="44.41558" lon="6.42514">
        <ele>1599</ele>
        <time>2021-09-01T13:42:59.000Z</time>
      </trkpt>
      <trkpt lat="44.4156" lon="6.42513">
        <ele>1599</ele>
        <time>2021-09-01T13:43:00.000Z</time>
      </trkpt>
      <trkpt lat="44.41562" lon="6.42513">
        <ele>1599</ele>
        <time>2021-09-01T13:43:01.000Z</time>
      </trkpt>
      <trkpt lat="44.41565" lon="6.42512">
        <ele>1599</ele>
        <time>2021-09-01T13:43:02.000Z</time>
      </trkpt>
      <trkpt lat="44.41569" lon="6.42511">
        <ele>1597</ele>
        <time>2021-09-01T13:43:03.000Z</time>
      </trkpt>
      <trkpt lat="44.41572" lon="6.42509">
        <ele>1598</ele>
        <time>2021-09-01T13:43:04.000Z</time>
      </trkpt>
      <trkpt lat="44.41575" lon="6.42508">
        <ele>1599</ele>
        <time>2021-09-01T13:43:05.000Z</time>
      </trkpt>
      <trkpt lat="44.41579" lon="6.42507">
        <ele>1600</ele>
        <time>2021-09-01T13:43:06.000Z</time>
      </trkpt>
      <trkpt lat="44.41582" lon="6.42506">
        <ele>1601</ele>
        <time>2021-09-01T13:43:07.000Z</time>
      </trkpt>
      <trkpt lat="44.41585" lon="6.42505">
        <ele>1602</ele>
        <time>2021-09-01T13:43:08.000Z</time>
      </trkpt>
      <trkpt lat="44.41587" lon="6.42504">
        <ele>1602</ele>
        <time>2021-09-01T13:43:09.000Z</time>
      </trkpt>
      <trkpt lat="44.4159" lon="6.42502">
        <ele>1603</ele>
        <time>2021-09-01T13:43:10.000Z</time>
      </trkpt>
      <trkpt lat="44.41593" lon="6.42501">
        <ele>1602</ele>
        <time>2021-09-01T13:43:11.000Z</time>
      </trkpt>
      <trkpt lat="44.41595" lon="6.42498">
        <ele>1601</ele>
        <time>2021-09-01T13:43:12.000Z</time>
      </trkpt>
      <trkpt lat="44.41597" lon="6.42497">
        <ele>1601</ele>
        <time>2021-09-01T13:43:13.000Z</time>
      </trkpt>
      <trkpt lat="44.41599" lon="6.42495">
        <ele>1600</ele>
        <time>2021-09-01T13:43:14.000Z</time>
      </trkpt>
      <trkpt lat="44.41602" lon="6.42493">
        <ele>1600</ele>
        <time>2021-09-01T13:43:15.000Z</time>
      </trkpt>
      <trkpt lat="44.41604" lon="6.42492">
        <ele>1600</ele>
        <time>2021-09-01T13:43:16.000Z</time>
      </trkpt>
      <trkpt lat="44.41605" lon="6.4249">
        <ele>1600</ele>
        <time>2021-09-01T13:43:17.000Z</time>
      </trkpt>
      <trkpt lat="44.41608" lon="6.42489">
        <ele>1600</ele>
        <time>2021-09-01T13:43:18.000Z</time>
      </trkpt>
      <trkpt lat="44.4161" lon="6.42487">
        <ele>1601</ele>
        <time>2021-09-01T13:43:19.000Z</time>
      </trkpt>
      <trkpt lat="44.41612" lon="6.42486">
        <ele>1602</ele>
        <time>2021-09-01T13:43:20.000Z</time>
      </trkpt>
      <trkpt lat="44.41614" lon="6.42484">
        <ele>1602</ele>
        <time>2021-09-01T13:43:21.000Z</time>
      </trkpt>
      <trkpt lat="44.41616" lon="6.42483">
        <ele>1603</ele>
        <time>2021-09-01T13:43:22.000Z</time>
      </trkpt>
      <trkpt lat="44.41619" lon="6.42481">
        <ele>1604</ele>
        <time>2021-09-01T13:43:23.000Z</time>
      </trkpt>
      <trkpt lat="44.41621" lon="6.42479">
        <ele>1605</ele>
        <time>2021-09-01T13:43:24.000Z</time>
      </trkpt>
      <trkpt lat="44.41624" lon="6.42478">
        <ele>1605</ele>
        <time>2021-09-01T13:43:25.000Z</time>
      </trkpt>
      <trkpt lat="44.41626" lon="6.42476">
        <ele>1606</ele>
        <time>2021-09-01T13:43:26.000Z</time>
      </trkpt>
      <trkpt lat="44.41628" lon="6.42474">
        <ele>1607</ele>
        <time>2021-09-01T13:43:27.000Z</time>
      </trkpt>
      <trkpt lat="44.41629" lon="6.42472">
        <ele>1608</ele>
        <time>2021-09-01T13:43:28.000Z</time>
      </trkpt>
      <trkpt lat="44.41631" lon="6.42469">
        <ele>1608</ele>
        <time>2021-09-01T13:43:29.000Z</time>
      </trkpt>
      <trkpt lat="44.41633" lon="6.42467">
        <ele>1609</ele>
        <time>2021-09-01T13:43:30.000Z</time>
      </trkpt>
      <trkpt lat="44.41635" lon="6.42465">
        <ele>1609</ele>
        <time>2021-09-01T13:43:31.000Z</time>
      </trkpt>
      <trkpt lat="44.41637" lon="6.42464">
        <ele>1610</ele>
        <time>2021-09-01T13:43:32.000Z</time>
      </trkpt>
      <trkpt lat="44.41638" lon="6.42462">
        <ele>1611</ele>
        <time>2021-09-01T13:43:33.000Z</time>
      </trkpt>
      <trkpt lat="44.41639" lon="6.42459">
        <ele>1611</ele>
        <time>2021-09-01T13:43:34.000Z</time>
      </trkpt>
      <trkpt lat="44.4164" lon="6.42457">
        <ele>1610</ele>
        <time>2021-09-01T13:43:35.000Z</time>
      </trkpt>
      <trkpt lat="44.41642" lon="6.42455">
        <ele>1610</ele>
        <time>2021-09-01T13:43:36.000Z</time>
      </trkpt>
      <trkpt lat="44.41643" lon="6.42453">
        <ele>1609</ele>
        <time>2021-09-01T13:43:37.000Z</time>
      </trkpt>
      <trkpt lat="44.41644" lon="6.42451">
        <ele>1609</ele>
        <time>2021-09-01T13:43:38.000Z</time>
      </trkpt>
      <trkpt lat="44.41645" lon="6.42449">
        <ele>1609</ele>
        <time>2021-09-01T13:43:39.000Z</time>
      </trkpt>
      <trkpt lat="44.41646" lon="6.42447">
        <ele>1610</ele>
        <time>2021-09-01T13:43:40.000Z</time>
      </trkpt>
      <trkpt lat="44.41646" lon="6.42444">
        <ele>1610</ele>
        <time>2021-09-01T13:43:41.000Z</time>
      </trkpt>
      <trkpt lat="44.41647" lon="6.42441">
        <ele>1610</ele>
        <time>2021-09-01T13:43:42.000Z</time>
      </trkpt>
      <trkpt lat="44.41648" lon="6.42437">
        <ele>1610</ele>
        <time>2021-09-01T13:43:43.000Z</time>
      </trkpt>
      <trkpt lat="44.41649" lon="6.42434">
        <ele>1610</ele>
        <time>2021-09-01T13:43:44.000Z</time>
      </trkpt>
      <trkpt lat="44.41651" lon="6.42431">
        <ele>1610</ele>
        <time>2021-09-01T13:43:45.000Z</time>
      </trkpt>
      <trkpt lat="44.41652" lon="6.42427">
        <ele>1610</ele>
        <time>2021-09-01T13:43:46.000Z</time>
      </trkpt>
      <trkpt lat="44.41653" lon="6.42424">
        <ele>1611</ele>
        <time>2021-09-01T13:43:47.000Z</time>
      </trkpt>
      <trkpt lat="44.41653" lon="6.42421">
        <ele>1611</ele>
        <time>2021-09-01T13:43:48.000Z</time>
      </trkpt>
      <trkpt lat="44.41654" lon="6.42419">
        <ele>1611</ele>
        <time>2021-09-01T13:43:49.000Z</time>
      </trkpt>
      <trkpt lat="44.41655" lon="6.42416">
        <ele>1611</ele>
        <time>2021-09-01T13:43:50.000Z</time>
      </trkpt>
      <trkpt lat="44.41655" lon="6.42412">
        <ele>1611</ele>
        <time>2021-09-01T13:43:51.000Z</time>
      </trkpt>
      <trkpt lat="44.41657" lon="6.42408">
        <ele>1610</ele>
        <time>2021-09-01T13:43:52.000Z</time>
      </trkpt>
      <trkpt lat="44.41658" lon="6.42405">
        <ele>1609</ele>
        <time>2021-09-01T13:43:53.000Z</time>
      </trkpt>
      <trkpt lat="44.41659" lon="6.42403">
        <ele>1609</ele>
        <time>2021-09-01T13:43:54.000Z</time>
      </trkpt>
      <trkpt lat="44.4166" lon="6.424">
        <ele>1608</ele>
        <time>2021-09-01T13:43:55.000Z</time>
      </trkpt>
      <trkpt lat="44.41661" lon="6.42397">
        <ele>1608</ele>
        <time>2021-09-01T13:43:56.000Z</time>
      </trkpt>
      <trkpt lat="44.41662" lon="6.42395">
        <ele>1607</ele>
        <time>2021-09-01T13:43:57.000Z</time>
      </trkpt>
      <trkpt lat="44.41663" lon="6.42393">
        <ele>1607</ele>
        <time>2021-09-01T13:43:58.000Z</time>
      </trkpt>
      <trkpt lat="44.41664" lon="6.42389">
        <ele>1607</ele>
        <time>2021-09-01T13:43:59.000Z</time>
      </trkpt>
      <trkpt lat="44.41665" lon="6.42387">
        <ele>1605</ele>
        <time>2021-09-01T13:44:00.000Z</time>
      </trkpt>
      <trkpt lat="44.41666" lon="6.42384">
        <ele>1604</ele>
        <time>2021-09-01T13:44:01.000Z</time>
      </trkpt>
      <trkpt lat="44.41667" lon="6.42382">
        <ele>1605</ele>
        <time>2021-09-01T13:44:02.000Z</time>
      </trkpt>
      <trkpt lat="44.41669" lon="6.42381">
        <ele>1604</ele>
        <time>2021-09-01T13:44:03.000Z</time>
      </trkpt>
      <trkpt lat="44.4167" lon="6.42378">
        <ele>1603</ele>
        <time>2021-09-01T13:44:04.000Z</time>
      </trkpt>
      <trkpt lat="44.41672" lon="6.42376">
        <ele>1604</ele>
        <time>2021-09-01T13:44:05.000Z</time>
      </trkpt>
      <trkpt lat="44.41674" lon="6.42374">
        <ele>1603</ele>
        <time>2021-09-01T13:44:06.000Z</time>
      </trkpt>
      <trkpt lat="44.41676" lon="6.42372">
        <ele>1603</ele>
        <time>2021-09-01T13:44:07.000Z</time>
      </trkpt>
      <trkpt lat="44.41677" lon="6.42371">
        <ele>1604</ele>
        <time>2021-09-01T13:44:08.000Z</time>
      </trkpt>
      <trkpt lat="44.41679" lon="6.4237">
        <ele>1604</ele>
        <time>2021-09-01T13:44:09.000Z</time>
      </trkpt>
      <trkpt lat="44.41681" lon="6.42369">
        <ele>1606</ele>
        <time>2021-09-01T13:44:10.000Z</time>
      </trkpt>
      <trkpt lat="44.41684" lon="6.42368">
        <ele>1607</ele>
        <time>2021-09-01T13:44:11.000Z</time>
      </trkpt>
      <trkpt lat="44.41686" lon="6.42367">
        <ele>1607</ele>
        <time>2021-09-01T13:44:12.000Z</time>
      </trkpt>
      <trkpt lat="44.41689" lon="6.42365">
        <ele>1605</ele>
        <time>2021-09-01T13:44:13.000Z</time>
      </trkpt>
      <trkpt lat="44.41692" lon="6.42364">
        <ele>1607</ele>
        <time>2021-09-01T13:44:14.000Z</time>
      </trkpt>
      <trkpt lat="44.41695" lon="6.42363">
        <ele>1609</ele>
        <time>2021-09-01T13:44:15.000Z</time>
      </trkpt>
      <trkpt lat="44.41698" lon="6.42362">
        <ele>1610</ele>
        <time>2021-09-01T13:44:16.000Z</time>
      </trkpt>
      <trkpt lat="44.41701" lon="6.4236">
        <ele>1611</ele>
        <time>2021-09-01T13:44:17.000Z</time>
      </trkpt>
      <trkpt lat="44.41703" lon="6.42358">
        <ele>1612</ele>
        <time>2021-09-01T13:44:18.000Z</time>
      </trkpt>
      <trkpt lat="44.41706" lon="6.42356">
        <ele>1613</ele>
        <time>2021-09-01T13:44:19.000Z</time>
      </trkpt>
      <trkpt lat="44.41708" lon="6.42355">
        <ele>1614</ele>
        <time>2021-09-01T13:44:20.000Z</time>
      </trkpt>
      <trkpt lat="44.41711" lon="6.42353">
        <ele>1615</ele>
        <time>2021-09-01T13:44:21.000Z</time>
      </trkpt>
      <trkpt lat="44.41714" lon="6.42351">
        <ele>1615</ele>
        <time>2021-09-01T13:44:22.000Z</time>
      </trkpt>
      <trkpt lat="44.41717" lon="6.42349">
        <ele>1617</ele>
        <time>2021-09-01T13:44:23.000Z</time>
      </trkpt>
      <trkpt lat="44.4172" lon="6.42347">
        <ele>1618</ele>
        <time>2021-09-01T13:44:24.000Z</time>
      </trkpt>
      <trkpt lat="44.41722" lon="6.42345">
        <ele>1619</ele>
        <time>2021-09-01T13:44:25.000Z</time>
      </trkpt>
      <trkpt lat="44.41725" lon="6.42343">
        <ele>1620</ele>
        <time>2021-09-01T13:44:26.000Z</time>
      </trkpt>
      <trkpt lat="44.41727" lon="6.42342">
        <ele>1621</ele>
        <time>2021-09-01T13:44:27.000Z</time>
      </trkpt>
      <trkpt lat="44.41729" lon="6.4234">
        <ele>1621</ele>
        <time>2021-09-01T13:44:28.000Z</time>
      </trkpt>
      <trkpt lat="44.41732" lon="6.42339">
        <ele>1622</ele>
        <time>2021-09-01T13:44:29.000Z</time>
      </trkpt>
      <trkpt lat="44.41734" lon="6.42337">
        <ele>1624</ele>
        <time>2021-09-01T13:44:30.000Z</time>
      </trkpt>
      <trkpt lat="44.41738" lon="6.42335">
        <ele>1625</ele>
        <time>2021-09-01T13:44:31.000Z</time>
      </trkpt>
      <trkpt lat="44.41741" lon="6.42334">
        <ele>1625</ele>
        <time>2021-09-01T13:44:32.000Z</time>
      </trkpt>
      <trkpt lat="44.41744" lon="6.42331">
        <ele>1625</ele>
        <time>2021-09-01T13:44:33.000Z</time>
      </trkpt>
      <trkpt lat="44.41746" lon="6.42329">
        <ele>1626</ele>
        <time>2021-09-01T13:44:34.000Z</time>
      </trkpt>
      <trkpt lat="44.41749" lon="6.42328">
        <ele>1626</ele>
        <time>2021-09-01T13:44:35.000Z</time>
      </trkpt>
      <trkpt lat="44.41751" lon="6.42327">
        <ele>1627</ele>
        <time>2021-09-01T13:44:36.000Z</time>
      </trkpt>
      <trkpt lat="44.41753" lon="6.42326">
        <ele>1627</ele>
        <time>2021-09-01T13:44:37.000Z</time>
      </trkpt>
      <trkpt lat="44.41756" lon="6.42325">
        <ele>1627</ele>
        <time>2021-09-01T13:44:38.000Z</time>
      </trkpt>
      <trkpt lat="44.41757" lon="6.42324">
        <ele>1627</ele>
        <time>2021-09-01T13:44:39.000Z</time>
      </trkpt>
      <trkpt lat="44.41759" lon="6.42322">
        <ele>1628</ele>
        <time>2021-09-01T13:44:40.000Z</time>
      </trkpt>
      <trkpt lat="44.41761" lon="6.42321">
        <ele>1628</ele>
        <time>2021-09-01T13:44:41.000Z</time>
      </trkpt>
      <trkpt lat="44.41763" lon="6.42318">
        <ele>1628</ele>
        <time>2021-09-01T13:44:42.000Z</time>
      </trkpt>
      <trkpt lat="44.41765" lon="6.42317">
        <ele>1628</ele>
        <time>2021-09-01T13:44:43.000Z</time>
      </trkpt>
      <trkpt lat="44.41768" lon="6.42315">
        <ele>1629</ele>
        <time>2021-09-01T13:44:44.000Z</time>
      </trkpt>
      <trkpt lat="44.41771" lon="6.42313">
        <ele>1629</ele>
        <time>2021-09-01T13:44:45.000Z</time>
      </trkpt>
      <trkpt lat="44.41773" lon="6.42311">
        <ele>1629</ele>
        <time>2021-09-01T13:44:46.000Z</time>
      </trkpt>
      <trkpt lat="44.41774" lon="6.42309">
        <ele>1630</ele>
        <time>2021-09-01T13:44:47.000Z</time>
      </trkpt>
      <trkpt lat="44.41777" lon="6.42307">
        <ele>1630</ele>
        <time>2021-09-01T13:44:48.000Z</time>
      </trkpt>
      <trkpt lat="44.41779" lon="6.42306">
        <ele>1631</ele>
        <time>2021-09-01T13:44:49.000Z</time>
      </trkpt>
      <trkpt lat="44.41782" lon="6.42304">
        <ele>1631</ele>
        <time>2021-09-01T13:44:50.000Z</time>
      </trkpt>
      <trkpt lat="44.41784" lon="6.42302">
        <ele>1631</ele>
        <time>2021-09-01T13:44:51.000Z</time>
      </trkpt>
      <trkpt lat="44.41786" lon="6.42301">
        <ele>1631</ele>
        <time>2021-09-01T13:44:52.000Z</time>
      </trkpt>
      <trkpt lat="44.41789" lon="6.42299">
        <ele>1631</ele>
        <time>2021-09-01T13:44:53.000Z</time>
      </trkpt>
      <trkpt lat="44.41791" lon="6.42297">
        <ele>1631</ele>
        <time>2021-09-01T13:44:54.000Z</time>
      </trkpt>
      <trkpt lat="44.41794" lon="6.42296">
        <ele>1631</ele>
        <time>2021-09-01T13:44:55.000Z</time>
      </trkpt>
      <trkpt lat="44.41796" lon="6.42293">
        <ele>1631</ele>
        <time>2021-09-01T13:44:56.000Z</time>
      </trkpt>
      <trkpt lat="44.41799" lon="6.42292">
        <ele>1632</ele>
        <time>2021-09-01T13:44:57.000Z</time>
      </trkpt>
      <trkpt lat="44.41801" lon="6.4229">
        <ele>1631</ele>
        <time>2021-09-01T13:44:58.000Z</time>
      </trkpt>
      <trkpt lat="44.41804" lon="6.42288">
        <ele>1632</ele>
        <time>2021-09-01T13:44:59.000Z</time>
      </trkpt>
      <trkpt lat="44.41806" lon="6.42286">
        <ele>1633</ele>
        <time>2021-09-01T13:45:00.000Z</time>
      </trkpt>
      <trkpt lat="44.41808" lon="6.42285">
        <ele>1633</ele>
        <time>2021-09-01T13:45:01.000Z</time>
      </trkpt>
      <trkpt lat="44.4181" lon="6.42283">
        <ele>1632</ele>
        <time>2021-09-01T13:45:02.000Z</time>
      </trkpt>
      <trkpt lat="44.41811" lon="6.42281">
        <ele>1632</ele>
        <time>2021-09-01T13:45:03.000Z</time>
      </trkpt>
      <trkpt lat="44.41813" lon="6.42275">
        <ele>1632</ele>
        <time>2021-09-01T13:45:04.000Z</time>
      </trkpt>
      <trkpt lat="44.41816" lon="6.42272">
        <ele>1633</ele>
        <time>2021-09-01T13:45:05.000Z</time>
      </trkpt>
      <trkpt lat="44.41818" lon="6.42267">
        <ele>1633</ele>
        <time>2021-09-01T13:45:06.000Z</time>
      </trkpt>
      <trkpt lat="44.41818" lon="6.42264">
        <ele>1633</ele>
        <time>2021-09-01T13:45:07.000Z</time>
      </trkpt>
      <trkpt lat="44.4182" lon="6.42261">
        <ele>1633</ele>
        <time>2021-09-01T13:45:08.000Z</time>
      </trkpt>
      <trkpt lat="44.41821" lon="6.42259">
        <ele>1633</ele>
        <time>2021-09-01T13:45:09.000Z</time>
      </trkpt>
      <trkpt lat="44.41823" lon="6.42256">
        <ele>1634</ele>
        <time>2021-09-01T13:45:10.000Z</time>
      </trkpt>
      <trkpt lat="44.41825" lon="6.42254">
        <ele>1634</ele>
        <time>2021-09-01T13:45:11.000Z</time>
      </trkpt>
      <trkpt lat="44.41826" lon="6.42253">
        <ele>1634</ele>
        <time>2021-09-01T13:45:12.000Z</time>
      </trkpt>
      <trkpt lat="44.41828" lon="6.42252">
        <ele>1634</ele>
        <time>2021-09-01T13:45:13.000Z</time>
      </trkpt>
      <trkpt lat="44.41831" lon="6.42249">
        <ele>1632</ele>
        <time>2021-09-01T13:45:14.000Z</time>
      </trkpt>
      <trkpt lat="44.41834" lon="6.42246">
        <ele>1633</ele>
        <time>2021-09-01T13:45:15.000Z</time>
      </trkpt>
      <trkpt lat="44.41838" lon="6.42243">
        <ele>1633</ele>
        <time>2021-09-01T13:45:16.000Z</time>
      </trkpt>
      <trkpt lat="44.4184" lon="6.42241">
        <ele>1633</ele>
        <time>2021-09-01T13:45:17.000Z</time>
      </trkpt>
      <trkpt lat="44.41843" lon="6.4224">
        <ele>1634</ele>
        <time>2021-09-01T13:45:18.000Z</time>
      </trkpt>
      <trkpt lat="44.41845" lon="6.42238">
        <ele>1634</ele>
        <time>2021-09-01T13:45:19.000Z</time>
      </trkpt>
      <trkpt lat="44.41846" lon="6.42236">
        <ele>1633</ele>
        <time>2021-09-01T13:45:20.000Z</time>
      </trkpt>
      <trkpt lat="44.41847" lon="6.42234">
        <ele>1634</ele>
        <time>2021-09-01T13:45:21.000Z</time>
      </trkpt>
      <trkpt lat="44.41848" lon="6.42232">
        <ele>1634</ele>
        <time>2021-09-01T13:45:22.000Z</time>
      </trkpt>
      <trkpt lat="44.4185" lon="6.42228">
        <ele>1634</ele>
        <time>2021-09-01T13:45:23.000Z</time>
      </trkpt>
      <trkpt lat="44.41851" lon="6.42225">
        <ele>1634</ele>
        <time>2021-09-01T13:45:24.000Z</time>
      </trkpt>
      <trkpt lat="44.41852" lon="6.42222">
        <ele>1634</ele>
        <time>2021-09-01T13:45:25.000Z</time>
      </trkpt>
      <trkpt lat="44.41854" lon="6.42219">
        <ele>1633</ele>
        <time>2021-09-01T13:45:26.000Z</time>
      </trkpt>
      <trkpt lat="44.41855" lon="6.42217">
        <ele>1633</ele>
        <time>2021-09-01T13:45:27.000Z</time>
      </trkpt>
      <trkpt lat="44.41856" lon="6.42214">
        <ele>1633</ele>
        <time>2021-09-01T13:45:28.000Z</time>
      </trkpt>
      <trkpt lat="44.41856" lon="6.42211">
        <ele>1634</ele>
        <time>2021-09-01T13:45:29.000Z</time>
      </trkpt>
      <trkpt lat="44.41858" lon="6.42208">
        <ele>1634</ele>
        <time>2021-09-01T13:45:30.000Z</time>
      </trkpt>
      <trkpt lat="44.41858" lon="6.42205">
        <ele>1635</ele>
        <time>2021-09-01T13:45:31.000Z</time>
      </trkpt>
      <trkpt lat="44.41859" lon="6.42202">
        <ele>1635</ele>
        <time>2021-09-01T13:45:32.000Z</time>
      </trkpt>
      <trkpt lat="44.4186" lon="6.42198">
        <ele>1635</ele>
        <time>2021-09-01T13:45:33.000Z</time>
      </trkpt>
      <trkpt lat="44.41861" lon="6.42194">
        <ele>1635</ele>
        <time>2021-09-01T13:45:34.000Z</time>
      </trkpt>
      <trkpt lat="44.41862" lon="6.42191">
        <ele>1635</ele>
        <time>2021-09-01T13:45:35.000Z</time>
      </trkpt>
      <trkpt lat="44.41862" lon="6.42186">
        <ele>1636</ele>
        <time>2021-09-01T13:45:36.000Z</time>
      </trkpt>
      <trkpt lat="44.41864" lon="6.42182">
        <ele>1635</ele>
        <time>2021-09-01T13:45:37.000Z</time>
      </trkpt>
      <trkpt lat="44.41865" lon="6.42178">
        <ele>1636</ele>
        <time>2021-09-01T13:45:38.000Z</time>
      </trkpt>
      <trkpt lat="44.41866" lon="6.42175">
        <ele>1637</ele>
        <time>2021-09-01T13:45:39.000Z</time>
      </trkpt>
      <trkpt lat="44.41867" lon="6.42171">
        <ele>1637</ele>
        <time>2021-09-01T13:45:40.000Z</time>
      </trkpt>
      <trkpt lat="44.41869" lon="6.42166">
        <ele>1638</ele>
        <time>2021-09-01T13:45:41.000Z</time>
      </trkpt>
      <trkpt lat="44.41873" lon="6.42159">
        <ele>1639</ele>
        <time>2021-09-01T13:45:42.000Z</time>
      </trkpt>
      <trkpt lat="44.41874" lon="6.42156">
        <ele>1639</ele>
        <time>2021-09-01T13:45:43.000Z</time>
      </trkpt>
      <trkpt lat="44.41875" lon="6.42153">
        <ele>1639</ele>
        <time>2021-09-01T13:45:44.000Z</time>
      </trkpt>
      <trkpt lat="44.41877" lon="6.42149">
        <ele>1640</ele>
        <time>2021-09-01T13:45:45.000Z</time>
      </trkpt>
      <trkpt lat="44.41878" lon="6.42146">
        <ele>1640</ele>
        <time>2021-09-01T13:45:46.000Z</time>
      </trkpt>
      <trkpt lat="44.4188" lon="6.42143">
        <ele>1641</ele>
        <time>2021-09-01T13:45:47.000Z</time>
      </trkpt>
      <trkpt lat="44.41881" lon="6.42141">
        <ele>1642</ele>
        <time>2021-09-01T13:45:48.000Z</time>
      </trkpt>
      <trkpt lat="44.41883" lon="6.42139">
        <ele>1643</ele>
        <time>2021-09-01T13:45:49.000Z</time>
      </trkpt>
      <trkpt lat="44.41885" lon="6.42137">
        <ele>1643</ele>
        <time>2021-09-01T13:45:50.000Z</time>
      </trkpt>
      <trkpt lat="44.41887" lon="6.42134">
        <ele>1645</ele>
        <time>2021-09-01T13:45:51.000Z</time>
      </trkpt>
      <trkpt lat="44.41889" lon="6.42132">
        <ele>1645</ele>
        <time>2021-09-01T13:45:52.000Z</time>
      </trkpt>
      <trkpt lat="44.4189" lon="6.42129">
        <ele>1645</ele>
        <time>2021-09-01T13:45:53.000Z</time>
      </trkpt>
      <trkpt lat="44.41892" lon="6.42127">
        <ele>1646</ele>
        <time>2021-09-01T13:45:54.000Z</time>
      </trkpt>
      <trkpt lat="44.41894" lon="6.42125">
        <ele>1647</ele>
        <time>2021-09-01T13:45:55.000Z</time>
      </trkpt>
      <trkpt lat="44.41895" lon="6.42122">
        <ele>1648</ele>
        <time>2021-09-01T13:45:56.000Z</time>
      </trkpt>
      <trkpt lat="44.41897" lon="6.4212">
        <ele>1648</ele>
        <time>2021-09-01T13:45:57.000Z</time>
      </trkpt>
      <trkpt lat="44.41899" lon="6.42118">
        <ele>1649</ele>
        <time>2021-09-01T13:45:58.000Z</time>
      </trkpt>
      <trkpt lat="44.419" lon="6.42115">
        <ele>1649</ele>
        <time>2021-09-01T13:45:59.000Z</time>
      </trkpt>
      <trkpt lat="44.41903" lon="6.42113">
        <ele>1650</ele>
        <time>2021-09-01T13:46:00.000Z</time>
      </trkpt>
      <trkpt lat="44.41904" lon="6.42111">
        <ele>1651</ele>
        <time>2021-09-01T13:46:01.000Z</time>
      </trkpt>
      <trkpt lat="44.41905" lon="6.42109">
        <ele>1652</ele>
        <time>2021-09-01T13:46:02.000Z</time>
      </trkpt>
      <trkpt lat="44.41907" lon="6.42107">
        <ele>1653</ele>
        <time>2021-09-01T13:46:03.000Z</time>
      </trkpt>
      <trkpt lat="44.41909" lon="6.42104">
        <ele>1655</ele>
        <time>2021-09-01T13:46:04.000Z</time>
      </trkpt>
      <trkpt lat="44.41911" lon="6.42101">
        <ele>1655</ele>
        <time>2021-09-01T13:46:05.000Z</time>
      </trkpt>
      <trkpt lat="44.41912" lon="6.42099">
        <ele>1656</ele>
        <time>2021-09-01T13:46:06.000Z</time>
      </trkpt>
      <trkpt lat="44.41914" lon="6.42096">
        <ele>1657</ele>
        <time>2021-09-01T13:46:07.000Z</time>
      </trkpt>
      <trkpt lat="44.41915" lon="6.42093">
        <ele>1656</ele>
        <time>2021-09-01T13:46:08.000Z</time>
      </trkpt>
      <trkpt lat="44.41916" lon="6.42089">
        <ele>1655</ele>
        <time>2021-09-01T13:46:09.000Z</time>
      </trkpt>
      <trkpt lat="44.41918" lon="6.42086">
        <ele>1655</ele>
        <time>2021-09-01T13:46:10.000Z</time>
      </trkpt>
      <trkpt lat="44.41919" lon="6.42083">
        <ele>1654</ele>
        <time>2021-09-01T13:46:11.000Z</time>
      </trkpt>
      <trkpt lat="44.41921" lon="6.4208">
        <ele>1653</ele>
        <time>2021-09-01T13:46:12.000Z</time>
      </trkpt>
      <trkpt lat="44.41921" lon="6.42078">
        <ele>1652</ele>
        <time>2021-09-01T13:46:13.000Z</time>
      </trkpt>
      <trkpt lat="44.41923" lon="6.42076">
        <ele>1652</ele>
        <time>2021-09-01T13:46:14.000Z</time>
      </trkpt>
      <trkpt lat="44.41924" lon="6.42074">
        <ele>1652</ele>
        <time>2021-09-01T13:46:15.000Z</time>
      </trkpt>
      <trkpt lat="44.41926" lon="6.42071">
        <ele>1652</ele>
        <time>2021-09-01T13:46:16.000Z</time>
      </trkpt>
      <trkpt lat="44.41927" lon="6.4207">
        <ele>1652</ele>
        <time>2021-09-01T13:46:17.000Z</time>
      </trkpt>
      <trkpt lat="44.41927" lon="6.42067">
        <ele>1652</ele>
        <time>2021-09-01T13:46:18.000Z</time>
      </trkpt>
      <trkpt lat="44.41929" lon="6.42065">
        <ele>1652</ele>
        <time>2021-09-01T13:46:19.000Z</time>
      </trkpt>
      <trkpt lat="44.41931" lon="6.4206">
        <ele>1652</ele>
        <time>2021-09-01T13:46:20.000Z</time>
      </trkpt>
      <trkpt lat="44.41933" lon="6.42057">
        <ele>1653</ele>
        <time>2021-09-01T13:46:21.000Z</time>
      </trkpt>
      <trkpt lat="44.41934" lon="6.42053">
        <ele>1655</ele>
        <time>2021-09-01T13:46:22.000Z</time>
      </trkpt>
      <trkpt lat="44.41936" lon="6.4205">
        <ele>1655</ele>
        <time>2021-09-01T13:46:23.000Z</time>
      </trkpt>
      <trkpt lat="44.41939" lon="6.42045">
        <ele>1655</ele>
        <time>2021-09-01T13:46:24.000Z</time>
      </trkpt>
      <trkpt lat="44.4194" lon="6.42042">
        <ele>1655</ele>
        <time>2021-09-01T13:46:25.000Z</time>
      </trkpt>
      <trkpt lat="44.41941" lon="6.42039">
        <ele>1655</ele>
        <time>2021-09-01T13:46:26.000Z</time>
      </trkpt>
      <trkpt lat="44.41943" lon="6.42035">
        <ele>1655</ele>
        <time>2021-09-01T13:46:27.000Z</time>
      </trkpt>
      <trkpt lat="44.41944" lon="6.42032">
        <ele>1656</ele>
        <time>2021-09-01T13:46:28.000Z</time>
      </trkpt>
      <trkpt lat="44.41946" lon="6.42029">
        <ele>1655</ele>
        <time>2021-09-01T13:46:29.000Z</time>
      </trkpt>
      <trkpt lat="44.41947" lon="6.42027">
        <ele>1656</ele>
        <time>2021-09-01T13:46:30.000Z</time>
      </trkpt>
      <trkpt lat="44.41949" lon="6.42025">
        <ele>1657</ele>
        <time>2021-09-01T13:46:31.000Z</time>
      </trkpt>
      <trkpt lat="44.4195" lon="6.42022">
        <ele>1658</ele>
        <time>2021-09-01T13:46:32.000Z</time>
      </trkpt>
      <trkpt lat="44.41952" lon="6.42018">
        <ele>1660</ele>
        <time>2021-09-01T13:46:33.000Z</time>
      </trkpt>
      <trkpt lat="44.41955" lon="6.42014">
        <ele>1661</ele>
        <time>2021-09-01T13:46:34.000Z</time>
      </trkpt>
      <trkpt lat="44.41957" lon="6.42012">
        <ele>1661</ele>
        <time>2021-09-01T13:46:35.000Z</time>
      </trkpt>
      <trkpt lat="44.41959" lon="6.42009">
        <ele>1662</ele>
        <time>2021-09-01T13:46:36.000Z</time>
      </trkpt>
      <trkpt lat="44.4196" lon="6.42006">
        <ele>1663</ele>
        <time>2021-09-01T13:46:37.000Z</time>
      </trkpt>
      <trkpt lat="44.41962" lon="6.42003">
        <ele>1665</ele>
        <time>2021-09-01T13:46:38.000Z</time>
      </trkpt>
      <trkpt lat="44.41964" lon="6.42001">
        <ele>1665</ele>
        <time>2021-09-01T13:46:39.000Z</time>
      </trkpt>
      <trkpt lat="44.41965" lon="6.41998">
        <ele>1666</ele>
        <time>2021-09-01T13:46:40.000Z</time>
      </trkpt>
      <trkpt lat="44.41967" lon="6.41996">
        <ele>1667</ele>
        <time>2021-09-01T13:46:41.000Z</time>
      </trkpt>
      <trkpt lat="44.41969" lon="6.41994">
        <ele>1668</ele>
        <time>2021-09-01T13:46:42.000Z</time>
      </trkpt>
      <trkpt lat="44.4197" lon="6.41991">
        <ele>1668</ele>
        <time>2021-09-01T13:46:43.000Z</time>
      </trkpt>
      <trkpt lat="44.41972" lon="6.41988">
        <ele>1669</ele>
        <time>2021-09-01T13:46:44.000Z</time>
      </trkpt>
      <trkpt lat="44.41973" lon="6.41985">
        <ele>1670</ele>
        <time>2021-09-01T13:46:45.000Z</time>
      </trkpt>
      <trkpt lat="44.41975" lon="6.41982">
        <ele>1670</ele>
        <time>2021-09-01T13:46:46.000Z</time>
      </trkpt>
      <trkpt lat="44.41977" lon="6.41979">
        <ele>1672</ele>
        <time>2021-09-01T13:46:47.000Z</time>
      </trkpt>
      <trkpt lat="44.41978" lon="6.41976">
        <ele>1673</ele>
        <time>2021-09-01T13:46:48.000Z</time>
      </trkpt>
      <trkpt lat="44.41979" lon="6.41973">
        <ele>1673</ele>
        <time>2021-09-01T13:46:49.000Z</time>
      </trkpt>
      <trkpt lat="44.41981" lon="6.41971">
        <ele>1673</ele>
        <time>2021-09-01T13:46:50.000Z</time>
      </trkpt>
      <trkpt lat="44.41982" lon="6.41969">
        <ele>1673</ele>
        <time>2021-09-01T13:46:51.000Z</time>
      </trkpt>
      <trkpt lat="44.41984" lon="6.41966">
        <ele>1674</ele>
        <time>2021-09-01T13:46:52.000Z</time>
      </trkpt>
      <trkpt lat="44.41986" lon="6.41963">
        <ele>1674</ele>
        <time>2021-09-01T13:46:53.000Z</time>
      </trkpt>
      <trkpt lat="44.41988" lon="6.41961">
        <ele>1674</ele>
        <time>2021-09-01T13:46:54.000Z</time>
      </trkpt>
      <trkpt lat="44.4199" lon="6.41959">
        <ele>1675</ele>
        <time>2021-09-01T13:46:55.000Z</time>
      </trkpt>
      <trkpt lat="44.41992" lon="6.41957">
        <ele>1676</ele>
        <time>2021-09-01T13:46:56.000Z</time>
      </trkpt>
      <trkpt lat="44.41994" lon="6.41954">
        <ele>1676</ele>
        <time>2021-09-01T13:46:57.000Z</time>
      </trkpt>
      <trkpt lat="44.41997" lon="6.41952">
        <ele>1677</ele>
        <time>2021-09-01T13:46:58.000Z</time>
      </trkpt>
      <trkpt lat="44.41998" lon="6.4195">
        <ele>1677</ele>
        <time>2021-09-01T13:46:59.000Z</time>
      </trkpt>
      <trkpt lat="44.42" lon="6.41946">
        <ele>1678</ele>
        <time>2021-09-01T13:47:00.000Z</time>
      </trkpt>
      <trkpt lat="44.42002" lon="6.41943">
        <ele>1679</ele>
        <time>2021-09-01T13:47:01.000Z</time>
      </trkpt>
      <trkpt lat="44.42004" lon="6.4194">
        <ele>1679</ele>
        <time>2021-09-01T13:47:02.000Z</time>
      </trkpt>
      <trkpt lat="44.42006" lon="6.41938">
        <ele>1678</ele>
        <time>2021-09-01T13:47:03.000Z</time>
      </trkpt>
      <trkpt lat="44.42007" lon="6.41935">
        <ele>1677</ele>
        <time>2021-09-01T13:47:04.000Z</time>
      </trkpt>
      <trkpt lat="44.42008" lon="6.41933">
        <ele>1678</ele>
        <time>2021-09-01T13:47:05.000Z</time>
      </trkpt>
      <trkpt lat="44.4201" lon="6.41931">
        <ele>1678</ele>
        <time>2021-09-01T13:47:06.000Z</time>
      </trkpt>
      <trkpt lat="44.42012" lon="6.41929">
        <ele>1678</ele>
        <time>2021-09-01T13:47:07.000Z</time>
      </trkpt>
      <trkpt lat="44.42013" lon="6.41927">
        <ele>1678</ele>
        <time>2021-09-01T13:47:08.000Z</time>
      </trkpt>
      <trkpt lat="44.42015" lon="6.41924">
        <ele>1679</ele>
        <time>2021-09-01T13:47:09.000Z</time>
      </trkpt>
      <trkpt lat="44.42016" lon="6.41922">
        <ele>1679</ele>
        <time>2021-09-01T13:47:10.000Z</time>
      </trkpt>
      <trkpt lat="44.42018" lon="6.41919">
        <ele>1679</ele>
        <time>2021-09-01T13:47:11.000Z</time>
      </trkpt>
      <trkpt lat="44.42019" lon="6.41916">
        <ele>1680</ele>
        <time>2021-09-01T13:47:12.000Z</time>
      </trkpt>
      <trkpt lat="44.42021" lon="6.41913">
        <ele>1681</ele>
        <time>2021-09-01T13:47:13.000Z</time>
      </trkpt>
      <trkpt lat="44.42022" lon="6.4191">
        <ele>1680</ele>
        <time>2021-09-01T13:47:14.000Z</time>
      </trkpt>
      <trkpt lat="44.42023" lon="6.41908">
        <ele>1679</ele>
        <time>2021-09-01T13:47:15.000Z</time>
      </trkpt>
      <trkpt lat="44.42024" lon="6.41906">
        <ele>1680</ele>
        <time>2021-09-01T13:47:16.000Z</time>
      </trkpt>
      <trkpt lat="44.42024" lon="6.41904">
        <ele>1680</ele>
        <time>2021-09-01T13:47:17.000Z</time>
      </trkpt>
      <trkpt lat="44.42025" lon="6.41902">
        <ele>1680</ele>
        <time>2021-09-01T13:47:18.000Z</time>
      </trkpt>
      <trkpt lat="44.42026" lon="6.419">
        <ele>1680</ele>
        <time>2021-09-01T13:47:19.000Z</time>
      </trkpt>
      <trkpt lat="44.42027" lon="6.41898">
        <ele>1681</ele>
        <time>2021-09-01T13:47:20.000Z</time>
      </trkpt>
      <trkpt lat="44.42029" lon="6.41896">
        <ele>1681</ele>
        <time>2021-09-01T13:47:21.000Z</time>
      </trkpt>
      <trkpt lat="44.42031" lon="6.41892">
        <ele>1681</ele>
        <time>2021-09-01T13:47:22.000Z</time>
      </trkpt>
      <trkpt lat="44.42032" lon="6.4189">
        <ele>1682</ele>
        <time>2021-09-01T13:47:23.000Z</time>
      </trkpt>
      <trkpt lat="44.42034" lon="6.41888">
        <ele>1683</ele>
        <time>2021-09-01T13:47:24.000Z</time>
      </trkpt>
      <trkpt lat="44.42035" lon="6.41886">
        <ele>1683</ele>
        <time>2021-09-01T13:47:25.000Z</time>
      </trkpt>
      <trkpt lat="44.42036" lon="6.41885">
        <ele>1683</ele>
        <time>2021-09-01T13:47:26.000Z</time>
      </trkpt>
      <trkpt lat="44.42038" lon="6.41883">
        <ele>1682</ele>
        <time>2021-09-01T13:47:27.000Z</time>
      </trkpt>
      <trkpt lat="44.4204" lon="6.41881">
        <ele>1682</ele>
        <time>2021-09-01T13:47:28.000Z</time>
      </trkpt>
      <trkpt lat="44.42042" lon="6.41877">
        <ele>1682</ele>
        <time>2021-09-01T13:47:29.000Z</time>
      </trkpt>
      <trkpt lat="44.42043" lon="6.41875">
        <ele>1682</ele>
        <time>2021-09-01T13:47:30.000Z</time>
      </trkpt>
      <trkpt lat="44.42046" lon="6.41872">
        <ele>1682</ele>
        <time>2021-09-01T13:47:31.000Z</time>
      </trkpt>
      <trkpt lat="44.42048" lon="6.4187">
        <ele>1683</ele>
        <time>2021-09-01T13:47:32.000Z</time>
      </trkpt>
      <trkpt lat="44.4205" lon="6.41869">
        <ele>1684</ele>
        <time>2021-09-01T13:47:33.000Z</time>
      </trkpt>
      <trkpt lat="44.42052" lon="6.41867">
        <ele>1684</ele>
        <time>2021-09-01T13:47:34.000Z</time>
      </trkpt>
      <trkpt lat="44.42056" lon="6.41865">
        <ele>1686</ele>
        <time>2021-09-01T13:47:35.000Z</time>
      </trkpt>
      <trkpt lat="44.42058" lon="6.41863">
        <ele>1687</ele>
        <time>2021-09-01T13:47:36.000Z</time>
      </trkpt>
      <trkpt lat="44.4206" lon="6.41862">
        <ele>1687</ele>
        <time>2021-09-01T13:47:37.000Z</time>
      </trkpt>
      <trkpt lat="44.42063" lon="6.41859">
        <ele>1688</ele>
        <time>2021-09-01T13:47:38.000Z</time>
      </trkpt>
      <trkpt lat="44.42065" lon="6.41857">
        <ele>1688</ele>
        <time>2021-09-01T13:47:39.000Z</time>
      </trkpt>
      <trkpt lat="44.42067" lon="6.41854">
        <ele>1688</ele>
        <time>2021-09-01T13:47:40.000Z</time>
      </trkpt>
      <trkpt lat="44.4207" lon="6.41851">
        <ele>1688</ele>
        <time>2021-09-01T13:47:41.000Z</time>
      </trkpt>
      <trkpt lat="44.42072" lon="6.41848">
        <ele>1688</ele>
        <time>2021-09-01T13:47:42.000Z</time>
      </trkpt>
      <trkpt lat="44.42075" lon="6.41845">
        <ele>1689</ele>
        <time>2021-09-01T13:47:43.000Z</time>
      </trkpt>
      <trkpt lat="44.42077" lon="6.41844">
        <ele>1690</ele>
        <time>2021-09-01T13:47:44.000Z</time>
      </trkpt>
      <trkpt lat="44.42081" lon="6.41841">
        <ele>1692</ele>
        <time>2021-09-01T13:47:45.000Z</time>
      </trkpt>
      <trkpt lat="44.42083" lon="6.41838">
        <ele>1693</ele>
        <time>2021-09-01T13:47:46.000Z</time>
      </trkpt>
      <trkpt lat="44.42086" lon="6.41834">
        <ele>1693</ele>
        <time>2021-09-01T13:47:47.000Z</time>
      </trkpt>
      <trkpt lat="44.42088" lon="6.41831">
        <ele>1694</ele>
        <time>2021-09-01T13:47:48.000Z</time>
      </trkpt>
      <trkpt lat="44.42089" lon="6.41828">
        <ele>1694</ele>
        <time>2021-09-01T13:47:49.000Z</time>
      </trkpt>
      <trkpt lat="44.4209" lon="6.41824">
        <ele>1693</ele>
        <time>2021-09-01T13:47:50.000Z</time>
      </trkpt>
      <trkpt lat="44.42092" lon="6.41818">
        <ele>1693</ele>
        <time>2021-09-01T13:47:51.000Z</time>
      </trkpt>
      <trkpt lat="44.42094" lon="6.41814">
        <ele>1692</ele>
        <time>2021-09-01T13:47:52.000Z</time>
      </trkpt>
      <trkpt lat="44.42096" lon="6.41808">
        <ele>1692</ele>
        <time>2021-09-01T13:47:53.000Z</time>
      </trkpt>
      <trkpt lat="44.421" lon="6.418">
        <ele>1693</ele>
        <time>2021-09-01T13:47:54.000Z</time>
      </trkpt>
      <trkpt lat="44.42101" lon="6.41796">
        <ele>1694</ele>
        <time>2021-09-01T13:47:55.000Z</time>
      </trkpt>
      <trkpt lat="44.42103" lon="6.41793">
        <ele>1696</ele>
        <time>2021-09-01T13:47:56.000Z</time>
      </trkpt>
      <trkpt lat="44.42104" lon="6.4179">
        <ele>1696</ele>
        <time>2021-09-01T13:47:57.000Z</time>
      </trkpt>
      <trkpt lat="44.42105" lon="6.41787">
        <ele>1697</ele>
        <time>2021-09-01T13:47:58.000Z</time>
      </trkpt>
      <trkpt lat="44.42106" lon="6.41784">
        <ele>1698</ele>
        <time>2021-09-01T13:47:59.000Z</time>
      </trkpt>
      <trkpt lat="44.42108" lon="6.41781">
        <ele>1700</ele>
        <time>2021-09-01T13:48:00.000Z</time>
      </trkpt>
      <trkpt lat="44.42109" lon="6.41778">
        <ele>1701</ele>
        <time>2021-09-01T13:48:01.000Z</time>
      </trkpt>
      <trkpt lat="44.4211" lon="6.41776">
        <ele>1701</ele>
        <time>2021-09-01T13:48:02.000Z</time>
      </trkpt>
      <trkpt lat="44.42111" lon="6.41774">
        <ele>1702</ele>
        <time>2021-09-01T13:48:03.000Z</time>
      </trkpt>
      <trkpt lat="44.42113" lon="6.4177">
        <ele>1703</ele>
        <time>2021-09-01T13:48:04.000Z</time>
      </trkpt>
      <trkpt lat="44.42115" lon="6.41766">
        <ele>1704</ele>
        <time>2021-09-01T13:48:05.000Z</time>
      </trkpt>
      <trkpt lat="44.42116" lon="6.41762">
        <ele>1705</ele>
        <time>2021-09-01T13:48:06.000Z</time>
      </trkpt>
      <trkpt lat="44.42116" lon="6.41759">
        <ele>1706</ele>
        <time>2021-09-01T13:48:07.000Z</time>
      </trkpt>
      <trkpt lat="44.42116" lon="6.41756">
        <ele>1705</ele>
        <time>2021-09-01T13:48:08.000Z</time>
      </trkpt>
      <trkpt lat="44.42116" lon="6.41753">
        <ele>1706</ele>
        <time>2021-09-01T13:48:09.000Z</time>
      </trkpt>
      <trkpt lat="44.42117" lon="6.41749">
        <ele>1706</ele>
        <time>2021-09-01T13:48:10.000Z</time>
      </trkpt>
      <trkpt lat="44.42117" lon="6.41746">
        <ele>1708</ele>
        <time>2021-09-01T13:48:11.000Z</time>
      </trkpt>
      <trkpt lat="44.42118" lon="6.41742">
        <ele>1708</ele>
        <time>2021-09-01T13:48:12.000Z</time>
      </trkpt>
      <trkpt lat="44.42119" lon="6.41739">
        <ele>1710</ele>
        <time>2021-09-01T13:48:13.000Z</time>
      </trkpt>
      <trkpt lat="44.4212" lon="6.41735">
        <ele>1711</ele>
        <time>2021-09-01T13:48:14.000Z</time>
      </trkpt>
      <trkpt lat="44.42121" lon="6.41731">
        <ele>1710</ele>
        <time>2021-09-01T13:48:15.000Z</time>
      </trkpt>
      <trkpt lat="44.42122" lon="6.41727">
        <ele>1711</ele>
        <time>2021-09-01T13:48:16.000Z</time>
      </trkpt>
      <trkpt lat="44.42123" lon="6.41724">
        <ele>1711</ele>
        <time>2021-09-01T13:48:17.000Z</time>
      </trkpt>
      <trkpt lat="44.42124" lon="6.41721">
        <ele>1711</ele>
        <time>2021-09-01T13:48:18.000Z</time>
      </trkpt>
      <trkpt lat="44.42124" lon="6.41719">
        <ele>1711</ele>
        <time>2021-09-01T13:48:19.000Z</time>
      </trkpt>
      <trkpt lat="44.42125" lon="6.41716">
        <ele>1711</ele>
        <time>2021-09-01T13:48:20.000Z</time>
      </trkpt>
      <trkpt lat="44.42126" lon="6.41712">
        <ele>1711</ele>
        <time>2021-09-01T13:48:21.000Z</time>
      </trkpt>
      <trkpt lat="44.42126" lon="6.41709">
        <ele>1712</ele>
        <time>2021-09-01T13:48:22.000Z</time>
      </trkpt>
      <trkpt lat="44.42126" lon="6.41706">
        <ele>1712</ele>
        <time>2021-09-01T13:48:23.000Z</time>
      </trkpt>
      <trkpt lat="44.42126" lon="6.41703">
        <ele>1712</ele>
        <time>2021-09-01T13:48:24.000Z</time>
      </trkpt>
      <trkpt lat="44.42127" lon="6.417">
        <ele>1712</ele>
        <time>2021-09-01T13:48:25.000Z</time>
      </trkpt>
      <trkpt lat="44.42128" lon="6.41698">
        <ele>1713</ele>
        <time>2021-09-01T13:48:26.000Z</time>
      </trkpt>
      <trkpt lat="44.42128" lon="6.41695">
        <ele>1713</ele>
        <time>2021-09-01T13:48:27.000Z</time>
      </trkpt>
      <trkpt lat="44.42129" lon="6.41694">
        <ele>1713</ele>
        <time>2021-09-01T13:48:28.000Z</time>
      </trkpt>
      <trkpt lat="44.42129" lon="6.41692">
        <ele>1713</ele>
        <time>2021-09-01T13:48:29.000Z</time>
      </trkpt>
      <trkpt lat="44.42129" lon="6.41691">
        <ele>1713</ele>
        <time>2021-09-01T13:48:30.000Z</time>
      </trkpt>
      <trkpt lat="44.42128" lon="6.41689">
        <ele>1711</ele>
        <time>2021-09-01T13:48:31.000Z</time>
      </trkpt>
      <trkpt lat="44.42128" lon="6.41687">
        <ele>1710</ele>
        <time>2021-09-01T13:48:32.000Z</time>
      </trkpt>
      <trkpt lat="44.42128" lon="6.41686">
        <ele>1710</ele>
        <time>2021-09-01T13:48:33.000Z</time>
      </trkpt>
      <trkpt lat="44.42128" lon="6.41686">
        <ele>1709</ele>
        <time>2021-09-01T13:48:34.000Z</time>
      </trkpt>
      <trkpt lat="44.42128" lon="6.41685">
        <ele>1709</ele>
        <time>2021-09-01T13:48:35.000Z</time>
      </trkpt>
      <trkpt lat="44.42127" lon="6.41634">
        <ele>1696</ele>
        <time>2021-09-01T13:53:34.000Z</time>
      </trkpt>
      <trkpt lat="44.42127" lon="6.41633">
        <ele>1698</ele>
        <time>2021-09-01T13:53:36.000Z</time>
      </trkpt>
      <trkpt lat="44.42112" lon="6.41583">
        <ele>1693</ele>
        <time>2021-09-01T14:19:32.000Z</time>
      </trkpt>
      <trkpt lat="44.42109" lon="6.4158">
        <ele>1692</ele>
        <time>2021-09-01T14:19:33.000Z</time>
      </trkpt>
      <trkpt lat="44.42105" lon="6.41577">
        <ele>1691</ele>
        <time>2021-09-01T14:19:34.000Z</time>
      </trkpt>
      <trkpt lat="44.42097" lon="6.41576">
        <ele>1690</ele>
        <time>2021-09-01T14:19:35.000Z</time>
      </trkpt>
      <trkpt lat="44.42093" lon="6.41573">
        <ele>1690</ele>
        <time>2021-09-01T14:19:36.000Z</time>
      </trkpt>
      <trkpt lat="44.42088" lon="6.41573">
        <ele>1689</ele>
        <time>2021-09-01T14:19:37.000Z</time>
      </trkpt>
      <trkpt lat="44.42083" lon="6.41573">
        <ele>1687</ele>
        <time>2021-09-01T14:19:38.000Z</time>
      </trkpt>
      <trkpt lat="44.42077" lon="6.41573">
        <ele>1686</ele>
        <time>2021-09-01T14:19:39.000Z</time>
      </trkpt>
      <trkpt lat="44.42072" lon="6.41571">
        <ele>1684</ele>
        <time>2021-09-01T14:19:40.000Z</time>
      </trkpt>
      <trkpt lat="44.42065" lon="6.41571">
        <ele>1683</ele>
        <time>2021-09-01T14:19:41.000Z</time>
      </trkpt>
      <trkpt lat="44.42026" lon="6.41554">
        <ele>1669</ele>
        <time>2021-09-01T14:19:49.000Z</time>
      </trkpt>
      <trkpt lat="44.42023" lon="6.41549">
        <ele>1668</ele>
        <time>2021-09-01T14:19:50.000Z</time>
      </trkpt>
      <trkpt lat="44.42021" lon="6.41543">
        <ele>1667</ele>
        <time>2021-09-01T14:19:51.000Z</time>
      </trkpt>
      <trkpt lat="44.42021" lon="6.41536">
        <ele>1666</ele>
        <time>2021-09-01T14:19:52.000Z</time>
      </trkpt>
      <trkpt lat="44.42021" lon="6.41527">
        <ele>1666</ele>
        <time>2021-09-01T14:19:53.000Z</time>
      </trkpt>
      <trkpt lat="44.42021" lon="6.41518">
        <ele>1666</ele>
        <time>2021-09-01T14:19:54.000Z</time>
      </trkpt>
      <trkpt lat="44.42021" lon="6.41513">
        <ele>1666</ele>
        <time>2021-09-01T14:19:55.000Z</time>
      </trkpt>
      <trkpt lat="44.4202" lon="6.41509">
        <ele>1666</ele>
        <time>2021-09-01T14:19:56.000Z</time>
      </trkpt>
      <trkpt lat="44.42021" lon="6.41508">
        <ele>1665</ele>
        <time>2021-09-01T14:19:57.000Z</time>
      </trkpt>
      <trkpt lat="44.42021" lon="6.41506">
        <ele>1665</ele>
        <time>2021-09-01T14:19:58.000Z</time>
      </trkpt>
      <trkpt lat="44.4202" lon="6.41505">
        <ele>1665</ele>
        <time>2021-09-01T14:19:59.000Z</time>
      </trkpt>
      <trkpt lat="44.4202" lon="6.41504">
        <ele>1664</ele>
        <time>2021-09-01T14:20:00.000Z</time>
      </trkpt>
      <trkpt lat="44.42021" lon="6.41503">
        <ele>1664</ele>
        <time>2021-09-01T14:20:01.000Z</time>
      </trkpt>
      <trkpt lat="44.4202" lon="6.41501">
        <ele>1665</ele>
        <time>2021-09-01T14:20:02.000Z</time>
      </trkpt>
      <trkpt lat="44.4202" lon="6.415">
        <ele>1665</ele>
        <time>2021-09-01T14:20:03.000Z</time>
      </trkpt>
      <trkpt lat="44.42019" lon="6.41499">
        <ele>1665</ele>
        <time>2021-09-01T14:20:04.000Z</time>
      </trkpt>
      <trkpt lat="44.42019" lon="6.41497">
        <ele>1665</ele>
        <time>2021-09-01T14:20:05.000Z</time>
      </trkpt>
      <trkpt lat="44.42019" lon="6.41494">
        <ele>1665</ele>
        <time>2021-09-01T14:20:06.000Z</time>
      </trkpt>
      <trkpt lat="44.42019" lon="6.41491">
        <ele>1664</ele>
        <time>2021-09-01T14:20:07.000Z</time>
      </trkpt>
      <trkpt lat="44.42019" lon="6.41486">
        <ele>1664</ele>
        <time>2021-09-01T14:20:08.000Z</time>
      </trkpt>
      <trkpt lat="44.42019" lon="6.41481">
        <ele>1664</ele>
        <time>2021-09-01T14:20:09.000Z</time>
      </trkpt>
      <trkpt lat="44.42019" lon="6.41476">
        <ele>1664</ele>
        <time>2021-09-01T14:20:10.000Z</time>
      </trkpt>
      <trkpt lat="44.42018" lon="6.4147">
        <ele>1664</ele>
        <time>2021-09-01T14:20:11.000Z</time>
      </trkpt>
      <trkpt lat="44.42018" lon="6.41465">
        <ele>1663</ele>
        <time>2021-09-01T14:20:12.000Z</time>
      </trkpt>
      <trkpt lat="44.42017" lon="6.41459">
        <ele>1663</ele>
        <time>2021-09-01T14:20:13.000Z</time>
      </trkpt>
      <trkpt lat="44.42017" lon="6.41452">
        <ele>1664</ele>
        <time>2021-09-01T14:20:14.000Z</time>
      </trkpt>
      <trkpt lat="44.42016" lon="6.41447">
        <ele>1663</ele>
        <time>2021-09-01T14:20:15.000Z</time>
      </trkpt>
      <trkpt lat="44.42015" lon="6.41442">
        <ele>1663</ele>
        <time>2021-09-01T14:20:16.000Z</time>
      </trkpt>
      <trkpt lat="44.42014" lon="6.41435">
        <ele>1663</ele>
        <time>2021-09-01T14:20:17.000Z</time>
      </trkpt>
      <trkpt lat="44.42013" lon="6.41428">
        <ele>1663</ele>
        <time>2021-09-01T14:20:18.000Z</time>
      </trkpt>
      <trkpt lat="44.42013" lon="6.41421">
        <ele>1662</ele>
        <time>2021-09-01T14:20:19.000Z</time>
      </trkpt>
      <trkpt lat="44.42011" lon="6.41416">
        <ele>1662</ele>
        <time>2021-09-01T14:20:20.000Z</time>
      </trkpt>
      <trkpt lat="44.4201" lon="6.41409">
        <ele>1661</ele>
        <time>2021-09-01T14:20:21.000Z</time>
      </trkpt>
      <trkpt lat="44.42009" lon="6.41403">
        <ele>1661</ele>
        <time>2021-09-01T14:20:22.000Z</time>
      </trkpt>
      <trkpt lat="44.42008" lon="6.41397">
        <ele>1660</ele>
        <time>2021-09-01T14:20:23.000Z</time>
      </trkpt>
      <trkpt lat="44.42008" lon="6.4139">
        <ele>1660</ele>
        <time>2021-09-01T14:20:24.000Z</time>
      </trkpt>
      <trkpt lat="44.42007" lon="6.41384">
        <ele>1659</ele>
        <time>2021-09-01T14:20:25.000Z</time>
      </trkpt>
      <trkpt lat="44.42006" lon="6.41377">
        <ele>1659</ele>
        <time>2021-09-01T14:20:26.000Z</time>
      </trkpt>
      <trkpt lat="44.42005" lon="6.41371">
        <ele>1659</ele>
        <time>2021-09-01T14:20:27.000Z</time>
      </trkpt>
      <trkpt lat="44.42004" lon="6.41364">
        <ele>1658</ele>
        <time>2021-09-01T14:20:28.000Z</time>
      </trkpt>
      <trkpt lat="44.42003" lon="6.41358">
        <ele>1657</ele>
        <time>2021-09-01T14:20:29.000Z</time>
      </trkpt>
      <trkpt lat="44.42002" lon="6.41352">
        <ele>1656</ele>
        <time>2021-09-01T14:20:30.000Z</time>
      </trkpt>
      <trkpt lat="44.42" lon="6.41346">
        <ele>1656</ele>
        <time>2021-09-01T14:20:31.000Z</time>
      </trkpt>
      <trkpt lat="44.41999" lon="6.41341">
        <ele>1656</ele>
        <time>2021-09-01T14:20:32.000Z</time>
      </trkpt>
      <trkpt lat="44.41998" lon="6.41336">
        <ele>1655</ele>
        <time>2021-09-01T14:20:33.000Z</time>
      </trkpt>
      <trkpt lat="44.41995" lon="6.41333">
        <ele>1655</ele>
        <time>2021-09-01T14:20:34.000Z</time>
      </trkpt>
      <trkpt lat="44.41993" lon="6.41331">
        <ele>1654</ele>
        <time>2021-09-01T14:20:35.000Z</time>
      </trkpt>
      <trkpt lat="44.41992" lon="6.41329">
        <ele>1654</ele>
        <time>2021-09-01T14:20:36.000Z</time>
      </trkpt>
      <trkpt lat="44.41991" lon="6.41326">
        <ele>1654</ele>
        <time>2021-09-01T14:20:37.000Z</time>
      </trkpt>
      <trkpt lat="44.41991" lon="6.41324">
        <ele>1654</ele>
        <time>2021-09-01T14:20:38.000Z</time>
      </trkpt>
      <trkpt lat="44.4199" lon="6.41321">
        <ele>1654</ele>
        <time>2021-09-01T14:20:39.000Z</time>
      </trkpt>
      <trkpt lat="44.41989" lon="6.41319">
        <ele>1654</ele>
        <time>2021-09-01T14:20:40.000Z</time>
      </trkpt>
      <trkpt lat="44.41989" lon="6.41318">
        <ele>1655</ele>
        <time>2021-09-01T14:20:41.000Z</time>
      </trkpt>
      <trkpt lat="44.41988" lon="6.41316">
        <ele>1654</ele>
        <time>2021-09-01T14:20:42.000Z</time>
      </trkpt>
      <trkpt lat="44.41988" lon="6.41315">
        <ele>1654</ele>
        <time>2021-09-01T14:20:43.000Z</time>
      </trkpt>
      <trkpt lat="44.41987" lon="6.41314">
        <ele>1654</ele>
        <time>2021-09-01T14:20:44.000Z</time>
      </trkpt>
      <trkpt lat="44.41988" lon="6.41312">
        <ele>1653</ele>
        <time>2021-09-01T14:20:45.000Z</time>
      </trkpt>
      <trkpt lat="44.41988" lon="6.4131">
        <ele>1653</ele>
        <time>2021-09-01T14:20:46.000Z</time>
      </trkpt>
      <trkpt lat="44.41988" lon="6.41308">
        <ele>1654</ele>
        <time>2021-09-01T14:20:47.000Z</time>
      </trkpt>
      <trkpt lat="44.41988" lon="6.41307">
        <ele>1654</ele>
        <time>2021-09-01T14:20:48.000Z</time>
      </trkpt>
      <trkpt lat="44.41989" lon="6.41305">
        <ele>1655</ele>
        <time>2021-09-01T14:20:49.000Z</time>
      </trkpt>
      <trkpt lat="44.4199" lon="6.41302">
        <ele>1657</ele>
        <time>2021-09-01T14:20:50.000Z</time>
      </trkpt>
      <trkpt lat="44.4199" lon="6.41299">
        <ele>1659</ele>
        <time>2021-09-01T14:20:51.000Z</time>
      </trkpt>
      <trkpt lat="44.41991" lon="6.41298">
        <ele>1659</ele>
        <time>2021-09-01T14:20:52.000Z</time>
      </trkpt>
      <trkpt lat="44.41991" lon="6.41297">
        <ele>1660</ele>
        <time>2021-09-01T14:20:53.000Z</time>
      </trkpt>
      <trkpt lat="44.41992" lon="6.41296">
        <ele>1660</ele>
        <time>2021-09-01T14:20:54.000Z</time>
      </trkpt>
      <trkpt lat="44.41992" lon="6.41295">
        <ele>1660</ele>
        <time>2021-09-01T14:20:55.000Z</time>
      </trkpt>
      <trkpt lat="44.41993" lon="6.41293">
        <ele>1661</ele>
        <time>2021-09-01T14:20:56.000Z</time>
      </trkpt>
      <trkpt lat="44.41993" lon="6.41291">
        <ele>1661</ele>
        <time>2021-09-01T14:20:57.000Z</time>
      </trkpt>
      <trkpt lat="44.41994" lon="6.4129">
        <ele>1661</ele>
        <time>2021-09-01T14:20:58.000Z</time>
      </trkpt>
      <trkpt lat="44.41995" lon="6.41288">
        <ele>1661</ele>
        <time>2021-09-01T14:20:59.000Z</time>
      </trkpt>
      <trkpt lat="44.41996" lon="6.41287">
        <ele>1662</ele>
        <time>2021-09-01T14:21:00.000Z</time>
      </trkpt>
      <trkpt lat="44.41996" lon="6.41286">
        <ele>1662</ele>
        <time>2021-09-01T14:21:01.000Z</time>
      </trkpt>
      <trkpt lat="44.41997" lon="6.41285">
        <ele>1662</ele>
        <time>2021-09-01T14:21:02.000Z</time>
      </trkpt>
      <trkpt lat="44.41997" lon="6.41284">
        <ele>1662</ele>
        <time>2021-09-01T14:21:03.000Z</time>
      </trkpt>
      <trkpt lat="44.41998" lon="6.41283">
        <ele>1663</ele>
        <time>2021-09-01T14:21:04.000Z</time>
      </trkpt>
      <trkpt lat="44.41999" lon="6.41281">
        <ele>1663</ele>
        <time>2021-09-01T14:21:05.000Z</time>
      </trkpt>
      <trkpt lat="44.41999" lon="6.4128">
        <ele>1663</ele>
        <time>2021-09-01T14:21:06.000Z</time>
      </trkpt>
      <trkpt lat="44.41999" lon="6.41278">
        <ele>1664</ele>
        <time>2021-09-01T14:21:07.000Z</time>
      </trkpt>
      <trkpt lat="44.42" lon="6.41276">
        <ele>1664</ele>
        <time>2021-09-01T14:21:08.000Z</time>
      </trkpt>
      <trkpt lat="44.42001" lon="6.41275">
        <ele>1664</ele>
        <time>2021-09-01T14:21:09.000Z</time>
      </trkpt>
      <trkpt lat="44.42001" lon="6.41274">
        <ele>1664</ele>
        <time>2021-09-01T14:21:10.000Z</time>
      </trkpt>
      <trkpt lat="44.42003" lon="6.41273">
        <ele>1664</ele>
        <time>2021-09-01T14:21:11.000Z</time>
      </trkpt>
      <trkpt lat="44.42003" lon="6.41272">
        <ele>1665</ele>
        <time>2021-09-01T14:21:12.000Z</time>
      </trkpt>
      <trkpt lat="44.42004" lon="6.41272">
        <ele>1666</ele>
        <time>2021-09-01T14:21:13.000Z</time>
      </trkpt>
      <trkpt lat="44.42005" lon="6.41271">
        <ele>1667</ele>
        <time>2021-09-01T14:21:14.000Z</time>
      </trkpt>
      <trkpt lat="44.42006" lon="6.41271">
        <ele>1667</ele>
        <time>2021-09-01T14:21:15.000Z</time>
      </trkpt>
      <trkpt lat="44.42007" lon="6.41271">
        <ele>1668</ele>
        <time>2021-09-01T14:21:16.000Z</time>
      </trkpt>
      <trkpt lat="44.42007" lon="6.41271">
        <ele>1669</ele>
        <time>2021-09-01T14:21:17.000Z</time>
      </trkpt>
      <trkpt lat="44.42007" lon="6.4127">
        <ele>1670</ele>
        <time>2021-09-01T14:21:18.000Z</time>
      </trkpt>
      <trkpt lat="44.42007" lon="6.4127">
        <ele>1670</ele>
        <time>2021-09-01T14:21:19.000Z</time>
      </trkpt>
      <trkpt lat="44.42008" lon="6.41269">
        <ele>1671</ele>
        <time>2021-09-01T14:21:20.000Z</time>
      </trkpt>
      <trkpt lat="44.42009" lon="6.41268">
        <ele>1671</ele>
        <time>2021-09-01T14:21:21.000Z</time>
      </trkpt>
      <trkpt lat="44.42009" lon="6.41267">
        <ele>1671</ele>
        <time>2021-09-01T14:21:22.000Z</time>
      </trkpt>
      <trkpt lat="44.42008" lon="6.41265">
        <ele>1671</ele>
        <time>2021-09-01T14:21:23.000Z</time>
      </trkpt>
      <trkpt lat="44.42007" lon="6.41264">
        <ele>1671</ele>
        <time>2021-09-01T14:21:24.000Z</time>
      </trkpt>
      <trkpt lat="44.42005" lon="6.41262">
        <ele>1671</ele>
        <time>2021-09-01T14:21:25.000Z</time>
      </trkpt>
      <trkpt lat="44.42004" lon="6.41261">
        <ele>1671</ele>
        <time>2021-09-01T14:21:26.000Z</time>
      </trkpt>
      <trkpt lat="44.42004" lon="6.4126">
        <ele>1671</ele>
        <time>2021-09-01T14:21:27.000Z</time>
      </trkpt>
      <trkpt lat="44.42003" lon="6.41258">
        <ele>1671</ele>
        <time>2021-09-01T14:21:28.000Z</time>
      </trkpt>
      <trkpt lat="44.42002" lon="6.41258">
        <ele>1671</ele>
        <time>2021-09-01T14:21:29.000Z</time>
      </trkpt>
      <trkpt lat="44.41999" lon="6.41255">
        <ele>1672</ele>
        <time>2021-09-01T14:21:30.000Z</time>
      </trkpt>
      <trkpt lat="44.41998" lon="6.41255">
        <ele>1672</ele>
        <time>2021-09-01T14:21:31.000Z</time>
      </trkpt>
      <trkpt lat="44.41997" lon="6.41254">
        <ele>1674</ele>
        <time>2021-09-01T14:21:32.000Z</time>
      </trkpt>
      <trkpt lat="44.41996" lon="6.41252">
        <ele>1674</ele>
        <time>2021-09-01T14:21:33.000Z</time>
      </trkpt>
      <trkpt lat="44.41996" lon="6.4125">
        <ele>1674</ele>
        <time>2021-09-01T14:21:34.000Z</time>
      </trkpt>
      <trkpt lat="44.41995" lon="6.41248">
        <ele>1674</ele>
        <time>2021-09-01T14:21:35.000Z</time>
      </trkpt>
      <trkpt lat="44.41994" lon="6.41246">
        <ele>1674</ele>
        <time>2021-09-01T14:21:36.000Z</time>
      </trkpt>
      <trkpt lat="44.41993" lon="6.41245">
        <ele>1674</ele>
        <time>2021-09-01T14:21:37.000Z</time>
      </trkpt>
      <trkpt lat="44.41994" lon="6.41242">
        <ele>1675</ele>
        <time>2021-09-01T14:21:38.000Z</time>
      </trkpt>
      <trkpt lat="44.41994" lon="6.4124">
        <ele>1676</ele>
        <time>2021-09-01T14:21:39.000Z</time>
      </trkpt>
      <trkpt lat="44.41994" lon="6.41238">
        <ele>1677</ele>
        <time>2021-09-01T14:21:40.000Z</time>
      </trkpt>
      <trkpt lat="44.41993" lon="6.41237">
        <ele>1677</ele>
        <time>2021-09-01T14:21:41.000Z</time>
      </trkpt>
      <trkpt lat="44.41994" lon="6.41235">
        <ele>1679</ele>
        <time>2021-09-01T14:21:42.000Z</time>
      </trkpt>
      <trkpt lat="44.41993" lon="6.41233">
        <ele>1679</ele>
        <time>2021-09-01T14:21:43.000Z</time>
      </trkpt>
      <trkpt lat="44.41993" lon="6.41231">
        <ele>1679</ele>
        <time>2021-09-01T14:21:44.000Z</time>
      </trkpt>
      <trkpt lat="44.41993" lon="6.4123">
        <ele>1679</ele>
        <time>2021-09-01T14:21:45.000Z</time>
      </trkpt>
      <trkpt lat="44.41993" lon="6.41229">
        <ele>1679</ele>
        <time>2021-09-01T14:21:46.000Z</time>
      </trkpt>
      <trkpt lat="44.41993" lon="6.41228">
        <ele>1679</ele>
        <time>2021-09-01T14:21:47.000Z</time>
      </trkpt>
      <trkpt lat="44.41993" lon="6.41228">
        <ele>1680</ele>
        <time>2021-09-01T14:21:48.000Z</time>
      </trkpt>
      <trkpt lat="44.41994" lon="6.41227">
        <ele>1680</ele>
        <time>2021-09-01T14:21:49.000Z</time>
      </trkpt>
      <trkpt lat="44.41994" lon="6.41227">
        <ele>1681</ele>
        <time>2021-09-01T14:21:50.000Z</time>
      </trkpt>
      <trkpt lat="44.41994" lon="6.41227">
        <ele>1681</ele>
        <time>2021-09-01T14:21:51.000Z</time>
      </trkpt>
      <trkpt lat="44.41994" lon="6.41227">
        <ele>1681</ele>
        <time>2021-09-01T14:21:52.000Z</time>
      </trkpt>
      <trkpt lat="44.41994" lon="6.41226">
        <ele>1681</ele>
        <time>2021-09-01T14:21:53.000Z</time>
      </trkpt>
      <trkpt lat="44.41994" lon="6.41225">
        <ele>1681</ele>
        <time>2021-09-01T14:21:54.000Z</time>
      </trkpt>
      <trkpt lat="44.41993" lon="6.41223">
        <ele>1681</ele>
        <time>2021-09-01T14:21:55.000Z</time>
      </trkpt>
      <trkpt lat="44.41993" lon="6.41222">
        <ele>1681</ele>
        <time>2021-09-01T14:21:56.000Z</time>
      </trkpt>
      <trkpt lat="44.41992" lon="6.41221">
        <ele>1681</ele>
        <time>2021-09-01T14:21:57.000Z</time>
      </trkpt>
      <trkpt lat="44.41992" lon="6.4122">
        <ele>1681</ele>
        <time>2021-09-01T14:21:58.000Z</time>
      </trkpt>
      <trkpt lat="44.41992" lon="6.41219">
        <ele>1681</ele>
        <time>2021-09-01T14:21:59.000Z</time>
      </trkpt>
      <trkpt lat="44.41991" lon="6.41218">
        <ele>1682</ele>
        <time>2021-09-01T14:22:00.000Z</time>
      </trkpt>
      <trkpt lat="44.41991" lon="6.41217">
        <ele>1681</ele>
        <time>2021-09-01T14:22:01.000Z</time>
      </trkpt>
      <trkpt lat="44.41991" lon="6.41216">
        <ele>1682</ele>
        <time>2021-09-01T14:22:02.000Z</time>
      </trkpt>
      <trkpt lat="44.41991" lon="6.41214">
        <ele>1682</ele>
        <time>2021-09-01T14:22:03.000Z</time>
      </trkpt>
      <trkpt lat="44.41992" lon="6.41214">
        <ele>1682</ele>
        <time>2021-09-01T14:22:04.000Z</time>
      </trkpt>
      <trkpt lat="44.41992" lon="6.41213">
        <ele>1682</ele>
        <time>2021-09-01T14:22:05.000Z</time>
      </trkpt>
      <trkpt lat="44.41992" lon="6.41212">
        <ele>1682</ele>
        <time>2021-09-01T14:22:06.000Z</time>
      </trkpt>
      <trkpt lat="44.41993" lon="6.41211">
        <ele>1682</ele>
        <time>2021-09-01T14:22:07.000Z</time>
      </trkpt>
      <trkpt lat="44.41993" lon="6.41211">
        <ele>1682</ele>
        <time>2021-09-01T14:22:08.000Z</time>
      </trkpt>
      <trkpt lat="44.41993" lon="6.4121">
        <ele>1682</ele>
        <time>2021-09-01T14:22:09.000Z</time>
      </trkpt>
      <trkpt lat="44.41993" lon="6.41209">
        <ele>1681</ele>
        <time>2021-09-01T14:22:10.000Z</time>
      </trkpt>
      <trkpt lat="44.41993" lon="6.41208">
        <ele>1681</ele>
        <time>2021-09-01T14:22:11.000Z</time>
      </trkpt>
      <trkpt lat="44.41994" lon="6.41207">
        <ele>1681</ele>
        <time>2021-09-01T14:22:12.000Z</time>
      </trkpt>
      <trkpt lat="44.41994" lon="6.41206">
        <ele>1681</ele>
        <time>2021-09-01T14:22:13.000Z</time>
      </trkpt>
      <trkpt lat="44.41995" lon="6.41205">
        <ele>1682</ele>
        <time>2021-09-01T14:22:14.000Z</time>
      </trkpt>
      <trkpt lat="44.41995" lon="6.41206">
        <ele>1681</ele>
        <time>2021-09-01T14:22:15.000Z</time>
      </trkpt>
      <trkpt lat="44.41994" lon="6.41207">
        <ele>1680</ele>
        <time>2021-09-01T14:22:16.000Z</time>
      </trkpt>
      <trkpt lat="44.41994" lon="6.41207">
        <ele>1679</ele>
        <time>2021-09-01T14:22:17.000Z</time>
      </trkpt>
      <trkpt lat="44.41994" lon="6.41207">
        <ele>1679</ele>
        <time>2021-09-01T14:22:18.000Z</time>
      </trkpt>
      <trkpt lat="44.41994" lon="6.41207">
        <ele>1679</ele>
        <time>2021-09-01T14:22:19.000Z</time>
      </trkpt>
      <trkpt lat="44.41994" lon="6.41207">
        <ele>1678</ele>
        <time>2021-09-01T14:22:20.000Z</time>
      </trkpt>
      <trkpt lat="44.41994" lon="6.41206">
        <ele>1678</ele>
        <time>2021-09-01T14:22:21.000Z</time>
      </trkpt>
      <trkpt lat="44.41994" lon="6.41205">
        <ele>1677</ele>
        <time>2021-09-01T14:22:22.000Z</time>
      </trkpt>
      <trkpt lat="44.41994" lon="6.41205">
        <ele>1677</ele>
        <time>2021-09-01T14:22:23.000Z</time>
      </trkpt>
      <trkpt lat="44.41994" lon="6.41204">
        <ele>1676</ele>
        <time>2021-09-01T14:22:24.000Z</time>
      </trkpt>
      <trkpt lat="44.41995" lon="6.41204">
        <ele>1676</ele>
        <time>2021-09-01T14:22:25.000Z</time>
      </trkpt>
      <trkpt lat="44.41995" lon="6.41204">
        <ele>1675</ele>
        <time>2021-09-01T14:22:26.000Z</time>
      </trkpt>
      <trkpt lat="44.41996" lon="6.41204">
        <ele>1675</ele>
        <time>2021-09-01T14:22:27.000Z</time>
      </trkpt>
      <trkpt lat="44.41996" lon="6.41203">
        <ele>1675</ele>
        <time>2021-09-01T14:22:28.000Z</time>
      </trkpt>
      <trkpt lat="44.41997" lon="6.41203">
        <ele>1675</ele>
        <time>2021-09-01T14:22:29.000Z</time>
      </trkpt>
      <trkpt lat="44.41998" lon="6.41202">
        <ele>1675</ele>
        <time>2021-09-01T14:22:30.000Z</time>
      </trkpt>
      <trkpt lat="44.41999" lon="6.41202">
        <ele>1675</ele>
        <time>2021-09-01T14:22:31.000Z</time>
      </trkpt>
      <trkpt lat="44.41999" lon="6.41201">
        <ele>1675</ele>
        <time>2021-09-01T14:22:32.000Z</time>
      </trkpt>
      <trkpt lat="44.42" lon="6.412">
        <ele>1675</ele>
        <time>2021-09-01T14:22:33.000Z</time>
      </trkpt>
      <trkpt lat="44.42002" lon="6.412">
        <ele>1675</ele>
        <time>2021-09-01T14:22:34.000Z</time>
      </trkpt>
      <trkpt lat="44.42002" lon="6.412">
        <ele>1675</ele>
        <time>2021-09-01T14:22:35.000Z</time>
      </trkpt>
      <trkpt lat="44.42002" lon="6.412">
        <ele>1675</ele>
        <time>2021-09-01T14:22:36.000Z</time>
      </trkpt>
      <trkpt lat="44.42003" lon="6.412">
        <ele>1674</ele>
        <time>2021-09-01T14:22:37.000Z</time>
      </trkpt>
      <trkpt lat="44.42003" lon="6.412">
        <ele>1674</ele>
        <time>2021-09-01T14:22:38.000Z</time>
      </trkpt>
      <trkpt lat="44.42003" lon="6.41199">
        <ele>1673</ele>
        <time>2021-09-01T14:22:39.000Z</time>
      </trkpt>
      <trkpt lat="44.42003" lon="6.41198">
        <ele>1673</ele>
        <time>2021-09-01T14:22:40.000Z</time>
      </trkpt>
      <trkpt lat="44.42004" lon="6.41197">
        <ele>1673</ele>
        <time>2021-09-01T14:22:41.000Z</time>
      </trkpt>
      <trkpt lat="44.42005" lon="6.41196">
        <ele>1673</ele>
        <time>2021-09-01T14:22:42.000Z</time>
      </trkpt>
      <trkpt lat="44.42006" lon="6.41195">
        <ele>1673</ele>
        <time>2021-09-01T14:22:43.000Z</time>
      </trkpt>
      <trkpt lat="44.42006" lon="6.41194">
        <ele>1672</ele>
        <time>2021-09-01T14:22:44.000Z</time>
      </trkpt>
      <trkpt lat="44.42007" lon="6.41194">
        <ele>1672</ele>
        <time>2021-09-01T14:22:45.000Z</time>
      </trkpt>
      <trkpt lat="44.42007" lon="6.41193">
        <ele>1672</ele>
        <time>2021-09-01T14:22:46.000Z</time>
      </trkpt>
      <trkpt lat="44.42008" lon="6.41192">
        <ele>1671</ele>
        <time>2021-09-01T14:22:47.000Z</time>
      </trkpt>
      <trkpt lat="44.42008" lon="6.41191">
        <ele>1672</ele>
        <time>2021-09-01T14:22:48.000Z</time>
      </trkpt>
      <trkpt lat="44.42009" lon="6.4119">
        <ele>1671</ele>
        <time>2021-09-01T14:22:49.000Z</time>
      </trkpt>
      <trkpt lat="44.42009" lon="6.41189">
        <ele>1671</ele>
        <time>2021-09-01T14:22:50.000Z</time>
      </trkpt>
      <trkpt lat="44.42009" lon="6.41188">
        <ele>1670</ele>
        <time>2021-09-01T14:22:51.000Z</time>
      </trkpt>
      <trkpt lat="44.42009" lon="6.41187">
        <ele>1670</ele>
        <time>2021-09-01T14:22:52.000Z</time>
      </trkpt>
      <trkpt lat="44.4201" lon="6.41187">
        <ele>1670</ele>
        <time>2021-09-01T14:22:53.000Z</time>
      </trkpt>
      <trkpt lat="44.42011" lon="6.41186">
        <ele>1670</ele>
        <time>2021-09-01T14:22:54.000Z</time>
      </trkpt>
      <trkpt lat="44.42012" lon="6.41185">
        <ele>1670</ele>
        <time>2021-09-01T14:22:55.000Z</time>
      </trkpt>
      <trkpt lat="44.42013" lon="6.41185">
        <ele>1671</ele>
        <time>2021-09-01T14:22:56.000Z</time>
      </trkpt>
      <trkpt lat="44.42014" lon="6.41185">
        <ele>1671</ele>
        <time>2021-09-01T14:22:57.000Z</time>
      </trkpt>
      <trkpt lat="44.42014" lon="6.41185">
        <ele>1671</ele>
        <time>2021-09-01T14:22:58.000Z</time>
      </trkpt>
      <trkpt lat="44.42015" lon="6.41184">
        <ele>1671</ele>
        <time>2021-09-01T14:22:59.000Z</time>
      </trkpt>
      <trkpt lat="44.42015" lon="6.41184">
        <ele>1671</ele>
        <time>2021-09-01T14:23:00.000Z</time>
      </trkpt>
      <trkpt lat="44.42016" lon="6.41184">
        <ele>1671</ele>
        <time>2021-09-01T14:23:01.000Z</time>
      </trkpt>
      <trkpt lat="44.42017" lon="6.41184">
        <ele>1672</ele>
        <time>2021-09-01T14:23:02.000Z</time>
      </trkpt>
      <trkpt lat="44.42017" lon="6.41183">
        <ele>1671</ele>
        <time>2021-09-01T14:23:03.000Z</time>
      </trkpt>
      <trkpt lat="44.42018" lon="6.41183">
        <ele>1672</ele>
        <time>2021-09-01T14:23:04.000Z</time>
      </trkpt>
      <trkpt lat="44.42018" lon="6.41181">
        <ele>1671</ele>
        <time>2021-09-01T14:23:05.000Z</time>
      </trkpt>
      <trkpt lat="44.42019" lon="6.41181">
        <ele>1672</ele>
        <time>2021-09-01T14:23:06.000Z</time>
      </trkpt>
      <trkpt lat="44.42019" lon="6.4118">
        <ele>1672</ele>
        <time>2021-09-01T14:23:07.000Z</time>
      </trkpt>
      <trkpt lat="44.4202" lon="6.41179">
        <ele>1672</ele>
        <time>2021-09-01T14:23:08.000Z</time>
      </trkpt>
      <trkpt lat="44.42021" lon="6.41179">
        <ele>1672</ele>
        <time>2021-09-01T14:23:09.000Z</time>
      </trkpt>
      <trkpt lat="44.42022" lon="6.41178">
        <ele>1672</ele>
        <time>2021-09-01T14:23:10.000Z</time>
      </trkpt>
      <trkpt lat="44.42021" lon="6.41177">
        <ele>1672</ele>
        <time>2021-09-01T14:23:11.000Z</time>
      </trkpt>
      <trkpt lat="44.42022" lon="6.41177">
        <ele>1672</ele>
        <time>2021-09-01T14:23:12.000Z</time>
      </trkpt>
      <trkpt lat="44.42023" lon="6.41176">
        <ele>1671</ele>
        <time>2021-09-01T14:23:13.000Z</time>
      </trkpt>
      <trkpt lat="44.42023" lon="6.41176">
        <ele>1671</ele>
        <time>2021-09-01T14:23:14.000Z</time>
      </trkpt>
      <trkpt lat="44.42024" lon="6.41175">
        <ele>1671</ele>
        <time>2021-09-01T14:23:15.000Z</time>
      </trkpt>
      <trkpt lat="44.42025" lon="6.41175">
        <ele>1671</ele>
        <time>2021-09-01T14:23:16.000Z</time>
      </trkpt>
      <trkpt lat="44.42025" lon="6.41174">
        <ele>1670</ele>
        <time>2021-09-01T14:23:17.000Z</time>
      </trkpt>
      <trkpt lat="44.42025" lon="6.41173">
        <ele>1669</ele>
        <time>2021-09-01T14:23:18.000Z</time>
      </trkpt>
      <trkpt lat="44.42024" lon="6.41172">
        <ele>1668</ele>
        <time>2021-09-01T14:23:19.000Z</time>
      </trkpt>
      <trkpt lat="44.42024" lon="6.41172">
        <ele>1669</ele>
        <time>2021-09-01T14:23:20.000Z</time>
      </trkpt>
      <trkpt lat="44.42024" lon="6.41173">
        <ele>1668</ele>
        <time>2021-09-01T14:23:21.000Z</time>
      </trkpt>
      <trkpt lat="44.42024" lon="6.41173">
        <ele>1668</ele>
        <time>2021-09-01T14:23:22.000Z</time>
      </trkpt>
      <trkpt lat="44.42024" lon="6.41173">
        <ele>1667</ele>
        <time>2021-09-01T14:23:23.000Z</time>
      </trkpt>
      <trkpt lat="44.42024" lon="6.41173">
        <ele>1666</ele>
        <time>2021-09-01T14:23:24.000Z</time>
      </trkpt>
      <trkpt lat="44.42024" lon="6.41173">
        <ele>1666</ele>
        <time>2021-09-01T14:23:25.000Z</time>
      </trkpt>
      <trkpt lat="44.42024" lon="6.41172">
        <ele>1664</ele>
        <time>2021-09-01T14:23:26.000Z</time>
      </trkpt>
      <trkpt lat="44.42023" lon="6.41172">
        <ele>1663</ele>
        <time>2021-09-01T14:23:27.000Z</time>
      </trkpt>
      <trkpt lat="44.42024" lon="6.41172">
        <ele>1663</ele>
        <time>2021-09-01T14:23:28.000Z</time>
      </trkpt>
      <trkpt lat="44.42023" lon="6.41171">
        <ele>1662</ele>
        <time>2021-09-01T14:23:29.000Z</time>
      </trkpt>
      <trkpt lat="44.42023" lon="6.4117">
        <ele>1662</ele>
        <time>2021-09-01T14:23:30.000Z</time>
      </trkpt>
      <trkpt lat="44.42023" lon="6.4117">
        <ele>1662</ele>
        <time>2021-09-01T14:23:31.000Z</time>
      </trkpt>
      <trkpt lat="44.42023" lon="6.4117">
        <ele>1662</ele>
        <time>2021-09-01T14:23:32.000Z</time>
      </trkpt>
      <trkpt lat="44.42023" lon="6.4117">
        <ele>1662</ele>
        <time>2021-09-01T14:23:33.000Z</time>
      </trkpt>
      <trkpt lat="44.42023" lon="6.41169">
        <ele>1662</ele>
        <time>2021-09-01T14:23:34.000Z</time>
      </trkpt>
      <trkpt lat="44.42023" lon="6.41169">
        <ele>1662</ele>
        <time>2021-09-01T14:23:35.000Z</time>
      </trkpt>
      <trkpt lat="44.42024" lon="6.41169">
        <ele>1662</ele>
        <time>2021-09-01T14:23:36.000Z</time>
      </trkpt>
      <trkpt lat="44.42023" lon="6.41168">
        <ele>1662</ele>
        <time>2021-09-01T14:23:37.000Z</time>
      </trkpt>
      <trkpt lat="44.42024" lon="6.41169">
        <ele>1662</ele>
        <time>2021-09-01T14:23:38.000Z</time>
      </trkpt>
      <trkpt lat="44.42024" lon="6.41169">
        <ele>1663</ele>
        <time>2021-09-01T14:23:39.000Z</time>
      </trkpt>
      <trkpt lat="44.42024" lon="6.41169">
        <ele>1663</ele>
        <time>2021-09-01T14:23:40.000Z</time>
      </trkpt>
      <trkpt lat="44.42025" lon="6.41169">
        <ele>1663</ele>
        <time>2021-09-01T14:23:41.000Z</time>
      </trkpt>
      <trkpt lat="44.42025" lon="6.41169">
        <ele>1663</ele>
        <time>2021-09-01T14:23:42.000Z</time>
      </trkpt>
      <trkpt lat="44.42024" lon="6.41169">
        <ele>1662</ele>
        <time>2021-09-01T14:23:43.000Z</time>
      </trkpt>
      <trkpt lat="44.42024" lon="6.41169">
        <ele>1661</ele>
        <time>2021-09-01T14:23:44.000Z</time>
      </trkpt>
      <trkpt lat="44.42023" lon="6.41168">
        <ele>1661</ele>
        <time>2021-09-01T14:23:45.000Z</time>
      </trkpt>
      <trkpt lat="44.42024" lon="6.41167">
        <ele>1660</ele>
        <time>2021-09-01T14:23:46.000Z</time>
      </trkpt>
      <trkpt lat="44.42024" lon="6.41167">
        <ele>1660</ele>
        <time>2021-09-01T14:23:47.000Z</time>
      </trkpt>
      <trkpt lat="44.42024" lon="6.41167">
        <ele>1659</ele>
        <time>2021-09-01T14:23:48.000Z</time>
      </trkpt>
      <trkpt lat="44.42024" lon="6.41167">
        <ele>1659</ele>
        <time>2021-09-01T14:23:49.000Z</time>
      </trkpt>
      <trkpt lat="44.42024" lon="6.41167">
        <ele>1659</ele>
        <time>2021-09-01T14:23:50.000Z</time>
      </trkpt>
      <trkpt lat="44.42024" lon="6.41167">
        <ele>1659</ele>
        <time>2021-09-01T14:23:51.000Z</time>
      </trkpt>
      <trkpt lat="44.42023" lon="6.41166">
        <ele>1658</ele>
        <time>2021-09-01T14:23:52.000Z</time>
      </trkpt>
      <trkpt lat="44.42023" lon="6.41166">
        <ele>1658</ele>
        <time>2021-09-01T14:23:53.000Z</time>
      </trkpt>
      <trkpt lat="44.42023" lon="6.41165">
        <ele>1658</ele>
        <time>2021-09-01T14:23:54.000Z</time>
      </trkpt>
      <trkpt lat="44.42023" lon="6.41165">
        <ele>1658</ele>
        <time>2021-09-01T14:23:55.000Z</time>
      </trkpt>
      <trkpt lat="44.42024" lon="6.41164">
        <ele>1658</ele>
        <time>2021-09-01T14:23:56.000Z</time>
      </trkpt>
      <trkpt lat="44.42024" lon="6.41163">
        <ele>1657</ele>
        <time>2021-09-01T14:23:57.000Z</time>
      </trkpt>
      <trkpt lat="44.42023" lon="6.41162">
        <ele>1657</ele>
        <time>2021-09-01T14:23:58.000Z</time>
      </trkpt>
      <trkpt lat="44.42024" lon="6.41161">
        <ele>1657</ele>
        <time>2021-09-01T14:23:59.000Z</time>
      </trkpt>
      <trkpt lat="44.42024" lon="6.41161">
        <ele>1657</ele>
        <time>2021-09-01T14:24:00.000Z</time>
      </trkpt>
      <trkpt lat="44.42024" lon="6.4116">
        <ele>1657</ele>
        <time>2021-09-01T14:24:01.000Z</time>
      </trkpt>
      <trkpt lat="44.42024" lon="6.4116">
        <ele>1657</ele>
        <time>2021-09-01T14:24:02.000Z</time>
      </trkpt>
      <trkpt lat="44.42024" lon="6.41159">
        <ele>1657</ele>
        <time>2021-09-01T14:24:03.000Z</time>
      </trkpt>
      <trkpt lat="44.42024" lon="6.41158">
        <ele>1657</ele>
        <time>2021-09-01T14:24:04.000Z</time>
      </trkpt>
      <trkpt lat="44.42025" lon="6.41159">
        <ele>1657</ele>
        <time>2021-09-01T14:24:05.000Z</time>
      </trkpt>
      <trkpt lat="44.42025" lon="6.41157">
        <ele>1658</ele>
        <time>2021-09-01T14:24:06.000Z</time>
      </trkpt>
      <trkpt lat="44.42025" lon="6.41157">
        <ele>1658</ele>
        <time>2021-09-01T14:24:07.000Z</time>
      </trkpt>
      <trkpt lat="44.42025" lon="6.41156">
        <ele>1658</ele>
        <time>2021-09-01T14:24:08.000Z</time>
      </trkpt>
      <trkpt lat="44.42024" lon="6.41156">
        <ele>1659</ele>
        <time>2021-09-01T14:24:09.000Z</time>
      </trkpt>
      <trkpt lat="44.42024" lon="6.41156">
        <ele>1658</ele>
        <time>2021-09-01T14:24:10.000Z</time>
      </trkpt>
      <trkpt lat="44.42023" lon="6.41155">
        <ele>1658</ele>
        <time>2021-09-01T14:24:11.000Z</time>
      </trkpt>
      <trkpt lat="44.42022" lon="6.41155">
        <ele>1657</ele>
        <time>2021-09-01T14:24:12.000Z</time>
      </trkpt>
      <trkpt lat="44.42023" lon="6.41155">
        <ele>1657</ele>
        <time>2021-09-01T14:24:13.000Z</time>
      </trkpt>
      <trkpt lat="44.42023" lon="6.41155">
        <ele>1657</ele>
        <time>2021-09-01T14:24:14.000Z</time>
      </trkpt>
      <trkpt lat="44.42023" lon="6.41155">
        <ele>1656</ele>
        <time>2021-09-01T14:24:15.000Z</time>
      </trkpt>
      <trkpt lat="44.42023" lon="6.41154">
        <ele>1656</ele>
        <time>2021-09-01T14:24:16.000Z</time>
      </trkpt>
      <trkpt lat="44.42023" lon="6.41154">
        <ele>1656</ele>
        <time>2021-09-01T14:24:17.000Z</time>
      </trkpt>
      <trkpt lat="44.42023" lon="6.41154">
        <ele>1657</ele>
        <time>2021-09-01T14:24:18.000Z</time>
      </trkpt>
      <trkpt lat="44.42023" lon="6.41153">
        <ele>1657</ele>
        <time>2021-09-01T14:24:19.000Z</time>
      </trkpt>
      <trkpt lat="44.42023" lon="6.41153">
        <ele>1656</ele>
        <time>2021-09-01T14:24:20.000Z</time>
      </trkpt>
      <trkpt lat="44.42023" lon="6.41153">
        <ele>1656</ele>
        <time>2021-09-01T14:24:21.000Z</time>
      </trkpt>
      <trkpt lat="44.42023" lon="6.41153">
        <ele>1656</ele>
        <time>2021-09-01T14:24:22.000Z</time>
      </trkpt>
      <trkpt lat="44.42024" lon="6.41153">
        <ele>1656</ele>
        <time>2021-09-01T14:24:23.000Z</time>
      </trkpt>
      <trkpt lat="44.42024" lon="6.41152">
        <ele>1657</ele>
        <time>2021-09-01T14:24:24.000Z</time>
      </trkpt>
      <trkpt lat="44.42025" lon="6.41151">
        <ele>1657</ele>
        <time>2021-09-01T14:24:25.000Z</time>
      </trkpt>
      <trkpt lat="44.42025" lon="6.41151">
        <ele>1657</ele>
        <time>2021-09-01T14:24:26.000Z</time>
      </trkpt>
      <trkpt lat="44.42025" lon="6.4115">
        <ele>1657</ele>
        <time>2021-09-01T14:24:27.000Z</time>
      </trkpt>
      <trkpt lat="44.42026" lon="6.4115">
        <ele>1657</ele>
        <time>2021-09-01T14:24:28.000Z</time>
      </trkpt>
      <trkpt lat="44.42026" lon="6.4115">
        <ele>1657</ele>
        <time>2021-09-01T14:24:29.000Z</time>
      </trkpt>
      <trkpt lat="44.42026" lon="6.41149">
        <ele>1656</ele>
        <time>2021-09-01T14:24:30.000Z</time>
      </trkpt>
      <trkpt lat="44.42026" lon="6.41148">
        <ele>1656</ele>
        <time>2021-09-01T14:24:31.000Z</time>
      </trkpt>
      <trkpt lat="44.42026" lon="6.41148">
        <ele>1656</ele>
        <time>2021-09-01T14:24:32.000Z</time>
      </trkpt>
      <trkpt lat="44.42026" lon="6.41147">
        <ele>1656</ele>
        <time>2021-09-01T14:24:33.000Z</time>
      </trkpt>
      <trkpt lat="44.42027" lon="6.41147">
        <ele>1656</ele>
        <time>2021-09-01T14:24:34.000Z</time>
      </trkpt>
      <trkpt lat="44.42026" lon="6.41146">
        <ele>1655</ele>
        <time>2021-09-01T14:24:35.000Z</time>
      </trkpt>
      <trkpt lat="44.42026" lon="6.41145">
        <ele>1655</ele>
        <time>2021-09-01T14:24:36.000Z</time>
      </trkpt>
      <trkpt lat="44.42026" lon="6.41145">
        <ele>1655</ele>
        <time>2021-09-01T14:24:37.000Z</time>
      </trkpt>
      <trkpt lat="44.42027" lon="6.41144">
        <ele>1654</ele>
        <time>2021-09-01T14:24:38.000Z</time>
      </trkpt>
      <trkpt lat="44.42027" lon="6.41144">
        <ele>1654</ele>
        <time>2021-09-01T14:24:39.000Z</time>
      </trkpt>
      <trkpt lat="44.42028" lon="6.41143">
        <ele>1654</ele>
        <time>2021-09-01T14:24:40.000Z</time>
      </trkpt>
      <trkpt lat="44.42028" lon="6.41142">
        <ele>1654</ele>
        <time>2021-09-01T14:24:41.000Z</time>
      </trkpt>
      <trkpt lat="44.42028" lon="6.41141">
        <ele>1654</ele>
        <time>2021-09-01T14:24:42.000Z</time>
      </trkpt>
      <trkpt lat="44.42028" lon="6.4114">
        <ele>1654</ele>
        <time>2021-09-01T14:24:43.000Z</time>
      </trkpt>
      <trkpt lat="44.42029" lon="6.4114">
        <ele>1653</ele>
        <time>2021-09-01T14:24:44.000Z</time>
      </trkpt>
      <trkpt lat="44.42029" lon="6.41139">
        <ele>1653</ele>
        <time>2021-09-01T14:24:45.000Z</time>
      </trkpt>
      <trkpt lat="44.42029" lon="6.41138">
        <ele>1652</ele>
        <time>2021-09-01T14:24:46.000Z</time>
      </trkpt>
      <trkpt lat="44.4203" lon="6.41137">
        <ele>1653</ele>
        <time>2021-09-01T14:24:47.000Z</time>
      </trkpt>
      <trkpt lat="44.4203" lon="6.41136">
        <ele>1653</ele>
        <time>2021-09-01T14:24:48.000Z</time>
      </trkpt>
      <trkpt lat="44.42031" lon="6.41136">
        <ele>1653</ele>
        <time>2021-09-01T14:24:49.000Z</time>
      </trkpt>
      <trkpt lat="44.42032" lon="6.41135">
        <ele>1653</ele>
        <time>2021-09-01T14:24:50.000Z</time>
      </trkpt>
      <trkpt lat="44.42032" lon="6.41134">
        <ele>1653</ele>
        <time>2021-09-01T14:24:51.000Z</time>
      </trkpt>
      <trkpt lat="44.42033" lon="6.41133">
        <ele>1653</ele>
        <time>2021-09-01T14:24:52.000Z</time>
      </trkpt>
      <trkpt lat="44.42033" lon="6.41132">
        <ele>1653</ele>
        <time>2021-09-01T14:24:53.000Z</time>
      </trkpt>
      <trkpt lat="44.42034" lon="6.41132">
        <ele>1653</ele>
        <time>2021-09-01T14:24:54.000Z</time>
      </trkpt>
      <trkpt lat="44.42036" lon="6.41133">
        <ele>1652</ele>
        <time>2021-09-01T14:24:55.000Z</time>
      </trkpt>
      <trkpt lat="44.42037" lon="6.41133">
        <ele>1652</ele>
        <time>2021-09-01T14:24:56.000Z</time>
      </trkpt>
      <trkpt lat="44.42038" lon="6.41134">
        <ele>1652</ele>
        <time>2021-09-01T14:24:57.000Z</time>
      </trkpt>
      <trkpt lat="44.42039" lon="6.41134">
        <ele>1652</ele>
        <time>2021-09-01T14:24:58.000Z</time>
      </trkpt>
      <trkpt lat="44.4204" lon="6.41134">
        <ele>1651</ele>
        <time>2021-09-01T14:24:59.000Z</time>
      </trkpt>
      <trkpt lat="44.42041" lon="6.41134">
        <ele>1652</ele>
        <time>2021-09-01T14:25:00.000Z</time>
      </trkpt>
      <trkpt lat="44.42041" lon="6.41134">
        <ele>1651</ele>
        <time>2021-09-01T14:25:01.000Z</time>
      </trkpt>
      <trkpt lat="44.42042" lon="6.41134">
        <ele>1651</ele>
        <time>2021-09-01T14:25:02.000Z</time>
      </trkpt>
      <trkpt lat="44.42043" lon="6.41134">
        <ele>1651</ele>
        <time>2021-09-01T14:25:03.000Z</time>
      </trkpt>
      <trkpt lat="44.42044" lon="6.41134">
        <ele>1651</ele>
        <time>2021-09-01T14:25:04.000Z</time>
      </trkpt>
      <trkpt lat="44.42045" lon="6.41132">
        <ele>1650</ele>
        <time>2021-09-01T14:25:06.000Z</time>
      </trkpt>
      <trkpt lat="44.42045" lon="6.41131">
        <ele>1650</ele>
        <time>2021-09-01T14:25:08.000Z</time>
      </trkpt>
      <trkpt lat="44.42046" lon="6.41129">
        <ele>1649</ele>
        <time>2021-09-01T14:25:10.000Z</time>
      </trkpt>
      <trkpt lat="44.42046" lon="6.41128">
        <ele>1648</ele>
        <time>2021-09-01T14:25:12.000Z</time>
      </trkpt>
      <trkpt lat="44.42047" lon="6.41126">
        <ele>1648</ele>
        <time>2021-09-01T14:25:15.000Z</time>
      </trkpt>
      <trkpt lat="44.42049" lon="6.41125">
        <ele>1647</ele>
        <time>2021-09-01T14:25:19.000Z</time>
      </trkpt>
      <trkpt lat="44.42053" lon="6.41121">
        <ele>1646</ele>
        <time>2021-09-01T14:25:26.000Z</time>
      </trkpt>
      <trkpt lat="44.42055" lon="6.41112">
        <ele>1644</ele>
        <time>2021-09-01T14:25:34.000Z</time>
      </trkpt>
      <trkpt lat="44.42056" lon="6.41107">
        <ele>1643</ele>
        <time>2021-09-01T14:25:42.000Z</time>
      </trkpt>
      <trkpt lat="44.42057" lon="6.41102">
        <ele>1643</ele>
        <time>2021-09-01T14:25:50.000Z</time>
      </trkpt>
      <trkpt lat="44.42069" lon="6.41044">
        <ele>1635</ele>
        <time>2021-09-01T14:26:06.000Z</time>
      </trkpt>
      <trkpt lat="44.42068" lon="6.41004">
        <ele>1621</ele>
        <time>2021-09-01T14:26:16.000Z</time>
      </trkpt>
      <trkpt lat="44.42068" lon="6.40998">
        <ele>1620</ele>
        <time>2021-09-01T14:26:17.000Z</time>
      </trkpt>
      <trkpt lat="44.42068" lon="6.40993">
        <ele>1619</ele>
        <time>2021-09-01T14:26:18.000Z</time>
      </trkpt>
      <trkpt lat="44.42068" lon="6.40987">
        <ele>1618</ele>
        <time>2021-09-01T14:26:19.000Z</time>
      </trkpt>
      <trkpt lat="44.42069" lon="6.40982">
        <ele>1617</ele>
        <time>2021-09-01T14:26:20.000Z</time>
      </trkpt>
      <trkpt lat="44.4207" lon="6.40978">
        <ele>1617</ele>
        <time>2021-09-01T14:26:21.000Z</time>
      </trkpt>
      <trkpt lat="44.42071" lon="6.40975">
        <ele>1615</ele>
        <time>2021-09-01T14:26:22.000Z</time>
      </trkpt>
      <trkpt lat="44.42072" lon="6.40972">
        <ele>1614</ele>
        <time>2021-09-01T14:26:23.000Z</time>
      </trkpt>
      <trkpt lat="44.42072" lon="6.40969">
        <ele>1614</ele>
        <time>2021-09-01T14:26:24.000Z</time>
      </trkpt>
      <trkpt lat="44.42074" lon="6.40966">
        <ele>1612</ele>
        <time>2021-09-01T14:26:25.000Z</time>
      </trkpt>
      <trkpt lat="44.42075" lon="6.40963">
        <ele>1610</ele>
        <time>2021-09-01T14:26:26.000Z</time>
      </trkpt>
      <trkpt lat="44.42077" lon="6.40961">
        <ele>1609</ele>
        <time>2021-09-01T14:26:27.000Z</time>
      </trkpt>
      <trkpt lat="44.42079" lon="6.40958">
        <ele>1608</ele>
        <time>2021-09-01T14:26:28.000Z</time>
      </trkpt>
      <trkpt lat="44.42081" lon="6.40954">
        <ele>1606</ele>
        <time>2021-09-01T14:26:29.000Z</time>
      </trkpt>
      <trkpt lat="44.42083" lon="6.40951">
        <ele>1605</ele>
        <time>2021-09-01T14:26:30.000Z</time>
      </trkpt>
      <trkpt lat="44.42086" lon="6.40946">
        <ele>1606</ele>
        <time>2021-09-01T14:26:31.000Z</time>
      </trkpt>
      <trkpt lat="44.42089" lon="6.40943">
        <ele>1605</ele>
        <time>2021-09-01T14:26:32.000Z</time>
      </trkpt>
      <trkpt lat="44.4209" lon="6.40941">
        <ele>1604</ele>
        <time>2021-09-01T14:26:33.000Z</time>
      </trkpt>
      <trkpt lat="44.42092" lon="6.40938">
        <ele>1603</ele>
        <time>2021-09-01T14:26:34.000Z</time>
      </trkpt>
      <trkpt lat="44.42094" lon="6.40936">
        <ele>1603</ele>
        <time>2021-09-01T14:26:35.000Z</time>
      </trkpt>
      <trkpt lat="44.42097" lon="6.40934">
        <ele>1602</ele>
        <time>2021-09-01T14:26:36.000Z</time>
      </trkpt>
      <trkpt lat="44.42101" lon="6.40933">
        <ele>1602</ele>
        <time>2021-09-01T14:26:37.000Z</time>
      </trkpt>
      <trkpt lat="44.42104" lon="6.40931">
        <ele>1602</ele>
        <time>2021-09-01T14:26:38.000Z</time>
      </trkpt>
      <trkpt lat="44.42106" lon="6.40928">
        <ele>1601</ele>
        <time>2021-09-01T14:26:39.000Z</time>
      </trkpt>
      <trkpt lat="44.42109" lon="6.40927">
        <ele>1600</ele>
        <time>2021-09-01T14:26:40.000Z</time>
      </trkpt>
      <trkpt lat="44.4211" lon="6.40925">
        <ele>1600</ele>
        <time>2021-09-01T14:26:41.000Z</time>
      </trkpt>
      <trkpt lat="44.42112" lon="6.40924">
        <ele>1599</ele>
        <time>2021-09-01T14:26:42.000Z</time>
      </trkpt>
      <trkpt lat="44.42112" lon="6.40922">
        <ele>1598</ele>
        <time>2021-09-01T14:26:43.000Z</time>
      </trkpt>
      <trkpt lat="44.42113" lon="6.4092">
        <ele>1597</ele>
        <time>2021-09-01T14:26:44.000Z</time>
      </trkpt>
      <trkpt lat="44.42113" lon="6.40918">
        <ele>1596</ele>
        <time>2021-09-01T14:26:45.000Z</time>
      </trkpt>
      <trkpt lat="44.42113" lon="6.40917">
        <ele>1595</ele>
        <time>2021-09-01T14:26:46.000Z</time>
      </trkpt>
      <trkpt lat="44.42113" lon="6.40916">
        <ele>1593</ele>
        <time>2021-09-01T14:26:47.000Z</time>
      </trkpt>
      <trkpt lat="44.4211" lon="6.40916">
        <ele>1590</ele>
        <time>2021-09-01T14:26:48.000Z</time>
      </trkpt>
      <trkpt lat="44.42109" lon="6.40916">
        <ele>1589</ele>
        <time>2021-09-01T14:26:49.000Z</time>
      </trkpt>
      <trkpt lat="44.42106" lon="6.40916">
        <ele>1588</ele>
        <time>2021-09-01T14:26:50.000Z</time>
      </trkpt>
      <trkpt lat="44.42105" lon="6.40916">
        <ele>1587</ele>
        <time>2021-09-01T14:26:51.000Z</time>
      </trkpt>
      <trkpt lat="44.42103" lon="6.40916">
        <ele>1585</ele>
        <time>2021-09-01T14:26:52.000Z</time>
      </trkpt>
      <trkpt lat="44.421" lon="6.40916">
        <ele>1584</ele>
        <time>2021-09-01T14:26:53.000Z</time>
      </trkpt>
      <trkpt lat="44.42096" lon="6.40917">
        <ele>1584</ele>
        <time>2021-09-01T14:26:54.000Z</time>
      </trkpt>
      <trkpt lat="44.42093" lon="6.40917">
        <ele>1583</ele>
        <time>2021-09-01T14:26:55.000Z</time>
      </trkpt>
      <trkpt lat="44.4209" lon="6.40918">
        <ele>1582</ele>
        <time>2021-09-01T14:26:56.000Z</time>
      </trkpt>
      <trkpt lat="44.42087" lon="6.40918">
        <ele>1581</ele>
        <time>2021-09-01T14:26:57.000Z</time>
      </trkpt>
      <trkpt lat="44.42084" lon="6.40918">
        <ele>1580</ele>
        <time>2021-09-01T14:26:58.000Z</time>
      </trkpt>
      <trkpt lat="44.42081" lon="6.40919">
        <ele>1579</ele>
        <time>2021-09-01T14:26:59.000Z</time>
      </trkpt>
      <trkpt lat="44.42078" lon="6.40919">
        <ele>1578</ele>
        <time>2021-09-01T14:27:00.000Z</time>
      </trkpt>
      <trkpt lat="44.42074" lon="6.4092">
        <ele>1575</ele>
        <time>2021-09-01T14:27:01.000Z</time>
      </trkpt>
      <trkpt lat="44.42069" lon="6.40922">
        <ele>1572</ele>
        <time>2021-09-01T14:27:02.000Z</time>
      </trkpt>
      <trkpt lat="44.42065" lon="6.40925">
        <ele>1570</ele>
        <time>2021-09-01T14:27:03.000Z</time>
      </trkpt>
      <trkpt lat="44.42061" lon="6.40926">
        <ele>1569</ele>
        <time>2021-09-01T14:27:04.000Z</time>
      </trkpt>
      <trkpt lat="44.42057" lon="6.40926">
        <ele>1569</ele>
        <time>2021-09-01T14:27:05.000Z</time>
      </trkpt>
      <trkpt lat="44.42053" lon="6.40928">
        <ele>1567</ele>
        <time>2021-09-01T14:27:06.000Z</time>
      </trkpt>
      <trkpt lat="44.42049" lon="6.40928">
        <ele>1566</ele>
        <time>2021-09-01T14:27:07.000Z</time>
      </trkpt>
      <trkpt lat="44.42047" lon="6.40927">
        <ele>1566</ele>
        <time>2021-09-01T14:27:08.000Z</time>
      </trkpt>
      <trkpt lat="44.42044" lon="6.40926">
        <ele>1566</ele>
        <time>2021-09-01T14:27:09.000Z</time>
      </trkpt>
      <trkpt lat="44.42041" lon="6.40927">
        <ele>1565</ele>
        <time>2021-09-01T14:27:10.000Z</time>
      </trkpt>
      <trkpt lat="44.42039" lon="6.40927">
        <ele>1563</ele>
        <time>2021-09-01T14:27:11.000Z</time>
      </trkpt>
      <trkpt lat="44.42036" lon="6.40928">
        <ele>1561</ele>
        <time>2021-09-01T14:27:12.000Z</time>
      </trkpt>
      <trkpt lat="44.42035" lon="6.40928">
        <ele>1562</ele>
        <time>2021-09-01T14:27:13.000Z</time>
      </trkpt>
      <trkpt lat="44.42035" lon="6.40927">
        <ele>1562</ele>
        <time>2021-09-01T14:27:14.000Z</time>
      </trkpt>
      <trkpt lat="44.42033" lon="6.40927">
        <ele>1563</ele>
        <time>2021-09-01T14:27:15.000Z</time>
      </trkpt>
      <trkpt lat="44.42032" lon="6.40925">
        <ele>1563</ele>
        <time>2021-09-01T14:27:16.000Z</time>
      </trkpt>
      <trkpt lat="44.42032" lon="6.4092">
        <ele>1564</ele>
        <time>2021-09-01T14:27:17.000Z</time>
      </trkpt>
      <trkpt lat="44.42032" lon="6.40916">
        <ele>1565</ele>
        <time>2021-09-01T14:27:18.000Z</time>
      </trkpt>
      <trkpt lat="44.42032" lon="6.40915">
        <ele>1566</ele>
        <time>2021-09-01T14:27:19.000Z</time>
      </trkpt>
      <trkpt lat="44.42033" lon="6.40914">
        <ele>1567</ele>
        <time>2021-09-01T14:27:20.000Z</time>
      </trkpt>
      <trkpt lat="44.42033" lon="6.4091">
        <ele>1573</ele>
        <time>2021-09-01T14:27:21.000Z</time>
      </trkpt>
      <trkpt lat="44.42032" lon="6.40905">
        <ele>1579</ele>
        <time>2021-09-01T14:27:22.000Z</time>
      </trkpt>
      <trkpt lat="44.42032" lon="6.40903">
        <ele>1580</ele>
        <time>2021-09-01T14:27:23.000Z</time>
      </trkpt>
      <trkpt lat="44.42032" lon="6.40902">
        <ele>1579</ele>
        <time>2021-09-01T14:27:24.000Z</time>
      </trkpt>
      <trkpt lat="44.42031" lon="6.409">
        <ele>1579</ele>
        <time>2021-09-01T14:27:25.000Z</time>
      </trkpt>
      <trkpt lat="44.42031" lon="6.40901">
        <ele>1580</ele>
        <time>2021-09-01T14:27:26.000Z</time>
      </trkpt>
      <trkpt lat="44.42031" lon="6.40901">
        <ele>1580</ele>
        <time>2021-09-01T14:27:27.000Z</time>
      </trkpt>
      <trkpt lat="44.42031" lon="6.40901">
        <ele>1580</ele>
        <time>2021-09-01T14:27:28.000Z</time>
      </trkpt>
      <trkpt lat="44.42031" lon="6.40901">
        <ele>1580</ele>
        <time>2021-09-01T14:27:29.000Z</time>
      </trkpt>
      <trkpt lat="44.42032" lon="6.409">
        <ele>1580</ele>
        <time>2021-09-01T14:27:30.000Z</time>
      </trkpt>
      <trkpt lat="44.42033" lon="6.40899">
        <ele>1581</ele>
        <time>2021-09-01T14:27:31.000Z</time>
      </trkpt>
      <trkpt lat="44.42033" lon="6.40899">
        <ele>1581</ele>
        <time>2021-09-01T14:27:32.000Z</time>
      </trkpt>
      <trkpt lat="44.42033" lon="6.40897">
        <ele>1582</ele>
        <time>2021-09-01T14:27:33.000Z</time>
      </trkpt>
      <trkpt lat="44.42033" lon="6.40896">
        <ele>1583</ele>
        <time>2021-09-01T14:27:34.000Z</time>
      </trkpt>
      <trkpt lat="44.42032" lon="6.40895">
        <ele>1584</ele>
        <time>2021-09-01T14:27:35.000Z</time>
      </trkpt>
      <trkpt lat="44.42032" lon="6.40894">
        <ele>1584</ele>
        <time>2021-09-01T14:27:36.000Z</time>
      </trkpt>
      <trkpt lat="44.42032" lon="6.40894">
        <ele>1584</ele>
        <time>2021-09-01T14:27:37.000Z</time>
      </trkpt>
      <trkpt lat="44.42032" lon="6.40893">
        <ele>1585</ele>
        <time>2021-09-01T14:27:38.000Z</time>
      </trkpt>
      <trkpt lat="44.42032" lon="6.40893">
        <ele>1585</ele>
        <time>2021-09-01T14:27:39.000Z</time>
      </trkpt>
      <trkpt lat="44.42032" lon="6.40892">
        <ele>1585</ele>
        <time>2021-09-01T14:27:40.000Z</time>
      </trkpt>
      <trkpt lat="44.42032" lon="6.4089">
        <ele>1585</ele>
        <time>2021-09-01T14:27:41.000Z</time>
      </trkpt>
      <trkpt lat="44.42032" lon="6.40889">
        <ele>1586</ele>
        <time>2021-09-01T14:27:42.000Z</time>
      </trkpt>
      <trkpt lat="44.42031" lon="6.40888">
        <ele>1586</ele>
        <time>2021-09-01T14:27:43.000Z</time>
      </trkpt>
      <trkpt lat="44.4203" lon="6.40886">
        <ele>1587</ele>
        <time>2021-09-01T14:27:44.000Z</time>
      </trkpt>
      <trkpt lat="44.4203" lon="6.40886">
        <ele>1587</ele>
        <time>2021-09-01T14:27:45.000Z</time>
      </trkpt>
      <trkpt lat="44.42029" lon="6.40885">
        <ele>1588</ele>
        <time>2021-09-01T14:27:46.000Z</time>
      </trkpt>
      <trkpt lat="44.42029" lon="6.40885">
        <ele>1588</ele>
        <time>2021-09-01T14:27:47.000Z</time>
      </trkpt>
      <trkpt lat="44.42028" lon="6.40884">
        <ele>1589</ele>
        <time>2021-09-01T14:27:48.000Z</time>
      </trkpt>
      <trkpt lat="44.42028" lon="6.40883">
        <ele>1588</ele>
        <time>2021-09-01T14:27:49.000Z</time>
      </trkpt>
      <trkpt lat="44.42027" lon="6.40883">
        <ele>1589</ele>
        <time>2021-09-01T14:27:50.000Z</time>
      </trkpt>
      <trkpt lat="44.42027" lon="6.40882">
        <ele>1589</ele>
        <time>2021-09-01T14:27:51.000Z</time>
      </trkpt>
      <trkpt lat="44.42026" lon="6.40882">
        <ele>1588</ele>
        <time>2021-09-01T14:27:52.000Z</time>
      </trkpt>
      <trkpt lat="44.42026" lon="6.40881">
        <ele>1588</ele>
        <time>2021-09-01T14:27:53.000Z</time>
      </trkpt>
      <trkpt lat="44.42025" lon="6.40878">
        <ele>1589</ele>
        <time>2021-09-01T14:27:54.000Z</time>
      </trkpt>
      <trkpt lat="44.42025" lon="6.40877">
        <ele>1589</ele>
        <time>2021-09-01T14:27:55.000Z</time>
      </trkpt>
      <trkpt lat="44.42025" lon="6.40875">
        <ele>1589</ele>
        <time>2021-09-01T14:27:56.000Z</time>
      </trkpt>
      <trkpt lat="44.42025" lon="6.40874">
        <ele>1589</ele>
        <time>2021-09-01T14:27:57.000Z</time>
      </trkpt>
      <trkpt lat="44.42024" lon="6.40873">
        <ele>1589</ele>
        <time>2021-09-01T14:27:58.000Z</time>
      </trkpt>
      <trkpt lat="44.42024" lon="6.40871">
        <ele>1589</ele>
        <time>2021-09-01T14:27:59.000Z</time>
      </trkpt>
      <trkpt lat="44.42024" lon="6.4087">
        <ele>1589</ele>
        <time>2021-09-01T14:28:00.000Z</time>
      </trkpt>
      <trkpt lat="44.42024" lon="6.40868">
        <ele>1589</ele>
        <time>2021-09-01T14:28:01.000Z</time>
      </trkpt>
      <trkpt lat="44.42024" lon="6.40867">
        <ele>1589</ele>
        <time>2021-09-01T14:28:02.000Z</time>
      </trkpt>
      <trkpt lat="44.42024" lon="6.40866">
        <ele>1589</ele>
        <time>2021-09-01T14:28:03.000Z</time>
      </trkpt>
      <trkpt lat="44.42024" lon="6.40864">
        <ele>1589</ele>
        <time>2021-09-01T14:28:04.000Z</time>
      </trkpt>
      <trkpt lat="44.42023" lon="6.40864">
        <ele>1589</ele>
        <time>2021-09-01T14:28:05.000Z</time>
      </trkpt>
      <trkpt lat="44.42024" lon="6.40863">
        <ele>1589</ele>
        <time>2021-09-01T14:28:06.000Z</time>
      </trkpt>
      <trkpt lat="44.42023" lon="6.40862">
        <ele>1588</ele>
        <time>2021-09-01T14:28:07.000Z</time>
      </trkpt>
      <trkpt lat="44.42024" lon="6.40861">
        <ele>1588</ele>
        <time>2021-09-01T14:28:08.000Z</time>
      </trkpt>
      <trkpt lat="44.42024" lon="6.4086">
        <ele>1589</ele>
        <time>2021-09-01T14:28:09.000Z</time>
      </trkpt>
      <trkpt lat="44.42024" lon="6.40858">
        <ele>1589</ele>
        <time>2021-09-01T14:28:10.000Z</time>
      </trkpt>
      <trkpt lat="44.42025" lon="6.40856">
        <ele>1589</ele>
        <time>2021-09-01T14:28:11.000Z</time>
      </trkpt>
      <trkpt lat="44.42025" lon="6.40855">
        <ele>1589</ele>
        <time>2021-09-01T14:28:12.000Z</time>
      </trkpt>
      <trkpt lat="44.42025" lon="6.40854">
        <ele>1589</ele>
        <time>2021-09-01T14:28:13.000Z</time>
      </trkpt>
      <trkpt lat="44.42024" lon="6.40853">
        <ele>1589</ele>
        <time>2021-09-01T14:28:14.000Z</time>
      </trkpt>
      <trkpt lat="44.42024" lon="6.40852">
        <ele>1588</ele>
        <time>2021-09-01T14:28:15.000Z</time>
      </trkpt>
      <trkpt lat="44.42024" lon="6.40851">
        <ele>1588</ele>
        <time>2021-09-01T14:28:16.000Z</time>
      </trkpt>
      <trkpt lat="44.42025" lon="6.4085">
        <ele>1588</ele>
        <time>2021-09-01T14:28:17.000Z</time>
      </trkpt>
      <trkpt lat="44.42026" lon="6.40849">
        <ele>1589</ele>
        <time>2021-09-01T14:28:18.000Z</time>
      </trkpt>
      <trkpt lat="44.42027" lon="6.40849">
        <ele>1590</ele>
        <time>2021-09-01T14:28:19.000Z</time>
      </trkpt>
      <trkpt lat="44.42027" lon="6.40848">
        <ele>1590</ele>
        <time>2021-09-01T14:28:20.000Z</time>
      </trkpt>
      <trkpt lat="44.42027" lon="6.40847">
        <ele>1592</ele>
        <time>2021-09-01T14:28:21.000Z</time>
      </trkpt>
      <trkpt lat="44.42028" lon="6.40846">
        <ele>1593</ele>
        <time>2021-09-01T14:28:22.000Z</time>
      </trkpt>
      <trkpt lat="44.42028" lon="6.40845">
        <ele>1594</ele>
        <time>2021-09-01T14:28:23.000Z</time>
      </trkpt>
      <trkpt lat="44.42028" lon="6.40844">
        <ele>1596</ele>
        <time>2021-09-01T14:28:24.000Z</time>
      </trkpt>
      <trkpt lat="44.42027" lon="6.40843">
        <ele>1597</ele>
        <time>2021-09-01T14:28:25.000Z</time>
      </trkpt>
      <trkpt lat="44.42028" lon="6.40842">
        <ele>1598</ele>
        <time>2021-09-01T14:28:26.000Z</time>
      </trkpt>
      <trkpt lat="44.42028" lon="6.40842">
        <ele>1598</ele>
        <time>2021-09-01T14:28:27.000Z</time>
      </trkpt>
      <trkpt lat="44.42027" lon="6.40841">
        <ele>1598</ele>
        <time>2021-09-01T14:28:28.000Z</time>
      </trkpt>
      <trkpt lat="44.42026" lon="6.40841">
        <ele>1598</ele>
        <time>2021-09-01T14:28:29.000Z</time>
      </trkpt>
      <trkpt lat="44.42027" lon="6.40842">
        <ele>1598</ele>
        <time>2021-09-01T14:28:30.000Z</time>
      </trkpt>
      <trkpt lat="44.42027" lon="6.40842">
        <ele>1598</ele>
        <time>2021-09-01T14:28:31.000Z</time>
      </trkpt>
      <trkpt lat="44.42027" lon="6.40841">
        <ele>1598</ele>
        <time>2021-09-01T14:28:32.000Z</time>
      </trkpt>
      <trkpt lat="44.42027" lon="6.40841">
        <ele>1598</ele>
        <time>2021-09-01T14:28:33.000Z</time>
      </trkpt>
      <trkpt lat="44.42027" lon="6.40841">
        <ele>1598</ele>
        <time>2021-09-01T14:28:34.000Z</time>
      </trkpt>
      <trkpt lat="44.42027" lon="6.4084">
        <ele>1598</ele>
        <time>2021-09-01T14:28:35.000Z</time>
      </trkpt>
      <trkpt lat="44.42027" lon="6.4084">
        <ele>1598</ele>
        <time>2021-09-01T14:28:36.000Z</time>
      </trkpt>
      <trkpt lat="44.42028" lon="6.4084">
        <ele>1598</ele>
        <time>2021-09-01T14:28:37.000Z</time>
      </trkpt>
      <trkpt lat="44.42029" lon="6.40839">
        <ele>1599</ele>
        <time>2021-09-01T14:28:38.000Z</time>
      </trkpt>
      <trkpt lat="44.4203" lon="6.40839">
        <ele>1600</ele>
        <time>2021-09-01T14:28:39.000Z</time>
      </trkpt>
      <trkpt lat="44.4203" lon="6.40838">
        <ele>1601</ele>
        <time>2021-09-01T14:28:40.000Z</time>
      </trkpt>
      <trkpt lat="44.42031" lon="6.40837">
        <ele>1601</ele>
        <time>2021-09-01T14:28:41.000Z</time>
      </trkpt>
      <trkpt lat="44.42031" lon="6.40837">
        <ele>1602</ele>
        <time>2021-09-01T14:28:42.000Z</time>
      </trkpt>
      <trkpt lat="44.42031" lon="6.40837">
        <ele>1602</ele>
        <time>2021-09-01T14:28:43.000Z</time>
      </trkpt>
      <trkpt lat="44.42031" lon="6.40836">
        <ele>1601</ele>
        <time>2021-09-01T14:28:44.000Z</time>
      </trkpt>
      <trkpt lat="44.42031" lon="6.40836">
        <ele>1601</ele>
        <time>2021-09-01T14:28:45.000Z</time>
      </trkpt>
      <trkpt lat="44.42031" lon="6.40835">
        <ele>1601</ele>
        <time>2021-09-01T14:28:46.000Z</time>
      </trkpt>
      <trkpt lat="44.42031" lon="6.40834">
        <ele>1602</ele>
        <time>2021-09-01T14:28:47.000Z</time>
      </trkpt>
      <trkpt lat="44.42032" lon="6.40833">
        <ele>1602</ele>
        <time>2021-09-01T14:28:48.000Z</time>
      </trkpt>
      <trkpt lat="44.42031" lon="6.40832">
        <ele>1602</ele>
        <time>2021-09-01T14:28:49.000Z</time>
      </trkpt>
      <trkpt lat="44.42031" lon="6.40831">
        <ele>1602</ele>
        <time>2021-09-01T14:28:50.000Z</time>
      </trkpt>
      <trkpt lat="44.42031" lon="6.4083">
        <ele>1603</ele>
        <time>2021-09-01T14:28:51.000Z</time>
      </trkpt>
      <trkpt lat="44.4203" lon="6.40828">
        <ele>1603</ele>
        <time>2021-09-01T14:28:52.000Z</time>
      </trkpt>
      <trkpt lat="44.42031" lon="6.40828">
        <ele>1602</ele>
        <time>2021-09-01T14:28:53.000Z</time>
      </trkpt>
      <trkpt lat="44.42031" lon="6.40827">
        <ele>1601</ele>
        <time>2021-09-01T14:28:54.000Z</time>
      </trkpt>
      <trkpt lat="44.42031" lon="6.40825">
        <ele>1600</ele>
        <time>2021-09-01T14:28:55.000Z</time>
      </trkpt>
      <trkpt lat="44.4203" lon="6.40824">
        <ele>1599</ele>
        <time>2021-09-01T14:28:56.000Z</time>
      </trkpt>
      <trkpt lat="44.4203" lon="6.40823">
        <ele>1598</ele>
        <time>2021-09-01T14:28:57.000Z</time>
      </trkpt>
      <trkpt lat="44.4203" lon="6.40823">
        <ele>1597</ele>
        <time>2021-09-01T14:28:58.000Z</time>
      </trkpt>
      <trkpt lat="44.4203" lon="6.40822">
        <ele>1597</ele>
        <time>2021-09-01T14:28:59.000Z</time>
      </trkpt>
      <trkpt lat="44.4203" lon="6.40821">
        <ele>1595</ele>
        <time>2021-09-01T14:29:00.000Z</time>
      </trkpt>
      <trkpt lat="44.42029" lon="6.40821">
        <ele>1594</ele>
        <time>2021-09-01T14:29:01.000Z</time>
      </trkpt>
      <trkpt lat="44.42028" lon="6.4082">
        <ele>1594</ele>
        <time>2021-09-01T14:29:02.000Z</time>
      </trkpt>
      <trkpt lat="44.42028" lon="6.40819">
        <ele>1593</ele>
        <time>2021-09-01T14:29:03.000Z</time>
      </trkpt>
      <trkpt lat="44.42028" lon="6.40819">
        <ele>1593</ele>
        <time>2021-09-01T14:29:04.000Z</time>
      </trkpt>
      <trkpt lat="44.42028" lon="6.40819">
        <ele>1592</ele>
        <time>2021-09-01T14:29:05.000Z</time>
      </trkpt>
      <trkpt lat="44.42027" lon="6.40819">
        <ele>1592</ele>
        <time>2021-09-01T14:29:06.000Z</time>
      </trkpt>
      <trkpt lat="44.42027" lon="6.40819">
        <ele>1592</ele>
        <time>2021-09-01T14:29:07.000Z</time>
      </trkpt>
      <trkpt lat="44.42027" lon="6.40819">
        <ele>1592</ele>
        <time>2021-09-01T14:29:08.000Z</time>
      </trkpt>
      <trkpt lat="44.42027" lon="6.40818">
        <ele>1592</ele>
        <time>2021-09-01T14:29:09.000Z</time>
      </trkpt>
      <trkpt lat="44.42027" lon="6.40818">
        <ele>1592</ele>
        <time>2021-09-01T14:29:10.000Z</time>
      </trkpt>
      <trkpt lat="44.42027" lon="6.40818">
        <ele>1592</ele>
        <time>2021-09-01T14:29:11.000Z</time>
      </trkpt>
      <trkpt lat="44.42028" lon="6.40817">
        <ele>1592</ele>
        <time>2021-09-01T14:29:12.000Z</time>
      </trkpt>
      <trkpt lat="44.42028" lon="6.40817">
        <ele>1592</ele>
        <time>2021-09-01T14:29:13.000Z</time>
      </trkpt>
      <trkpt lat="44.42028" lon="6.40814">
        <ele>1590</ele>
        <time>2021-09-01T14:29:14.000Z</time>
      </trkpt>
      <trkpt lat="44.42028" lon="6.4081">
        <ele>1590</ele>
        <time>2021-09-01T14:29:15.000Z</time>
      </trkpt>
      <trkpt lat="44.42027" lon="6.40807">
        <ele>1589</ele>
        <time>2021-09-01T14:29:16.000Z</time>
      </trkpt>
      <trkpt lat="44.42026" lon="6.40803">
        <ele>1588</ele>
        <time>2021-09-01T14:29:17.000Z</time>
      </trkpt>
      <trkpt lat="44.42025" lon="6.40798">
        <ele>1588</ele>
        <time>2021-09-01T14:29:18.000Z</time>
      </trkpt>
      <trkpt lat="44.42025" lon="6.40793">
        <ele>1587</ele>
        <time>2021-09-01T14:29:19.000Z</time>
      </trkpt>
      <trkpt lat="44.42024" lon="6.40789">
        <ele>1586</ele>
        <time>2021-09-01T14:29:20.000Z</time>
      </trkpt>
      <trkpt lat="44.42023" lon="6.40786">
        <ele>1585</ele>
        <time>2021-09-01T14:29:21.000Z</time>
      </trkpt>
      <trkpt lat="44.42022" lon="6.40782">
        <ele>1585</ele>
        <time>2021-09-01T14:29:22.000Z</time>
      </trkpt>
      <trkpt lat="44.4202" lon="6.40778">
        <ele>1585</ele>
        <time>2021-09-01T14:29:23.000Z</time>
      </trkpt>
      <trkpt lat="44.42016" lon="6.40777">
        <ele>1586</ele>
        <time>2021-09-01T14:29:24.000Z</time>
      </trkpt>
      <trkpt lat="44.42013" lon="6.40776">
        <ele>1587</ele>
        <time>2021-09-01T14:29:25.000Z</time>
      </trkpt>
      <trkpt lat="44.42011" lon="6.40774">
        <ele>1587</ele>
        <time>2021-09-01T14:29:26.000Z</time>
      </trkpt>
      <trkpt lat="44.42009" lon="6.40772">
        <ele>1585</ele>
        <time>2021-09-01T14:29:27.000Z</time>
      </trkpt>
      <trkpt lat="44.42007" lon="6.40772">
        <ele>1584</ele>
        <time>2021-09-01T14:29:28.000Z</time>
      </trkpt>
      <trkpt lat="44.42005" lon="6.40771">
        <ele>1584</ele>
        <time>2021-09-01T14:29:29.000Z</time>
      </trkpt>
      <trkpt lat="44.42004" lon="6.40772">
        <ele>1584</ele>
        <time>2021-09-01T14:29:30.000Z</time>
      </trkpt>
      <trkpt lat="44.42002" lon="6.40771">
        <ele>1584</ele>
        <time>2021-09-01T14:29:31.000Z</time>
      </trkpt>
      <trkpt lat="44.42001" lon="6.40769">
        <ele>1583</ele>
        <time>2021-09-01T14:29:32.000Z</time>
      </trkpt>
      <trkpt lat="44.42" lon="6.40767">
        <ele>1583</ele>
        <time>2021-09-01T14:29:33.000Z</time>
      </trkpt>
      <trkpt lat="44.41999" lon="6.40764">
        <ele>1583</ele>
        <time>2021-09-01T14:29:34.000Z</time>
      </trkpt>
      <trkpt lat="44.41998" lon="6.40762">
        <ele>1583</ele>
        <time>2021-09-01T14:29:35.000Z</time>
      </trkpt>
      <trkpt lat="44.41997" lon="6.40759">
        <ele>1584</ele>
        <time>2021-09-01T14:29:36.000Z</time>
      </trkpt>
      <trkpt lat="44.41996" lon="6.40757">
        <ele>1583</ele>
        <time>2021-09-01T14:29:37.000Z</time>
      </trkpt>
      <trkpt lat="44.41996" lon="6.40754">
        <ele>1582</ele>
        <time>2021-09-01T14:29:38.000Z</time>
      </trkpt>
      <trkpt lat="44.41994" lon="6.40754">
        <ele>1580</ele>
        <time>2021-09-01T14:29:39.000Z</time>
      </trkpt>
      <trkpt lat="44.41992" lon="6.40751">
        <ele>1581</ele>
        <time>2021-09-01T14:29:40.000Z</time>
      </trkpt>
      <trkpt lat="44.41991" lon="6.40747">
        <ele>1581</ele>
        <time>2021-09-01T14:29:41.000Z</time>
      </trkpt>
      <trkpt lat="44.4199" lon="6.40742">
        <ele>1581</ele>
        <time>2021-09-01T14:29:42.000Z</time>
      </trkpt>
      <trkpt lat="44.41989" lon="6.40739">
        <ele>1578</ele>
        <time>2021-09-01T14:29:43.000Z</time>
      </trkpt>
      <trkpt lat="44.41987" lon="6.40735">
        <ele>1578</ele>
        <time>2021-09-01T14:29:44.000Z</time>
      </trkpt>
      <trkpt lat="44.4199" lon="6.40734">
        <ele>1579</ele>
        <time>2021-09-01T14:29:45.000Z</time>
      </trkpt>
      <trkpt lat="44.4199" lon="6.40734">
        <ele>1580</ele>
        <time>2021-09-01T14:29:46.000Z</time>
      </trkpt>
      <trkpt lat="44.41989" lon="6.40732">
        <ele>1580</ele>
        <time>2021-09-01T14:29:47.000Z</time>
      </trkpt>
      <trkpt lat="44.41988" lon="6.40732">
        <ele>1581</ele>
        <time>2021-09-01T14:29:48.000Z</time>
      </trkpt>
      <trkpt lat="44.41988" lon="6.40732">
        <ele>1581</ele>
        <time>2021-09-01T14:29:49.000Z</time>
      </trkpt>
      <trkpt lat="44.41988" lon="6.40731">
        <ele>1581</ele>
        <time>2021-09-01T14:29:50.000Z</time>
      </trkpt>
      <trkpt lat="44.41988" lon="6.40731">
        <ele>1581</ele>
        <time>2021-09-01T14:29:51.000Z</time>
      </trkpt>
      <trkpt lat="44.41987" lon="6.40731">
        <ele>1581</ele>
        <time>2021-09-01T14:29:52.000Z</time>
      </trkpt>
      <trkpt lat="44.41987" lon="6.4073">
        <ele>1581</ele>
        <time>2021-09-01T14:29:53.000Z</time>
      </trkpt>
      <trkpt lat="44.41987" lon="6.40729">
        <ele>1583</ele>
        <time>2021-09-01T14:29:54.000Z</time>
      </trkpt>
      <trkpt lat="44.41986" lon="6.4073">
        <ele>1582</ele>
        <time>2021-09-01T14:29:55.000Z</time>
      </trkpt>
      <trkpt lat="44.41986" lon="6.4073">
        <ele>1582</ele>
        <time>2021-09-01T14:29:56.000Z</time>
      </trkpt>
      <trkpt lat="44.41986" lon="6.4073">
        <ele>1582</ele>
        <time>2021-09-01T14:29:57.000Z</time>
      </trkpt>
      <trkpt lat="44.41986" lon="6.4073">
        <ele>1582</ele>
        <time>2021-09-01T14:29:58.000Z</time>
      </trkpt>
      <trkpt lat="44.41986" lon="6.40729">
        <ele>1583</ele>
        <time>2021-09-01T14:29:59.000Z</time>
      </trkpt>
      <trkpt lat="44.41987" lon="6.40729">
        <ele>1585</ele>
        <time>2021-09-01T14:30:00.000Z</time>
      </trkpt>
      <trkpt lat="44.41987" lon="6.40729">
        <ele>1583</ele>
        <time>2021-09-01T14:30:01.000Z</time>
      </trkpt>
      <trkpt lat="44.41987" lon="6.40728">
        <ele>1584</ele>
        <time>2021-09-01T14:30:02.000Z</time>
      </trkpt>
      <trkpt lat="44.41987" lon="6.40727">
        <ele>1584</ele>
        <time>2021-09-01T14:30:03.000Z</time>
      </trkpt>
      <trkpt lat="44.41988" lon="6.40727">
        <ele>1585</ele>
        <time>2021-09-01T14:30:04.000Z</time>
      </trkpt>
      <trkpt lat="44.41987" lon="6.40727">
        <ele>1583</ele>
        <time>2021-09-01T14:30:05.000Z</time>
      </trkpt>
      <trkpt lat="44.41987" lon="6.40726">
        <ele>1583</ele>
        <time>2021-09-01T14:30:06.000Z</time>
      </trkpt>
      <trkpt lat="44.41987" lon="6.40725">
        <ele>1583</ele>
        <time>2021-09-01T14:30:07.000Z</time>
      </trkpt>
      <trkpt lat="44.41987" lon="6.40725">
        <ele>1583</ele>
        <time>2021-09-01T14:30:08.000Z</time>
      </trkpt>
      <trkpt lat="44.41987" lon="6.40725">
        <ele>1582</ele>
        <time>2021-09-01T14:30:09.000Z</time>
      </trkpt>
      <trkpt lat="44.41987" lon="6.40724">
        <ele>1582</ele>
        <time>2021-09-01T14:30:10.000Z</time>
      </trkpt>
      <trkpt lat="44.41987" lon="6.40723">
        <ele>1582</ele>
        <time>2021-09-01T14:30:11.000Z</time>
      </trkpt>
      <trkpt lat="44.41986" lon="6.40722">
        <ele>1582</ele>
        <time>2021-09-01T14:30:12.000Z</time>
      </trkpt>
      <trkpt lat="44.41986" lon="6.40721">
        <ele>1582</ele>
        <time>2021-09-01T14:30:13.000Z</time>
      </trkpt>
      <trkpt lat="44.41987" lon="6.40719">
        <ele>1582</ele>
        <time>2021-09-01T14:30:14.000Z</time>
      </trkpt>
      <trkpt lat="44.41987" lon="6.40719">
        <ele>1582</ele>
        <time>2021-09-01T14:30:15.000Z</time>
      </trkpt>
      <trkpt lat="44.41987" lon="6.40718">
        <ele>1582</ele>
        <time>2021-09-01T14:30:16.000Z</time>
      </trkpt>
      <trkpt lat="44.41988" lon="6.40717">
        <ele>1584</ele>
        <time>2021-09-01T14:30:17.000Z</time>
      </trkpt>
      <trkpt lat="44.41989" lon="6.40715">
        <ele>1584</ele>
        <time>2021-09-01T14:30:18.000Z</time>
      </trkpt>
      <trkpt lat="44.41989" lon="6.40714">
        <ele>1585</ele>
        <time>2021-09-01T14:30:19.000Z</time>
      </trkpt>
      <trkpt lat="44.4199" lon="6.40713">
        <ele>1584</ele>
        <time>2021-09-01T14:30:20.000Z</time>
      </trkpt>
      <trkpt lat="44.4199" lon="6.40712">
        <ele>1584</ele>
        <time>2021-09-01T14:30:21.000Z</time>
      </trkpt>
      <trkpt lat="44.41991" lon="6.40711">
        <ele>1584</ele>
        <time>2021-09-01T14:30:22.000Z</time>
      </trkpt>
      <trkpt lat="44.41991" lon="6.4071">
        <ele>1584</ele>
        <time>2021-09-01T14:30:23.000Z</time>
      </trkpt>
      <trkpt lat="44.41993" lon="6.40709">
        <ele>1585</ele>
        <time>2021-09-01T14:30:24.000Z</time>
      </trkpt>
      <trkpt lat="44.41992" lon="6.40708">
        <ele>1585</ele>
        <time>2021-09-01T14:30:25.000Z</time>
      </trkpt>
      <trkpt lat="44.41993" lon="6.40706">
        <ele>1586</ele>
        <time>2021-09-01T14:30:26.000Z</time>
      </trkpt>
      <trkpt lat="44.41992" lon="6.40705">
        <ele>1586</ele>
        <time>2021-09-01T14:30:27.000Z</time>
      </trkpt>
      <trkpt lat="44.41992" lon="6.40704">
        <ele>1586</ele>
        <time>2021-09-01T14:30:28.000Z</time>
      </trkpt>
      <trkpt lat="44.41993" lon="6.40702">
        <ele>1586</ele>
        <time>2021-09-01T14:30:29.000Z</time>
      </trkpt>
      <trkpt lat="44.41993" lon="6.40701">
        <ele>1587</ele>
        <time>2021-09-01T14:30:30.000Z</time>
      </trkpt>
      <trkpt lat="44.41994" lon="6.40701">
        <ele>1587</ele>
        <time>2021-09-01T14:30:31.000Z</time>
      </trkpt>
      <trkpt lat="44.41994" lon="6.40699">
        <ele>1587</ele>
        <time>2021-09-01T14:30:32.000Z</time>
      </trkpt>
      <trkpt lat="44.41994" lon="6.40698">
        <ele>1587</ele>
        <time>2021-09-01T14:30:33.000Z</time>
      </trkpt>
      <trkpt lat="44.41993" lon="6.40697">
        <ele>1586</ele>
        <time>2021-09-01T14:30:34.000Z</time>
      </trkpt>
      <trkpt lat="44.41993" lon="6.40696">
        <ele>1586</ele>
        <time>2021-09-01T14:30:35.000Z</time>
      </trkpt>
      <trkpt lat="44.41993" lon="6.40695">
        <ele>1586</ele>
        <time>2021-09-01T14:30:36.000Z</time>
      </trkpt>
      <trkpt lat="44.41994" lon="6.40694">
        <ele>1586</ele>
        <time>2021-09-01T14:30:37.000Z</time>
      </trkpt>
      <trkpt lat="44.41994" lon="6.40693">
        <ele>1585</ele>
        <time>2021-09-01T14:30:38.000Z</time>
      </trkpt>
      <trkpt lat="44.41993" lon="6.40693">
        <ele>1584</ele>
        <time>2021-09-01T14:30:39.000Z</time>
      </trkpt>
      <trkpt lat="44.41992" lon="6.40692">
        <ele>1582</ele>
        <time>2021-09-01T14:30:40.000Z</time>
      </trkpt>
      <trkpt lat="44.41992" lon="6.40691">
        <ele>1581</ele>
        <time>2021-09-01T14:30:41.000Z</time>
      </trkpt>
      <trkpt lat="44.41992" lon="6.40691">
        <ele>1581</ele>
        <time>2021-09-01T14:30:42.000Z</time>
      </trkpt>
      <trkpt lat="44.41992" lon="6.4069">
        <ele>1581</ele>
        <time>2021-09-01T14:30:43.000Z</time>
      </trkpt>
      <trkpt lat="44.41991" lon="6.40689">
        <ele>1579</ele>
        <time>2021-09-01T14:30:44.000Z</time>
      </trkpt>
      <trkpt lat="44.41991" lon="6.40688">
        <ele>1579</ele>
        <time>2021-09-01T14:30:45.000Z</time>
      </trkpt>
      <trkpt lat="44.41991" lon="6.40687">
        <ele>1579</ele>
        <time>2021-09-01T14:30:46.000Z</time>
      </trkpt>
      <trkpt lat="44.41991" lon="6.40686">
        <ele>1578</ele>
        <time>2021-09-01T14:30:47.000Z</time>
      </trkpt>
      <trkpt lat="44.41992" lon="6.40686">
        <ele>1578</ele>
        <time>2021-09-01T14:30:48.000Z</time>
      </trkpt>
      <trkpt lat="44.41992" lon="6.40685">
        <ele>1578</ele>
        <time>2021-09-01T14:30:49.000Z</time>
      </trkpt>
      <trkpt lat="44.41992" lon="6.40685">
        <ele>1578</ele>
        <time>2021-09-01T14:30:50.000Z</time>
      </trkpt>
      <trkpt lat="44.41992" lon="6.40684">
        <ele>1577</ele>
        <time>2021-09-01T14:30:51.000Z</time>
      </trkpt>
      <trkpt lat="44.41992" lon="6.40684">
        <ele>1577</ele>
        <time>2021-09-01T14:30:52.000Z</time>
      </trkpt>
      <trkpt lat="44.41991" lon="6.40684">
        <ele>1577</ele>
        <time>2021-09-01T14:30:53.000Z</time>
      </trkpt>
      <trkpt lat="44.41991" lon="6.40683">
        <ele>1575</ele>
        <time>2021-09-01T14:30:54.000Z</time>
      </trkpt>
      <trkpt lat="44.41991" lon="6.40682">
        <ele>1575</ele>
        <time>2021-09-01T14:30:55.000Z</time>
      </trkpt>
      <trkpt lat="44.41991" lon="6.40682">
        <ele>1574</ele>
        <time>2021-09-01T14:30:56.000Z</time>
      </trkpt>
      <trkpt lat="44.41991" lon="6.40682">
        <ele>1574</ele>
        <time>2021-09-01T14:30:57.000Z</time>
      </trkpt>
      <trkpt lat="44.41991" lon="6.40682">
        <ele>1574</ele>
        <time>2021-09-01T14:30:58.000Z</time>
      </trkpt>
      <trkpt lat="44.41991" lon="6.40682">
        <ele>1574</ele>
        <time>2021-09-01T14:30:59.000Z</time>
      </trkpt>
      <trkpt lat="44.41991" lon="6.40681">
        <ele>1573</ele>
        <time>2021-09-01T14:31:00.000Z</time>
      </trkpt>
      <trkpt lat="44.41991" lon="6.40681">
        <ele>1573</ele>
        <time>2021-09-01T14:31:01.000Z</time>
      </trkpt>
      <trkpt lat="44.41991" lon="6.40681">
        <ele>1573</ele>
        <time>2021-09-01T14:31:02.000Z</time>
      </trkpt>
      <trkpt lat="44.41991" lon="6.40679">
        <ele>1573</ele>
        <time>2021-09-01T14:31:03.000Z</time>
      </trkpt>
      <trkpt lat="44.41991" lon="6.40677">
        <ele>1573</ele>
        <time>2021-09-01T14:31:04.000Z</time>
      </trkpt>
      <trkpt lat="44.41991" lon="6.40676">
        <ele>1573</ele>
        <time>2021-09-01T14:31:05.000Z</time>
      </trkpt>
      <trkpt lat="44.41991" lon="6.40675">
        <ele>1573</ele>
        <time>2021-09-01T14:31:06.000Z</time>
      </trkpt>
      <trkpt lat="44.41992" lon="6.40674">
        <ele>1573</ele>
        <time>2021-09-01T14:31:07.000Z</time>
      </trkpt>
      <trkpt lat="44.41995" lon="6.40674">
        <ele>1573</ele>
        <time>2021-09-01T14:31:08.000Z</time>
      </trkpt>
      <trkpt lat="44.41994" lon="6.40673">
        <ele>1572</ele>
        <time>2021-09-01T14:31:09.000Z</time>
      </trkpt>
      <trkpt lat="44.41994" lon="6.40672">
        <ele>1571</ele>
        <time>2021-09-01T14:31:10.000Z</time>
      </trkpt>
      <trkpt lat="44.41994" lon="6.40671">
        <ele>1571</ele>
        <time>2021-09-01T14:31:11.000Z</time>
      </trkpt>
      <trkpt lat="44.41993" lon="6.4067">
        <ele>1570</ele>
        <time>2021-09-01T14:31:12.000Z</time>
      </trkpt>
      <trkpt lat="44.41994" lon="6.4067">
        <ele>1570</ele>
        <time>2021-09-01T14:31:13.000Z</time>
      </trkpt>
      <trkpt lat="44.41994" lon="6.40669">
        <ele>1570</ele>
        <time>2021-09-01T14:31:14.000Z</time>
      </trkpt>
      <trkpt lat="44.41994" lon="6.40667">
        <ele>1569</ele>
        <time>2021-09-01T14:31:15.000Z</time>
      </trkpt>
      <trkpt lat="44.41993" lon="6.40666">
        <ele>1569</ele>
        <time>2021-09-01T14:31:16.000Z</time>
      </trkpt>
      <trkpt lat="44.41994" lon="6.40665">
        <ele>1569</ele>
        <time>2021-09-01T14:31:17.000Z</time>
      </trkpt>
      <trkpt lat="44.41993" lon="6.40663">
        <ele>1568</ele>
        <time>2021-09-01T14:31:18.000Z</time>
      </trkpt>
      <trkpt lat="44.41993" lon="6.40662">
        <ele>1568</ele>
        <time>2021-09-01T14:31:19.000Z</time>
      </trkpt>
      <trkpt lat="44.41993" lon="6.40661">
        <ele>1568</ele>
        <time>2021-09-01T14:31:20.000Z</time>
      </trkpt>
      <trkpt lat="44.41993" lon="6.4066">
        <ele>1568</ele>
        <time>2021-09-01T14:31:21.000Z</time>
      </trkpt>
      <trkpt lat="44.41995" lon="6.4066">
        <ele>1568</ele>
        <time>2021-09-01T14:31:22.000Z</time>
      </trkpt>
      <trkpt lat="44.41994" lon="6.40659">
        <ele>1568</ele>
        <time>2021-09-01T14:31:23.000Z</time>
      </trkpt>
      <trkpt lat="44.41994" lon="6.40659">
        <ele>1568</ele>
        <time>2021-09-01T14:31:24.000Z</time>
      </trkpt>
      <trkpt lat="44.41994" lon="6.40659">
        <ele>1568</ele>
        <time>2021-09-01T14:31:25.000Z</time>
      </trkpt>
      <trkpt lat="44.41993" lon="6.40659">
        <ele>1568</ele>
        <time>2021-09-01T14:31:26.000Z</time>
      </trkpt>
      <trkpt lat="44.41993" lon="6.40658">
        <ele>1567</ele>
        <time>2021-09-01T14:31:27.000Z</time>
      </trkpt>
      <trkpt lat="44.41992" lon="6.40657">
        <ele>1567</ele>
        <time>2021-09-01T14:31:28.000Z</time>
      </trkpt>
      <trkpt lat="44.41992" lon="6.40657">
        <ele>1567</ele>
        <time>2021-09-01T14:31:29.000Z</time>
      </trkpt>
      <trkpt lat="44.41992" lon="6.40658">
        <ele>1566</ele>
        <time>2021-09-01T14:31:30.000Z</time>
      </trkpt>
      <trkpt lat="44.41992" lon="6.40657">
        <ele>1566</ele>
        <time>2021-09-01T14:31:31.000Z</time>
      </trkpt>
      <trkpt lat="44.41992" lon="6.40658">
        <ele>1566</ele>
        <time>2021-09-01T14:31:32.000Z</time>
      </trkpt>
      <trkpt lat="44.41992" lon="6.40657">
        <ele>1566</ele>
        <time>2021-09-01T14:31:33.000Z</time>
      </trkpt>
      <trkpt lat="44.41992" lon="6.40657">
        <ele>1566</ele>
        <time>2021-09-01T14:31:34.000Z</time>
      </trkpt>
      <trkpt lat="44.41993" lon="6.40657">
        <ele>1566</ele>
        <time>2021-09-01T14:31:35.000Z</time>
      </trkpt>
      <trkpt lat="44.41993" lon="6.40657">
        <ele>1566</ele>
        <time>2021-09-01T14:31:36.000Z</time>
      </trkpt>
      <trkpt lat="44.41993" lon="6.40657">
        <ele>1566</ele>
        <time>2021-09-01T14:31:37.000Z</time>
      </trkpt>
      <trkpt lat="44.41993" lon="6.40656">
        <ele>1566</ele>
        <time>2021-09-01T14:31:38.000Z</time>
      </trkpt>
      <trkpt lat="44.41994" lon="6.40655">
        <ele>1566</ele>
        <time>2021-09-01T14:31:39.000Z</time>
      </trkpt>
      <trkpt lat="44.41995" lon="6.40652">
        <ele>1566</ele>
        <time>2021-09-01T14:31:40.000Z</time>
      </trkpt>
      <trkpt lat="44.41994" lon="6.40649">
        <ele>1566</ele>
        <time>2021-09-01T14:31:41.000Z</time>
      </trkpt>
      <trkpt lat="44.41994" lon="6.40644">
        <ele>1566</ele>
        <time>2021-09-01T14:31:42.000Z</time>
      </trkpt>
      <trkpt lat="44.41995" lon="6.40641">
        <ele>1566</ele>
        <time>2021-09-01T14:31:43.000Z</time>
      </trkpt>
      <trkpt lat="44.41995" lon="6.40639">
        <ele>1566</ele>
        <time>2021-09-01T14:31:44.000Z</time>
      </trkpt>
      <trkpt lat="44.41995" lon="6.40636">
        <ele>1565</ele>
        <time>2021-09-01T14:31:45.000Z</time>
      </trkpt>
      <trkpt lat="44.41994" lon="6.40633">
        <ele>1565</ele>
        <time>2021-09-01T14:31:46.000Z</time>
      </trkpt>
      <trkpt lat="44.41993" lon="6.40632">
        <ele>1565</ele>
        <time>2021-09-01T14:31:47.000Z</time>
      </trkpt>
      <trkpt lat="44.41993" lon="6.40629">
        <ele>1565</ele>
        <time>2021-09-01T14:31:48.000Z</time>
      </trkpt>
      <trkpt lat="44.41993" lon="6.40626">
        <ele>1564</ele>
        <time>2021-09-01T14:31:49.000Z</time>
      </trkpt>
      <trkpt lat="44.41993" lon="6.40624">
        <ele>1564</ele>
        <time>2021-09-01T14:31:50.000Z</time>
      </trkpt>
      <trkpt lat="44.41993" lon="6.40619">
        <ele>1564</ele>
        <time>2021-09-01T14:31:51.000Z</time>
      </trkpt>
      <trkpt lat="44.41994" lon="6.40616">
        <ele>1564</ele>
        <time>2021-09-01T14:31:52.000Z</time>
      </trkpt>
      <trkpt lat="44.41995" lon="6.40614">
        <ele>1564</ele>
        <time>2021-09-01T14:31:53.000Z</time>
      </trkpt>
      <trkpt lat="44.41995" lon="6.40612">
        <ele>1563</ele>
        <time>2021-09-01T14:31:54.000Z</time>
      </trkpt>
      <trkpt lat="44.41994" lon="6.40611">
        <ele>1563</ele>
        <time>2021-09-01T14:31:55.000Z</time>
      </trkpt>
      <trkpt lat="44.41995" lon="6.4061">
        <ele>1564</ele>
        <time>2021-09-01T14:31:56.000Z</time>
      </trkpt>
      <trkpt lat="44.41996" lon="6.4061">
        <ele>1564</ele>
        <time>2021-09-01T14:31:57.000Z</time>
      </trkpt>
      <trkpt lat="44.41998" lon="6.40609">
        <ele>1563</ele>
        <time>2021-09-01T14:31:58.000Z</time>
      </trkpt>
      <trkpt lat="44.41997" lon="6.40608">
        <ele>1563</ele>
        <time>2021-09-01T14:31:59.000Z</time>
      </trkpt>
      <trkpt lat="44.41999" lon="6.40608">
        <ele>1563</ele>
        <time>2021-09-01T14:32:00.000Z</time>
      </trkpt>
      <trkpt lat="44.41998" lon="6.40608">
        <ele>1560</ele>
        <time>2021-09-01T14:32:01.000Z</time>
      </trkpt>
      <trkpt lat="44.41998" lon="6.40607">
        <ele>1559</ele>
        <time>2021-09-01T14:32:02.000Z</time>
      </trkpt>
      <trkpt lat="44.41999" lon="6.40607">
        <ele>1559</ele>
        <time>2021-09-01T14:32:03.000Z</time>
      </trkpt>
      <trkpt lat="44.41998" lon="6.40605">
        <ele>1558</ele>
        <time>2021-09-01T14:32:04.000Z</time>
      </trkpt>
      <trkpt lat="44.41998" lon="6.40605">
        <ele>1558</ele>
        <time>2021-09-01T14:32:05.000Z</time>
      </trkpt>
      <trkpt lat="44.41999" lon="6.40605">
        <ele>1558</ele>
        <time>2021-09-01T14:32:06.000Z</time>
      </trkpt>
      <trkpt lat="44.41999" lon="6.40603">
        <ele>1558</ele>
        <time>2021-09-01T14:32:07.000Z</time>
      </trkpt>
      <trkpt lat="44.41998" lon="6.40602">
        <ele>1558</ele>
        <time>2021-09-01T14:32:08.000Z</time>
      </trkpt>
      <trkpt lat="44.41998" lon="6.40601">
        <ele>1558</ele>
        <time>2021-09-01T14:32:09.000Z</time>
      </trkpt>
      <trkpt lat="44.41998" lon="6.406">
        <ele>1557</ele>
        <time>2021-09-01T14:32:10.000Z</time>
      </trkpt>
      <trkpt lat="44.41999" lon="6.406">
        <ele>1558</ele>
        <time>2021-09-01T14:32:11.000Z</time>
      </trkpt>
      <trkpt lat="44.41999" lon="6.40598">
        <ele>1557</ele>
        <time>2021-09-01T14:32:12.000Z</time>
      </trkpt>
      <trkpt lat="44.41999" lon="6.40598">
        <ele>1557</ele>
        <time>2021-09-01T14:32:13.000Z</time>
      </trkpt>
      <trkpt lat="44.42" lon="6.40598">
        <ele>1557</ele>
        <time>2021-09-01T14:32:14.000Z</time>
      </trkpt>
      <trkpt lat="44.41999" lon="6.40597">
        <ele>1557</ele>
        <time>2021-09-01T14:32:15.000Z</time>
      </trkpt>
      <trkpt lat="44.41999" lon="6.40596">
        <ele>1556</ele>
        <time>2021-09-01T14:32:16.000Z</time>
      </trkpt>
      <trkpt lat="44.41998" lon="6.40595">
        <ele>1557</ele>
        <time>2021-09-01T14:32:17.000Z</time>
      </trkpt>
      <trkpt lat="44.41998" lon="6.40594">
        <ele>1556</ele>
        <time>2021-09-01T14:32:18.000Z</time>
      </trkpt>
      <trkpt lat="44.41999" lon="6.40593">
        <ele>1556</ele>
        <time>2021-09-01T14:32:19.000Z</time>
      </trkpt>
      <trkpt lat="44.42" lon="6.40591">
        <ele>1557</ele>
        <time>2021-09-01T14:32:20.000Z</time>
      </trkpt>
      <trkpt lat="44.42001" lon="6.4059">
        <ele>1558</ele>
        <time>2021-09-01T14:32:21.000Z</time>
      </trkpt>
      <trkpt lat="44.42001" lon="6.4059">
        <ele>1558</ele>
        <time>2021-09-01T14:32:22.000Z</time>
      </trkpt>
      <trkpt lat="44.42001" lon="6.40589">
        <ele>1558</ele>
        <time>2021-09-01T14:32:23.000Z</time>
      </trkpt>
      <trkpt lat="44.41999" lon="6.40587">
        <ele>1557</ele>
        <time>2021-09-01T14:32:24.000Z</time>
      </trkpt>
      <trkpt lat="44.41999" lon="6.40586">
        <ele>1558</ele>
        <time>2021-09-01T14:32:25.000Z</time>
      </trkpt>
      <trkpt lat="44.41998" lon="6.40585">
        <ele>1557</ele>
        <time>2021-09-01T14:32:26.000Z</time>
      </trkpt>
      <trkpt lat="44.41997" lon="6.40584">
        <ele>1556</ele>
        <time>2021-09-01T14:32:27.000Z</time>
      </trkpt>
      <trkpt lat="44.41997" lon="6.40582">
        <ele>1556</ele>
        <time>2021-09-01T14:32:28.000Z</time>
      </trkpt>
      <trkpt lat="44.41997" lon="6.40582">
        <ele>1556</ele>
        <time>2021-09-01T14:32:29.000Z</time>
      </trkpt>
      <trkpt lat="44.41997" lon="6.40581">
        <ele>1556</ele>
        <time>2021-09-01T14:32:30.000Z</time>
      </trkpt>
      <trkpt lat="44.41994" lon="6.40578">
        <ele>1553</ele>
        <time>2021-09-01T14:32:31.000Z</time>
      </trkpt>
      <trkpt lat="44.41994" lon="6.40577">
        <ele>1553</ele>
        <time>2021-09-01T14:32:32.000Z</time>
      </trkpt>
      <trkpt lat="44.41993" lon="6.40576">
        <ele>1552</ele>
        <time>2021-09-01T14:32:33.000Z</time>
      </trkpt>
      <trkpt lat="44.41993" lon="6.40575">
        <ele>1552</ele>
        <time>2021-09-01T14:32:34.000Z</time>
      </trkpt>
      <trkpt lat="44.41993" lon="6.40574">
        <ele>1552</ele>
        <time>2021-09-01T14:32:35.000Z</time>
      </trkpt>
      <trkpt lat="44.41992" lon="6.40573">
        <ele>1552</ele>
        <time>2021-09-01T14:32:36.000Z</time>
      </trkpt>
      <trkpt lat="44.41991" lon="6.40571">
        <ele>1550</ele>
        <time>2021-09-01T14:32:37.000Z</time>
      </trkpt>
      <trkpt lat="44.41991" lon="6.4057">
        <ele>1550</ele>
        <time>2021-09-01T14:32:38.000Z</time>
      </trkpt>
      <trkpt lat="44.41992" lon="6.4057">
        <ele>1549</ele>
        <time>2021-09-01T14:32:39.000Z</time>
      </trkpt>
      <trkpt lat="44.41991" lon="6.40569">
        <ele>1549</ele>
        <time>2021-09-01T14:32:40.000Z</time>
      </trkpt>
      <trkpt lat="44.41991" lon="6.40568">
        <ele>1548</ele>
        <time>2021-09-01T14:32:41.000Z</time>
      </trkpt>
      <trkpt lat="44.4199" lon="6.40567">
        <ele>1547</ele>
        <time>2021-09-01T14:32:42.000Z</time>
      </trkpt>
      <trkpt lat="44.41989" lon="6.40565">
        <ele>1546</ele>
        <time>2021-09-01T14:32:43.000Z</time>
      </trkpt>
      <trkpt lat="44.41989" lon="6.40565">
        <ele>1546</ele>
        <time>2021-09-01T14:32:44.000Z</time>
      </trkpt>
      <trkpt lat="44.41989" lon="6.40564">
        <ele>1546</ele>
        <time>2021-09-01T14:32:45.000Z</time>
      </trkpt>
      <trkpt lat="44.41988" lon="6.40562">
        <ele>1545</ele>
        <time>2021-09-01T14:32:46.000Z</time>
      </trkpt>
      <trkpt lat="44.41988" lon="6.40561">
        <ele>1546</ele>
        <time>2021-09-01T14:32:47.000Z</time>
      </trkpt>
      <trkpt lat="44.41989" lon="6.4056">
        <ele>1546</ele>
        <time>2021-09-01T14:32:48.000Z</time>
      </trkpt>
      <trkpt lat="44.41989" lon="6.4056">
        <ele>1546</ele>
        <time>2021-09-01T14:32:49.000Z</time>
      </trkpt>
      <trkpt lat="44.41989" lon="6.40559">
        <ele>1547</ele>
        <time>2021-09-01T14:32:50.000Z</time>
      </trkpt>
      <trkpt lat="44.41989" lon="6.40558">
        <ele>1547</ele>
        <time>2021-09-01T14:32:51.000Z</time>
      </trkpt>
      <trkpt lat="44.41991" lon="6.40559">
        <ele>1548</ele>
        <time>2021-09-01T14:32:52.000Z</time>
      </trkpt>
      <trkpt lat="44.4199" lon="6.40557">
        <ele>1548</ele>
        <time>2021-09-01T14:32:53.000Z</time>
      </trkpt>
      <trkpt lat="44.4199" lon="6.40556">
        <ele>1548</ele>
        <time>2021-09-01T14:32:54.000Z</time>
      </trkpt>
      <trkpt lat="44.4199" lon="6.40555">
        <ele>1548</ele>
        <time>2021-09-01T14:32:55.000Z</time>
      </trkpt>
      <trkpt lat="44.4199" lon="6.40555">
        <ele>1549</ele>
        <time>2021-09-01T14:32:56.000Z</time>
      </trkpt>
      <trkpt lat="44.4199" lon="6.40553">
        <ele>1548</ele>
        <time>2021-09-01T14:32:57.000Z</time>
      </trkpt>
      <trkpt lat="44.41989" lon="6.40552">
        <ele>1547</ele>
        <time>2021-09-01T14:32:58.000Z</time>
      </trkpt>
      <trkpt lat="44.41989" lon="6.4055">
        <ele>1547</ele>
        <time>2021-09-01T14:32:59.000Z</time>
      </trkpt>
      <trkpt lat="44.41989" lon="6.40549">
        <ele>1546</ele>
        <time>2021-09-01T14:33:00.000Z</time>
      </trkpt>
      <trkpt lat="44.41989" lon="6.40548">
        <ele>1548</ele>
        <time>2021-09-01T14:33:01.000Z</time>
      </trkpt>
      <trkpt lat="44.4199" lon="6.40547">
        <ele>1549</ele>
        <time>2021-09-01T14:33:02.000Z</time>
      </trkpt>
      <trkpt lat="44.41991" lon="6.40546">
        <ele>1551</ele>
        <time>2021-09-01T14:33:03.000Z</time>
      </trkpt>
      <trkpt lat="44.41993" lon="6.40546">
        <ele>1552</ele>
        <time>2021-09-01T14:33:04.000Z</time>
      </trkpt>
      <trkpt lat="44.41992" lon="6.40546">
        <ele>1550</ele>
        <time>2021-09-01T14:33:05.000Z</time>
      </trkpt>
      <trkpt lat="44.41993" lon="6.40546">
        <ele>1550</ele>
        <time>2021-09-01T14:33:06.000Z</time>
      </trkpt>
      <trkpt lat="44.41994" lon="6.40545">
        <ele>1551</ele>
        <time>2021-09-01T14:33:07.000Z</time>
      </trkpt>
      <trkpt lat="44.41994" lon="6.40545">
        <ele>1552</ele>
        <time>2021-09-01T14:33:08.000Z</time>
      </trkpt>
      <trkpt lat="44.41994" lon="6.40544">
        <ele>1552</ele>
        <time>2021-09-01T14:33:09.000Z</time>
      </trkpt>
      <trkpt lat="44.41993" lon="6.40544">
        <ele>1552</ele>
        <time>2021-09-01T14:33:10.000Z</time>
      </trkpt>
      <trkpt lat="44.41993" lon="6.40543">
        <ele>1552</ele>
        <time>2021-09-01T14:33:11.000Z</time>
      </trkpt>
      <trkpt lat="44.41993" lon="6.40543">
        <ele>1553</ele>
        <time>2021-09-01T14:33:12.000Z</time>
      </trkpt>
      <trkpt lat="44.41993" lon="6.40543">
        <ele>1553</ele>
        <time>2021-09-01T14:33:13.000Z</time>
      </trkpt>
      <trkpt lat="44.41993" lon="6.40543">
        <ele>1552</ele>
        <time>2021-09-01T14:33:14.000Z</time>
      </trkpt>
      <trkpt lat="44.41992" lon="6.40542">
        <ele>1551</ele>
        <time>2021-09-01T14:33:15.000Z</time>
      </trkpt>
      <trkpt lat="44.4199" lon="6.40541">
        <ele>1550</ele>
        <time>2021-09-01T14:33:16.000Z</time>
      </trkpt>
      <trkpt lat="44.4199" lon="6.4054">
        <ele>1550</ele>
        <time>2021-09-01T14:33:17.000Z</time>
      </trkpt>
      <trkpt lat="44.41989" lon="6.40539">
        <ele>1551</ele>
        <time>2021-09-01T14:33:18.000Z</time>
      </trkpt>
      <trkpt lat="44.41989" lon="6.40539">
        <ele>1551</ele>
        <time>2021-09-01T14:33:19.000Z</time>
      </trkpt>
      <trkpt lat="44.41988" lon="6.40538">
        <ele>1550</ele>
        <time>2021-09-01T14:33:20.000Z</time>
      </trkpt>
      <trkpt lat="44.41987" lon="6.40538">
        <ele>1549</ele>
        <time>2021-09-01T14:33:21.000Z</time>
      </trkpt>
      <trkpt lat="44.41986" lon="6.40538">
        <ele>1549</ele>
        <time>2021-09-01T14:33:22.000Z</time>
      </trkpt>
      <trkpt lat="44.41985" lon="6.40537">
        <ele>1548</ele>
        <time>2021-09-01T14:33:23.000Z</time>
      </trkpt>
      <trkpt lat="44.41985" lon="6.40537">
        <ele>1547</ele>
        <time>2021-09-01T14:33:24.000Z</time>
      </trkpt>
      <trkpt lat="44.41985" lon="6.40538">
        <ele>1547</ele>
        <time>2021-09-01T14:33:25.000Z</time>
      </trkpt>
      <trkpt lat="44.41985" lon="6.40537">
        <ele>1547</ele>
        <time>2021-09-01T14:33:26.000Z</time>
      </trkpt>
      <trkpt lat="44.41985" lon="6.40538">
        <ele>1548</ele>
        <time>2021-09-01T14:33:27.000Z</time>
      </trkpt>
      <trkpt lat="44.41985" lon="6.40538">
        <ele>1548</ele>
        <time>2021-09-01T14:33:28.000Z</time>
      </trkpt>
      <trkpt lat="44.41984" lon="6.40537">
        <ele>1547</ele>
        <time>2021-09-01T14:33:29.000Z</time>
      </trkpt>
      <trkpt lat="44.41983" lon="6.40538">
        <ele>1546</ele>
        <time>2021-09-01T14:33:30.000Z</time>
      </trkpt>
      <trkpt lat="44.41982" lon="6.40536">
        <ele>1546</ele>
        <time>2021-09-01T14:33:31.000Z</time>
      </trkpt>
      <trkpt lat="44.41982" lon="6.40535">
        <ele>1546</ele>
        <time>2021-09-01T14:33:32.000Z</time>
      </trkpt>
      <trkpt lat="44.41983" lon="6.40535">
        <ele>1546</ele>
        <time>2021-09-01T14:33:33.000Z</time>
      </trkpt>
      <trkpt lat="44.41983" lon="6.40535">
        <ele>1546</ele>
        <time>2021-09-01T14:33:34.000Z</time>
      </trkpt>
      <trkpt lat="44.41983" lon="6.40535">
        <ele>1546</ele>
        <time>2021-09-01T14:33:35.000Z</time>
      </trkpt>
      <trkpt lat="44.41983" lon="6.40535">
        <ele>1546</ele>
        <time>2021-09-01T14:33:36.000Z</time>
      </trkpt>
      <trkpt lat="44.41984" lon="6.40534">
        <ele>1548</ele>
        <time>2021-09-01T14:33:37.000Z</time>
      </trkpt>
      <trkpt lat="44.41985" lon="6.40533">
        <ele>1549</ele>
        <time>2021-09-01T14:33:38.000Z</time>
      </trkpt>
      <trkpt lat="44.41986" lon="6.40532">
        <ele>1549</ele>
        <time>2021-09-01T14:33:39.000Z</time>
      </trkpt>
      <trkpt lat="44.41987" lon="6.40531">
        <ele>1550</ele>
        <time>2021-09-01T14:33:40.000Z</time>
      </trkpt>
      <trkpt lat="44.41986" lon="6.40531">
        <ele>1551</ele>
        <time>2021-09-01T14:33:41.000Z</time>
      </trkpt>
      <trkpt lat="44.41986" lon="6.4053">
        <ele>1551</ele>
        <time>2021-09-01T14:33:42.000Z</time>
      </trkpt>
      <trkpt lat="44.41985" lon="6.40529">
        <ele>1551</ele>
        <time>2021-09-01T14:33:43.000Z</time>
      </trkpt>
      <trkpt lat="44.41984" lon="6.40527">
        <ele>1551</ele>
        <time>2021-09-01T14:33:44.000Z</time>
      </trkpt>
      <trkpt lat="44.41983" lon="6.40525">
        <ele>1552</ele>
        <time>2021-09-01T14:33:45.000Z</time>
      </trkpt>
      <trkpt lat="44.41983" lon="6.40525">
        <ele>1552</ele>
        <time>2021-09-01T14:33:46.000Z</time>
      </trkpt>
      <trkpt lat="44.41983" lon="6.40525">
        <ele>1552</ele>
        <time>2021-09-01T14:33:47.000Z</time>
      </trkpt>
      <trkpt lat="44.41983" lon="6.40524">
        <ele>1552</ele>
        <time>2021-09-01T14:33:48.000Z</time>
      </trkpt>
      <trkpt lat="44.41983" lon="6.40523">
        <ele>1552</ele>
        <time>2021-09-01T14:33:49.000Z</time>
      </trkpt>
      <trkpt lat="44.41983" lon="6.40523">
        <ele>1552</ele>
        <time>2021-09-01T14:33:50.000Z</time>
      </trkpt>
      <trkpt lat="44.41982" lon="6.40523">
        <ele>1552</ele>
        <time>2021-09-01T14:33:51.000Z</time>
      </trkpt>
      <trkpt lat="44.41981" lon="6.40522">
        <ele>1552</ele>
        <time>2021-09-01T14:33:52.000Z</time>
      </trkpt>
      <trkpt lat="44.4198" lon="6.40523">
        <ele>1552</ele>
        <time>2021-09-01T14:33:53.000Z</time>
      </trkpt>
      <trkpt lat="44.4198" lon="6.40524">
        <ele>1552</ele>
        <time>2021-09-01T14:33:54.000Z</time>
      </trkpt>
      <trkpt lat="44.41979" lon="6.40524">
        <ele>1552</ele>
        <time>2021-09-01T14:33:55.000Z</time>
      </trkpt>
      <trkpt lat="44.41979" lon="6.40524">
        <ele>1552</ele>
        <time>2021-09-01T14:33:56.000Z</time>
      </trkpt>
      <trkpt lat="44.41979" lon="6.40523">
        <ele>1551</ele>
        <time>2021-09-01T14:33:57.000Z</time>
      </trkpt>
      <trkpt lat="44.41979" lon="6.40522">
        <ele>1551</ele>
        <time>2021-09-01T14:33:58.000Z</time>
      </trkpt>
      <trkpt lat="44.41979" lon="6.40521">
        <ele>1552</ele>
        <time>2021-09-01T14:33:59.000Z</time>
      </trkpt>
      <trkpt lat="44.4198" lon="6.4052">
        <ele>1552</ele>
        <time>2021-09-01T14:34:00.000Z</time>
      </trkpt>
      <trkpt lat="44.41979" lon="6.4052">
        <ele>1552</ele>
        <time>2021-09-01T14:34:01.000Z</time>
      </trkpt>
      <trkpt lat="44.4198" lon="6.4052">
        <ele>1552</ele>
        <time>2021-09-01T14:34:02.000Z</time>
      </trkpt>
      <trkpt lat="44.41979" lon="6.40519">
        <ele>1553</ele>
        <time>2021-09-01T14:34:03.000Z</time>
      </trkpt>
      <trkpt lat="44.41979" lon="6.40518">
        <ele>1553</ele>
        <time>2021-09-01T14:34:04.000Z</time>
      </trkpt>
      <trkpt lat="44.41978" lon="6.40517">
        <ele>1553</ele>
        <time>2021-09-01T14:34:05.000Z</time>
      </trkpt>
      <trkpt lat="44.41978" lon="6.40516">
        <ele>1553</ele>
        <time>2021-09-01T14:34:06.000Z</time>
      </trkpt>
      <trkpt lat="44.41978" lon="6.40515">
        <ele>1554</ele>
        <time>2021-09-01T14:34:07.000Z</time>
      </trkpt>
      <trkpt lat="44.41977" lon="6.40514">
        <ele>1554</ele>
        <time>2021-09-01T14:34:08.000Z</time>
      </trkpt>
      <trkpt lat="44.41977" lon="6.40513">
        <ele>1554</ele>
        <time>2021-09-01T14:34:09.000Z</time>
      </trkpt>
      <trkpt lat="44.41977" lon="6.40513">
        <ele>1554</ele>
        <time>2021-09-01T14:34:10.000Z</time>
      </trkpt>
      <trkpt lat="44.41977" lon="6.40513">
        <ele>1553</ele>
        <time>2021-09-01T14:34:11.000Z</time>
      </trkpt>
      <trkpt lat="44.41976" lon="6.40512">
        <ele>1553</ele>
        <time>2021-09-01T14:34:12.000Z</time>
      </trkpt>
      <trkpt lat="44.41976" lon="6.40512">
        <ele>1553</ele>
        <time>2021-09-01T14:34:13.000Z</time>
      </trkpt>
      <trkpt lat="44.41976" lon="6.40512">
        <ele>1553</ele>
        <time>2021-09-01T14:34:14.000Z</time>
      </trkpt>
      <trkpt lat="44.41976" lon="6.40512">
        <ele>1553</ele>
        <time>2021-09-01T14:34:15.000Z</time>
      </trkpt>
      <trkpt lat="44.41976" lon="6.40512">
        <ele>1553</ele>
        <time>2021-09-01T14:34:16.000Z</time>
      </trkpt>
      <trkpt lat="44.41976" lon="6.40511">
        <ele>1553</ele>
        <time>2021-09-01T14:34:17.000Z</time>
      </trkpt>
      <trkpt lat="44.41976" lon="6.40511">
        <ele>1553</ele>
        <time>2021-09-01T14:34:18.000Z</time>
      </trkpt>
      <trkpt lat="44.41975" lon="6.40511">
        <ele>1552</ele>
        <time>2021-09-01T14:34:19.000Z</time>
      </trkpt>
      <trkpt lat="44.41974" lon="6.4051">
        <ele>1552</ele>
        <time>2021-09-01T14:34:20.000Z</time>
      </trkpt>
      <trkpt lat="44.41974" lon="6.4051">
        <ele>1552</ele>
        <time>2021-09-01T14:34:21.000Z</time>
      </trkpt>
      <trkpt lat="44.41974" lon="6.4051">
        <ele>1552</ele>
        <time>2021-09-01T14:34:22.000Z</time>
      </trkpt>
      <trkpt lat="44.41974" lon="6.4051">
        <ele>1552</ele>
        <time>2021-09-01T14:34:23.000Z</time>
      </trkpt>
      <trkpt lat="44.41973" lon="6.4051">
        <ele>1552</ele>
        <time>2021-09-01T14:34:24.000Z</time>
      </trkpt>
      <trkpt lat="44.41973" lon="6.4051">
        <ele>1552</ele>
        <time>2021-09-01T14:34:25.000Z</time>
      </trkpt>
      <trkpt lat="44.41973" lon="6.4051">
        <ele>1552</ele>
        <time>2021-09-01T14:34:26.000Z</time>
      </trkpt>
      <trkpt lat="44.41973" lon="6.40508">
        <ele>1552</ele>
        <time>2021-09-01T14:34:27.000Z</time>
      </trkpt>
      <trkpt lat="44.41973" lon="6.40508">
        <ele>1552</ele>
        <time>2021-09-01T14:34:28.000Z</time>
      </trkpt>
      <trkpt lat="44.41972" lon="6.40507">
        <ele>1552</ele>
        <time>2021-09-01T14:34:29.000Z</time>
      </trkpt>
      <trkpt lat="44.41972" lon="6.40506">
        <ele>1552</ele>
        <time>2021-09-01T14:34:30.000Z</time>
      </trkpt>
      <trkpt lat="44.41971" lon="6.40505">
        <ele>1552</ele>
        <time>2021-09-01T14:34:31.000Z</time>
      </trkpt>
      <trkpt lat="44.4197" lon="6.40505">
        <ele>1552</ele>
        <time>2021-09-01T14:34:32.000Z</time>
      </trkpt>
      <trkpt lat="44.4197" lon="6.40504">
        <ele>1552</ele>
        <time>2021-09-01T14:34:33.000Z</time>
      </trkpt>
      <trkpt lat="44.4197" lon="6.40504">
        <ele>1552</ele>
        <time>2021-09-01T14:34:34.000Z</time>
      </trkpt>
      <trkpt lat="44.41969" lon="6.40504">
        <ele>1552</ele>
        <time>2021-09-01T14:34:35.000Z</time>
      </trkpt>
      <trkpt lat="44.41969" lon="6.40504">
        <ele>1552</ele>
        <time>2021-09-01T14:34:36.000Z</time>
      </trkpt>
      <trkpt lat="44.41968" lon="6.40503">
        <ele>1552</ele>
        <time>2021-09-01T14:34:37.000Z</time>
      </trkpt>
      <trkpt lat="44.41968" lon="6.40503">
        <ele>1552</ele>
        <time>2021-09-01T14:34:38.000Z</time>
      </trkpt>
      <trkpt lat="44.41967" lon="6.40502">
        <ele>1552</ele>
        <time>2021-09-01T14:34:39.000Z</time>
      </trkpt>
      <trkpt lat="44.41966" lon="6.40501">
        <ele>1552</ele>
        <time>2021-09-01T14:34:40.000Z</time>
      </trkpt>
      <trkpt lat="44.41966" lon="6.40499">
        <ele>1552</ele>
        <time>2021-09-01T14:34:41.000Z</time>
      </trkpt>
      <trkpt lat="44.41964" lon="6.40498">
        <ele>1552</ele>
        <time>2021-09-01T14:34:42.000Z</time>
      </trkpt>
      <trkpt lat="44.41964" lon="6.40497">
        <ele>1552</ele>
        <time>2021-09-01T14:34:43.000Z</time>
      </trkpt>
      <trkpt lat="44.41964" lon="6.40496">
        <ele>1551</ele>
        <time>2021-09-01T14:34:44.000Z</time>
      </trkpt>
      <trkpt lat="44.41963" lon="6.40495">
        <ele>1551</ele>
        <time>2021-09-01T14:34:45.000Z</time>
      </trkpt>
      <trkpt lat="44.41961" lon="6.40496">
        <ele>1551</ele>
        <time>2021-09-01T14:34:46.000Z</time>
      </trkpt>
      <trkpt lat="44.41961" lon="6.40495">
        <ele>1551</ele>
        <time>2021-09-01T14:34:47.000Z</time>
      </trkpt>
      <trkpt lat="44.41961" lon="6.40493">
        <ele>1551</ele>
        <time>2021-09-01T14:34:48.000Z</time>
      </trkpt>
      <trkpt lat="44.4196" lon="6.40492">
        <ele>1551</ele>
        <time>2021-09-01T14:34:49.000Z</time>
      </trkpt>
      <trkpt lat="44.4196" lon="6.40492">
        <ele>1551</ele>
        <time>2021-09-01T14:34:50.000Z</time>
      </trkpt>
      <trkpt lat="44.4196" lon="6.40493">
        <ele>1551</ele>
        <time>2021-09-01T14:34:51.000Z</time>
      </trkpt>
      <trkpt lat="44.4196" lon="6.40492">
        <ele>1551</ele>
        <time>2021-09-01T14:34:52.000Z</time>
      </trkpt>
      <trkpt lat="44.41959" lon="6.40492">
        <ele>1551</ele>
        <time>2021-09-01T14:34:53.000Z</time>
      </trkpt>
      <trkpt lat="44.41959" lon="6.40493">
        <ele>1551</ele>
        <time>2021-09-01T14:34:54.000Z</time>
      </trkpt>
      <trkpt lat="44.41959" lon="6.40493">
        <ele>1551</ele>
        <time>2021-09-01T14:34:55.000Z</time>
      </trkpt>
      <trkpt lat="44.41959" lon="6.40492">
        <ele>1551</ele>
        <time>2021-09-01T14:34:56.000Z</time>
      </trkpt>
      <trkpt lat="44.41959" lon="6.40492">
        <ele>1551</ele>
        <time>2021-09-01T14:34:57.000Z</time>
      </trkpt>
      <trkpt lat="44.41958" lon="6.40492">
        <ele>1551</ele>
        <time>2021-09-01T14:34:58.000Z</time>
      </trkpt>
      <trkpt lat="44.41957" lon="6.40491">
        <ele>1551</ele>
        <time>2021-09-01T14:34:59.000Z</time>
      </trkpt>
      <trkpt lat="44.41957" lon="6.4049">
        <ele>1551</ele>
        <time>2021-09-01T14:35:00.000Z</time>
      </trkpt>
      <trkpt lat="44.41957" lon="6.4049">
        <ele>1551</ele>
        <time>2021-09-01T14:35:01.000Z</time>
      </trkpt>
      <trkpt lat="44.41956" lon="6.4049">
        <ele>1550</ele>
        <time>2021-09-01T14:35:02.000Z</time>
      </trkpt>
      <trkpt lat="44.41957" lon="6.4049">
        <ele>1550</ele>
        <time>2021-09-01T14:35:03.000Z</time>
      </trkpt>
      <trkpt lat="44.41957" lon="6.40488">
        <ele>1551</ele>
        <time>2021-09-01T14:35:04.000Z</time>
      </trkpt>
      <trkpt lat="44.41956" lon="6.40487">
        <ele>1551</ele>
        <time>2021-09-01T14:35:05.000Z</time>
      </trkpt>
      <trkpt lat="44.41956" lon="6.40487">
        <ele>1551</ele>
        <time>2021-09-01T14:35:06.000Z</time>
      </trkpt>
      <trkpt lat="44.41955" lon="6.40487">
        <ele>1551</ele>
        <time>2021-09-01T14:35:07.000Z</time>
      </trkpt>
      <trkpt lat="44.41954" lon="6.40487">
        <ele>1551</ele>
        <time>2021-09-01T14:35:08.000Z</time>
      </trkpt>
      <trkpt lat="44.41954" lon="6.40487">
        <ele>1551</ele>
        <time>2021-09-01T14:35:09.000Z</time>
      </trkpt>
      <trkpt lat="44.41954" lon="6.40486">
        <ele>1551</ele>
        <time>2021-09-01T14:35:10.000Z</time>
      </trkpt>
      <trkpt lat="44.41955" lon="6.40486">
        <ele>1551</ele>
        <time>2021-09-01T14:35:11.000Z</time>
      </trkpt>
      <trkpt lat="44.41954" lon="6.40486">
        <ele>1551</ele>
        <time>2021-09-01T14:35:12.000Z</time>
      </trkpt>
      <trkpt lat="44.41954" lon="6.40485">
        <ele>1551</ele>
        <time>2021-09-01T14:35:13.000Z</time>
      </trkpt>
      <trkpt lat="44.41953" lon="6.40485">
        <ele>1551</ele>
        <time>2021-09-01T14:35:14.000Z</time>
      </trkpt>
      <trkpt lat="44.41952" lon="6.40484">
        <ele>1551</ele>
        <time>2021-09-01T14:35:15.000Z</time>
      </trkpt>
      <trkpt lat="44.41952" lon="6.40484">
        <ele>1551</ele>
        <time>2021-09-01T14:35:16.000Z</time>
      </trkpt>
      <trkpt lat="44.41952" lon="6.40483">
        <ele>1551</ele>
        <time>2021-09-01T14:35:17.000Z</time>
      </trkpt>
      <trkpt lat="44.41951" lon="6.40483">
        <ele>1551</ele>
        <time>2021-09-01T14:35:18.000Z</time>
      </trkpt>
      <trkpt lat="44.41951" lon="6.40482">
        <ele>1551</ele>
        <time>2021-09-01T14:35:19.000Z</time>
      </trkpt>
      <trkpt lat="44.41951" lon="6.40481">
        <ele>1551</ele>
        <time>2021-09-01T14:35:20.000Z</time>
      </trkpt>
      <trkpt lat="44.41951" lon="6.4048">
        <ele>1551</ele>
        <time>2021-09-01T14:35:21.000Z</time>
      </trkpt>
      <trkpt lat="44.4195" lon="6.40479">
        <ele>1551</ele>
        <time>2021-09-01T14:35:22.000Z</time>
      </trkpt>
      <trkpt lat="44.41949" lon="6.40479">
        <ele>1551</ele>
        <time>2021-09-01T14:35:23.000Z</time>
      </trkpt>
      <trkpt lat="44.4195" lon="6.40478">
        <ele>1551</ele>
        <time>2021-09-01T14:35:24.000Z</time>
      </trkpt>
      <trkpt lat="44.41948" lon="6.40477">
        <ele>1551</ele>
        <time>2021-09-01T14:35:25.000Z</time>
      </trkpt>
      <trkpt lat="44.41948" lon="6.40477">
        <ele>1551</ele>
        <time>2021-09-01T14:35:26.000Z</time>
      </trkpt>
      <trkpt lat="44.41947" lon="6.40476">
        <ele>1551</ele>
        <time>2021-09-01T14:35:27.000Z</time>
      </trkpt>
      <trkpt lat="44.41946" lon="6.40475">
        <ele>1551</ele>
        <time>2021-09-01T14:35:28.000Z</time>
      </trkpt>
      <trkpt lat="44.41946" lon="6.40474">
        <ele>1551</ele>
        <time>2021-09-01T14:35:29.000Z</time>
      </trkpt>
      <trkpt lat="44.41946" lon="6.40474">
        <ele>1552</ele>
        <time>2021-09-01T14:35:30.000Z</time>
      </trkpt>
      <trkpt lat="44.41946" lon="6.40474">
        <ele>1552</ele>
        <time>2021-09-01T14:35:31.000Z</time>
      </trkpt>
      <trkpt lat="44.41946" lon="6.40473">
        <ele>1552</ele>
        <time>2021-09-01T14:35:32.000Z</time>
      </trkpt>
      <trkpt lat="44.41945" lon="6.40472">
        <ele>1551</ele>
        <time>2021-09-01T14:35:33.000Z</time>
      </trkpt>
      <trkpt lat="44.41944" lon="6.40472">
        <ele>1551</ele>
        <time>2021-09-01T14:35:34.000Z</time>
      </trkpt>
      <trkpt lat="44.41944" lon="6.40472">
        <ele>1551</ele>
        <time>2021-09-01T14:35:35.000Z</time>
      </trkpt>
      <trkpt lat="44.41944" lon="6.40472">
        <ele>1551</ele>
        <time>2021-09-01T14:35:36.000Z</time>
      </trkpt>
      <trkpt lat="44.41944" lon="6.40473">
        <ele>1550</ele>
        <time>2021-09-01T14:35:37.000Z</time>
      </trkpt>
      <trkpt lat="44.41944" lon="6.40473">
        <ele>1550</ele>
        <time>2021-09-01T14:35:38.000Z</time>
      </trkpt>
      <trkpt lat="44.41944" lon="6.40473">
        <ele>1550</ele>
        <time>2021-09-01T14:35:39.000Z</time>
      </trkpt>
      <trkpt lat="44.41944" lon="6.40473">
        <ele>1550</ele>
        <time>2021-09-01T14:35:40.000Z</time>
      </trkpt>
      <trkpt lat="44.41944" lon="6.40474">
        <ele>1550</ele>
        <time>2021-09-01T14:35:41.000Z</time>
      </trkpt>
      <trkpt lat="44.41944" lon="6.40474">
        <ele>1550</ele>
        <time>2021-09-01T14:35:42.000Z</time>
      </trkpt>
      <trkpt lat="44.41944" lon="6.40475">
        <ele>1550</ele>
        <time>2021-09-01T14:35:43.000Z</time>
      </trkpt>
      <trkpt lat="44.41944" lon="6.40474">
        <ele>1550</ele>
        <time>2021-09-01T14:35:44.000Z</time>
      </trkpt>
      <trkpt lat="44.41944" lon="6.40473">
        <ele>1551</ele>
        <time>2021-09-01T14:35:45.000Z</time>
      </trkpt>
      <trkpt lat="44.41944" lon="6.40473">
        <ele>1551</ele>
        <time>2021-09-01T14:35:46.000Z</time>
      </trkpt>
      <trkpt lat="44.41944" lon="6.40472">
        <ele>1551</ele>
        <time>2021-09-01T14:35:47.000Z</time>
      </trkpt>
      <trkpt lat="44.41945" lon="6.40472">
        <ele>1551</ele>
        <time>2021-09-01T14:35:48.000Z</time>
      </trkpt>
      <trkpt lat="44.41946" lon="6.40471">
        <ele>1551</ele>
        <time>2021-09-01T14:35:49.000Z</time>
      </trkpt>
      <trkpt lat="44.41946" lon="6.40471">
        <ele>1551</ele>
        <time>2021-09-01T14:35:50.000Z</time>
      </trkpt>
      <trkpt lat="44.41945" lon="6.40471">
        <ele>1551</ele>
        <time>2021-09-01T14:35:51.000Z</time>
      </trkpt>
      <trkpt lat="44.41945" lon="6.40471">
        <ele>1551</ele>
        <time>2021-09-01T14:35:52.000Z</time>
      </trkpt>
      <trkpt lat="44.41945" lon="6.4047">
        <ele>1552</ele>
        <time>2021-09-01T14:35:53.000Z</time>
      </trkpt>
      <trkpt lat="44.41945" lon="6.4047">
        <ele>1552</ele>
        <time>2021-09-01T14:35:54.000Z</time>
      </trkpt>
      <trkpt lat="44.41944" lon="6.4047">
        <ele>1552</ele>
        <time>2021-09-01T14:35:55.000Z</time>
      </trkpt>
      <trkpt lat="44.41944" lon="6.4047">
        <ele>1552</ele>
        <time>2021-09-01T14:35:56.000Z</time>
      </trkpt>
      <trkpt lat="44.41944" lon="6.4047">
        <ele>1552</ele>
        <time>2021-09-01T14:35:57.000Z</time>
      </trkpt>
      <trkpt lat="44.41943" lon="6.4047">
        <ele>1552</ele>
        <time>2021-09-01T14:35:58.000Z</time>
      </trkpt>
      <trkpt lat="44.41943" lon="6.40469">
        <ele>1552</ele>
        <time>2021-09-01T14:35:59.000Z</time>
      </trkpt>
      <trkpt lat="44.41943" lon="6.40469">
        <ele>1552</ele>
        <time>2021-09-01T14:36:00.000Z</time>
      </trkpt>
      <trkpt lat="44.41942" lon="6.40469">
        <ele>1552</ele>
        <time>2021-09-01T14:36:01.000Z</time>
      </trkpt>
      <trkpt lat="44.41942" lon="6.40468">
        <ele>1552</ele>
        <time>2021-09-01T14:36:02.000Z</time>
      </trkpt>
      <trkpt lat="44.41942" lon="6.40468">
        <ele>1552</ele>
        <time>2021-09-01T14:36:03.000Z</time>
      </trkpt>
      <trkpt lat="44.41941" lon="6.40467">
        <ele>1552</ele>
        <time>2021-09-01T14:36:04.000Z</time>
      </trkpt>
      <trkpt lat="44.41941" lon="6.40467">
        <ele>1553</ele>
        <time>2021-09-01T14:36:05.000Z</time>
      </trkpt>
      <trkpt lat="44.41941" lon="6.40466">
        <ele>1553</ele>
        <time>2021-09-01T14:36:06.000Z</time>
      </trkpt>
      <trkpt lat="44.4194" lon="6.40465">
        <ele>1553</ele>
        <time>2021-09-01T14:36:07.000Z</time>
      </trkpt>
      <trkpt lat="44.4194" lon="6.40464">
        <ele>1553</ele>
        <time>2021-09-01T14:36:08.000Z</time>
      </trkpt>
      <trkpt lat="44.41939" lon="6.40464">
        <ele>1552</ele>
        <time>2021-09-01T14:36:09.000Z</time>
      </trkpt>
      <trkpt lat="44.41939" lon="6.40463">
        <ele>1553</ele>
        <time>2021-09-01T14:36:10.000Z</time>
      </trkpt>
      <trkpt lat="44.41938" lon="6.40463">
        <ele>1553</ele>
        <time>2021-09-01T14:36:11.000Z</time>
      </trkpt>
      <trkpt lat="44.41938" lon="6.40463">
        <ele>1553</ele>
        <time>2021-09-01T14:36:12.000Z</time>
      </trkpt>
      <trkpt lat="44.41937" lon="6.40462">
        <ele>1553</ele>
        <time>2021-09-01T14:36:13.000Z</time>
      </trkpt>
      <trkpt lat="44.41937" lon="6.40462">
        <ele>1553</ele>
        <time>2021-09-01T14:36:14.000Z</time>
      </trkpt>
      <trkpt lat="44.41936" lon="6.40461">
        <ele>1553</ele>
        <time>2021-09-01T14:36:15.000Z</time>
      </trkpt>
      <trkpt lat="44.41936" lon="6.40461">
        <ele>1553</ele>
        <time>2021-09-01T14:36:16.000Z</time>
      </trkpt>
      <trkpt lat="44.41936" lon="6.4046">
        <ele>1553</ele>
        <time>2021-09-01T14:36:17.000Z</time>
      </trkpt>
      <trkpt lat="44.41936" lon="6.4046">
        <ele>1552</ele>
        <time>2021-09-01T14:36:18.000Z</time>
      </trkpt>
      <trkpt lat="44.41935" lon="6.40458">
        <ele>1553</ele>
        <time>2021-09-01T14:36:19.000Z</time>
      </trkpt>
      <trkpt lat="44.41935" lon="6.40458">
        <ele>1553</ele>
        <time>2021-09-01T14:36:20.000Z</time>
      </trkpt>
      <trkpt lat="44.41935" lon="6.40457">
        <ele>1553</ele>
        <time>2021-09-01T14:36:21.000Z</time>
      </trkpt>
      <trkpt lat="44.41935" lon="6.40456">
        <ele>1553</ele>
        <time>2021-09-01T14:36:22.000Z</time>
      </trkpt>
      <trkpt lat="44.41935" lon="6.40455">
        <ele>1554</ele>
        <time>2021-09-01T14:36:23.000Z</time>
      </trkpt>
      <trkpt lat="44.41935" lon="6.40455">
        <ele>1554</ele>
        <time>2021-09-01T14:36:24.000Z</time>
      </trkpt>
      <trkpt lat="44.41936" lon="6.40453">
        <ele>1555</ele>
        <time>2021-09-01T14:36:25.000Z</time>
      </trkpt>
      <trkpt lat="44.41936" lon="6.40453">
        <ele>1555</ele>
        <time>2021-09-01T14:36:26.000Z</time>
      </trkpt>
      <trkpt lat="44.41936" lon="6.40453">
        <ele>1555</ele>
        <time>2021-09-01T14:36:27.000Z</time>
      </trkpt>
      <trkpt lat="44.41936" lon="6.40453">
        <ele>1555</ele>
        <time>2021-09-01T14:36:28.000Z</time>
      </trkpt>
      <trkpt lat="44.41937" lon="6.40453">
        <ele>1555</ele>
        <time>2021-09-01T14:36:29.000Z</time>
      </trkpt>
      <trkpt lat="44.41937" lon="6.40453">
        <ele>1556</ele>
        <time>2021-09-01T14:36:30.000Z</time>
      </trkpt>
      <trkpt lat="44.41938" lon="6.40454">
        <ele>1556</ele>
        <time>2021-09-01T14:36:31.000Z</time>
      </trkpt>
      <trkpt lat="44.41938" lon="6.40454">
        <ele>1556</ele>
        <time>2021-09-01T14:36:32.000Z</time>
      </trkpt>
      <trkpt lat="44.41938" lon="6.40454">
        <ele>1556</ele>
        <time>2021-09-01T14:36:33.000Z</time>
      </trkpt>
      <trkpt lat="44.41938" lon="6.40454">
        <ele>1556</ele>
        <time>2021-09-01T14:36:34.000Z</time>
      </trkpt>
      <trkpt lat="44.41938" lon="6.40454">
        <ele>1556</ele>
        <time>2021-09-01T14:36:35.000Z</time>
      </trkpt>
      <trkpt lat="44.41938" lon="6.40453">
        <ele>1556</ele>
        <time>2021-09-01T14:36:36.000Z</time>
      </trkpt>
      <trkpt lat="44.41938" lon="6.40453">
        <ele>1556</ele>
        <time>2021-09-01T14:36:37.000Z</time>
      </trkpt>
      <trkpt lat="44.41938" lon="6.40453">
        <ele>1557</ele>
        <time>2021-09-01T14:36:38.000Z</time>
      </trkpt>
      <trkpt lat="44.41938" lon="6.40452">
        <ele>1557</ele>
        <time>2021-09-01T14:36:39.000Z</time>
      </trkpt>
      <trkpt lat="44.41938" lon="6.40452">
        <ele>1557</ele>
        <time>2021-09-01T14:36:40.000Z</time>
      </trkpt>
      <trkpt lat="44.41938" lon="6.40452">
        <ele>1557</ele>
        <time>2021-09-01T14:36:41.000Z</time>
      </trkpt>
      <trkpt lat="44.41938" lon="6.40452">
        <ele>1557</ele>
        <time>2021-09-01T14:36:42.000Z</time>
      </trkpt>
      <trkpt lat="44.41938" lon="6.40452">
        <ele>1557</ele>
        <time>2021-09-01T14:36:43.000Z</time>
      </trkpt>
      <trkpt lat="44.41938" lon="6.40452">
        <ele>1557</ele>
        <time>2021-09-01T14:36:44.000Z</time>
      </trkpt>
      <trkpt lat="44.41938" lon="6.40452">
        <ele>1557</ele>
        <time>2021-09-01T14:36:45.000Z</time>
      </trkpt>
      <trkpt lat="44.41937" lon="6.40451">
        <ele>1557</ele>
        <time>2021-09-01T14:36:46.000Z</time>
      </trkpt>
      <trkpt lat="44.41937" lon="6.4045">
        <ele>1557</ele>
        <time>2021-09-01T14:36:47.000Z</time>
      </trkpt>
      <trkpt lat="44.41936" lon="6.40449">
        <ele>1557</ele>
        <time>2021-09-01T14:36:48.000Z</time>
      </trkpt>
      <trkpt lat="44.41936" lon="6.40448">
        <ele>1557</ele>
        <time>2021-09-01T14:36:49.000Z</time>
      </trkpt>
      <trkpt lat="44.41935" lon="6.40446">
        <ele>1556</ele>
        <time>2021-09-01T14:36:50.000Z</time>
      </trkpt>
      <trkpt lat="44.41935" lon="6.40445">
        <ele>1556</ele>
        <time>2021-09-01T14:36:51.000Z</time>
      </trkpt>
      <trkpt lat="44.41934" lon="6.40445">
        <ele>1556</ele>
        <time>2021-09-01T14:36:52.000Z</time>
      </trkpt>
      <trkpt lat="44.41934" lon="6.40445">
        <ele>1556</ele>
        <time>2021-09-01T14:36:53.000Z</time>
      </trkpt>
      <trkpt lat="44.41934" lon="6.40444">
        <ele>1556</ele>
        <time>2021-09-01T14:36:54.000Z</time>
      </trkpt>
      <trkpt lat="44.41934" lon="6.40442">
        <ele>1557</ele>
        <time>2021-09-01T14:36:55.000Z</time>
      </trkpt>
      <trkpt lat="44.41934" lon="6.4044">
        <ele>1558</ele>
        <time>2021-09-01T14:36:56.000Z</time>
      </trkpt>
      <trkpt lat="44.41933" lon="6.4044">
        <ele>1558</ele>
        <time>2021-09-01T14:36:57.000Z</time>
      </trkpt>
      <trkpt lat="44.41933" lon="6.4044">
        <ele>1558</ele>
        <time>2021-09-01T14:36:58.000Z</time>
      </trkpt>
      <trkpt lat="44.41934" lon="6.4044">
        <ele>1558</ele>
        <time>2021-09-01T14:36:59.000Z</time>
      </trkpt>
      <trkpt lat="44.41934" lon="6.40441">
        <ele>1558</ele>
        <time>2021-09-01T14:37:00.000Z</time>
      </trkpt>
      <trkpt lat="44.41934" lon="6.40442">
        <ele>1558</ele>
        <time>2021-09-01T14:37:01.000Z</time>
      </trkpt>
      <trkpt lat="44.41934" lon="6.40442">
        <ele>1558</ele>
        <time>2021-09-01T14:37:02.000Z</time>
      </trkpt>
      <trkpt lat="44.41934" lon="6.40443">
        <ele>1557</ele>
        <time>2021-09-01T14:37:03.000Z</time>
      </trkpt>
      <trkpt lat="44.41934" lon="6.40443">
        <ele>1557</ele>
        <time>2021-09-01T14:37:04.000Z</time>
      </trkpt>
      <trkpt lat="44.41935" lon="6.40443">
        <ele>1558</ele>
        <time>2021-09-01T14:37:05.000Z</time>
      </trkpt>
      <trkpt lat="44.41935" lon="6.40444">
        <ele>1558</ele>
        <time>2021-09-01T14:37:06.000Z</time>
      </trkpt>
      <trkpt lat="44.41935" lon="6.40444">
        <ele>1558</ele>
        <time>2021-09-01T14:37:07.000Z</time>
      </trkpt>
      <trkpt lat="44.41935" lon="6.40445">
        <ele>1557</ele>
        <time>2021-09-01T14:37:08.000Z</time>
      </trkpt>
      <trkpt lat="44.41935" lon="6.40445">
        <ele>1557</ele>
        <time>2021-09-01T14:37:09.000Z</time>
      </trkpt>
      <trkpt lat="44.41934" lon="6.40445">
        <ele>1557</ele>
        <time>2021-09-01T14:37:10.000Z</time>
      </trkpt>
      <trkpt lat="44.41934" lon="6.40445">
        <ele>1557</ele>
        <time>2021-09-01T14:37:11.000Z</time>
      </trkpt>
      <trkpt lat="44.41934" lon="6.40446">
        <ele>1557</ele>
        <time>2021-09-01T14:37:12.000Z</time>
      </trkpt>
      <trkpt lat="44.41934" lon="6.40446">
        <ele>1557</ele>
        <time>2021-09-01T14:37:13.000Z</time>
      </trkpt>
      <trkpt lat="44.41933" lon="6.40446">
        <ele>1557</ele>
        <time>2021-09-01T14:37:14.000Z</time>
      </trkpt>
      <trkpt lat="44.41934" lon="6.40447">
        <ele>1557</ele>
        <time>2021-09-01T14:37:15.000Z</time>
      </trkpt>
      <trkpt lat="44.41934" lon="6.40448">
        <ele>1557</ele>
        <time>2021-09-01T14:37:16.000Z</time>
      </trkpt>
      <trkpt lat="44.41934" lon="6.40447">
        <ele>1557</ele>
        <time>2021-09-01T14:37:17.000Z</time>
      </trkpt>
      <trkpt lat="44.41934" lon="6.40447">
        <ele>1557</ele>
        <time>2021-09-01T14:37:18.000Z</time>
      </trkpt>
      <trkpt lat="44.41934" lon="6.40448">
        <ele>1558</ele>
        <time>2021-09-01T14:37:19.000Z</time>
      </trkpt>
      <trkpt lat="44.41934" lon="6.40448">
        <ele>1557</ele>
        <time>2021-09-01T14:37:20.000Z</time>
      </trkpt>
      <trkpt lat="44.41934" lon="6.40448">
        <ele>1557</ele>
        <time>2021-09-01T14:37:21.000Z</time>
      </trkpt>
      <trkpt lat="44.41934" lon="6.40448">
        <ele>1557</ele>
        <time>2021-09-01T14:37:22.000Z</time>
      </trkpt>
      <trkpt lat="44.41935" lon="6.40449">
        <ele>1557</ele>
        <time>2021-09-01T14:37:23.000Z</time>
      </trkpt>
      <trkpt lat="44.41935" lon="6.40449">
        <ele>1557</ele>
        <time>2021-09-01T14:37:24.000Z</time>
      </trkpt>
      <trkpt lat="44.41935" lon="6.40448">
        <ele>1558</ele>
        <time>2021-09-01T14:37:25.000Z</time>
      </trkpt>
      <trkpt lat="44.41935" lon="6.40448">
        <ele>1558</ele>
        <time>2021-09-01T14:37:26.000Z</time>
      </trkpt>
      <trkpt lat="44.41935" lon="6.40447">
        <ele>1558</ele>
        <time>2021-09-01T14:37:27.000Z</time>
      </trkpt>
      <trkpt lat="44.41934" lon="6.40446">
        <ele>1558</ele>
        <time>2021-09-01T14:37:28.000Z</time>
      </trkpt>
      <trkpt lat="44.41934" lon="6.40445">
        <ele>1558</ele>
        <time>2021-09-01T14:37:29.000Z</time>
      </trkpt>
      <trkpt lat="44.41934" lon="6.40445">
        <ele>1558</ele>
        <time>2021-09-01T14:37:30.000Z</time>
      </trkpt>
      <trkpt lat="44.41933" lon="6.40445">
        <ele>1558</ele>
        <time>2021-09-01T14:37:31.000Z</time>
      </trkpt>
      <trkpt lat="44.41933" lon="6.40445">
        <ele>1558</ele>
        <time>2021-09-01T14:37:32.000Z</time>
      </trkpt>
      <trkpt lat="44.41932" lon="6.40445">
        <ele>1558</ele>
        <time>2021-09-01T14:37:33.000Z</time>
      </trkpt>
      <trkpt lat="44.41932" lon="6.40444">
        <ele>1558</ele>
        <time>2021-09-01T14:37:34.000Z</time>
      </trkpt>
      <trkpt lat="44.41932" lon="6.40444">
        <ele>1558</ele>
        <time>2021-09-01T14:37:35.000Z</time>
      </trkpt>
      <trkpt lat="44.41932" lon="6.40443">
        <ele>1558</ele>
        <time>2021-09-01T14:37:36.000Z</time>
      </trkpt>
      <trkpt lat="44.41931" lon="6.40443">
        <ele>1558</ele>
        <time>2021-09-01T14:37:37.000Z</time>
      </trkpt>
      <trkpt lat="44.41931" lon="6.40442">
        <ele>1558</ele>
        <time>2021-09-01T14:37:38.000Z</time>
      </trkpt>
      <trkpt lat="44.41931" lon="6.40442">
        <ele>1558</ele>
        <time>2021-09-01T14:37:39.000Z</time>
      </trkpt>
      <trkpt lat="44.41931" lon="6.40441">
        <ele>1558</ele>
        <time>2021-09-01T14:37:40.000Z</time>
      </trkpt>
      <trkpt lat="44.41931" lon="6.40441">
        <ele>1558</ele>
        <time>2021-09-01T14:37:41.000Z</time>
      </trkpt>
      <trkpt lat="44.41932" lon="6.40441">
        <ele>1558</ele>
        <time>2021-09-01T14:37:42.000Z</time>
      </trkpt>
      <trkpt lat="44.41932" lon="6.40441">
        <ele>1558</ele>
        <time>2021-09-01T14:37:43.000Z</time>
      </trkpt>
      <trkpt lat="44.41933" lon="6.4044">
        <ele>1558</ele>
        <time>2021-09-01T14:37:44.000Z</time>
      </trkpt>
      <trkpt lat="44.41933" lon="6.40439">
        <ele>1559</ele>
        <time>2021-09-01T14:37:45.000Z</time>
      </trkpt>
      <trkpt lat="44.41933" lon="6.40439">
        <ele>1559</ele>
        <time>2021-09-01T14:37:46.000Z</time>
      </trkpt>
      <trkpt lat="44.41933" lon="6.40439">
        <ele>1559</ele>
        <time>2021-09-01T14:37:47.000Z</time>
      </trkpt>
      <trkpt lat="44.41933" lon="6.40439">
        <ele>1559</ele>
        <time>2021-09-01T14:37:48.000Z</time>
      </trkpt>
      <trkpt lat="44.41933" lon="6.40439">
        <ele>1559</ele>
        <time>2021-09-01T14:37:50.000Z</time>
      </trkpt>
      <trkpt lat="44.41933" lon="6.40439">
        <ele>1559</ele>
        <time>2021-09-01T14:37:51.000Z</time>
      </trkpt>
      <trkpt lat="44.41931" lon="6.40438">
        <ele>1559</ele>
        <time>2021-09-01T14:37:52.000Z</time>
      </trkpt>
      <trkpt lat="44.41931" lon="6.40437">
        <ele>1559</ele>
        <time>2021-09-01T14:37:53.000Z</time>
      </trkpt>
      <trkpt lat="44.4193" lon="6.40437">
        <ele>1559</ele>
        <time>2021-09-01T14:37:54.000Z</time>
      </trkpt>
      <trkpt lat="44.4193" lon="6.40437">
        <ele>1559</ele>
        <time>2021-09-01T14:37:55.000Z</time>
      </trkpt>
      <trkpt lat="44.4193" lon="6.40437">
        <ele>1559</ele>
        <time>2021-09-01T14:37:56.000Z</time>
      </trkpt>
      <trkpt lat="44.4193" lon="6.40437">
        <ele>1559</ele>
        <time>2021-09-01T14:37:57.000Z</time>
      </trkpt>
      <trkpt lat="44.41929" lon="6.40436">
        <ele>1559</ele>
        <time>2021-09-01T14:37:58.000Z</time>
      </trkpt>
      <trkpt lat="44.41929" lon="6.40436">
        <ele>1559</ele>
        <time>2021-09-01T14:37:59.000Z</time>
      </trkpt>
      <trkpt lat="44.41928" lon="6.40436">
        <ele>1558</ele>
        <time>2021-09-01T14:38:00.000Z</time>
      </trkpt>
      <trkpt lat="44.41927" lon="6.40435">
        <ele>1558</ele>
        <time>2021-09-01T14:38:01.000Z</time>
      </trkpt>
      <trkpt lat="44.41927" lon="6.40434">
        <ele>1558</ele>
        <time>2021-09-01T14:38:02.000Z</time>
      </trkpt>
      <trkpt lat="44.41926" lon="6.40434">
        <ele>1558</ele>
        <time>2021-09-01T14:38:03.000Z</time>
      </trkpt>
      <trkpt lat="44.41926" lon="6.40434">
        <ele>1558</ele>
        <time>2021-09-01T14:38:04.000Z</time>
      </trkpt>
      <trkpt lat="44.41927" lon="6.40434">
        <ele>1558</ele>
        <time>2021-09-01T14:38:05.000Z</time>
      </trkpt>
      <trkpt lat="44.41927" lon="6.40434">
        <ele>1559</ele>
        <time>2021-09-01T14:38:06.000Z</time>
      </trkpt>
      <trkpt lat="44.41928" lon="6.40434">
        <ele>1559</ele>
        <time>2021-09-01T14:38:07.000Z</time>
      </trkpt>
      <trkpt lat="44.41927" lon="6.40433">
        <ele>1559</ele>
        <time>2021-09-01T14:38:08.000Z</time>
      </trkpt>
      <trkpt lat="44.41927" lon="6.40432">
        <ele>1559</ele>
        <time>2021-09-01T14:38:09.000Z</time>
      </trkpt>
      <trkpt lat="44.41927" lon="6.40432">
        <ele>1559</ele>
        <time>2021-09-01T14:38:10.000Z</time>
      </trkpt>
      <trkpt lat="44.41926" lon="6.40431">
        <ele>1559</ele>
        <time>2021-09-01T14:38:11.000Z</time>
      </trkpt>
      <trkpt lat="44.41926" lon="6.40431">
        <ele>1559</ele>
        <time>2021-09-01T14:38:12.000Z</time>
      </trkpt>
      <trkpt lat="44.41926" lon="6.4043">
        <ele>1559</ele>
        <time>2021-09-01T14:38:13.000Z</time>
      </trkpt>
      <trkpt lat="44.41926" lon="6.4043">
        <ele>1559</ele>
        <time>2021-09-01T14:38:14.000Z</time>
      </trkpt>
      <trkpt lat="44.41926" lon="6.4043">
        <ele>1559</ele>
        <time>2021-09-01T14:38:15.000Z</time>
      </trkpt>
      <trkpt lat="44.41926" lon="6.40429">
        <ele>1560</ele>
        <time>2021-09-01T14:38:16.000Z</time>
      </trkpt>
      <trkpt lat="44.41926" lon="6.40428">
        <ele>1560</ele>
        <time>2021-09-01T14:38:17.000Z</time>
      </trkpt>
      <trkpt lat="44.41926" lon="6.40428">
        <ele>1560</ele>
        <time>2021-09-01T14:38:18.000Z</time>
      </trkpt>
      <trkpt lat="44.41926" lon="6.40428">
        <ele>1560</ele>
        <time>2021-09-01T14:38:19.000Z</time>
      </trkpt>
      <trkpt lat="44.41925" lon="6.40428">
        <ele>1560</ele>
        <time>2021-09-01T14:38:20.000Z</time>
      </trkpt>
      <trkpt lat="44.41925" lon="6.40427">
        <ele>1560</ele>
        <time>2021-09-01T14:38:21.000Z</time>
      </trkpt>
      <trkpt lat="44.41925" lon="6.40426">
        <ele>1560</ele>
        <time>2021-09-01T14:38:22.000Z</time>
      </trkpt>
      <trkpt lat="44.41925" lon="6.40425">
        <ele>1560</ele>
        <time>2021-09-01T14:38:23.000Z</time>
      </trkpt>
      <trkpt lat="44.41924" lon="6.40422">
        <ele>1560</ele>
        <time>2021-09-01T14:38:24.000Z</time>
      </trkpt>
      <trkpt lat="44.41924" lon="6.40421">
        <ele>1561</ele>
        <time>2021-09-01T14:38:25.000Z</time>
      </trkpt>
      <trkpt lat="44.41923" lon="6.40418">
        <ele>1561</ele>
        <time>2021-09-01T14:38:26.000Z</time>
      </trkpt>
      <trkpt lat="44.41923" lon="6.40418">
        <ele>1561</ele>
        <time>2021-09-01T14:38:27.000Z</time>
      </trkpt>
      <trkpt lat="44.41923" lon="6.40416">
        <ele>1562</ele>
        <time>2021-09-01T14:38:28.000Z</time>
      </trkpt>
      <trkpt lat="44.41924" lon="6.40416">
        <ele>1563</ele>
        <time>2021-09-01T14:38:29.000Z</time>
      </trkpt>
      <trkpt lat="44.41923" lon="6.40415">
        <ele>1563</ele>
        <time>2021-09-01T14:38:30.000Z</time>
      </trkpt>
      <trkpt lat="44.41923" lon="6.40415">
        <ele>1563</ele>
        <time>2021-09-01T14:38:31.000Z</time>
      </trkpt>
      <trkpt lat="44.41923" lon="6.40415">
        <ele>1563</ele>
        <time>2021-09-01T14:38:32.000Z</time>
      </trkpt>
      <trkpt lat="44.41922" lon="6.40414">
        <ele>1563</ele>
        <time>2021-09-01T14:38:33.000Z</time>
      </trkpt>
      <trkpt lat="44.41922" lon="6.40412">
        <ele>1564</ele>
        <time>2021-09-01T14:38:34.000Z</time>
      </trkpt>
      <trkpt lat="44.41922" lon="6.40412">
        <ele>1564</ele>
        <time>2021-09-01T14:38:35.000Z</time>
      </trkpt>
      <trkpt lat="44.41922" lon="6.40411">
        <ele>1564</ele>
        <time>2021-09-01T14:38:36.000Z</time>
      </trkpt>
      <trkpt lat="44.41921" lon="6.40411">
        <ele>1564</ele>
        <time>2021-09-01T14:38:37.000Z</time>
      </trkpt>
      <trkpt lat="44.41921" lon="6.4041">
        <ele>1565</ele>
        <time>2021-09-01T14:38:38.000Z</time>
      </trkpt>
      <trkpt lat="44.4192" lon="6.40408">
        <ele>1566</ele>
        <time>2021-09-01T14:38:39.000Z</time>
      </trkpt>
      <trkpt lat="44.4192" lon="6.40408">
        <ele>1566</ele>
        <time>2021-09-01T14:38:40.000Z</time>
      </trkpt>
      <trkpt lat="44.41921" lon="6.40407">
        <ele>1566</ele>
        <time>2021-09-01T14:38:41.000Z</time>
      </trkpt>
      <trkpt lat="44.41922" lon="6.40406">
        <ele>1567</ele>
        <time>2021-09-01T14:38:42.000Z</time>
      </trkpt>
      <trkpt lat="44.41923" lon="6.40406">
        <ele>1568</ele>
        <time>2021-09-01T14:38:43.000Z</time>
      </trkpt>
      <trkpt lat="44.41924" lon="6.40405">
        <ele>1569</ele>
        <time>2021-09-01T14:38:44.000Z</time>
      </trkpt>
      <trkpt lat="44.41924" lon="6.40405">
        <ele>1570</ele>
        <time>2021-09-01T14:38:45.000Z</time>
      </trkpt>
      <trkpt lat="44.41924" lon="6.40405">
        <ele>1570</ele>
        <time>2021-09-01T14:38:46.000Z</time>
      </trkpt>
      <trkpt lat="44.41924" lon="6.40405">
        <ele>1570</ele>
        <time>2021-09-01T14:38:47.000Z</time>
      </trkpt>
      <trkpt lat="44.41924" lon="6.40405">
        <ele>1570</ele>
        <time>2021-09-01T14:38:48.000Z</time>
      </trkpt>
      <trkpt lat="44.41923" lon="6.40405">
        <ele>1570</ele>
        <time>2021-09-01T14:38:49.000Z</time>
      </trkpt>
      <trkpt lat="44.41924" lon="6.40404">
        <ele>1570</ele>
        <time>2021-09-01T14:38:50.000Z</time>
      </trkpt>
      <trkpt lat="44.41923" lon="6.40403">
        <ele>1570</ele>
        <time>2021-09-01T14:38:51.000Z</time>
      </trkpt>
      <trkpt lat="44.41923" lon="6.40403">
        <ele>1570</ele>
        <time>2021-09-01T14:38:52.000Z</time>
      </trkpt>
      <trkpt lat="44.41922" lon="6.40403">
        <ele>1570</ele>
        <time>2021-09-01T14:38:53.000Z</time>
      </trkpt>
      <trkpt lat="44.41922" lon="6.40402">
        <ele>1570</ele>
        <time>2021-09-01T14:38:54.000Z</time>
      </trkpt>
      <trkpt lat="44.41922" lon="6.40401">
        <ele>1570</ele>
        <time>2021-09-01T14:38:55.000Z</time>
      </trkpt>
      <trkpt lat="44.41922" lon="6.40401">
        <ele>1570</ele>
        <time>2021-09-01T14:38:56.000Z</time>
      </trkpt>
      <trkpt lat="44.41923" lon="6.404">
        <ele>1570</ele>
        <time>2021-09-01T14:38:57.000Z</time>
      </trkpt>
      <trkpt lat="44.41923" lon="6.40399">
        <ele>1571</ele>
        <time>2021-09-01T14:38:58.000Z</time>
      </trkpt>
      <trkpt lat="44.41923" lon="6.40399">
        <ele>1571</ele>
        <time>2021-09-01T14:38:59.000Z</time>
      </trkpt>
      <trkpt lat="44.41923" lon="6.40398">
        <ele>1572</ele>
        <time>2021-09-01T14:39:00.000Z</time>
      </trkpt>
      <trkpt lat="44.41923" lon="6.40397">
        <ele>1572</ele>
        <time>2021-09-01T14:39:01.000Z</time>
      </trkpt>
      <trkpt lat="44.41923" lon="6.40397">
        <ele>1572</ele>
        <time>2021-09-01T14:39:02.000Z</time>
      </trkpt>
      <trkpt lat="44.41923" lon="6.40397">
        <ele>1572</ele>
        <time>2021-09-01T14:39:03.000Z</time>
      </trkpt>
      <trkpt lat="44.41922" lon="6.40396">
        <ele>1572</ele>
        <time>2021-09-01T14:39:04.000Z</time>
      </trkpt>
      <trkpt lat="44.41922" lon="6.40395">
        <ele>1572</ele>
        <time>2021-09-01T14:39:05.000Z</time>
      </trkpt>
      <trkpt lat="44.41922" lon="6.40394">
        <ele>1572</ele>
        <time>2021-09-01T14:39:06.000Z</time>
      </trkpt>
      <trkpt lat="44.41923" lon="6.40393">
        <ele>1572</ele>
        <time>2021-09-01T14:39:07.000Z</time>
      </trkpt>
      <trkpt lat="44.41923" lon="6.40393">
        <ele>1572</ele>
        <time>2021-09-01T14:39:09.000Z</time>
      </trkpt>
      <trkpt lat="44.41923" lon="6.40393">
        <ele>1572</ele>
        <time>2021-09-01T14:39:10.000Z</time>
      </trkpt>
      <trkpt lat="44.41923" lon="6.4039">
        <ele>1572</ele>
        <time>2021-09-01T14:39:11.000Z</time>
      </trkpt>
      <trkpt lat="44.41923" lon="6.40392">
        <ele>1572</ele>
        <time>2021-09-01T14:39:12.000Z</time>
      </trkpt>
      <trkpt lat="44.41923" lon="6.40392">
        <ele>1572</ele>
        <time>2021-09-01T14:39:13.000Z</time>
      </trkpt>
      <trkpt lat="44.41922" lon="6.40392">
        <ele>1572</ele>
        <time>2021-09-01T14:39:14.000Z</time>
      </trkpt>
      <trkpt lat="44.41922" lon="6.40391">
        <ele>1572</ele>
        <time>2021-09-01T14:39:15.000Z</time>
      </trkpt>
      <trkpt lat="44.4192" lon="6.40391">
        <ele>1572</ele>
        <time>2021-09-01T14:39:16.000Z</time>
      </trkpt>
      <trkpt lat="44.41921" lon="6.40392">
        <ele>1572</ele>
        <time>2021-09-01T14:39:17.000Z</time>
      </trkpt>
      <trkpt lat="44.41921" lon="6.40392">
        <ele>1572</ele>
        <time>2021-09-01T14:39:18.000Z</time>
      </trkpt>
      <trkpt lat="44.4192" lon="6.40392">
        <ele>1572</ele>
        <time>2021-09-01T14:39:19.000Z</time>
      </trkpt>
      <trkpt lat="44.4192" lon="6.40391">
        <ele>1572</ele>
        <time>2021-09-01T14:39:20.000Z</time>
      </trkpt>
      <trkpt lat="44.4192" lon="6.40391">
        <ele>1573</ele>
        <time>2021-09-01T14:39:21.000Z</time>
      </trkpt>
      <trkpt lat="44.4192" lon="6.40391">
        <ele>1573</ele>
        <time>2021-09-01T14:39:22.000Z</time>
      </trkpt>
      <trkpt lat="44.4192" lon="6.40391">
        <ele>1573</ele>
        <time>2021-09-01T14:39:26.000Z</time>
      </trkpt>
      <trkpt lat="44.4192" lon="6.40391">
        <ele>1573</ele>
        <time>2021-09-01T14:39:27.000Z</time>
      </trkpt>
      <trkpt lat="44.41922" lon="6.40387">
        <ele>1574</ele>
        <time>2021-09-01T14:39:28.000Z</time>
      </trkpt>
      <trkpt lat="44.41923" lon="6.40385">
        <ele>1574</ele>
        <time>2021-09-01T14:39:29.000Z</time>
      </trkpt>
      <trkpt lat="44.41923" lon="6.40385">
        <ele>1574</ele>
        <time>2021-09-01T14:39:30.000Z</time>
      </trkpt>
      <trkpt lat="44.41923" lon="6.40385">
        <ele>1575</ele>
        <time>2021-09-01T14:39:36.000Z</time>
      </trkpt>
      <trkpt lat="44.41923" lon="6.40385">
        <ele>1575</ele>
        <time>2021-09-01T14:39:37.000Z</time>
      </trkpt>
      <trkpt lat="44.41925" lon="6.4038">
        <ele>1575</ele>
        <time>2021-09-01T14:39:38.000Z</time>
      </trkpt>
      <trkpt lat="44.41925" lon="6.40379">
        <ele>1575</ele>
        <time>2021-09-01T14:39:39.000Z</time>
      </trkpt>
      <trkpt lat="44.41926" lon="6.40378">
        <ele>1575</ele>
        <time>2021-09-01T14:39:40.000Z</time>
      </trkpt>
      <trkpt lat="44.41928" lon="6.40377">
        <ele>1575</ele>
        <time>2021-09-01T14:39:41.000Z</time>
      </trkpt>
      <trkpt lat="44.41928" lon="6.40375">
        <ele>1575</ele>
        <time>2021-09-01T14:39:42.000Z</time>
      </trkpt>
      <trkpt lat="44.41927" lon="6.40375">
        <ele>1575</ele>
        <time>2021-09-01T14:39:43.000Z</time>
      </trkpt>
      <trkpt lat="44.41927" lon="6.40375">
        <ele>1575</ele>
        <time>2021-09-01T14:39:45.000Z</time>
      </trkpt>
      <trkpt lat="44.41927" lon="6.40375">
        <ele>1575</ele>
        <time>2021-09-01T14:39:46.000Z</time>
      </trkpt>
      <trkpt lat="44.41928" lon="6.40375">
        <ele>1575</ele>
        <time>2021-09-01T14:39:47.000Z</time>
      </trkpt>
      <trkpt lat="44.41929" lon="6.40375">
        <ele>1575</ele>
        <time>2021-09-01T14:39:48.000Z</time>
      </trkpt>
      <trkpt lat="44.4193" lon="6.40375">
        <ele>1576</ele>
        <time>2021-09-01T14:39:49.000Z</time>
      </trkpt>
      <trkpt lat="44.41931" lon="6.40375">
        <ele>1576</ele>
        <time>2021-09-01T14:39:50.000Z</time>
      </trkpt>
      <trkpt lat="44.4193" lon="6.40376">
        <ele>1576</ele>
        <time>2021-09-01T14:39:51.000Z</time>
      </trkpt>
      <trkpt lat="44.41931" lon="6.40376">
        <ele>1576</ele>
        <time>2021-09-01T14:39:52.000Z</time>
      </trkpt>
      <trkpt lat="44.41932" lon="6.40376">
        <ele>1576</ele>
        <time>2021-09-01T14:39:53.000Z</time>
      </trkpt>
      <trkpt lat="44.41934" lon="6.40375">
        <ele>1576</ele>
        <time>2021-09-01T14:39:54.000Z</time>
      </trkpt>
      <trkpt lat="44.41936" lon="6.40375">
        <ele>1576</ele>
        <time>2021-09-01T14:39:55.000Z</time>
      </trkpt>
      <trkpt lat="44.41934" lon="6.40375">
        <ele>1576</ele>
        <time>2021-09-01T14:39:56.000Z</time>
      </trkpt>
      <trkpt lat="44.41934" lon="6.40375">
        <ele>1576</ele>
        <time>2021-09-01T14:40:05.000Z</time>
      </trkpt>
      <trkpt lat="44.41934" lon="6.40375">
        <ele>1576</ele>
        <time>2021-09-01T14:40:06.000Z</time>
      </trkpt>
      <trkpt lat="44.41933" lon="6.40374">
        <ele>1576</ele>
        <time>2021-09-01T14:40:07.000Z</time>
      </trkpt>
      <trkpt lat="44.41931" lon="6.40374">
        <ele>1576</ele>
        <time>2021-09-01T14:40:08.000Z</time>
      </trkpt>
      <trkpt lat="44.41931" lon="6.40374">
        <ele>1576</ele>
        <time>2021-09-01T14:40:10.000Z</time>
      </trkpt>
      <trkpt lat="44.41931" lon="6.40374">
        <ele>1577</ele>
        <time>2021-09-01T14:40:11.000Z</time>
      </trkpt>
      <trkpt lat="44.41931" lon="6.40371">
        <ele>1577</ele>
        <time>2021-09-01T14:40:12.000Z</time>
      </trkpt>
      <trkpt lat="44.41931" lon="6.40371">
        <ele>1577</ele>
        <time>2021-09-01T14:40:13.000Z</time>
      </trkpt>
      <trkpt lat="44.4193" lon="6.4037">
        <ele>1577</ele>
        <time>2021-09-01T14:40:14.000Z</time>
      </trkpt>
      <trkpt lat="44.4193" lon="6.40369">
        <ele>1577</ele>
        <time>2021-09-01T14:40:15.000Z</time>
      </trkpt>
      <trkpt lat="44.4193" lon="6.40368">
        <ele>1578</ele>
        <time>2021-09-01T14:40:16.000Z</time>
      </trkpt>
      <trkpt lat="44.4193" lon="6.40367">
        <ele>1578</ele>
        <time>2021-09-01T14:40:17.000Z</time>
      </trkpt>
      <trkpt lat="44.4193" lon="6.40367">
        <ele>1578</ele>
        <time>2021-09-01T14:40:18.000Z</time>
      </trkpt>
      <trkpt lat="44.41929" lon="6.40368">
        <ele>1578</ele>
        <time>2021-09-01T14:40:19.000Z</time>
      </trkpt>
      <trkpt lat="44.41928" lon="6.40368">
        <ele>1578</ele>
        <time>2021-09-01T14:40:20.000Z</time>
      </trkpt>
      <trkpt lat="44.41928" lon="6.40368">
        <ele>1578</ele>
        <time>2021-09-01T14:40:21.000Z</time>
      </trkpt>
      <trkpt lat="44.41927" lon="6.40368">
        <ele>1578</ele>
        <time>2021-09-01T14:40:22.000Z</time>
      </trkpt>
      <trkpt lat="44.41929" lon="6.40366">
        <ele>1578</ele>
        <time>2021-09-01T14:40:23.000Z</time>
      </trkpt>
      <trkpt lat="44.41929" lon="6.40366">
        <ele>1578</ele>
        <time>2021-09-01T14:40:24.000Z</time>
      </trkpt>
      <trkpt lat="44.4193" lon="6.40364">
        <ele>1578</ele>
        <time>2021-09-01T14:40:25.000Z</time>
      </trkpt>
      <trkpt lat="44.41929" lon="6.40364">
        <ele>1578</ele>
        <time>2021-09-01T14:40:26.000Z</time>
      </trkpt>
      <trkpt lat="44.41929" lon="6.40364">
        <ele>1578</ele>
        <time>2021-09-01T14:40:27.000Z</time>
      </trkpt>
      <trkpt lat="44.41931" lon="6.40363">
        <ele>1578</ele>
        <time>2021-09-01T14:40:28.000Z</time>
      </trkpt>
      <trkpt lat="44.41931" lon="6.40362">
        <ele>1579</ele>
        <time>2021-09-01T14:40:29.000Z</time>
      </trkpt>
      <trkpt lat="44.41931" lon="6.40362">
        <ele>1579</ele>
        <time>2021-09-01T14:40:30.000Z</time>
      </trkpt>
      <trkpt lat="44.41931" lon="6.40362">
        <ele>1579</ele>
        <time>2021-09-01T14:40:31.000Z</time>
      </trkpt>
      <trkpt lat="44.41931" lon="6.40361">
        <ele>1579</ele>
        <time>2021-09-01T14:40:32.000Z</time>
      </trkpt>
      <trkpt lat="44.41931" lon="6.40361">
        <ele>1579</ele>
        <time>2021-09-01T14:40:33.000Z</time>
      </trkpt>
      <trkpt lat="44.41932" lon="6.4036">
        <ele>1579</ele>
        <time>2021-09-01T14:40:34.000Z</time>
      </trkpt>
      <trkpt lat="44.41932" lon="6.4036">
        <ele>1579</ele>
        <time>2021-09-01T14:40:35.000Z</time>
      </trkpt>
      <trkpt lat="44.41932" lon="6.40359">
        <ele>1579</ele>
        <time>2021-09-01T14:40:36.000Z</time>
      </trkpt>
      <trkpt lat="44.41932" lon="6.40359">
        <ele>1579</ele>
        <time>2021-09-01T14:40:37.000Z</time>
      </trkpt>
      <trkpt lat="44.41932" lon="6.4036">
        <ele>1579</ele>
        <time>2021-09-01T14:40:38.000Z</time>
      </trkpt>
      <trkpt lat="44.41932" lon="6.4036">
        <ele>1579</ele>
        <time>2021-09-01T14:40:39.000Z</time>
      </trkpt>
      <trkpt lat="44.41932" lon="6.4036">
        <ele>1580</ele>
        <time>2021-09-01T14:40:40.000Z</time>
      </trkpt>
      <trkpt lat="44.41933" lon="6.40359">
        <ele>1580</ele>
        <time>2021-09-01T14:40:41.000Z</time>
      </trkpt>
      <trkpt lat="44.41931" lon="6.40359">
        <ele>1580</ele>
        <time>2021-09-01T14:40:42.000Z</time>
      </trkpt>
      <trkpt lat="44.41932" lon="6.40358">
        <ele>1580</ele>
        <time>2021-09-01T14:40:43.000Z</time>
      </trkpt>
      <trkpt lat="44.41931" lon="6.40358">
        <ele>1580</ele>
        <time>2021-09-01T14:40:44.000Z</time>
      </trkpt>
      <trkpt lat="44.41931" lon="6.40358">
        <ele>1580</ele>
        <time>2021-09-01T14:40:45.000Z</time>
      </trkpt>
      <trkpt lat="44.41931" lon="6.40358">
        <ele>1580</ele>
        <time>2021-09-01T14:40:46.000Z</time>
      </trkpt>
      <trkpt lat="44.4193" lon="6.40358">
        <ele>1580</ele>
        <time>2021-09-01T14:40:47.000Z</time>
      </trkpt>
      <trkpt lat="44.4193" lon="6.40358">
        <ele>1580</ele>
        <time>2021-09-01T14:40:54.000Z</time>
      </trkpt>
      <trkpt lat="44.4193" lon="6.40358">
        <ele>1580</ele>
        <time>2021-09-01T14:40:55.000Z</time>
      </trkpt>
      <trkpt lat="44.4193" lon="6.40355">
        <ele>1581</ele>
        <time>2021-09-01T14:40:56.000Z</time>
      </trkpt>
      <trkpt lat="44.4193" lon="6.40355">
        <ele>1581</ele>
        <time>2021-09-01T14:40:57.000Z</time>
      </trkpt>
      <trkpt lat="44.41929" lon="6.40355">
        <ele>1581</ele>
        <time>2021-09-01T14:40:58.000Z</time>
      </trkpt>
      <trkpt lat="44.41929" lon="6.40355">
        <ele>1581</ele>
        <time>2021-09-01T14:40:59.000Z</time>
      </trkpt>
      <trkpt lat="44.41929" lon="6.40356">
        <ele>1581</ele>
        <time>2021-09-01T14:41:00.000Z</time>
      </trkpt>
      <trkpt lat="44.41929" lon="6.40356">
        <ele>1581</ele>
        <time>2021-09-01T14:41:01.000Z</time>
      </trkpt>
      <trkpt lat="44.41929" lon="6.40355">
        <ele>1581</ele>
        <time>2021-09-01T14:41:02.000Z</time>
      </trkpt>
      <trkpt lat="44.41927" lon="6.40356">
        <ele>1581</ele>
        <time>2021-09-01T14:41:03.000Z</time>
      </trkpt>
      <trkpt lat="44.41926" lon="6.40355">
        <ele>1581</ele>
        <time>2021-09-01T14:41:04.000Z</time>
      </trkpt>
      <trkpt lat="44.41926" lon="6.40355">
        <ele>1581</ele>
        <time>2021-09-01T14:41:07.000Z</time>
      </trkpt>
      <trkpt lat="44.41926" lon="6.40355">
        <ele>1581</ele>
        <time>2021-09-01T14:41:08.000Z</time>
      </trkpt>
      <trkpt lat="44.41926" lon="6.40357">
        <ele>1581</ele>
        <time>2021-09-01T14:41:09.000Z</time>
      </trkpt>
      <trkpt lat="44.41927" lon="6.40358">
        <ele>1581</ele>
        <time>2021-09-01T14:41:10.000Z</time>
      </trkpt>
      <trkpt lat="44.41927" lon="6.40358">
        <ele>1581</ele>
        <time>2021-09-01T14:41:11.000Z</time>
      </trkpt>
      <trkpt lat="44.41928" lon="6.40358">
        <ele>1581</ele>
        <time>2021-09-01T14:41:12.000Z</time>
      </trkpt>
      <trkpt lat="44.41927" lon="6.40358">
        <ele>1581</ele>
        <time>2021-09-01T14:41:13.000Z</time>
      </trkpt>
      <trkpt lat="44.41927" lon="6.40358">
        <ele>1581</ele>
        <time>2021-09-01T14:41:14.000Z</time>
      </trkpt>
      <trkpt lat="44.41927" lon="6.40358">
        <ele>1581</ele>
        <time>2021-09-01T14:41:15.000Z</time>
      </trkpt>
      <trkpt lat="44.41928" lon="6.40358">
        <ele>1581</ele>
        <time>2021-09-01T14:41:16.000Z</time>
      </trkpt>
      <trkpt lat="44.41928" lon="6.40358">
        <ele>1581</ele>
        <time>2021-09-01T14:41:17.000Z</time>
      </trkpt>
      <trkpt lat="44.41929" lon="6.40358">
        <ele>1581</ele>
        <time>2021-09-01T14:41:18.000Z</time>
      </trkpt>
      <trkpt lat="44.41928" lon="6.40357">
        <ele>1581</ele>
        <time>2021-09-01T14:41:19.000Z</time>
      </trkpt>
      <trkpt lat="44.41928" lon="6.40357">
        <ele>1581</ele>
        <time>2021-09-01T14:41:20.000Z</time>
      </trkpt>
      <trkpt lat="44.41928" lon="6.40357">
        <ele>1581</ele>
        <time>2021-09-01T14:41:21.000Z</time>
      </trkpt>
      <trkpt lat="44.41928" lon="6.40356">
        <ele>1581</ele>
        <time>2021-09-01T14:41:22.000Z</time>
      </trkpt>
      <trkpt lat="44.41928" lon="6.40356">
        <ele>1581</ele>
        <time>2021-09-01T14:41:23.000Z</time>
      </trkpt>
      <trkpt lat="44.41927" lon="6.40356">
        <ele>1581</ele>
        <time>2021-09-01T14:41:24.000Z</time>
      </trkpt>
      <trkpt lat="44.41927" lon="6.40356">
        <ele>1581</ele>
        <time>2021-09-01T14:41:25.000Z</time>
      </trkpt>
      <trkpt lat="44.41927" lon="6.40355">
        <ele>1580</ele>
        <time>2021-09-01T14:41:26.000Z</time>
      </trkpt>
      <trkpt lat="44.41927" lon="6.40354">
        <ele>1581</ele>
        <time>2021-09-01T14:41:27.000Z</time>
      </trkpt>
      <trkpt lat="44.41927" lon="6.40354">
        <ele>1581</ele>
        <time>2021-09-01T14:41:28.000Z</time>
      </trkpt>
      <trkpt lat="44.41926" lon="6.40354">
        <ele>1581</ele>
        <time>2021-09-01T14:41:29.000Z</time>
      </trkpt>
      <trkpt lat="44.41927" lon="6.40354">
        <ele>1581</ele>
        <time>2021-09-01T14:41:30.000Z</time>
      </trkpt>
      <trkpt lat="44.41927" lon="6.40354">
        <ele>1581</ele>
        <time>2021-09-01T14:41:31.000Z</time>
      </trkpt>
      <trkpt lat="44.41927" lon="6.40354">
        <ele>1581</ele>
        <time>2021-09-01T14:41:32.000Z</time>
      </trkpt>
      <trkpt lat="44.41927" lon="6.40354">
        <ele>1581</ele>
        <time>2021-09-01T14:41:33.000Z</time>
      </trkpt>
      <trkpt lat="44.41927" lon="6.40354">
        <ele>1581</ele>
        <time>2021-09-01T14:41:34.000Z</time>
      </trkpt>
      <trkpt lat="44.41927" lon="6.40354">
        <ele>1581</ele>
        <time>2021-09-01T14:41:35.000Z</time>
      </trkpt>
      <trkpt lat="44.41928" lon="6.40354">
        <ele>1581</ele>
        <time>2021-09-01T14:41:36.000Z</time>
      </trkpt>
      <trkpt lat="44.41928" lon="6.40353">
        <ele>1581</ele>
        <time>2021-09-01T14:41:37.000Z</time>
      </trkpt>
      <trkpt lat="44.41927" lon="6.40354">
        <ele>1581</ele>
        <time>2021-09-01T14:41:38.000Z</time>
      </trkpt>
      <trkpt lat="44.41926" lon="6.40353">
        <ele>1581</ele>
        <time>2021-09-01T14:41:39.000Z</time>
      </trkpt>
      <trkpt lat="44.41926" lon="6.40353">
        <ele>1581</ele>
        <time>2021-09-01T14:41:40.000Z</time>
      </trkpt>
      <trkpt lat="44.41926" lon="6.40352">
        <ele>1581</ele>
        <time>2021-09-01T14:41:41.000Z</time>
      </trkpt>
      <trkpt lat="44.41927" lon="6.40352">
        <ele>1581</ele>
        <time>2021-09-01T14:41:42.000Z</time>
      </trkpt>
      <trkpt lat="44.41926" lon="6.40352">
        <ele>1581</ele>
        <time>2021-09-01T14:41:43.000Z</time>
      </trkpt>
      <trkpt lat="44.41926" lon="6.40352">
        <ele>1581</ele>
        <time>2021-09-01T14:41:44.000Z</time>
      </trkpt>
      <trkpt lat="44.41926" lon="6.40352">
        <ele>1581</ele>
        <time>2021-09-01T14:41:45.000Z</time>
      </trkpt>
      <trkpt lat="44.41926" lon="6.40352">
        <ele>1581</ele>
        <time>2021-09-01T14:41:46.000Z</time>
      </trkpt>
      <trkpt lat="44.41928" lon="6.40353">
        <ele>1581</ele>
        <time>2021-09-01T14:41:47.000Z</time>
      </trkpt>
      <trkpt lat="44.41929" lon="6.40352">
        <ele>1581</ele>
        <time>2021-09-01T14:41:48.000Z</time>
      </trkpt>
      <trkpt lat="44.41929" lon="6.40352">
        <ele>1581</ele>
        <time>2021-09-01T14:41:49.000Z</time>
      </trkpt>
      <trkpt lat="44.4193" lon="6.40353">
        <ele>1580</ele>
        <time>2021-09-01T14:41:50.000Z</time>
      </trkpt>
      <trkpt lat="44.41929" lon="6.40353">
        <ele>1581</ele>
        <time>2021-09-01T14:41:51.000Z</time>
      </trkpt>
      <trkpt lat="44.41928" lon="6.40353">
        <ele>1580</ele>
        <time>2021-09-01T14:41:52.000Z</time>
      </trkpt>
      <trkpt lat="44.41928" lon="6.40353">
        <ele>1580</ele>
        <time>2021-09-01T14:41:53.000Z</time>
      </trkpt>
      <trkpt lat="44.41928" lon="6.40353">
        <ele>1580</ele>
        <time>2021-09-01T14:41:54.000Z</time>
      </trkpt>
      <trkpt lat="44.41929" lon="6.40353">
        <ele>1580</ele>
        <time>2021-09-01T14:41:55.000Z</time>
      </trkpt>
      <trkpt lat="44.41929" lon="6.40353">
        <ele>1580</ele>
        <time>2021-09-01T14:41:56.000Z</time>
      </trkpt>
      <trkpt lat="44.41928" lon="6.40353">
        <ele>1580</ele>
        <time>2021-09-01T14:41:57.000Z</time>
      </trkpt>
      <trkpt lat="44.41928" lon="6.40353">
        <ele>1580</ele>
        <time>2021-09-01T14:41:58.000Z</time>
      </trkpt>
      <trkpt lat="44.41928" lon="6.40353">
        <ele>1580</ele>
        <time>2021-09-01T14:41:59.000Z</time>
      </trkpt>
      <trkpt lat="44.41929" lon="6.40354">
        <ele>1580</ele>
        <time>2021-09-01T14:42:00.000Z</time>
      </trkpt>
      <trkpt lat="44.41929" lon="6.40354">
        <ele>1580</ele>
        <time>2021-09-01T14:42:01.000Z</time>
      </trkpt>
      <trkpt lat="44.4193" lon="6.40355">
        <ele>1579</ele>
        <time>2021-09-01T14:42:02.000Z</time>
      </trkpt>
      <trkpt lat="44.4193" lon="6.40355">
        <ele>1579</ele>
        <time>2021-09-01T14:42:03.000Z</time>
      </trkpt>
      <trkpt lat="44.4193" lon="6.40354">
        <ele>1579</ele>
        <time>2021-09-01T14:42:04.000Z</time>
      </trkpt>
      <trkpt lat="44.41931" lon="6.40354">
        <ele>1579</ele>
        <time>2021-09-01T14:42:05.000Z</time>
      </trkpt>
      <trkpt lat="44.4193" lon="6.40353">
        <ele>1579</ele>
        <time>2021-09-01T14:42:06.000Z</time>
      </trkpt>
      <trkpt lat="44.4193" lon="6.40353">
        <ele>1579</ele>
        <time>2021-09-01T14:42:07.000Z</time>
      </trkpt>
      <trkpt lat="44.4193" lon="6.40352">
        <ele>1579</ele>
        <time>2021-09-01T14:42:08.000Z</time>
      </trkpt>
      <trkpt lat="44.4193" lon="6.40351">
        <ele>1579</ele>
        <time>2021-09-01T14:42:09.000Z</time>
      </trkpt>
      <trkpt lat="44.41933" lon="6.40352">
        <ele>1579</ele>
        <time>2021-09-01T14:42:10.000Z</time>
      </trkpt>
      <trkpt lat="44.41934" lon="6.40351">
        <ele>1579</ele>
        <time>2021-09-01T14:42:11.000Z</time>
      </trkpt>
      <trkpt lat="44.41934" lon="6.40349">
        <ele>1579</ele>
        <time>2021-09-01T14:42:12.000Z</time>
      </trkpt>
      <trkpt lat="44.41935" lon="6.40349">
        <ele>1579</ele>
        <time>2021-09-01T14:42:13.000Z</time>
      </trkpt>
      <trkpt lat="44.41935" lon="6.40348">
        <ele>1579</ele>
        <time>2021-09-01T14:42:14.000Z</time>
      </trkpt>
      <trkpt lat="44.41935" lon="6.40348">
        <ele>1579</ele>
        <time>2021-09-01T14:42:15.000Z</time>
      </trkpt>
      <trkpt lat="44.41937" lon="6.40347">
        <ele>1579</ele>
        <time>2021-09-01T14:42:16.000Z</time>
      </trkpt>
      <trkpt lat="44.41936" lon="6.40347">
        <ele>1579</ele>
        <time>2021-09-01T14:42:17.000Z</time>
      </trkpt>
      <trkpt lat="44.41936" lon="6.40347">
        <ele>1579</ele>
        <time>2021-09-01T14:42:18.000Z</time>
      </trkpt>
      <trkpt lat="44.41936" lon="6.40348">
        <ele>1579</ele>
        <time>2021-09-01T14:42:19.000Z</time>
      </trkpt>
      <trkpt lat="44.41937" lon="6.40348">
        <ele>1579</ele>
        <time>2021-09-01T14:42:20.000Z</time>
      </trkpt>
      <trkpt lat="44.41937" lon="6.40348">
        <ele>1578</ele>
        <time>2021-09-01T14:42:21.000Z</time>
      </trkpt>
      <trkpt lat="44.41936" lon="6.40347">
        <ele>1578</ele>
        <time>2021-09-01T14:42:22.000Z</time>
      </trkpt>
      <trkpt lat="44.41936" lon="6.40347">
        <ele>1578</ele>
        <time>2021-09-01T14:42:23.000Z</time>
      </trkpt>
      <trkpt lat="44.41936" lon="6.40348">
        <ele>1578</ele>
        <time>2021-09-01T14:42:24.000Z</time>
      </trkpt>
      <trkpt lat="44.41937" lon="6.40348">
        <ele>1578</ele>
        <time>2021-09-01T14:42:25.000Z</time>
      </trkpt>
      <trkpt lat="44.41938" lon="6.40347">
        <ele>1578</ele>
        <time>2021-09-01T14:42:26.000Z</time>
      </trkpt>
      <trkpt lat="44.41938" lon="6.40347">
        <ele>1578</ele>
        <time>2021-09-01T14:42:27.000Z</time>
      </trkpt>
      <trkpt lat="44.41938" lon="6.40347">
        <ele>1578</ele>
        <time>2021-09-01T14:42:28.000Z</time>
      </trkpt>
      <trkpt lat="44.41938" lon="6.40347">
        <ele>1578</ele>
        <time>2021-09-01T14:42:29.000Z</time>
      </trkpt>
      <trkpt lat="44.41938" lon="6.40347">
        <ele>1578</ele>
        <time>2021-09-01T14:42:30.000Z</time>
      </trkpt>
      <trkpt lat="44.41938" lon="6.40346">
        <ele>1578</ele>
        <time>2021-09-01T14:42:31.000Z</time>
      </trkpt>
      <trkpt lat="44.41937" lon="6.40345">
        <ele>1578</ele>
        <time>2021-09-01T14:42:32.000Z</time>
      </trkpt>
      <trkpt lat="44.41937" lon="6.40345">
        <ele>1578</ele>
        <time>2021-09-01T14:42:33.000Z</time>
      </trkpt>
      <trkpt lat="44.41937" lon="6.40345">
        <ele>1578</ele>
        <time>2021-09-01T14:42:34.000Z</time>
      </trkpt>
      <trkpt lat="44.41936" lon="6.40345">
        <ele>1578</ele>
        <time>2021-09-01T14:42:35.000Z</time>
      </trkpt>
      <trkpt lat="44.41934" lon="6.40345">
        <ele>1578</ele>
        <time>2021-09-01T14:42:36.000Z</time>
      </trkpt>
      <trkpt lat="44.41934" lon="6.40345">
        <ele>1578</ele>
        <time>2021-09-01T14:42:42.000Z</time>
      </trkpt>
      <trkpt lat="44.41934" lon="6.40345">
        <ele>1578</ele>
        <time>2021-09-01T14:42:43.000Z</time>
      </trkpt>
      <trkpt lat="44.41935" lon="6.40345">
        <ele>1577</ele>
        <time>2021-09-01T14:42:44.000Z</time>
      </trkpt>
      <trkpt lat="44.41936" lon="6.40345">
        <ele>1577</ele>
        <time>2021-09-01T14:42:45.000Z</time>
      </trkpt>
      <trkpt lat="44.41935" lon="6.40344">
        <ele>1577</ele>
        <time>2021-09-01T14:42:46.000Z</time>
      </trkpt>
      <trkpt lat="44.41935" lon="6.40344">
        <ele>1577</ele>
        <time>2021-09-01T14:42:47.000Z</time>
      </trkpt>
      <trkpt lat="44.41935" lon="6.40344">
        <ele>1578</ele>
        <time>2021-09-01T14:42:48.000Z</time>
      </trkpt>
      <trkpt lat="44.41934" lon="6.40343">
        <ele>1578</ele>
        <time>2021-09-01T14:42:49.000Z</time>
      </trkpt>
      <trkpt lat="44.41934" lon="6.40342">
        <ele>1578</ele>
        <time>2021-09-01T14:42:50.000Z</time>
      </trkpt>
      <trkpt lat="44.41934" lon="6.40341">
        <ele>1578</ele>
        <time>2021-09-01T14:42:51.000Z</time>
      </trkpt>
      <trkpt lat="44.41935" lon="6.4034">
        <ele>1578</ele>
        <time>2021-09-01T14:42:52.000Z</time>
      </trkpt>
      <trkpt lat="44.41936" lon="6.40338">
        <ele>1578</ele>
        <time>2021-09-01T14:42:53.000Z</time>
      </trkpt>
      <trkpt lat="44.41937" lon="6.40338">
        <ele>1578</ele>
        <time>2021-09-01T14:42:54.000Z</time>
      </trkpt>
      <trkpt lat="44.41938" lon="6.40337">
        <ele>1578</ele>
        <time>2021-09-01T14:42:55.000Z</time>
      </trkpt>
      <trkpt lat="44.4194" lon="6.40337">
        <ele>1578</ele>
        <time>2021-09-01T14:42:56.000Z</time>
      </trkpt>
      <trkpt lat="44.41941" lon="6.40336">
        <ele>1578</ele>
        <time>2021-09-01T14:42:57.000Z</time>
      </trkpt>
      <trkpt lat="44.41939" lon="6.40335">
        <ele>1578</ele>
        <time>2021-09-01T14:42:58.000Z</time>
      </trkpt>
      <trkpt lat="44.41938" lon="6.40335">
        <ele>1578</ele>
        <time>2021-09-01T14:42:59.000Z</time>
      </trkpt>
      <trkpt lat="44.41938" lon="6.40333">
        <ele>1578</ele>
        <time>2021-09-01T14:43:00.000Z</time>
      </trkpt>
      <trkpt lat="44.41938" lon="6.40333">
        <ele>1578</ele>
        <time>2021-09-01T14:43:01.000Z</time>
      </trkpt>
      <trkpt lat="44.41939" lon="6.40332">
        <ele>1578</ele>
        <time>2021-09-01T14:43:02.000Z</time>
      </trkpt>
      <trkpt lat="44.4194" lon="6.40331">
        <ele>1578</ele>
        <time>2021-09-01T14:43:03.000Z</time>
      </trkpt>
      <trkpt lat="44.41939" lon="6.4033">
        <ele>1578</ele>
        <time>2021-09-01T14:43:04.000Z</time>
      </trkpt>
      <trkpt lat="44.4194" lon="6.4033">
        <ele>1578</ele>
        <time>2021-09-01T14:43:05.000Z</time>
      </trkpt>
      <trkpt lat="44.4194" lon="6.4033">
        <ele>1578</ele>
        <time>2021-09-01T14:43:06.000Z</time>
      </trkpt>
      <trkpt lat="44.4194" lon="6.4033">
        <ele>1578</ele>
        <time>2021-09-01T14:43:08.000Z</time>
      </trkpt>
      <trkpt lat="44.4194" lon="6.4033">
        <ele>1578</ele>
        <time>2021-09-01T14:43:09.000Z</time>
      </trkpt>
      <trkpt lat="44.4194" lon="6.4033">
        <ele>1578</ele>
        <time>2021-09-01T14:43:11.000Z</time>
      </trkpt>
      <trkpt lat="44.4194" lon="6.4033">
        <ele>1578</ele>
        <time>2021-09-01T14:43:12.000Z</time>
      </trkpt>
      <trkpt lat="44.41941" lon="6.40325">
        <ele>1578</ele>
        <time>2021-09-01T14:43:13.000Z</time>
      </trkpt>
      <trkpt lat="44.41942" lon="6.40324">
        <ele>1578</ele>
        <time>2021-09-01T14:43:14.000Z</time>
      </trkpt>
      <trkpt lat="44.41944" lon="6.40324">
        <ele>1578</ele>
        <time>2021-09-01T14:43:15.000Z</time>
      </trkpt>
      <trkpt lat="44.41945" lon="6.40323">
        <ele>1578</ele>
        <time>2021-09-01T14:43:16.000Z</time>
      </trkpt>
      <trkpt lat="44.41945" lon="6.40323">
        <ele>1578</ele>
        <time>2021-09-01T14:43:17.000Z</time>
      </trkpt>
      <trkpt lat="44.41945" lon="6.40322">
        <ele>1578</ele>
        <time>2021-09-01T14:43:18.000Z</time>
      </trkpt>
      <trkpt lat="44.41945" lon="6.40322">
        <ele>1578</ele>
        <time>2021-09-01T14:43:19.000Z</time>
      </trkpt>
      <trkpt lat="44.41947" lon="6.40322">
        <ele>1578</ele>
        <time>2021-09-01T14:43:20.000Z</time>
      </trkpt>
      <trkpt lat="44.41947" lon="6.40322">
        <ele>1578</ele>
        <time>2021-09-01T14:43:21.000Z</time>
      </trkpt>
      <trkpt lat="44.41947" lon="6.40322">
        <ele>1578</ele>
        <time>2021-09-01T14:43:22.000Z</time>
      </trkpt>
      <trkpt lat="44.41947" lon="6.40323">
        <ele>1578</ele>
        <time>2021-09-01T14:43:23.000Z</time>
      </trkpt>
      <trkpt lat="44.41947" lon="6.40322">
        <ele>1578</ele>
        <time>2021-09-01T14:43:24.000Z</time>
      </trkpt>
      <trkpt lat="44.41947" lon="6.40321">
        <ele>1578</ele>
        <time>2021-09-01T14:43:25.000Z</time>
      </trkpt>
      <trkpt lat="44.41948" lon="6.40321">
        <ele>1578</ele>
        <time>2021-09-01T14:43:26.000Z</time>
      </trkpt>
      <trkpt lat="44.41949" lon="6.4032">
        <ele>1578</ele>
        <time>2021-09-01T14:43:27.000Z</time>
      </trkpt>
      <trkpt lat="44.41948" lon="6.4032">
        <ele>1578</ele>
        <time>2021-09-01T14:43:28.000Z</time>
      </trkpt>
      <trkpt lat="44.41948" lon="6.4032">
        <ele>1578</ele>
        <time>2021-09-01T14:43:29.000Z</time>
      </trkpt>
      <trkpt lat="44.41949" lon="6.4032">
        <ele>1578</ele>
        <time>2021-09-01T14:43:30.000Z</time>
      </trkpt>
      <trkpt lat="44.41948" lon="6.40319">
        <ele>1578</ele>
        <time>2021-09-01T14:43:31.000Z</time>
      </trkpt>
      <trkpt lat="44.41949" lon="6.40319">
        <ele>1578</ele>
        <time>2021-09-01T14:43:32.000Z</time>
      </trkpt>
      <trkpt lat="44.41948" lon="6.40319">
        <ele>1578</ele>
        <time>2021-09-01T14:43:33.000Z</time>
      </trkpt>
      <trkpt lat="44.41947" lon="6.40319">
        <ele>1578</ele>
        <time>2021-09-01T14:43:34.000Z</time>
      </trkpt>
      <trkpt lat="44.41946" lon="6.40318">
        <ele>1578</ele>
        <time>2021-09-01T14:43:35.000Z</time>
      </trkpt>
      <trkpt lat="44.41946" lon="6.40318">
        <ele>1578</ele>
        <time>2021-09-01T14:43:36.000Z</time>
      </trkpt>
      <trkpt lat="44.41945" lon="6.40317">
        <ele>1578</ele>
        <time>2021-09-01T14:43:37.000Z</time>
      </trkpt>
      <trkpt lat="44.41944" lon="6.40317">
        <ele>1578</ele>
        <time>2021-09-01T14:43:38.000Z</time>
      </trkpt>
      <trkpt lat="44.41944" lon="6.40317">
        <ele>1578</ele>
        <time>2021-09-01T14:43:39.000Z</time>
      </trkpt>
      <trkpt lat="44.41943" lon="6.40316">
        <ele>1578</ele>
        <time>2021-09-01T14:43:40.000Z</time>
      </trkpt>
      <trkpt lat="44.41942" lon="6.40315">
        <ele>1578</ele>
        <time>2021-09-01T14:43:41.000Z</time>
      </trkpt>
      <trkpt lat="44.41944" lon="6.40315">
        <ele>1579</ele>
        <time>2021-09-01T14:43:42.000Z</time>
      </trkpt>
      <trkpt lat="44.41946" lon="6.40314">
        <ele>1579</ele>
        <time>2021-09-01T14:43:43.000Z</time>
      </trkpt>
      <trkpt lat="44.41948" lon="6.40314">
        <ele>1579</ele>
        <time>2021-09-01T14:43:44.000Z</time>
      </trkpt>
      <trkpt lat="44.41949" lon="6.40314">
        <ele>1579</ele>
        <time>2021-09-01T14:43:45.000Z</time>
      </trkpt>
      <trkpt lat="44.4195" lon="6.40314">
        <ele>1580</ele>
        <time>2021-09-01T14:43:46.000Z</time>
      </trkpt>
      <trkpt lat="44.41953" lon="6.40314">
        <ele>1579</ele>
        <time>2021-09-01T14:43:47.000Z</time>
      </trkpt>
      <trkpt lat="44.41953" lon="6.40313">
        <ele>1580</ele>
        <time>2021-09-01T14:43:48.000Z</time>
      </trkpt>
      <trkpt lat="44.41954" lon="6.40311">
        <ele>1580</ele>
        <time>2021-09-01T14:43:49.000Z</time>
      </trkpt>
      <trkpt lat="44.41956" lon="6.4031">
        <ele>1580</ele>
        <time>2021-09-01T14:43:50.000Z</time>
      </trkpt>
      <trkpt lat="44.41957" lon="6.40309">
        <ele>1580</ele>
        <time>2021-09-01T14:43:51.000Z</time>
      </trkpt>
      <trkpt lat="44.41958" lon="6.40308">
        <ele>1581</ele>
        <time>2021-09-01T14:43:52.000Z</time>
      </trkpt>
      <trkpt lat="44.41959" lon="6.40307">
        <ele>1581</ele>
        <time>2021-09-01T14:43:53.000Z</time>
      </trkpt>
      <trkpt lat="44.41961" lon="6.40305">
        <ele>1581</ele>
        <time>2021-09-01T14:43:54.000Z</time>
      </trkpt>
      <trkpt lat="44.41962" lon="6.40304">
        <ele>1581</ele>
        <time>2021-09-01T14:43:55.000Z</time>
      </trkpt>
      <trkpt lat="44.41962" lon="6.40303">
        <ele>1581</ele>
        <time>2021-09-01T14:43:56.000Z</time>
      </trkpt>
      <trkpt lat="44.41963" lon="6.40302">
        <ele>1582</ele>
        <time>2021-09-01T14:43:57.000Z</time>
      </trkpt>
      <trkpt lat="44.41963" lon="6.40301">
        <ele>1582</ele>
        <time>2021-09-01T14:43:58.000Z</time>
      </trkpt>
      <trkpt lat="44.41964" lon="6.403">
        <ele>1582</ele>
        <time>2021-09-01T14:43:59.000Z</time>
      </trkpt>
      <trkpt lat="44.41964" lon="6.40299">
        <ele>1582</ele>
        <time>2021-09-01T14:44:00.000Z</time>
      </trkpt>
      <trkpt lat="44.41964" lon="6.40299">
        <ele>1582</ele>
        <time>2021-09-01T14:44:01.000Z</time>
      </trkpt>
      <trkpt lat="44.41966" lon="6.40297">
        <ele>1583</ele>
        <time>2021-09-01T14:44:02.000Z</time>
      </trkpt>
      <trkpt lat="44.41967" lon="6.40296">
        <ele>1583</ele>
        <time>2021-09-01T14:44:03.000Z</time>
      </trkpt>
      <trkpt lat="44.41968" lon="6.40295">
        <ele>1583</ele>
        <time>2021-09-01T14:44:04.000Z</time>
      </trkpt>
      <trkpt lat="44.41972" lon="6.40294">
        <ele>1584</ele>
        <time>2021-09-01T14:44:05.000Z</time>
      </trkpt>
      <trkpt lat="44.41975" lon="6.40294">
        <ele>1585</ele>
        <time>2021-09-01T14:44:06.000Z</time>
      </trkpt>
      <trkpt lat="44.41978" lon="6.40293">
        <ele>1585</ele>
        <time>2021-09-01T14:44:07.000Z</time>
      </trkpt>
      <trkpt lat="44.4198" lon="6.40292">
        <ele>1586</ele>
        <time>2021-09-01T14:44:08.000Z</time>
      </trkpt>
      <trkpt lat="44.41982" lon="6.4029">
        <ele>1586</ele>
        <time>2021-09-01T14:44:09.000Z</time>
      </trkpt>
      <trkpt lat="44.41984" lon="6.40289">
        <ele>1586</ele>
        <time>2021-09-01T14:44:10.000Z</time>
      </trkpt>
      <trkpt lat="44.41987" lon="6.40289">
        <ele>1587</ele>
        <time>2021-09-01T14:44:11.000Z</time>
      </trkpt>
      <trkpt lat="44.41989" lon="6.40289">
        <ele>1587</ele>
        <time>2021-09-01T14:44:12.000Z</time>
      </trkpt>
      <trkpt lat="44.4199" lon="6.40288">
        <ele>1588</ele>
        <time>2021-09-01T14:44:13.000Z</time>
      </trkpt>
      <trkpt lat="44.41993" lon="6.40287">
        <ele>1588</ele>
        <time>2021-09-01T14:44:14.000Z</time>
      </trkpt>
      <trkpt lat="44.41995" lon="6.40286">
        <ele>1589</ele>
        <time>2021-09-01T14:44:15.000Z</time>
      </trkpt>
      <trkpt lat="44.41997" lon="6.40286">
        <ele>1589</ele>
        <time>2021-09-01T14:44:16.000Z</time>
      </trkpt>
      <trkpt lat="44.41998" lon="6.40286">
        <ele>1589</ele>
        <time>2021-09-01T14:44:17.000Z</time>
      </trkpt>
      <trkpt lat="44.41999" lon="6.40286">
        <ele>1589</ele>
        <time>2021-09-01T14:44:18.000Z</time>
      </trkpt>
      <trkpt lat="44.42002" lon="6.40285">
        <ele>1590</ele>
        <time>2021-09-01T14:44:19.000Z</time>
      </trkpt>
      <trkpt lat="44.42003" lon="6.40285">
        <ele>1590</ele>
        <time>2021-09-01T14:44:20.000Z</time>
      </trkpt>
      <trkpt lat="44.42005" lon="6.40284">
        <ele>1590</ele>
        <time>2021-09-01T14:44:21.000Z</time>
      </trkpt>
      <trkpt lat="44.42006" lon="6.40284">
        <ele>1591</ele>
        <time>2021-09-01T14:44:22.000Z</time>
      </trkpt>
      <trkpt lat="44.42008" lon="6.40283">
        <ele>1591</ele>
        <time>2021-09-01T14:44:23.000Z</time>
      </trkpt>
      <trkpt lat="44.4201" lon="6.40283">
        <ele>1592</ele>
        <time>2021-09-01T14:44:24.000Z</time>
      </trkpt>
      <trkpt lat="44.42014" lon="6.40283">
        <ele>1592</ele>
        <time>2021-09-01T14:44:25.000Z</time>
      </trkpt>
      <trkpt lat="44.42016" lon="6.40283">
        <ele>1592</ele>
        <time>2021-09-01T14:44:26.000Z</time>
      </trkpt>
      <trkpt lat="44.42018" lon="6.40282">
        <ele>1593</ele>
        <time>2021-09-01T14:44:27.000Z</time>
      </trkpt>
      <trkpt lat="44.4202" lon="6.40282">
        <ele>1593</ele>
        <time>2021-09-01T14:44:28.000Z</time>
      </trkpt>
      <trkpt lat="44.42022" lon="6.40282">
        <ele>1593</ele>
        <time>2021-09-01T14:44:29.000Z</time>
      </trkpt>
      <trkpt lat="44.42023" lon="6.40282">
        <ele>1593</ele>
        <time>2021-09-01T14:44:30.000Z</time>
      </trkpt>
      <trkpt lat="44.42025" lon="6.40281">
        <ele>1594</ele>
        <time>2021-09-01T14:44:31.000Z</time>
      </trkpt>
      <trkpt lat="44.42028" lon="6.4028">
        <ele>1594</ele>
        <time>2021-09-01T14:44:32.000Z</time>
      </trkpt>
      <trkpt lat="44.42031" lon="6.40278">
        <ele>1593</ele>
        <time>2021-09-01T14:44:33.000Z</time>
      </trkpt>
      <trkpt lat="44.42033" lon="6.40276">
        <ele>1593</ele>
        <time>2021-09-01T14:44:34.000Z</time>
      </trkpt>
      <trkpt lat="44.42034" lon="6.40274">
        <ele>1594</ele>
        <time>2021-09-01T14:44:35.000Z</time>
      </trkpt>
      <trkpt lat="44.42035" lon="6.40273">
        <ele>1594</ele>
        <time>2021-09-01T14:44:36.000Z</time>
      </trkpt>
      <trkpt lat="44.42036" lon="6.40272">
        <ele>1595</ele>
        <time>2021-09-01T14:44:37.000Z</time>
      </trkpt>
      <trkpt lat="44.42038" lon="6.40271">
        <ele>1595</ele>
        <time>2021-09-01T14:44:38.000Z</time>
      </trkpt>
      <trkpt lat="44.42039" lon="6.4027">
        <ele>1596</ele>
        <time>2021-09-01T14:44:39.000Z</time>
      </trkpt>
      <trkpt lat="44.4204" lon="6.40268">
        <ele>1596</ele>
        <time>2021-09-01T14:44:40.000Z</time>
      </trkpt>
      <trkpt lat="44.42041" lon="6.40266">
        <ele>1597</ele>
        <time>2021-09-01T14:44:41.000Z</time>
      </trkpt>
      <trkpt lat="44.42043" lon="6.40265">
        <ele>1597</ele>
        <time>2021-09-01T14:44:42.000Z</time>
      </trkpt>
      <trkpt lat="44.42044" lon="6.40263">
        <ele>1597</ele>
        <time>2021-09-01T14:44:43.000Z</time>
      </trkpt>
      <trkpt lat="44.42046" lon="6.40262">
        <ele>1597</ele>
        <time>2021-09-01T14:44:44.000Z</time>
      </trkpt>
      <trkpt lat="44.42047" lon="6.40261">
        <ele>1597</ele>
        <time>2021-09-01T14:44:45.000Z</time>
      </trkpt>
      <trkpt lat="44.42047" lon="6.4026">
        <ele>1597</ele>
        <time>2021-09-01T14:44:46.000Z</time>
      </trkpt>
      <trkpt lat="44.42049" lon="6.4026">
        <ele>1597</ele>
        <time>2021-09-01T14:44:47.000Z</time>
      </trkpt>
      <trkpt lat="44.42051" lon="6.4026">
        <ele>1599</ele>
        <time>2021-09-01T14:44:48.000Z</time>
      </trkpt>
      <trkpt lat="44.42052" lon="6.4026">
        <ele>1599</ele>
        <time>2021-09-01T14:44:49.000Z</time>
      </trkpt>
      <trkpt lat="44.42053" lon="6.4026">
        <ele>1599</ele>
        <time>2021-09-01T14:44:50.000Z</time>
      </trkpt>
      <trkpt lat="44.42054" lon="6.4026">
        <ele>1600</ele>
        <time>2021-09-01T14:44:51.000Z</time>
      </trkpt>
      <trkpt lat="44.42054" lon="6.40259">
        <ele>1600</ele>
        <time>2021-09-01T14:44:52.000Z</time>
      </trkpt>
      <trkpt lat="44.42055" lon="6.4026">
        <ele>1599</ele>
        <time>2021-09-01T14:44:53.000Z</time>
      </trkpt>
      <trkpt lat="44.42056" lon="6.40259">
        <ele>1599</ele>
        <time>2021-09-01T14:44:54.000Z</time>
      </trkpt>
      <trkpt lat="44.42057" lon="6.40259">
        <ele>1599</ele>
        <time>2021-09-01T14:44:55.000Z</time>
      </trkpt>
      <trkpt lat="44.42058" lon="6.40259">
        <ele>1599</ele>
        <time>2021-09-01T14:44:56.000Z</time>
      </trkpt>
      <trkpt lat="44.42058" lon="6.40259">
        <ele>1600</ele>
        <time>2021-09-01T14:44:57.000Z</time>
      </trkpt>
      <trkpt lat="44.42059" lon="6.4026">
        <ele>1600</ele>
        <time>2021-09-01T14:44:58.000Z</time>
      </trkpt>
      <trkpt lat="44.4206" lon="6.4026">
        <ele>1600</ele>
        <time>2021-09-01T14:44:59.000Z</time>
      </trkpt>
      <trkpt lat="44.4206" lon="6.4026">
        <ele>1601</ele>
        <time>2021-09-01T14:45:00.000Z</time>
      </trkpt>
      <trkpt lat="44.4206" lon="6.4026">
        <ele>1601</ele>
        <time>2021-09-01T14:45:01.000Z</time>
      </trkpt>
      <trkpt lat="44.4206" lon="6.4026">
        <ele>1601</ele>
        <time>2021-09-01T14:45:02.000Z</time>
      </trkpt>
      <trkpt lat="44.42059" lon="6.4026">
        <ele>1601</ele>
        <time>2021-09-01T14:45:03.000Z</time>
      </trkpt>
      <trkpt lat="44.42059" lon="6.4026">
        <ele>1602</ele>
        <time>2021-09-01T14:45:04.000Z</time>
      </trkpt>
      <trkpt lat="44.42058" lon="6.4026">
        <ele>1602</ele>
        <time>2021-09-01T14:45:05.000Z</time>
      </trkpt>
      <trkpt lat="44.42057" lon="6.4026">
        <ele>1602</ele>
        <time>2021-09-01T14:45:06.000Z</time>
      </trkpt>
      <trkpt lat="44.42057" lon="6.40259">
        <ele>1602</ele>
        <time>2021-09-01T14:45:07.000Z</time>
      </trkpt>
      <trkpt lat="44.42057" lon="6.40259">
        <ele>1602</ele>
        <time>2021-09-01T14:45:08.000Z</time>
      </trkpt>
      <trkpt lat="44.42057" lon="6.40258">
        <ele>1603</ele>
        <time>2021-09-01T14:45:09.000Z</time>
      </trkpt>
      <trkpt lat="44.42057" lon="6.40258">
        <ele>1603</ele>
        <time>2021-09-01T14:45:10.000Z</time>
      </trkpt>
      <trkpt lat="44.42057" lon="6.40258">
        <ele>1603</ele>
        <time>2021-09-01T14:45:11.000Z</time>
      </trkpt>
      <trkpt lat="44.42057" lon="6.40258">
        <ele>1603</ele>
        <time>2021-09-01T14:45:12.000Z</time>
      </trkpt>
      <trkpt lat="44.42057" lon="6.40258">
        <ele>1603</ele>
        <time>2021-09-01T14:45:13.000Z</time>
      </trkpt>
      <trkpt lat="44.42058" lon="6.40258">
        <ele>1604</ele>
        <time>2021-09-01T14:45:14.000Z</time>
      </trkpt>
      <trkpt lat="44.42058" lon="6.40257">
        <ele>1604</ele>
        <time>2021-09-01T14:45:15.000Z</time>
      </trkpt>
      <trkpt lat="44.42058" lon="6.40257">
        <ele>1604</ele>
        <time>2021-09-01T14:45:16.000Z</time>
      </trkpt>
      <trkpt lat="44.42058" lon="6.40257">
        <ele>1604</ele>
        <time>2021-09-01T14:45:17.000Z</time>
      </trkpt>
      <trkpt lat="44.42058" lon="6.40257">
        <ele>1604</ele>
        <time>2021-09-01T14:45:18.000Z</time>
      </trkpt>
      <trkpt lat="44.42059" lon="6.40258">
        <ele>1604</ele>
        <time>2021-09-01T14:45:19.000Z</time>
      </trkpt>
      <trkpt lat="44.42059" lon="6.40258">
        <ele>1605</ele>
        <time>2021-09-01T14:45:20.000Z</time>
      </trkpt>
      <trkpt lat="44.42059" lon="6.40258">
        <ele>1605</ele>
        <time>2021-09-01T14:45:21.000Z</time>
      </trkpt>
      <trkpt lat="44.42058" lon="6.40258">
        <ele>1605</ele>
        <time>2021-09-01T14:45:22.000Z</time>
      </trkpt>
      <trkpt lat="44.42058" lon="6.40259">
        <ele>1604</ele>
        <time>2021-09-01T14:45:23.000Z</time>
      </trkpt>
      <trkpt lat="44.42058" lon="6.40259">
        <ele>1605</ele>
        <time>2021-09-01T14:45:24.000Z</time>
      </trkpt>
      <trkpt lat="44.42058" lon="6.40259">
        <ele>1605</ele>
        <time>2021-09-01T14:45:25.000Z</time>
      </trkpt>
      <trkpt lat="44.42058" lon="6.40259">
        <ele>1606</ele>
        <time>2021-09-01T14:45:26.000Z</time>
      </trkpt>
      <trkpt lat="44.42059" lon="6.4026">
        <ele>1606</ele>
        <time>2021-09-01T14:45:27.000Z</time>
      </trkpt>
      <trkpt lat="44.42059" lon="6.4026">
        <ele>1606</ele>
        <time>2021-09-01T14:45:28.000Z</time>
      </trkpt>
      <trkpt lat="44.42059" lon="6.4026">
        <ele>1607</ele>
        <time>2021-09-01T14:45:29.000Z</time>
      </trkpt>
      <trkpt lat="44.42059" lon="6.4026">
        <ele>1607</ele>
        <time>2021-09-01T14:45:30.000Z</time>
      </trkpt>
      <trkpt lat="44.42059" lon="6.4026">
        <ele>1607</ele>
        <time>2021-09-01T14:45:31.000Z</time>
      </trkpt>
      <trkpt lat="44.4206" lon="6.4026">
        <ele>1608</ele>
        <time>2021-09-01T14:45:32.000Z</time>
      </trkpt>
      <trkpt lat="44.4206" lon="6.4026">
        <ele>1608</ele>
        <time>2021-09-01T14:45:33.000Z</time>
      </trkpt>
      <trkpt lat="44.4206" lon="6.4026">
        <ele>1608</ele>
        <time>2021-09-01T14:45:34.000Z</time>
      </trkpt>
      <trkpt lat="44.4206" lon="6.40261">
        <ele>1609</ele>
        <time>2021-09-01T14:45:35.000Z</time>
      </trkpt>
      <trkpt lat="44.42059" lon="6.40261">
        <ele>1610</ele>
        <time>2021-09-01T14:45:36.000Z</time>
      </trkpt>
      <trkpt lat="44.42059" lon="6.40262">
        <ele>1610</ele>
        <time>2021-09-01T14:45:37.000Z</time>
      </trkpt>
      <trkpt lat="44.42058" lon="6.40262">
        <ele>1612</ele>
        <time>2021-09-01T14:45:38.000Z</time>
      </trkpt>
      <trkpt lat="44.42058" lon="6.40262">
        <ele>1612</ele>
        <time>2021-09-01T14:45:39.000Z</time>
      </trkpt>
      <trkpt lat="44.42058" lon="6.40263">
        <ele>1613</ele>
        <time>2021-09-01T14:45:40.000Z</time>
      </trkpt>
      <trkpt lat="44.42057" lon="6.40264">
        <ele>1614</ele>
        <time>2021-09-01T14:45:41.000Z</time>
      </trkpt>
      <trkpt lat="44.42056" lon="6.40265">
        <ele>1614</ele>
        <time>2021-09-01T14:45:42.000Z</time>
      </trkpt>
      <trkpt lat="44.42056" lon="6.40265">
        <ele>1615</ele>
        <time>2021-09-01T14:45:43.000Z</time>
      </trkpt>
      <trkpt lat="44.42056" lon="6.40266">
        <ele>1616</ele>
        <time>2021-09-01T14:45:44.000Z</time>
      </trkpt>
      <trkpt lat="44.42055" lon="6.40266">
        <ele>1617</ele>
        <time>2021-09-01T14:45:45.000Z</time>
      </trkpt>
      <trkpt lat="44.42055" lon="6.40267">
        <ele>1617</ele>
        <time>2021-09-01T14:45:46.000Z</time>
      </trkpt>
      <trkpt lat="44.42055" lon="6.40267">
        <ele>1617</ele>
        <time>2021-09-01T14:45:47.000Z</time>
      </trkpt>
      <trkpt lat="44.42055" lon="6.40268">
        <ele>1618</ele>
        <time>2021-09-01T14:45:48.000Z</time>
      </trkpt>
      <trkpt lat="44.42055" lon="6.40268">
        <ele>1619</ele>
        <time>2021-09-01T14:45:49.000Z</time>
      </trkpt>
      <trkpt lat="44.42055" lon="6.40269">
        <ele>1619</ele>
        <time>2021-09-01T14:45:50.000Z</time>
      </trkpt>
      <trkpt lat="44.42055" lon="6.40269">
        <ele>1620</ele>
        <time>2021-09-01T14:45:51.000Z</time>
      </trkpt>
      <trkpt lat="44.42055" lon="6.40269">
        <ele>1621</ele>
        <time>2021-09-01T14:45:52.000Z</time>
      </trkpt>
      <trkpt lat="44.42055" lon="6.4027">
        <ele>1621</ele>
        <time>2021-09-01T14:45:53.000Z</time>
      </trkpt>
      <trkpt lat="44.42055" lon="6.4027">
        <ele>1622</ele>
        <time>2021-09-01T14:45:54.000Z</time>
      </trkpt>
      <trkpt lat="44.42054" lon="6.4027">
        <ele>1621</ele>
        <time>2021-09-01T14:45:55.000Z</time>
      </trkpt>
      <trkpt lat="44.42054" lon="6.4027">
        <ele>1621</ele>
        <time>2021-09-01T14:45:56.000Z</time>
      </trkpt>
      <trkpt lat="44.42054" lon="6.4027">
        <ele>1622</ele>
        <time>2021-09-01T14:45:57.000Z</time>
      </trkpt>
      <trkpt lat="44.42054" lon="6.40269">
        <ele>1622</ele>
        <time>2021-09-01T14:45:58.000Z</time>
      </trkpt>
      <trkpt lat="44.42054" lon="6.40269">
        <ele>1622</ele>
        <time>2021-09-01T14:45:59.000Z</time>
      </trkpt>
      <trkpt lat="44.42054" lon="6.4027">
        <ele>1622</ele>
        <time>2021-09-01T14:46:00.000Z</time>
      </trkpt>
      <trkpt lat="44.42054" lon="6.4027">
        <ele>1622</ele>
        <time>2021-09-01T14:46:01.000Z</time>
      </trkpt>
      <trkpt lat="44.42054" lon="6.4027">
        <ele>1622</ele>
        <time>2021-09-01T14:46:02.000Z</time>
      </trkpt>
      <trkpt lat="44.42054" lon="6.4027">
        <ele>1622</ele>
        <time>2021-09-01T14:46:03.000Z</time>
      </trkpt>
      <trkpt lat="44.42054" lon="6.4027">
        <ele>1623</ele>
        <time>2021-09-01T14:46:04.000Z</time>
      </trkpt>
      <trkpt lat="44.42054" lon="6.40271">
        <ele>1623</ele>
        <time>2021-09-01T14:46:05.000Z</time>
      </trkpt>
      <trkpt lat="44.42054" lon="6.40271">
        <ele>1624</ele>
        <time>2021-09-01T14:46:06.000Z</time>
      </trkpt>
      <trkpt lat="44.42054" lon="6.40272">
        <ele>1624</ele>
        <time>2021-09-01T14:46:07.000Z</time>
      </trkpt>
      <trkpt lat="44.42055" lon="6.40272">
        <ele>1625</ele>
        <time>2021-09-01T14:46:08.000Z</time>
      </trkpt>
      <trkpt lat="44.42055" lon="6.40272">
        <ele>1625</ele>
        <time>2021-09-01T14:46:09.000Z</time>
      </trkpt>
      <trkpt lat="44.42055" lon="6.40272">
        <ele>1625</ele>
        <time>2021-09-01T14:46:10.000Z</time>
      </trkpt>
      <trkpt lat="44.42055" lon="6.40273">
        <ele>1625</ele>
        <time>2021-09-01T14:46:11.000Z</time>
      </trkpt>
      <trkpt lat="44.42056" lon="6.40274">
        <ele>1626</ele>
        <time>2021-09-01T14:46:12.000Z</time>
      </trkpt>
      <trkpt lat="44.42056" lon="6.40274">
        <ele>1627</ele>
        <time>2021-09-01T14:46:13.000Z</time>
      </trkpt>
      <trkpt lat="44.42056" lon="6.40275">
        <ele>1628</ele>
        <time>2021-09-01T14:46:14.000Z</time>
      </trkpt>
      <trkpt lat="44.42056" lon="6.40275">
        <ele>1629</ele>
        <time>2021-09-01T14:46:15.000Z</time>
      </trkpt>
      <trkpt lat="44.42056" lon="6.40276">
        <ele>1629</ele>
        <time>2021-09-01T14:46:16.000Z</time>
      </trkpt>
      <trkpt lat="44.42056" lon="6.40276">
        <ele>1630</ele>
        <time>2021-09-01T14:46:17.000Z</time>
      </trkpt>
      <trkpt lat="44.42056" lon="6.40277">
        <ele>1630</ele>
        <time>2021-09-01T14:46:18.000Z</time>
      </trkpt>
      <trkpt lat="44.42057" lon="6.40277">
        <ele>1630</ele>
        <time>2021-09-01T14:46:19.000Z</time>
      </trkpt>
      <trkpt lat="44.42057" lon="6.40278">
        <ele>1631</ele>
        <time>2021-09-01T14:46:20.000Z</time>
      </trkpt>
      <trkpt lat="44.42057" lon="6.40278">
        <ele>1632</ele>
        <time>2021-09-01T14:46:21.000Z</time>
      </trkpt>
      <trkpt lat="44.42057" lon="6.40279">
        <ele>1632</ele>
        <time>2021-09-01T14:46:22.000Z</time>
      </trkpt>
      <trkpt lat="44.42057" lon="6.40279">
        <ele>1632</ele>
        <time>2021-09-01T14:46:23.000Z</time>
      </trkpt>
      <trkpt lat="44.42057" lon="6.40279">
        <ele>1632</ele>
        <time>2021-09-01T14:46:24.000Z</time>
      </trkpt>
      <trkpt lat="44.42057" lon="6.40279">
        <ele>1632</ele>
        <time>2021-09-01T14:46:25.000Z</time>
      </trkpt>
      <trkpt lat="44.42057" lon="6.40279">
        <ele>1632</ele>
        <time>2021-09-01T14:46:26.000Z</time>
      </trkpt>
      <trkpt lat="44.42057" lon="6.40279">
        <ele>1632</ele>
        <time>2021-09-01T14:46:27.000Z</time>
      </trkpt>
      <trkpt lat="44.42057" lon="6.40279">
        <ele>1632</ele>
        <time>2021-09-01T14:46:28.000Z</time>
      </trkpt>
      <trkpt lat="44.42057" lon="6.40279">
        <ele>1631</ele>
        <time>2021-09-01T14:46:29.000Z</time>
      </trkpt>
      <trkpt lat="44.42057" lon="6.40278">
        <ele>1631</ele>
        <time>2021-09-01T14:46:30.000Z</time>
      </trkpt>
      <trkpt lat="44.42057" lon="6.40278">
        <ele>1630</ele>
        <time>2021-09-01T14:46:31.000Z</time>
      </trkpt>
      <trkpt lat="44.42057" lon="6.40277">
        <ele>1630</ele>
        <time>2021-09-01T14:46:32.000Z</time>
      </trkpt>
      <trkpt lat="44.42055" lon="6.40273">
        <ele>1629</ele>
        <time>2021-09-01T14:46:33.000Z</time>
      </trkpt>
      <trkpt lat="44.42054" lon="6.40271">
        <ele>1628</ele>
        <time>2021-09-01T14:46:34.000Z</time>
      </trkpt>
      <trkpt lat="44.42054" lon="6.4027">
        <ele>1627</ele>
        <time>2021-09-01T14:46:35.000Z</time>
      </trkpt>
      <trkpt lat="44.42053" lon="6.40269">
        <ele>1626</ele>
        <time>2021-09-01T14:46:36.000Z</time>
      </trkpt>
      <trkpt lat="44.42053" lon="6.40269">
        <ele>1626</ele>
        <time>2021-09-01T14:46:37.000Z</time>
      </trkpt>
      <trkpt lat="44.42054" lon="6.40268">
        <ele>1626</ele>
        <time>2021-09-01T14:46:38.000Z</time>
      </trkpt>
      <trkpt lat="44.42054" lon="6.40268">
        <ele>1626</ele>
        <time>2021-09-01T14:46:39.000Z</time>
      </trkpt>
      <trkpt lat="44.42054" lon="6.40267">
        <ele>1626</ele>
        <time>2021-09-01T14:46:40.000Z</time>
      </trkpt>
      <trkpt lat="44.42054" lon="6.40267">
        <ele>1626</ele>
        <time>2021-09-01T14:46:41.000Z</time>
      </trkpt>
      <trkpt lat="44.42054" lon="6.40267">
        <ele>1626</ele>
        <time>2021-09-01T14:46:42.000Z</time>
      </trkpt>
      <trkpt lat="44.42053" lon="6.40266">
        <ele>1626</ele>
        <time>2021-09-01T14:46:43.000Z</time>
      </trkpt>
      <trkpt lat="44.42053" lon="6.40266">
        <ele>1625</ele>
        <time>2021-09-01T14:46:44.000Z</time>
      </trkpt>
      <trkpt lat="44.42054" lon="6.40266">
        <ele>1625</ele>
        <time>2021-09-01T14:46:45.000Z</time>
      </trkpt>
      <trkpt lat="44.42054" lon="6.40266">
        <ele>1624</ele>
        <time>2021-09-01T14:46:46.000Z</time>
      </trkpt>
      <trkpt lat="44.42055" lon="6.40266">
        <ele>1624</ele>
        <time>2021-09-01T14:46:47.000Z</time>
      </trkpt>
      <trkpt lat="44.42055" lon="6.40266">
        <ele>1624</ele>
        <time>2021-09-01T14:46:48.000Z</time>
      </trkpt>
      <trkpt lat="44.42055" lon="6.40266">
        <ele>1624</ele>
        <time>2021-09-01T14:46:49.000Z</time>
      </trkpt>
      <trkpt lat="44.42055" lon="6.40266">
        <ele>1623</ele>
        <time>2021-09-01T14:46:50.000Z</time>
      </trkpt>
      <trkpt lat="44.42055" lon="6.40266">
        <ele>1623</ele>
        <time>2021-09-01T14:46:51.000Z</time>
      </trkpt>
      <trkpt lat="44.42055" lon="6.40266">
        <ele>1623</ele>
        <time>2021-09-01T14:46:52.000Z</time>
      </trkpt>
      <trkpt lat="44.42056" lon="6.40266">
        <ele>1623</ele>
        <time>2021-09-01T14:46:53.000Z</time>
      </trkpt>
      <trkpt lat="44.42056" lon="6.40266">
        <ele>1624</ele>
        <time>2021-09-01T14:46:54.000Z</time>
      </trkpt>
      <trkpt lat="44.42056" lon="6.40266">
        <ele>1624</ele>
        <time>2021-09-01T14:46:55.000Z</time>
      </trkpt>
      <trkpt lat="44.42056" lon="6.40266">
        <ele>1623</ele>
        <time>2021-09-01T14:46:56.000Z</time>
      </trkpt>
      <trkpt lat="44.42056" lon="6.40267">
        <ele>1623</ele>
        <time>2021-09-01T14:46:57.000Z</time>
      </trkpt>
      <trkpt lat="44.42056" lon="6.40266">
        <ele>1623</ele>
        <time>2021-09-01T14:46:58.000Z</time>
      </trkpt>
      <trkpt lat="44.42055" lon="6.40266">
        <ele>1623</ele>
        <time>2021-09-01T14:46:59.000Z</time>
      </trkpt>
      <trkpt lat="44.42056" lon="6.40267">
        <ele>1623</ele>
        <time>2021-09-01T14:47:00.000Z</time>
      </trkpt>
      <trkpt lat="44.42055" lon="6.40267">
        <ele>1622</ele>
        <time>2021-09-01T14:47:01.000Z</time>
      </trkpt>
      <trkpt lat="44.42055" lon="6.40267">
        <ele>1621</ele>
        <time>2021-09-01T14:47:02.000Z</time>
      </trkpt>
      <trkpt lat="44.42056" lon="6.40267">
        <ele>1621</ele>
        <time>2021-09-01T14:47:03.000Z</time>
      </trkpt>
      <trkpt lat="44.42056" lon="6.40267">
        <ele>1620</ele>
        <time>2021-09-01T14:47:04.000Z</time>
      </trkpt>
      <trkpt lat="44.42056" lon="6.40267">
        <ele>1620</ele>
        <time>2021-09-01T14:47:05.000Z</time>
      </trkpt>
      <trkpt lat="44.42056" lon="6.40267">
        <ele>1619</ele>
        <time>2021-09-01T14:47:06.000Z</time>
      </trkpt>
      <trkpt lat="44.42056" lon="6.40267">
        <ele>1619</ele>
        <time>2021-09-01T14:47:07.000Z</time>
      </trkpt>
      <trkpt lat="44.42056" lon="6.40268">
        <ele>1619</ele>
        <time>2021-09-01T14:47:08.000Z</time>
      </trkpt>
      <trkpt lat="44.42056" lon="6.40268">
        <ele>1619</ele>
        <time>2021-09-01T14:47:09.000Z</time>
      </trkpt>
      <trkpt lat="44.42056" lon="6.40268">
        <ele>1619</ele>
        <time>2021-09-01T14:47:10.000Z</time>
      </trkpt>
      <trkpt lat="44.42056" lon="6.40269">
        <ele>1619</ele>
        <time>2021-09-01T14:47:11.000Z</time>
      </trkpt>
      <trkpt lat="44.42055" lon="6.40269">
        <ele>1619</ele>
        <time>2021-09-01T14:47:12.000Z</time>
      </trkpt>
      <trkpt lat="44.42055" lon="6.40269">
        <ele>1619</ele>
        <time>2021-09-01T14:47:13.000Z</time>
      </trkpt>
      <trkpt lat="44.42055" lon="6.40269">
        <ele>1618</ele>
        <time>2021-09-01T14:47:14.000Z</time>
      </trkpt>
      <trkpt lat="44.42056" lon="6.4027">
        <ele>1618</ele>
        <time>2021-09-01T14:47:15.000Z</time>
      </trkpt>
      <trkpt lat="44.42056" lon="6.4027">
        <ele>1618</ele>
        <time>2021-09-01T14:47:16.000Z</time>
      </trkpt>
      <trkpt lat="44.42057" lon="6.4027">
        <ele>1617</ele>
        <time>2021-09-01T14:47:17.000Z</time>
      </trkpt>
      <trkpt lat="44.42057" lon="6.40271">
        <ele>1617</ele>
        <time>2021-09-01T14:47:18.000Z</time>
      </trkpt>
      <trkpt lat="44.42058" lon="6.40271">
        <ele>1616</ele>
        <time>2021-09-01T14:47:19.000Z</time>
      </trkpt>
      <trkpt lat="44.42058" lon="6.40271">
        <ele>1616</ele>
        <time>2021-09-01T14:47:20.000Z</time>
      </trkpt>
      <trkpt lat="44.42059" lon="6.40272">
        <ele>1614</ele>
        <time>2021-09-01T14:47:21.000Z</time>
      </trkpt>
      <trkpt lat="44.4206" lon="6.40272">
        <ele>1614</ele>
        <time>2021-09-01T14:47:22.000Z</time>
      </trkpt>
      <trkpt lat="44.42061" lon="6.40271">
        <ele>1613</ele>
        <time>2021-09-01T14:47:23.000Z</time>
      </trkpt>
      <trkpt lat="44.42063" lon="6.40271">
        <ele>1613</ele>
        <time>2021-09-01T14:47:24.000Z</time>
      </trkpt>
      <trkpt lat="44.42064" lon="6.4027">
        <ele>1612</ele>
        <time>2021-09-01T14:47:25.000Z</time>
      </trkpt>
      <trkpt lat="44.42065" lon="6.4027">
        <ele>1612</ele>
        <time>2021-09-01T14:47:26.000Z</time>
      </trkpt>
      <trkpt lat="44.42066" lon="6.40269">
        <ele>1611</ele>
        <time>2021-09-01T14:47:27.000Z</time>
      </trkpt>
      <trkpt lat="44.42066" lon="6.40269">
        <ele>1611</ele>
        <time>2021-09-01T14:47:28.000Z</time>
      </trkpt>
      <trkpt lat="44.42067" lon="6.40269">
        <ele>1610</ele>
        <time>2021-09-01T14:47:29.000Z</time>
      </trkpt>
      <trkpt lat="44.42069" lon="6.40267">
        <ele>1609</ele>
        <time>2021-09-01T14:47:30.000Z</time>
      </trkpt>
      <trkpt lat="44.4207" lon="6.40265">
        <ele>1607</ele>
        <time>2021-09-01T14:47:31.000Z</time>
      </trkpt>
      <trkpt lat="44.42071" lon="6.40263">
        <ele>1606</ele>
        <time>2021-09-01T14:47:32.000Z</time>
      </trkpt>
      <trkpt lat="44.42071" lon="6.40262">
        <ele>1605</ele>
        <time>2021-09-01T14:47:33.000Z</time>
      </trkpt>
      <trkpt lat="44.42071" lon="6.40261">
        <ele>1604</ele>
        <time>2021-09-01T14:47:34.000Z</time>
      </trkpt>
      <trkpt lat="44.42072" lon="6.4026">
        <ele>1605</ele>
        <time>2021-09-01T14:47:35.000Z</time>
      </trkpt>
      <trkpt lat="44.42073" lon="6.40259">
        <ele>1604</ele>
        <time>2021-09-01T14:47:36.000Z</time>
      </trkpt>
      <trkpt lat="44.42074" lon="6.40259">
        <ele>1604</ele>
        <time>2021-09-01T14:47:37.000Z</time>
      </trkpt>
      <trkpt lat="44.42074" lon="6.40259">
        <ele>1604</ele>
        <time>2021-09-01T14:47:38.000Z</time>
      </trkpt>
      <trkpt lat="44.42074" lon="6.40259">
        <ele>1604</ele>
        <time>2021-09-01T14:47:39.000Z</time>
      </trkpt>
      <trkpt lat="44.42075" lon="6.40259">
        <ele>1604</ele>
        <time>2021-09-01T14:47:40.000Z</time>
      </trkpt>
      <trkpt lat="44.42075" lon="6.40259">
        <ele>1604</ele>
        <time>2021-09-01T14:47:41.000Z</time>
      </trkpt>
      <trkpt lat="44.42075" lon="6.40259">
        <ele>1604</ele>
        <time>2021-09-01T14:47:42.000Z</time>
      </trkpt>
      <trkpt lat="44.42076" lon="6.40259">
        <ele>1605</ele>
        <time>2021-09-01T14:47:43.000Z</time>
      </trkpt>
      <trkpt lat="44.42076" lon="6.4026">
        <ele>1604</ele>
        <time>2021-09-01T14:47:44.000Z</time>
      </trkpt>
      <trkpt lat="44.42076" lon="6.40261">
        <ele>1605</ele>
        <time>2021-09-01T14:47:45.000Z</time>
      </trkpt>
      <trkpt lat="44.42077" lon="6.40262">
        <ele>1605</ele>
        <time>2021-09-01T14:47:46.000Z</time>
      </trkpt>
      <trkpt lat="44.42077" lon="6.40263">
        <ele>1605</ele>
        <time>2021-09-01T14:47:47.000Z</time>
      </trkpt>
      <trkpt lat="44.42077" lon="6.40263">
        <ele>1605</ele>
        <time>2021-09-01T14:47:48.000Z</time>
      </trkpt>
      <trkpt lat="44.42077" lon="6.40264">
        <ele>1605</ele>
        <time>2021-09-01T14:47:49.000Z</time>
      </trkpt>
      <trkpt lat="44.42077" lon="6.40265">
        <ele>1604</ele>
        <time>2021-09-01T14:47:50.000Z</time>
      </trkpt>
      <trkpt lat="44.42077" lon="6.40265">
        <ele>1604</ele>
        <time>2021-09-01T14:47:51.000Z</time>
      </trkpt>
      <trkpt lat="44.42077" lon="6.40265">
        <ele>1604</ele>
        <time>2021-09-01T14:47:52.000Z</time>
      </trkpt>
      <trkpt lat="44.42078" lon="6.40267">
        <ele>1604</ele>
        <time>2021-09-01T14:47:53.000Z</time>
      </trkpt>
      <trkpt lat="44.42078" lon="6.40268">
        <ele>1604</ele>
        <time>2021-09-01T14:47:54.000Z</time>
      </trkpt>
      <trkpt lat="44.42078" lon="6.40268">
        <ele>1603</ele>
        <time>2021-09-01T14:47:55.000Z</time>
      </trkpt>
      <trkpt lat="44.42078" lon="6.40269">
        <ele>1603</ele>
        <time>2021-09-01T14:47:56.000Z</time>
      </trkpt>
      <trkpt lat="44.42079" lon="6.4027">
        <ele>1602</ele>
        <time>2021-09-01T14:47:57.000Z</time>
      </trkpt>
      <trkpt lat="44.42079" lon="6.4027">
        <ele>1602</ele>
        <time>2021-09-01T14:47:58.000Z</time>
      </trkpt>
      <trkpt lat="44.42079" lon="6.4027">
        <ele>1602</ele>
        <time>2021-09-01T14:47:59.000Z</time>
      </trkpt>
      <trkpt lat="44.42079" lon="6.40271">
        <ele>1602</ele>
        <time>2021-09-01T14:48:00.000Z</time>
      </trkpt>
      <trkpt lat="44.42079" lon="6.40271">
        <ele>1602</ele>
        <time>2021-09-01T14:48:01.000Z</time>
      </trkpt>
      <trkpt lat="44.4208" lon="6.40272">
        <ele>1602</ele>
        <time>2021-09-01T14:48:02.000Z</time>
      </trkpt>
      <trkpt lat="44.4208" lon="6.40273">
        <ele>1602</ele>
        <time>2021-09-01T14:48:03.000Z</time>
      </trkpt>
      <trkpt lat="44.4208" lon="6.40274">
        <ele>1603</ele>
        <time>2021-09-01T14:48:04.000Z</time>
      </trkpt>
      <trkpt lat="44.4208" lon="6.40275">
        <ele>1603</ele>
        <time>2021-09-01T14:48:05.000Z</time>
      </trkpt>
      <trkpt lat="44.42081" lon="6.40276">
        <ele>1603</ele>
        <time>2021-09-01T14:48:06.000Z</time>
      </trkpt>
      <trkpt lat="44.42081" lon="6.40277">
        <ele>1602</ele>
        <time>2021-09-01T14:48:07.000Z</time>
      </trkpt>
      <trkpt lat="44.42082" lon="6.40278">
        <ele>1602</ele>
        <time>2021-09-01T14:48:08.000Z</time>
      </trkpt>
      <trkpt lat="44.42082" lon="6.40278">
        <ele>1602</ele>
        <time>2021-09-01T14:48:09.000Z</time>
      </trkpt>
      <trkpt lat="44.42082" lon="6.40278">
        <ele>1602</ele>
        <time>2021-09-01T14:48:10.000Z</time>
      </trkpt>
      <trkpt lat="44.42082" lon="6.40278">
        <ele>1602</ele>
        <time>2021-09-01T14:48:11.000Z</time>
      </trkpt>
      <trkpt lat="44.42082" lon="6.40279">
        <ele>1601</ele>
        <time>2021-09-01T14:48:12.000Z</time>
      </trkpt>
      <trkpt lat="44.42082" lon="6.40279">
        <ele>1602</ele>
        <time>2021-09-01T14:48:13.000Z</time>
      </trkpt>
      <trkpt lat="44.42083" lon="6.40279">
        <ele>1602</ele>
        <time>2021-09-01T14:48:14.000Z</time>
      </trkpt>
      <trkpt lat="44.42083" lon="6.4028">
        <ele>1602</ele>
        <time>2021-09-01T14:48:15.000Z</time>
      </trkpt>
      <trkpt lat="44.42083" lon="6.4028">
        <ele>1603</ele>
        <time>2021-09-01T14:48:16.000Z</time>
      </trkpt>
      <trkpt lat="44.42083" lon="6.40281">
        <ele>1603</ele>
        <time>2021-09-01T14:48:17.000Z</time>
      </trkpt>
      <trkpt lat="44.42083" lon="6.40281">
        <ele>1603</ele>
        <time>2021-09-01T14:48:18.000Z</time>
      </trkpt>
      <trkpt lat="44.42084" lon="6.40282">
        <ele>1603</ele>
        <time>2021-09-01T14:48:19.000Z</time>
      </trkpt>
      <trkpt lat="44.42084" lon="6.40282">
        <ele>1603</ele>
        <time>2021-09-01T14:48:20.000Z</time>
      </trkpt>
      <trkpt lat="44.42084" lon="6.40283">
        <ele>1603</ele>
        <time>2021-09-01T14:48:21.000Z</time>
      </trkpt>
      <trkpt lat="44.42084" lon="6.40284">
        <ele>1603</ele>
        <time>2021-09-01T14:48:22.000Z</time>
      </trkpt>
      <trkpt lat="44.42084" lon="6.40284">
        <ele>1603</ele>
        <time>2021-09-01T14:48:23.000Z</time>
      </trkpt>
      <trkpt lat="44.42084" lon="6.40285">
        <ele>1603</ele>
        <time>2021-09-01T14:48:24.000Z</time>
      </trkpt>
      <trkpt lat="44.42084" lon="6.40285">
        <ele>1603</ele>
        <time>2021-09-01T14:48:25.000Z</time>
      </trkpt>
      <trkpt lat="44.42084" lon="6.40285">
        <ele>1604</ele>
        <time>2021-09-01T14:48:26.000Z</time>
      </trkpt>
      <trkpt lat="44.42085" lon="6.40285">
        <ele>1603</ele>
        <time>2021-09-01T14:48:27.000Z</time>
      </trkpt>
      <trkpt lat="44.42085" lon="6.40285">
        <ele>1602</ele>
        <time>2021-09-01T14:48:28.000Z</time>
      </trkpt>
      <trkpt lat="44.42085" lon="6.40285">
        <ele>1602</ele>
        <time>2021-09-01T14:48:29.000Z</time>
      </trkpt>
      <trkpt lat="44.42086" lon="6.40286">
        <ele>1602</ele>
        <time>2021-09-01T14:48:30.000Z</time>
      </trkpt>
      <trkpt lat="44.42086" lon="6.40286">
        <ele>1602</ele>
        <time>2021-09-01T14:48:31.000Z</time>
      </trkpt>
      <trkpt lat="44.42086" lon="6.40286">
        <ele>1602</ele>
        <time>2021-09-01T14:48:32.000Z</time>
      </trkpt>
      <trkpt lat="44.42086" lon="6.40286">
        <ele>1602</ele>
        <time>2021-09-01T14:48:33.000Z</time>
      </trkpt>
      <trkpt lat="44.42086" lon="6.40286">
        <ele>1602</ele>
        <time>2021-09-01T14:48:34.000Z</time>
      </trkpt>
      <trkpt lat="44.42086" lon="6.40287">
        <ele>1602</ele>
        <time>2021-09-01T14:48:35.000Z</time>
      </trkpt>
      <trkpt lat="44.42087" lon="6.40287">
        <ele>1601</ele>
        <time>2021-09-01T14:48:36.000Z</time>
      </trkpt>
      <trkpt lat="44.42087" lon="6.40288">
        <ele>1601</ele>
        <time>2021-09-01T14:48:37.000Z</time>
      </trkpt>
      <trkpt lat="44.42087" lon="6.40288">
        <ele>1601</ele>
        <time>2021-09-01T14:48:38.000Z</time>
      </trkpt>
      <trkpt lat="44.42087" lon="6.40289">
        <ele>1600</ele>
        <time>2021-09-01T14:48:39.000Z</time>
      </trkpt>
      <trkpt lat="44.42087" lon="6.40289">
        <ele>1600</ele>
        <time>2021-09-01T14:48:40.000Z</time>
      </trkpt>
      <trkpt lat="44.42087" lon="6.40289">
        <ele>1599</ele>
        <time>2021-09-01T14:48:41.000Z</time>
      </trkpt>
      <trkpt lat="44.42088" lon="6.4029">
        <ele>1599</ele>
        <time>2021-09-01T14:48:42.000Z</time>
      </trkpt>
      <trkpt lat="44.42088" lon="6.4029">
        <ele>1599</ele>
        <time>2021-09-01T14:48:43.000Z</time>
      </trkpt>
      <trkpt lat="44.42088" lon="6.40291">
        <ele>1599</ele>
        <time>2021-09-01T14:48:44.000Z</time>
      </trkpt>
      <trkpt lat="44.42088" lon="6.40291">
        <ele>1599</ele>
        <time>2021-09-01T14:48:45.000Z</time>
      </trkpt>
      <trkpt lat="44.42089" lon="6.40292">
        <ele>1599</ele>
        <time>2021-09-01T14:48:46.000Z</time>
      </trkpt>
      <trkpt lat="44.42088" lon="6.40292">
        <ele>1599</ele>
        <time>2021-09-01T14:48:47.000Z</time>
      </trkpt>
      <trkpt lat="44.42088" lon="6.40293">
        <ele>1599</ele>
        <time>2021-09-01T14:48:48.000Z</time>
      </trkpt>
      <trkpt lat="44.42088" lon="6.40293">
        <ele>1597</ele>
        <time>2021-09-01T14:48:49.000Z</time>
      </trkpt>
      <trkpt lat="44.42088" lon="6.40293">
        <ele>1596</ele>
        <time>2021-09-01T14:48:50.000Z</time>
      </trkpt>
      <trkpt lat="44.42088" lon="6.40293">
        <ele>1596</ele>
        <time>2021-09-01T14:48:51.000Z</time>
      </trkpt>
      <trkpt lat="44.42088" lon="6.40293">
        <ele>1595</ele>
        <time>2021-09-01T14:48:52.000Z</time>
      </trkpt>
      <trkpt lat="44.42088" lon="6.40293">
        <ele>1594</ele>
        <time>2021-09-01T14:48:53.000Z</time>
      </trkpt>
      <trkpt lat="44.42089" lon="6.40293">
        <ele>1593</ele>
        <time>2021-09-01T14:48:54.000Z</time>
      </trkpt>
      <trkpt lat="44.42089" lon="6.40293">
        <ele>1592</ele>
        <time>2021-09-01T14:48:55.000Z</time>
      </trkpt>
      <trkpt lat="44.42089" lon="6.40293">
        <ele>1593</ele>
        <time>2021-09-01T14:48:56.000Z</time>
      </trkpt>
      <trkpt lat="44.4209" lon="6.40293">
        <ele>1593</ele>
        <time>2021-09-01T14:48:57.000Z</time>
      </trkpt>
      <trkpt lat="44.4209" lon="6.40293">
        <ele>1593</ele>
        <time>2021-09-01T14:48:58.000Z</time>
      </trkpt>
      <trkpt lat="44.4209" lon="6.40293">
        <ele>1593</ele>
        <time>2021-09-01T14:48:59.000Z</time>
      </trkpt>
      <trkpt lat="44.4209" lon="6.40294">
        <ele>1592</ele>
        <time>2021-09-01T14:49:00.000Z</time>
      </trkpt>
      <trkpt lat="44.42091" lon="6.40295">
        <ele>1592</ele>
        <time>2021-09-01T14:49:01.000Z</time>
      </trkpt>
      <trkpt lat="44.42092" lon="6.40295">
        <ele>1592</ele>
        <time>2021-09-01T14:49:02.000Z</time>
      </trkpt>
      <trkpt lat="44.42093" lon="6.40295">
        <ele>1592</ele>
        <time>2021-09-01T14:49:03.000Z</time>
      </trkpt>
      <trkpt lat="44.42093" lon="6.40295">
        <ele>1592</ele>
        <time>2021-09-01T14:49:04.000Z</time>
      </trkpt>
      <trkpt lat="44.42093" lon="6.40296">
        <ele>1590</ele>
        <time>2021-09-01T14:49:05.000Z</time>
      </trkpt>
      <trkpt lat="44.42094" lon="6.40296">
        <ele>1590</ele>
        <time>2021-09-01T14:49:06.000Z</time>
      </trkpt>
      <trkpt lat="44.42094" lon="6.40298">
        <ele>1592</ele>
        <time>2021-09-01T14:49:07.000Z</time>
      </trkpt>
      <trkpt lat="44.42095" lon="6.40298">
        <ele>1592</ele>
        <time>2021-09-01T14:49:08.000Z</time>
      </trkpt>
      <trkpt lat="44.42096" lon="6.40299">
        <ele>1591</ele>
        <time>2021-09-01T14:49:09.000Z</time>
      </trkpt>
      <trkpt lat="44.42096" lon="6.40299">
        <ele>1591</ele>
        <time>2021-09-01T14:49:10.000Z</time>
      </trkpt>
      <trkpt lat="44.42096" lon="6.40299">
        <ele>1590</ele>
        <time>2021-09-01T14:49:11.000Z</time>
      </trkpt>
      <trkpt lat="44.42097" lon="6.403">
        <ele>1590</ele>
        <time>2021-09-01T14:49:12.000Z</time>
      </trkpt>
      <trkpt lat="44.42097" lon="6.403">
        <ele>1589</ele>
        <time>2021-09-01T14:49:13.000Z</time>
      </trkpt>
      <trkpt lat="44.42098" lon="6.40301">
        <ele>1589</ele>
        <time>2021-09-01T14:49:14.000Z</time>
      </trkpt>
      <trkpt lat="44.42098" lon="6.40301">
        <ele>1589</ele>
        <time>2021-09-01T14:49:15.000Z</time>
      </trkpt>
      <trkpt lat="44.42099" lon="6.40301">
        <ele>1587</ele>
        <time>2021-09-01T14:49:16.000Z</time>
      </trkpt>
      <trkpt lat="44.42099" lon="6.40301">
        <ele>1587</ele>
        <time>2021-09-01T14:49:17.000Z</time>
      </trkpt>
      <trkpt lat="44.421" lon="6.40301">
        <ele>1587</ele>
        <time>2021-09-01T14:49:18.000Z</time>
      </trkpt>
      <trkpt lat="44.421" lon="6.40302">
        <ele>1587</ele>
        <time>2021-09-01T14:49:19.000Z</time>
      </trkpt>
      <trkpt lat="44.421" lon="6.40302">
        <ele>1586</ele>
        <time>2021-09-01T14:49:20.000Z</time>
      </trkpt>
      <trkpt lat="44.42099" lon="6.40302">
        <ele>1585</ele>
        <time>2021-09-01T14:49:21.000Z</time>
      </trkpt>
      <trkpt lat="44.421" lon="6.40302">
        <ele>1585</ele>
        <time>2021-09-01T14:49:22.000Z</time>
      </trkpt>
      <trkpt lat="44.421" lon="6.40302">
        <ele>1585</ele>
        <time>2021-09-01T14:49:23.000Z</time>
      </trkpt>
      <trkpt lat="44.421" lon="6.40303">
        <ele>1586</ele>
        <time>2021-09-01T14:49:24.000Z</time>
      </trkpt>
      <trkpt lat="44.421" lon="6.40302">
        <ele>1585</ele>
        <time>2021-09-01T14:49:25.000Z</time>
      </trkpt>
      <trkpt lat="44.42101" lon="6.40303">
        <ele>1586</ele>
        <time>2021-09-01T14:49:26.000Z</time>
      </trkpt>
      <trkpt lat="44.42101" lon="6.40303">
        <ele>1586</ele>
        <time>2021-09-01T14:49:27.000Z</time>
      </trkpt>
      <trkpt lat="44.42102" lon="6.40304">
        <ele>1586</ele>
        <time>2021-09-01T14:49:28.000Z</time>
      </trkpt>
      <trkpt lat="44.42102" lon="6.40304">
        <ele>1587</ele>
        <time>2021-09-01T14:49:29.000Z</time>
      </trkpt>
      <trkpt lat="44.42102" lon="6.40304">
        <ele>1586</ele>
        <time>2021-09-01T14:49:30.000Z</time>
      </trkpt>
      <trkpt lat="44.42102" lon="6.40305">
        <ele>1586</ele>
        <time>2021-09-01T14:49:31.000Z</time>
      </trkpt>
      <trkpt lat="44.42103" lon="6.40305">
        <ele>1586</ele>
        <time>2021-09-01T14:49:32.000Z</time>
      </trkpt>
      <trkpt lat="44.42102" lon="6.40305">
        <ele>1586</ele>
        <time>2021-09-01T14:49:33.000Z</time>
      </trkpt>
      <trkpt lat="44.42102" lon="6.40304">
        <ele>1586</ele>
        <time>2021-09-01T14:49:34.000Z</time>
      </trkpt>
      <trkpt lat="44.42103" lon="6.40305">
        <ele>1586</ele>
        <time>2021-09-01T14:49:35.000Z</time>
      </trkpt>
      <trkpt lat="44.42103" lon="6.40305">
        <ele>1586</ele>
        <time>2021-09-01T14:49:36.000Z</time>
      </trkpt>
      <trkpt lat="44.42103" lon="6.40305">
        <ele>1586</ele>
        <time>2021-09-01T14:49:37.000Z</time>
      </trkpt>
      <trkpt lat="44.42103" lon="6.40305">
        <ele>1585</ele>
        <time>2021-09-01T14:49:38.000Z</time>
      </trkpt>
      <trkpt lat="44.42104" lon="6.40305">
        <ele>1585</ele>
        <time>2021-09-01T14:49:39.000Z</time>
      </trkpt>
      <trkpt lat="44.42104" lon="6.40306">
        <ele>1585</ele>
        <time>2021-09-01T14:49:40.000Z</time>
      </trkpt>
      <trkpt lat="44.42105" lon="6.40306">
        <ele>1585</ele>
        <time>2021-09-01T14:49:41.000Z</time>
      </trkpt>
      <trkpt lat="44.42105" lon="6.40306">
        <ele>1585</ele>
        <time>2021-09-01T14:49:42.000Z</time>
      </trkpt>
      <trkpt lat="44.42106" lon="6.40306">
        <ele>1585</ele>
        <time>2021-09-01T14:49:43.000Z</time>
      </trkpt>
      <trkpt lat="44.42106" lon="6.40307">
        <ele>1585</ele>
        <time>2021-09-01T14:49:44.000Z</time>
      </trkpt>
      <trkpt lat="44.42106" lon="6.40307">
        <ele>1585</ele>
        <time>2021-09-01T14:49:45.000Z</time>
      </trkpt>
      <trkpt lat="44.42106" lon="6.40307">
        <ele>1586</ele>
        <time>2021-09-01T14:49:46.000Z</time>
      </trkpt>
      <trkpt lat="44.42106" lon="6.40307">
        <ele>1584</ele>
        <time>2021-09-01T14:49:47.000Z</time>
      </trkpt>
      <trkpt lat="44.42106" lon="6.40308">
        <ele>1585</ele>
        <time>2021-09-01T14:49:48.000Z</time>
      </trkpt>
      <trkpt lat="44.42105" lon="6.40308">
        <ele>1585</ele>
        <time>2021-09-01T14:49:49.000Z</time>
      </trkpt>
      <trkpt lat="44.42106" lon="6.40308">
        <ele>1584</ele>
        <time>2021-09-01T14:49:50.000Z</time>
      </trkpt>
      <trkpt lat="44.42106" lon="6.40308">
        <ele>1584</ele>
        <time>2021-09-01T14:49:51.000Z</time>
      </trkpt>
      <trkpt lat="44.42107" lon="6.40308">
        <ele>1584</ele>
        <time>2021-09-01T14:49:52.000Z</time>
      </trkpt>
      <trkpt lat="44.42107" lon="6.40308">
        <ele>1585</ele>
        <time>2021-09-01T14:49:53.000Z</time>
      </trkpt>
      <trkpt lat="44.42107" lon="6.40308">
        <ele>1585</ele>
        <time>2021-09-01T14:49:54.000Z</time>
      </trkpt>
      <trkpt lat="44.42108" lon="6.40308">
        <ele>1583</ele>
        <time>2021-09-01T14:49:55.000Z</time>
      </trkpt>
      <trkpt lat="44.42109" lon="6.40307">
        <ele>1582</ele>
        <time>2021-09-01T14:49:56.000Z</time>
      </trkpt>
      <trkpt lat="44.4211" lon="6.40307">
        <ele>1582</ele>
        <time>2021-09-01T14:49:57.000Z</time>
      </trkpt>
      <trkpt lat="44.4211" lon="6.40307">
        <ele>1583</ele>
        <time>2021-09-01T14:49:58.000Z</time>
      </trkpt>
      <trkpt lat="44.42111" lon="6.40306">
        <ele>1582</ele>
        <time>2021-09-01T14:49:59.000Z</time>
      </trkpt>
      <trkpt lat="44.42111" lon="6.40306">
        <ele>1582</ele>
        <time>2021-09-01T14:50:00.000Z</time>
      </trkpt>
      <trkpt lat="44.42111" lon="6.40306">
        <ele>1581</ele>
        <time>2021-09-01T14:50:01.000Z</time>
      </trkpt>
      <trkpt lat="44.42111" lon="6.40306">
        <ele>1581</ele>
        <time>2021-09-01T14:50:02.000Z</time>
      </trkpt>
      <trkpt lat="44.42112" lon="6.40306">
        <ele>1582</ele>
        <time>2021-09-01T14:50:03.000Z</time>
      </trkpt>
      <trkpt lat="44.42112" lon="6.40306">
        <ele>1582</ele>
        <time>2021-09-01T14:50:04.000Z</time>
      </trkpt>
      <trkpt lat="44.42112" lon="6.40306">
        <ele>1582</ele>
        <time>2021-09-01T14:50:05.000Z</time>
      </trkpt>
      <trkpt lat="44.42112" lon="6.40306">
        <ele>1581</ele>
        <time>2021-09-01T14:50:06.000Z</time>
      </trkpt>
      <trkpt lat="44.42112" lon="6.40307">
        <ele>1582</ele>
        <time>2021-09-01T14:50:07.000Z</time>
      </trkpt>
      <trkpt lat="44.42113" lon="6.40307">
        <ele>1582</ele>
        <time>2021-09-01T14:50:08.000Z</time>
      </trkpt>
      <trkpt lat="44.42113" lon="6.40307">
        <ele>1581</ele>
        <time>2021-09-01T14:50:09.000Z</time>
      </trkpt>
      <trkpt lat="44.42114" lon="6.40308">
        <ele>1582</ele>
        <time>2021-09-01T14:50:10.000Z</time>
      </trkpt>
      <trkpt lat="44.42114" lon="6.40308">
        <ele>1583</ele>
        <time>2021-09-01T14:50:11.000Z</time>
      </trkpt>
      <trkpt lat="44.42114" lon="6.40308">
        <ele>1583</ele>
        <time>2021-09-01T14:50:12.000Z</time>
      </trkpt>
      <trkpt lat="44.42113" lon="6.40308">
        <ele>1583</ele>
        <time>2021-09-01T14:50:13.000Z</time>
      </trkpt>
      <trkpt lat="44.42114" lon="6.40309">
        <ele>1583</ele>
        <time>2021-09-01T14:50:14.000Z</time>
      </trkpt>
      <trkpt lat="44.42114" lon="6.4031">
        <ele>1584</ele>
        <time>2021-09-01T14:50:15.000Z</time>
      </trkpt>
      <trkpt lat="44.42115" lon="6.4031">
        <ele>1584</ele>
        <time>2021-09-01T14:50:16.000Z</time>
      </trkpt>
      <trkpt lat="44.42115" lon="6.4031">
        <ele>1584</ele>
        <time>2021-09-01T14:50:17.000Z</time>
      </trkpt>
      <trkpt lat="44.42115" lon="6.4031">
        <ele>1584</ele>
        <time>2021-09-01T14:50:18.000Z</time>
      </trkpt>
      <trkpt lat="44.42116" lon="6.40311">
        <ele>1584</ele>
        <time>2021-09-01T14:50:19.000Z</time>
      </trkpt>
      <trkpt lat="44.42116" lon="6.4031">
        <ele>1583</ele>
        <time>2021-09-01T14:50:20.000Z</time>
      </trkpt>
      <trkpt lat="44.42116" lon="6.40311">
        <ele>1583</ele>
        <time>2021-09-01T14:50:21.000Z</time>
      </trkpt>
      <trkpt lat="44.42117" lon="6.4031">
        <ele>1583</ele>
        <time>2021-09-01T14:50:22.000Z</time>
      </trkpt>
      <trkpt lat="44.42117" lon="6.4031">
        <ele>1583</ele>
        <time>2021-09-01T14:50:23.000Z</time>
      </trkpt>
      <trkpt lat="44.42117" lon="6.40311">
        <ele>1583</ele>
        <time>2021-09-01T14:50:24.000Z</time>
      </trkpt>
      <trkpt lat="44.42117" lon="6.40311">
        <ele>1584</ele>
        <time>2021-09-01T14:50:25.000Z</time>
      </trkpt>
      <trkpt lat="44.42118" lon="6.40311">
        <ele>1584</ele>
        <time>2021-09-01T14:50:26.000Z</time>
      </trkpt>
      <trkpt lat="44.42118" lon="6.40311">
        <ele>1584</ele>
        <time>2021-09-01T14:50:27.000Z</time>
      </trkpt>
      <trkpt lat="44.42118" lon="6.40311">
        <ele>1584</ele>
        <time>2021-09-01T14:50:28.000Z</time>
      </trkpt>
      <trkpt lat="44.42119" lon="6.40311">
        <ele>1584</ele>
        <time>2021-09-01T14:50:29.000Z</time>
      </trkpt>
      <trkpt lat="44.42119" lon="6.40311">
        <ele>1584</ele>
        <time>2021-09-01T14:50:30.000Z</time>
      </trkpt>
      <trkpt lat="44.42119" lon="6.40311">
        <ele>1584</ele>
        <time>2021-09-01T14:50:31.000Z</time>
      </trkpt>
      <trkpt lat="44.42119" lon="6.4031">
        <ele>1584</ele>
        <time>2021-09-01T14:50:32.000Z</time>
      </trkpt>
      <trkpt lat="44.42119" lon="6.4031">
        <ele>1584</ele>
        <time>2021-09-01T14:50:33.000Z</time>
      </trkpt>
      <trkpt lat="44.42119" lon="6.40309">
        <ele>1584</ele>
        <time>2021-09-01T14:50:34.000Z</time>
      </trkpt>
      <trkpt lat="44.42119" lon="6.40309">
        <ele>1584</ele>
        <time>2021-09-01T14:50:35.000Z</time>
      </trkpt>
      <trkpt lat="44.4212" lon="6.40309">
        <ele>1584</ele>
        <time>2021-09-01T14:50:36.000Z</time>
      </trkpt>
      <trkpt lat="44.4212" lon="6.40309">
        <ele>1584</ele>
        <time>2021-09-01T14:50:37.000Z</time>
      </trkpt>
      <trkpt lat="44.4212" lon="6.40309">
        <ele>1584</ele>
        <time>2021-09-01T14:50:38.000Z</time>
      </trkpt>
      <trkpt lat="44.4212" lon="6.40309">
        <ele>1584</ele>
        <time>2021-09-01T14:50:39.000Z</time>
      </trkpt>
      <trkpt lat="44.4212" lon="6.40309">
        <ele>1585</ele>
        <time>2021-09-01T14:50:40.000Z</time>
      </trkpt>
      <trkpt lat="44.4212" lon="6.40309">
        <ele>1585</ele>
        <time>2021-09-01T14:50:41.000Z</time>
      </trkpt>
      <trkpt lat="44.4212" lon="6.40309">
        <ele>1585</ele>
        <time>2021-09-01T14:50:42.000Z</time>
      </trkpt>
      <trkpt lat="44.4212" lon="6.40309">
        <ele>1585</ele>
        <time>2021-09-01T14:50:43.000Z</time>
      </trkpt>
      <trkpt lat="44.4212" lon="6.40309">
        <ele>1585</ele>
        <time>2021-09-01T14:50:44.000Z</time>
      </trkpt>
      <trkpt lat="44.42121" lon="6.4031">
        <ele>1585</ele>
        <time>2021-09-01T14:50:45.000Z</time>
      </trkpt>
      <trkpt lat="44.42121" lon="6.4031">
        <ele>1585</ele>
        <time>2021-09-01T14:50:46.000Z</time>
      </trkpt>
      <trkpt lat="44.42121" lon="6.4031">
        <ele>1585</ele>
        <time>2021-09-01T14:50:47.000Z</time>
      </trkpt>
      <trkpt lat="44.42122" lon="6.40311">
        <ele>1585</ele>
        <time>2021-09-01T14:50:48.000Z</time>
      </trkpt>
      <trkpt lat="44.42122" lon="6.40313">
        <ele>1585</ele>
        <time>2021-09-01T14:50:49.000Z</time>
      </trkpt>
      <trkpt lat="44.42123" lon="6.40313">
        <ele>1585</ele>
        <time>2021-09-01T14:50:50.000Z</time>
      </trkpt>
      <trkpt lat="44.42124" lon="6.40313">
        <ele>1585</ele>
        <time>2021-09-01T14:50:51.000Z</time>
      </trkpt>
      <trkpt lat="44.42125" lon="6.40314">
        <ele>1584</ele>
        <time>2021-09-01T14:50:52.000Z</time>
      </trkpt>
      <trkpt lat="44.42126" lon="6.40314">
        <ele>1582</ele>
        <time>2021-09-01T14:50:53.000Z</time>
      </trkpt>
      <trkpt lat="44.42126" lon="6.40315">
        <ele>1582</ele>
        <time>2021-09-01T14:50:54.000Z</time>
      </trkpt>
      <trkpt lat="44.42127" lon="6.40315">
        <ele>1581</ele>
        <time>2021-09-01T14:50:55.000Z</time>
      </trkpt>
      <trkpt lat="44.42128" lon="6.40316">
        <ele>1581</ele>
        <time>2021-09-01T14:50:56.000Z</time>
      </trkpt>
      <trkpt lat="44.42128" lon="6.40316">
        <ele>1580</ele>
        <time>2021-09-01T14:50:57.000Z</time>
      </trkpt>
      <trkpt lat="44.42129" lon="6.40316">
        <ele>1580</ele>
        <time>2021-09-01T14:50:58.000Z</time>
      </trkpt>
      <trkpt lat="44.42129" lon="6.40317">
        <ele>1580</ele>
        <time>2021-09-01T14:50:59.000Z</time>
      </trkpt>
      <trkpt lat="44.42129" lon="6.40317">
        <ele>1579</ele>
        <time>2021-09-01T14:51:00.000Z</time>
      </trkpt>
      <trkpt lat="44.42129" lon="6.40317">
        <ele>1579</ele>
        <time>2021-09-01T14:51:01.000Z</time>
      </trkpt>
      <trkpt lat="44.42129" lon="6.40318">
        <ele>1579</ele>
        <time>2021-09-01T14:51:02.000Z</time>
      </trkpt>
      <trkpt lat="44.42129" lon="6.40318">
        <ele>1579</ele>
        <time>2021-09-01T14:51:03.000Z</time>
      </trkpt>
      <trkpt lat="44.42129" lon="6.40318">
        <ele>1579</ele>
        <time>2021-09-01T14:51:04.000Z</time>
      </trkpt>
      <trkpt lat="44.4213" lon="6.40319">
        <ele>1578</ele>
        <time>2021-09-01T14:51:05.000Z</time>
      </trkpt>
      <trkpt lat="44.4213" lon="6.40319">
        <ele>1579</ele>
        <time>2021-09-01T14:51:06.000Z</time>
      </trkpt>
      <trkpt lat="44.4213" lon="6.40319">
        <ele>1579</ele>
        <time>2021-09-01T14:51:07.000Z</time>
      </trkpt>
      <trkpt lat="44.4213" lon="6.40319">
        <ele>1579</ele>
        <time>2021-09-01T14:51:08.000Z</time>
      </trkpt>
      <trkpt lat="44.42131" lon="6.4032">
        <ele>1579</ele>
        <time>2021-09-01T14:51:09.000Z</time>
      </trkpt>
      <trkpt lat="44.42131" lon="6.4032">
        <ele>1580</ele>
        <time>2021-09-01T14:51:10.000Z</time>
      </trkpt>
      <trkpt lat="44.42131" lon="6.4032">
        <ele>1580</ele>
        <time>2021-09-01T14:51:11.000Z</time>
      </trkpt>
      <trkpt lat="44.42131" lon="6.40321">
        <ele>1581</ele>
        <time>2021-09-01T14:51:12.000Z</time>
      </trkpt>
      <trkpt lat="44.42132" lon="6.40321">
        <ele>1581</ele>
        <time>2021-09-01T14:51:13.000Z</time>
      </trkpt>
      <trkpt lat="44.42132" lon="6.40322">
        <ele>1581</ele>
        <time>2021-09-01T14:51:14.000Z</time>
      </trkpt>
      <trkpt lat="44.42133" lon="6.40323">
        <ele>1581</ele>
        <time>2021-09-01T14:51:15.000Z</time>
      </trkpt>
      <trkpt lat="44.42133" lon="6.40323">
        <ele>1581</ele>
        <time>2021-09-01T14:51:16.000Z</time>
      </trkpt>
      <trkpt lat="44.42133" lon="6.40323">
        <ele>1581</ele>
        <time>2021-09-01T14:51:17.000Z</time>
      </trkpt>
      <trkpt lat="44.42133" lon="6.40324">
        <ele>1581</ele>
        <time>2021-09-01T14:51:18.000Z</time>
      </trkpt>
      <trkpt lat="44.42133" lon="6.40324">
        <ele>1580</ele>
        <time>2021-09-01T14:51:19.000Z</time>
      </trkpt>
      <trkpt lat="44.42133" lon="6.40324">
        <ele>1580</ele>
        <time>2021-09-01T14:51:20.000Z</time>
      </trkpt>
      <trkpt lat="44.42134" lon="6.40325">
        <ele>1580</ele>
        <time>2021-09-01T14:51:21.000Z</time>
      </trkpt>
      <trkpt lat="44.42134" lon="6.40325">
        <ele>1580</ele>
        <time>2021-09-01T14:51:22.000Z</time>
      </trkpt>
      <trkpt lat="44.42134" lon="6.40325">
        <ele>1580</ele>
        <time>2021-09-01T14:51:23.000Z</time>
      </trkpt>
      <trkpt lat="44.42135" lon="6.40326">
        <ele>1580</ele>
        <time>2021-09-01T14:51:24.000Z</time>
      </trkpt>
      <trkpt lat="44.42134" lon="6.40326">
        <ele>1580</ele>
        <time>2021-09-01T14:51:25.000Z</time>
      </trkpt>
      <trkpt lat="44.42134" lon="6.40326">
        <ele>1580</ele>
        <time>2021-09-01T14:51:26.000Z</time>
      </trkpt>
      <trkpt lat="44.42134" lon="6.40326">
        <ele>1580</ele>
        <time>2021-09-01T14:51:27.000Z</time>
      </trkpt>
      <trkpt lat="44.42134" lon="6.40327">
        <ele>1580</ele>
        <time>2021-09-01T14:51:28.000Z</time>
      </trkpt>
      <trkpt lat="44.42135" lon="6.40328">
        <ele>1580</ele>
        <time>2021-09-01T14:51:29.000Z</time>
      </trkpt>
      <trkpt lat="44.42135" lon="6.40328">
        <ele>1580</ele>
        <time>2021-09-01T14:51:30.000Z</time>
      </trkpt>
      <trkpt lat="44.42135" lon="6.40329">
        <ele>1580</ele>
        <time>2021-09-01T14:51:31.000Z</time>
      </trkpt>
      <trkpt lat="44.42135" lon="6.4033">
        <ele>1579</ele>
        <time>2021-09-01T14:51:32.000Z</time>
      </trkpt>
      <trkpt lat="44.42135" lon="6.4033">
        <ele>1580</ele>
        <time>2021-09-01T14:51:33.000Z</time>
      </trkpt>
      <trkpt lat="44.42135" lon="6.40331">
        <ele>1580</ele>
        <time>2021-09-01T14:51:34.000Z</time>
      </trkpt>
      <trkpt lat="44.42134" lon="6.40331">
        <ele>1580</ele>
        <time>2021-09-01T14:51:35.000Z</time>
      </trkpt>
      <trkpt lat="44.42134" lon="6.40331">
        <ele>1579</ele>
        <time>2021-09-01T14:51:36.000Z</time>
      </trkpt>
      <trkpt lat="44.42135" lon="6.40331">
        <ele>1579</ele>
        <time>2021-09-01T14:51:37.000Z</time>
      </trkpt>
      <trkpt lat="44.42135" lon="6.40331">
        <ele>1579</ele>
        <time>2021-09-01T14:51:38.000Z</time>
      </trkpt>
      <trkpt lat="44.42136" lon="6.40332">
        <ele>1578</ele>
        <time>2021-09-01T14:51:39.000Z</time>
      </trkpt>
      <trkpt lat="44.42136" lon="6.40332">
        <ele>1579</ele>
        <time>2021-09-01T14:51:40.000Z</time>
      </trkpt>
      <trkpt lat="44.42136" lon="6.40332">
        <ele>1578</ele>
        <time>2021-09-01T14:51:41.000Z</time>
      </trkpt>
      <trkpt lat="44.42136" lon="6.40332">
        <ele>1580</ele>
        <time>2021-09-01T14:51:42.000Z</time>
      </trkpt>
      <trkpt lat="44.42136" lon="6.40332">
        <ele>1580</ele>
        <time>2021-09-01T14:51:43.000Z</time>
      </trkpt>
      <trkpt lat="44.42137" lon="6.40332">
        <ele>1579</ele>
        <time>2021-09-01T14:51:44.000Z</time>
      </trkpt>
      <trkpt lat="44.42137" lon="6.40332">
        <ele>1579</ele>
        <time>2021-09-01T14:51:45.000Z</time>
      </trkpt>
      <trkpt lat="44.42137" lon="6.40333">
        <ele>1579</ele>
        <time>2021-09-01T14:51:46.000Z</time>
      </trkpt>
      <trkpt lat="44.42138" lon="6.40333">
        <ele>1578</ele>
        <time>2021-09-01T14:51:47.000Z</time>
      </trkpt>
      <trkpt lat="44.42138" lon="6.40334">
        <ele>1578</ele>
        <time>2021-09-01T14:51:48.000Z</time>
      </trkpt>
      <trkpt lat="44.42138" lon="6.40334">
        <ele>1578</ele>
        <time>2021-09-01T14:51:49.000Z</time>
      </trkpt>
      <trkpt lat="44.42139" lon="6.40334">
        <ele>1578</ele>
        <time>2021-09-01T14:51:50.000Z</time>
      </trkpt>
      <trkpt lat="44.42139" lon="6.40334">
        <ele>1578</ele>
        <time>2021-09-01T14:51:51.000Z</time>
      </trkpt>
      <trkpt lat="44.42139" lon="6.40334">
        <ele>1578</ele>
        <time>2021-09-01T14:51:52.000Z</time>
      </trkpt>
      <trkpt lat="44.42139" lon="6.40335">
        <ele>1578</ele>
        <time>2021-09-01T14:51:53.000Z</time>
      </trkpt>
      <trkpt lat="44.42139" lon="6.40335">
        <ele>1578</ele>
        <time>2021-09-01T14:51:54.000Z</time>
      </trkpt>
      <trkpt lat="44.4214" lon="6.40335">
        <ele>1577</ele>
        <time>2021-09-01T14:51:55.000Z</time>
      </trkpt>
      <trkpt lat="44.4214" lon="6.40336">
        <ele>1577</ele>
        <time>2021-09-01T14:51:56.000Z</time>
      </trkpt>
      <trkpt lat="44.4214" lon="6.40336">
        <ele>1577</ele>
        <time>2021-09-01T14:51:57.000Z</time>
      </trkpt>
      <trkpt lat="44.4214" lon="6.40337">
        <ele>1577</ele>
        <time>2021-09-01T14:51:58.000Z</time>
      </trkpt>
      <trkpt lat="44.42141" lon="6.40337">
        <ele>1577</ele>
        <time>2021-09-01T14:51:59.000Z</time>
      </trkpt>
      <trkpt lat="44.42141" lon="6.40338">
        <ele>1576</ele>
        <time>2021-09-01T14:52:00.000Z</time>
      </trkpt>
      <trkpt lat="44.42141" lon="6.40338">
        <ele>1575</ele>
        <time>2021-09-01T14:52:01.000Z</time>
      </trkpt>
      <trkpt lat="44.42141" lon="6.40338">
        <ele>1576</ele>
        <time>2021-09-01T14:52:02.000Z</time>
      </trkpt>
      <trkpt lat="44.42141" lon="6.40339">
        <ele>1576</ele>
        <time>2021-09-01T14:52:03.000Z</time>
      </trkpt>
      <trkpt lat="44.42141" lon="6.40339">
        <ele>1576</ele>
        <time>2021-09-01T14:52:04.000Z</time>
      </trkpt>
      <trkpt lat="44.42142" lon="6.40339">
        <ele>1576</ele>
        <time>2021-09-01T14:52:05.000Z</time>
      </trkpt>
      <trkpt lat="44.42142" lon="6.40339">
        <ele>1576</ele>
        <time>2021-09-01T14:52:06.000Z</time>
      </trkpt>
      <trkpt lat="44.42142" lon="6.4034">
        <ele>1575</ele>
        <time>2021-09-01T14:52:07.000Z</time>
      </trkpt>
      <trkpt lat="44.42142" lon="6.4034">
        <ele>1575</ele>
        <time>2021-09-01T14:52:08.000Z</time>
      </trkpt>
      <trkpt lat="44.42142" lon="6.40339">
        <ele>1574</ele>
        <time>2021-09-01T14:52:09.000Z</time>
      </trkpt>
      <trkpt lat="44.42142" lon="6.40339">
        <ele>1574</ele>
        <time>2021-09-01T14:52:10.000Z</time>
      </trkpt>
      <trkpt lat="44.42142" lon="6.40339">
        <ele>1574</ele>
        <time>2021-09-01T14:52:11.000Z</time>
      </trkpt>
      <trkpt lat="44.42142" lon="6.40339">
        <ele>1574</ele>
        <time>2021-09-01T14:52:12.000Z</time>
      </trkpt>
      <trkpt lat="44.42142" lon="6.40339">
        <ele>1574</ele>
        <time>2021-09-01T14:52:13.000Z</time>
      </trkpt>
      <trkpt lat="44.42141" lon="6.40339">
        <ele>1574</ele>
        <time>2021-09-01T14:52:14.000Z</time>
      </trkpt>
      <trkpt lat="44.42141" lon="6.40339">
        <ele>1574</ele>
        <time>2021-09-01T14:52:15.000Z</time>
      </trkpt>
      <trkpt lat="44.42141" lon="6.40339">
        <ele>1574</ele>
        <time>2021-09-01T14:52:16.000Z</time>
      </trkpt>
      <trkpt lat="44.42141" lon="6.4034">
        <ele>1574</ele>
        <time>2021-09-01T14:52:17.000Z</time>
      </trkpt>
      <trkpt lat="44.42141" lon="6.40339">
        <ele>1574</ele>
        <time>2021-09-01T14:52:18.000Z</time>
      </trkpt>
      <trkpt lat="44.42141" lon="6.40339">
        <ele>1574</ele>
        <time>2021-09-01T14:52:19.000Z</time>
      </trkpt>
      <trkpt lat="44.4214" lon="6.40339">
        <ele>1573</ele>
        <time>2021-09-01T14:52:20.000Z</time>
      </trkpt>
      <trkpt lat="44.4214" lon="6.40339">
        <ele>1574</ele>
        <time>2021-09-01T14:52:21.000Z</time>
      </trkpt>
      <trkpt lat="44.42141" lon="6.40339">
        <ele>1573</ele>
        <time>2021-09-01T14:52:22.000Z</time>
      </trkpt>
      <trkpt lat="44.42141" lon="6.4034">
        <ele>1574</ele>
        <time>2021-09-01T14:52:23.000Z</time>
      </trkpt>
      <trkpt lat="44.4214" lon="6.4034">
        <ele>1573</ele>
        <time>2021-09-01T14:52:24.000Z</time>
      </trkpt>
      <trkpt lat="44.42141" lon="6.40341">
        <ele>1574</ele>
        <time>2021-09-01T14:52:25.000Z</time>
      </trkpt>
      <trkpt lat="44.42142" lon="6.40341">
        <ele>1574</ele>
        <time>2021-09-01T14:52:26.000Z</time>
      </trkpt>
      <trkpt lat="44.42142" lon="6.40341">
        <ele>1573</ele>
        <time>2021-09-01T14:52:27.000Z</time>
      </trkpt>
      <trkpt lat="44.42142" lon="6.40341">
        <ele>1573</ele>
        <time>2021-09-01T14:52:28.000Z</time>
      </trkpt>
      <trkpt lat="44.42142" lon="6.40341">
        <ele>1573</ele>
        <time>2021-09-01T14:52:29.000Z</time>
      </trkpt>
      <trkpt lat="44.42142" lon="6.40342">
        <ele>1573</ele>
        <time>2021-09-01T14:52:30.000Z</time>
      </trkpt>
      <trkpt lat="44.42142" lon="6.40342">
        <ele>1573</ele>
        <time>2021-09-01T14:52:31.000Z</time>
      </trkpt>
      <trkpt lat="44.42142" lon="6.40342">
        <ele>1573</ele>
        <time>2021-09-01T14:52:32.000Z</time>
      </trkpt>
      <trkpt lat="44.42142" lon="6.40342">
        <ele>1573</ele>
        <time>2021-09-01T14:52:33.000Z</time>
      </trkpt>
      <trkpt lat="44.42142" lon="6.40342">
        <ele>1573</ele>
        <time>2021-09-01T14:52:34.000Z</time>
      </trkpt>
      <trkpt lat="44.42143" lon="6.40342">
        <ele>1572</ele>
        <time>2021-09-01T14:52:35.000Z</time>
      </trkpt>
      <trkpt lat="44.42143" lon="6.40343">
        <ele>1572</ele>
        <time>2021-09-01T14:52:36.000Z</time>
      </trkpt>
      <trkpt lat="44.42143" lon="6.40342">
        <ele>1571</ele>
        <time>2021-09-01T14:52:37.000Z</time>
      </trkpt>
      <trkpt lat="44.42143" lon="6.40342">
        <ele>1571</ele>
        <time>2021-09-01T14:52:38.000Z</time>
      </trkpt>
      <trkpt lat="44.42143" lon="6.40342">
        <ele>1571</ele>
        <time>2021-09-01T14:52:39.000Z</time>
      </trkpt>
      <trkpt lat="44.42143" lon="6.40343">
        <ele>1572</ele>
        <time>2021-09-01T14:52:40.000Z</time>
      </trkpt>
      <trkpt lat="44.42143" lon="6.40343">
        <ele>1570</ele>
        <time>2021-09-01T14:52:41.000Z</time>
      </trkpt>
      <trkpt lat="44.42144" lon="6.40344">
        <ele>1570</ele>
        <time>2021-09-01T14:52:42.000Z</time>
      </trkpt>
      <trkpt lat="44.42144" lon="6.40344">
        <ele>1570</ele>
        <time>2021-09-01T14:52:43.000Z</time>
      </trkpt>
      <trkpt lat="44.42144" lon="6.40345">
        <ele>1569</ele>
        <time>2021-09-01T14:52:44.000Z</time>
      </trkpt>
      <trkpt lat="44.42145" lon="6.40345">
        <ele>1569</ele>
        <time>2021-09-01T14:52:45.000Z</time>
      </trkpt>
      <trkpt lat="44.42145" lon="6.40345">
        <ele>1569</ele>
        <time>2021-09-01T14:52:46.000Z</time>
      </trkpt>
      <trkpt lat="44.42146" lon="6.40346">
        <ele>1570</ele>
        <time>2021-09-01T14:52:47.000Z</time>
      </trkpt>
      <trkpt lat="44.42146" lon="6.40346">
        <ele>1569</ele>
        <time>2021-09-01T14:52:48.000Z</time>
      </trkpt>
      <trkpt lat="44.42145" lon="6.40346">
        <ele>1570</ele>
        <time>2021-09-01T14:52:49.000Z</time>
      </trkpt>
      <trkpt lat="44.42146" lon="6.40346">
        <ele>1570</ele>
        <time>2021-09-01T14:52:50.000Z</time>
      </trkpt>
      <trkpt lat="44.42146" lon="6.40346">
        <ele>1570</ele>
        <time>2021-09-01T14:52:51.000Z</time>
      </trkpt>
      <trkpt lat="44.42146" lon="6.40346">
        <ele>1570</ele>
        <time>2021-09-01T14:52:52.000Z</time>
      </trkpt>
      <trkpt lat="44.42146" lon="6.40346">
        <ele>1570</ele>
        <time>2021-09-01T14:52:53.000Z</time>
      </trkpt>
      <trkpt lat="44.42146" lon="6.40347">
        <ele>1569</ele>
        <time>2021-09-01T14:52:54.000Z</time>
      </trkpt>
      <trkpt lat="44.42146" lon="6.40346">
        <ele>1569</ele>
        <time>2021-09-01T14:52:55.000Z</time>
      </trkpt>
      <trkpt lat="44.42146" lon="6.40346">
        <ele>1568</ele>
        <time>2021-09-01T14:52:56.000Z</time>
      </trkpt>
      <trkpt lat="44.42146" lon="6.40346">
        <ele>1567</ele>
        <time>2021-09-01T14:52:57.000Z</time>
      </trkpt>
      <trkpt lat="44.42147" lon="6.40347">
        <ele>1566</ele>
        <time>2021-09-01T14:52:58.000Z</time>
      </trkpt>
      <trkpt lat="44.42147" lon="6.40346">
        <ele>1566</ele>
        <time>2021-09-01T14:52:59.000Z</time>
      </trkpt>
      <trkpt lat="44.42147" lon="6.40347">
        <ele>1566</ele>
        <time>2021-09-01T14:53:00.000Z</time>
      </trkpt>
      <trkpt lat="44.42148" lon="6.40347">
        <ele>1567</ele>
        <time>2021-09-01T14:53:01.000Z</time>
      </trkpt>
      <trkpt lat="44.42148" lon="6.40348">
        <ele>1566</ele>
        <time>2021-09-01T14:53:02.000Z</time>
      </trkpt>
      <trkpt lat="44.42149" lon="6.40348">
        <ele>1566</ele>
        <time>2021-09-01T14:53:03.000Z</time>
      </trkpt>
      <trkpt lat="44.42151" lon="6.40348">
        <ele>1564</ele>
        <time>2021-09-01T14:53:04.000Z</time>
      </trkpt>
      <trkpt lat="44.42151" lon="6.40348">
        <ele>1566</ele>
        <time>2021-09-01T14:53:05.000Z</time>
      </trkpt>
      <trkpt lat="44.42151" lon="6.40349">
        <ele>1566</ele>
        <time>2021-09-01T14:53:06.000Z</time>
      </trkpt>
      <trkpt lat="44.4215" lon="6.40348">
        <ele>1566</ele>
        <time>2021-09-01T14:53:07.000Z</time>
      </trkpt>
      <trkpt lat="44.4215" lon="6.40347">
        <ele>1566</ele>
        <time>2021-09-01T14:53:08.000Z</time>
      </trkpt>
      <trkpt lat="44.42149" lon="6.40347">
        <ele>1565</ele>
        <time>2021-09-01T14:53:09.000Z</time>
      </trkpt>
      <trkpt lat="44.42149" lon="6.40347">
        <ele>1566</ele>
        <time>2021-09-01T14:53:10.000Z</time>
      </trkpt>
      <trkpt lat="44.42149" lon="6.40346">
        <ele>1566</ele>
        <time>2021-09-01T14:53:11.000Z</time>
      </trkpt>
      <trkpt lat="44.42148" lon="6.40346">
        <ele>1566</ele>
        <time>2021-09-01T14:53:12.000Z</time>
      </trkpt>
      <trkpt lat="44.42148" lon="6.40346">
        <ele>1567</ele>
        <time>2021-09-01T14:53:13.000Z</time>
      </trkpt>
      <trkpt lat="44.42148" lon="6.40345">
        <ele>1567</ele>
        <time>2021-09-01T14:53:14.000Z</time>
      </trkpt>
      <trkpt lat="44.42147" lon="6.40345">
        <ele>1567</ele>
        <time>2021-09-01T14:53:15.000Z</time>
      </trkpt>
      <trkpt lat="44.42147" lon="6.40345">
        <ele>1567</ele>
        <time>2021-09-01T14:53:16.000Z</time>
      </trkpt>
      <trkpt lat="44.42147" lon="6.40345">
        <ele>1568</ele>
        <time>2021-09-01T14:53:17.000Z</time>
      </trkpt>
      <trkpt lat="44.42147" lon="6.40345">
        <ele>1568</ele>
        <time>2021-09-01T14:53:18.000Z</time>
      </trkpt>
      <trkpt lat="44.42146" lon="6.40344">
        <ele>1567</ele>
        <time>2021-09-01T14:53:19.000Z</time>
      </trkpt>
      <trkpt lat="44.42146" lon="6.40344">
        <ele>1567</ele>
        <time>2021-09-01T14:53:20.000Z</time>
      </trkpt>
      <trkpt lat="44.42146" lon="6.40344">
        <ele>1567</ele>
        <time>2021-09-01T14:53:21.000Z</time>
      </trkpt>
      <trkpt lat="44.42146" lon="6.40344">
        <ele>1567</ele>
        <time>2021-09-01T14:53:22.000Z</time>
      </trkpt>
      <trkpt lat="44.42146" lon="6.40344">
        <ele>1567</ele>
        <time>2021-09-01T14:53:23.000Z</time>
      </trkpt>
      <trkpt lat="44.42146" lon="6.40344">
        <ele>1567</ele>
        <time>2021-09-01T14:53:24.000Z</time>
      </trkpt>
      <trkpt lat="44.42146" lon="6.40344">
        <ele>1566</ele>
        <time>2021-09-01T14:53:25.000Z</time>
      </trkpt>
      <trkpt lat="44.42146" lon="6.40344">
        <ele>1566</ele>
        <time>2021-09-01T14:53:26.000Z</time>
      </trkpt>
      <trkpt lat="44.42146" lon="6.40344">
        <ele>1566</ele>
        <time>2021-09-01T14:53:27.000Z</time>
      </trkpt>
      <trkpt lat="44.42146" lon="6.40344">
        <ele>1566</ele>
        <time>2021-09-01T14:53:28.000Z</time>
      </trkpt>
      <trkpt lat="44.42146" lon="6.40344">
        <ele>1566</ele>
        <time>2021-09-01T14:53:29.000Z</time>
      </trkpt>
      <trkpt lat="44.42146" lon="6.40344">
        <ele>1566</ele>
        <time>2021-09-01T14:53:30.000Z</time>
      </trkpt>
      <trkpt lat="44.42146" lon="6.40344">
        <ele>1566</ele>
        <time>2021-09-01T14:53:31.000Z</time>
      </trkpt>
      <trkpt lat="44.42146" lon="6.40344">
        <ele>1566</ele>
        <time>2021-09-01T14:53:32.000Z</time>
      </trkpt>
      <trkpt lat="44.42146" lon="6.40344">
        <ele>1567</ele>
        <time>2021-09-01T14:53:33.000Z</time>
      </trkpt>
      <trkpt lat="44.42146" lon="6.40344">
        <ele>1567</ele>
        <time>2021-09-01T14:53:34.000Z</time>
      </trkpt>
      <trkpt lat="44.42146" lon="6.40345">
        <ele>1567</ele>
        <time>2021-09-01T14:53:35.000Z</time>
      </trkpt>
      <trkpt lat="44.42146" lon="6.40345">
        <ele>1567</ele>
        <time>2021-09-01T14:53:36.000Z</time>
      </trkpt>
      <trkpt lat="44.42146" lon="6.40345">
        <ele>1566</ele>
        <time>2021-09-01T14:53:37.000Z</time>
      </trkpt>
      <trkpt lat="44.42146" lon="6.40345">
        <ele>1566</ele>
        <time>2021-09-01T14:53:38.000Z</time>
      </trkpt>
      <trkpt lat="44.42146" lon="6.40345">
        <ele>1566</ele>
        <time>2021-09-01T14:53:39.000Z</time>
      </trkpt>
      <trkpt lat="44.42146" lon="6.40345">
        <ele>1566</ele>
        <time>2021-09-01T14:53:40.000Z</time>
      </trkpt>
      <trkpt lat="44.42146" lon="6.40345">
        <ele>1566</ele>
        <time>2021-09-01T14:53:41.000Z</time>
      </trkpt>
      <trkpt lat="44.42146" lon="6.40345">
        <ele>1566</ele>
        <time>2021-09-01T14:53:42.000Z</time>
      </trkpt>
      <trkpt lat="44.42146" lon="6.40345">
        <ele>1566</ele>
        <time>2021-09-01T14:53:43.000Z</time>
      </trkpt>
      <trkpt lat="44.42146" lon="6.40345">
        <ele>1566</ele>
        <time>2021-09-01T14:53:44.000Z</time>
      </trkpt>
      <trkpt lat="44.42146" lon="6.40345">
        <ele>1567</ele>
        <time>2021-09-01T14:53:45.000Z</time>
      </trkpt>
      <trkpt lat="44.42146" lon="6.40345">
        <ele>1567</ele>
        <time>2021-09-01T14:53:46.000Z</time>
      </trkpt>
      <trkpt lat="44.42146" lon="6.40345">
        <ele>1567</ele>
        <time>2021-09-01T14:53:47.000Z</time>
      </trkpt>
      <trkpt lat="44.42146" lon="6.40345">
        <ele>1567</ele>
        <time>2021-09-01T14:53:48.000Z</time>
      </trkpt>
      <trkpt lat="44.42146" lon="6.40346">
        <ele>1567</ele>
        <time>2021-09-01T14:53:49.000Z</time>
      </trkpt>
      <trkpt lat="44.42146" lon="6.40346">
        <ele>1567</ele>
        <time>2021-09-01T14:53:50.000Z</time>
      </trkpt>
      <trkpt lat="44.42146" lon="6.40345">
        <ele>1567</ele>
        <time>2021-09-01T14:53:51.000Z</time>
      </trkpt>
      <trkpt lat="44.42146" lon="6.40345">
        <ele>1567</ele>
        <time>2021-09-01T14:53:52.000Z</time>
      </trkpt>
      <trkpt lat="44.42146" lon="6.40345">
        <ele>1567</ele>
        <time>2021-09-01T14:53:53.000Z</time>
      </trkpt>
      <trkpt lat="44.42146" lon="6.40345">
        <ele>1567</ele>
        <time>2021-09-01T14:53:54.000Z</time>
      </trkpt>
      <trkpt lat="44.42145" lon="6.40345">
        <ele>1566</ele>
        <time>2021-09-01T14:53:55.000Z</time>
      </trkpt>
      <trkpt lat="44.42145" lon="6.40345">
        <ele>1566</ele>
        <time>2021-09-01T14:53:56.000Z</time>
      </trkpt>
      <trkpt lat="44.42145" lon="6.40345">
        <ele>1566</ele>
        <time>2021-09-01T14:53:57.000Z</time>
      </trkpt>
      <trkpt lat="44.42145" lon="6.40345">
        <ele>1566</ele>
        <time>2021-09-01T14:53:58.000Z</time>
      </trkpt>
      <trkpt lat="44.42144" lon="6.40346">
        <ele>1565</ele>
        <time>2021-09-01T14:53:59.000Z</time>
      </trkpt>
      <trkpt lat="44.42144" lon="6.40346">
        <ele>1565</ele>
        <time>2021-09-01T14:54:00.000Z</time>
      </trkpt>
      <trkpt lat="44.42144" lon="6.40347">
        <ele>1565</ele>
        <time>2021-09-01T14:54:01.000Z</time>
      </trkpt>
      <trkpt lat="44.42145" lon="6.40347">
        <ele>1565</ele>
        <time>2021-09-01T14:54:02.000Z</time>
      </trkpt>
      <trkpt lat="44.42145" lon="6.40348">
        <ele>1565</ele>
        <time>2021-09-01T14:54:03.000Z</time>
      </trkpt>
      <trkpt lat="44.42145" lon="6.40349">
        <ele>1565</ele>
        <time>2021-09-01T14:54:04.000Z</time>
      </trkpt>
      <trkpt lat="44.42145" lon="6.40349">
        <ele>1566</ele>
        <time>2021-09-01T14:54:05.000Z</time>
      </trkpt>
      <trkpt lat="44.42145" lon="6.40349">
        <ele>1565</ele>
        <time>2021-09-01T14:54:06.000Z</time>
      </trkpt>
      <trkpt lat="44.42145" lon="6.40349">
        <ele>1565</ele>
        <time>2021-09-01T14:54:07.000Z</time>
      </trkpt>
      <trkpt lat="44.42145" lon="6.40349">
        <ele>1565</ele>
        <time>2021-09-01T14:54:08.000Z</time>
      </trkpt>
      <trkpt lat="44.42145" lon="6.40349">
        <ele>1565</ele>
        <time>2021-09-01T14:54:09.000Z</time>
      </trkpt>
      <trkpt lat="44.42145" lon="6.40349">
        <ele>1565</ele>
        <time>2021-09-01T14:54:10.000Z</time>
      </trkpt>
      <trkpt lat="44.42145" lon="6.40349">
        <ele>1565</ele>
        <time>2021-09-01T14:54:11.000Z</time>
      </trkpt>
      <trkpt lat="44.42145" lon="6.40349">
        <ele>1565</ele>
        <time>2021-09-01T14:54:12.000Z</time>
      </trkpt>
      <trkpt lat="44.42145" lon="6.40349">
        <ele>1565</ele>
        <time>2021-09-01T14:54:13.000Z</time>
      </trkpt>
      <trkpt lat="44.42145" lon="6.40349">
        <ele>1565</ele>
        <time>2021-09-01T14:54:14.000Z</time>
      </trkpt>
      <trkpt lat="44.42145" lon="6.40349">
        <ele>1565</ele>
        <time>2021-09-01T14:54:15.000Z</time>
      </trkpt>
      <trkpt lat="44.42145" lon="6.40349">
        <ele>1565</ele>
        <time>2021-09-01T14:54:16.000Z</time>
      </trkpt>
      <trkpt lat="44.42145" lon="6.40349">
        <ele>1565</ele>
        <time>2021-09-01T14:54:17.000Z</time>
      </trkpt>
      <trkpt lat="44.42145" lon="6.4035">
        <ele>1565</ele>
        <time>2021-09-01T14:54:18.000Z</time>
      </trkpt>
      <trkpt lat="44.42145" lon="6.4035">
        <ele>1566</ele>
        <time>2021-09-01T14:54:19.000Z</time>
      </trkpt>
      <trkpt lat="44.42145" lon="6.4035">
        <ele>1566</ele>
        <time>2021-09-01T14:54:20.000Z</time>
      </trkpt>
      <trkpt lat="44.42146" lon="6.4035">
        <ele>1566</ele>
        <time>2021-09-01T14:54:21.000Z</time>
      </trkpt>
      <trkpt lat="44.42146" lon="6.4035">
        <ele>1566</ele>
        <time>2021-09-01T14:54:22.000Z</time>
      </trkpt>
      <trkpt lat="44.42146" lon="6.40351">
        <ele>1566</ele>
        <time>2021-09-01T14:54:23.000Z</time>
      </trkpt>
      <trkpt lat="44.42146" lon="6.40351">
        <ele>1566</ele>
        <time>2021-09-01T14:54:24.000Z</time>
      </trkpt>
      <trkpt lat="44.42146" lon="6.40352">
        <ele>1567</ele>
        <time>2021-09-01T14:54:25.000Z</time>
      </trkpt>
      <trkpt lat="44.42146" lon="6.40352">
        <ele>1567</ele>
        <time>2021-09-01T14:54:26.000Z</time>
      </trkpt>
      <trkpt lat="44.42146" lon="6.40352">
        <ele>1567</ele>
        <time>2021-09-01T14:54:27.000Z</time>
      </trkpt>
      <trkpt lat="44.42146" lon="6.40352">
        <ele>1567</ele>
        <time>2021-09-01T14:54:28.000Z</time>
      </trkpt>
      <trkpt lat="44.42146" lon="6.40351">
        <ele>1567</ele>
        <time>2021-09-01T14:54:29.000Z</time>
      </trkpt>
      <trkpt lat="44.42145" lon="6.40351">
        <ele>1567</ele>
        <time>2021-09-01T14:54:30.000Z</time>
      </trkpt>
      <trkpt lat="44.42145" lon="6.40351">
        <ele>1567</ele>
        <time>2021-09-01T14:54:31.000Z</time>
      </trkpt>
      <trkpt lat="44.42145" lon="6.40352">
        <ele>1567</ele>
        <time>2021-09-01T14:54:32.000Z</time>
      </trkpt>
      <trkpt lat="44.42145" lon="6.40351">
        <ele>1567</ele>
        <time>2021-09-01T14:54:33.000Z</time>
      </trkpt>
      <trkpt lat="44.42144" lon="6.40351">
        <ele>1567</ele>
        <time>2021-09-01T14:54:34.000Z</time>
      </trkpt>
      <trkpt lat="44.42144" lon="6.40351">
        <ele>1567</ele>
        <time>2021-09-01T14:54:35.000Z</time>
      </trkpt>
      <trkpt lat="44.42144" lon="6.40351">
        <ele>1567</ele>
        <time>2021-09-01T14:54:36.000Z</time>
      </trkpt>
      <trkpt lat="44.42144" lon="6.40351">
        <ele>1567</ele>
        <time>2021-09-01T14:54:37.000Z</time>
      </trkpt>
      <trkpt lat="44.42144" lon="6.40351">
        <ele>1566</ele>
        <time>2021-09-01T14:54:38.000Z</time>
      </trkpt>
      <trkpt lat="44.42144" lon="6.40351">
        <ele>1566</ele>
        <time>2021-09-01T14:54:39.000Z</time>
      </trkpt>
      <trkpt lat="44.42145" lon="6.40351">
        <ele>1566</ele>
        <time>2021-09-01T14:54:40.000Z</time>
      </trkpt>
      <trkpt lat="44.42144" lon="6.40351">
        <ele>1566</ele>
        <time>2021-09-01T14:54:41.000Z</time>
      </trkpt>
      <trkpt lat="44.42144" lon="6.40351">
        <ele>1565</ele>
        <time>2021-09-01T14:54:42.000Z</time>
      </trkpt>
      <trkpt lat="44.42144" lon="6.4035">
        <ele>1565</ele>
        <time>2021-09-01T14:54:43.000Z</time>
      </trkpt>
      <trkpt lat="44.42144" lon="6.4035">
        <ele>1565</ele>
        <time>2021-09-01T14:54:44.000Z</time>
      </trkpt>
      <trkpt lat="44.42144" lon="6.40351">
        <ele>1566</ele>
        <time>2021-09-01T14:54:45.000Z</time>
      </trkpt>
      <trkpt lat="44.42143" lon="6.40351">
        <ele>1566</ele>
        <time>2021-09-01T14:54:46.000Z</time>
      </trkpt>
      <trkpt lat="44.42143" lon="6.40351">
        <ele>1567</ele>
        <time>2021-09-01T14:54:47.000Z</time>
      </trkpt>
      <trkpt lat="44.42143" lon="6.40351">
        <ele>1567</ele>
        <time>2021-09-01T14:54:48.000Z</time>
      </trkpt>
      <trkpt lat="44.42143" lon="6.40351">
        <ele>1567</ele>
        <time>2021-09-01T14:54:49.000Z</time>
      </trkpt>
      <trkpt lat="44.42143" lon="6.40351">
        <ele>1567</ele>
        <time>2021-09-01T14:54:50.000Z</time>
      </trkpt>
      <trkpt lat="44.42143" lon="6.40351">
        <ele>1567</ele>
        <time>2021-09-01T14:54:51.000Z</time>
      </trkpt>
      <trkpt lat="44.42143" lon="6.4035">
        <ele>1567</ele>
        <time>2021-09-01T14:54:52.000Z</time>
      </trkpt>
      <trkpt lat="44.42143" lon="6.4035">
        <ele>1567</ele>
        <time>2021-09-01T14:54:53.000Z</time>
      </trkpt>
      <trkpt lat="44.42143" lon="6.4035">
        <ele>1566</ele>
        <time>2021-09-01T14:54:54.000Z</time>
      </trkpt>
      <trkpt lat="44.42143" lon="6.4035">
        <ele>1566</ele>
        <time>2021-09-01T14:54:55.000Z</time>
      </trkpt>
      <trkpt lat="44.42143" lon="6.4035">
        <ele>1566</ele>
        <time>2021-09-01T14:54:56.000Z</time>
      </trkpt>
      <trkpt lat="44.42143" lon="6.40351">
        <ele>1564</ele>
        <time>2021-09-01T14:54:57.000Z</time>
      </trkpt>
      <trkpt lat="44.42143" lon="6.40351">
        <ele>1564</ele>
        <time>2021-09-01T14:54:58.000Z</time>
      </trkpt>
      <trkpt lat="44.42144" lon="6.40351">
        <ele>1563</ele>
        <time>2021-09-01T14:54:59.000Z</time>
      </trkpt>
      <trkpt lat="44.42144" lon="6.40351">
        <ele>1563</ele>
        <time>2021-09-01T14:55:00.000Z</time>
      </trkpt>
      <trkpt lat="44.42144" lon="6.40351">
        <ele>1563</ele>
        <time>2021-09-01T14:55:01.000Z</time>
      </trkpt>
      <trkpt lat="44.42144" lon="6.40351">
        <ele>1563</ele>
        <time>2021-09-01T14:55:02.000Z</time>
      </trkpt>
      <trkpt lat="44.42144" lon="6.40351">
        <ele>1562</ele>
        <time>2021-09-01T14:55:03.000Z</time>
      </trkpt>
      <trkpt lat="44.42144" lon="6.40351">
        <ele>1562</ele>
        <time>2021-09-01T14:55:04.000Z</time>
      </trkpt>
      <trkpt lat="44.42144" lon="6.40352">
        <ele>1563</ele>
        <time>2021-09-01T14:55:05.000Z</time>
      </trkpt>
      <trkpt lat="44.42145" lon="6.40352">
        <ele>1563</ele>
        <time>2021-09-01T14:55:06.000Z</time>
      </trkpt>
      <trkpt lat="44.42145" lon="6.40352">
        <ele>1563</ele>
        <time>2021-09-01T14:55:07.000Z</time>
      </trkpt>
      <trkpt lat="44.42146" lon="6.40353">
        <ele>1563</ele>
        <time>2021-09-01T14:55:08.000Z</time>
      </trkpt>
      <trkpt lat="44.42146" lon="6.40353">
        <ele>1562</ele>
        <time>2021-09-01T14:55:09.000Z</time>
      </trkpt>
      <trkpt lat="44.42146" lon="6.40353">
        <ele>1562</ele>
        <time>2021-09-01T14:55:10.000Z</time>
      </trkpt>
      <trkpt lat="44.42146" lon="6.40353">
        <ele>1562</ele>
        <time>2021-09-01T14:55:11.000Z</time>
      </trkpt>
      <trkpt lat="44.42146" lon="6.40354">
        <ele>1562</ele>
        <time>2021-09-01T14:55:12.000Z</time>
      </trkpt>
      <trkpt lat="44.42146" lon="6.40354">
        <ele>1562</ele>
        <time>2021-09-01T14:55:13.000Z</time>
      </trkpt>
      <trkpt lat="44.42147" lon="6.40354">
        <ele>1562</ele>
        <time>2021-09-01T14:55:14.000Z</time>
      </trkpt>
      <trkpt lat="44.42147" lon="6.40354">
        <ele>1562</ele>
        <time>2021-09-01T14:55:15.000Z</time>
      </trkpt>
      <trkpt lat="44.42147" lon="6.40354">
        <ele>1562</ele>
        <time>2021-09-01T14:55:16.000Z</time>
      </trkpt>
      <trkpt lat="44.42147" lon="6.40354">
        <ele>1563</ele>
        <time>2021-09-01T14:55:17.000Z</time>
      </trkpt>
      <trkpt lat="44.42146" lon="6.40354">
        <ele>1563</ele>
        <time>2021-09-01T14:55:18.000Z</time>
      </trkpt>
      <trkpt lat="44.42146" lon="6.40354">
        <ele>1562</ele>
        <time>2021-09-01T14:55:19.000Z</time>
      </trkpt>
      <trkpt lat="44.42146" lon="6.40354">
        <ele>1562</ele>
        <time>2021-09-01T14:55:20.000Z</time>
      </trkpt>
      <trkpt lat="44.42146" lon="6.40354">
        <ele>1562</ele>
        <time>2021-09-01T14:55:21.000Z</time>
      </trkpt>
      <trkpt lat="44.42146" lon="6.40354">
        <ele>1562</ele>
        <time>2021-09-01T14:55:22.000Z</time>
      </trkpt>
      <trkpt lat="44.42146" lon="6.40354">
        <ele>1562</ele>
        <time>2021-09-01T14:55:23.000Z</time>
      </trkpt>
      <trkpt lat="44.42146" lon="6.40354">
        <ele>1562</ele>
        <time>2021-09-01T14:55:24.000Z</time>
      </trkpt>
      <trkpt lat="44.42146" lon="6.40354">
        <ele>1562</ele>
        <time>2021-09-01T14:55:25.000Z</time>
      </trkpt>
      <trkpt lat="44.42146" lon="6.40355">
        <ele>1562</ele>
        <time>2021-09-01T14:55:26.000Z</time>
      </trkpt>
      <trkpt lat="44.42146" lon="6.40355">
        <ele>1562</ele>
        <time>2021-09-01T14:55:27.000Z</time>
      </trkpt>
      <trkpt lat="44.42145" lon="6.40355">
        <ele>1562</ele>
        <time>2021-09-01T14:55:28.000Z</time>
      </trkpt>
      <trkpt lat="44.42145" lon="6.40355">
        <ele>1562</ele>
        <time>2021-09-01T14:55:29.000Z</time>
      </trkpt>
      <trkpt lat="44.42145" lon="6.40355">
        <ele>1563</ele>
        <time>2021-09-01T14:55:30.000Z</time>
      </trkpt>
      <trkpt lat="44.42145" lon="6.40355">
        <ele>1563</ele>
        <time>2021-09-01T14:55:31.000Z</time>
      </trkpt>
      <trkpt lat="44.42145" lon="6.40355">
        <ele>1563</ele>
        <time>2021-09-01T14:55:32.000Z</time>
      </trkpt>
      <trkpt lat="44.42145" lon="6.40355">
        <ele>1563</ele>
        <time>2021-09-01T14:55:33.000Z</time>
      </trkpt>
      <trkpt lat="44.42145" lon="6.40355">
        <ele>1563</ele>
        <time>2021-09-01T14:55:34.000Z</time>
      </trkpt>
      <trkpt lat="44.42145" lon="6.40355">
        <ele>1563</ele>
        <time>2021-09-01T14:55:35.000Z</time>
      </trkpt>
      <trkpt lat="44.42145" lon="6.40356">
        <ele>1563</ele>
        <time>2021-09-01T14:55:36.000Z</time>
      </trkpt>
      <trkpt lat="44.42145" lon="6.40356">
        <ele>1563</ele>
        <time>2021-09-01T14:55:37.000Z</time>
      </trkpt>
      <trkpt lat="44.42145" lon="6.40356">
        <ele>1562</ele>
        <time>2021-09-01T14:55:38.000Z</time>
      </trkpt>
      <trkpt lat="44.42145" lon="6.40356">
        <ele>1562</ele>
        <time>2021-09-01T14:55:39.000Z</time>
      </trkpt>
      <trkpt lat="44.42145" lon="6.40356">
        <ele>1561</ele>
        <time>2021-09-01T14:55:40.000Z</time>
      </trkpt>
      <trkpt lat="44.42146" lon="6.40357">
        <ele>1562</ele>
        <time>2021-09-01T14:55:41.000Z</time>
      </trkpt>
      <trkpt lat="44.42146" lon="6.40357">
        <ele>1562</ele>
        <time>2021-09-01T14:55:42.000Z</time>
      </trkpt>
      <trkpt lat="44.42146" lon="6.40358">
        <ele>1563</ele>
        <time>2021-09-01T14:55:43.000Z</time>
      </trkpt>
      <trkpt lat="44.42146" lon="6.40358">
        <ele>1562</ele>
        <time>2021-09-01T14:55:44.000Z</time>
      </trkpt>
      <trkpt lat="44.42146" lon="6.40358">
        <ele>1562</ele>
        <time>2021-09-01T14:55:45.000Z</time>
      </trkpt>
      <trkpt lat="44.42146" lon="6.40358">
        <ele>1562</ele>
        <time>2021-09-01T14:55:46.000Z</time>
      </trkpt>
      <trkpt lat="44.42146" lon="6.40359">
        <ele>1562</ele>
        <time>2021-09-01T14:55:47.000Z</time>
      </trkpt>
      <trkpt lat="44.42146" lon="6.40359">
        <ele>1562</ele>
        <time>2021-09-01T14:55:48.000Z</time>
      </trkpt>
      <trkpt lat="44.42147" lon="6.40359">
        <ele>1561</ele>
        <time>2021-09-01T14:55:49.000Z</time>
      </trkpt>
      <trkpt lat="44.42147" lon="6.40359">
        <ele>1561</ele>
        <time>2021-09-01T14:55:50.000Z</time>
      </trkpt>
      <trkpt lat="44.42146" lon="6.40359">
        <ele>1561</ele>
        <time>2021-09-01T14:55:51.000Z</time>
      </trkpt>
      <trkpt lat="44.42146" lon="6.40359">
        <ele>1562</ele>
        <time>2021-09-01T14:55:52.000Z</time>
      </trkpt>
      <trkpt lat="44.42147" lon="6.40359">
        <ele>1562</ele>
        <time>2021-09-01T14:55:53.000Z</time>
      </trkpt>
      <trkpt lat="44.42147" lon="6.40359">
        <ele>1562</ele>
        <time>2021-09-01T14:55:54.000Z</time>
      </trkpt>
      <trkpt lat="44.42147" lon="6.40359">
        <ele>1562</ele>
        <time>2021-09-01T14:55:55.000Z</time>
      </trkpt>
      <trkpt lat="44.42148" lon="6.40359">
        <ele>1562</ele>
        <time>2021-09-01T14:55:56.000Z</time>
      </trkpt>
      <trkpt lat="44.42148" lon="6.40359">
        <ele>1562</ele>
        <time>2021-09-01T14:55:57.000Z</time>
      </trkpt>
      <trkpt lat="44.42148" lon="6.40359">
        <ele>1561</ele>
        <time>2021-09-01T14:55:58.000Z</time>
      </trkpt>
      <trkpt lat="44.42148" lon="6.40359">
        <ele>1560</ele>
        <time>2021-09-01T14:55:59.000Z</time>
      </trkpt>
      <trkpt lat="44.42148" lon="6.40359">
        <ele>1560</ele>
        <time>2021-09-01T14:56:00.000Z</time>
      </trkpt>
      <trkpt lat="44.42148" lon="6.40359">
        <ele>1560</ele>
        <time>2021-09-01T14:56:01.000Z</time>
      </trkpt>
      <trkpt lat="44.42149" lon="6.40359">
        <ele>1560</ele>
        <time>2021-09-01T14:56:02.000Z</time>
      </trkpt>
      <trkpt lat="44.42149" lon="6.40359">
        <ele>1560</ele>
        <time>2021-09-01T14:56:03.000Z</time>
      </trkpt>
      <trkpt lat="44.42149" lon="6.40359">
        <ele>1560</ele>
        <time>2021-09-01T14:56:04.000Z</time>
      </trkpt>
      <trkpt lat="44.42149" lon="6.40358">
        <ele>1560</ele>
        <time>2021-09-01T14:56:05.000Z</time>
      </trkpt>
      <trkpt lat="44.4215" lon="6.40359">
        <ele>1560</ele>
        <time>2021-09-01T14:56:06.000Z</time>
      </trkpt>
      <trkpt lat="44.4215" lon="6.40359">
        <ele>1560</ele>
        <time>2021-09-01T14:56:07.000Z</time>
      </trkpt>
      <trkpt lat="44.4215" lon="6.4036">
        <ele>1559</ele>
        <time>2021-09-01T14:56:08.000Z</time>
      </trkpt>
      <trkpt lat="44.42151" lon="6.40361">
        <ele>1559</ele>
        <time>2021-09-01T14:56:09.000Z</time>
      </trkpt>
      <trkpt lat="44.42151" lon="6.40361">
        <ele>1558</ele>
        <time>2021-09-01T14:56:10.000Z</time>
      </trkpt>
      <trkpt lat="44.42151" lon="6.40361">
        <ele>1558</ele>
        <time>2021-09-01T14:56:11.000Z</time>
      </trkpt>
      <trkpt lat="44.42152" lon="6.40362">
        <ele>1557</ele>
        <time>2021-09-01T14:56:12.000Z</time>
      </trkpt>
      <trkpt lat="44.42152" lon="6.40362">
        <ele>1558</ele>
        <time>2021-09-01T14:56:13.000Z</time>
      </trkpt>
      <trkpt lat="44.42152" lon="6.40362">
        <ele>1558</ele>
        <time>2021-09-01T14:56:14.000Z</time>
      </trkpt>
      <trkpt lat="44.42153" lon="6.40363">
        <ele>1558</ele>
        <time>2021-09-01T14:56:15.000Z</time>
      </trkpt>
      <trkpt lat="44.42153" lon="6.40363">
        <ele>1558</ele>
        <time>2021-09-01T14:56:16.000Z</time>
      </trkpt>
      <trkpt lat="44.42153" lon="6.40363">
        <ele>1557</ele>
        <time>2021-09-01T14:56:17.000Z</time>
      </trkpt>
      <trkpt lat="44.42153" lon="6.40363">
        <ele>1557</ele>
        <time>2021-09-01T14:56:18.000Z</time>
      </trkpt>
      <trkpt lat="44.42153" lon="6.40363">
        <ele>1556</ele>
        <time>2021-09-01T14:56:19.000Z</time>
      </trkpt>
      <trkpt lat="44.42153" lon="6.40363">
        <ele>1554</ele>
        <time>2021-09-01T14:56:20.000Z</time>
      </trkpt>
      <trkpt lat="44.42153" lon="6.40364">
        <ele>1554</ele>
        <time>2021-09-01T14:56:21.000Z</time>
      </trkpt>
      <trkpt lat="44.42153" lon="6.40364">
        <ele>1554</ele>
        <time>2021-09-01T14:56:22.000Z</time>
      </trkpt>
      <trkpt lat="44.42154" lon="6.40364">
        <ele>1554</ele>
        <time>2021-09-01T14:56:23.000Z</time>
      </trkpt>
      <trkpt lat="44.42154" lon="6.40365">
        <ele>1554</ele>
        <time>2021-09-01T14:56:24.000Z</time>
      </trkpt>
      <trkpt lat="44.42154" lon="6.40365">
        <ele>1554</ele>
        <time>2021-09-01T14:56:25.000Z</time>
      </trkpt>
      <trkpt lat="44.42154" lon="6.40365">
        <ele>1554</ele>
        <time>2021-09-01T14:56:26.000Z</time>
      </trkpt>
      <trkpt lat="44.42155" lon="6.40365">
        <ele>1553</ele>
        <time>2021-09-01T14:56:27.000Z</time>
      </trkpt>
      <trkpt lat="44.42155" lon="6.40365">
        <ele>1553</ele>
        <time>2021-09-01T14:56:28.000Z</time>
      </trkpt>
      <trkpt lat="44.42155" lon="6.40366">
        <ele>1553</ele>
        <time>2021-09-01T14:56:29.000Z</time>
      </trkpt>
      <trkpt lat="44.42155" lon="6.40366">
        <ele>1553</ele>
        <time>2021-09-01T14:56:30.000Z</time>
      </trkpt>
      <trkpt lat="44.42156" lon="6.40366">
        <ele>1553</ele>
        <time>2021-09-01T14:56:31.000Z</time>
      </trkpt>
      <trkpt lat="44.42156" lon="6.40367">
        <ele>1553</ele>
        <time>2021-09-01T14:56:32.000Z</time>
      </trkpt>
      <trkpt lat="44.42156" lon="6.40367">
        <ele>1554</ele>
        <time>2021-09-01T14:56:33.000Z</time>
      </trkpt>
      <trkpt lat="44.42157" lon="6.40368">
        <ele>1554</ele>
        <time>2021-09-01T14:56:34.000Z</time>
      </trkpt>
      <trkpt lat="44.42157" lon="6.40368">
        <ele>1554</ele>
        <time>2021-09-01T14:56:35.000Z</time>
      </trkpt>
      <trkpt lat="44.42157" lon="6.40368">
        <ele>1554</ele>
        <time>2021-09-01T14:56:36.000Z</time>
      </trkpt>
      <trkpt lat="44.42158" lon="6.40368">
        <ele>1554</ele>
        <time>2021-09-01T14:56:37.000Z</time>
      </trkpt>
      <trkpt lat="44.42158" lon="6.40368">
        <ele>1554</ele>
        <time>2021-09-01T14:56:38.000Z</time>
      </trkpt>
      <trkpt lat="44.42158" lon="6.40368">
        <ele>1553</ele>
        <time>2021-09-01T14:56:39.000Z</time>
      </trkpt>
      <trkpt lat="44.42158" lon="6.40369">
        <ele>1553</ele>
        <time>2021-09-01T14:56:40.000Z</time>
      </trkpt>
      <trkpt lat="44.42159" lon="6.40369">
        <ele>1551</ele>
        <time>2021-09-01T14:56:41.000Z</time>
      </trkpt>
      <trkpt lat="44.42159" lon="6.40369">
        <ele>1550</ele>
        <time>2021-09-01T14:56:42.000Z</time>
      </trkpt>
      <trkpt lat="44.42159" lon="6.40369">
        <ele>1550</ele>
        <time>2021-09-01T14:56:43.000Z</time>
      </trkpt>
      <trkpt lat="44.4216" lon="6.40369">
        <ele>1549</ele>
        <time>2021-09-01T14:56:44.000Z</time>
      </trkpt>
      <trkpt lat="44.4216" lon="6.40369">
        <ele>1549</ele>
        <time>2021-09-01T14:56:45.000Z</time>
      </trkpt>
      <trkpt lat="44.4216" lon="6.40369">
        <ele>1549</ele>
        <time>2021-09-01T14:56:46.000Z</time>
      </trkpt>
      <trkpt lat="44.4216" lon="6.40369">
        <ele>1549</ele>
        <time>2021-09-01T14:56:47.000Z</time>
      </trkpt>
      <trkpt lat="44.4216" lon="6.40369">
        <ele>1549</ele>
        <time>2021-09-01T14:56:48.000Z</time>
      </trkpt>
      <trkpt lat="44.4216" lon="6.40369">
        <ele>1548</ele>
        <time>2021-09-01T14:56:49.000Z</time>
      </trkpt>
      <trkpt lat="44.4216" lon="6.4037">
        <ele>1547</ele>
        <time>2021-09-01T14:56:50.000Z</time>
      </trkpt>
      <trkpt lat="44.42161" lon="6.40371">
        <ele>1548</ele>
        <time>2021-09-01T14:56:51.000Z</time>
      </trkpt>
      <trkpt lat="44.42161" lon="6.40371">
        <ele>1548</ele>
        <time>2021-09-01T14:56:52.000Z</time>
      </trkpt>
      <trkpt lat="44.42161" lon="6.40371">
        <ele>1547</ele>
        <time>2021-09-01T14:56:53.000Z</time>
      </trkpt>
      <trkpt lat="44.42161" lon="6.40371">
        <ele>1547</ele>
        <time>2021-09-01T14:56:54.000Z</time>
      </trkpt>
      <trkpt lat="44.42161" lon="6.40371">
        <ele>1547</ele>
        <time>2021-09-01T14:56:55.000Z</time>
      </trkpt>
      <trkpt lat="44.42161" lon="6.40372">
        <ele>1548</ele>
        <time>2021-09-01T14:56:56.000Z</time>
      </trkpt>
      <trkpt lat="44.42161" lon="6.40372">
        <ele>1548</ele>
        <time>2021-09-01T14:56:57.000Z</time>
      </trkpt>
      <trkpt lat="44.42161" lon="6.40372">
        <ele>1548</ele>
        <time>2021-09-01T14:56:58.000Z</time>
      </trkpt>
      <trkpt lat="44.42162" lon="6.40373">
        <ele>1548</ele>
        <time>2021-09-01T14:56:59.000Z</time>
      </trkpt>
      <trkpt lat="44.42162" lon="6.40374">
        <ele>1548</ele>
        <time>2021-09-01T14:57:00.000Z</time>
      </trkpt>
      <trkpt lat="44.42162" lon="6.40374">
        <ele>1548</ele>
        <time>2021-09-01T14:57:01.000Z</time>
      </trkpt>
      <trkpt lat="44.42162" lon="6.40374">
        <ele>1547</ele>
        <time>2021-09-01T14:57:02.000Z</time>
      </trkpt>
      <trkpt lat="44.42163" lon="6.40374">
        <ele>1548</ele>
        <time>2021-09-01T14:57:03.000Z</time>
      </trkpt>
      <trkpt lat="44.42163" lon="6.40374">
        <ele>1548</ele>
        <time>2021-09-01T14:57:04.000Z</time>
      </trkpt>
      <trkpt lat="44.42163" lon="6.40374">
        <ele>1548</ele>
        <time>2021-09-01T14:57:05.000Z</time>
      </trkpt>
      <trkpt lat="44.42163" lon="6.40375">
        <ele>1548</ele>
        <time>2021-09-01T14:57:06.000Z</time>
      </trkpt>
      <trkpt lat="44.42163" lon="6.40375">
        <ele>1548</ele>
        <time>2021-09-01T14:57:07.000Z</time>
      </trkpt>
      <trkpt lat="44.42163" lon="6.40375">
        <ele>1548</ele>
        <time>2021-09-01T14:57:08.000Z</time>
      </trkpt>
      <trkpt lat="44.42164" lon="6.40375">
        <ele>1548</ele>
        <time>2021-09-01T14:57:09.000Z</time>
      </trkpt>
      <trkpt lat="44.42164" lon="6.40375">
        <ele>1548</ele>
        <time>2021-09-01T14:57:10.000Z</time>
      </trkpt>
      <trkpt lat="44.42164" lon="6.40375">
        <ele>1547</ele>
        <time>2021-09-01T14:57:11.000Z</time>
      </trkpt>
      <trkpt lat="44.42164" lon="6.40375">
        <ele>1548</ele>
        <time>2021-09-01T14:57:12.000Z</time>
      </trkpt>
      <trkpt lat="44.42164" lon="6.40376">
        <ele>1548</ele>
        <time>2021-09-01T14:57:13.000Z</time>
      </trkpt>
      <trkpt lat="44.42164" lon="6.40375">
        <ele>1548</ele>
        <time>2021-09-01T14:57:14.000Z</time>
      </trkpt>
      <trkpt lat="44.42164" lon="6.40375">
        <ele>1548</ele>
        <time>2021-09-01T14:57:15.000Z</time>
      </trkpt>
      <trkpt lat="44.42164" lon="6.40376">
        <ele>1548</ele>
        <time>2021-09-01T14:57:16.000Z</time>
      </trkpt>
      <trkpt lat="44.42164" lon="6.40376">
        <ele>1548</ele>
        <time>2021-09-01T14:57:17.000Z</time>
      </trkpt>
      <trkpt lat="44.42164" lon="6.40375">
        <ele>1547</ele>
        <time>2021-09-01T14:57:18.000Z</time>
      </trkpt>
      <trkpt lat="44.42165" lon="6.40375">
        <ele>1546</ele>
        <time>2021-09-01T14:57:19.000Z</time>
      </trkpt>
      <trkpt lat="44.42165" lon="6.40375">
        <ele>1546</ele>
        <time>2021-09-01T14:57:20.000Z</time>
      </trkpt>
      <trkpt lat="44.42165" lon="6.40375">
        <ele>1546</ele>
        <time>2021-09-01T14:57:21.000Z</time>
      </trkpt>
      <trkpt lat="44.42165" lon="6.40375">
        <ele>1546</ele>
        <time>2021-09-01T14:57:22.000Z</time>
      </trkpt>
      <trkpt lat="44.42166" lon="6.40375">
        <ele>1547</ele>
        <time>2021-09-01T14:57:23.000Z</time>
      </trkpt>
      <trkpt lat="44.42166" lon="6.40375">
        <ele>1547</ele>
        <time>2021-09-01T14:57:24.000Z</time>
      </trkpt>
      <trkpt lat="44.42166" lon="6.40376">
        <ele>1547</ele>
        <time>2021-09-01T14:57:25.000Z</time>
      </trkpt>
      <trkpt lat="44.42166" lon="6.40376">
        <ele>1547</ele>
        <time>2021-09-01T14:57:26.000Z</time>
      </trkpt>
      <trkpt lat="44.42167" lon="6.40376">
        <ele>1547</ele>
        <time>2021-09-01T14:57:27.000Z</time>
      </trkpt>
      <trkpt lat="44.42167" lon="6.40376">
        <ele>1546</ele>
        <time>2021-09-01T14:57:28.000Z</time>
      </trkpt>
      <trkpt lat="44.42167" lon="6.40377">
        <ele>1545</ele>
        <time>2021-09-01T14:57:29.000Z</time>
      </trkpt>
      <trkpt lat="44.42167" lon="6.40377">
        <ele>1545</ele>
        <time>2021-09-01T14:57:30.000Z</time>
      </trkpt>
      <trkpt lat="44.42168" lon="6.40377">
        <ele>1545</ele>
        <time>2021-09-01T14:57:31.000Z</time>
      </trkpt>
      <trkpt lat="44.42167" lon="6.40377">
        <ele>1544</ele>
        <time>2021-09-01T14:57:32.000Z</time>
      </trkpt>
      <trkpt lat="44.42168" lon="6.40378">
        <ele>1543</ele>
        <time>2021-09-01T14:57:33.000Z</time>
      </trkpt>
      <trkpt lat="44.42168" lon="6.40378">
        <ele>1543</ele>
        <time>2021-09-01T14:57:34.000Z</time>
      </trkpt>
      <trkpt lat="44.42168" lon="6.40378">
        <ele>1543</ele>
        <time>2021-09-01T14:57:35.000Z</time>
      </trkpt>
      <trkpt lat="44.42169" lon="6.40378">
        <ele>1544</ele>
        <time>2021-09-01T14:57:36.000Z</time>
      </trkpt>
      <trkpt lat="44.42168" lon="6.40378">
        <ele>1543</ele>
        <time>2021-09-01T14:57:37.000Z</time>
      </trkpt>
      <trkpt lat="44.42169" lon="6.40378">
        <ele>1543</ele>
        <time>2021-09-01T14:57:38.000Z</time>
      </trkpt>
      <trkpt lat="44.42168" lon="6.40378">
        <ele>1543</ele>
        <time>2021-09-01T14:57:39.000Z</time>
      </trkpt>
      <trkpt lat="44.42168" lon="6.40378">
        <ele>1544</ele>
        <time>2021-09-01T14:57:40.000Z</time>
      </trkpt>
      <trkpt lat="44.42168" lon="6.40379">
        <ele>1544</ele>
        <time>2021-09-01T14:57:41.000Z</time>
      </trkpt>
      <trkpt lat="44.42169" lon="6.40379">
        <ele>1544</ele>
        <time>2021-09-01T14:57:42.000Z</time>
      </trkpt>
      <trkpt lat="44.42169" lon="6.40379">
        <ele>1544</ele>
        <time>2021-09-01T14:57:43.000Z</time>
      </trkpt>
      <trkpt lat="44.42169" lon="6.40379">
        <ele>1545</ele>
        <time>2021-09-01T14:57:44.000Z</time>
      </trkpt>
      <trkpt lat="44.42169" lon="6.40379">
        <ele>1545</ele>
        <time>2021-09-01T14:57:45.000Z</time>
      </trkpt>
      <trkpt lat="44.42169" lon="6.40379">
        <ele>1545</ele>
        <time>2021-09-01T14:57:46.000Z</time>
      </trkpt>
      <trkpt lat="44.42169" lon="6.40379">
        <ele>1545</ele>
        <time>2021-09-01T14:57:47.000Z</time>
      </trkpt>
      <trkpt lat="44.42169" lon="6.40379">
        <ele>1546</ele>
        <time>2021-09-01T14:57:48.000Z</time>
      </trkpt>
      <trkpt lat="44.4217" lon="6.40379">
        <ele>1546</ele>
        <time>2021-09-01T14:57:49.000Z</time>
      </trkpt>
      <trkpt lat="44.4217" lon="6.40379">
        <ele>1547</ele>
        <time>2021-09-01T14:57:50.000Z</time>
      </trkpt>
      <trkpt lat="44.4217" lon="6.40379">
        <ele>1547</ele>
        <time>2021-09-01T14:57:51.000Z</time>
      </trkpt>
      <trkpt lat="44.4217" lon="6.40379">
        <ele>1546</ele>
        <time>2021-09-01T14:57:52.000Z</time>
      </trkpt>
      <trkpt lat="44.4217" lon="6.40379">
        <ele>1546</ele>
        <time>2021-09-01T14:57:53.000Z</time>
      </trkpt>
      <trkpt lat="44.42171" lon="6.40379">
        <ele>1546</ele>
        <time>2021-09-01T14:57:54.000Z</time>
      </trkpt>
      <trkpt lat="44.42171" lon="6.40379">
        <ele>1547</ele>
        <time>2021-09-01T14:57:55.000Z</time>
      </trkpt>
      <trkpt lat="44.42171" lon="6.40379">
        <ele>1547</ele>
        <time>2021-09-01T14:57:56.000Z</time>
      </trkpt>
      <trkpt lat="44.42171" lon="6.40379">
        <ele>1546</ele>
        <time>2021-09-01T14:57:57.000Z</time>
      </trkpt>
      <trkpt lat="44.42172" lon="6.4038">
        <ele>1546</ele>
        <time>2021-09-01T14:57:58.000Z</time>
      </trkpt>
      <trkpt lat="44.42172" lon="6.4038">
        <ele>1546</ele>
        <time>2021-09-01T14:57:59.000Z</time>
      </trkpt>
      <trkpt lat="44.42172" lon="6.4038">
        <ele>1546</ele>
        <time>2021-09-01T14:58:00.000Z</time>
      </trkpt>
      <trkpt lat="44.42172" lon="6.4038">
        <ele>1546</ele>
        <time>2021-09-01T14:58:01.000Z</time>
      </trkpt>
      <trkpt lat="44.42172" lon="6.40381">
        <ele>1545</ele>
        <time>2021-09-01T14:58:02.000Z</time>
      </trkpt>
      <trkpt lat="44.42173" lon="6.40381">
        <ele>1545</ele>
        <time>2021-09-01T14:58:03.000Z</time>
      </trkpt>
      <trkpt lat="44.42173" lon="6.40381">
        <ele>1545</ele>
        <time>2021-09-01T14:58:04.000Z</time>
      </trkpt>
      <trkpt lat="44.42173" lon="6.40382">
        <ele>1546</ele>
        <time>2021-09-01T14:58:05.000Z</time>
      </trkpt>
      <trkpt lat="44.42173" lon="6.40382">
        <ele>1546</ele>
        <time>2021-09-01T14:58:06.000Z</time>
      </trkpt>
      <trkpt lat="44.42174" lon="6.40382">
        <ele>1546</ele>
        <time>2021-09-01T14:58:07.000Z</time>
      </trkpt>
      <trkpt lat="44.42174" lon="6.40381">
        <ele>1546</ele>
        <time>2021-09-01T14:58:08.000Z</time>
      </trkpt>
      <trkpt lat="44.42174" lon="6.40382">
        <ele>1546</ele>
        <time>2021-09-01T14:58:09.000Z</time>
      </trkpt>
      <trkpt lat="44.42174" lon="6.40382">
        <ele>1546</ele>
        <time>2021-09-01T14:58:10.000Z</time>
      </trkpt>
      <trkpt lat="44.42175" lon="6.40382">
        <ele>1545</ele>
        <time>2021-09-01T14:58:11.000Z</time>
      </trkpt>
      <trkpt lat="44.42175" lon="6.40382">
        <ele>1545</ele>
        <time>2021-09-01T14:58:12.000Z</time>
      </trkpt>
      <trkpt lat="44.42176" lon="6.40382">
        <ele>1546</ele>
        <time>2021-09-01T14:58:13.000Z</time>
      </trkpt>
      <trkpt lat="44.42176" lon="6.40382">
        <ele>1546</ele>
        <time>2021-09-01T14:58:14.000Z</time>
      </trkpt>
      <trkpt lat="44.42177" lon="6.40382">
        <ele>1545</ele>
        <time>2021-09-01T14:58:15.000Z</time>
      </trkpt>
      <trkpt lat="44.42176" lon="6.40382">
        <ele>1544</ele>
        <time>2021-09-01T14:58:16.000Z</time>
      </trkpt>
      <trkpt lat="44.42177" lon="6.40382">
        <ele>1543</ele>
        <time>2021-09-01T14:58:17.000Z</time>
      </trkpt>
      <trkpt lat="44.42176" lon="6.40382">
        <ele>1543</ele>
        <time>2021-09-01T14:58:18.000Z</time>
      </trkpt>
      <trkpt lat="44.42176" lon="6.40382">
        <ele>1543</ele>
        <time>2021-09-01T14:58:19.000Z</time>
      </trkpt>
      <trkpt lat="44.42176" lon="6.40382">
        <ele>1543</ele>
        <time>2021-09-01T14:58:20.000Z</time>
      </trkpt>
      <trkpt lat="44.42177" lon="6.40382">
        <ele>1543</ele>
        <time>2021-09-01T14:58:21.000Z</time>
      </trkpt>
      <trkpt lat="44.42177" lon="6.40382">
        <ele>1543</ele>
        <time>2021-09-01T14:58:22.000Z</time>
      </trkpt>
      <trkpt lat="44.42177" lon="6.40383">
        <ele>1543</ele>
        <time>2021-09-01T14:58:23.000Z</time>
      </trkpt>
      <trkpt lat="44.42177" lon="6.40383">
        <ele>1543</ele>
        <time>2021-09-01T14:58:24.000Z</time>
      </trkpt>
      <trkpt lat="44.42178" lon="6.40384">
        <ele>1543</ele>
        <time>2021-09-01T14:58:25.000Z</time>
      </trkpt>
      <trkpt lat="44.42179" lon="6.40385">
        <ele>1543</ele>
        <time>2021-09-01T14:58:26.000Z</time>
      </trkpt>
      <trkpt lat="44.42179" lon="6.40386">
        <ele>1543</ele>
        <time>2021-09-01T14:58:27.000Z</time>
      </trkpt>
      <trkpt lat="44.42179" lon="6.40386">
        <ele>1543</ele>
        <time>2021-09-01T14:58:28.000Z</time>
      </trkpt>
      <trkpt lat="44.4218" lon="6.40386">
        <ele>1544</ele>
        <time>2021-09-01T14:58:29.000Z</time>
      </trkpt>
      <trkpt lat="44.4218" lon="6.40386">
        <ele>1543</ele>
        <time>2021-09-01T14:58:30.000Z</time>
      </trkpt>
      <trkpt lat="44.4218" lon="6.40386">
        <ele>1543</ele>
        <time>2021-09-01T14:58:31.000Z</time>
      </trkpt>
      <trkpt lat="44.42181" lon="6.40386">
        <ele>1543</ele>
        <time>2021-09-01T14:58:32.000Z</time>
      </trkpt>
      <trkpt lat="44.42181" lon="6.40386">
        <ele>1542</ele>
        <time>2021-09-01T14:58:33.000Z</time>
      </trkpt>
      <trkpt lat="44.4218" lon="6.40386">
        <ele>1542</ele>
        <time>2021-09-01T14:58:34.000Z</time>
      </trkpt>
      <trkpt lat="44.4218" lon="6.40386">
        <ele>1542</ele>
        <time>2021-09-01T14:58:35.000Z</time>
      </trkpt>
      <trkpt lat="44.4218" lon="6.40386">
        <ele>1542</ele>
        <time>2021-09-01T14:58:36.000Z</time>
      </trkpt>
      <trkpt lat="44.42181" lon="6.40387">
        <ele>1541</ele>
        <time>2021-09-01T14:58:37.000Z</time>
      </trkpt>
      <trkpt lat="44.42181" lon="6.40388">
        <ele>1541</ele>
        <time>2021-09-01T14:58:38.000Z</time>
      </trkpt>
      <trkpt lat="44.42181" lon="6.40388">
        <ele>1541</ele>
        <time>2021-09-01T14:58:39.000Z</time>
      </trkpt>
      <trkpt lat="44.42181" lon="6.40389">
        <ele>1541</ele>
        <time>2021-09-01T14:58:40.000Z</time>
      </trkpt>
      <trkpt lat="44.42181" lon="6.40389">
        <ele>1541</ele>
        <time>2021-09-01T14:58:41.000Z</time>
      </trkpt>
      <trkpt lat="44.42181" lon="6.40389">
        <ele>1540</ele>
        <time>2021-09-01T14:58:42.000Z</time>
      </trkpt>
      <trkpt lat="44.42182" lon="6.40389">
        <ele>1540</ele>
        <time>2021-09-01T14:58:43.000Z</time>
      </trkpt>
      <trkpt lat="44.42182" lon="6.40389">
        <ele>1539</ele>
        <time>2021-09-01T14:58:44.000Z</time>
      </trkpt>
      <trkpt lat="44.42183" lon="6.4039">
        <ele>1539</ele>
        <time>2021-09-01T14:58:45.000Z</time>
      </trkpt>
      <trkpt lat="44.42184" lon="6.4039">
        <ele>1539</ele>
        <time>2021-09-01T14:58:46.000Z</time>
      </trkpt>
      <trkpt lat="44.42184" lon="6.4039">
        <ele>1540</ele>
        <time>2021-09-01T14:58:47.000Z</time>
      </trkpt>
      <trkpt lat="44.42184" lon="6.4039">
        <ele>1539</ele>
        <time>2021-09-01T14:58:48.000Z</time>
      </trkpt>
      <trkpt lat="44.42184" lon="6.4039">
        <ele>1540</ele>
        <time>2021-09-01T14:58:49.000Z</time>
      </trkpt>
      <trkpt lat="44.42184" lon="6.4039">
        <ele>1540</ele>
        <time>2021-09-01T14:58:50.000Z</time>
      </trkpt>
      <trkpt lat="44.42184" lon="6.4039">
        <ele>1539</ele>
        <time>2021-09-01T14:58:51.000Z</time>
      </trkpt>
      <trkpt lat="44.42184" lon="6.40391">
        <ele>1540</ele>
        <time>2021-09-01T14:58:52.000Z</time>
      </trkpt>
      <trkpt lat="44.42185" lon="6.40391">
        <ele>1540</ele>
        <time>2021-09-01T14:58:53.000Z</time>
      </trkpt>
      <trkpt lat="44.42185" lon="6.40391">
        <ele>1540</ele>
        <time>2021-09-01T14:58:54.000Z</time>
      </trkpt>
      <trkpt lat="44.42185" lon="6.40391">
        <ele>1540</ele>
        <time>2021-09-01T14:58:55.000Z</time>
      </trkpt>
      <trkpt lat="44.42185" lon="6.40391">
        <ele>1541</ele>
        <time>2021-09-01T14:58:56.000Z</time>
      </trkpt>
      <trkpt lat="44.42185" lon="6.40391">
        <ele>1541</ele>
        <time>2021-09-01T14:58:57.000Z</time>
      </trkpt>
      <trkpt lat="44.42185" lon="6.40391">
        <ele>1541</ele>
        <time>2021-09-01T14:58:58.000Z</time>
      </trkpt>
      <trkpt lat="44.42185" lon="6.40391">
        <ele>1541</ele>
        <time>2021-09-01T14:58:59.000Z</time>
      </trkpt>
      <trkpt lat="44.42185" lon="6.40391">
        <ele>1541</ele>
        <time>2021-09-01T14:59:00.000Z</time>
      </trkpt>
      <trkpt lat="44.42186" lon="6.40391">
        <ele>1541</ele>
        <time>2021-09-01T14:59:01.000Z</time>
      </trkpt>
      <trkpt lat="44.42186" lon="6.40392">
        <ele>1541</ele>
        <time>2021-09-01T14:59:02.000Z</time>
      </trkpt>
      <trkpt lat="44.42186" lon="6.40392">
        <ele>1542</ele>
        <time>2021-09-01T14:59:03.000Z</time>
      </trkpt>
      <trkpt lat="44.42186" lon="6.40392">
        <ele>1542</ele>
        <time>2021-09-01T14:59:04.000Z</time>
      </trkpt>
      <trkpt lat="44.42186" lon="6.40393">
        <ele>1543</ele>
        <time>2021-09-01T14:59:05.000Z</time>
      </trkpt>
      <trkpt lat="44.42186" lon="6.40393">
        <ele>1543</ele>
        <time>2021-09-01T14:59:06.000Z</time>
      </trkpt>
      <trkpt lat="44.42187" lon="6.40393">
        <ele>1542</ele>
        <time>2021-09-01T14:59:07.000Z</time>
      </trkpt>
      <trkpt lat="44.42187" lon="6.40394">
        <ele>1543</ele>
        <time>2021-09-01T14:59:08.000Z</time>
      </trkpt>
      <trkpt lat="44.42187" lon="6.40394">
        <ele>1543</ele>
        <time>2021-09-01T14:59:09.000Z</time>
      </trkpt>
      <trkpt lat="44.42186" lon="6.40393">
        <ele>1543</ele>
        <time>2021-09-01T14:59:10.000Z</time>
      </trkpt>
      <trkpt lat="44.42186" lon="6.40393">
        <ele>1543</ele>
        <time>2021-09-01T14:59:11.000Z</time>
      </trkpt>
      <trkpt lat="44.42186" lon="6.40394">
        <ele>1543</ele>
        <time>2021-09-01T14:59:12.000Z</time>
      </trkpt>
      <trkpt lat="44.42187" lon="6.40393">
        <ele>1542</ele>
        <time>2021-09-01T14:59:13.000Z</time>
      </trkpt>
      <trkpt lat="44.42187" lon="6.40393">
        <ele>1542</ele>
        <time>2021-09-01T14:59:14.000Z</time>
      </trkpt>
      <trkpt lat="44.42187" lon="6.40393">
        <ele>1542</ele>
        <time>2021-09-01T14:59:15.000Z</time>
      </trkpt>
      <trkpt lat="44.42187" lon="6.40393">
        <ele>1542</ele>
        <time>2021-09-01T14:59:16.000Z</time>
      </trkpt>
      <trkpt lat="44.42187" lon="6.40394">
        <ele>1543</ele>
        <time>2021-09-01T14:59:17.000Z</time>
      </trkpt>
      <trkpt lat="44.42187" lon="6.40394">
        <ele>1543</ele>
        <time>2021-09-01T14:59:18.000Z</time>
      </trkpt>
      <trkpt lat="44.42187" lon="6.40394">
        <ele>1542</ele>
        <time>2021-09-01T14:59:19.000Z</time>
      </trkpt>
      <trkpt lat="44.42186" lon="6.40394">
        <ele>1542</ele>
        <time>2021-09-01T14:59:20.000Z</time>
      </trkpt>
      <trkpt lat="44.42186" lon="6.40393">
        <ele>1542</ele>
        <time>2021-09-01T14:59:21.000Z</time>
      </trkpt>
      <trkpt lat="44.42186" lon="6.40393">
        <ele>1542</ele>
        <time>2021-09-01T14:59:22.000Z</time>
      </trkpt>
      <trkpt lat="44.42185" lon="6.40393">
        <ele>1542</ele>
        <time>2021-09-01T14:59:23.000Z</time>
      </trkpt>
      <trkpt lat="44.42185" lon="6.40393">
        <ele>1542</ele>
        <time>2021-09-01T14:59:24.000Z</time>
      </trkpt>
      <trkpt lat="44.42185" lon="6.40393">
        <ele>1541</ele>
        <time>2021-09-01T14:59:25.000Z</time>
      </trkpt>
      <trkpt lat="44.42185" lon="6.40393">
        <ele>1541</ele>
        <time>2021-09-01T14:59:26.000Z</time>
      </trkpt>
      <trkpt lat="44.42185" lon="6.40393">
        <ele>1541</ele>
        <time>2021-09-01T14:59:27.000Z</time>
      </trkpt>
      <trkpt lat="44.42185" lon="6.40393">
        <ele>1540</ele>
        <time>2021-09-01T14:59:28.000Z</time>
      </trkpt>
      <trkpt lat="44.42186" lon="6.40394">
        <ele>1541</ele>
        <time>2021-09-01T14:59:29.000Z</time>
      </trkpt>
      <trkpt lat="44.42185" lon="6.40394">
        <ele>1541</ele>
        <time>2021-09-01T14:59:30.000Z</time>
      </trkpt>
      <trkpt lat="44.42185" lon="6.40394">
        <ele>1541</ele>
        <time>2021-09-01T14:59:31.000Z</time>
      </trkpt>
      <trkpt lat="44.42185" lon="6.40394">
        <ele>1541</ele>
        <time>2021-09-01T14:59:32.000Z</time>
      </trkpt>
      <trkpt lat="44.42186" lon="6.40395">
        <ele>1542</ele>
        <time>2021-09-01T14:59:33.000Z</time>
      </trkpt>
      <trkpt lat="44.42186" lon="6.40396">
        <ele>1541</ele>
        <time>2021-09-01T14:59:34.000Z</time>
      </trkpt>
      <trkpt lat="44.42186" lon="6.40396">
        <ele>1542</ele>
        <time>2021-09-01T14:59:35.000Z</time>
      </trkpt>
      <trkpt lat="44.42187" lon="6.40397">
        <ele>1541</ele>
        <time>2021-09-01T14:59:36.000Z</time>
      </trkpt>
      <trkpt lat="44.42186" lon="6.40395">
        <ele>1540</ele>
        <time>2021-09-01T14:59:37.000Z</time>
      </trkpt>
      <trkpt lat="44.42186" lon="6.40395">
        <ele>1539</ele>
        <time>2021-09-01T14:59:38.000Z</time>
      </trkpt>
      <trkpt lat="44.42186" lon="6.40395">
        <ele>1539</ele>
        <time>2021-09-01T14:59:39.000Z</time>
      </trkpt>
      <trkpt lat="44.42186" lon="6.40395">
        <ele>1539</ele>
        <time>2021-09-01T14:59:40.000Z</time>
      </trkpt>
      <trkpt lat="44.42186" lon="6.40395">
        <ele>1539</ele>
        <time>2021-09-01T14:59:41.000Z</time>
      </trkpt>
      <trkpt lat="44.42186" lon="6.40395">
        <ele>1540</ele>
        <time>2021-09-01T14:59:42.000Z</time>
      </trkpt>
      <trkpt lat="44.42186" lon="6.40396">
        <ele>1540</ele>
        <time>2021-09-01T14:59:43.000Z</time>
      </trkpt>
      <trkpt lat="44.42186" lon="6.40396">
        <ele>1540</ele>
        <time>2021-09-01T14:59:44.000Z</time>
      </trkpt>
      <trkpt lat="44.42186" lon="6.40397">
        <ele>1540</ele>
        <time>2021-09-01T14:59:45.000Z</time>
      </trkpt>
      <trkpt lat="44.42186" lon="6.40398">
        <ele>1539</ele>
        <time>2021-09-01T14:59:46.000Z</time>
      </trkpt>
      <trkpt lat="44.42186" lon="6.40398">
        <ele>1539</ele>
        <time>2021-09-01T14:59:47.000Z</time>
      </trkpt>
      <trkpt lat="44.42186" lon="6.40399">
        <ele>1539</ele>
        <time>2021-09-01T14:59:48.000Z</time>
      </trkpt>
      <trkpt lat="44.42186" lon="6.40399">
        <ele>1539</ele>
        <time>2021-09-01T14:59:49.000Z</time>
      </trkpt>
      <trkpt lat="44.42186" lon="6.40399">
        <ele>1540</ele>
        <time>2021-09-01T14:59:50.000Z</time>
      </trkpt>
      <trkpt lat="44.42185" lon="6.404">
        <ele>1540</ele>
        <time>2021-09-01T14:59:51.000Z</time>
      </trkpt>
      <trkpt lat="44.42185" lon="6.404">
        <ele>1539</ele>
        <time>2021-09-01T14:59:52.000Z</time>
      </trkpt>
      <trkpt lat="44.42186" lon="6.404">
        <ele>1540</ele>
        <time>2021-09-01T14:59:53.000Z</time>
      </trkpt>
      <trkpt lat="44.42186" lon="6.404">
        <ele>1540</ele>
        <time>2021-09-01T14:59:54.000Z</time>
      </trkpt>
      <trkpt lat="44.42186" lon="6.404">
        <ele>1540</ele>
        <time>2021-09-01T14:59:55.000Z</time>
      </trkpt>
      <trkpt lat="44.42186" lon="6.404">
        <ele>1541</ele>
        <time>2021-09-01T14:59:56.000Z</time>
      </trkpt>
      <trkpt lat="44.42186" lon="6.40401">
        <ele>1542</ele>
        <time>2021-09-01T14:59:57.000Z</time>
      </trkpt>
      <trkpt lat="44.42186" lon="6.40401">
        <ele>1541</ele>
        <time>2021-09-01T14:59:58.000Z</time>
      </trkpt>
      <trkpt lat="44.42187" lon="6.40401">
        <ele>1541</ele>
        <time>2021-09-01T14:59:59.000Z</time>
      </trkpt>
      <trkpt lat="44.42187" lon="6.40401">
        <ele>1542</ele>
        <time>2021-09-01T15:00:00.000Z</time>
      </trkpt>
      <trkpt lat="44.42187" lon="6.40401">
        <ele>1542</ele>
        <time>2021-09-01T15:00:01.000Z</time>
      </trkpt>
      <trkpt lat="44.42187" lon="6.404">
        <ele>1542</ele>
        <time>2021-09-01T15:00:02.000Z</time>
      </trkpt>
      <trkpt lat="44.42187" lon="6.404">
        <ele>1542</ele>
        <time>2021-09-01T15:00:03.000Z</time>
      </trkpt>
      <trkpt lat="44.42187" lon="6.404">
        <ele>1542</ele>
        <time>2021-09-01T15:00:04.000Z</time>
      </trkpt>
      <trkpt lat="44.42186" lon="6.404">
        <ele>1542</ele>
        <time>2021-09-01T15:00:05.000Z</time>
      </trkpt>
      <trkpt lat="44.42186" lon="6.404">
        <ele>1542</ele>
        <time>2021-09-01T15:00:06.000Z</time>
      </trkpt>
      <trkpt lat="44.42186" lon="6.404">
        <ele>1541</ele>
        <time>2021-09-01T15:00:07.000Z</time>
      </trkpt>
      <trkpt lat="44.42186" lon="6.40399">
        <ele>1541</ele>
        <time>2021-09-01T15:00:08.000Z</time>
      </trkpt>
      <trkpt lat="44.42186" lon="6.40399">
        <ele>1541</ele>
        <time>2021-09-01T15:00:09.000Z</time>
      </trkpt>
      <trkpt lat="44.42186" lon="6.40399">
        <ele>1540</ele>
        <time>2021-09-01T15:00:10.000Z</time>
      </trkpt>
      <trkpt lat="44.42186" lon="6.40399">
        <ele>1540</ele>
        <time>2021-09-01T15:00:11.000Z</time>
      </trkpt>
      <trkpt lat="44.42185" lon="6.40399">
        <ele>1539</ele>
        <time>2021-09-01T15:00:12.000Z</time>
      </trkpt>
      <trkpt lat="44.42185" lon="6.40399">
        <ele>1539</ele>
        <time>2021-09-01T15:00:13.000Z</time>
      </trkpt>
      <trkpt lat="44.42185" lon="6.40398">
        <ele>1538</ele>
        <time>2021-09-01T15:00:14.000Z</time>
      </trkpt>
      <trkpt lat="44.42185" lon="6.40398">
        <ele>1538</ele>
        <time>2021-09-01T15:00:15.000Z</time>
      </trkpt>
      <trkpt lat="44.42185" lon="6.40398">
        <ele>1538</ele>
        <time>2021-09-01T15:00:16.000Z</time>
      </trkpt>
      <trkpt lat="44.42184" lon="6.40397">
        <ele>1537</ele>
        <time>2021-09-01T15:00:17.000Z</time>
      </trkpt>
      <trkpt lat="44.42184" lon="6.40397">
        <ele>1537</ele>
        <time>2021-09-01T15:00:18.000Z</time>
      </trkpt>
      <trkpt lat="44.42184" lon="6.40396">
        <ele>1536</ele>
        <time>2021-09-01T15:00:19.000Z</time>
      </trkpt>
      <trkpt lat="44.42184" lon="6.40396">
        <ele>1535</ele>
        <time>2021-09-01T15:00:20.000Z</time>
      </trkpt>
      <trkpt lat="44.42184" lon="6.40396">
        <ele>1535</ele>
        <time>2021-09-01T15:00:21.000Z</time>
      </trkpt>
      <trkpt lat="44.42184" lon="6.40396">
        <ele>1535</ele>
        <time>2021-09-01T15:00:22.000Z</time>
      </trkpt>
      <trkpt lat="44.42184" lon="6.40396">
        <ele>1534</ele>
        <time>2021-09-01T15:00:23.000Z</time>
      </trkpt>
      <trkpt lat="44.42184" lon="6.40396">
        <ele>1534</ele>
        <time>2021-09-01T15:00:24.000Z</time>
      </trkpt>
      <trkpt lat="44.42184" lon="6.40397">
        <ele>1534</ele>
        <time>2021-09-01T15:00:25.000Z</time>
      </trkpt>
      <trkpt lat="44.42184" lon="6.40397">
        <ele>1535</ele>
        <time>2021-09-01T15:00:26.000Z</time>
      </trkpt>
      <trkpt lat="44.42185" lon="6.40396">
        <ele>1535</ele>
        <time>2021-09-01T15:00:27.000Z</time>
      </trkpt>
      <trkpt lat="44.42185" lon="6.40397">
        <ele>1535</ele>
        <time>2021-09-01T15:00:28.000Z</time>
      </trkpt>
      <trkpt lat="44.42185" lon="6.40397">
        <ele>1535</ele>
        <time>2021-09-01T15:00:29.000Z</time>
      </trkpt>
      <trkpt lat="44.42185" lon="6.40397">
        <ele>1535</ele>
        <time>2021-09-01T15:00:30.000Z</time>
      </trkpt>
      <trkpt lat="44.42186" lon="6.40397">
        <ele>1535</ele>
        <time>2021-09-01T15:00:31.000Z</time>
      </trkpt>
      <trkpt lat="44.42186" lon="6.40398">
        <ele>1535</ele>
        <time>2021-09-01T15:00:32.000Z</time>
      </trkpt>
      <trkpt lat="44.42185" lon="6.40398">
        <ele>1534</ele>
        <time>2021-09-01T15:00:33.000Z</time>
      </trkpt>
      <trkpt lat="44.42185" lon="6.40398">
        <ele>1534</ele>
        <time>2021-09-01T15:00:34.000Z</time>
      </trkpt>
      <trkpt lat="44.42186" lon="6.40398">
        <ele>1534</ele>
        <time>2021-09-01T15:00:35.000Z</time>
      </trkpt>
      <trkpt lat="44.42186" lon="6.40398">
        <ele>1534</ele>
        <time>2021-09-01T15:00:36.000Z</time>
      </trkpt>
      <trkpt lat="44.42186" lon="6.40398">
        <ele>1534</ele>
        <time>2021-09-01T15:00:37.000Z</time>
      </trkpt>
      <trkpt lat="44.42186" lon="6.40398">
        <ele>1534</ele>
        <time>2021-09-01T15:00:38.000Z</time>
      </trkpt>
      <trkpt lat="44.42187" lon="6.40398">
        <ele>1534</ele>
        <time>2021-09-01T15:00:39.000Z</time>
      </trkpt>
      <trkpt lat="44.42187" lon="6.40399">
        <ele>1534</ele>
        <time>2021-09-01T15:00:40.000Z</time>
      </trkpt>
      <trkpt lat="44.42188" lon="6.40399">
        <ele>1534</ele>
        <time>2021-09-01T15:00:41.000Z</time>
      </trkpt>
      <trkpt lat="44.42188" lon="6.404">
        <ele>1534</ele>
        <time>2021-09-01T15:00:42.000Z</time>
      </trkpt>
      <trkpt lat="44.42188" lon="6.404">
        <ele>1534</ele>
        <time>2021-09-01T15:00:43.000Z</time>
      </trkpt>
      <trkpt lat="44.42188" lon="6.404">
        <ele>1534</ele>
        <time>2021-09-01T15:00:44.000Z</time>
      </trkpt>
      <trkpt lat="44.42188" lon="6.404">
        <ele>1535</ele>
        <time>2021-09-01T15:00:46.000Z</time>
      </trkpt>
      <trkpt lat="44.42188" lon="6.404">
        <ele>1536</ele>
        <time>2021-09-01T15:00:48.000Z</time>
      </trkpt>
      <trkpt lat="44.42188" lon="6.40401">
        <ele>1536</ele>
        <time>2021-09-01T15:00:50.000Z</time>
      </trkpt>
      <trkpt lat="44.42189" lon="6.404">
        <ele>1536</ele>
        <time>2021-09-01T15:00:52.000Z</time>
      </trkpt>
      <trkpt lat="44.42191" lon="6.40405">
        <ele>1533</ele>
        <time>2021-09-01T15:00:59.000Z</time>
      </trkpt>
      <trkpt lat="44.42254" lon="6.40335">
        <ele>1486</ele>
        <time>2021-09-01T16:55:44.000Z</time>
      </trkpt>
      <trkpt lat="44.42254" lon="6.40335">
        <ele>1487</ele>
        <time>2021-09-01T16:55:46.000Z</time>
      </trkpt>
      <trkpt lat="44.42254" lon="6.40334">
        <ele>1486</ele>
        <time>2021-09-01T16:55:48.000Z</time>
      </trkpt>
      <trkpt lat="44.42254" lon="6.40333">
        <ele>1486</ele>
        <time>2021-09-01T16:55:49.000Z</time>
      </trkpt>
      <trkpt lat="44.42254" lon="6.40332">
        <ele>1488</ele>
        <time>2021-09-01T16:55:50.000Z</time>
      </trkpt>
      <trkpt lat="44.42254" lon="6.40332">
        <ele>1490</ele>
        <time>2021-09-01T16:55:51.000Z</time>
      </trkpt>
      <trkpt lat="44.42254" lon="6.40332">
        <ele>1491</ele>
        <time>2021-09-01T16:55:52.000Z</time>
      </trkpt>
      <trkpt lat="44.42254" lon="6.40332">
        <ele>1492</ele>
        <time>2021-09-01T16:55:53.000Z</time>
      </trkpt>
      <trkpt lat="44.42254" lon="6.40332">
        <ele>1492</ele>
        <time>2021-09-01T16:55:54.000Z</time>
      </trkpt>
      <trkpt lat="44.42254" lon="6.40331">
        <ele>1493</ele>
        <time>2021-09-01T16:55:55.000Z</time>
      </trkpt>
      <trkpt lat="44.42254" lon="6.40332">
        <ele>1494</ele>
        <time>2021-09-01T16:55:56.000Z</time>
      </trkpt>
      <trkpt lat="44.42255" lon="6.40331">
        <ele>1497</ele>
        <time>2021-09-01T16:55:57.000Z</time>
      </trkpt>
      <trkpt lat="44.42254" lon="6.40331">
        <ele>1498</ele>
        <time>2021-09-01T16:55:58.000Z</time>
      </trkpt>
      <trkpt lat="44.42254" lon="6.40331">
        <ele>1500</ele>
        <time>2021-09-01T16:55:59.000Z</time>
      </trkpt>
      <trkpt lat="44.42254" lon="6.4033">
        <ele>1501</ele>
        <time>2021-09-01T16:56:00.000Z</time>
      </trkpt>
      <trkpt lat="44.42254" lon="6.4033">
        <ele>1505</ele>
        <time>2021-09-01T16:56:01.000Z</time>
      </trkpt>
      <trkpt lat="44.42254" lon="6.4033">
        <ele>1506</ele>
        <time>2021-09-01T16:56:02.000Z</time>
      </trkpt>
      <trkpt lat="44.42254" lon="6.4033">
        <ele>1506</ele>
        <time>2021-09-01T16:56:03.000Z</time>
      </trkpt>
      <trkpt lat="44.42254" lon="6.40331">
        <ele>1505</ele>
        <time>2021-09-01T16:56:04.000Z</time>
      </trkpt>
      <trkpt lat="44.42254" lon="6.40329">
        <ele>1497</ele>
        <time>2021-09-01T16:56:05.000Z</time>
      </trkpt>
      <trkpt lat="44.42253" lon="6.40327">
        <ele>1489</ele>
        <time>2021-09-01T16:56:06.000Z</time>
      </trkpt>
      <trkpt lat="44.42253" lon="6.40327">
        <ele>1488</ele>
        <time>2021-09-01T16:56:07.000Z</time>
      </trkpt>
      <trkpt lat="44.42253" lon="6.40327">
        <ele>1488</ele>
        <time>2021-09-01T16:56:08.000Z</time>
      </trkpt>
      <trkpt lat="44.42253" lon="6.40327">
        <ele>1488</ele>
        <time>2021-09-01T16:56:09.000Z</time>
      </trkpt>
      <trkpt lat="44.42253" lon="6.40327">
        <ele>1487</ele>
        <time>2021-09-01T16:56:10.000Z</time>
      </trkpt>
      <trkpt lat="44.42254" lon="6.40328">
        <ele>1487</ele>
        <time>2021-09-01T16:56:11.000Z</time>
      </trkpt>
      <trkpt lat="44.42254" lon="6.40329">
        <ele>1485</ele>
        <time>2021-09-01T16:56:12.000Z</time>
      </trkpt>
      <trkpt lat="44.42254" lon="6.40329">
        <ele>1486</ele>
        <time>2021-09-01T16:56:13.000Z</time>
      </trkpt>
      <trkpt lat="44.42255" lon="6.40329">
        <ele>1487</ele>
        <time>2021-09-01T16:56:14.000Z</time>
      </trkpt>
      <trkpt lat="44.42256" lon="6.4033">
        <ele>1489</ele>
        <time>2021-09-01T16:56:15.000Z</time>
      </trkpt>
      <trkpt lat="44.42257" lon="6.40331">
        <ele>1490</ele>
        <time>2021-09-01T16:56:16.000Z</time>
      </trkpt>
      <trkpt lat="44.42258" lon="6.40331">
        <ele>1488</ele>
        <time>2021-09-01T16:56:17.000Z</time>
      </trkpt>
      <trkpt lat="44.42257" lon="6.40331">
        <ele>1487</ele>
        <time>2021-09-01T16:56:18.000Z</time>
      </trkpt>
      <trkpt lat="44.42257" lon="6.40331">
        <ele>1486</ele>
        <time>2021-09-01T16:56:19.000Z</time>
      </trkpt>
      <trkpt lat="44.42257" lon="6.40331">
        <ele>1485</ele>
        <time>2021-09-01T16:56:20.000Z</time>
      </trkpt>
      <trkpt lat="44.42256" lon="6.40331">
        <ele>1483</ele>
        <time>2021-09-01T16:56:21.000Z</time>
      </trkpt>
      <trkpt lat="44.42256" lon="6.40331">
        <ele>1484</ele>
        <time>2021-09-01T16:56:22.000Z</time>
      </trkpt>
      <trkpt lat="44.42256" lon="6.4033">
        <ele>1484</ele>
        <time>2021-09-01T16:56:23.000Z</time>
      </trkpt>
      <trkpt lat="44.42256" lon="6.4033">
        <ele>1483</ele>
        <time>2021-09-01T16:56:24.000Z</time>
      </trkpt>
      <trkpt lat="44.42256" lon="6.40331">
        <ele>1483</ele>
        <time>2021-09-01T16:56:25.000Z</time>
      </trkpt>
      <trkpt lat="44.42256" lon="6.40331">
        <ele>1483</ele>
        <time>2021-09-01T16:56:27.000Z</time>
      </trkpt>
      <trkpt lat="44.42256" lon="6.40331">
        <ele>1483</ele>
        <time>2021-09-01T16:56:28.000Z</time>
      </trkpt>
      <trkpt lat="44.42256" lon="6.40331">
        <ele>1482</ele>
        <time>2021-09-01T16:56:32.000Z</time>
      </trkpt>
      <trkpt lat="44.42256" lon="6.40331">
        <ele>1481</ele>
        <time>2021-09-01T16:56:42.000Z</time>
      </trkpt>
      <trkpt lat="44.42256" lon="6.40331">
        <ele>1480</ele>
        <time>2021-09-01T16:56:43.000Z</time>
      </trkpt>
      <trkpt lat="44.42256" lon="6.40327">
        <ele>1481</ele>
        <time>2021-09-01T16:56:44.000Z</time>
      </trkpt>
      <trkpt lat="44.42255" lon="6.40328">
        <ele>1480</ele>
        <time>2021-09-01T16:56:45.000Z</time>
      </trkpt>
      <trkpt lat="44.42255" lon="6.40329">
        <ele>1479</ele>
        <time>2021-09-01T16:56:46.000Z</time>
      </trkpt>
      <trkpt lat="44.42256" lon="6.40329">
        <ele>1480</ele>
        <time>2021-09-01T16:56:47.000Z</time>
      </trkpt>
      <trkpt lat="44.42257" lon="6.40328">
        <ele>1481</ele>
        <time>2021-09-01T16:56:48.000Z</time>
      </trkpt>
      <trkpt lat="44.42256" lon="6.40327">
        <ele>1480</ele>
        <time>2021-09-01T16:56:49.000Z</time>
      </trkpt>
      <trkpt lat="44.42257" lon="6.40326">
        <ele>1477</ele>
        <time>2021-09-01T16:56:50.000Z</time>
      </trkpt>
      <trkpt lat="44.42258" lon="6.40327">
        <ele>1475</ele>
        <time>2021-09-01T16:56:51.000Z</time>
      </trkpt>
      <trkpt lat="44.42259" lon="6.40327">
        <ele>1477</ele>
        <time>2021-09-01T16:56:52.000Z</time>
      </trkpt>
      <trkpt lat="44.4226" lon="6.40328">
        <ele>1480</ele>
        <time>2021-09-01T16:56:53.000Z</time>
      </trkpt>
      <trkpt lat="44.42261" lon="6.40328">
        <ele>1485</ele>
        <time>2021-09-01T16:56:54.000Z</time>
      </trkpt>
      <trkpt lat="44.42261" lon="6.40327">
        <ele>1489</ele>
        <time>2021-09-01T16:56:55.000Z</time>
      </trkpt>
      <trkpt lat="44.42261" lon="6.40327">
        <ele>1490</ele>
        <time>2021-09-01T16:56:56.000Z</time>
      </trkpt>
      <trkpt lat="44.42262" lon="6.40327">
        <ele>1489</ele>
        <time>2021-09-01T16:56:57.000Z</time>
      </trkpt>
      <trkpt lat="44.42262" lon="6.40327">
        <ele>1489</ele>
        <time>2021-09-01T16:56:58.000Z</time>
      </trkpt>
      <trkpt lat="44.4226" lon="6.40327">
        <ele>1488</ele>
        <time>2021-09-01T16:56:59.000Z</time>
      </trkpt>
      <trkpt lat="44.4226" lon="6.40326">
        <ele>1488</ele>
        <time>2021-09-01T16:57:00.000Z</time>
      </trkpt>
      <trkpt lat="44.4226" lon="6.40326">
        <ele>1487</ele>
        <time>2021-09-01T16:57:01.000Z</time>
      </trkpt>
      <trkpt lat="44.42259" lon="6.40326">
        <ele>1486</ele>
        <time>2021-09-01T16:57:02.000Z</time>
      </trkpt>
      <trkpt lat="44.42259" lon="6.40326">
        <ele>1486</ele>
        <time>2021-09-01T16:57:03.000Z</time>
      </trkpt>
      <trkpt lat="44.42259" lon="6.40325">
        <ele>1487</ele>
        <time>2021-09-01T16:57:04.000Z</time>
      </trkpt>
      <trkpt lat="44.42259" lon="6.40326">
        <ele>1488</ele>
        <time>2021-09-01T16:57:05.000Z</time>
      </trkpt>
      <trkpt lat="44.42259" lon="6.40325">
        <ele>1490</ele>
        <time>2021-09-01T16:57:06.000Z</time>
      </trkpt>
      <trkpt lat="44.4226" lon="6.40325">
        <ele>1491</ele>
        <time>2021-09-01T16:57:07.000Z</time>
      </trkpt>
      <trkpt lat="44.4226" lon="6.40325">
        <ele>1492</ele>
        <time>2021-09-01T16:57:08.000Z</time>
      </trkpt>
      <trkpt lat="44.4226" lon="6.40325">
        <ele>1492</ele>
        <time>2021-09-01T16:57:09.000Z</time>
      </trkpt>
      <trkpt lat="44.42261" lon="6.40325">
        <ele>1492</ele>
        <time>2021-09-01T16:57:10.000Z</time>
      </trkpt>
      <trkpt lat="44.42261" lon="6.40325">
        <ele>1493</ele>
        <time>2021-09-01T16:57:11.000Z</time>
      </trkpt>
      <trkpt lat="44.42261" lon="6.40325">
        <ele>1493</ele>
        <time>2021-09-01T16:57:12.000Z</time>
      </trkpt>
      <trkpt lat="44.42261" lon="6.40325">
        <ele>1493</ele>
        <time>2021-09-01T16:57:13.000Z</time>
      </trkpt>
      <trkpt lat="44.42262" lon="6.40325">
        <ele>1494</ele>
        <time>2021-09-01T16:57:14.000Z</time>
      </trkpt>
      <trkpt lat="44.42262" lon="6.40325">
        <ele>1494</ele>
        <time>2021-09-01T16:57:15.000Z</time>
      </trkpt>
      <trkpt lat="44.42262" lon="6.40325">
        <ele>1495</ele>
        <time>2021-09-01T16:57:16.000Z</time>
      </trkpt>
      <trkpt lat="44.42261" lon="6.40325">
        <ele>1495</ele>
        <time>2021-09-01T16:57:17.000Z</time>
      </trkpt>
      <trkpt lat="44.42261" lon="6.40325">
        <ele>1495</ele>
        <time>2021-09-01T16:57:18.000Z</time>
      </trkpt>
      <trkpt lat="44.42261" lon="6.40324">
        <ele>1495</ele>
        <time>2021-09-01T16:57:19.000Z</time>
      </trkpt>
      <trkpt lat="44.42261" lon="6.40324">
        <ele>1495</ele>
        <time>2021-09-01T16:57:20.000Z</time>
      </trkpt>
      <trkpt lat="44.42261" lon="6.40324">
        <ele>1495</ele>
        <time>2021-09-01T16:57:21.000Z</time>
      </trkpt>
      <trkpt lat="44.42261" lon="6.40324">
        <ele>1495</ele>
        <time>2021-09-01T16:57:22.000Z</time>
      </trkpt>
      <trkpt lat="44.42261" lon="6.40324">
        <ele>1496</ele>
        <time>2021-09-01T16:57:23.000Z</time>
      </trkpt>
      <trkpt lat="44.42262" lon="6.40325">
        <ele>1498</ele>
        <time>2021-09-01T16:57:24.000Z</time>
      </trkpt>
      <trkpt lat="44.42262" lon="6.40325">
        <ele>1499</ele>
        <time>2021-09-01T16:57:25.000Z</time>
      </trkpt>
      <trkpt lat="44.42262" lon="6.40325">
        <ele>1499</ele>
        <time>2021-09-01T16:57:26.000Z</time>
      </trkpt>
      <trkpt lat="44.42263" lon="6.40325">
        <ele>1500</ele>
        <time>2021-09-01T16:57:27.000Z</time>
      </trkpt>
      <trkpt lat="44.42263" lon="6.40324">
        <ele>1500</ele>
        <time>2021-09-01T16:57:28.000Z</time>
      </trkpt>
      <trkpt lat="44.42265" lon="6.40325">
        <ele>1501</ele>
        <time>2021-09-01T16:57:29.000Z</time>
      </trkpt>
      <trkpt lat="44.42266" lon="6.40326">
        <ele>1503</ele>
        <time>2021-09-01T16:57:30.000Z</time>
      </trkpt>
      <trkpt lat="44.42267" lon="6.40325">
        <ele>1502</ele>
        <time>2021-09-01T16:57:31.000Z</time>
      </trkpt>
      <trkpt lat="44.42267" lon="6.40326">
        <ele>1501</ele>
        <time>2021-09-01T16:57:32.000Z</time>
      </trkpt>
      <trkpt lat="44.42267" lon="6.40325">
        <ele>1501</ele>
        <time>2021-09-01T16:57:33.000Z</time>
      </trkpt>
      <trkpt lat="44.42267" lon="6.40325">
        <ele>1501</ele>
        <time>2021-09-01T16:57:34.000Z</time>
      </trkpt>
      <trkpt lat="44.42267" lon="6.40325">
        <ele>1501</ele>
        <time>2021-09-01T16:57:35.000Z</time>
      </trkpt>
      <trkpt lat="44.42266" lon="6.40325">
        <ele>1501</ele>
        <time>2021-09-01T16:57:36.000Z</time>
      </trkpt>
      <trkpt lat="44.42267" lon="6.40325">
        <ele>1503</ele>
        <time>2021-09-01T16:57:37.000Z</time>
      </trkpt>
      <trkpt lat="44.42267" lon="6.40326">
        <ele>1506</ele>
        <time>2021-09-01T16:57:38.000Z</time>
      </trkpt>
      <trkpt lat="44.42268" lon="6.40326">
        <ele>1507</ele>
        <time>2021-09-01T16:57:39.000Z</time>
      </trkpt>
      <trkpt lat="44.42268" lon="6.40327">
        <ele>1508</ele>
        <time>2021-09-01T16:57:40.000Z</time>
      </trkpt>
      <trkpt lat="44.42268" lon="6.40327">
        <ele>1508</ele>
        <time>2021-09-01T16:57:41.000Z</time>
      </trkpt>
      <trkpt lat="44.42268" lon="6.40327">
        <ele>1507</ele>
        <time>2021-09-01T16:57:42.000Z</time>
      </trkpt>
      <trkpt lat="44.42268" lon="6.40327">
        <ele>1506</ele>
        <time>2021-09-01T16:57:43.000Z</time>
      </trkpt>
      <trkpt lat="44.42267" lon="6.40327">
        <ele>1505</ele>
        <time>2021-09-01T16:57:44.000Z</time>
      </trkpt>
      <trkpt lat="44.42267" lon="6.40327">
        <ele>1505</ele>
        <time>2021-09-01T16:57:45.000Z</time>
      </trkpt>
      <trkpt lat="44.42266" lon="6.40326">
        <ele>1504</ele>
        <time>2021-09-01T16:57:46.000Z</time>
      </trkpt>
      <trkpt lat="44.42265" lon="6.40327">
        <ele>1503</ele>
        <time>2021-09-01T16:57:47.000Z</time>
      </trkpt>
      <trkpt lat="44.42265" lon="6.40327">
        <ele>1502</ele>
        <time>2021-09-01T16:57:48.000Z</time>
      </trkpt>
      <trkpt lat="44.42265" lon="6.40327">
        <ele>1502</ele>
        <time>2021-09-01T16:57:49.000Z</time>
      </trkpt>
      <trkpt lat="44.42263" lon="6.40327">
        <ele>1501</ele>
        <time>2021-09-01T16:57:50.000Z</time>
      </trkpt>
      <trkpt lat="44.42263" lon="6.40327">
        <ele>1500</ele>
        <time>2021-09-01T16:57:51.000Z</time>
      </trkpt>
      <trkpt lat="44.42264" lon="6.40326">
        <ele>1499</ele>
        <time>2021-09-01T16:57:52.000Z</time>
      </trkpt>
      <trkpt lat="44.42264" lon="6.40326">
        <ele>1499</ele>
        <time>2021-09-01T16:57:54.000Z</time>
      </trkpt>
      <trkpt lat="44.42264" lon="6.40326">
        <ele>1498</ele>
        <time>2021-09-01T16:57:55.000Z</time>
      </trkpt>
      <trkpt lat="44.42263" lon="6.40325">
        <ele>1498</ele>
        <time>2021-09-01T16:57:56.000Z</time>
      </trkpt>
      <trkpt lat="44.42262" lon="6.40325">
        <ele>1498</ele>
        <time>2021-09-01T16:57:57.000Z</time>
      </trkpt>
      <trkpt lat="44.42263" lon="6.40326">
        <ele>1500</ele>
        <time>2021-09-01T16:57:58.000Z</time>
      </trkpt>
      <trkpt lat="44.42263" lon="6.40327">
        <ele>1501</ele>
        <time>2021-09-01T16:57:59.000Z</time>
      </trkpt>
      <trkpt lat="44.42262" lon="6.40327">
        <ele>1500</ele>
        <time>2021-09-01T16:58:00.000Z</time>
      </trkpt>
      <trkpt lat="44.42261" lon="6.40327">
        <ele>1500</ele>
        <time>2021-09-01T16:58:01.000Z</time>
      </trkpt>
      <trkpt lat="44.42261" lon="6.40327">
        <ele>1499</ele>
        <time>2021-09-01T16:58:02.000Z</time>
      </trkpt>
      <trkpt lat="44.42261" lon="6.40327">
        <ele>1498</ele>
        <time>2021-09-01T16:58:03.000Z</time>
      </trkpt>
      <trkpt lat="44.42261" lon="6.40327">
        <ele>1498</ele>
        <time>2021-09-01T16:58:04.000Z</time>
      </trkpt>
      <trkpt lat="44.42261" lon="6.40327">
        <ele>1498</ele>
        <time>2021-09-01T16:58:05.000Z</time>
      </trkpt>
      <trkpt lat="44.42261" lon="6.40327">
        <ele>1497</ele>
        <time>2021-09-01T16:58:06.000Z</time>
      </trkpt>
      <trkpt lat="44.42261" lon="6.40327">
        <ele>1496</ele>
        <time>2021-09-01T16:58:07.000Z</time>
      </trkpt>
      <trkpt lat="44.42261" lon="6.40328">
        <ele>1496</ele>
        <time>2021-09-01T16:58:08.000Z</time>
      </trkpt>
      <trkpt lat="44.42261" lon="6.40329">
        <ele>1497</ele>
        <time>2021-09-01T16:58:09.000Z</time>
      </trkpt>
      <trkpt lat="44.42261" lon="6.40328">
        <ele>1497</ele>
        <time>2021-09-01T16:58:10.000Z</time>
      </trkpt>
      <trkpt lat="44.42261" lon="6.40328">
        <ele>1497</ele>
        <time>2021-09-01T16:58:11.000Z</time>
      </trkpt>
      <trkpt lat="44.42261" lon="6.40328">
        <ele>1497</ele>
        <time>2021-09-01T16:58:12.000Z</time>
      </trkpt>
      <trkpt lat="44.4226" lon="6.40328">
        <ele>1496</ele>
        <time>2021-09-01T16:58:13.000Z</time>
      </trkpt>
      <trkpt lat="44.42261" lon="6.40328">
        <ele>1497</ele>
        <time>2021-09-01T16:58:14.000Z</time>
      </trkpt>
      <trkpt lat="44.42261" lon="6.40328">
        <ele>1498</ele>
        <time>2021-09-01T16:58:15.000Z</time>
      </trkpt>
      <trkpt lat="44.42261" lon="6.40328">
        <ele>1499</ele>
        <time>2021-09-01T16:58:16.000Z</time>
      </trkpt>
      <trkpt lat="44.42261" lon="6.40328">
        <ele>1499</ele>
        <time>2021-09-01T16:58:17.000Z</time>
      </trkpt>
      <trkpt lat="44.42261" lon="6.40328">
        <ele>1500</ele>
        <time>2021-09-01T16:58:18.000Z</time>
      </trkpt>
      <trkpt lat="44.42262" lon="6.40328">
        <ele>1499</ele>
        <time>2021-09-01T16:58:19.000Z</time>
      </trkpt>
      <trkpt lat="44.42262" lon="6.40328">
        <ele>1499</ele>
        <time>2021-09-01T16:58:20.000Z</time>
      </trkpt>
      <trkpt lat="44.42262" lon="6.40328">
        <ele>1499</ele>
        <time>2021-09-01T16:58:21.000Z</time>
      </trkpt>
      <trkpt lat="44.42262" lon="6.40328">
        <ele>1496</ele>
        <time>2021-09-01T16:58:22.000Z</time>
      </trkpt>
      <trkpt lat="44.42262" lon="6.40328">
        <ele>1496</ele>
        <time>2021-09-01T16:58:23.000Z</time>
      </trkpt>
      <trkpt lat="44.42263" lon="6.40328">
        <ele>1497</ele>
        <time>2021-09-01T16:58:24.000Z</time>
      </trkpt>
      <trkpt lat="44.42263" lon="6.40329">
        <ele>1497</ele>
        <time>2021-09-01T16:58:25.000Z</time>
      </trkpt>
      <trkpt lat="44.42264" lon="6.40328">
        <ele>1497</ele>
        <time>2021-09-01T16:58:26.000Z</time>
      </trkpt>
      <trkpt lat="44.42265" lon="6.40327">
        <ele>1498</ele>
        <time>2021-09-01T16:58:27.000Z</time>
      </trkpt>
      <trkpt lat="44.42266" lon="6.40327">
        <ele>1498</ele>
        <time>2021-09-01T16:58:28.000Z</time>
      </trkpt>
      <trkpt lat="44.42266" lon="6.40327">
        <ele>1499</ele>
        <time>2021-09-01T16:58:29.000Z</time>
      </trkpt>
      <trkpt lat="44.42267" lon="6.40327">
        <ele>1499</ele>
        <time>2021-09-01T16:58:30.000Z</time>
      </trkpt>
      <trkpt lat="44.42267" lon="6.40326">
        <ele>1499</ele>
        <time>2021-09-01T16:58:31.000Z</time>
      </trkpt>
      <trkpt lat="44.42267" lon="6.40325">
        <ele>1499</ele>
        <time>2021-09-01T16:58:32.000Z</time>
      </trkpt>
      <trkpt lat="44.42267" lon="6.40325">
        <ele>1499</ele>
        <time>2021-09-01T16:58:33.000Z</time>
      </trkpt>
      <trkpt lat="44.42267" lon="6.40325">
        <ele>1499</ele>
        <time>2021-09-01T16:58:34.000Z</time>
      </trkpt>
      <trkpt lat="44.42266" lon="6.40325">
        <ele>1499</ele>
        <time>2021-09-01T16:58:35.000Z</time>
      </trkpt>
      <trkpt lat="44.42267" lon="6.40325">
        <ele>1499</ele>
        <time>2021-09-01T16:58:36.000Z</time>
      </trkpt>
      <trkpt lat="44.42267" lon="6.40325">
        <ele>1498</ele>
        <time>2021-09-01T16:58:37.000Z</time>
      </trkpt>
      <trkpt lat="44.42266" lon="6.40325">
        <ele>1498</ele>
        <time>2021-09-01T16:58:38.000Z</time>
      </trkpt>
      <trkpt lat="44.42267" lon="6.40325">
        <ele>1498</ele>
        <time>2021-09-01T16:58:39.000Z</time>
      </trkpt>
      <trkpt lat="44.42266" lon="6.40325">
        <ele>1498</ele>
        <time>2021-09-01T16:58:40.000Z</time>
      </trkpt>
      <trkpt lat="44.42266" lon="6.40325">
        <ele>1498</ele>
        <time>2021-09-01T16:58:41.000Z</time>
      </trkpt>
      <trkpt lat="44.42266" lon="6.40325">
        <ele>1498</ele>
        <time>2021-09-01T16:58:42.000Z</time>
      </trkpt>
      <trkpt lat="44.42266" lon="6.40325">
        <ele>1498</ele>
        <time>2021-09-01T16:58:43.000Z</time>
      </trkpt>
      <trkpt lat="44.42265" lon="6.40325">
        <ele>1498</ele>
        <time>2021-09-01T16:58:44.000Z</time>
      </trkpt>
      <trkpt lat="44.42265" lon="6.40324">
        <ele>1499</ele>
        <time>2021-09-01T16:58:45.000Z</time>
      </trkpt>
      <trkpt lat="44.42265" lon="6.40324">
        <ele>1499</ele>
        <time>2021-09-01T16:58:46.000Z</time>
      </trkpt>
      <trkpt lat="44.42265" lon="6.40324">
        <ele>1500</ele>
        <time>2021-09-01T16:58:47.000Z</time>
      </trkpt>
      <trkpt lat="44.42265" lon="6.40324">
        <ele>1500</ele>
        <time>2021-09-01T16:58:48.000Z</time>
      </trkpt>
      <trkpt lat="44.42267" lon="6.40324">
        <ele>1500</ele>
        <time>2021-09-01T16:58:49.000Z</time>
      </trkpt>
      <trkpt lat="44.42267" lon="6.40324">
        <ele>1500</ele>
        <time>2021-09-01T16:58:50.000Z</time>
      </trkpt>
      <trkpt lat="44.42267" lon="6.40324">
        <ele>1500</ele>
        <time>2021-09-01T16:58:51.000Z</time>
      </trkpt>
      <trkpt lat="44.42268" lon="6.40325">
        <ele>1500</ele>
        <time>2021-09-01T16:58:52.000Z</time>
      </trkpt>
      <trkpt lat="44.42268" lon="6.40325">
        <ele>1501</ele>
        <time>2021-09-01T16:58:53.000Z</time>
      </trkpt>
      <trkpt lat="44.42269" lon="6.40326">
        <ele>1501</ele>
        <time>2021-09-01T16:58:54.000Z</time>
      </trkpt>
      <trkpt lat="44.42271" lon="6.40326">
        <ele>1502</ele>
        <time>2021-09-01T16:58:55.000Z</time>
      </trkpt>
      <trkpt lat="44.42273" lon="6.40326">
        <ele>1502</ele>
        <time>2021-09-01T16:58:56.000Z</time>
      </trkpt>
      <trkpt lat="44.42276" lon="6.40328">
        <ele>1502</ele>
        <time>2021-09-01T16:58:57.000Z</time>
      </trkpt>
      <trkpt lat="44.42278" lon="6.4033">
        <ele>1502</ele>
        <time>2021-09-01T16:58:58.000Z</time>
      </trkpt>
      <trkpt lat="44.42281" lon="6.40331">
        <ele>1502</ele>
        <time>2021-09-01T16:58:59.000Z</time>
      </trkpt>
      <trkpt lat="44.42284" lon="6.40332">
        <ele>1502</ele>
        <time>2021-09-01T16:59:00.000Z</time>
      </trkpt>
      <trkpt lat="44.42293" lon="6.40333">
        <ele>1502</ele>
        <time>2021-09-01T16:59:01.000Z</time>
      </trkpt>
      <trkpt lat="44.42298" lon="6.40336">
        <ele>1502</ele>
        <time>2021-09-01T16:59:02.000Z</time>
      </trkpt>
      <trkpt lat="44.42302" lon="6.40338">
        <ele>1502</ele>
        <time>2021-09-01T16:59:03.000Z</time>
      </trkpt>
      <trkpt lat="44.42307" lon="6.40342">
        <ele>1502</ele>
        <time>2021-09-01T16:59:04.000Z</time>
      </trkpt>
      <trkpt lat="44.42312" lon="6.40347">
        <ele>1501</ele>
        <time>2021-09-01T16:59:05.000Z</time>
      </trkpt>
      <trkpt lat="44.42315" lon="6.40353">
        <ele>1501</ele>
        <time>2021-09-01T16:59:06.000Z</time>
      </trkpt>
      <trkpt lat="44.4232" lon="6.40358">
        <ele>1501</ele>
        <time>2021-09-01T16:59:07.000Z</time>
      </trkpt>
      <trkpt lat="44.42325" lon="6.40361">
        <ele>1501</ele>
        <time>2021-09-01T16:59:08.000Z</time>
      </trkpt>
      <trkpt lat="44.42329" lon="6.40364">
        <ele>1501</ele>
        <time>2021-09-01T16:59:09.000Z</time>
      </trkpt>
      <trkpt lat="44.42332" lon="6.40367">
        <ele>1500</ele>
        <time>2021-09-01T16:59:10.000Z</time>
      </trkpt>
      <trkpt lat="44.42333" lon="6.40369">
        <ele>1500</ele>
        <time>2021-09-01T16:59:11.000Z</time>
      </trkpt>
      <trkpt lat="44.42334" lon="6.40372">
        <ele>1499</ele>
        <time>2021-09-01T16:59:12.000Z</time>
      </trkpt>
      <trkpt lat="44.42337" lon="6.40376">
        <ele>1499</ele>
        <time>2021-09-01T16:59:13.000Z</time>
      </trkpt>
      <trkpt lat="44.4234" lon="6.4038">
        <ele>1499</ele>
        <time>2021-09-01T16:59:14.000Z</time>
      </trkpt>
      <trkpt lat="44.42342" lon="6.40385">
        <ele>1498</ele>
        <time>2021-09-01T16:59:15.000Z</time>
      </trkpt>
      <trkpt lat="44.42345" lon="6.40388">
        <ele>1498</ele>
        <time>2021-09-01T16:59:16.000Z</time>
      </trkpt>
      <trkpt lat="44.42349" lon="6.40388">
        <ele>1498</ele>
        <time>2021-09-01T16:59:17.000Z</time>
      </trkpt>
      <trkpt lat="44.42353" lon="6.40389">
        <ele>1498</ele>
        <time>2021-09-01T16:59:18.000Z</time>
      </trkpt>
      <trkpt lat="44.42354" lon="6.40393">
        <ele>1498</ele>
        <time>2021-09-01T16:59:19.000Z</time>
      </trkpt>
      <trkpt lat="44.42354" lon="6.40394">
        <ele>1497</ele>
        <time>2021-09-01T16:59:20.000Z</time>
      </trkpt>
      <trkpt lat="44.42355" lon="6.40395">
        <ele>1497</ele>
        <time>2021-09-01T16:59:21.000Z</time>
      </trkpt>
      <trkpt lat="44.42355" lon="6.40395">
        <ele>1497</ele>
        <time>2021-09-01T16:59:22.000Z</time>
      </trkpt>
      <trkpt lat="44.42354" lon="6.40396">
        <ele>1496</ele>
        <time>2021-09-01T16:59:23.000Z</time>
      </trkpt>
      <trkpt lat="44.42352" lon="6.40397">
        <ele>1495</ele>
        <time>2021-09-01T16:59:24.000Z</time>
      </trkpt>
      <trkpt lat="44.4235" lon="6.40398">
        <ele>1493</ele>
        <time>2021-09-01T16:59:25.000Z</time>
      </trkpt>
      <trkpt lat="44.4235" lon="6.40397">
        <ele>1492</ele>
        <time>2021-09-01T16:59:26.000Z</time>
      </trkpt>
      <trkpt lat="44.42349" lon="6.40397">
        <ele>1491</ele>
        <time>2021-09-01T16:59:27.000Z</time>
      </trkpt>
      <trkpt lat="44.42348" lon="6.40397">
        <ele>1491</ele>
        <time>2021-09-01T16:59:28.000Z</time>
      </trkpt>
      <trkpt lat="44.42348" lon="6.40397">
        <ele>1490</ele>
        <time>2021-09-01T16:59:29.000Z</time>
      </trkpt>
      <trkpt lat="44.42348" lon="6.40397">
        <ele>1490</ele>
        <time>2021-09-01T16:59:30.000Z</time>
      </trkpt>
      <trkpt lat="44.42346" lon="6.40399">
        <ele>1490</ele>
        <time>2021-09-01T16:59:31.000Z</time>
      </trkpt>
      <trkpt lat="44.42345" lon="6.40399">
        <ele>1489</ele>
        <time>2021-09-01T16:59:32.000Z</time>
      </trkpt>
      <trkpt lat="44.42344" lon="6.40399">
        <ele>1489</ele>
        <time>2021-09-01T16:59:33.000Z</time>
      </trkpt>
      <trkpt lat="44.42344" lon="6.40399">
        <ele>1488</ele>
        <time>2021-09-01T16:59:34.000Z</time>
      </trkpt>
      <trkpt lat="44.42343" lon="6.40399">
        <ele>1488</ele>
        <time>2021-09-01T16:59:35.000Z</time>
      </trkpt>
      <trkpt lat="44.42342" lon="6.40399">
        <ele>1487</ele>
        <time>2021-09-01T16:59:36.000Z</time>
      </trkpt>
      <trkpt lat="44.42342" lon="6.40399">
        <ele>1486</ele>
        <time>2021-09-01T16:59:37.000Z</time>
      </trkpt>
      <trkpt lat="44.42341" lon="6.40399">
        <ele>1485</ele>
        <time>2021-09-01T16:59:38.000Z</time>
      </trkpt>
      <trkpt lat="44.42341" lon="6.404">
        <ele>1485</ele>
        <time>2021-09-01T16:59:39.000Z</time>
      </trkpt>
      <trkpt lat="44.42338" lon="6.40404">
        <ele>1481</ele>
        <time>2021-09-01T16:59:40.000Z</time>
      </trkpt>
      <trkpt lat="44.42334" lon="6.40407">
        <ele>1478</ele>
        <time>2021-09-01T16:59:41.000Z</time>
      </trkpt>
      <trkpt lat="44.42331" lon="6.40409">
        <ele>1475</ele>
        <time>2021-09-01T16:59:42.000Z</time>
      </trkpt>
      <trkpt lat="44.42348" lon="6.40429">
        <ele>1453</ele>
        <time>2021-09-01T17:00:48.000Z</time>
      </trkpt>
      <trkpt lat="44.42353" lon="6.4043">
        <ele>1452</ele>
        <time>2021-09-01T17:00:49.000Z</time>
      </trkpt>
      <trkpt lat="44.42357" lon="6.4043">
        <ele>1452</ele>
        <time>2021-09-01T17:00:50.000Z</time>
      </trkpt>
      <trkpt lat="44.42361" lon="6.40431">
        <ele>1452</ele>
        <time>2021-09-01T17:00:51.000Z</time>
      </trkpt>
      <trkpt lat="44.42365" lon="6.40432">
        <ele>1451</ele>
        <time>2021-09-01T17:00:52.000Z</time>
      </trkpt>
      <trkpt lat="44.42369" lon="6.40436">
        <ele>1451</ele>
        <time>2021-09-01T17:00:53.000Z</time>
      </trkpt>
      <trkpt lat="44.42373" lon="6.40439">
        <ele>1450</ele>
        <time>2021-09-01T17:00:54.000Z</time>
      </trkpt>
      <trkpt lat="44.42378" lon="6.40442">
        <ele>1450</ele>
        <time>2021-09-01T17:00:55.000Z</time>
      </trkpt>
      <trkpt lat="44.42383" lon="6.40444">
        <ele>1450</ele>
        <time>2021-09-01T17:00:56.000Z</time>
      </trkpt>
      <trkpt lat="44.42387" lon="6.40448">
        <ele>1450</ele>
        <time>2021-09-01T17:00:57.000Z</time>
      </trkpt>
      <trkpt lat="44.42394" lon="6.40449">
        <ele>1449</ele>
        <time>2021-09-01T17:00:58.000Z</time>
      </trkpt>
      <trkpt lat="44.42401" lon="6.4045">
        <ele>1449</ele>
        <time>2021-09-01T17:00:59.000Z</time>
      </trkpt>
      <trkpt lat="44.42406" lon="6.40452">
        <ele>1448</ele>
        <time>2021-09-01T17:01:00.000Z</time>
      </trkpt>
      <trkpt lat="44.42412" lon="6.40455">
        <ele>1447</ele>
        <time>2021-09-01T17:01:01.000Z</time>
      </trkpt>
      <trkpt lat="44.42417" lon="6.40458">
        <ele>1447</ele>
        <time>2021-09-01T17:01:02.000Z</time>
      </trkpt>
      <trkpt lat="44.42422" lon="6.40462">
        <ele>1447</ele>
        <time>2021-09-01T17:01:03.000Z</time>
      </trkpt>
      <trkpt lat="44.42427" lon="6.40464">
        <ele>1451</ele>
        <time>2021-09-01T17:01:04.000Z</time>
      </trkpt>
      <trkpt lat="44.42431" lon="6.40467">
        <ele>1452</ele>
        <time>2021-09-01T17:01:05.000Z</time>
      </trkpt>
      <trkpt lat="44.42433" lon="6.40473">
        <ele>1453</ele>
        <time>2021-09-01T17:01:06.000Z</time>
      </trkpt>
      <trkpt lat="44.42436" lon="6.40476">
        <ele>1453</ele>
        <time>2021-09-01T17:01:07.000Z</time>
      </trkpt>
      <trkpt lat="44.42442" lon="6.40477">
        <ele>1453</ele>
        <time>2021-09-01T17:01:08.000Z</time>
      </trkpt>
      <trkpt lat="44.42448" lon="6.40476">
        <ele>1453</ele>
        <time>2021-09-01T17:01:09.000Z</time>
      </trkpt>
      <trkpt lat="44.42452" lon="6.40478">
        <ele>1453</ele>
        <time>2021-09-01T17:01:10.000Z</time>
      </trkpt>
      <trkpt lat="44.42456" lon="6.4048">
        <ele>1453</ele>
        <time>2021-09-01T17:01:11.000Z</time>
      </trkpt>
      <trkpt lat="44.4246" lon="6.40482">
        <ele>1453</ele>
        <time>2021-09-01T17:01:12.000Z</time>
      </trkpt>
      <trkpt lat="44.42464" lon="6.40482">
        <ele>1452</ele>
        <time>2021-09-01T17:01:13.000Z</time>
      </trkpt>
      <trkpt lat="44.42468" lon="6.40484">
        <ele>1452</ele>
        <time>2021-09-01T17:01:14.000Z</time>
      </trkpt>
      <trkpt lat="44.42471" lon="6.40486">
        <ele>1452</ele>
        <time>2021-09-01T17:01:15.000Z</time>
      </trkpt>
      <trkpt lat="44.42475" lon="6.40488">
        <ele>1452</ele>
        <time>2021-09-01T17:01:16.000Z</time>
      </trkpt>
      <trkpt lat="44.42479" lon="6.40488">
        <ele>1452</ele>
        <time>2021-09-01T17:01:17.000Z</time>
      </trkpt>
      <trkpt lat="44.42482" lon="6.40489">
        <ele>1452</ele>
        <time>2021-09-01T17:01:18.000Z</time>
      </trkpt>
      <trkpt lat="44.42485" lon="6.4049">
        <ele>1452</ele>
        <time>2021-09-01T17:01:19.000Z</time>
      </trkpt>
      <trkpt lat="44.42485" lon="6.4049">
        <ele>1451</ele>
        <time>2021-09-01T17:01:21.000Z</time>
      </trkpt>
      <trkpt lat="44.42485" lon="6.4049">
        <ele>1451</ele>
        <time>2021-09-01T17:01:22.000Z</time>
      </trkpt>
      <trkpt lat="44.42499" lon="6.40495">
        <ele>1451</ele>
        <time>2021-09-01T17:01:23.000Z</time>
      </trkpt>
      <trkpt lat="44.42501" lon="6.40498">
        <ele>1451</ele>
        <time>2021-09-01T17:01:24.000Z</time>
      </trkpt>
      <trkpt lat="44.42504" lon="6.40498">
        <ele>1451</ele>
        <time>2021-09-01T17:01:25.000Z</time>
      </trkpt>
      <trkpt lat="44.42503" lon="6.40502">
        <ele>1451</ele>
        <time>2021-09-01T17:01:26.000Z</time>
      </trkpt>
      <trkpt lat="44.42505" lon="6.40502">
        <ele>1451</ele>
        <time>2021-09-01T17:01:27.000Z</time>
      </trkpt>
      <trkpt lat="44.42508" lon="6.40501">
        <ele>1451</ele>
        <time>2021-09-01T17:01:28.000Z</time>
      </trkpt>
      <trkpt lat="44.42511" lon="6.405">
        <ele>1451</ele>
        <time>2021-09-01T17:01:29.000Z</time>
      </trkpt>
      <trkpt lat="44.42512" lon="6.40501">
        <ele>1451</ele>
        <time>2021-09-01T17:01:30.000Z</time>
      </trkpt>
      <trkpt lat="44.42512" lon="6.40501">
        <ele>1451</ele>
        <time>2021-09-01T17:01:33.000Z</time>
      </trkpt>
      <trkpt lat="44.42512" lon="6.40501">
        <ele>1451</ele>
        <time>2021-09-01T17:01:34.000Z</time>
      </trkpt>
      <trkpt lat="44.4252" lon="6.40494">
        <ele>1451</ele>
        <time>2021-09-01T17:01:35.000Z</time>
      </trkpt>
      <trkpt lat="44.4252" lon="6.40489">
        <ele>1451</ele>
        <time>2021-09-01T17:01:36.000Z</time>
      </trkpt>
      <trkpt lat="44.42521" lon="6.40486">
        <ele>1451</ele>
        <time>2021-09-01T17:01:37.000Z</time>
      </trkpt>
      <trkpt lat="44.42522" lon="6.40483">
        <ele>1451</ele>
        <time>2021-09-01T17:01:38.000Z</time>
      </trkpt>
      <trkpt lat="44.42526" lon="6.4048">
        <ele>1451</ele>
        <time>2021-09-01T17:01:39.000Z</time>
      </trkpt>
      <trkpt lat="44.42528" lon="6.40477">
        <ele>1450</ele>
        <time>2021-09-01T17:01:40.000Z</time>
      </trkpt>
      <trkpt lat="44.42533" lon="6.40474">
        <ele>1450</ele>
        <time>2021-09-01T17:01:41.000Z</time>
      </trkpt>
      <trkpt lat="44.42539" lon="6.40471">
        <ele>1450</ele>
        <time>2021-09-01T17:01:42.000Z</time>
      </trkpt>
      <trkpt lat="44.42542" lon="6.40468">
        <ele>1450</ele>
        <time>2021-09-01T17:01:43.000Z</time>
      </trkpt>
      <trkpt lat="44.42545" lon="6.40466">
        <ele>1450</ele>
        <time>2021-09-01T17:01:44.000Z</time>
      </trkpt>
      <trkpt lat="44.42545" lon="6.40466">
        <ele>1450</ele>
        <time>2021-09-01T17:01:49.000Z</time>
      </trkpt>
      <trkpt lat="44.42545" lon="6.40466">
        <ele>1450</ele>
        <time>2021-09-01T17:01:50.000Z</time>
      </trkpt>
      <trkpt lat="44.42575" lon="6.40459">
        <ele>1450</ele>
        <time>2021-09-01T17:01:51.000Z</time>
      </trkpt>
      <trkpt lat="44.42579" lon="6.4046">
        <ele>1450</ele>
        <time>2021-09-01T17:01:52.000Z</time>
      </trkpt>
      <trkpt lat="44.42582" lon="6.40459">
        <ele>1450</ele>
        <time>2021-09-01T17:01:53.000Z</time>
      </trkpt>
      <trkpt lat="44.42585" lon="6.40458">
        <ele>1450</ele>
        <time>2021-09-01T17:01:54.000Z</time>
      </trkpt>
      <trkpt lat="44.42587" lon="6.40457">
        <ele>1449</ele>
        <time>2021-09-01T17:01:55.000Z</time>
      </trkpt>
      <trkpt lat="44.42588" lon="6.40458">
        <ele>1449</ele>
        <time>2021-09-01T17:01:56.000Z</time>
      </trkpt>
      <trkpt lat="44.42589" lon="6.40457">
        <ele>1449</ele>
        <time>2021-09-01T17:01:57.000Z</time>
      </trkpt>
      <trkpt lat="44.4259" lon="6.40457">
        <ele>1449</ele>
        <time>2021-09-01T17:01:58.000Z</time>
      </trkpt>
      <trkpt lat="44.4259" lon="6.40456">
        <ele>1449</ele>
        <time>2021-09-01T17:01:59.000Z</time>
      </trkpt>
      <trkpt lat="44.42591" lon="6.40456">
        <ele>1449</ele>
        <time>2021-09-01T17:02:00.000Z</time>
      </trkpt>
      <trkpt lat="44.4259" lon="6.40456">
        <ele>1449</ele>
        <time>2021-09-01T17:02:01.000Z</time>
      </trkpt>
      <trkpt lat="44.42589" lon="6.40458">
        <ele>1449</ele>
        <time>2021-09-01T17:02:02.000Z</time>
      </trkpt>
      <trkpt lat="44.42589" lon="6.40458">
        <ele>1449</ele>
        <time>2021-09-01T17:02:03.000Z</time>
      </trkpt>
      <trkpt lat="44.42588" lon="6.40459">
        <ele>1450</ele>
        <time>2021-09-01T17:02:04.000Z</time>
      </trkpt>
      <trkpt lat="44.42588" lon="6.4046">
        <ele>1449</ele>
        <time>2021-09-01T17:02:05.000Z</time>
      </trkpt>
      <trkpt lat="44.42589" lon="6.4046">
        <ele>1449</ele>
        <time>2021-09-01T17:02:06.000Z</time>
      </trkpt>
      <trkpt lat="44.42589" lon="6.4046">
        <ele>1449</ele>
        <time>2021-09-01T17:02:07.000Z</time>
      </trkpt>
      <trkpt lat="44.4259" lon="6.4046">
        <ele>1449</ele>
        <time>2021-09-01T17:02:08.000Z</time>
      </trkpt>
      <trkpt lat="44.4259" lon="6.40459">
        <ele>1449</ele>
        <time>2021-09-01T17:02:09.000Z</time>
      </trkpt>
      <trkpt lat="44.42591" lon="6.40458">
        <ele>1449</ele>
        <time>2021-09-01T17:02:10.000Z</time>
      </trkpt>
      <trkpt lat="44.42592" lon="6.40456">
        <ele>1448</ele>
        <time>2021-09-01T17:02:11.000Z</time>
      </trkpt>
      <trkpt lat="44.42593" lon="6.40452">
        <ele>1448</ele>
        <time>2021-09-01T17:02:12.000Z</time>
      </trkpt>
      <trkpt lat="44.42595" lon="6.4045">
        <ele>1448</ele>
        <time>2021-09-01T17:02:13.000Z</time>
      </trkpt>
      <trkpt lat="44.42598" lon="6.40448">
        <ele>1447</ele>
        <time>2021-09-01T17:02:14.000Z</time>
      </trkpt>
      <trkpt lat="44.426" lon="6.40445">
        <ele>1447</ele>
        <time>2021-09-01T17:02:15.000Z</time>
      </trkpt>
      <trkpt lat="44.42601" lon="6.40442">
        <ele>1447</ele>
        <time>2021-09-01T17:02:16.000Z</time>
      </trkpt>
      <trkpt lat="44.42602" lon="6.40439">
        <ele>1447</ele>
        <time>2021-09-01T17:02:17.000Z</time>
      </trkpt>
      <trkpt lat="44.42602" lon="6.40436">
        <ele>1448</ele>
        <time>2021-09-01T17:02:18.000Z</time>
      </trkpt>
      <trkpt lat="44.42605" lon="6.40434">
        <ele>1449</ele>
        <time>2021-09-01T17:02:19.000Z</time>
      </trkpt>
      <trkpt lat="44.42606" lon="6.40431">
        <ele>1450</ele>
        <time>2021-09-01T17:02:20.000Z</time>
      </trkpt>
      <trkpt lat="44.42607" lon="6.40429">
        <ele>1450</ele>
        <time>2021-09-01T17:02:21.000Z</time>
      </trkpt>
      <trkpt lat="44.42609" lon="6.40428">
        <ele>1450</ele>
        <time>2021-09-01T17:02:22.000Z</time>
      </trkpt>
      <trkpt lat="44.42611" lon="6.40427">
        <ele>1451</ele>
        <time>2021-09-01T17:02:23.000Z</time>
      </trkpt>
      <trkpt lat="44.42616" lon="6.40426">
        <ele>1451</ele>
        <time>2021-09-01T17:02:24.000Z</time>
      </trkpt>
      <trkpt lat="44.4262" lon="6.40423">
        <ele>1450</ele>
        <time>2021-09-01T17:02:25.000Z</time>
      </trkpt>
      <trkpt lat="44.42626" lon="6.4042">
        <ele>1449</ele>
        <time>2021-09-01T17:02:26.000Z</time>
      </trkpt>
      <trkpt lat="44.42627" lon="6.40416">
        <ele>1448</ele>
        <time>2021-09-01T17:02:27.000Z</time>
      </trkpt>
      <trkpt lat="44.4263" lon="6.40413">
        <ele>1447</ele>
        <time>2021-09-01T17:02:28.000Z</time>
      </trkpt>
      <trkpt lat="44.42632" lon="6.4041">
        <ele>1447</ele>
        <time>2021-09-01T17:02:29.000Z</time>
      </trkpt>
      <trkpt lat="44.42633" lon="6.40405">
        <ele>1447</ele>
        <time>2021-09-01T17:02:30.000Z</time>
      </trkpt>
      <trkpt lat="44.42635" lon="6.40401">
        <ele>1447</ele>
        <time>2021-09-01T17:02:31.000Z</time>
      </trkpt>
      <trkpt lat="44.42638" lon="6.40399">
        <ele>1447</ele>
        <time>2021-09-01T17:02:32.000Z</time>
      </trkpt>
      <trkpt lat="44.4264" lon="6.40395">
        <ele>1446</ele>
        <time>2021-09-01T17:02:33.000Z</time>
      </trkpt>
      <trkpt lat="44.42643" lon="6.40391">
        <ele>1446</ele>
        <time>2021-09-01T17:02:34.000Z</time>
      </trkpt>
      <trkpt lat="44.42647" lon="6.40387">
        <ele>1449</ele>
        <time>2021-09-01T17:02:35.000Z</time>
      </trkpt>
      <trkpt lat="44.42649" lon="6.40384">
        <ele>1450</ele>
        <time>2021-09-01T17:02:36.000Z</time>
      </trkpt>
      <trkpt lat="44.42653" lon="6.40379">
        <ele>1451</ele>
        <time>2021-09-01T17:02:37.000Z</time>
      </trkpt>
      <trkpt lat="44.42657" lon="6.40377">
        <ele>1451</ele>
        <time>2021-09-01T17:02:38.000Z</time>
      </trkpt>
      <trkpt lat="44.42663" lon="6.40375">
        <ele>1452</ele>
        <time>2021-09-01T17:02:39.000Z</time>
      </trkpt>
      <trkpt lat="44.42669" lon="6.40373">
        <ele>1452</ele>
        <time>2021-09-01T17:02:40.000Z</time>
      </trkpt>
      <trkpt lat="44.42673" lon="6.40371">
        <ele>1453</ele>
        <time>2021-09-01T17:02:41.000Z</time>
      </trkpt>
      <trkpt lat="44.42677" lon="6.40368">
        <ele>1452</ele>
        <time>2021-09-01T17:02:42.000Z</time>
      </trkpt>
      <trkpt lat="44.42683" lon="6.40365">
        <ele>1452</ele>
        <time>2021-09-01T17:02:43.000Z</time>
      </trkpt>
      <trkpt lat="44.42687" lon="6.40362">
        <ele>1452</ele>
        <time>2021-09-01T17:02:44.000Z</time>
      </trkpt>
      <trkpt lat="44.42691" lon="6.4036">
        <ele>1452</ele>
        <time>2021-09-01T17:02:45.000Z</time>
      </trkpt>
      <trkpt lat="44.42694" lon="6.40358">
        <ele>1452</ele>
        <time>2021-09-01T17:02:46.000Z</time>
      </trkpt>
      <trkpt lat="44.42698" lon="6.40356">
        <ele>1452</ele>
        <time>2021-09-01T17:02:47.000Z</time>
      </trkpt>
      <trkpt lat="44.42703" lon="6.40355">
        <ele>1452</ele>
        <time>2021-09-01T17:02:48.000Z</time>
      </trkpt>
      <trkpt lat="44.42707" lon="6.40353">
        <ele>1452</ele>
        <time>2021-09-01T17:02:49.000Z</time>
      </trkpt>
      <trkpt lat="44.42714" lon="6.40353">
        <ele>1452</ele>
        <time>2021-09-01T17:02:50.000Z</time>
      </trkpt>
      <trkpt lat="44.42721" lon="6.40353">
        <ele>1452</ele>
        <time>2021-09-01T17:02:51.000Z</time>
      </trkpt>
      <trkpt lat="44.42726" lon="6.40354">
        <ele>1453</ele>
        <time>2021-09-01T17:02:52.000Z</time>
      </trkpt>
      <trkpt lat="44.42732" lon="6.40354">
        <ele>1453</ele>
        <time>2021-09-01T17:02:53.000Z</time>
      </trkpt>
      <trkpt lat="44.42739" lon="6.40355">
        <ele>1453</ele>
        <time>2021-09-01T17:02:54.000Z</time>
      </trkpt>
      <trkpt lat="44.42743" lon="6.40354">
        <ele>1453</ele>
        <time>2021-09-01T17:02:55.000Z</time>
      </trkpt>
      <trkpt lat="44.42749" lon="6.40353">
        <ele>1453</ele>
        <time>2021-09-01T17:02:56.000Z</time>
      </trkpt>
      <trkpt lat="44.42754" lon="6.40352">
        <ele>1453</ele>
        <time>2021-09-01T17:02:57.000Z</time>
      </trkpt>
      <trkpt lat="44.4276" lon="6.40351">
        <ele>1453</ele>
        <time>2021-09-01T17:02:58.000Z</time>
      </trkpt>
      <trkpt lat="44.42764" lon="6.40348">
        <ele>1453</ele>
        <time>2021-09-01T17:02:59.000Z</time>
      </trkpt>
      <trkpt lat="44.42768" lon="6.40345">
        <ele>1453</ele>
        <time>2021-09-01T17:03:00.000Z</time>
      </trkpt>
      <trkpt lat="44.42772" lon="6.40343">
        <ele>1453</ele>
        <time>2021-09-01T17:03:01.000Z</time>
      </trkpt>
      <trkpt lat="44.42776" lon="6.40339">
        <ele>1453</ele>
        <time>2021-09-01T17:03:02.000Z</time>
      </trkpt>
      <trkpt lat="44.42779" lon="6.40336">
        <ele>1453</ele>
        <time>2021-09-01T17:03:03.000Z</time>
      </trkpt>
      <trkpt lat="44.42782" lon="6.40334">
        <ele>1453</ele>
        <time>2021-09-01T17:03:04.000Z</time>
      </trkpt>
      <trkpt lat="44.42788" lon="6.40332">
        <ele>1453</ele>
        <time>2021-09-01T17:03:05.000Z</time>
      </trkpt>
      <trkpt lat="44.42794" lon="6.40332">
        <ele>1453</ele>
        <time>2021-09-01T17:03:06.000Z</time>
      </trkpt>
      <trkpt lat="44.42797" lon="6.40332">
        <ele>1453</ele>
        <time>2021-09-01T17:03:07.000Z</time>
      </trkpt>
      <trkpt lat="44.42802" lon="6.40331">
        <ele>1455</ele>
        <time>2021-09-01T17:03:08.000Z</time>
      </trkpt>
      <trkpt lat="44.42807" lon="6.4033">
        <ele>1456</ele>
        <time>2021-09-01T17:03:09.000Z</time>
      </trkpt>
      <trkpt lat="44.42812" lon="6.40328">
        <ele>1456</ele>
        <time>2021-09-01T17:03:10.000Z</time>
      </trkpt>
      <trkpt lat="44.42817" lon="6.40324">
        <ele>1456</ele>
        <time>2021-09-01T17:03:11.000Z</time>
      </trkpt>
      <trkpt lat="44.42821" lon="6.40321">
        <ele>1455</ele>
        <time>2021-09-01T17:03:12.000Z</time>
      </trkpt>
      <trkpt lat="44.42825" lon="6.40317">
        <ele>1455</ele>
        <time>2021-09-01T17:03:13.000Z</time>
      </trkpt>
      <trkpt lat="44.42829" lon="6.40313">
        <ele>1455</ele>
        <time>2021-09-01T17:03:14.000Z</time>
      </trkpt>
      <trkpt lat="44.42834" lon="6.40308">
        <ele>1454</ele>
        <time>2021-09-01T17:03:15.000Z</time>
      </trkpt>
      <trkpt lat="44.42839" lon="6.40304">
        <ele>1454</ele>
        <time>2021-09-01T17:03:16.000Z</time>
      </trkpt>
      <trkpt lat="44.42844" lon="6.40299">
        <ele>1453</ele>
        <time>2021-09-01T17:03:17.000Z</time>
      </trkpt>
      <trkpt lat="44.42849" lon="6.40295">
        <ele>1453</ele>
        <time>2021-09-01T17:03:18.000Z</time>
      </trkpt>
      <trkpt lat="44.42854" lon="6.4029">
        <ele>1452</ele>
        <time>2021-09-01T17:03:19.000Z</time>
      </trkpt>
      <trkpt lat="44.42859" lon="6.40286">
        <ele>1452</ele>
        <time>2021-09-01T17:03:20.000Z</time>
      </trkpt>
      <trkpt lat="44.42863" lon="6.40282">
        <ele>1452</ele>
        <time>2021-09-01T17:03:21.000Z</time>
      </trkpt>
      <trkpt lat="44.42868" lon="6.40278">
        <ele>1452</ele>
        <time>2021-09-01T17:03:22.000Z</time>
      </trkpt>
      <trkpt lat="44.42872" lon="6.40274">
        <ele>1451</ele>
        <time>2021-09-01T17:03:23.000Z</time>
      </trkpt>
      <trkpt lat="44.42877" lon="6.40269">
        <ele>1451</ele>
        <time>2021-09-01T17:03:24.000Z</time>
      </trkpt>
      <trkpt lat="44.42881" lon="6.40265">
        <ele>1451</ele>
        <time>2021-09-01T17:03:25.000Z</time>
      </trkpt>
      <trkpt lat="44.42884" lon="6.40258">
        <ele>1450</ele>
        <time>2021-09-01T17:03:26.000Z</time>
      </trkpt>
      <trkpt lat="44.42887" lon="6.40253">
        <ele>1450</ele>
        <time>2021-09-01T17:03:27.000Z</time>
      </trkpt>
      <trkpt lat="44.42889" lon="6.40246">
        <ele>1450</ele>
        <time>2021-09-01T17:03:28.000Z</time>
      </trkpt>
      <trkpt lat="44.42891" lon="6.40241">
        <ele>1450</ele>
        <time>2021-09-01T17:03:29.000Z</time>
      </trkpt>
      <trkpt lat="44.42895" lon="6.40236">
        <ele>1450</ele>
        <time>2021-09-01T17:03:30.000Z</time>
      </trkpt>
      <trkpt lat="44.42897" lon="6.4023">
        <ele>1450</ele>
        <time>2021-09-01T17:03:31.000Z</time>
      </trkpt>
      <trkpt lat="44.42901" lon="6.40224">
        <ele>1450</ele>
        <time>2021-09-01T17:03:32.000Z</time>
      </trkpt>
      <trkpt lat="44.42904" lon="6.40219">
        <ele>1450</ele>
        <time>2021-09-01T17:03:33.000Z</time>
      </trkpt>
      <trkpt lat="44.42906" lon="6.40215">
        <ele>1449</ele>
        <time>2021-09-01T17:03:34.000Z</time>
      </trkpt>
      <trkpt lat="44.42906" lon="6.40211">
        <ele>1449</ele>
        <time>2021-09-01T17:03:35.000Z</time>
      </trkpt>
      <trkpt lat="44.42909" lon="6.40208">
        <ele>1449</ele>
        <time>2021-09-01T17:03:36.000Z</time>
      </trkpt>
      <trkpt lat="44.42912" lon="6.40204">
        <ele>1448</ele>
        <time>2021-09-01T17:03:37.000Z</time>
      </trkpt>
      <trkpt lat="44.42915" lon="6.40201">
        <ele>1448</ele>
        <time>2021-09-01T17:03:38.000Z</time>
      </trkpt>
      <trkpt lat="44.42918" lon="6.40199">
        <ele>1449</ele>
        <time>2021-09-01T17:03:39.000Z</time>
      </trkpt>
      <trkpt lat="44.42921" lon="6.40198">
        <ele>1449</ele>
        <time>2021-09-01T17:03:40.000Z</time>
      </trkpt>
      <trkpt lat="44.42926" lon="6.40198">
        <ele>1449</ele>
        <time>2021-09-01T17:03:41.000Z</time>
      </trkpt>
      <trkpt lat="44.42932" lon="6.40198">
        <ele>1450</ele>
        <time>2021-09-01T17:03:42.000Z</time>
      </trkpt>
      <trkpt lat="44.42938" lon="6.40199">
        <ele>1451</ele>
        <time>2021-09-01T17:03:43.000Z</time>
      </trkpt>
      <trkpt lat="44.42943" lon="6.402">
        <ele>1451</ele>
        <time>2021-09-01T17:03:44.000Z</time>
      </trkpt>
      <trkpt lat="44.42947" lon="6.40199">
        <ele>1452</ele>
        <time>2021-09-01T17:03:45.000Z</time>
      </trkpt>
      <trkpt lat="44.42953" lon="6.40197">
        <ele>1451</ele>
        <time>2021-09-01T17:03:46.000Z</time>
      </trkpt>
      <trkpt lat="44.42959" lon="6.40195">
        <ele>1451</ele>
        <time>2021-09-01T17:03:47.000Z</time>
      </trkpt>
      <trkpt lat="44.42963" lon="6.40194">
        <ele>1451</ele>
        <time>2021-09-01T17:03:48.000Z</time>
      </trkpt>
      <trkpt lat="44.42967" lon="6.40191">
        <ele>1452</ele>
        <time>2021-09-01T17:03:49.000Z</time>
      </trkpt>
      <trkpt lat="44.42973" lon="6.40187">
        <ele>1451</ele>
        <time>2021-09-01T17:03:50.000Z</time>
      </trkpt>
      <trkpt lat="44.42977" lon="6.40183">
        <ele>1452</ele>
        <time>2021-09-01T17:03:51.000Z</time>
      </trkpt>
      <trkpt lat="44.42982" lon="6.4018">
        <ele>1452</ele>
        <time>2021-09-01T17:03:52.000Z</time>
      </trkpt>
      <trkpt lat="44.42986" lon="6.40175">
        <ele>1451</ele>
        <time>2021-09-01T17:03:53.000Z</time>
      </trkpt>
      <trkpt lat="44.42991" lon="6.40171">
        <ele>1451</ele>
        <time>2021-09-01T17:03:54.000Z</time>
      </trkpt>
      <trkpt lat="44.42993" lon="6.40164">
        <ele>1450</ele>
        <time>2021-09-01T17:03:55.000Z</time>
      </trkpt>
      <trkpt lat="44.42996" lon="6.40158">
        <ele>1450</ele>
        <time>2021-09-01T17:03:56.000Z</time>
      </trkpt>
      <trkpt lat="44.42998" lon="6.40154">
        <ele>1449</ele>
        <time>2021-09-01T17:03:57.000Z</time>
      </trkpt>
      <trkpt lat="44.43001" lon="6.40149">
        <ele>1449</ele>
        <time>2021-09-01T17:03:58.000Z</time>
      </trkpt>
      <trkpt lat="44.43004" lon="6.40145">
        <ele>1448</ele>
        <time>2021-09-01T17:03:59.000Z</time>
      </trkpt>
      <trkpt lat="44.43006" lon="6.40143">
        <ele>1448</ele>
        <time>2021-09-01T17:04:00.000Z</time>
      </trkpt>
      <trkpt lat="44.4301" lon="6.4014">
        <ele>1448</ele>
        <time>2021-09-01T17:04:01.000Z</time>
      </trkpt>
      <trkpt lat="44.43014" lon="6.40137">
        <ele>1448</ele>
        <time>2021-09-01T17:04:02.000Z</time>
      </trkpt>
      <trkpt lat="44.43016" lon="6.40133">
        <ele>1448</ele>
        <time>2021-09-01T17:04:03.000Z</time>
      </trkpt>
      <trkpt lat="44.43016" lon="6.4013">
        <ele>1448</ele>
        <time>2021-09-01T17:04:04.000Z</time>
      </trkpt>
      <trkpt lat="44.43018" lon="6.40125">
        <ele>1447</ele>
        <time>2021-09-01T17:04:05.000Z</time>
      </trkpt>
      <trkpt lat="44.4302" lon="6.40122">
        <ele>1447</ele>
        <time>2021-09-01T17:04:06.000Z</time>
      </trkpt>
      <trkpt lat="44.43022" lon="6.4012">
        <ele>1447</ele>
        <time>2021-09-01T17:04:07.000Z</time>
      </trkpt>
      <trkpt lat="44.43024" lon="6.4012">
        <ele>1447</ele>
        <time>2021-09-01T17:04:08.000Z</time>
      </trkpt>
      <trkpt lat="44.43026" lon="6.40119">
        <ele>1447</ele>
        <time>2021-09-01T17:04:09.000Z</time>
      </trkpt>
      <trkpt lat="44.43028" lon="6.40118">
        <ele>1447</ele>
        <time>2021-09-01T17:04:10.000Z</time>
      </trkpt>
      <trkpt lat="44.4303" lon="6.40117">
        <ele>1448</ele>
        <time>2021-09-01T17:04:11.000Z</time>
      </trkpt>
      <trkpt lat="44.43032" lon="6.40116">
        <ele>1448</ele>
        <time>2021-09-01T17:04:12.000Z</time>
      </trkpt>
      <trkpt lat="44.43034" lon="6.40115">
        <ele>1448</ele>
        <time>2021-09-01T17:04:13.000Z</time>
      </trkpt>
      <trkpt lat="44.43035" lon="6.40112">
        <ele>1448</ele>
        <time>2021-09-01T17:04:14.000Z</time>
      </trkpt>
      <trkpt lat="44.43037" lon="6.40111">
        <ele>1448</ele>
        <time>2021-09-01T17:04:15.000Z</time>
      </trkpt>
      <trkpt lat="44.43038" lon="6.40109">
        <ele>1448</ele>
        <time>2021-09-01T17:04:16.000Z</time>
      </trkpt>
      <trkpt lat="44.43039" lon="6.40107">
        <ele>1448</ele>
        <time>2021-09-01T17:04:17.000Z</time>
      </trkpt>
      <trkpt lat="44.4304" lon="6.40105">
        <ele>1449</ele>
        <time>2021-09-01T17:04:18.000Z</time>
      </trkpt>
      <trkpt lat="44.43043" lon="6.40104">
        <ele>1449</ele>
        <time>2021-09-01T17:04:19.000Z</time>
      </trkpt>
      <trkpt lat="44.43043" lon="6.40102">
        <ele>1448</ele>
        <time>2021-09-01T17:04:20.000Z</time>
      </trkpt>
      <trkpt lat="44.43045" lon="6.401">
        <ele>1449</ele>
        <time>2021-09-01T17:04:21.000Z</time>
      </trkpt>
      <trkpt lat="44.43048" lon="6.40098">
        <ele>1449</ele>
        <time>2021-09-01T17:04:22.000Z</time>
      </trkpt>
      <trkpt lat="44.4305" lon="6.40096">
        <ele>1449</ele>
        <time>2021-09-01T17:04:23.000Z</time>
      </trkpt>
      <trkpt lat="44.43052" lon="6.40094">
        <ele>1449</ele>
        <time>2021-09-01T17:04:24.000Z</time>
      </trkpt>
      <trkpt lat="44.43053" lon="6.4009">
        <ele>1449</ele>
        <time>2021-09-01T17:04:25.000Z</time>
      </trkpt>
      <trkpt lat="44.43055" lon="6.40088">
        <ele>1449</ele>
        <time>2021-09-01T17:04:26.000Z</time>
      </trkpt>
      <trkpt lat="44.43056" lon="6.40086">
        <ele>1450</ele>
        <time>2021-09-01T17:04:27.000Z</time>
      </trkpt>
      <trkpt lat="44.43058" lon="6.40083">
        <ele>1450</ele>
        <time>2021-09-01T17:04:28.000Z</time>
      </trkpt>
      <trkpt lat="44.43059" lon="6.40081">
        <ele>1450</ele>
        <time>2021-09-01T17:04:29.000Z</time>
      </trkpt>
      <trkpt lat="44.43061" lon="6.40079">
        <ele>1449</ele>
        <time>2021-09-01T17:04:30.000Z</time>
      </trkpt>
      <trkpt lat="44.43063" lon="6.40077">
        <ele>1449</ele>
        <time>2021-09-01T17:04:31.000Z</time>
      </trkpt>
      <trkpt lat="44.43065" lon="6.40077">
        <ele>1449</ele>
        <time>2021-09-01T17:04:32.000Z</time>
      </trkpt>
      <trkpt lat="44.43066" lon="6.40076">
        <ele>1449</ele>
        <time>2021-09-01T17:04:33.000Z</time>
      </trkpt>
      <trkpt lat="44.43067" lon="6.40075">
        <ele>1448</ele>
        <time>2021-09-01T17:04:34.000Z</time>
      </trkpt>
      <trkpt lat="44.43069" lon="6.40073">
        <ele>1448</ele>
        <time>2021-09-01T17:04:35.000Z</time>
      </trkpt>
      <trkpt lat="44.43071" lon="6.40072">
        <ele>1448</ele>
        <time>2021-09-01T17:04:36.000Z</time>
      </trkpt>
      <trkpt lat="44.43072" lon="6.4007">
        <ele>1447</ele>
        <time>2021-09-01T17:04:37.000Z</time>
      </trkpt>
      <trkpt lat="44.43073" lon="6.40069">
        <ele>1446</ele>
        <time>2021-09-01T17:04:38.000Z</time>
      </trkpt>
      <trkpt lat="44.43074" lon="6.40069">
        <ele>1446</ele>
        <time>2021-09-01T17:04:39.000Z</time>
      </trkpt>
      <trkpt lat="44.43075" lon="6.40068">
        <ele>1445</ele>
        <time>2021-09-01T17:04:40.000Z</time>
      </trkpt>
      <trkpt lat="44.43075" lon="6.40068">
        <ele>1444</ele>
        <time>2021-09-01T17:04:41.000Z</time>
      </trkpt>
      <trkpt lat="44.43077" lon="6.40067">
        <ele>1444</ele>
        <time>2021-09-01T17:04:42.000Z</time>
      </trkpt>
      <trkpt lat="44.43078" lon="6.40067">
        <ele>1444</ele>
        <time>2021-09-01T17:04:43.000Z</time>
      </trkpt>
      <trkpt lat="44.43079" lon="6.40066">
        <ele>1444</ele>
        <time>2021-09-01T17:04:44.000Z</time>
      </trkpt>
      <trkpt lat="44.43079" lon="6.40066">
        <ele>1443</ele>
        <time>2021-09-01T17:04:45.000Z</time>
      </trkpt>
      <trkpt lat="44.4308" lon="6.40065">
        <ele>1443</ele>
        <time>2021-09-01T17:04:46.000Z</time>
      </trkpt>
      <trkpt lat="44.43081" lon="6.40065">
        <ele>1443</ele>
        <time>2021-09-01T17:04:47.000Z</time>
      </trkpt>
      <trkpt lat="44.43082" lon="6.40065">
        <ele>1443</ele>
        <time>2021-09-01T17:04:48.000Z</time>
      </trkpt>
      <trkpt lat="44.43083" lon="6.40064">
        <ele>1443</ele>
        <time>2021-09-01T17:04:49.000Z</time>
      </trkpt>
      <trkpt lat="44.43084" lon="6.40064">
        <ele>1443</ele>
        <time>2021-09-01T17:04:50.000Z</time>
      </trkpt>
      <trkpt lat="44.43084" lon="6.40064">
        <ele>1443</ele>
        <time>2021-09-01T17:04:51.000Z</time>
      </trkpt>
      <trkpt lat="44.43085" lon="6.40064">
        <ele>1443</ele>
        <time>2021-09-01T17:04:52.000Z</time>
      </trkpt>
      <trkpt lat="44.43086" lon="6.40064">
        <ele>1443</ele>
        <time>2021-09-01T17:04:53.000Z</time>
      </trkpt>
      <trkpt lat="44.43086" lon="6.40064">
        <ele>1443</ele>
        <time>2021-09-01T17:04:54.000Z</time>
      </trkpt>
      <trkpt lat="44.43087" lon="6.40064">
        <ele>1443</ele>
        <time>2021-09-01T17:04:55.000Z</time>
      </trkpt>
      <trkpt lat="44.43088" lon="6.40064">
        <ele>1443</ele>
        <time>2021-09-01T17:04:56.000Z</time>
      </trkpt>
      <trkpt lat="44.43089" lon="6.40064">
        <ele>1443</ele>
        <time>2021-09-01T17:04:57.000Z</time>
      </trkpt>
      <trkpt lat="44.43089" lon="6.40064">
        <ele>1443</ele>
        <time>2021-09-01T17:04:58.000Z</time>
      </trkpt>
      <trkpt lat="44.4309" lon="6.40063">
        <ele>1443</ele>
        <time>2021-09-01T17:04:59.000Z</time>
      </trkpt>
      <trkpt lat="44.4309" lon="6.40063">
        <ele>1444</ele>
        <time>2021-09-01T17:05:00.000Z</time>
      </trkpt>
      <trkpt lat="44.43091" lon="6.40063">
        <ele>1444</ele>
        <time>2021-09-01T17:05:01.000Z</time>
      </trkpt>
      <trkpt lat="44.43092" lon="6.40063">
        <ele>1444</ele>
        <time>2021-09-01T17:05:02.000Z</time>
      </trkpt>
      <trkpt lat="44.43092" lon="6.40063">
        <ele>1445</ele>
        <time>2021-09-01T17:05:03.000Z</time>
      </trkpt>
      <trkpt lat="44.43093" lon="6.40063">
        <ele>1445</ele>
        <time>2021-09-01T17:05:04.000Z</time>
      </trkpt>
      <trkpt lat="44.43094" lon="6.40063">
        <ele>1445</ele>
        <time>2021-09-01T17:05:05.000Z</time>
      </trkpt>
      <trkpt lat="44.43095" lon="6.40063">
        <ele>1446</ele>
        <time>2021-09-01T17:05:06.000Z</time>
      </trkpt>
      <trkpt lat="44.43096" lon="6.40064">
        <ele>1446</ele>
        <time>2021-09-01T17:05:07.000Z</time>
      </trkpt>
      <trkpt lat="44.43096" lon="6.40064">
        <ele>1446</ele>
        <time>2021-09-01T17:05:08.000Z</time>
      </trkpt>
      <trkpt lat="44.43096" lon="6.40064">
        <ele>1446</ele>
        <time>2021-09-01T17:05:09.000Z</time>
      </trkpt>
      <trkpt lat="44.43097" lon="6.40064">
        <ele>1446</ele>
        <time>2021-09-01T17:05:10.000Z</time>
      </trkpt>
      <trkpt lat="44.43098" lon="6.40064">
        <ele>1446</ele>
        <time>2021-09-01T17:05:11.000Z</time>
      </trkpt>
      <trkpt lat="44.43099" lon="6.40064">
        <ele>1446</ele>
        <time>2021-09-01T17:05:12.000Z</time>
      </trkpt>
      <trkpt lat="44.43099" lon="6.40064">
        <ele>1447</ele>
        <time>2021-09-01T17:05:13.000Z</time>
      </trkpt>
      <trkpt lat="44.43099" lon="6.40064">
        <ele>1447</ele>
        <time>2021-09-01T17:05:14.000Z</time>
      </trkpt>
      <trkpt lat="44.431" lon="6.40064">
        <ele>1447</ele>
        <time>2021-09-01T17:05:15.000Z</time>
      </trkpt>
      <trkpt lat="44.43101" lon="6.40064">
        <ele>1447</ele>
        <time>2021-09-01T17:05:16.000Z</time>
      </trkpt>
      <trkpt lat="44.43102" lon="6.40064">
        <ele>1447</ele>
        <time>2021-09-01T17:05:17.000Z</time>
      </trkpt>
      <trkpt lat="44.43103" lon="6.40065">
        <ele>1447</ele>
        <time>2021-09-01T17:05:18.000Z</time>
      </trkpt>
      <trkpt lat="44.43103" lon="6.40065">
        <ele>1448</ele>
        <time>2021-09-01T17:05:19.000Z</time>
      </trkpt>
      <trkpt lat="44.43103" lon="6.40064">
        <ele>1448</ele>
        <time>2021-09-01T17:05:20.000Z</time>
      </trkpt>
      <trkpt lat="44.43104" lon="6.40063">
        <ele>1448</ele>
        <time>2021-09-01T17:05:21.000Z</time>
      </trkpt>
      <trkpt lat="44.43105" lon="6.40063">
        <ele>1447</ele>
        <time>2021-09-01T17:05:22.000Z</time>
      </trkpt>
      <trkpt lat="44.43106" lon="6.40062">
        <ele>1447</ele>
        <time>2021-09-01T17:05:23.000Z</time>
      </trkpt>
      <trkpt lat="44.43107" lon="6.40059">
        <ele>1446</ele>
        <time>2021-09-01T17:05:24.000Z</time>
      </trkpt>
      <trkpt lat="44.43108" lon="6.40057">
        <ele>1447</ele>
        <time>2021-09-01T17:05:25.000Z</time>
      </trkpt>
      <trkpt lat="44.4311" lon="6.40054">
        <ele>1447</ele>
        <time>2021-09-01T17:05:26.000Z</time>
      </trkpt>
      <trkpt lat="44.43111" lon="6.40052">
        <ele>1447</ele>
        <time>2021-09-01T17:05:27.000Z</time>
      </trkpt>
      <trkpt lat="44.43111" lon="6.40049">
        <ele>1447</ele>
        <time>2021-09-01T17:05:28.000Z</time>
      </trkpt>
      <trkpt lat="44.43112" lon="6.40045">
        <ele>1447</ele>
        <time>2021-09-01T17:05:29.000Z</time>
      </trkpt>
      <trkpt lat="44.43113" lon="6.40042">
        <ele>1447</ele>
        <time>2021-09-01T17:05:30.000Z</time>
      </trkpt>
      <trkpt lat="44.43113" lon="6.40039">
        <ele>1447</ele>
        <time>2021-09-01T17:05:31.000Z</time>
      </trkpt>
      <trkpt lat="44.43114" lon="6.40036">
        <ele>1447</ele>
        <time>2021-09-01T17:05:32.000Z</time>
      </trkpt>
      <trkpt lat="44.4311" lon="6.4003">
        <ele>1445</ele>
        <time>2021-09-01T17:05:33.000Z</time>
      </trkpt>
      <trkpt lat="44.43109" lon="6.40026">
        <ele>1444</ele>
        <time>2021-09-01T17:05:34.000Z</time>
      </trkpt>
      <trkpt lat="44.43112" lon="6.40022">
        <ele>1444</ele>
        <time>2021-09-01T17:05:35.000Z</time>
      </trkpt>
      <trkpt lat="44.43113" lon="6.4002">
        <ele>1445</ele>
        <time>2021-09-01T17:05:36.000Z</time>
      </trkpt>
      <trkpt lat="44.43114" lon="6.40018">
        <ele>1446</ele>
        <time>2021-09-01T17:05:37.000Z</time>
      </trkpt>
      <trkpt lat="44.43116" lon="6.40016">
        <ele>1446</ele>
        <time>2021-09-01T17:05:38.000Z</time>
      </trkpt>
      <trkpt lat="44.43117" lon="6.40015">
        <ele>1446</ele>
        <time>2021-09-01T17:05:39.000Z</time>
      </trkpt>
      <trkpt lat="44.43118" lon="6.40013">
        <ele>1446</ele>
        <time>2021-09-01T17:05:40.000Z</time>
      </trkpt>
      <trkpt lat="44.43118" lon="6.4001">
        <ele>1446</ele>
        <time>2021-09-01T17:05:41.000Z</time>
      </trkpt>
      <trkpt lat="44.43119" lon="6.40008">
        <ele>1447</ele>
        <time>2021-09-01T17:05:42.000Z</time>
      </trkpt>
      <trkpt lat="44.43121" lon="6.40006">
        <ele>1446</ele>
        <time>2021-09-01T17:05:43.000Z</time>
      </trkpt>
      <trkpt lat="44.43122" lon="6.40004">
        <ele>1447</ele>
        <time>2021-09-01T17:05:44.000Z</time>
      </trkpt>
      <trkpt lat="44.43122" lon="6.40002">
        <ele>1447</ele>
        <time>2021-09-01T17:05:45.000Z</time>
      </trkpt>
      <trkpt lat="44.43125" lon="6.40001">
        <ele>1448</ele>
        <time>2021-09-01T17:05:46.000Z</time>
      </trkpt>
      <trkpt lat="44.43127" lon="6.4">
        <ele>1448</ele>
        <time>2021-09-01T17:05:47.000Z</time>
      </trkpt>
      <trkpt lat="44.43129" lon="6.39999">
        <ele>1449</ele>
        <time>2021-09-01T17:05:48.000Z</time>
      </trkpt>
      <trkpt lat="44.43131" lon="6.39998">
        <ele>1449</ele>
        <time>2021-09-01T17:05:49.000Z</time>
      </trkpt>
      <trkpt lat="44.43132" lon="6.39996">
        <ele>1449</ele>
        <time>2021-09-01T17:05:50.000Z</time>
      </trkpt>
      <trkpt lat="44.43134" lon="6.39995">
        <ele>1449</ele>
        <time>2021-09-01T17:05:51.000Z</time>
      </trkpt>
      <trkpt lat="44.43135" lon="6.39993">
        <ele>1449</ele>
        <time>2021-09-01T17:05:52.000Z</time>
      </trkpt>
      <trkpt lat="44.43137" lon="6.39991">
        <ele>1449</ele>
        <time>2021-09-01T17:05:53.000Z</time>
      </trkpt>
      <trkpt lat="44.43139" lon="6.39988">
        <ele>1449</ele>
        <time>2021-09-01T17:05:54.000Z</time>
      </trkpt>
      <trkpt lat="44.4314" lon="6.39986">
        <ele>1449</ele>
        <time>2021-09-01T17:05:55.000Z</time>
      </trkpt>
      <trkpt lat="44.43142" lon="6.39983">
        <ele>1449</ele>
        <time>2021-09-01T17:05:56.000Z</time>
      </trkpt>
      <trkpt lat="44.43144" lon="6.3998">
        <ele>1449</ele>
        <time>2021-09-01T17:05:57.000Z</time>
      </trkpt>
      <trkpt lat="44.43147" lon="6.39978">
        <ele>1449</ele>
        <time>2021-09-01T17:05:58.000Z</time>
      </trkpt>
      <trkpt lat="44.4315" lon="6.39974">
        <ele>1448</ele>
        <time>2021-09-01T17:05:59.000Z</time>
      </trkpt>
      <trkpt lat="44.43152" lon="6.39972">
        <ele>1448</ele>
        <time>2021-09-01T17:06:00.000Z</time>
      </trkpt>
      <trkpt lat="44.43154" lon="6.3997">
        <ele>1447</ele>
        <time>2021-09-01T17:06:01.000Z</time>
      </trkpt>
      <trkpt lat="44.43157" lon="6.39968">
        <ele>1447</ele>
        <time>2021-09-01T17:06:02.000Z</time>
      </trkpt>
      <trkpt lat="44.4316" lon="6.39966">
        <ele>1446</ele>
        <time>2021-09-01T17:06:03.000Z</time>
      </trkpt>
      <trkpt lat="44.43163" lon="6.39964">
        <ele>1446</ele>
        <time>2021-09-01T17:06:04.000Z</time>
      </trkpt>
      <trkpt lat="44.43164" lon="6.39961">
        <ele>1446</ele>
        <time>2021-09-01T17:06:05.000Z</time>
      </trkpt>
      <trkpt lat="44.43165" lon="6.39959">
        <ele>1445</ele>
        <time>2021-09-01T17:06:06.000Z</time>
      </trkpt>
      <trkpt lat="44.43168" lon="6.39956">
        <ele>1445</ele>
        <time>2021-09-01T17:06:07.000Z</time>
      </trkpt>
      <trkpt lat="44.43171" lon="6.39954">
        <ele>1445</ele>
        <time>2021-09-01T17:06:08.000Z</time>
      </trkpt>
      <trkpt lat="44.43175" lon="6.39953">
        <ele>1444</ele>
        <time>2021-09-01T17:06:09.000Z</time>
      </trkpt>
      <trkpt lat="44.43178" lon="6.39951">
        <ele>1444</ele>
        <time>2021-09-01T17:06:10.000Z</time>
      </trkpt>
      <trkpt lat="44.43181" lon="6.39949">
        <ele>1444</ele>
        <time>2021-09-01T17:06:11.000Z</time>
      </trkpt>
      <trkpt lat="44.43183" lon="6.39946">
        <ele>1445</ele>
        <time>2021-09-01T17:06:12.000Z</time>
      </trkpt>
      <trkpt lat="44.43186" lon="6.39945">
        <ele>1445</ele>
        <time>2021-09-01T17:06:13.000Z</time>
      </trkpt>
      <trkpt lat="44.43188" lon="6.39943">
        <ele>1445</ele>
        <time>2021-09-01T17:06:14.000Z</time>
      </trkpt>
      <trkpt lat="44.4319" lon="6.39942">
        <ele>1444</ele>
        <time>2021-09-01T17:06:15.000Z</time>
      </trkpt>
      <trkpt lat="44.43191" lon="6.3994">
        <ele>1444</ele>
        <time>2021-09-01T17:06:16.000Z</time>
      </trkpt>
      <trkpt lat="44.43194" lon="6.39938">
        <ele>1444</ele>
        <time>2021-09-01T17:06:17.000Z</time>
      </trkpt>
      <trkpt lat="44.43198" lon="6.39936">
        <ele>1443</ele>
        <time>2021-09-01T17:06:18.000Z</time>
      </trkpt>
      <trkpt lat="44.43198" lon="6.39935">
        <ele>1444</ele>
        <time>2021-09-01T17:06:19.000Z</time>
      </trkpt>
      <trkpt lat="44.432" lon="6.39933">
        <ele>1444</ele>
        <time>2021-09-01T17:06:20.000Z</time>
      </trkpt>
      <trkpt lat="44.43201" lon="6.3993">
        <ele>1444</ele>
        <time>2021-09-01T17:06:21.000Z</time>
      </trkpt>
      <trkpt lat="44.43203" lon="6.39926">
        <ele>1445</ele>
        <time>2021-09-01T17:06:22.000Z</time>
      </trkpt>
      <trkpt lat="44.43204" lon="6.39922">
        <ele>1445</ele>
        <time>2021-09-01T17:06:23.000Z</time>
      </trkpt>
      <trkpt lat="44.43208" lon="6.39921">
        <ele>1445</ele>
        <time>2021-09-01T17:06:24.000Z</time>
      </trkpt>
      <trkpt lat="44.4321" lon="6.39918">
        <ele>1446</ele>
        <time>2021-09-01T17:06:25.000Z</time>
      </trkpt>
      <trkpt lat="44.43212" lon="6.39915">
        <ele>1447</ele>
        <time>2021-09-01T17:06:26.000Z</time>
      </trkpt>
      <trkpt lat="44.43216" lon="6.39912">
        <ele>1447</ele>
        <time>2021-09-01T17:06:27.000Z</time>
      </trkpt>
      <trkpt lat="44.43219" lon="6.3991">
        <ele>1447</ele>
        <time>2021-09-01T17:06:28.000Z</time>
      </trkpt>
      <trkpt lat="44.43221" lon="6.39908">
        <ele>1446</ele>
        <time>2021-09-01T17:06:29.000Z</time>
      </trkpt>
      <trkpt lat="44.43223" lon="6.39906">
        <ele>1447</ele>
        <time>2021-09-01T17:06:30.000Z</time>
      </trkpt>
      <trkpt lat="44.43225" lon="6.39903">
        <ele>1447</ele>
        <time>2021-09-01T17:06:31.000Z</time>
      </trkpt>
      <trkpt lat="44.43228" lon="6.39899">
        <ele>1448</ele>
        <time>2021-09-01T17:06:32.000Z</time>
      </trkpt>
      <trkpt lat="44.43229" lon="6.39895">
        <ele>1448</ele>
        <time>2021-09-01T17:06:33.000Z</time>
      </trkpt>
      <trkpt lat="44.43231" lon="6.39891">
        <ele>1447</ele>
        <time>2021-09-01T17:06:34.000Z</time>
      </trkpt>
      <trkpt lat="44.43233" lon="6.39889">
        <ele>1446</ele>
        <time>2021-09-01T17:06:35.000Z</time>
      </trkpt>
      <trkpt lat="44.43233" lon="6.39885">
        <ele>1446</ele>
        <time>2021-09-01T17:06:36.000Z</time>
      </trkpt>
      <trkpt lat="44.43234" lon="6.39882">
        <ele>1446</ele>
        <time>2021-09-01T17:06:37.000Z</time>
      </trkpt>
      <trkpt lat="44.43236" lon="6.39879">
        <ele>1445</ele>
        <time>2021-09-01T17:06:38.000Z</time>
      </trkpt>
      <trkpt lat="44.43236" lon="6.39876">
        <ele>1446</ele>
        <time>2021-09-01T17:06:39.000Z</time>
      </trkpt>
      <trkpt lat="44.43236" lon="6.39871">
        <ele>1446</ele>
        <time>2021-09-01T17:06:40.000Z</time>
      </trkpt>
      <trkpt lat="44.43237" lon="6.39867">
        <ele>1447</ele>
        <time>2021-09-01T17:06:41.000Z</time>
      </trkpt>
      <trkpt lat="44.43237" lon="6.39863">
        <ele>1447</ele>
        <time>2021-09-01T17:06:42.000Z</time>
      </trkpt>
      <trkpt lat="44.43237" lon="6.39859">
        <ele>1446</ele>
        <time>2021-09-01T17:06:43.000Z</time>
      </trkpt>
      <trkpt lat="44.43237" lon="6.39856">
        <ele>1446</ele>
        <time>2021-09-01T17:06:44.000Z</time>
      </trkpt>
      <trkpt lat="44.43236" lon="6.39853">
        <ele>1445</ele>
        <time>2021-09-01T17:06:45.000Z</time>
      </trkpt>
      <trkpt lat="44.43236" lon="6.39851">
        <ele>1444</ele>
        <time>2021-09-01T17:06:46.000Z</time>
      </trkpt>
      <trkpt lat="44.43237" lon="6.39847">
        <ele>1444</ele>
        <time>2021-09-01T17:06:47.000Z</time>
      </trkpt>
      <trkpt lat="44.43239" lon="6.39845">
        <ele>1445</ele>
        <time>2021-09-01T17:06:48.000Z</time>
      </trkpt>
      <trkpt lat="44.43241" lon="6.39845">
        <ele>1445</ele>
        <time>2021-09-01T17:06:49.000Z</time>
      </trkpt>
      <trkpt lat="44.43243" lon="6.39846">
        <ele>1445</ele>
        <time>2021-09-01T17:06:50.000Z</time>
      </trkpt>
      <trkpt lat="44.4325" lon="6.3985">
        <ele>1445</ele>
        <time>2021-09-01T17:06:51.000Z</time>
      </trkpt>
      <trkpt lat="44.43254" lon="6.39852">
        <ele>1446</ele>
        <time>2021-09-01T17:06:52.000Z</time>
      </trkpt>
      <trkpt lat="44.43257" lon="6.39854">
        <ele>1446</ele>
        <time>2021-09-01T17:06:53.000Z</time>
      </trkpt>
      <trkpt lat="44.43259" lon="6.39854">
        <ele>1447</ele>
        <time>2021-09-01T17:06:54.000Z</time>
      </trkpt>
      <trkpt lat="44.4326" lon="6.39853">
        <ele>1448</ele>
        <time>2021-09-01T17:06:55.000Z</time>
      </trkpt>
      <trkpt lat="44.43266" lon="6.39854">
        <ele>1446</ele>
        <time>2021-09-01T17:06:56.000Z</time>
      </trkpt>
      <trkpt lat="44.43274" lon="6.39854">
        <ele>1445</ele>
        <time>2021-09-01T17:06:57.000Z</time>
      </trkpt>
      <trkpt lat="44.43283" lon="6.39851">
        <ele>1445</ele>
        <time>2021-09-01T17:06:58.000Z</time>
      </trkpt>
      <trkpt lat="44.4329" lon="6.39851">
        <ele>1443</ele>
        <time>2021-09-01T17:06:59.000Z</time>
      </trkpt>
      <trkpt lat="44.43295" lon="6.3985">
        <ele>1442</ele>
        <time>2021-09-01T17:07:00.000Z</time>
      </trkpt>
      <trkpt lat="44.43304" lon="6.39849">
        <ele>1441</ele>
        <time>2021-09-01T17:07:01.000Z</time>
      </trkpt>
      <trkpt lat="44.43311" lon="6.39849">
        <ele>1440</ele>
        <time>2021-09-01T17:07:02.000Z</time>
      </trkpt>
      <trkpt lat="44.43319" lon="6.39847">
        <ele>1439</ele>
        <time>2021-09-01T17:07:03.000Z</time>
      </trkpt>
      <trkpt lat="44.43324" lon="6.39846">
        <ele>1438</ele>
        <time>2021-09-01T17:07:04.000Z</time>
      </trkpt>
      <trkpt lat="44.43324" lon="6.39846">
        <ele>1437</ele>
        <time>2021-09-01T17:07:05.000Z</time>
      </trkpt>
      <trkpt lat="44.43326" lon="6.39847">
        <ele>1435</ele>
        <time>2021-09-01T17:07:06.000Z</time>
      </trkpt>
      <trkpt lat="44.43326" lon="6.39846">
        <ele>1434</ele>
        <time>2021-09-01T17:07:07.000Z</time>
      </trkpt>
      <trkpt lat="44.43328" lon="6.39845">
        <ele>1433</ele>
        <time>2021-09-01T17:07:08.000Z</time>
      </trkpt>
      <trkpt lat="44.43332" lon="6.39847">
        <ele>1432</ele>
        <time>2021-09-01T17:07:09.000Z</time>
      </trkpt>
      <trkpt lat="44.43334" lon="6.39848">
        <ele>1431</ele>
        <time>2021-09-01T17:07:10.000Z</time>
      </trkpt>
      <trkpt lat="44.43337" lon="6.3985">
        <ele>1430</ele>
        <time>2021-09-01T17:07:11.000Z</time>
      </trkpt>
      <trkpt lat="44.43339" lon="6.39851">
        <ele>1428</ele>
        <time>2021-09-01T17:07:12.000Z</time>
      </trkpt>
      <trkpt lat="44.4334" lon="6.39854">
        <ele>1428</ele>
        <time>2021-09-01T17:07:13.000Z</time>
      </trkpt>
      <trkpt lat="44.43343" lon="6.39856">
        <ele>1426</ele>
        <time>2021-09-01T17:07:14.000Z</time>
      </trkpt>
      <trkpt lat="44.43346" lon="6.39858">
        <ele>1426</ele>
        <time>2021-09-01T17:07:15.000Z</time>
      </trkpt>
      <trkpt lat="44.43347" lon="6.3986">
        <ele>1426</ele>
        <time>2021-09-01T17:07:16.000Z</time>
      </trkpt>
      <trkpt lat="44.43349" lon="6.39861">
        <ele>1426</ele>
        <time>2021-09-01T17:07:17.000Z</time>
      </trkpt>
      <trkpt lat="44.43353" lon="6.39864">
        <ele>1425</ele>
        <time>2021-09-01T17:07:18.000Z</time>
      </trkpt>
      <trkpt lat="44.43357" lon="6.39867">
        <ele>1426</ele>
        <time>2021-09-01T17:07:19.000Z</time>
      </trkpt>
      <trkpt lat="44.4336" lon="6.39869">
        <ele>1426</ele>
        <time>2021-09-01T17:07:20.000Z</time>
      </trkpt>
      <trkpt lat="44.43362" lon="6.39871">
        <ele>1427</ele>
        <time>2021-09-01T17:07:21.000Z</time>
      </trkpt>
      <trkpt lat="44.43365" lon="6.39872">
        <ele>1428</ele>
        <time>2021-09-01T17:07:22.000Z</time>
      </trkpt>
      <trkpt lat="44.43367" lon="6.39873">
        <ele>1428</ele>
        <time>2021-09-01T17:07:23.000Z</time>
      </trkpt>
      <trkpt lat="44.43368" lon="6.39874">
        <ele>1428</ele>
        <time>2021-09-01T17:07:24.000Z</time>
      </trkpt>
      <trkpt lat="44.4337" lon="6.39875">
        <ele>1428</ele>
        <time>2021-09-01T17:07:25.000Z</time>
      </trkpt>
      <trkpt lat="44.43371" lon="6.39876">
        <ele>1428</ele>
        <time>2021-09-01T17:07:26.000Z</time>
      </trkpt>
      <trkpt lat="44.43372" lon="6.39876">
        <ele>1428</ele>
        <time>2021-09-01T17:07:27.000Z</time>
      </trkpt>
      <trkpt lat="44.43373" lon="6.39877">
        <ele>1428</ele>
        <time>2021-09-01T17:07:28.000Z</time>
      </trkpt>
      <trkpt lat="44.43373" lon="6.39877">
        <ele>1428</ele>
        <time>2021-09-01T17:07:29.000Z</time>
      </trkpt>
      <trkpt lat="44.43374" lon="6.39878">
        <ele>1429</ele>
        <time>2021-09-01T17:07:30.000Z</time>
      </trkpt>
      <trkpt lat="44.43374" lon="6.39878">
        <ele>1429</ele>
        <time>2021-09-01T17:07:31.000Z</time>
      </trkpt>
      <trkpt lat="44.43375" lon="6.39879">
        <ele>1429</ele>
        <time>2021-09-01T17:07:32.000Z</time>
      </trkpt>
      <trkpt lat="44.43375" lon="6.39879">
        <ele>1430</ele>
        <time>2021-09-01T17:07:33.000Z</time>
      </trkpt>
      <trkpt lat="44.43375" lon="6.3988">
        <ele>1430</ele>
        <time>2021-09-01T17:07:34.000Z</time>
      </trkpt>
      <trkpt lat="44.43375" lon="6.3988">
        <ele>1430</ele>
        <time>2021-09-01T17:07:35.000Z</time>
      </trkpt>
      <trkpt lat="44.43375" lon="6.3988">
        <ele>1431</ele>
        <time>2021-09-01T17:07:36.000Z</time>
      </trkpt>
      <trkpt lat="44.43375" lon="6.39881">
        <ele>1431</ele>
        <time>2021-09-01T17:07:37.000Z</time>
      </trkpt>
      <trkpt lat="44.43376" lon="6.39881">
        <ele>1432</ele>
        <time>2021-09-01T17:07:38.000Z</time>
      </trkpt>
      <trkpt lat="44.43376" lon="6.39882">
        <ele>1432</ele>
        <time>2021-09-01T17:07:39.000Z</time>
      </trkpt>
      <trkpt lat="44.43376" lon="6.39882">
        <ele>1432</ele>
        <time>2021-09-01T17:07:40.000Z</time>
      </trkpt>
      <trkpt lat="44.43376" lon="6.39882">
        <ele>1432</ele>
        <time>2021-09-01T17:07:41.000Z</time>
      </trkpt>
      <trkpt lat="44.43376" lon="6.39883">
        <ele>1433</ele>
        <time>2021-09-01T17:07:42.000Z</time>
      </trkpt>
      <trkpt lat="44.43376" lon="6.39883">
        <ele>1433</ele>
        <time>2021-09-01T17:07:43.000Z</time>
      </trkpt>
      <trkpt lat="44.43376" lon="6.39884">
        <ele>1433</ele>
        <time>2021-09-01T17:07:44.000Z</time>
      </trkpt>
      <trkpt lat="44.43376" lon="6.39884">
        <ele>1433</ele>
        <time>2021-09-01T17:07:45.000Z</time>
      </trkpt>
      <trkpt lat="44.43377" lon="6.39884">
        <ele>1432</ele>
        <time>2021-09-01T17:07:46.000Z</time>
      </trkpt>
      <trkpt lat="44.43377" lon="6.39885">
        <ele>1432</ele>
        <time>2021-09-01T17:07:47.000Z</time>
      </trkpt>
      <trkpt lat="44.43377" lon="6.39885">
        <ele>1431</ele>
        <time>2021-09-01T17:07:48.000Z</time>
      </trkpt>
      <trkpt lat="44.43377" lon="6.39886">
        <ele>1431</ele>
        <time>2021-09-01T17:07:49.000Z</time>
      </trkpt>
      <trkpt lat="44.43376" lon="6.39887">
        <ele>1431</ele>
        <time>2021-09-01T17:07:50.000Z</time>
      </trkpt>
      <trkpt lat="44.43376" lon="6.39887">
        <ele>1431</ele>
        <time>2021-09-01T17:07:51.000Z</time>
      </trkpt>
      <trkpt lat="44.43375" lon="6.39885">
        <ele>1430</ele>
        <time>2021-09-01T17:07:52.000Z</time>
      </trkpt>
      <trkpt lat="44.43375" lon="6.39884">
        <ele>1430</ele>
        <time>2021-09-01T17:07:53.000Z</time>
      </trkpt>
      <trkpt lat="44.43375" lon="6.39883">
        <ele>1431</ele>
        <time>2021-09-01T17:07:54.000Z</time>
      </trkpt>
      <trkpt lat="44.43377" lon="6.39881">
        <ele>1430</ele>
        <time>2021-09-01T17:07:55.000Z</time>
      </trkpt>
      <trkpt lat="44.43378" lon="6.39877">
        <ele>1430</ele>
        <time>2021-09-01T17:07:56.000Z</time>
      </trkpt>
      <trkpt lat="44.4338" lon="6.39874">
        <ele>1430</ele>
        <time>2021-09-01T17:07:57.000Z</time>
      </trkpt>
      <trkpt lat="44.43382" lon="6.39872">
        <ele>1429</ele>
        <time>2021-09-01T17:07:58.000Z</time>
      </trkpt>
      <trkpt lat="44.43385" lon="6.3987">
        <ele>1429</ele>
        <time>2021-09-01T17:07:59.000Z</time>
      </trkpt>
      <trkpt lat="44.43387" lon="6.39866">
        <ele>1428</ele>
        <time>2021-09-01T17:08:00.000Z</time>
      </trkpt>
      <trkpt lat="44.4339" lon="6.3986">
        <ele>1428</ele>
        <time>2021-09-01T17:08:01.000Z</time>
      </trkpt>
      <trkpt lat="44.43393" lon="6.39855">
        <ele>1427</ele>
        <time>2021-09-01T17:08:02.000Z</time>
      </trkpt>
      <trkpt lat="44.43395" lon="6.39847">
        <ele>1427</ele>
        <time>2021-09-01T17:08:03.000Z</time>
      </trkpt>
      <trkpt lat="44.43397" lon="6.3984">
        <ele>1426</ele>
        <time>2021-09-01T17:08:04.000Z</time>
      </trkpt>
      <trkpt lat="44.43399" lon="6.39833">
        <ele>1426</ele>
        <time>2021-09-01T17:08:05.000Z</time>
      </trkpt>
      <trkpt lat="44.43402" lon="6.39827">
        <ele>1425</ele>
        <time>2021-09-01T17:08:06.000Z</time>
      </trkpt>
      <trkpt lat="44.43402" lon="6.39819">
        <ele>1425</ele>
        <time>2021-09-01T17:08:07.000Z</time>
      </trkpt>
      <trkpt lat="44.43403" lon="6.39811">
        <ele>1425</ele>
        <time>2021-09-01T17:08:08.000Z</time>
      </trkpt>
      <trkpt lat="44.43401" lon="6.39802">
        <ele>1425</ele>
        <time>2021-09-01T17:08:09.000Z</time>
      </trkpt>
      <trkpt lat="44.43399" lon="6.39793">
        <ele>1426</ele>
        <time>2021-09-01T17:08:10.000Z</time>
      </trkpt>
      <trkpt lat="44.43394" lon="6.39788">
        <ele>1425</ele>
        <time>2021-09-01T17:08:11.000Z</time>
      </trkpt>
      <trkpt lat="44.4339" lon="6.39786">
        <ele>1424</ele>
        <time>2021-09-01T17:08:12.000Z</time>
      </trkpt>
      <trkpt lat="44.43388" lon="6.39784">
        <ele>1424</ele>
        <time>2021-09-01T17:08:13.000Z</time>
      </trkpt>
      <trkpt lat="44.43385" lon="6.39783">
        <ele>1424</ele>
        <time>2021-09-01T17:08:14.000Z</time>
      </trkpt>
      <trkpt lat="44.43385" lon="6.39781">
        <ele>1423</ele>
        <time>2021-09-01T17:08:15.000Z</time>
      </trkpt>
      <trkpt lat="44.43384" lon="6.3978">
        <ele>1423</ele>
        <time>2021-09-01T17:08:16.000Z</time>
      </trkpt>
      <trkpt lat="44.43384" lon="6.39779">
        <ele>1423</ele>
        <time>2021-09-01T17:08:17.000Z</time>
      </trkpt>
      <trkpt lat="44.43384" lon="6.39778">
        <ele>1423</ele>
        <time>2021-09-01T17:08:18.000Z</time>
      </trkpt>
      <trkpt lat="44.43385" lon="6.39777">
        <ele>1423</ele>
        <time>2021-09-01T17:08:19.000Z</time>
      </trkpt>
      <trkpt lat="44.43384" lon="6.39776">
        <ele>1422</ele>
        <time>2021-09-01T17:08:20.000Z</time>
      </trkpt>
      <trkpt lat="44.43384" lon="6.39775">
        <ele>1422</ele>
        <time>2021-09-01T17:08:21.000Z</time>
      </trkpt>
      <trkpt lat="44.43384" lon="6.39774">
        <ele>1422</ele>
        <time>2021-09-01T17:08:22.000Z</time>
      </trkpt>
      <trkpt lat="44.43384" lon="6.39773">
        <ele>1422</ele>
        <time>2021-09-01T17:08:23.000Z</time>
      </trkpt>
      <trkpt lat="44.43385" lon="6.39772">
        <ele>1422</ele>
        <time>2021-09-01T17:08:24.000Z</time>
      </trkpt>
      <trkpt lat="44.43385" lon="6.39771">
        <ele>1421</ele>
        <time>2021-09-01T17:08:25.000Z</time>
      </trkpt>
      <trkpt lat="44.43385" lon="6.3977">
        <ele>1421</ele>
        <time>2021-09-01T17:08:26.000Z</time>
      </trkpt>
      <trkpt lat="44.43386" lon="6.39769">
        <ele>1421</ele>
        <time>2021-09-01T17:08:27.000Z</time>
      </trkpt>
      <trkpt lat="44.43386" lon="6.39769">
        <ele>1421</ele>
        <time>2021-09-01T17:08:28.000Z</time>
      </trkpt>
      <trkpt lat="44.43387" lon="6.39768">
        <ele>1420</ele>
        <time>2021-09-01T17:08:29.000Z</time>
      </trkpt>
      <trkpt lat="44.43387" lon="6.39768">
        <ele>1420</ele>
        <time>2021-09-01T17:08:30.000Z</time>
      </trkpt>
      <trkpt lat="44.43388" lon="6.39767">
        <ele>1420</ele>
        <time>2021-09-01T17:08:31.000Z</time>
      </trkpt>
      <trkpt lat="44.43388" lon="6.39766">
        <ele>1419</ele>
        <time>2021-09-01T17:08:32.000Z</time>
      </trkpt>
      <trkpt lat="44.43388" lon="6.39766">
        <ele>1420</ele>
        <time>2021-09-01T17:08:33.000Z</time>
      </trkpt>
      <trkpt lat="44.43388" lon="6.39765">
        <ele>1419</ele>
        <time>2021-09-01T17:08:34.000Z</time>
      </trkpt>
      <trkpt lat="44.43388" lon="6.39764">
        <ele>1419</ele>
        <time>2021-09-01T17:08:35.000Z</time>
      </trkpt>
      <trkpt lat="44.43388" lon="6.39763">
        <ele>1419</ele>
        <time>2021-09-01T17:08:36.000Z</time>
      </trkpt>
      <trkpt lat="44.43388" lon="6.39762">
        <ele>1419</ele>
        <time>2021-09-01T17:08:37.000Z</time>
      </trkpt>
      <trkpt lat="44.43388" lon="6.39762">
        <ele>1419</ele>
        <time>2021-09-01T17:08:38.000Z</time>
      </trkpt>
      <trkpt lat="44.43386" lon="6.39759">
        <ele>1419</ele>
        <time>2021-09-01T17:08:39.000Z</time>
      </trkpt>
      <trkpt lat="44.43385" lon="6.39758">
        <ele>1418</ele>
        <time>2021-09-01T17:08:40.000Z</time>
      </trkpt>
      <trkpt lat="44.43384" lon="6.39756">
        <ele>1418</ele>
        <time>2021-09-01T17:08:41.000Z</time>
      </trkpt>
      <trkpt lat="44.43383" lon="6.39754">
        <ele>1417</ele>
        <time>2021-09-01T17:08:42.000Z</time>
      </trkpt>
      <trkpt lat="44.43381" lon="6.39752">
        <ele>1416</ele>
        <time>2021-09-01T17:08:43.000Z</time>
      </trkpt>
      <trkpt lat="44.43378" lon="6.39749">
        <ele>1416</ele>
        <time>2021-09-01T17:08:44.000Z</time>
      </trkpt>
      <trkpt lat="44.43376" lon="6.39746">
        <ele>1415</ele>
        <time>2021-09-01T17:08:45.000Z</time>
      </trkpt>
      <trkpt lat="44.43373" lon="6.39745">
        <ele>1414</ele>
        <time>2021-09-01T17:08:46.000Z</time>
      </trkpt>
      <trkpt lat="44.4337" lon="6.39745">
        <ele>1414</ele>
        <time>2021-09-01T17:08:47.000Z</time>
      </trkpt>
      <trkpt lat="44.43365" lon="6.39744">
        <ele>1413</ele>
        <time>2021-09-01T17:08:48.000Z</time>
      </trkpt>
      <trkpt lat="44.43361" lon="6.39743">
        <ele>1411</ele>
        <time>2021-09-01T17:08:49.000Z</time>
      </trkpt>
      <trkpt lat="44.43357" lon="6.3974">
        <ele>1411</ele>
        <time>2021-09-01T17:08:50.000Z</time>
      </trkpt>
      <trkpt lat="44.43354" lon="6.39736">
        <ele>1409</ele>
        <time>2021-09-01T17:08:51.000Z</time>
      </trkpt>
      <trkpt lat="44.4335" lon="6.3973">
        <ele>1409</ele>
        <time>2021-09-01T17:08:52.000Z</time>
      </trkpt>
      <trkpt lat="44.43347" lon="6.39727">
        <ele>1409</ele>
        <time>2021-09-01T17:08:53.000Z</time>
      </trkpt>
      <trkpt lat="44.43346" lon="6.39724">
        <ele>1408</ele>
        <time>2021-09-01T17:08:54.000Z</time>
      </trkpt>
      <trkpt lat="44.43346" lon="6.39717">
        <ele>1408</ele>
        <time>2021-09-01T17:08:55.000Z</time>
      </trkpt>
      <trkpt lat="44.43345" lon="6.39712">
        <ele>1406</ele>
        <time>2021-09-01T17:08:56.000Z</time>
      </trkpt>
      <trkpt lat="44.43346" lon="6.39705">
        <ele>1404</ele>
        <time>2021-09-01T17:08:57.000Z</time>
      </trkpt>
      <trkpt lat="44.43345" lon="6.39693">
        <ele>1403</ele>
        <time>2021-09-01T17:08:58.000Z</time>
      </trkpt>
      <trkpt lat="44.43347" lon="6.39684">
        <ele>1402</ele>
        <time>2021-09-01T17:08:59.000Z</time>
      </trkpt>
      <trkpt lat="44.43348" lon="6.39672">
        <ele>1399</ele>
        <time>2021-09-01T17:09:00.000Z</time>
      </trkpt>
      <trkpt lat="44.43347" lon="6.39658">
        <ele>1399</ele>
        <time>2021-09-01T17:09:01.000Z</time>
      </trkpt>
      <trkpt lat="44.43345" lon="6.39645">
        <ele>1398</ele>
        <time>2021-09-01T17:09:02.000Z</time>
      </trkpt>
      <trkpt lat="44.43343" lon="6.3963">
        <ele>1396</ele>
        <time>2021-09-01T17:09:03.000Z</time>
      </trkpt>
      <trkpt lat="44.43341" lon="6.39616">
        <ele>1395</ele>
        <time>2021-09-01T17:09:04.000Z</time>
      </trkpt>
      <trkpt lat="44.43339" lon="6.39604">
        <ele>1394</ele>
        <time>2021-09-01T17:09:05.000Z</time>
      </trkpt>
      <trkpt lat="44.43336" lon="6.39591">
        <ele>1395</ele>
        <time>2021-09-01T17:09:06.000Z</time>
      </trkpt>
      <trkpt lat="44.43334" lon="6.39578">
        <ele>1395</ele>
        <time>2021-09-01T17:09:07.000Z</time>
      </trkpt>
      <trkpt lat="44.43329" lon="6.39569">
        <ele>1395</ele>
        <time>2021-09-01T17:09:08.000Z</time>
      </trkpt>
      <trkpt lat="44.43323" lon="6.39564">
        <ele>1394</ele>
        <time>2021-09-01T17:09:09.000Z</time>
      </trkpt>
      <trkpt lat="44.43319" lon="6.39558">
        <ele>1393</ele>
        <time>2021-09-01T17:09:10.000Z</time>
      </trkpt>
      <trkpt lat="44.43315" lon="6.39554">
        <ele>1391</ele>
        <time>2021-09-01T17:09:11.000Z</time>
      </trkpt>
      <trkpt lat="44.4331" lon="6.39545">
        <ele>1390</ele>
        <time>2021-09-01T17:09:12.000Z</time>
      </trkpt>
      <trkpt lat="44.43308" lon="6.39541">
        <ele>1389</ele>
        <time>2021-09-01T17:09:13.000Z</time>
      </trkpt>
      <trkpt lat="44.43306" lon="6.39534">
        <ele>1388</ele>
        <time>2021-09-01T17:09:14.000Z</time>
      </trkpt>
      <trkpt lat="44.43303" lon="6.39526">
        <ele>1388</ele>
        <time>2021-09-01T17:09:15.000Z</time>
      </trkpt>
      <trkpt lat="44.43301" lon="6.39514">
        <ele>1388</ele>
        <time>2021-09-01T17:09:16.000Z</time>
      </trkpt>
      <trkpt lat="44.43301" lon="6.395">
        <ele>1388</ele>
        <time>2021-09-01T17:09:17.000Z</time>
      </trkpt>
      <trkpt lat="44.433" lon="6.39488">
        <ele>1387</ele>
        <time>2021-09-01T17:09:18.000Z</time>
      </trkpt>
      <trkpt lat="44.43299" lon="6.39477">
        <ele>1387</ele>
        <time>2021-09-01T17:09:19.000Z</time>
      </trkpt>
      <trkpt lat="44.43298" lon="6.39464">
        <ele>1386</ele>
        <time>2021-09-01T17:09:20.000Z</time>
      </trkpt>
      <trkpt lat="44.43297" lon="6.39451">
        <ele>1387</ele>
        <time>2021-09-01T17:09:21.000Z</time>
      </trkpt>
      <trkpt lat="44.43296" lon="6.39437">
        <ele>1388</ele>
        <time>2021-09-01T17:09:22.000Z</time>
      </trkpt>
      <trkpt lat="44.43297" lon="6.39423">
        <ele>1390</ele>
        <time>2021-09-01T17:09:23.000Z</time>
      </trkpt>
      <trkpt lat="44.43297" lon="6.39414">
        <ele>1391</ele>
        <time>2021-09-01T17:09:24.000Z</time>
      </trkpt>
      <trkpt lat="44.43297" lon="6.39403">
        <ele>1390</ele>
        <time>2021-09-01T17:09:25.000Z</time>
      </trkpt>
      <trkpt lat="44.43295" lon="6.39394">
        <ele>1389</ele>
        <time>2021-09-01T17:09:26.000Z</time>
      </trkpt>
      <trkpt lat="44.43292" lon="6.39385">
        <ele>1389</ele>
        <time>2021-09-01T17:09:27.000Z</time>
      </trkpt>
      <trkpt lat="44.4329" lon="6.39378">
        <ele>1389</ele>
        <time>2021-09-01T17:09:28.000Z</time>
      </trkpt>
      <trkpt lat="44.4329" lon="6.39371">
        <ele>1389</ele>
        <time>2021-09-01T17:09:29.000Z</time>
      </trkpt>
      <trkpt lat="44.43289" lon="6.39363">
        <ele>1389</ele>
        <time>2021-09-01T17:09:30.000Z</time>
      </trkpt>
      <trkpt lat="44.43287" lon="6.39357">
        <ele>1388</ele>
        <time>2021-09-01T17:09:31.000Z</time>
      </trkpt>
      <trkpt lat="44.43285" lon="6.39349">
        <ele>1387</ele>
        <time>2021-09-01T17:09:32.000Z</time>
      </trkpt>
      <trkpt lat="44.43285" lon="6.39339">
        <ele>1386</ele>
        <time>2021-09-01T17:09:33.000Z</time>
      </trkpt>
      <trkpt lat="44.43284" lon="6.39331">
        <ele>1385</ele>
        <time>2021-09-01T17:09:34.000Z</time>
      </trkpt>
      <trkpt lat="44.43285" lon="6.39315">
        <ele>1388</ele>
        <time>2021-09-01T17:09:35.000Z</time>
      </trkpt>
      <trkpt lat="44.43287" lon="6.39309">
        <ele>1389</ele>
        <time>2021-09-01T17:09:36.000Z</time>
      </trkpt>
      <trkpt lat="44.43287" lon="6.39302">
        <ele>1388</ele>
        <time>2021-09-01T17:09:37.000Z</time>
      </trkpt>
      <trkpt lat="44.43288" lon="6.39296">
        <ele>1388</ele>
        <time>2021-09-01T17:09:38.000Z</time>
      </trkpt>
      <trkpt lat="44.43289" lon="6.39285">
        <ele>1387</ele>
        <time>2021-09-01T17:09:39.000Z</time>
      </trkpt>
      <trkpt lat="44.43289" lon="6.3927">
        <ele>1386</ele>
        <time>2021-09-01T17:09:40.000Z</time>
      </trkpt>
      <trkpt lat="44.43293" lon="6.39257">
        <ele>1386</ele>
        <time>2021-09-01T17:09:41.000Z</time>
      </trkpt>
      <trkpt lat="44.43297" lon="6.39247">
        <ele>1385</ele>
        <time>2021-09-01T17:09:42.000Z</time>
      </trkpt>
      <trkpt lat="44.43297" lon="6.39237">
        <ele>1384</ele>
        <time>2021-09-01T17:09:43.000Z</time>
      </trkpt>
      <trkpt lat="44.43301" lon="6.39225">
        <ele>1384</ele>
        <time>2021-09-01T17:09:44.000Z</time>
      </trkpt>
      <trkpt lat="44.43303" lon="6.3921">
        <ele>1383</ele>
        <time>2021-09-01T17:09:45.000Z</time>
      </trkpt>
      <trkpt lat="44.43305" lon="6.39195">
        <ele>1382</ele>
        <time>2021-09-01T17:09:46.000Z</time>
      </trkpt>
      <trkpt lat="44.43307" lon="6.39184">
        <ele>1384</ele>
        <time>2021-09-01T17:09:47.000Z</time>
      </trkpt>
      <trkpt lat="44.43309" lon="6.39172">
        <ele>1384</ele>
        <time>2021-09-01T17:09:48.000Z</time>
      </trkpt>
      <trkpt lat="44.43312" lon="6.3916">
        <ele>1386</ele>
        <time>2021-09-01T17:09:49.000Z</time>
      </trkpt>
      <trkpt lat="44.43314" lon="6.3915">
        <ele>1386</ele>
        <time>2021-09-01T17:09:50.000Z</time>
      </trkpt>
      <trkpt lat="44.43317" lon="6.39138">
        <ele>1386</ele>
        <time>2021-09-01T17:09:51.000Z</time>
      </trkpt>
      <trkpt lat="44.43319" lon="6.39129">
        <ele>1386</ele>
        <time>2021-09-01T17:09:52.000Z</time>
      </trkpt>
      <trkpt lat="44.43319" lon="6.39122">
        <ele>1387</ele>
        <time>2021-09-01T17:09:53.000Z</time>
      </trkpt>
      <trkpt lat="44.4332" lon="6.39114">
        <ele>1387</ele>
        <time>2021-09-01T17:09:54.000Z</time>
      </trkpt>
      <trkpt lat="44.43323" lon="6.39106">
        <ele>1386</ele>
        <time>2021-09-01T17:09:55.000Z</time>
      </trkpt>
      <trkpt lat="44.43323" lon="6.39094">
        <ele>1387</ele>
        <time>2021-09-01T17:09:56.000Z</time>
      </trkpt>
      <trkpt lat="44.43323" lon="6.39079">
        <ele>1386</ele>
        <time>2021-09-01T17:09:57.000Z</time>
      </trkpt>
      <trkpt lat="44.43324" lon="6.39069">
        <ele>1385</ele>
        <time>2021-09-01T17:09:58.000Z</time>
      </trkpt>
      <trkpt lat="44.43324" lon="6.39055">
        <ele>1385</ele>
        <time>2021-09-01T17:09:59.000Z</time>
      </trkpt>
      <trkpt lat="44.43322" lon="6.3904">
        <ele>1385</ele>
        <time>2021-09-01T17:10:00.000Z</time>
      </trkpt>
      <trkpt lat="44.43321" lon="6.39029">
        <ele>1384</ele>
        <time>2021-09-01T17:10:01.000Z</time>
      </trkpt>
      <trkpt lat="44.43323" lon="6.39017">
        <ele>1384</ele>
        <time>2021-09-01T17:10:02.000Z</time>
      </trkpt>
      <trkpt lat="44.43326" lon="6.39006">
        <ele>1383</ele>
        <time>2021-09-01T17:10:03.000Z</time>
      </trkpt>
      <trkpt lat="44.43328" lon="6.39001">
        <ele>1382</ele>
        <time>2021-09-01T17:10:04.000Z</time>
      </trkpt>
      <trkpt lat="44.43329" lon="6.38988">
        <ele>1383</ele>
        <time>2021-09-01T17:10:05.000Z</time>
      </trkpt>
      <trkpt lat="44.43332" lon="6.38979">
        <ele>1383</ele>
        <time>2021-09-01T17:10:06.000Z</time>
      </trkpt>
      <trkpt lat="44.43336" lon="6.38969">
        <ele>1382</ele>
        <time>2021-09-01T17:10:07.000Z</time>
      </trkpt>
      <trkpt lat="44.43338" lon="6.38954">
        <ele>1381</ele>
        <time>2021-09-01T17:10:08.000Z</time>
      </trkpt>
      <trkpt lat="44.43339" lon="6.3894">
        <ele>1380</ele>
        <time>2021-09-01T17:10:09.000Z</time>
      </trkpt>
      <trkpt lat="44.43339" lon="6.38923">
        <ele>1381</ele>
        <time>2021-09-01T17:10:10.000Z</time>
      </trkpt>
      <trkpt lat="44.43343" lon="6.38913">
        <ele>1382</ele>
        <time>2021-09-01T17:10:11.000Z</time>
      </trkpt>
      <trkpt lat="44.43346" lon="6.38898">
        <ele>1383</ele>
        <time>2021-09-01T17:10:12.000Z</time>
      </trkpt>
      <trkpt lat="44.43348" lon="6.38884">
        <ele>1382</ele>
        <time>2021-09-01T17:10:13.000Z</time>
      </trkpt>
      <trkpt lat="44.4335" lon="6.38867">
        <ele>1380</ele>
        <time>2021-09-01T17:10:14.000Z</time>
      </trkpt>
      <trkpt lat="44.43352" lon="6.38849">
        <ele>1380</ele>
        <time>2021-09-01T17:10:15.000Z</time>
      </trkpt>
      <trkpt lat="44.43355" lon="6.38832">
        <ele>1380</ele>
        <time>2021-09-01T17:10:16.000Z</time>
      </trkpt>
      <trkpt lat="44.43356" lon="6.38817">
        <ele>1379</ele>
        <time>2021-09-01T17:10:17.000Z</time>
      </trkpt>
      <trkpt lat="44.43358" lon="6.38804">
        <ele>1378</ele>
        <time>2021-09-01T17:10:18.000Z</time>
      </trkpt>
      <trkpt lat="44.43363" lon="6.38792">
        <ele>1378</ele>
        <time>2021-09-01T17:10:19.000Z</time>
      </trkpt>
      <trkpt lat="44.43366" lon="6.38777">
        <ele>1379</ele>
        <time>2021-09-01T17:10:20.000Z</time>
      </trkpt>
      <trkpt lat="44.43369" lon="6.3876">
        <ele>1380</ele>
        <time>2021-09-01T17:10:21.000Z</time>
      </trkpt>
      <trkpt lat="44.43372" lon="6.38745">
        <ele>1382</ele>
        <time>2021-09-01T17:10:22.000Z</time>
      </trkpt>
      <trkpt lat="44.43373" lon="6.38731">
        <ele>1382</ele>
        <time>2021-09-01T17:10:23.000Z</time>
      </trkpt>
      <trkpt lat="44.43379" lon="6.38717">
        <ele>1382</ele>
        <time>2021-09-01T17:10:24.000Z</time>
      </trkpt>
      <trkpt lat="44.43382" lon="6.38704">
        <ele>1383</ele>
        <time>2021-09-01T17:10:25.000Z</time>
      </trkpt>
      <trkpt lat="44.43386" lon="6.38693">
        <ele>1383</ele>
        <time>2021-09-01T17:10:26.000Z</time>
      </trkpt>
      <trkpt lat="44.4339" lon="6.38678">
        <ele>1382</ele>
        <time>2021-09-01T17:10:27.000Z</time>
      </trkpt>
      <trkpt lat="44.43397" lon="6.38664">
        <ele>1381</ele>
        <time>2021-09-01T17:10:28.000Z</time>
      </trkpt>
      <trkpt lat="44.43402" lon="6.38649">
        <ele>1380</ele>
        <time>2021-09-01T17:10:29.000Z</time>
      </trkpt>
      <trkpt lat="44.43406" lon="6.38635">
        <ele>1380</ele>
        <time>2021-09-01T17:10:30.000Z</time>
      </trkpt>
      <trkpt lat="44.43411" lon="6.38622">
        <ele>1378</ele>
        <time>2021-09-01T17:10:31.000Z</time>
      </trkpt>
      <trkpt lat="44.43415" lon="6.38607">
        <ele>1378</ele>
        <time>2021-09-01T17:10:32.000Z</time>
      </trkpt>
      <trkpt lat="44.43418" lon="6.38594">
        <ele>1378</ele>
        <time>2021-09-01T17:10:33.000Z</time>
      </trkpt>
      <trkpt lat="44.43418" lon="6.38579">
        <ele>1377</ele>
        <time>2021-09-01T17:10:34.000Z</time>
      </trkpt>
      <trkpt lat="44.43421" lon="6.38567">
        <ele>1376</ele>
        <time>2021-09-01T17:10:35.000Z</time>
      </trkpt>
      <trkpt lat="44.43427" lon="6.38559">
        <ele>1374</ele>
        <time>2021-09-01T17:10:36.000Z</time>
      </trkpt>
      <trkpt lat="44.43432" lon="6.38549">
        <ele>1374</ele>
        <time>2021-09-01T17:10:37.000Z</time>
      </trkpt>
      <trkpt lat="44.43435" lon="6.3854">
        <ele>1373</ele>
        <time>2021-09-01T17:10:38.000Z</time>
      </trkpt>
      <trkpt lat="44.43438" lon="6.38528">
        <ele>1373</ele>
        <time>2021-09-01T17:10:39.000Z</time>
      </trkpt>
      <trkpt lat="44.43442" lon="6.38518">
        <ele>1373</ele>
        <time>2021-09-01T17:10:40.000Z</time>
      </trkpt>
      <trkpt lat="44.43443" lon="6.38506">
        <ele>1372</ele>
        <time>2021-09-01T17:10:41.000Z</time>
      </trkpt>
      <trkpt lat="44.43451" lon="6.38498">
        <ele>1371</ele>
        <time>2021-09-01T17:10:42.000Z</time>
      </trkpt>
      <trkpt lat="44.43457" lon="6.38488">
        <ele>1370</ele>
        <time>2021-09-01T17:10:43.000Z</time>
      </trkpt>
      <trkpt lat="44.43461" lon="6.38478">
        <ele>1369</ele>
        <time>2021-09-01T17:10:44.000Z</time>
      </trkpt>
      <trkpt lat="44.43464" lon="6.38465">
        <ele>1370</ele>
        <time>2021-09-01T17:10:45.000Z</time>
      </trkpt>
      <trkpt lat="44.43468" lon="6.38454">
        <ele>1370</ele>
        <time>2021-09-01T17:10:46.000Z</time>
      </trkpt>
      <trkpt lat="44.43472" lon="6.38442">
        <ele>1370</ele>
        <time>2021-09-01T17:10:47.000Z</time>
      </trkpt>
      <trkpt lat="44.43475" lon="6.38429">
        <ele>1368</ele>
        <time>2021-09-01T17:10:48.000Z</time>
      </trkpt>
      <trkpt lat="44.43478" lon="6.38417">
        <ele>1366</ele>
        <time>2021-09-01T17:10:49.000Z</time>
      </trkpt>
      <trkpt lat="44.43484" lon="6.38406">
        <ele>1362</ele>
        <time>2021-09-01T17:10:50.000Z</time>
      </trkpt>
      <trkpt lat="44.43492" lon="6.38397">
        <ele>1361</ele>
        <time>2021-09-01T17:10:51.000Z</time>
      </trkpt>
      <trkpt lat="44.43502" lon="6.38389">
        <ele>1356</ele>
        <time>2021-09-01T17:10:52.000Z</time>
      </trkpt>
      <trkpt lat="44.43514" lon="6.38383">
        <ele>1350</ele>
        <time>2021-09-01T17:10:53.000Z</time>
      </trkpt>
      <trkpt lat="44.43526" lon="6.38377">
        <ele>1347</ele>
        <time>2021-09-01T17:10:54.000Z</time>
      </trkpt>
      <trkpt lat="44.43537" lon="6.38371">
        <ele>1347</ele>
        <time>2021-09-01T17:10:55.000Z</time>
      </trkpt>
      <trkpt lat="44.43548" lon="6.38362">
        <ele>1349</ele>
        <time>2021-09-01T17:10:56.000Z</time>
      </trkpt>
      <trkpt lat="44.43556" lon="6.38351">
        <ele>1350</ele>
        <time>2021-09-01T17:10:57.000Z</time>
      </trkpt>
      <trkpt lat="44.43565" lon="6.38342">
        <ele>1351</ele>
        <time>2021-09-01T17:10:58.000Z</time>
      </trkpt>
      <trkpt lat="44.43572" lon="6.38334">
        <ele>1349</ele>
        <time>2021-09-01T17:10:59.000Z</time>
      </trkpt>
      <trkpt lat="44.4358" lon="6.38328">
        <ele>1348</ele>
        <time>2021-09-01T17:11:00.000Z</time>
      </trkpt>
      <trkpt lat="44.43591" lon="6.38324">
        <ele>1347</ele>
        <time>2021-09-01T17:11:01.000Z</time>
      </trkpt>
      <trkpt lat="44.43599" lon="6.3832">
        <ele>1344</ele>
        <time>2021-09-01T17:11:02.000Z</time>
      </trkpt>
      <trkpt lat="44.43607" lon="6.38315">
        <ele>1344</ele>
        <time>2021-09-01T17:11:03.000Z</time>
      </trkpt>
      <trkpt lat="44.43615" lon="6.38308">
        <ele>1344</ele>
        <time>2021-09-01T17:11:04.000Z</time>
      </trkpt>
      <trkpt lat="44.43625" lon="6.38301">
        <ele>1345</ele>
        <time>2021-09-01T17:11:05.000Z</time>
      </trkpt>
      <trkpt lat="44.43633" lon="6.38293">
        <ele>1345</ele>
        <time>2021-09-01T17:11:06.000Z</time>
      </trkpt>
      <trkpt lat="44.4364" lon="6.38286">
        <ele>1344</ele>
        <time>2021-09-01T17:11:07.000Z</time>
      </trkpt>
      <trkpt lat="44.43646" lon="6.38278">
        <ele>1343</ele>
        <time>2021-09-01T17:11:08.000Z</time>
      </trkpt>
      <trkpt lat="44.43653" lon="6.38271">
        <ele>1342</ele>
        <time>2021-09-01T17:11:09.000Z</time>
      </trkpt>
      <trkpt lat="44.43658" lon="6.38264">
        <ele>1340</ele>
        <time>2021-09-01T17:11:10.000Z</time>
      </trkpt>
      <trkpt lat="44.43663" lon="6.38258">
        <ele>1340</ele>
        <time>2021-09-01T17:11:11.000Z</time>
      </trkpt>
      <trkpt lat="44.43667" lon="6.38249">
        <ele>1339</ele>
        <time>2021-09-01T17:11:12.000Z</time>
      </trkpt>
      <trkpt lat="44.43671" lon="6.38242">
        <ele>1339</ele>
        <time>2021-09-01T17:11:13.000Z</time>
      </trkpt>
      <trkpt lat="44.43674" lon="6.38235">
        <ele>1339</ele>
        <time>2021-09-01T17:11:14.000Z</time>
      </trkpt>
      <trkpt lat="44.43677" lon="6.38227">
        <ele>1338</ele>
        <time>2021-09-01T17:11:15.000Z</time>
      </trkpt>
      <trkpt lat="44.43678" lon="6.3822">
        <ele>1337</ele>
        <time>2021-09-01T17:11:16.000Z</time>
      </trkpt>
      <trkpt lat="44.43679" lon="6.38213">
        <ele>1336</ele>
        <time>2021-09-01T17:11:17.000Z</time>
      </trkpt>
      <trkpt lat="44.43679" lon="6.38199">
        <ele>1334</ele>
        <time>2021-09-01T17:11:18.000Z</time>
      </trkpt>
      <trkpt lat="44.43679" lon="6.38188">
        <ele>1333</ele>
        <time>2021-09-01T17:11:19.000Z</time>
      </trkpt>
      <trkpt lat="44.4368" lon="6.38178">
        <ele>1332</ele>
        <time>2021-09-01T17:11:20.000Z</time>
      </trkpt>
      <trkpt lat="44.43681" lon="6.38171">
        <ele>1331</ele>
        <time>2021-09-01T17:11:21.000Z</time>
      </trkpt>
      <trkpt lat="44.43683" lon="6.38164">
        <ele>1329</ele>
        <time>2021-09-01T17:11:22.000Z</time>
      </trkpt>
      <trkpt lat="44.43685" lon="6.38159">
        <ele>1328</ele>
        <time>2021-09-01T17:11:23.000Z</time>
      </trkpt>
      <trkpt lat="44.43686" lon="6.38151">
        <ele>1327</ele>
        <time>2021-09-01T17:11:24.000Z</time>
      </trkpt>
      <trkpt lat="44.43688" lon="6.38147">
        <ele>1326</ele>
        <time>2021-09-01T17:11:25.000Z</time>
      </trkpt>
      <trkpt lat="44.43689" lon="6.38142">
        <ele>1325</ele>
        <time>2021-09-01T17:11:26.000Z</time>
      </trkpt>
      <trkpt lat="44.4369" lon="6.38136">
        <ele>1324</ele>
        <time>2021-09-01T17:11:27.000Z</time>
      </trkpt>
      <trkpt lat="44.4369" lon="6.3813">
        <ele>1324</ele>
        <time>2021-09-01T17:11:28.000Z</time>
      </trkpt>
      <trkpt lat="44.43691" lon="6.38124">
        <ele>1323</ele>
        <time>2021-09-01T17:11:29.000Z</time>
      </trkpt>
      <trkpt lat="44.43692" lon="6.3812">
        <ele>1323</ele>
        <time>2021-09-01T17:11:30.000Z</time>
      </trkpt>
      <trkpt lat="44.43693" lon="6.38116">
        <ele>1322</ele>
        <time>2021-09-01T17:11:31.000Z</time>
      </trkpt>
      <trkpt lat="44.43695" lon="6.38111">
        <ele>1322</ele>
        <time>2021-09-01T17:11:32.000Z</time>
      </trkpt>
      <trkpt lat="44.43697" lon="6.38107">
        <ele>1322</ele>
        <time>2021-09-01T17:11:33.000Z</time>
      </trkpt>
      <trkpt lat="44.43698" lon="6.38101">
        <ele>1321</ele>
        <time>2021-09-01T17:11:34.000Z</time>
      </trkpt>
      <trkpt lat="44.437" lon="6.38096">
        <ele>1321</ele>
        <time>2021-09-01T17:11:35.000Z</time>
      </trkpt>
      <trkpt lat="44.43702" lon="6.3809">
        <ele>1320</ele>
        <time>2021-09-01T17:11:36.000Z</time>
      </trkpt>
      <trkpt lat="44.43703" lon="6.38081">
        <ele>1319</ele>
        <time>2021-09-01T17:11:37.000Z</time>
      </trkpt>
      <trkpt lat="44.43705" lon="6.38073">
        <ele>1318</ele>
        <time>2021-09-01T17:11:38.000Z</time>
      </trkpt>
      <trkpt lat="44.43706" lon="6.38066">
        <ele>1317</ele>
        <time>2021-09-01T17:11:39.000Z</time>
      </trkpt>
      <trkpt lat="44.43707" lon="6.3806">
        <ele>1315</ele>
        <time>2021-09-01T17:11:40.000Z</time>
      </trkpt>
      <trkpt lat="44.43708" lon="6.38054">
        <ele>1313</ele>
        <time>2021-09-01T17:11:41.000Z</time>
      </trkpt>
      <trkpt lat="44.43711" lon="6.38047">
        <ele>1311</ele>
        <time>2021-09-01T17:11:42.000Z</time>
      </trkpt>
      <trkpt lat="44.43714" lon="6.3804">
        <ele>1311</ele>
        <time>2021-09-01T17:11:43.000Z</time>
      </trkpt>
      <trkpt lat="44.43717" lon="6.38032">
        <ele>1310</ele>
        <time>2021-09-01T17:11:44.000Z</time>
      </trkpt>
      <trkpt lat="44.43721" lon="6.38024">
        <ele>1309</ele>
        <time>2021-09-01T17:11:45.000Z</time>
      </trkpt>
      <trkpt lat="44.43725" lon="6.38018">
        <ele>1308</ele>
        <time>2021-09-01T17:11:46.000Z</time>
      </trkpt>
      <trkpt lat="44.43728" lon="6.38012">
        <ele>1308</ele>
        <time>2021-09-01T17:11:47.000Z</time>
      </trkpt>
      <trkpt lat="44.43731" lon="6.38006">
        <ele>1308</ele>
        <time>2021-09-01T17:11:48.000Z</time>
      </trkpt>
      <trkpt lat="44.43733" lon="6.38">
        <ele>1307</ele>
        <time>2021-09-01T17:11:49.000Z</time>
      </trkpt>
      <trkpt lat="44.43734" lon="6.37992">
        <ele>1307</ele>
        <time>2021-09-01T17:11:50.000Z</time>
      </trkpt>
      <trkpt lat="44.43737" lon="6.37983">
        <ele>1307</ele>
        <time>2021-09-01T17:11:51.000Z</time>
      </trkpt>
      <trkpt lat="44.43739" lon="6.37972">
        <ele>1307</ele>
        <time>2021-09-01T17:11:52.000Z</time>
      </trkpt>
      <trkpt lat="44.4374" lon="6.37961">
        <ele>1308</ele>
        <time>2021-09-01T17:11:53.000Z</time>
      </trkpt>
      <trkpt lat="44.43741" lon="6.3795">
        <ele>1308</ele>
        <time>2021-09-01T17:11:54.000Z</time>
      </trkpt>
      <trkpt lat="44.43742" lon="6.37942">
        <ele>1307</ele>
        <time>2021-09-01T17:11:55.000Z</time>
      </trkpt>
      <trkpt lat="44.43742" lon="6.37934">
        <ele>1305</ele>
        <time>2021-09-01T17:11:56.000Z</time>
      </trkpt>
      <trkpt lat="44.43743" lon="6.37923">
        <ele>1304</ele>
        <time>2021-09-01T17:11:57.000Z</time>
      </trkpt>
      <trkpt lat="44.43744" lon="6.37908">
        <ele>1304</ele>
        <time>2021-09-01T17:11:58.000Z</time>
      </trkpt>
      <trkpt lat="44.43746" lon="6.37896">
        <ele>1302</ele>
        <time>2021-09-01T17:11:59.000Z</time>
      </trkpt>
      <trkpt lat="44.43749" lon="6.37885">
        <ele>1300</ele>
        <time>2021-09-01T17:12:00.000Z</time>
      </trkpt>
      <trkpt lat="44.43751" lon="6.37874">
        <ele>1299</ele>
        <time>2021-09-01T17:12:01.000Z</time>
      </trkpt>
      <trkpt lat="44.43752" lon="6.37865">
        <ele>1298</ele>
        <time>2021-09-01T17:12:02.000Z</time>
      </trkpt>
      <trkpt lat="44.43753" lon="6.37856">
        <ele>1297</ele>
        <time>2021-09-01T17:12:03.000Z</time>
      </trkpt>
      <trkpt lat="44.43754" lon="6.37848">
        <ele>1295</ele>
        <time>2021-09-01T17:12:04.000Z</time>
      </trkpt>
      <trkpt lat="44.43754" lon="6.37839">
        <ele>1294</ele>
        <time>2021-09-01T17:12:05.000Z</time>
      </trkpt>
      <trkpt lat="44.43755" lon="6.37831">
        <ele>1294</ele>
        <time>2021-09-01T17:12:06.000Z</time>
      </trkpt>
      <trkpt lat="44.43755" lon="6.37826">
        <ele>1293</ele>
        <time>2021-09-01T17:12:07.000Z</time>
      </trkpt>
      <trkpt lat="44.43756" lon="6.37819">
        <ele>1293</ele>
        <time>2021-09-01T17:12:08.000Z</time>
      </trkpt>
      <trkpt lat="44.43757" lon="6.37812">
        <ele>1294</ele>
        <time>2021-09-01T17:12:09.000Z</time>
      </trkpt>
      <trkpt lat="44.43759" lon="6.37804">
        <ele>1295</ele>
        <time>2021-09-01T17:12:10.000Z</time>
      </trkpt>
      <trkpt lat="44.4376" lon="6.37797">
        <ele>1296</ele>
        <time>2021-09-01T17:12:11.000Z</time>
      </trkpt>
      <trkpt lat="44.43761" lon="6.37791">
        <ele>1296</ele>
        <time>2021-09-01T17:12:12.000Z</time>
      </trkpt>
      <trkpt lat="44.4376" lon="6.37782">
        <ele>1297</ele>
        <time>2021-09-01T17:12:13.000Z</time>
      </trkpt>
      <trkpt lat="44.43759" lon="6.37775">
        <ele>1296</ele>
        <time>2021-09-01T17:12:14.000Z</time>
      </trkpt>
      <trkpt lat="44.43759" lon="6.37768">
        <ele>1296</ele>
        <time>2021-09-01T17:12:15.000Z</time>
      </trkpt>
      <trkpt lat="44.43761" lon="6.37764">
        <ele>1296</ele>
        <time>2021-09-01T17:12:16.000Z</time>
      </trkpt>
      <trkpt lat="44.43765" lon="6.3776">
        <ele>1296</ele>
        <time>2021-09-01T17:12:17.000Z</time>
      </trkpt>
      <trkpt lat="44.43763" lon="6.37754">
        <ele>1296</ele>
        <time>2021-09-01T17:12:18.000Z</time>
      </trkpt>
      <trkpt lat="44.43764" lon="6.37749">
        <ele>1296</ele>
        <time>2021-09-01T17:12:19.000Z</time>
      </trkpt>
      <trkpt lat="44.43766" lon="6.37747">
        <ele>1295</ele>
        <time>2021-09-01T17:12:20.000Z</time>
      </trkpt>
      <trkpt lat="44.43768" lon="6.37744">
        <ele>1294</ele>
        <time>2021-09-01T17:12:21.000Z</time>
      </trkpt>
      <trkpt lat="44.43772" lon="6.37742">
        <ele>1293</ele>
        <time>2021-09-01T17:12:22.000Z</time>
      </trkpt>
      <trkpt lat="44.43775" lon="6.37739">
        <ele>1293</ele>
        <time>2021-09-01T17:12:23.000Z</time>
      </trkpt>
      <trkpt lat="44.43781" lon="6.37737">
        <ele>1293</ele>
        <time>2021-09-01T17:12:24.000Z</time>
      </trkpt>
      <trkpt lat="44.43792" lon="6.37736">
        <ele>1291</ele>
        <time>2021-09-01T17:12:25.000Z</time>
      </trkpt>
      <trkpt lat="44.43796" lon="6.37734">
        <ele>1290</ele>
        <time>2021-09-01T17:12:26.000Z</time>
      </trkpt>
      <trkpt lat="44.43802" lon="6.37733">
        <ele>1288</ele>
        <time>2021-09-01T17:12:27.000Z</time>
      </trkpt>
      <trkpt lat="44.43815" lon="6.37734">
        <ele>1287</ele>
        <time>2021-09-01T17:12:28.000Z</time>
      </trkpt>
      <trkpt lat="44.43825" lon="6.37735">
        <ele>1286</ele>
        <time>2021-09-01T17:12:29.000Z</time>
      </trkpt>
      <trkpt lat="44.43838" lon="6.37736">
        <ele>1285</ele>
        <time>2021-09-01T17:12:30.000Z</time>
      </trkpt>
      <trkpt lat="44.43843" lon="6.37732">
        <ele>1285</ele>
        <time>2021-09-01T17:12:31.000Z</time>
      </trkpt>
      <trkpt lat="44.43855" lon="6.37731">
        <ele>1284</ele>
        <time>2021-09-01T17:12:32.000Z</time>
      </trkpt>
      <trkpt lat="44.43864" lon="6.37729">
        <ele>1283</ele>
        <time>2021-09-01T17:12:33.000Z</time>
      </trkpt>
      <trkpt lat="44.43873" lon="6.37726">
        <ele>1283</ele>
        <time>2021-09-01T17:12:34.000Z</time>
      </trkpt>
      <trkpt lat="44.43884" lon="6.37724">
        <ele>1282</ele>
        <time>2021-09-01T17:12:35.000Z</time>
      </trkpt>
      <trkpt lat="44.43896" lon="6.37725">
        <ele>1279</ele>
        <time>2021-09-01T17:12:36.000Z</time>
      </trkpt>
      <trkpt lat="44.43912" lon="6.37727">
        <ele>1275</ele>
        <time>2021-09-01T17:12:37.000Z</time>
      </trkpt>
      <trkpt lat="44.43923" lon="6.37728">
        <ele>1274</ele>
        <time>2021-09-01T17:12:38.000Z</time>
      </trkpt>
      <trkpt lat="44.43932" lon="6.37729">
        <ele>1274</ele>
        <time>2021-09-01T17:12:39.000Z</time>
      </trkpt>
      <trkpt lat="44.43941" lon="6.37728">
        <ele>1273</ele>
        <time>2021-09-01T17:12:40.000Z</time>
      </trkpt>
      <trkpt lat="44.43951" lon="6.37726">
        <ele>1274</ele>
        <time>2021-09-01T17:12:41.000Z</time>
      </trkpt>
      <trkpt lat="44.43962" lon="6.37721">
        <ele>1278</ele>
        <time>2021-09-01T17:12:42.000Z</time>
      </trkpt>
      <trkpt lat="44.4397" lon="6.37717">
        <ele>1281</ele>
        <time>2021-09-01T17:12:43.000Z</time>
      </trkpt>
      <trkpt lat="44.43978" lon="6.37712">
        <ele>1280</ele>
        <time>2021-09-01T17:12:44.000Z</time>
      </trkpt>
      <trkpt lat="44.43984" lon="6.37708">
        <ele>1280</ele>
        <time>2021-09-01T17:12:45.000Z</time>
      </trkpt>
      <trkpt lat="44.4399" lon="6.37701">
        <ele>1280</ele>
        <time>2021-09-01T17:12:46.000Z</time>
      </trkpt>
      <trkpt lat="44.43997" lon="6.37693">
        <ele>1279</ele>
        <time>2021-09-01T17:12:47.000Z</time>
      </trkpt>
      <trkpt lat="44.44003" lon="6.37683">
        <ele>1279</ele>
        <time>2021-09-01T17:12:48.000Z</time>
      </trkpt>
      <trkpt lat="44.4401" lon="6.37673">
        <ele>1279</ele>
        <time>2021-09-01T17:12:49.000Z</time>
      </trkpt>
      <trkpt lat="44.44014" lon="6.37662">
        <ele>1279</ele>
        <time>2021-09-01T17:12:50.000Z</time>
      </trkpt>
      <trkpt lat="44.44016" lon="6.37652">
        <ele>1280</ele>
        <time>2021-09-01T17:12:51.000Z</time>
      </trkpt>
      <trkpt lat="44.44019" lon="6.37641">
        <ele>1280</ele>
        <time>2021-09-01T17:12:52.000Z</time>
      </trkpt>
      <trkpt lat="44.44023" lon="6.37629">
        <ele>1280</ele>
        <time>2021-09-01T17:12:53.000Z</time>
      </trkpt>
      <trkpt lat="44.44026" lon="6.37617">
        <ele>1280</ele>
        <time>2021-09-01T17:12:54.000Z</time>
      </trkpt>
      <trkpt lat="44.4403" lon="6.37606">
        <ele>1280</ele>
        <time>2021-09-01T17:12:55.000Z</time>
      </trkpt>
      <trkpt lat="44.44037" lon="6.37594">
        <ele>1282</ele>
        <time>2021-09-01T17:12:56.000Z</time>
      </trkpt>
      <trkpt lat="44.44044" lon="6.37584">
        <ele>1286</ele>
        <time>2021-09-01T17:12:57.000Z</time>
      </trkpt>
      <trkpt lat="44.44048" lon="6.37573">
        <ele>1288</ele>
        <time>2021-09-01T17:12:58.000Z</time>
      </trkpt>
      <trkpt lat="44.44052" lon="6.37562">
        <ele>1289</ele>
        <time>2021-09-01T17:12:59.000Z</time>
      </trkpt>
      <trkpt lat="44.44054" lon="6.37551">
        <ele>1291</ele>
        <time>2021-09-01T17:13:00.000Z</time>
      </trkpt>
      <trkpt lat="44.44055" lon="6.37541">
        <ele>1290</ele>
        <time>2021-09-01T17:13:01.000Z</time>
      </trkpt>
      <trkpt lat="44.44055" lon="6.37531">
        <ele>1291</ele>
        <time>2021-09-01T17:13:02.000Z</time>
      </trkpt>
      <trkpt lat="44.44054" lon="6.37522">
        <ele>1291</ele>
        <time>2021-09-01T17:13:03.000Z</time>
      </trkpt>
      <trkpt lat="44.44052" lon="6.37513">
        <ele>1291</ele>
        <time>2021-09-01T17:13:04.000Z</time>
      </trkpt>
      <trkpt lat="44.4405" lon="6.37505">
        <ele>1291</ele>
        <time>2021-09-01T17:13:05.000Z</time>
      </trkpt>
      <trkpt lat="44.44048" lon="6.37498">
        <ele>1291</ele>
        <time>2021-09-01T17:13:06.000Z</time>
      </trkpt>
      <trkpt lat="44.44045" lon="6.37491">
        <ele>1291</ele>
        <time>2021-09-01T17:13:07.000Z</time>
      </trkpt>
      <trkpt lat="44.44044" lon="6.37484">
        <ele>1291</ele>
        <time>2021-09-01T17:13:08.000Z</time>
      </trkpt>
      <trkpt lat="44.44042" lon="6.37477">
        <ele>1291</ele>
        <time>2021-09-01T17:13:09.000Z</time>
      </trkpt>
      <trkpt lat="44.4404" lon="6.3747">
        <ele>1290</ele>
        <time>2021-09-01T17:13:10.000Z</time>
      </trkpt>
      <trkpt lat="44.44038" lon="6.37463">
        <ele>1290</ele>
        <time>2021-09-01T17:13:11.000Z</time>
      </trkpt>
      <trkpt lat="44.44037" lon="6.37455">
        <ele>1291</ele>
        <time>2021-09-01T17:13:12.000Z</time>
      </trkpt>
      <trkpt lat="44.44037" lon="6.37448">
        <ele>1290</ele>
        <time>2021-09-01T17:13:13.000Z</time>
      </trkpt>
      <trkpt lat="44.44037" lon="6.3744">
        <ele>1290</ele>
        <time>2021-09-01T17:13:14.000Z</time>
      </trkpt>
      <trkpt lat="44.44037" lon="6.37433">
        <ele>1290</ele>
        <time>2021-09-01T17:13:15.000Z</time>
      </trkpt>
      <trkpt lat="44.44039" lon="6.37425">
        <ele>1290</ele>
        <time>2021-09-01T17:13:16.000Z</time>
      </trkpt>
      <trkpt lat="44.44044" lon="6.37419">
        <ele>1290</ele>
        <time>2021-09-01T17:13:17.000Z</time>
      </trkpt>
      <trkpt lat="44.44047" lon="6.37414">
        <ele>1290</ele>
        <time>2021-09-01T17:13:18.000Z</time>
      </trkpt>
      <trkpt lat="44.44051" lon="6.3741">
        <ele>1290</ele>
        <time>2021-09-01T17:13:19.000Z</time>
      </trkpt>
      <trkpt lat="44.44056" lon="6.3741">
        <ele>1290</ele>
        <time>2021-09-01T17:13:20.000Z</time>
      </trkpt>
      <trkpt lat="44.44062" lon="6.3741">
        <ele>1290</ele>
        <time>2021-09-01T17:13:21.000Z</time>
      </trkpt>
      <trkpt lat="44.44068" lon="6.37409">
        <ele>1291</ele>
        <time>2021-09-01T17:13:22.000Z</time>
      </trkpt>
      <trkpt lat="44.44074" lon="6.37409">
        <ele>1291</ele>
        <time>2021-09-01T17:13:23.000Z</time>
      </trkpt>
      <trkpt lat="44.4408" lon="6.37409">
        <ele>1290</ele>
        <time>2021-09-01T17:13:24.000Z</time>
      </trkpt>
      <trkpt lat="44.44086" lon="6.37408">
        <ele>1291</ele>
        <time>2021-09-01T17:13:25.000Z</time>
      </trkpt>
      <trkpt lat="44.44091" lon="6.37407">
        <ele>1291</ele>
        <time>2021-09-01T17:13:26.000Z</time>
      </trkpt>
      <trkpt lat="44.44097" lon="6.37406">
        <ele>1291</ele>
        <time>2021-09-01T17:13:27.000Z</time>
      </trkpt>
      <trkpt lat="44.44102" lon="6.37403">
        <ele>1290</ele>
        <time>2021-09-01T17:13:28.000Z</time>
      </trkpt>
      <trkpt lat="44.44107" lon="6.37399">
        <ele>1290</ele>
        <time>2021-09-01T17:13:29.000Z</time>
      </trkpt>
      <trkpt lat="44.44112" lon="6.37396">
        <ele>1290</ele>
        <time>2021-09-01T17:13:30.000Z</time>
      </trkpt>
      <trkpt lat="44.44116" lon="6.37391">
        <ele>1290</ele>
        <time>2021-09-01T17:13:31.000Z</time>
      </trkpt>
      <trkpt lat="44.44121" lon="6.37387">
        <ele>1290</ele>
        <time>2021-09-01T17:13:32.000Z</time>
      </trkpt>
      <trkpt lat="44.44127" lon="6.37383">
        <ele>1290</ele>
        <time>2021-09-01T17:13:33.000Z</time>
      </trkpt>
      <trkpt lat="44.44132" lon="6.37378">
        <ele>1290</ele>
        <time>2021-09-01T17:13:34.000Z</time>
      </trkpt>
      <trkpt lat="44.44137" lon="6.37373">
        <ele>1289</ele>
        <time>2021-09-01T17:13:35.000Z</time>
      </trkpt>
      <trkpt lat="44.44141" lon="6.37367">
        <ele>1289</ele>
        <time>2021-09-01T17:13:36.000Z</time>
      </trkpt>
      <trkpt lat="44.44145" lon="6.3736">
        <ele>1289</ele>
        <time>2021-09-01T17:13:37.000Z</time>
      </trkpt>
      <trkpt lat="44.44151" lon="6.37355">
        <ele>1288</ele>
        <time>2021-09-01T17:13:38.000Z</time>
      </trkpt>
      <trkpt lat="44.44156" lon="6.37349">
        <ele>1288</ele>
        <time>2021-09-01T17:13:39.000Z</time>
      </trkpt>
      <trkpt lat="44.44161" lon="6.37343">
        <ele>1288</ele>
        <time>2021-09-01T17:13:40.000Z</time>
      </trkpt>
      <trkpt lat="44.44167" lon="6.37335">
        <ele>1287</ele>
        <time>2021-09-01T17:13:41.000Z</time>
      </trkpt>
      <trkpt lat="44.44172" lon="6.3733">
        <ele>1287</ele>
        <time>2021-09-01T17:13:42.000Z</time>
      </trkpt>
      <trkpt lat="44.44177" lon="6.37323">
        <ele>1286</ele>
        <time>2021-09-01T17:13:43.000Z</time>
      </trkpt>
      <trkpt lat="44.44181" lon="6.37317">
        <ele>1286</ele>
        <time>2021-09-01T17:13:44.000Z</time>
      </trkpt>
      <trkpt lat="44.44186" lon="6.37311">
        <ele>1286</ele>
        <time>2021-09-01T17:13:45.000Z</time>
      </trkpt>
      <trkpt lat="44.4419" lon="6.37305">
        <ele>1285</ele>
        <time>2021-09-01T17:13:46.000Z</time>
      </trkpt>
      <trkpt lat="44.44195" lon="6.37299">
        <ele>1284</ele>
        <time>2021-09-01T17:13:47.000Z</time>
      </trkpt>
      <trkpt lat="44.44199" lon="6.37295">
        <ele>1284</ele>
        <time>2021-09-01T17:13:48.000Z</time>
      </trkpt>
      <trkpt lat="44.44203" lon="6.3729">
        <ele>1283</ele>
        <time>2021-09-01T17:13:49.000Z</time>
      </trkpt>
      <trkpt lat="44.44206" lon="6.37285">
        <ele>1283</ele>
        <time>2021-09-01T17:13:50.000Z</time>
      </trkpt>
      <trkpt lat="44.4421" lon="6.37282">
        <ele>1282</ele>
        <time>2021-09-01T17:13:51.000Z</time>
      </trkpt>
      <trkpt lat="44.44213" lon="6.37278">
        <ele>1282</ele>
        <time>2021-09-01T17:13:52.000Z</time>
      </trkpt>
      <trkpt lat="44.44216" lon="6.37275">
        <ele>1282</ele>
        <time>2021-09-01T17:13:53.000Z</time>
      </trkpt>
      <trkpt lat="44.4422" lon="6.37271">
        <ele>1282</ele>
        <time>2021-09-01T17:13:54.000Z</time>
      </trkpt>
      <trkpt lat="44.44221" lon="6.37266">
        <ele>1282</ele>
        <time>2021-09-01T17:13:55.000Z</time>
      </trkpt>
      <trkpt lat="44.44223" lon="6.37261">
        <ele>1281</ele>
        <time>2021-09-01T17:13:56.000Z</time>
      </trkpt>
      <trkpt lat="44.44225" lon="6.37257">
        <ele>1281</ele>
        <time>2021-09-01T17:13:57.000Z</time>
      </trkpt>
      <trkpt lat="44.44226" lon="6.37253">
        <ele>1282</ele>
        <time>2021-09-01T17:13:58.000Z</time>
      </trkpt>
      <trkpt lat="44.44228" lon="6.37251">
        <ele>1282</ele>
        <time>2021-09-01T17:13:59.000Z</time>
      </trkpt>
      <trkpt lat="44.44229" lon="6.37249">
        <ele>1281</ele>
        <time>2021-09-01T17:14:00.000Z</time>
      </trkpt>
      <trkpt lat="44.4423" lon="6.37248">
        <ele>1282</ele>
        <time>2021-09-01T17:14:01.000Z</time>
      </trkpt>
      <trkpt lat="44.44231" lon="6.37248">
        <ele>1282</ele>
        <time>2021-09-01T17:14:02.000Z</time>
      </trkpt>
      <trkpt lat="44.44232" lon="6.37247">
        <ele>1283</ele>
        <time>2021-09-01T17:14:03.000Z</time>
      </trkpt>
      <trkpt lat="44.44233" lon="6.37247">
        <ele>1284</ele>
        <time>2021-09-01T17:14:04.000Z</time>
      </trkpt>
      <trkpt lat="44.44234" lon="6.37247">
        <ele>1284</ele>
        <time>2021-09-01T17:14:05.000Z</time>
      </trkpt>
      <trkpt lat="44.44234" lon="6.37247">
        <ele>1284</ele>
        <time>2021-09-01T17:14:06.000Z</time>
      </trkpt>
      <trkpt lat="44.44235" lon="6.37247">
        <ele>1284</ele>
        <time>2021-09-01T17:14:07.000Z</time>
      </trkpt>
      <trkpt lat="44.44235" lon="6.37247">
        <ele>1284</ele>
        <time>2021-09-01T17:14:08.000Z</time>
      </trkpt>
      <trkpt lat="44.44235" lon="6.37247">
        <ele>1284</ele>
        <time>2021-09-01T17:14:09.000Z</time>
      </trkpt>
      <trkpt lat="44.44235" lon="6.37248">
        <ele>1283</ele>
        <time>2021-09-01T17:14:10.000Z</time>
      </trkpt>
      <trkpt lat="44.44236" lon="6.37248">
        <ele>1283</ele>
        <time>2021-09-01T17:14:11.000Z</time>
      </trkpt>
      <trkpt lat="44.44236" lon="6.37248">
        <ele>1283</ele>
        <time>2021-09-01T17:14:12.000Z</time>
      </trkpt>
      <trkpt lat="44.44236" lon="6.37248">
        <ele>1283</ele>
        <time>2021-09-01T17:14:13.000Z</time>
      </trkpt>
      <trkpt lat="44.44236" lon="6.37248">
        <ele>1282</ele>
        <time>2021-09-01T17:14:14.000Z</time>
      </trkpt>
      <trkpt lat="44.44236" lon="6.37248">
        <ele>1282</ele>
        <time>2021-09-01T17:14:15.000Z</time>
      </trkpt>
      <trkpt lat="44.44236" lon="6.37247">
        <ele>1282</ele>
        <time>2021-09-01T17:14:16.000Z</time>
      </trkpt>
      <trkpt lat="44.44236" lon="6.37247">
        <ele>1282</ele>
        <time>2021-09-01T17:14:17.000Z</time>
      </trkpt>
      <trkpt lat="44.44236" lon="6.37247">
        <ele>1282</ele>
        <time>2021-09-01T17:14:18.000Z</time>
      </trkpt>
      <trkpt lat="44.44236" lon="6.37247">
        <ele>1282</ele>
        <time>2021-09-01T17:14:19.000Z</time>
      </trkpt>
      <trkpt lat="44.44237" lon="6.37248">
        <ele>1281</ele>
        <time>2021-09-01T17:14:20.000Z</time>
      </trkpt>
      <trkpt lat="44.44237" lon="6.37248">
        <ele>1281</ele>
        <time>2021-09-01T17:14:21.000Z</time>
      </trkpt>
      <trkpt lat="44.44237" lon="6.37248">
        <ele>1281</ele>
        <time>2021-09-01T17:14:22.000Z</time>
      </trkpt>
      <trkpt lat="44.44237" lon="6.37247">
        <ele>1281</ele>
        <time>2021-09-01T17:14:23.000Z</time>
      </trkpt>
      <trkpt lat="44.44237" lon="6.37247">
        <ele>1281</ele>
        <time>2021-09-01T17:14:24.000Z</time>
      </trkpt>
      <trkpt lat="44.44237" lon="6.37247">
        <ele>1281</ele>
        <time>2021-09-01T17:14:25.000Z</time>
      </trkpt>
      <trkpt lat="44.44238" lon="6.37247">
        <ele>1281</ele>
        <time>2021-09-01T17:14:26.000Z</time>
      </trkpt>
      <trkpt lat="44.44238" lon="6.37247">
        <ele>1281</ele>
        <time>2021-09-01T17:14:27.000Z</time>
      </trkpt>
      <trkpt lat="44.44238" lon="6.37247">
        <ele>1281</ele>
        <time>2021-09-01T17:14:28.000Z</time>
      </trkpt>
      <trkpt lat="44.44238" lon="6.37246">
        <ele>1281</ele>
        <time>2021-09-01T17:14:29.000Z</time>
      </trkpt>
      <trkpt lat="44.44238" lon="6.37246">
        <ele>1281</ele>
        <time>2021-09-01T17:14:30.000Z</time>
      </trkpt>
      <trkpt lat="44.44238" lon="6.37246">
        <ele>1281</ele>
        <time>2021-09-01T17:14:31.000Z</time>
      </trkpt>
      <trkpt lat="44.44238" lon="6.37246">
        <ele>1281</ele>
        <time>2021-09-01T17:14:32.000Z</time>
      </trkpt>
      <trkpt lat="44.44238" lon="6.37246">
        <ele>1281</ele>
        <time>2021-09-01T17:14:33.000Z</time>
      </trkpt>
      <trkpt lat="44.44239" lon="6.37246">
        <ele>1279</ele>
        <time>2021-09-01T17:14:34.000Z</time>
      </trkpt>
      <trkpt lat="44.4424" lon="6.37246">
        <ele>1279</ele>
        <time>2021-09-01T17:14:35.000Z</time>
      </trkpt>
      <trkpt lat="44.4424" lon="6.37246">
        <ele>1278</ele>
        <time>2021-09-01T17:14:36.000Z</time>
      </trkpt>
      <trkpt lat="44.4424" lon="6.37245">
        <ele>1278</ele>
        <time>2021-09-01T17:14:37.000Z</time>
      </trkpt>
      <trkpt lat="44.4424" lon="6.37245">
        <ele>1278</ele>
        <time>2021-09-01T17:14:38.000Z</time>
      </trkpt>
      <trkpt lat="44.4424" lon="6.37245">
        <ele>1278</ele>
        <time>2021-09-01T17:14:39.000Z</time>
      </trkpt>
      <trkpt lat="44.4424" lon="6.37245">
        <ele>1278</ele>
        <time>2021-09-01T17:14:40.000Z</time>
      </trkpt>
      <trkpt lat="44.4424" lon="6.37245">
        <ele>1278</ele>
        <time>2021-09-01T17:14:41.000Z</time>
      </trkpt>
      <trkpt lat="44.44241" lon="6.37245">
        <ele>1278</ele>
        <time>2021-09-01T17:14:42.000Z</time>
      </trkpt>
      <trkpt lat="44.44241" lon="6.37245">
        <ele>1278</ele>
        <time>2021-09-01T17:14:43.000Z</time>
      </trkpt>
      <trkpt lat="44.44241" lon="6.37245">
        <ele>1278</ele>
        <time>2021-09-01T17:14:44.000Z</time>
      </trkpt>
      <trkpt lat="44.44241" lon="6.37245">
        <ele>1278</ele>
        <time>2021-09-01T17:14:45.000Z</time>
      </trkpt>
      <trkpt lat="44.44241" lon="6.37245">
        <ele>1277</ele>
        <time>2021-09-01T17:14:46.000Z</time>
      </trkpt>
      <trkpt lat="44.44241" lon="6.37245">
        <ele>1278</ele>
        <time>2021-09-01T17:14:47.000Z</time>
      </trkpt>
      <trkpt lat="44.44241" lon="6.37245">
        <ele>1278</ele>
        <time>2021-09-01T17:14:48.000Z</time>
      </trkpt>
      <trkpt lat="44.44241" lon="6.37245">
        <ele>1278</ele>
        <time>2021-09-01T17:14:49.000Z</time>
      </trkpt>
      <trkpt lat="44.44241" lon="6.37245">
        <ele>1279</ele>
        <time>2021-09-01T17:14:50.000Z</time>
      </trkpt>
      <trkpt lat="44.44241" lon="6.37244">
        <ele>1279</ele>
        <time>2021-09-01T17:14:51.000Z</time>
      </trkpt>
      <trkpt lat="44.44241" lon="6.37244">
        <ele>1279</ele>
        <time>2021-09-01T17:14:52.000Z</time>
      </trkpt>
      <trkpt lat="44.44241" lon="6.37244">
        <ele>1279</ele>
        <time>2021-09-01T17:14:53.000Z</time>
      </trkpt>
      <trkpt lat="44.44241" lon="6.37244">
        <ele>1279</ele>
        <time>2021-09-01T17:14:54.000Z</time>
      </trkpt>
      <trkpt lat="44.44241" lon="6.37244">
        <ele>1278</ele>
        <time>2021-09-01T17:14:55.000Z</time>
      </trkpt>
      <trkpt lat="44.44241" lon="6.37244">
        <ele>1279</ele>
        <time>2021-09-01T17:14:56.000Z</time>
      </trkpt>
      <trkpt lat="44.44241" lon="6.37244">
        <ele>1279</ele>
        <time>2021-09-01T17:14:57.000Z</time>
      </trkpt>
      <trkpt lat="44.44241" lon="6.37244">
        <ele>1279</ele>
        <time>2021-09-01T17:14:58.000Z</time>
      </trkpt>
      <trkpt lat="44.44241" lon="6.37244">
        <ele>1279</ele>
        <time>2021-09-01T17:14:59.000Z</time>
      </trkpt>
      <trkpt lat="44.44241" lon="6.37244">
        <ele>1279</ele>
        <time>2021-09-01T17:15:00.000Z</time>
      </trkpt>
      <trkpt lat="44.44241" lon="6.37244">
        <ele>1279</ele>
        <time>2021-09-01T17:15:01.000Z</time>
      </trkpt>
      <trkpt lat="44.44241" lon="6.37244">
        <ele>1279</ele>
        <time>2021-09-01T17:15:02.000Z</time>
      </trkpt>
      <trkpt lat="44.44241" lon="6.37244">
        <ele>1279</ele>
        <time>2021-09-01T17:15:03.000Z</time>
      </trkpt>
      <trkpt lat="44.44241" lon="6.37244">
        <ele>1279</ele>
        <time>2021-09-01T17:15:04.000Z</time>
      </trkpt>
      <trkpt lat="44.44241" lon="6.37244">
        <ele>1278</ele>
        <time>2021-09-01T17:15:05.000Z</time>
      </trkpt>
      <trkpt lat="44.44241" lon="6.37244">
        <ele>1278</ele>
        <time>2021-09-01T17:15:06.000Z</time>
      </trkpt>
      <trkpt lat="44.44241" lon="6.37244">
        <ele>1278</ele>
        <time>2021-09-01T17:15:07.000Z</time>
      </trkpt>
      <trkpt lat="44.44241" lon="6.37244">
        <ele>1278</ele>
        <time>2021-09-01T17:15:08.000Z</time>
      </trkpt>
      <trkpt lat="44.44241" lon="6.37244">
        <ele>1278</ele>
        <time>2021-09-01T17:15:09.000Z</time>
      </trkpt>
      <trkpt lat="44.44241" lon="6.37244">
        <ele>1278</ele>
        <time>2021-09-01T17:15:10.000Z</time>
      </trkpt>
      <trkpt lat="44.4424" lon="6.37244">
        <ele>1278</ele>
        <time>2021-09-01T17:15:11.000Z</time>
      </trkpt>
      <trkpt lat="44.4424" lon="6.37244">
        <ele>1278</ele>
        <time>2021-09-01T17:15:12.000Z</time>
      </trkpt>
      <trkpt lat="44.4424" lon="6.37245">
        <ele>1278</ele>
        <time>2021-09-01T17:15:13.000Z</time>
      </trkpt>
      <trkpt lat="44.4424" lon="6.37245">
        <ele>1278</ele>
        <time>2021-09-01T17:15:14.000Z</time>
      </trkpt>
      <trkpt lat="44.4424" lon="6.37244">
        <ele>1278</ele>
        <time>2021-09-01T17:15:15.000Z</time>
      </trkpt>
      <trkpt lat="44.4424" lon="6.37244">
        <ele>1278</ele>
        <time>2021-09-01T17:15:16.000Z</time>
      </trkpt>
      <trkpt lat="44.4424" lon="6.37244">
        <ele>1278</ele>
        <time>2021-09-01T17:15:17.000Z</time>
      </trkpt>
      <trkpt lat="44.4424" lon="6.37244">
        <ele>1278</ele>
        <time>2021-09-01T17:15:18.000Z</time>
      </trkpt>
      <trkpt lat="44.4424" lon="6.37244">
        <ele>1278</ele>
        <time>2021-09-01T17:15:19.000Z</time>
      </trkpt>
      <trkpt lat="44.44241" lon="6.37244">
        <ele>1278</ele>
        <time>2021-09-01T17:15:20.000Z</time>
      </trkpt>
      <trkpt lat="44.44241" lon="6.37244">
        <ele>1278</ele>
        <time>2021-09-01T17:15:21.000Z</time>
      </trkpt>
      <trkpt lat="44.44241" lon="6.37244">
        <ele>1278</ele>
        <time>2021-09-01T17:15:22.000Z</time>
      </trkpt>
      <trkpt lat="44.44241" lon="6.37244">
        <ele>1277</ele>
        <time>2021-09-01T17:15:23.000Z</time>
      </trkpt>
      <trkpt lat="44.44241" lon="6.37244">
        <ele>1277</ele>
        <time>2021-09-01T17:15:24.000Z</time>
      </trkpt>
      <trkpt lat="44.44241" lon="6.37244">
        <ele>1277</ele>
        <time>2021-09-01T17:15:25.000Z</time>
      </trkpt>
      <trkpt lat="44.44241" lon="6.37244">
        <ele>1277</ele>
        <time>2021-09-01T17:15:26.000Z</time>
      </trkpt>
      <trkpt lat="44.44241" lon="6.37244">
        <ele>1277</ele>
        <time>2021-09-01T17:15:27.000Z</time>
      </trkpt>
      <trkpt lat="44.44241" lon="6.37244">
        <ele>1277</ele>
        <time>2021-09-01T17:15:28.000Z</time>
      </trkpt>
      <trkpt lat="44.44241" lon="6.37244">
        <ele>1277</ele>
        <time>2021-09-01T17:15:29.000Z</time>
      </trkpt>
      <trkpt lat="44.44241" lon="6.37244">
        <ele>1277</ele>
        <time>2021-09-01T17:15:30.000Z</time>
      </trkpt>
      <trkpt lat="44.4424" lon="6.37245">
        <ele>1276</ele>
        <time>2021-09-01T17:15:31.000Z</time>
      </trkpt>
      <trkpt lat="44.4424" lon="6.37245">
        <ele>1276</ele>
        <time>2021-09-01T17:15:32.000Z</time>
      </trkpt>
      <trkpt lat="44.44241" lon="6.37244">
        <ele>1276</ele>
        <time>2021-09-01T17:15:33.000Z</time>
      </trkpt>
      <trkpt lat="44.44241" lon="6.37245">
        <ele>1276</ele>
        <time>2021-09-01T17:15:34.000Z</time>
      </trkpt>
      <trkpt lat="44.44241" lon="6.37245">
        <ele>1275</ele>
        <time>2021-09-01T17:15:35.000Z</time>
      </trkpt>
      <trkpt lat="44.44241" lon="6.37245">
        <ele>1275</ele>
        <time>2021-09-01T17:15:36.000Z</time>
      </trkpt>
      <trkpt lat="44.44241" lon="6.37245">
        <ele>1275</ele>
        <time>2021-09-01T17:15:37.000Z</time>
      </trkpt>
      <trkpt lat="44.44241" lon="6.37245">
        <ele>1275</ele>
        <time>2021-09-01T17:15:38.000Z</time>
      </trkpt>
      <trkpt lat="44.44241" lon="6.37245">
        <ele>1275</ele>
        <time>2021-09-01T17:15:39.000Z</time>
      </trkpt>
      <trkpt lat="44.44241" lon="6.37245">
        <ele>1275</ele>
        <time>2021-09-01T17:15:40.000Z</time>
      </trkpt>
      <trkpt lat="44.44241" lon="6.37245">
        <ele>1275</ele>
        <time>2021-09-01T17:15:41.000Z</time>
      </trkpt>
      <trkpt lat="44.44241" lon="6.37244">
        <ele>1275</ele>
        <time>2021-09-01T17:15:42.000Z</time>
      </trkpt>
      <trkpt lat="44.44241" lon="6.37245">
        <ele>1275</ele>
        <time>2021-09-01T17:15:43.000Z</time>
      </trkpt>
      <trkpt lat="44.44241" lon="6.37246">
        <ele>1275</ele>
        <time>2021-09-01T17:15:44.000Z</time>
      </trkpt>
      <trkpt lat="44.44241" lon="6.37246">
        <ele>1275</ele>
        <time>2021-09-01T17:15:45.000Z</time>
      </trkpt>
      <trkpt lat="44.44241" lon="6.37247">
        <ele>1276</ele>
        <time>2021-09-01T17:15:46.000Z</time>
      </trkpt>
      <trkpt lat="44.44241" lon="6.37247">
        <ele>1276</ele>
        <time>2021-09-01T17:15:47.000Z</time>
      </trkpt>
      <trkpt lat="44.44241" lon="6.37247">
        <ele>1277</ele>
        <time>2021-09-01T17:15:48.000Z</time>
      </trkpt>
      <trkpt lat="44.44241" lon="6.37246">
        <ele>1277</ele>
        <time>2021-09-01T17:15:49.000Z</time>
      </trkpt>
      <trkpt lat="44.44241" lon="6.37246">
        <ele>1277</ele>
        <time>2021-09-01T17:15:50.000Z</time>
      </trkpt>
      <trkpt lat="44.44241" lon="6.37246">
        <ele>1277</ele>
        <time>2021-09-01T17:15:51.000Z</time>
      </trkpt>
      <trkpt lat="44.44241" lon="6.37246">
        <ele>1277</ele>
        <time>2021-09-01T17:15:52.000Z</time>
      </trkpt>
      <trkpt lat="44.44241" lon="6.37247">
        <ele>1277</ele>
        <time>2021-09-01T17:15:53.000Z</time>
      </trkpt>
      <trkpt lat="44.44241" lon="6.37247">
        <ele>1277</ele>
        <time>2021-09-01T17:15:54.000Z</time>
      </trkpt>
      <trkpt lat="44.44241" lon="6.37247">
        <ele>1277</ele>
        <time>2021-09-01T17:15:55.000Z</time>
      </trkpt>
      <trkpt lat="44.44242" lon="6.37247">
        <ele>1276</ele>
        <time>2021-09-01T17:15:56.000Z</time>
      </trkpt>
      <trkpt lat="44.44242" lon="6.37247">
        <ele>1276</ele>
        <time>2021-09-01T17:15:57.000Z</time>
      </trkpt>
      <trkpt lat="44.44242" lon="6.37247">
        <ele>1276</ele>
        <time>2021-09-01T17:15:58.000Z</time>
      </trkpt>
      <trkpt lat="44.44242" lon="6.37247">
        <ele>1276</ele>
        <time>2021-09-01T17:15:59.000Z</time>
      </trkpt>
      <trkpt lat="44.44241" lon="6.37247">
        <ele>1277</ele>
        <time>2021-09-01T17:16:00.000Z</time>
      </trkpt>
      <trkpt lat="44.44241" lon="6.37247">
        <ele>1277</ele>
        <time>2021-09-01T17:16:01.000Z</time>
      </trkpt>
      <trkpt lat="44.44241" lon="6.37247">
        <ele>1277</ele>
        <time>2021-09-01T17:16:02.000Z</time>
      </trkpt>
      <trkpt lat="44.44241" lon="6.37247">
        <ele>1277</ele>
        <time>2021-09-01T17:16:03.000Z</time>
      </trkpt>
      <trkpt lat="44.44241" lon="6.37247">
        <ele>1276</ele>
        <time>2021-09-01T17:16:04.000Z</time>
      </trkpt>
      <trkpt lat="44.44241" lon="6.37247">
        <ele>1276</ele>
        <time>2021-09-01T17:16:05.000Z</time>
      </trkpt>
      <trkpt lat="44.44241" lon="6.37247">
        <ele>1276</ele>
        <time>2021-09-01T17:16:06.000Z</time>
      </trkpt>
      <trkpt lat="44.44241" lon="6.37247">
        <ele>1276</ele>
        <time>2021-09-01T17:16:07.000Z</time>
      </trkpt>
      <trkpt lat="44.44241" lon="6.37247">
        <ele>1276</ele>
        <time>2021-09-01T17:16:08.000Z</time>
      </trkpt>
      <trkpt lat="44.44241" lon="6.37247">
        <ele>1276</ele>
        <time>2021-09-01T17:16:09.000Z</time>
      </trkpt>
      <trkpt lat="44.44241" lon="6.37247">
        <ele>1276</ele>
        <time>2021-09-01T17:16:10.000Z</time>
      </trkpt>
      <trkpt lat="44.44242" lon="6.37247">
        <ele>1276</ele>
        <time>2021-09-01T17:16:11.000Z</time>
      </trkpt>
      <trkpt lat="44.44242" lon="6.37247">
        <ele>1276</ele>
        <time>2021-09-01T17:16:12.000Z</time>
      </trkpt>
      <trkpt lat="44.44242" lon="6.37247">
        <ele>1276</ele>
        <time>2021-09-01T17:16:13.000Z</time>
      </trkpt>
      <trkpt lat="44.44242" lon="6.37248">
        <ele>1276</ele>
        <time>2021-09-01T17:16:14.000Z</time>
      </trkpt>
      <trkpt lat="44.44242" lon="6.37247">
        <ele>1276</ele>
        <time>2021-09-01T17:16:15.000Z</time>
      </trkpt>
      <trkpt lat="44.44242" lon="6.37247">
        <ele>1276</ele>
        <time>2021-09-01T17:16:16.000Z</time>
      </trkpt>
      <trkpt lat="44.44241" lon="6.37247">
        <ele>1277</ele>
        <time>2021-09-01T17:16:17.000Z</time>
      </trkpt>
      <trkpt lat="44.44241" lon="6.37247">
        <ele>1277</ele>
        <time>2021-09-01T17:16:18.000Z</time>
      </trkpt>
      <trkpt lat="44.44241" lon="6.37246">
        <ele>1276</ele>
        <time>2021-09-01T17:16:19.000Z</time>
      </trkpt>
      <trkpt lat="44.44242" lon="6.37245">
        <ele>1277</ele>
        <time>2021-09-01T17:16:20.000Z</time>
      </trkpt>
      <trkpt lat="44.44242" lon="6.37245">
        <ele>1277</ele>
        <time>2021-09-01T17:16:21.000Z</time>
      </trkpt>
      <trkpt lat="44.44242" lon="6.37244">
        <ele>1276</ele>
        <time>2021-09-01T17:16:22.000Z</time>
      </trkpt>
      <trkpt lat="44.44242" lon="6.37244">
        <ele>1276</ele>
        <time>2021-09-01T17:16:23.000Z</time>
      </trkpt>
      <trkpt lat="44.44243" lon="6.37244">
        <ele>1276</ele>
        <time>2021-09-01T17:16:24.000Z</time>
      </trkpt>
      <trkpt lat="44.44243" lon="6.37244">
        <ele>1276</ele>
        <time>2021-09-01T17:16:25.000Z</time>
      </trkpt>
      <trkpt lat="44.44243" lon="6.37243">
        <ele>1276</ele>
        <time>2021-09-01T17:16:26.000Z</time>
      </trkpt>
      <trkpt lat="44.44243" lon="6.37243">
        <ele>1277</ele>
        <time>2021-09-01T17:16:27.000Z</time>
      </trkpt>
      <trkpt lat="44.44243" lon="6.37243">
        <ele>1277</ele>
        <time>2021-09-01T17:16:28.000Z</time>
        <extensions>
          <visugpx:TrkExtension xmlns:visugpx="https://www.visugpx.com/editgpx/">
            <visugpx:node>1</visugpx:node>
            </visugpx:TrkExtension>
        </extensions>
      </trkpt>
    </trkseg>
  </trk>
</gpx>